<?xml version="1.0" encoding="UTF-8" standalone="no" ?>
<gpx xmlns="http://www.topografix.com/GPX/1/1" xmlns:xsi="http://www.w3.org/2001/XMLSchema-instance" xsi:schemaLocation="http://www.topografix.com/GPX/1/1 http://www.topografix.com/GPX/1/1/gpx.xsd" version="1.1" creator="VisuGPX - https://www.visugpx.com">
  <metadata>
    <name>lacs lignins</name>
    <desc><![CDATA[Notre sortie classique aux Ligniens, départ de Peyresq bascule sur les Lacs par la baisse de Mouries et retour par la baisse de Detroit convergence à la cabane Pasquier.
Final par une belle descente sur Peyresq.]]></desc>
  </metadata>
  <trk>
    <name><![CDATA[lacs lignins]]></name>
    <extensions>
      <line xmlns="http://www.topografix.com/GPX/gpx_style/0/2">
        <color>0000FF</color>
        <width>4</width>
      </line>
    </extensions>
    <trkseg>
      <trkpt lat="44.07291" lon="6.61107">
        <ele>1530.4000244141</ele>
        <time>2021-08-21T07:18:32.000Z</time>
      </trkpt>
      <trkpt lat="44.07291" lon="6.61106">
        <ele>1530.1999511719</ele>
        <time>2021-08-21T07:18:39.000Z</time>
      </trkpt>
      <trkpt lat="44.07291" lon="6.61105">
        <ele>1530.1999511719</ele>
        <time>2021-08-21T07:18:53.000Z</time>
      </trkpt>
      <trkpt lat="44.07293" lon="6.61105">
        <ele>1530.1999511719</ele>
        <time>2021-08-21T07:19:03.000Z</time>
      </trkpt>
      <trkpt lat="44.07293" lon="6.61106">
        <ele>1529.4000244141</ele>
        <time>2021-08-21T07:19:13.000Z</time>
      </trkpt>
      <trkpt lat="44.07293" lon="6.61106">
        <ele>1529.4000244141</ele>
        <time>2021-08-21T07:19:17.000Z</time>
      </trkpt>
      <trkpt lat="44.07293" lon="6.61105">
        <ele>1529.1999511719</ele>
        <time>2021-08-21T07:19:33.000Z</time>
      </trkpt>
      <trkpt lat="44.07292" lon="6.61103">
        <ele>1529.1999511719</ele>
        <time>2021-08-21T07:19:49.000Z</time>
      </trkpt>
      <trkpt lat="44.07289" lon="6.61101">
        <ele>1529.1999511719</ele>
        <time>2021-08-21T07:20:13.000Z</time>
      </trkpt>
      <trkpt lat="44.07288" lon="6.61101">
        <ele>1529.1999511719</ele>
        <time>2021-08-21T07:20:43.000Z</time>
      </trkpt>
      <trkpt lat="44.07288" lon="6.61102">
        <ele>1529</ele>
        <time>2021-08-21T07:21:00.000Z</time>
      </trkpt>
      <trkpt lat="44.07288" lon="6.61101">
        <ele>1528.8000488281</ele>
        <time>2021-08-21T07:21:25.000Z</time>
      </trkpt>
      <trkpt lat="44.07289" lon="6.61102">
        <ele>1528.8000488281</ele>
        <time>2021-08-21T07:21:48.000Z</time>
      </trkpt>
      <trkpt lat="44.07288" lon="6.61103">
        <ele>1528.8000488281</ele>
        <time>2021-08-21T07:22:12.000Z</time>
      </trkpt>
      <trkpt lat="44.07287" lon="6.61103">
        <ele>1528.8000488281</ele>
        <time>2021-08-21T07:22:35.000Z</time>
      </trkpt>
      <trkpt lat="44.07288" lon="6.61103">
        <ele>1528.8000488281</ele>
        <time>2021-08-21T07:22:55.000Z</time>
      </trkpt>
      <trkpt lat="44.07288" lon="6.61103">
        <ele>1528.8000488281</ele>
        <time>2021-08-21T07:23:18.000Z</time>
      </trkpt>
      <trkpt lat="44.07288" lon="6.61103">
        <ele>1528.8000488281</ele>
        <time>2021-08-21T07:23:49.000Z</time>
      </trkpt>
      <trkpt lat="44.0729" lon="6.61101">
        <ele>1529.5999755859</ele>
        <time>2021-08-21T07:24:03.000Z</time>
      </trkpt>
      <trkpt lat="44.07289" lon="6.61101">
        <ele>1529.8000488281</ele>
        <time>2021-08-21T07:24:11.000Z</time>
      </trkpt>
      <trkpt lat="44.07289" lon="6.611">
        <ele>1530.1999511719</ele>
        <time>2021-08-21T07:24:23.000Z</time>
      </trkpt>
      <trkpt lat="44.07289" lon="6.61099">
        <ele>1529.5999755859</ele>
        <time>2021-08-21T07:24:31.000Z</time>
      </trkpt>
      <trkpt lat="44.07289" lon="6.61098">
        <ele>1530.1999511719</ele>
        <time>2021-08-21T07:24:39.000Z</time>
      </trkpt>
      <trkpt lat="44.07289" lon="6.61098">
        <ele>1530.4000244141</ele>
        <time>2021-08-21T07:24:41.000Z</time>
      </trkpt>
      <trkpt lat="44.07288" lon="6.61097">
        <ele>1530.4000244141</ele>
        <time>2021-08-21T07:24:50.000Z</time>
      </trkpt>
      <trkpt lat="44.07288" lon="6.61097">
        <ele>1530.4000244141</ele>
        <time>2021-08-21T07:24:57.000Z</time>
      </trkpt>
      <trkpt lat="44.07288" lon="6.61097">
        <ele>1530.1999511719</ele>
        <time>2021-08-21T07:25:09.000Z</time>
      </trkpt>
      <trkpt lat="44.07289" lon="6.61096">
        <ele>1530</ele>
        <time>2021-08-21T07:25:14.000Z</time>
      </trkpt>
      <trkpt lat="44.07289" lon="6.61096">
        <ele>1529.8000488281</ele>
        <time>2021-08-21T07:25:27.000Z</time>
      </trkpt>
      <trkpt lat="44.07289" lon="6.61097">
        <ele>1529.8000488281</ele>
        <time>2021-08-21T07:25:37.000Z</time>
      </trkpt>
      <trkpt lat="44.07289" lon="6.61096">
        <ele>1529.8000488281</ele>
        <time>2021-08-21T07:25:45.000Z</time>
      </trkpt>
      <trkpt lat="44.07291" lon="6.61095">
        <ele>1530.8000488281</ele>
        <time>2021-08-21T07:25:54.000Z</time>
      </trkpt>
      <trkpt lat="44.0729" lon="6.61094">
        <ele>1530.4000244141</ele>
        <time>2021-08-21T07:26:06.000Z</time>
      </trkpt>
      <trkpt lat="44.0729" lon="6.61093">
        <ele>1530.4000244141</ele>
        <time>2021-08-21T07:26:16.000Z</time>
      </trkpt>
      <trkpt lat="44.07289" lon="6.61092">
        <ele>1530.4000244141</ele>
        <time>2021-08-21T07:26:22.000Z</time>
      </trkpt>
      <trkpt lat="44.07287" lon="6.61092">
        <ele>1530.4000244141</ele>
        <time>2021-08-21T07:26:28.000Z</time>
      </trkpt>
      <trkpt lat="44.07284" lon="6.61092">
        <ele>1530.5999755859</ele>
        <time>2021-08-21T07:26:30.000Z</time>
      </trkpt>
      <trkpt lat="44.07271" lon="6.61087">
        <ele>1531.1999511719</ele>
        <time>2021-08-21T07:26:37.000Z</time>
      </trkpt>
      <trkpt lat="44.07262" lon="6.61083">
        <ele>1531.4000244141</ele>
        <time>2021-08-21T07:26:41.000Z</time>
      </trkpt>
      <trkpt lat="44.07248" lon="6.61076">
        <ele>1531.8000488281</ele>
        <time>2021-08-21T07:26:48.000Z</time>
      </trkpt>
      <trkpt lat="44.07233" lon="6.61066">
        <ele>1532.5999755859</ele>
        <time>2021-08-21T07:26:55.000Z</time>
      </trkpt>
      <trkpt lat="44.07227" lon="6.61061">
        <ele>1532.8000488281</ele>
        <time>2021-08-21T07:26:58.000Z</time>
      </trkpt>
      <trkpt lat="44.07209" lon="6.61044">
        <ele>1533.4000244141</ele>
        <time>2021-08-21T07:27:07.000Z</time>
      </trkpt>
      <trkpt lat="44.07204" lon="6.61037">
        <ele>1533.5999755859</ele>
        <time>2021-08-21T07:27:10.000Z</time>
      </trkpt>
      <trkpt lat="44.0719" lon="6.61025">
        <ele>1534</ele>
        <time>2021-08-21T07:27:16.000Z</time>
      </trkpt>
      <trkpt lat="44.07174" lon="6.6101">
        <ele>1534.8000488281</ele>
        <time>2021-08-21T07:27:23.000Z</time>
      </trkpt>
      <trkpt lat="44.07162" lon="6.61001">
        <ele>1535.1999511719</ele>
        <time>2021-08-21T07:27:28.000Z</time>
      </trkpt>
      <trkpt lat="44.07147" lon="6.60992">
        <ele>1535.8000488281</ele>
        <time>2021-08-21T07:27:34.000Z</time>
      </trkpt>
      <trkpt lat="44.07139" lon="6.60989">
        <ele>1536</ele>
        <time>2021-08-21T07:27:37.000Z</time>
      </trkpt>
      <trkpt lat="44.07119" lon="6.60984">
        <ele>1536.8000488281</ele>
        <time>2021-08-21T07:27:44.000Z</time>
      </trkpt>
      <trkpt lat="44.07107" lon="6.60982">
        <ele>1537.1999511719</ele>
        <time>2021-08-21T07:27:48.000Z</time>
      </trkpt>
      <trkpt lat="44.07087" lon="6.60979">
        <ele>1537.8000488281</ele>
        <time>2021-08-21T07:27:55.000Z</time>
      </trkpt>
      <trkpt lat="44.07076" lon="6.60974">
        <ele>1538.1999511719</ele>
        <time>2021-08-21T07:27:59.000Z</time>
      </trkpt>
      <trkpt lat="44.0706" lon="6.60959">
        <ele>1538.5999755859</ele>
        <time>2021-08-21T07:28:06.000Z</time>
      </trkpt>
      <trkpt lat="44.07057" lon="6.60953">
        <ele>1539</ele>
        <time>2021-08-21T07:28:08.000Z</time>
      </trkpt>
      <trkpt lat="44.07056" lon="6.60948">
        <ele>1539</ele>
        <time>2021-08-21T07:28:09.000Z</time>
      </trkpt>
      <trkpt lat="44.07058" lon="6.60939">
        <ele>1539.1999511719</ele>
        <time>2021-08-21T07:28:11.000Z</time>
      </trkpt>
      <trkpt lat="44.07073" lon="6.60913">
        <ele>1538.8000488281</ele>
        <time>2021-08-21T07:28:17.000Z</time>
      </trkpt>
      <trkpt lat="44.07093" lon="6.60878">
        <ele>1538</ele>
        <time>2021-08-21T07:28:24.000Z</time>
      </trkpt>
      <trkpt lat="44.07096" lon="6.60871">
        <ele>1537.8000488281</ele>
        <time>2021-08-21T07:28:26.000Z</time>
      </trkpt>
      <trkpt lat="44.07099" lon="6.60864">
        <ele>1538.1999511719</ele>
        <time>2021-08-21T07:28:29.000Z</time>
      </trkpt>
      <trkpt lat="44.07104" lon="6.60851">
        <ele>1539</ele>
        <time>2021-08-21T07:28:33.000Z</time>
      </trkpt>
      <trkpt lat="44.07109" lon="6.60842">
        <ele>1540.1999511719</ele>
        <time>2021-08-21T07:28:36.000Z</time>
      </trkpt>
      <trkpt lat="44.0711" lon="6.60839">
        <ele>1540.4000244141</ele>
        <time>2021-08-21T07:28:37.000Z</time>
      </trkpt>
      <trkpt lat="44.07114" lon="6.60829">
        <ele>1541.1999511719</ele>
        <time>2021-08-21T07:28:40.000Z</time>
      </trkpt>
      <trkpt lat="44.07117" lon="6.60817">
        <ele>1541.8000488281</ele>
        <time>2021-08-21T07:28:44.000Z</time>
      </trkpt>
      <trkpt lat="44.07116" lon="6.60812">
        <ele>1542.4000244141</ele>
        <time>2021-08-21T07:28:46.000Z</time>
      </trkpt>
      <trkpt lat="44.07112" lon="6.60804">
        <ele>1543.4000244141</ele>
        <time>2021-08-21T07:28:49.000Z</time>
      </trkpt>
      <trkpt lat="44.07111" lon="6.60802">
        <ele>1543.5999755859</ele>
        <time>2021-08-21T07:28:50.000Z</time>
      </trkpt>
      <trkpt lat="44.07109" lon="6.60789">
        <ele>1544.8000488281</ele>
        <time>2021-08-21T07:28:55.000Z</time>
      </trkpt>
      <trkpt lat="44.07108" lon="6.60776">
        <ele>1545.8000488281</ele>
        <time>2021-08-21T07:29:00.000Z</time>
      </trkpt>
      <trkpt lat="44.07105" lon="6.60768">
        <ele>1546.4000244141</ele>
        <time>2021-08-21T07:29:03.000Z</time>
      </trkpt>
      <trkpt lat="44.07101" lon="6.60758">
        <ele>1547</ele>
        <time>2021-08-21T07:29:07.000Z</time>
      </trkpt>
      <trkpt lat="44.07099" lon="6.60753">
        <ele>1547.5999755859</ele>
        <time>2021-08-21T07:29:09.000Z</time>
      </trkpt>
      <trkpt lat="44.07095" lon="6.60742">
        <ele>1548.1999511719</ele>
        <time>2021-08-21T07:29:13.000Z</time>
      </trkpt>
      <trkpt lat="44.07095" lon="6.6074">
        <ele>1548.5999755859</ele>
        <time>2021-08-21T07:29:15.000Z</time>
      </trkpt>
      <trkpt lat="44.07095" lon="6.60738">
        <ele>1548.5999755859</ele>
        <time>2021-08-21T07:29:16.000Z</time>
      </trkpt>
      <trkpt lat="44.07094" lon="6.60733">
        <ele>1548.5999755859</ele>
        <time>2021-08-21T07:29:18.000Z</time>
      </trkpt>
      <trkpt lat="44.07093" lon="6.6073">
        <ele>1548.8000488281</ele>
        <time>2021-08-21T07:29:19.000Z</time>
      </trkpt>
      <trkpt lat="44.07088" lon="6.60722">
        <ele>1549</ele>
        <time>2021-08-21T07:29:22.000Z</time>
      </trkpt>
      <trkpt lat="44.07086" lon="6.6072">
        <ele>1549.4000244141</ele>
        <time>2021-08-21T07:29:23.000Z</time>
      </trkpt>
      <trkpt lat="44.07083" lon="6.60716">
        <ele>1549.8000488281</ele>
        <time>2021-08-21T07:29:25.000Z</time>
      </trkpt>
      <trkpt lat="44.07078" lon="6.60707">
        <ele>1550.5999755859</ele>
        <time>2021-08-21T07:29:29.000Z</time>
      </trkpt>
      <trkpt lat="44.07076" lon="6.60702">
        <ele>1551</ele>
        <time>2021-08-21T07:29:32.000Z</time>
      </trkpt>
      <trkpt lat="44.07073" lon="6.60693">
        <ele>1551.5999755859</ele>
        <time>2021-08-21T07:29:36.000Z</time>
      </trkpt>
      <trkpt lat="44.07071" lon="6.60687">
        <ele>1552</ele>
        <time>2021-08-21T07:29:39.000Z</time>
      </trkpt>
      <trkpt lat="44.07068" lon="6.60678">
        <ele>1552.5999755859</ele>
        <time>2021-08-21T07:29:43.000Z</time>
      </trkpt>
      <trkpt lat="44.07067" lon="6.60667">
        <ele>1553.5999755859</ele>
        <time>2021-08-21T07:29:48.000Z</time>
      </trkpt>
      <trkpt lat="44.07067" lon="6.60664">
        <ele>1553.8000488281</ele>
        <time>2021-08-21T07:29:49.000Z</time>
      </trkpt>
      <trkpt lat="44.07065" lon="6.60653">
        <ele>1554.4000244141</ele>
        <time>2021-08-21T07:29:52.000Z</time>
      </trkpt>
      <trkpt lat="44.07064" lon="6.6065">
        <ele>1554.5999755859</ele>
        <time>2021-08-21T07:29:53.000Z</time>
      </trkpt>
      <trkpt lat="44.07064" lon="6.60644">
        <ele>1555</ele>
        <time>2021-08-21T07:29:55.000Z</time>
      </trkpt>
      <trkpt lat="44.07061" lon="6.60632">
        <ele>1555.5999755859</ele>
        <time>2021-08-21T07:29:59.000Z</time>
      </trkpt>
      <trkpt lat="44.07061" lon="6.6063">
        <ele>1555.8000488281</ele>
        <time>2021-08-21T07:30:00.000Z</time>
      </trkpt>
      <trkpt lat="44.0706" lon="6.60627">
        <ele>1556</ele>
        <time>2021-08-21T07:30:01.000Z</time>
      </trkpt>
      <trkpt lat="44.07057" lon="6.60616">
        <ele>1557</ele>
        <time>2021-08-21T07:30:06.000Z</time>
      </trkpt>
      <trkpt lat="44.07055" lon="6.60614">
        <ele>1557.1999511719</ele>
        <time>2021-08-21T07:30:07.000Z</time>
      </trkpt>
      <trkpt lat="44.07048" lon="6.60604">
        <ele>1558.1999511719</ele>
        <time>2021-08-21T07:30:12.000Z</time>
      </trkpt>
      <trkpt lat="44.07039" lon="6.60596">
        <ele>1559.4000244141</ele>
        <time>2021-08-21T07:30:18.000Z</time>
      </trkpt>
      <trkpt lat="44.07037" lon="6.60595">
        <ele>1559.4000244141</ele>
        <time>2021-08-21T07:30:19.000Z</time>
      </trkpt>
      <trkpt lat="44.07021" lon="6.60587">
        <ele>1560.4000244141</ele>
        <time>2021-08-21T07:30:28.000Z</time>
      </trkpt>
      <trkpt lat="44.07013" lon="6.60584">
        <ele>1561.5999755859</ele>
        <time>2021-08-21T07:30:33.000Z</time>
      </trkpt>
      <trkpt lat="44.0701" lon="6.60583">
        <ele>1562</ele>
        <time>2021-08-21T07:30:35.000Z</time>
      </trkpt>
      <trkpt lat="44.07006" lon="6.60581">
        <ele>1562.8000488281</ele>
        <time>2021-08-21T07:30:38.000Z</time>
      </trkpt>
      <trkpt lat="44.06995" lon="6.60577">
        <ele>1563.8000488281</ele>
        <time>2021-08-21T07:30:45.000Z</time>
      </trkpt>
      <trkpt lat="44.06987" lon="6.60568">
        <ele>1564.8000488281</ele>
        <time>2021-08-21T07:30:52.000Z</time>
      </trkpt>
      <trkpt lat="44.06986" lon="6.60566">
        <ele>1565</ele>
        <time>2021-08-21T07:30:53.000Z</time>
      </trkpt>
      <trkpt lat="44.0698" lon="6.60552">
        <ele>1566</ele>
        <time>2021-08-21T07:31:00.000Z</time>
      </trkpt>
      <trkpt lat="44.06976" lon="6.60535">
        <ele>1566.5999755859</ele>
        <time>2021-08-21T07:31:08.000Z</time>
      </trkpt>
      <trkpt lat="44.06972" lon="6.60523">
        <ele>1567</ele>
        <time>2021-08-21T07:31:13.000Z</time>
      </trkpt>
      <trkpt lat="44.06971" lon="6.6052">
        <ele>1567.1999511719</ele>
        <time>2021-08-21T07:31:14.000Z</time>
      </trkpt>
      <trkpt lat="44.06966" lon="6.60509">
        <ele>1567.8000488281</ele>
        <time>2021-08-21T07:31:19.000Z</time>
      </trkpt>
      <trkpt lat="44.06961" lon="6.60503">
        <ele>1568.1999511719</ele>
        <time>2021-08-21T07:31:22.000Z</time>
      </trkpt>
      <trkpt lat="44.06959" lon="6.60501">
        <ele>1569</ele>
        <time>2021-08-21T07:31:26.000Z</time>
      </trkpt>
      <trkpt lat="44.06959" lon="6.605">
        <ele>1569.1999511719</ele>
        <time>2021-08-21T07:31:27.000Z</time>
      </trkpt>
      <trkpt lat="44.06959" lon="6.60499">
        <ele>1570</ele>
        <time>2021-08-21T07:31:32.000Z</time>
      </trkpt>
      <trkpt lat="44.06958" lon="6.60495">
        <ele>1570.1999511719</ele>
        <time>2021-08-21T07:31:37.000Z</time>
      </trkpt>
      <trkpt lat="44.06958" lon="6.60493">
        <ele>1570.8000488281</ele>
        <time>2021-08-21T07:31:39.000Z</time>
      </trkpt>
      <trkpt lat="44.06959" lon="6.60493">
        <ele>1571.4000244141</ele>
        <time>2021-08-21T07:31:41.000Z</time>
      </trkpt>
      <trkpt lat="44.06961" lon="6.60493">
        <ele>1571.8000488281</ele>
        <time>2021-08-21T07:31:44.000Z</time>
      </trkpt>
      <trkpt lat="44.06962" lon="6.60494">
        <ele>1571.8000488281</ele>
        <time>2021-08-21T07:31:45.000Z</time>
      </trkpt>
      <trkpt lat="44.06974" lon="6.60504">
        <ele>1571.8000488281</ele>
        <time>2021-08-21T07:31:51.000Z</time>
      </trkpt>
      <trkpt lat="44.06984" lon="6.60523">
        <ele>1572</ele>
        <time>2021-08-21T07:31:58.000Z</time>
      </trkpt>
      <trkpt lat="44.06988" lon="6.60531">
        <ele>1572.5999755859</ele>
        <time>2021-08-21T07:32:01.000Z</time>
      </trkpt>
      <trkpt lat="44.06995" lon="6.60547">
        <ele>1573.5999755859</ele>
        <time>2021-08-21T07:32:07.000Z</time>
      </trkpt>
      <trkpt lat="44.06997" lon="6.60548">
        <ele>1573.8000488281</ele>
        <time>2021-08-21T07:32:08.000Z</time>
      </trkpt>
      <trkpt lat="44.07009" lon="6.6055">
        <ele>1574.5999755859</ele>
        <time>2021-08-21T07:32:14.000Z</time>
      </trkpt>
      <trkpt lat="44.07011" lon="6.60549">
        <ele>1574.5999755859</ele>
        <time>2021-08-21T07:32:15.000Z</time>
      </trkpt>
      <trkpt lat="44.07021" lon="6.60547">
        <ele>1575.8000488281</ele>
        <time>2021-08-21T07:32:20.000Z</time>
      </trkpt>
      <trkpt lat="44.07025" lon="6.60547">
        <ele>1576</ele>
        <time>2021-08-21T07:32:22.000Z</time>
      </trkpt>
      <trkpt lat="44.07037" lon="6.60546">
        <ele>1576.8000488281</ele>
        <time>2021-08-21T07:32:29.000Z</time>
      </trkpt>
      <trkpt lat="44.07039" lon="6.60545">
        <ele>1576.8000488281</ele>
        <time>2021-08-21T07:32:30.000Z</time>
      </trkpt>
      <trkpt lat="44.07054" lon="6.60547">
        <ele>1578</ele>
        <time>2021-08-21T07:32:38.000Z</time>
      </trkpt>
      <trkpt lat="44.07069" lon="6.60554">
        <ele>1579</ele>
        <time>2021-08-21T07:32:45.000Z</time>
      </trkpt>
      <trkpt lat="44.07073" lon="6.60556">
        <ele>1579.1999511719</ele>
        <time>2021-08-21T07:32:47.000Z</time>
      </trkpt>
      <trkpt lat="44.07083" lon="6.60559">
        <ele>1580</ele>
        <time>2021-08-21T07:32:52.000Z</time>
      </trkpt>
      <trkpt lat="44.07085" lon="6.6056">
        <ele>1580.1999511719</ele>
        <time>2021-08-21T07:32:53.000Z</time>
      </trkpt>
      <trkpt lat="44.07094" lon="6.60565">
        <ele>1581.1999511719</ele>
        <time>2021-08-21T07:32:58.000Z</time>
      </trkpt>
      <trkpt lat="44.07098" lon="6.60573">
        <ele>1581.5999755859</ele>
        <time>2021-08-21T07:33:01.000Z</time>
      </trkpt>
      <trkpt lat="44.07103" lon="6.60587">
        <ele>1582.1999511719</ele>
        <time>2021-08-21T07:33:06.000Z</time>
      </trkpt>
      <trkpt lat="44.07107" lon="6.60601">
        <ele>1583</ele>
        <time>2021-08-21T07:33:11.000Z</time>
      </trkpt>
      <trkpt lat="44.07109" lon="6.60606">
        <ele>1583.4000244141</ele>
        <time>2021-08-21T07:33:13.000Z</time>
      </trkpt>
      <trkpt lat="44.07115" lon="6.60624">
        <ele>1584.4000244141</ele>
        <time>2021-08-21T07:33:19.000Z</time>
      </trkpt>
      <trkpt lat="44.07116" lon="6.60626">
        <ele>1584.5999755859</ele>
        <time>2021-08-21T07:33:20.000Z</time>
      </trkpt>
      <trkpt lat="44.07124" lon="6.6064">
        <ele>1585.4000244141</ele>
        <time>2021-08-21T07:33:26.000Z</time>
      </trkpt>
      <trkpt lat="44.07126" lon="6.60642">
        <ele>1585.5999755859</ele>
        <time>2021-08-21T07:33:27.000Z</time>
      </trkpt>
      <trkpt lat="44.07138" lon="6.60655">
        <ele>1586.5999755859</ele>
        <time>2021-08-21T07:33:34.000Z</time>
      </trkpt>
      <trkpt lat="44.07142" lon="6.60658">
        <ele>1587</ele>
        <time>2021-08-21T07:33:36.000Z</time>
      </trkpt>
      <trkpt lat="44.07153" lon="6.60672">
        <ele>1587.4000244141</ele>
        <time>2021-08-21T07:33:42.000Z</time>
      </trkpt>
      <trkpt lat="44.07155" lon="6.6068">
        <ele>1587.8000488281</ele>
        <time>2021-08-21T07:33:45.000Z</time>
      </trkpt>
      <trkpt lat="44.07156" lon="6.60685">
        <ele>1588.1999511719</ele>
        <time>2021-08-21T07:33:47.000Z</time>
      </trkpt>
      <trkpt lat="44.0716" lon="6.60692">
        <ele>1588.8000488281</ele>
        <time>2021-08-21T07:33:50.000Z</time>
      </trkpt>
      <trkpt lat="44.07166" lon="6.60701">
        <ele>1589.4000244141</ele>
        <time>2021-08-21T07:33:54.000Z</time>
      </trkpt>
      <trkpt lat="44.07176" lon="6.60715">
        <ele>1590</ele>
        <time>2021-08-21T07:34:00.000Z</time>
      </trkpt>
      <trkpt lat="44.07181" lon="6.60723">
        <ele>1590.4000244141</ele>
        <time>2021-08-21T07:34:03.000Z</time>
      </trkpt>
      <trkpt lat="44.07185" lon="6.60733">
        <ele>1591.1999511719</ele>
        <time>2021-08-21T07:34:07.000Z</time>
      </trkpt>
      <trkpt lat="44.07191" lon="6.60741">
        <ele>1592</ele>
        <time>2021-08-21T07:34:11.000Z</time>
      </trkpt>
      <trkpt lat="44.07192" lon="6.60743">
        <ele>1592.1999511719</ele>
        <time>2021-08-21T07:34:12.000Z</time>
      </trkpt>
      <trkpt lat="44.07199" lon="6.60749">
        <ele>1593.1999511719</ele>
        <time>2021-08-21T07:34:17.000Z</time>
      </trkpt>
      <trkpt lat="44.07201" lon="6.60751">
        <ele>1593.4000244141</ele>
        <time>2021-08-21T07:34:18.000Z</time>
      </trkpt>
      <trkpt lat="44.07211" lon="6.60766">
        <ele>1594.4000244141</ele>
        <time>2021-08-21T07:34:25.000Z</time>
      </trkpt>
      <trkpt lat="44.07221" lon="6.6079">
        <ele>1595.4000244141</ele>
        <time>2021-08-21T07:34:34.000Z</time>
      </trkpt>
      <trkpt lat="44.07229" lon="6.60801">
        <ele>1596.4000244141</ele>
        <time>2021-08-21T07:34:40.000Z</time>
      </trkpt>
      <trkpt lat="44.0724" lon="6.60818">
        <ele>1597.5999755859</ele>
        <time>2021-08-21T07:34:48.000Z</time>
      </trkpt>
      <trkpt lat="44.07242" lon="6.6082">
        <ele>1597.5999755859</ele>
        <time>2021-08-21T07:34:49.000Z</time>
      </trkpt>
      <trkpt lat="44.07249" lon="6.60832">
        <ele>1598.5999755859</ele>
        <time>2021-08-21T07:34:55.000Z</time>
      </trkpt>
      <trkpt lat="44.07252" lon="6.60837">
        <ele>1599</ele>
        <time>2021-08-21T07:34:57.000Z</time>
      </trkpt>
      <trkpt lat="44.07261" lon="6.60847">
        <ele>1599.8000488281</ele>
        <time>2021-08-21T07:35:03.000Z</time>
      </trkpt>
      <trkpt lat="44.07262" lon="6.6085">
        <ele>1599.8000488281</ele>
        <time>2021-08-21T07:35:04.000Z</time>
      </trkpt>
      <trkpt lat="44.07271" lon="6.6086">
        <ele>1600.8000488281</ele>
        <time>2021-08-21T07:35:10.000Z</time>
      </trkpt>
      <trkpt lat="44.07274" lon="6.60863">
        <ele>1601</ele>
        <time>2021-08-21T07:35:12.000Z</time>
      </trkpt>
      <trkpt lat="44.0728" lon="6.60868">
        <ele>1602</ele>
        <time>2021-08-21T07:35:16.000Z</time>
      </trkpt>
      <trkpt lat="44.07286" lon="6.60873">
        <ele>1602.5999755859</ele>
        <time>2021-08-21T07:35:20.000Z</time>
      </trkpt>
      <trkpt lat="44.07289" lon="6.60875">
        <ele>1603</ele>
        <time>2021-08-21T07:35:22.000Z</time>
      </trkpt>
      <trkpt lat="44.07298" lon="6.60881">
        <ele>1603.5999755859</ele>
        <time>2021-08-21T07:35:27.000Z</time>
      </trkpt>
      <trkpt lat="44.07302" lon="6.60884">
        <ele>1604</ele>
        <time>2021-08-21T07:35:29.000Z</time>
      </trkpt>
      <trkpt lat="44.07316" lon="6.60891">
        <ele>1605</ele>
        <time>2021-08-21T07:35:36.000Z</time>
      </trkpt>
      <trkpt lat="44.07318" lon="6.60891">
        <ele>1605</ele>
        <time>2021-08-21T07:35:37.000Z</time>
      </trkpt>
      <trkpt lat="44.07331" lon="6.60895">
        <ele>1606</ele>
        <time>2021-08-21T07:35:44.000Z</time>
      </trkpt>
      <trkpt lat="44.07337" lon="6.60897">
        <ele>1606.8000488281</ele>
        <time>2021-08-21T07:35:48.000Z</time>
      </trkpt>
      <trkpt lat="44.07341" lon="6.60897">
        <ele>1607.1999511719</ele>
        <time>2021-08-21T07:35:50.000Z</time>
      </trkpt>
      <trkpt lat="44.0735" lon="6.60899">
        <ele>1608</ele>
        <time>2021-08-21T07:35:55.000Z</time>
      </trkpt>
      <trkpt lat="44.07354" lon="6.60899">
        <ele>1608.1999511719</ele>
        <time>2021-08-21T07:35:57.000Z</time>
      </trkpt>
      <trkpt lat="44.07367" lon="6.60902">
        <ele>1609.1999511719</ele>
        <time>2021-08-21T07:36:04.000Z</time>
      </trkpt>
      <trkpt lat="44.07369" lon="6.60902">
        <ele>1609.4000244141</ele>
        <time>2021-08-21T07:36:05.000Z</time>
      </trkpt>
      <trkpt lat="44.07383" lon="6.60906">
        <ele>1610.4000244141</ele>
        <time>2021-08-21T07:36:13.000Z</time>
      </trkpt>
      <trkpt lat="44.07408" lon="6.60912">
        <ele>1611.1999511719</ele>
        <time>2021-08-21T07:36:23.000Z</time>
      </trkpt>
      <trkpt lat="44.07431" lon="6.60914">
        <ele>1611.1999511719</ele>
        <time>2021-08-21T07:36:31.000Z</time>
      </trkpt>
      <trkpt lat="44.07449" lon="6.60921">
        <ele>1610.8000488281</ele>
        <time>2021-08-21T07:36:37.000Z</time>
      </trkpt>
      <trkpt lat="44.07462" lon="6.60923">
        <ele>1611.1999511719</ele>
        <time>2021-08-21T07:36:42.000Z</time>
      </trkpt>
      <trkpt lat="44.07466" lon="6.60923">
        <ele>1611.5999755859</ele>
        <time>2021-08-21T07:36:44.000Z</time>
      </trkpt>
      <trkpt lat="44.0748" lon="6.60922">
        <ele>1612.8000488281</ele>
        <time>2021-08-21T07:36:50.000Z</time>
      </trkpt>
      <trkpt lat="44.07482" lon="6.60922">
        <ele>1613</ele>
        <time>2021-08-21T07:36:51.000Z</time>
      </trkpt>
      <trkpt lat="44.07499" lon="6.60923">
        <ele>1613.8000488281</ele>
        <time>2021-08-21T07:36:58.000Z</time>
      </trkpt>
      <trkpt lat="44.07509" lon="6.60925">
        <ele>1614.5999755859</ele>
        <time>2021-08-21T07:37:02.000Z</time>
      </trkpt>
      <trkpt lat="44.07514" lon="6.60927">
        <ele>1615</ele>
        <time>2021-08-21T07:37:04.000Z</time>
      </trkpt>
      <trkpt lat="44.07526" lon="6.60928">
        <ele>1616</ele>
        <time>2021-08-21T07:37:09.000Z</time>
      </trkpt>
      <trkpt lat="44.07531" lon="6.60928">
        <ele>1616.5999755859</ele>
        <time>2021-08-21T07:37:12.000Z</time>
      </trkpt>
      <trkpt lat="44.07535" lon="6.60928">
        <ele>1617</ele>
        <time>2021-08-21T07:37:14.000Z</time>
      </trkpt>
      <trkpt lat="44.07544" lon="6.60927">
        <ele>1618.1999511719</ele>
        <time>2021-08-21T07:37:19.000Z</time>
      </trkpt>
      <trkpt lat="44.07548" lon="6.60927">
        <ele>1618.4000244141</ele>
        <time>2021-08-21T07:37:21.000Z</time>
      </trkpt>
      <trkpt lat="44.07561" lon="6.60924">
        <ele>1619.1999511719</ele>
        <time>2021-08-21T07:37:28.000Z</time>
      </trkpt>
      <trkpt lat="44.07568" lon="6.60923">
        <ele>1619.8000488281</ele>
        <time>2021-08-21T07:37:32.000Z</time>
      </trkpt>
      <trkpt lat="44.07574" lon="6.60921">
        <ele>1620.1999511719</ele>
        <time>2021-08-21T07:37:35.000Z</time>
      </trkpt>
      <trkpt lat="44.07585" lon="6.60919">
        <ele>1621.4000244141</ele>
        <time>2021-08-21T07:37:41.000Z</time>
      </trkpt>
      <trkpt lat="44.07588" lon="6.60919">
        <ele>1621.5999755859</ele>
        <time>2021-08-21T07:37:42.000Z</time>
      </trkpt>
      <trkpt lat="44.07598" lon="6.60916">
        <ele>1622.5999755859</ele>
        <time>2021-08-21T07:37:48.000Z</time>
      </trkpt>
      <trkpt lat="44.076" lon="6.60916">
        <ele>1622.5999755859</ele>
        <time>2021-08-21T07:37:49.000Z</time>
      </trkpt>
      <trkpt lat="44.07612" lon="6.60912">
        <ele>1623.5999755859</ele>
        <time>2021-08-21T07:37:55.000Z</time>
      </trkpt>
      <trkpt lat="44.07627" lon="6.60909">
        <ele>1624.5999755859</ele>
        <time>2021-08-21T07:38:02.000Z</time>
      </trkpt>
      <trkpt lat="44.07629" lon="6.60909">
        <ele>1624.5999755859</ele>
        <time>2021-08-21T07:38:03.000Z</time>
      </trkpt>
      <trkpt lat="44.07644" lon="6.60904">
        <ele>1625.5999755859</ele>
        <time>2021-08-21T07:38:10.000Z</time>
      </trkpt>
      <trkpt lat="44.07657" lon="6.609">
        <ele>1626.8000488281</ele>
        <time>2021-08-21T07:38:17.000Z</time>
      </trkpt>
      <trkpt lat="44.07671" lon="6.60897">
        <ele>1628</ele>
        <time>2021-08-21T07:38:24.000Z</time>
      </trkpt>
      <trkpt lat="44.07673" lon="6.60896">
        <ele>1628</ele>
        <time>2021-08-21T07:38:25.000Z</time>
      </trkpt>
      <trkpt lat="44.07684" lon="6.60892">
        <ele>1628.8000488281</ele>
        <time>2021-08-21T07:38:31.000Z</time>
      </trkpt>
      <trkpt lat="44.07686" lon="6.60891">
        <ele>1629</ele>
        <time>2021-08-21T07:38:32.000Z</time>
      </trkpt>
      <trkpt lat="44.07697" lon="6.60887">
        <ele>1629.8000488281</ele>
        <time>2021-08-21T07:38:38.000Z</time>
      </trkpt>
      <trkpt lat="44.07701" lon="6.60886">
        <ele>1630.1999511719</ele>
        <time>2021-08-21T07:38:40.000Z</time>
      </trkpt>
      <trkpt lat="44.07715" lon="6.60883">
        <ele>1631.1999511719</ele>
        <time>2021-08-21T07:38:47.000Z</time>
      </trkpt>
      <trkpt lat="44.07729" lon="6.6088">
        <ele>1632.1999511719</ele>
        <time>2021-08-21T07:38:54.000Z</time>
      </trkpt>
      <trkpt lat="44.0774" lon="6.60876">
        <ele>1633.1999511719</ele>
        <time>2021-08-21T07:39:00.000Z</time>
      </trkpt>
      <trkpt lat="44.07744" lon="6.60875">
        <ele>1633.5999755859</ele>
        <time>2021-08-21T07:39:02.000Z</time>
      </trkpt>
      <trkpt lat="44.07751" lon="6.60872">
        <ele>1634.4000244141</ele>
        <time>2021-08-21T07:39:06.000Z</time>
      </trkpt>
      <trkpt lat="44.07757" lon="6.6087">
        <ele>1635</ele>
        <time>2021-08-21T07:39:09.000Z</time>
      </trkpt>
      <trkpt lat="44.07764" lon="6.60867">
        <ele>1635.5999755859</ele>
        <time>2021-08-21T07:39:12.000Z</time>
      </trkpt>
      <trkpt lat="44.07776" lon="6.6086">
        <ele>1636.5999755859</ele>
        <time>2021-08-21T07:39:18.000Z</time>
      </trkpt>
      <trkpt lat="44.07785" lon="6.60854">
        <ele>1637.5999755859</ele>
        <time>2021-08-21T07:39:23.000Z</time>
      </trkpt>
      <trkpt lat="44.07793" lon="6.60849">
        <ele>1638.4000244141</ele>
        <time>2021-08-21T07:39:27.000Z</time>
      </trkpt>
      <trkpt lat="44.07796" lon="6.60846">
        <ele>1638.5999755859</ele>
        <time>2021-08-21T07:39:29.000Z</time>
      </trkpt>
      <trkpt lat="44.07809" lon="6.60833">
        <ele>1639.5999755859</ele>
        <time>2021-08-21T07:39:36.000Z</time>
      </trkpt>
      <trkpt lat="44.07812" lon="6.6083">
        <ele>1639.8000488281</ele>
        <time>2021-08-21T07:39:38.000Z</time>
      </trkpt>
      <trkpt lat="44.07823" lon="6.60819">
        <ele>1640.4000244141</ele>
        <time>2021-08-21T07:39:44.000Z</time>
      </trkpt>
      <trkpt lat="44.07841" lon="6.60805">
        <ele>1640.8000488281</ele>
        <time>2021-08-21T07:39:52.000Z</time>
      </trkpt>
      <trkpt lat="44.07845" lon="6.60802">
        <ele>1640.8000488281</ele>
        <time>2021-08-21T07:39:54.000Z</time>
      </trkpt>
      <trkpt lat="44.07858" lon="6.60791">
        <ele>1641.1999511719</ele>
        <time>2021-08-21T07:40:00.000Z</time>
      </trkpt>
      <trkpt lat="44.07885" lon="6.60775">
        <ele>1641.4000244141</ele>
        <time>2021-08-21T07:40:11.000Z</time>
      </trkpt>
      <trkpt lat="44.07889" lon="6.60769">
        <ele>1641.8000488281</ele>
        <time>2021-08-21T07:40:14.000Z</time>
      </trkpt>
      <trkpt lat="44.07893" lon="6.60764">
        <ele>1642.4000244141</ele>
        <time>2021-08-21T07:40:17.000Z</time>
      </trkpt>
      <trkpt lat="44.07899" lon="6.60757">
        <ele>1643</ele>
        <time>2021-08-21T07:40:22.000Z</time>
      </trkpt>
      <trkpt lat="44.07902" lon="6.60755">
        <ele>1643.4000244141</ele>
        <time>2021-08-21T07:40:24.000Z</time>
      </trkpt>
      <trkpt lat="44.07908" lon="6.60751">
        <ele>1644</ele>
        <time>2021-08-21T07:40:28.000Z</time>
      </trkpt>
      <trkpt lat="44.07911" lon="6.60748">
        <ele>1644.4000244141</ele>
        <time>2021-08-21T07:40:31.000Z</time>
      </trkpt>
      <trkpt lat="44.07912" lon="6.60743">
        <ele>1645.1999511719</ele>
        <time>2021-08-21T07:40:34.000Z</time>
      </trkpt>
      <trkpt lat="44.0791" lon="6.60742">
        <ele>1645.8000488281</ele>
        <time>2021-08-21T07:40:36.000Z</time>
      </trkpt>
      <trkpt lat="44.07907" lon="6.60743">
        <ele>1646.4000244141</ele>
        <time>2021-08-21T07:40:38.000Z</time>
      </trkpt>
      <trkpt lat="44.07902" lon="6.60746">
        <ele>1646.5999755859</ele>
        <time>2021-08-21T07:40:40.000Z</time>
      </trkpt>
      <trkpt lat="44.079" lon="6.60748">
        <ele>1646.8000488281</ele>
        <time>2021-08-21T07:40:41.000Z</time>
      </trkpt>
      <trkpt lat="44.07888" lon="6.60755">
        <ele>1646.5999755859</ele>
        <time>2021-08-21T07:40:44.000Z</time>
      </trkpt>
      <trkpt lat="44.07884" lon="6.60755">
        <ele>1646.4000244141</ele>
        <time>2021-08-21T07:40:45.000Z</time>
      </trkpt>
      <trkpt lat="44.07863" lon="6.60758">
        <ele>1645.8000488281</ele>
        <time>2021-08-21T07:40:51.000Z</time>
      </trkpt>
      <trkpt lat="44.0785" lon="6.60754">
        <ele>1646.5999755859</ele>
        <time>2021-08-21T07:40:56.000Z</time>
      </trkpt>
      <trkpt lat="44.07845" lon="6.60754">
        <ele>1647.5999755859</ele>
        <time>2021-08-21T07:40:59.000Z</time>
      </trkpt>
      <trkpt lat="44.07837" lon="6.60753">
        <ele>1648.4000244141</ele>
        <time>2021-08-21T07:41:03.000Z</time>
      </trkpt>
      <trkpt lat="44.07835" lon="6.60753">
        <ele>1648.5999755859</ele>
        <time>2021-08-21T07:41:04.000Z</time>
      </trkpt>
      <trkpt lat="44.07824" lon="6.60752">
        <ele>1649.5999755859</ele>
        <time>2021-08-21T07:41:10.000Z</time>
      </trkpt>
      <trkpt lat="44.07814" lon="6.60753">
        <ele>1650.8000488281</ele>
        <time>2021-08-21T07:41:16.000Z</time>
      </trkpt>
      <trkpt lat="44.07811" lon="6.60753">
        <ele>1651.1999511719</ele>
        <time>2021-08-21T07:41:18.000Z</time>
      </trkpt>
      <trkpt lat="44.07806" lon="6.60754">
        <ele>1651.8000488281</ele>
        <time>2021-08-21T07:41:22.000Z</time>
      </trkpt>
      <trkpt lat="44.07802" lon="6.60754">
        <ele>1652.4000244141</ele>
        <time>2021-08-21T07:41:25.000Z</time>
      </trkpt>
      <trkpt lat="44.07799" lon="6.60755">
        <ele>1652.8000488281</ele>
        <time>2021-08-21T07:41:28.000Z</time>
      </trkpt>
      <trkpt lat="44.07793" lon="6.60756">
        <ele>1653.4000244141</ele>
        <time>2021-08-21T07:41:32.000Z</time>
      </trkpt>
      <trkpt lat="44.07789" lon="6.60758">
        <ele>1653.8000488281</ele>
        <time>2021-08-21T07:41:35.000Z</time>
      </trkpt>
      <trkpt lat="44.0778" lon="6.60761">
        <ele>1654.8000488281</ele>
        <time>2021-08-21T07:41:41.000Z</time>
      </trkpt>
      <trkpt lat="44.07766" lon="6.60764">
        <ele>1655.8000488281</ele>
        <time>2021-08-21T07:41:50.000Z</time>
      </trkpt>
      <trkpt lat="44.07764" lon="6.60765">
        <ele>1656</ele>
        <time>2021-08-21T07:41:51.000Z</time>
      </trkpt>
      <trkpt lat="44.07756" lon="6.60766">
        <ele>1657</ele>
        <time>2021-08-21T07:41:57.000Z</time>
      </trkpt>
      <trkpt lat="44.07744" lon="6.60769">
        <ele>1658.1999511719</ele>
        <time>2021-08-21T07:42:05.000Z</time>
      </trkpt>
      <trkpt lat="44.07736" lon="6.60771">
        <ele>1659.1999511719</ele>
        <time>2021-08-21T07:42:11.000Z</time>
      </trkpt>
      <trkpt lat="44.07731" lon="6.60772">
        <ele>1659.8000488281</ele>
        <time>2021-08-21T07:42:14.000Z</time>
      </trkpt>
      <trkpt lat="44.07725" lon="6.60774">
        <ele>1660.4000244141</ele>
        <time>2021-08-21T07:42:18.000Z</time>
      </trkpt>
      <trkpt lat="44.0772" lon="6.60775">
        <ele>1661</ele>
        <time>2021-08-21T07:42:22.000Z</time>
      </trkpt>
      <trkpt lat="44.07716" lon="6.60776">
        <ele>1661.4000244141</ele>
        <time>2021-08-21T07:42:25.000Z</time>
      </trkpt>
      <trkpt lat="44.0771" lon="6.60778">
        <ele>1662</ele>
        <time>2021-08-21T07:42:29.000Z</time>
      </trkpt>
      <trkpt lat="44.07704" lon="6.60779">
        <ele>1662.5999755859</ele>
        <time>2021-08-21T07:42:33.000Z</time>
      </trkpt>
      <trkpt lat="44.07699" lon="6.60781">
        <ele>1663.1999511719</ele>
        <time>2021-08-21T07:42:37.000Z</time>
      </trkpt>
      <trkpt lat="44.07695" lon="6.60781">
        <ele>1663.5999755859</ele>
        <time>2021-08-21T07:42:39.000Z</time>
      </trkpt>
      <trkpt lat="44.07687" lon="6.60783">
        <ele>1664.1999511719</ele>
        <time>2021-08-21T07:42:45.000Z</time>
      </trkpt>
      <trkpt lat="44.07683" lon="6.60784">
        <ele>1664.5999755859</ele>
        <time>2021-08-21T07:42:48.000Z</time>
      </trkpt>
      <trkpt lat="44.07677" lon="6.60785">
        <ele>1665.4000244141</ele>
        <time>2021-08-21T07:42:52.000Z</time>
      </trkpt>
      <trkpt lat="44.07675" lon="6.60785">
        <ele>1665.8000488281</ele>
        <time>2021-08-21T07:42:54.000Z</time>
      </trkpt>
      <trkpt lat="44.07667" lon="6.60788">
        <ele>1666.8000488281</ele>
        <time>2021-08-21T07:43:01.000Z</time>
      </trkpt>
      <trkpt lat="44.07658" lon="6.60789">
        <ele>1668</ele>
        <time>2021-08-21T07:43:08.000Z</time>
      </trkpt>
      <trkpt lat="44.07657" lon="6.6079">
        <ele>1668.1999511719</ele>
        <time>2021-08-21T07:43:09.000Z</time>
      </trkpt>
      <trkpt lat="44.07651" lon="6.60791">
        <ele>1669.1999511719</ele>
        <time>2021-08-21T07:43:15.000Z</time>
      </trkpt>
      <trkpt lat="44.07649" lon="6.60791">
        <ele>1669.4000244141</ele>
        <time>2021-08-21T07:43:17.000Z</time>
      </trkpt>
      <trkpt lat="44.0764" lon="6.60791">
        <ele>1670.1999511719</ele>
        <time>2021-08-21T07:43:23.000Z</time>
      </trkpt>
      <trkpt lat="44.07637" lon="6.60792">
        <ele>1670.4000244141</ele>
        <time>2021-08-21T07:43:25.000Z</time>
      </trkpt>
      <trkpt lat="44.07627" lon="6.60792">
        <ele>1671.1999511719</ele>
        <time>2021-08-21T07:43:32.000Z</time>
      </trkpt>
      <trkpt lat="44.07617" lon="6.60792">
        <ele>1672.1999511719</ele>
        <time>2021-08-21T07:43:39.000Z</time>
      </trkpt>
      <trkpt lat="44.07616" lon="6.60793">
        <ele>1672.4000244141</ele>
        <time>2021-08-21T07:43:40.000Z</time>
      </trkpt>
      <trkpt lat="44.07609" lon="6.60793">
        <ele>1673.1999511719</ele>
        <time>2021-08-21T07:43:45.000Z</time>
      </trkpt>
      <trkpt lat="44.07606" lon="6.60793">
        <ele>1673.5999755859</ele>
        <time>2021-08-21T07:43:47.000Z</time>
      </trkpt>
      <trkpt lat="44.076" lon="6.60793">
        <ele>1674.1999511719</ele>
        <time>2021-08-21T07:43:51.000Z</time>
      </trkpt>
      <trkpt lat="44.07591" lon="6.60793">
        <ele>1675.1999511719</ele>
        <time>2021-08-21T07:43:57.000Z</time>
      </trkpt>
      <trkpt lat="44.0759" lon="6.60793">
        <ele>1675.4000244141</ele>
        <time>2021-08-21T07:43:58.000Z</time>
      </trkpt>
      <trkpt lat="44.0758" lon="6.60793">
        <ele>1676.1999511719</ele>
        <time>2021-08-21T07:44:05.000Z</time>
      </trkpt>
      <trkpt lat="44.07577" lon="6.60793">
        <ele>1676.5999755859</ele>
        <time>2021-08-21T07:44:07.000Z</time>
      </trkpt>
      <trkpt lat="44.07568" lon="6.60794">
        <ele>1677.1999511719</ele>
        <time>2021-08-21T07:44:12.000Z</time>
      </trkpt>
      <trkpt lat="44.07561" lon="6.60793">
        <ele>1677.5999755859</ele>
        <time>2021-08-21T07:44:15.000Z</time>
      </trkpt>
      <trkpt lat="44.0755" lon="6.60793">
        <ele>1677.8000488281</ele>
        <time>2021-08-21T07:44:20.000Z</time>
      </trkpt>
      <trkpt lat="44.07537" lon="6.60788">
        <ele>1678.8000488281</ele>
        <time>2021-08-21T07:44:27.000Z</time>
      </trkpt>
      <trkpt lat="44.07524" lon="6.60774">
        <ele>1679.5999755859</ele>
        <time>2021-08-21T07:44:35.000Z</time>
      </trkpt>
      <trkpt lat="44.07522" lon="6.60772">
        <ele>1679.8000488281</ele>
        <time>2021-08-21T07:44:36.000Z</time>
      </trkpt>
      <trkpt lat="44.07515" lon="6.60761">
        <ele>1680.4000244141</ele>
        <time>2021-08-21T07:44:42.000Z</time>
      </trkpt>
      <trkpt lat="44.07511" lon="6.60755">
        <ele>1681</ele>
        <time>2021-08-21T07:44:46.000Z</time>
      </trkpt>
      <trkpt lat="44.07509" lon="6.60752">
        <ele>1681.5999755859</ele>
        <time>2021-08-21T07:44:49.000Z</time>
      </trkpt>
      <trkpt lat="44.07507" lon="6.6075">
        <ele>1682</ele>
        <time>2021-08-21T07:44:51.000Z</time>
      </trkpt>
      <trkpt lat="44.07505" lon="6.60747">
        <ele>1683</ele>
        <time>2021-08-21T07:44:55.000Z</time>
      </trkpt>
      <trkpt lat="44.07504" lon="6.60746">
        <ele>1683.1999511719</ele>
        <time>2021-08-21T07:44:56.000Z</time>
      </trkpt>
      <trkpt lat="44.075" lon="6.60742">
        <ele>1684.4000244141</ele>
        <time>2021-08-21T07:45:01.000Z</time>
      </trkpt>
      <trkpt lat="44.07498" lon="6.60739">
        <ele>1685.1999511719</ele>
        <time>2021-08-21T07:45:04.000Z</time>
      </trkpt>
      <trkpt lat="44.07496" lon="6.60737">
        <ele>1685.5999755859</ele>
        <time>2021-08-21T07:45:06.000Z</time>
      </trkpt>
      <trkpt lat="44.07491" lon="6.60731">
        <ele>1686.4000244141</ele>
        <time>2021-08-21T07:45:11.000Z</time>
      </trkpt>
      <trkpt lat="44.07491" lon="6.6073">
        <ele>1686.5999755859</ele>
        <time>2021-08-21T07:45:12.000Z</time>
      </trkpt>
      <trkpt lat="44.07485" lon="6.60723">
        <ele>1687.5999755859</ele>
        <time>2021-08-21T07:45:19.000Z</time>
      </trkpt>
      <trkpt lat="44.07484" lon="6.60722">
        <ele>1687.5999755859</ele>
        <time>2021-08-21T07:45:20.000Z</time>
      </trkpt>
      <trkpt lat="44.07477" lon="6.60716">
        <ele>1688.5999755859</ele>
        <time>2021-08-21T07:45:26.000Z</time>
      </trkpt>
      <trkpt lat="44.07474" lon="6.60714">
        <ele>1689</ele>
        <time>2021-08-21T07:45:28.000Z</time>
      </trkpt>
      <trkpt lat="44.07466" lon="6.60697">
        <ele>1689.5999755859</ele>
        <time>2021-08-21T07:45:36.000Z</time>
      </trkpt>
      <trkpt lat="44.07467" lon="6.60695">
        <ele>1689.8000488281</ele>
        <time>2021-08-21T07:45:37.000Z</time>
      </trkpt>
      <trkpt lat="44.07472" lon="6.6069">
        <ele>1690.8000488281</ele>
        <time>2021-08-21T07:45:41.000Z</time>
      </trkpt>
      <trkpt lat="44.07473" lon="6.60689">
        <ele>1690.8000488281</ele>
        <time>2021-08-21T07:45:42.000Z</time>
      </trkpt>
      <trkpt lat="44.07481" lon="6.60681">
        <ele>1692</ele>
        <time>2021-08-21T07:45:49.000Z</time>
      </trkpt>
      <trkpt lat="44.0749" lon="6.60676">
        <ele>1692.8000488281</ele>
        <time>2021-08-21T07:45:56.000Z</time>
      </trkpt>
      <trkpt lat="44.07494" lon="6.60676">
        <ele>1693</ele>
        <time>2021-08-21T07:45:58.000Z</time>
      </trkpt>
      <trkpt lat="44.075" lon="6.60671">
        <ele>1693.4000244141</ele>
        <time>2021-08-21T07:46:02.000Z</time>
      </trkpt>
      <trkpt lat="44.07508" lon="6.60664">
        <ele>1694</ele>
        <time>2021-08-21T07:46:08.000Z</time>
      </trkpt>
      <trkpt lat="44.07512" lon="6.60661">
        <ele>1694.4000244141</ele>
        <time>2021-08-21T07:46:11.000Z</time>
      </trkpt>
      <trkpt lat="44.07519" lon="6.60654">
        <ele>1695.1999511719</ele>
        <time>2021-08-21T07:46:16.000Z</time>
      </trkpt>
      <trkpt lat="44.07522" lon="6.60649">
        <ele>1695.5999755859</ele>
        <time>2021-08-21T07:46:19.000Z</time>
      </trkpt>
      <trkpt lat="44.07531" lon="6.60641">
        <ele>1696.4000244141</ele>
        <time>2021-08-21T07:46:25.000Z</time>
      </trkpt>
      <trkpt lat="44.07532" lon="6.60639">
        <ele>1696.4000244141</ele>
        <time>2021-08-21T07:46:26.000Z</time>
      </trkpt>
      <trkpt lat="44.0754" lon="6.60626">
        <ele>1697.4000244141</ele>
        <time>2021-08-21T07:46:33.000Z</time>
      </trkpt>
      <trkpt lat="44.07542" lon="6.60624">
        <ele>1697.4000244141</ele>
        <time>2021-08-21T07:46:34.000Z</time>
      </trkpt>
      <trkpt lat="44.07552" lon="6.60606">
        <ele>1697.5999755859</ele>
        <time>2021-08-21T07:46:42.000Z</time>
      </trkpt>
      <trkpt lat="44.07565" lon="6.6058">
        <ele>1697.5999755859</ele>
        <time>2021-08-21T07:46:51.000Z</time>
      </trkpt>
      <trkpt lat="44.07577" lon="6.60559">
        <ele>1697.4000244141</ele>
        <time>2021-08-21T07:46:58.000Z</time>
      </trkpt>
      <trkpt lat="44.07589" lon="6.6053">
        <ele>1697</ele>
        <time>2021-08-21T07:47:04.000Z</time>
      </trkpt>
      <trkpt lat="44.07604" lon="6.60506">
        <ele>1696.8000488281</ele>
        <time>2021-08-21T07:47:10.000Z</time>
      </trkpt>
      <trkpt lat="44.07627" lon="6.60483">
        <ele>1696.8000488281</ele>
        <time>2021-08-21T07:47:18.000Z</time>
      </trkpt>
      <trkpt lat="44.07649" lon="6.60459">
        <ele>1696.1999511719</ele>
        <time>2021-08-21T07:47:25.000Z</time>
      </trkpt>
      <trkpt lat="44.07653" lon="6.60455">
        <ele>1696.1999511719</ele>
        <time>2021-08-21T07:47:26.000Z</time>
      </trkpt>
      <trkpt lat="44.07673" lon="6.60427">
        <ele>1695.1999511719</ele>
        <time>2021-08-21T07:47:31.000Z</time>
      </trkpt>
      <trkpt lat="44.07687" lon="6.6041">
        <ele>1694</ele>
        <time>2021-08-21T07:47:34.000Z</time>
      </trkpt>
      <trkpt lat="44.07691" lon="6.60407">
        <ele>1693.4000244141</ele>
        <time>2021-08-21T07:47:35.000Z</time>
      </trkpt>
      <trkpt lat="44.07696" lon="6.60404">
        <ele>1692.8000488281</ele>
        <time>2021-08-21T07:47:36.000Z</time>
      </trkpt>
      <trkpt lat="44.07703" lon="6.60395">
        <ele>1692.4000244141</ele>
        <time>2021-08-21T07:47:38.000Z</time>
      </trkpt>
      <trkpt lat="44.0771" lon="6.60383">
        <ele>1691.8000488281</ele>
        <time>2021-08-21T07:47:40.000Z</time>
      </trkpt>
      <trkpt lat="44.07717" lon="6.60373">
        <ele>1691.1999511719</ele>
        <time>2021-08-21T07:47:42.000Z</time>
      </trkpt>
      <trkpt lat="44.07726" lon="6.60366">
        <ele>1690.4000244141</ele>
        <time>2021-08-21T07:47:44.000Z</time>
      </trkpt>
      <trkpt lat="44.0773" lon="6.60363">
        <ele>1690</ele>
        <time>2021-08-21T07:47:45.000Z</time>
      </trkpt>
      <trkpt lat="44.07735" lon="6.6036">
        <ele>1689.8000488281</ele>
        <time>2021-08-21T07:47:46.000Z</time>
      </trkpt>
      <trkpt lat="44.07743" lon="6.60354">
        <ele>1689.4000244141</ele>
        <time>2021-08-21T07:47:48.000Z</time>
      </trkpt>
      <trkpt lat="44.07764" lon="6.60343">
        <ele>1688.8000488281</ele>
        <time>2021-08-21T07:47:53.000Z</time>
      </trkpt>
      <trkpt lat="44.07792" lon="6.60337">
        <ele>1689</ele>
        <time>2021-08-21T07:48:00.000Z</time>
      </trkpt>
      <trkpt lat="44.07821" lon="6.60329">
        <ele>1689.4000244141</ele>
        <time>2021-08-21T07:48:08.000Z</time>
      </trkpt>
      <trkpt lat="44.07847" lon="6.60329">
        <ele>1689.5999755859</ele>
        <time>2021-08-21T07:48:16.000Z</time>
      </trkpt>
      <trkpt lat="44.07867" lon="6.60321">
        <ele>1690</ele>
        <time>2021-08-21T07:48:23.000Z</time>
      </trkpt>
      <trkpt lat="44.07876" lon="6.60316">
        <ele>1690.4000244141</ele>
        <time>2021-08-21T07:48:27.000Z</time>
      </trkpt>
      <trkpt lat="44.07894" lon="6.60307">
        <ele>1691.1999511719</ele>
        <time>2021-08-21T07:48:34.000Z</time>
      </trkpt>
      <trkpt lat="44.079" lon="6.60304">
        <ele>1691.4000244141</ele>
        <time>2021-08-21T07:48:36.000Z</time>
      </trkpt>
      <trkpt lat="44.07915" lon="6.60297">
        <ele>1692.4000244141</ele>
        <time>2021-08-21T07:48:42.000Z</time>
      </trkpt>
      <trkpt lat="44.07922" lon="6.60296">
        <ele>1693</ele>
        <time>2021-08-21T07:48:45.000Z</time>
      </trkpt>
      <trkpt lat="44.07932" lon="6.60293">
        <ele>1693.5999755859</ele>
        <time>2021-08-21T07:48:49.000Z</time>
      </trkpt>
      <trkpt lat="44.07937" lon="6.60292">
        <ele>1693.8000488281</ele>
        <time>2021-08-21T07:48:51.000Z</time>
      </trkpt>
      <trkpt lat="44.0795" lon="6.6029">
        <ele>1694.5999755859</ele>
        <time>2021-08-21T07:48:56.000Z</time>
      </trkpt>
      <trkpt lat="44.07955" lon="6.60289">
        <ele>1695</ele>
        <time>2021-08-21T07:48:58.000Z</time>
      </trkpt>
      <trkpt lat="44.0797" lon="6.60287">
        <ele>1695.8000488281</ele>
        <time>2021-08-21T07:49:05.000Z</time>
      </trkpt>
      <trkpt lat="44.07984" lon="6.60283">
        <ele>1696.8000488281</ele>
        <time>2021-08-21T07:49:12.000Z</time>
      </trkpt>
      <trkpt lat="44.07986" lon="6.60283">
        <ele>1697</ele>
        <time>2021-08-21T07:49:13.000Z</time>
      </trkpt>
      <trkpt lat="44.07997" lon="6.60283">
        <ele>1698</ele>
        <time>2021-08-21T07:49:19.000Z</time>
      </trkpt>
      <trkpt lat="44.07999" lon="6.60283">
        <ele>1698.1999511719</ele>
        <time>2021-08-21T07:49:20.000Z</time>
      </trkpt>
      <trkpt lat="44.08012" lon="6.60285">
        <ele>1699.1999511719</ele>
        <time>2021-08-21T07:49:26.000Z</time>
      </trkpt>
      <trkpt lat="44.08015" lon="6.60285">
        <ele>1699.5999755859</ele>
        <time>2021-08-21T07:49:28.000Z</time>
      </trkpt>
      <trkpt lat="44.08022" lon="6.60285">
        <ele>1700.1999511719</ele>
        <time>2021-08-21T07:49:32.000Z</time>
      </trkpt>
      <trkpt lat="44.08032" lon="6.60284">
        <ele>1701.4000244141</ele>
        <time>2021-08-21T07:49:37.000Z</time>
      </trkpt>
      <trkpt lat="44.08042" lon="6.60278">
        <ele>1702.4000244141</ele>
        <time>2021-08-21T07:49:43.000Z</time>
      </trkpt>
      <trkpt lat="44.08044" lon="6.60277">
        <ele>1702.5999755859</ele>
        <time>2021-08-21T07:49:44.000Z</time>
      </trkpt>
      <trkpt lat="44.08055" lon="6.60273">
        <ele>1703.5999755859</ele>
        <time>2021-08-21T07:49:50.000Z</time>
      </trkpt>
      <trkpt lat="44.08056" lon="6.60272">
        <ele>1703.8000488281</ele>
        <time>2021-08-21T07:49:51.000Z</time>
      </trkpt>
      <trkpt lat="44.08067" lon="6.60266">
        <ele>1704.8000488281</ele>
        <time>2021-08-21T07:49:57.000Z</time>
      </trkpt>
      <trkpt lat="44.08079" lon="6.60252">
        <ele>1705.5999755859</ele>
        <time>2021-08-21T07:50:05.000Z</time>
      </trkpt>
      <trkpt lat="44.08096" lon="6.60236">
        <ele>1705.5999755859</ele>
        <time>2021-08-21T07:50:14.000Z</time>
      </trkpt>
      <trkpt lat="44.08099" lon="6.60233">
        <ele>1705.8000488281</ele>
        <time>2021-08-21T07:50:16.000Z</time>
      </trkpt>
      <trkpt lat="44.08109" lon="6.60223">
        <ele>1707</ele>
        <time>2021-08-21T07:50:22.000Z</time>
      </trkpt>
      <trkpt lat="44.08111" lon="6.60222">
        <ele>1707.1999511719</ele>
        <time>2021-08-21T07:50:23.000Z</time>
      </trkpt>
      <trkpt lat="44.08116" lon="6.60217">
        <ele>1708.1999511719</ele>
        <time>2021-08-21T07:50:26.000Z</time>
      </trkpt>
      <trkpt lat="44.0813" lon="6.6021">
        <ele>1709.1999511719</ele>
        <time>2021-08-21T07:50:33.000Z</time>
      </trkpt>
      <trkpt lat="44.08145" lon="6.60205">
        <ele>1710.4000244141</ele>
        <time>2021-08-21T07:50:41.000Z</time>
      </trkpt>
      <trkpt lat="44.08147" lon="6.60204">
        <ele>1710.5999755859</ele>
        <time>2021-08-21T07:50:42.000Z</time>
      </trkpt>
      <trkpt lat="44.08154" lon="6.60202">
        <ele>1711.4000244141</ele>
        <time>2021-08-21T07:50:46.000Z</time>
      </trkpt>
      <trkpt lat="44.08161" lon="6.60197">
        <ele>1712</ele>
        <time>2021-08-21T07:50:50.000Z</time>
      </trkpt>
      <trkpt lat="44.08168" lon="6.60192">
        <ele>1712.5999755859</ele>
        <time>2021-08-21T07:50:54.000Z</time>
      </trkpt>
      <trkpt lat="44.08177" lon="6.60187">
        <ele>1713.1999511719</ele>
        <time>2021-08-21T07:50:59.000Z</time>
      </trkpt>
      <trkpt lat="44.08183" lon="6.60185">
        <ele>1713.8000488281</ele>
        <time>2021-08-21T07:51:02.000Z</time>
      </trkpt>
      <trkpt lat="44.08191" lon="6.60182">
        <ele>1714.4000244141</ele>
        <time>2021-08-21T07:51:06.000Z</time>
      </trkpt>
      <trkpt lat="44.08195" lon="6.60181">
        <ele>1714.8000488281</ele>
        <time>2021-08-21T07:51:08.000Z</time>
      </trkpt>
      <trkpt lat="44.08209" lon="6.60178">
        <ele>1715.8000488281</ele>
        <time>2021-08-21T07:51:15.000Z</time>
      </trkpt>
      <trkpt lat="44.08218" lon="6.60173">
        <ele>1717</ele>
        <time>2021-08-21T07:51:20.000Z</time>
      </trkpt>
      <trkpt lat="44.08224" lon="6.60171">
        <ele>1717.4000244141</ele>
        <time>2021-08-21T07:51:23.000Z</time>
      </trkpt>
      <trkpt lat="44.08238" lon="6.60164">
        <ele>1718.1999511719</ele>
        <time>2021-08-21T07:51:30.000Z</time>
      </trkpt>
      <trkpt lat="44.0824" lon="6.60163">
        <ele>1718.4000244141</ele>
        <time>2021-08-21T07:51:31.000Z</time>
      </trkpt>
      <trkpt lat="44.08253" lon="6.60154">
        <ele>1719.1999511719</ele>
        <time>2021-08-21T07:51:38.000Z</time>
      </trkpt>
      <trkpt lat="44.08255" lon="6.60152">
        <ele>1719.1999511719</ele>
        <time>2021-08-21T07:51:39.000Z</time>
      </trkpt>
      <trkpt lat="44.08273" lon="6.60134">
        <ele>1720</ele>
        <time>2021-08-21T07:51:49.000Z</time>
      </trkpt>
      <trkpt lat="44.08283" lon="6.60126">
        <ele>1720.1999511719</ele>
        <time>2021-08-21T07:51:54.000Z</time>
      </trkpt>
      <trkpt lat="44.08289" lon="6.60121">
        <ele>1720.8000488281</ele>
        <time>2021-08-21T07:51:58.000Z</time>
      </trkpt>
      <trkpt lat="44.08295" lon="6.60116">
        <ele>1721.4000244141</ele>
        <time>2021-08-21T07:52:01.000Z</time>
      </trkpt>
      <trkpt lat="44.08301" lon="6.60111">
        <ele>1721.8000488281</ele>
        <time>2021-08-21T07:52:04.000Z</time>
      </trkpt>
      <trkpt lat="44.08306" lon="6.60105">
        <ele>1722.5999755859</ele>
        <time>2021-08-21T07:52:08.000Z</time>
      </trkpt>
      <trkpt lat="44.0831" lon="6.601">
        <ele>1723.8000488281</ele>
        <time>2021-08-21T07:52:11.000Z</time>
      </trkpt>
      <trkpt lat="44.08313" lon="6.60097">
        <ele>1724.1999511719</ele>
        <time>2021-08-21T07:52:13.000Z</time>
      </trkpt>
      <trkpt lat="44.08317" lon="6.60093">
        <ele>1724.8000488281</ele>
        <time>2021-08-21T07:52:16.000Z</time>
      </trkpt>
      <trkpt lat="44.08324" lon="6.60085">
        <ele>1725.4000244141</ele>
        <time>2021-08-21T07:52:21.000Z</time>
      </trkpt>
      <trkpt lat="44.08327" lon="6.6008">
        <ele>1725.8000488281</ele>
        <time>2021-08-21T07:52:24.000Z</time>
      </trkpt>
      <trkpt lat="44.08336" lon="6.60073">
        <ele>1726.5999755859</ele>
        <time>2021-08-21T07:52:30.000Z</time>
      </trkpt>
      <trkpt lat="44.08342" lon="6.60072">
        <ele>1727</ele>
        <time>2021-08-21T07:52:33.000Z</time>
      </trkpt>
      <trkpt lat="44.08355" lon="6.60068">
        <ele>1728</ele>
        <time>2021-08-21T07:52:40.000Z</time>
      </trkpt>
      <trkpt lat="44.08369" lon="6.60061">
        <ele>1729</ele>
        <time>2021-08-21T07:52:48.000Z</time>
      </trkpt>
      <trkpt lat="44.08377" lon="6.60058">
        <ele>1729.5999755859</ele>
        <time>2021-08-21T07:52:52.000Z</time>
      </trkpt>
      <trkpt lat="44.08387" lon="6.60052">
        <ele>1730.1999511719</ele>
        <time>2021-08-21T07:52:58.000Z</time>
      </trkpt>
      <trkpt lat="44.08395" lon="6.60049">
        <ele>1730.5999755859</ele>
        <time>2021-08-21T07:53:02.000Z</time>
      </trkpt>
      <trkpt lat="44.08403" lon="6.60048">
        <ele>1731.1999511719</ele>
        <time>2021-08-21T07:53:06.000Z</time>
      </trkpt>
      <trkpt lat="44.08408" lon="6.6005">
        <ele>1731.8000488281</ele>
        <time>2021-08-21T07:53:09.000Z</time>
      </trkpt>
      <trkpt lat="44.08413" lon="6.60051">
        <ele>1732.1999511719</ele>
        <time>2021-08-21T07:53:12.000Z</time>
      </trkpt>
      <trkpt lat="44.08419" lon="6.6005">
        <ele>1733.1999511719</ele>
        <time>2021-08-21T07:53:17.000Z</time>
      </trkpt>
      <trkpt lat="44.08421" lon="6.6005">
        <ele>1733.4000244141</ele>
        <time>2021-08-21T07:53:18.000Z</time>
      </trkpt>
      <trkpt lat="44.08432" lon="6.60051">
        <ele>1734.4000244141</ele>
        <time>2021-08-21T07:53:25.000Z</time>
      </trkpt>
      <trkpt lat="44.08433" lon="6.6005">
        <ele>1734.5999755859</ele>
        <time>2021-08-21T07:53:26.000Z</time>
      </trkpt>
      <trkpt lat="44.08444" lon="6.6005">
        <ele>1735.5999755859</ele>
        <time>2021-08-21T07:53:33.000Z</time>
      </trkpt>
      <trkpt lat="44.08447" lon="6.6005">
        <ele>1736</ele>
        <time>2021-08-21T07:53:35.000Z</time>
      </trkpt>
      <trkpt lat="44.08456" lon="6.6005">
        <ele>1736.8000488281</ele>
        <time>2021-08-21T07:53:40.000Z</time>
      </trkpt>
      <trkpt lat="44.08461" lon="6.6005">
        <ele>1737.4000244141</ele>
        <time>2021-08-21T07:53:43.000Z</time>
      </trkpt>
      <trkpt lat="44.08467" lon="6.6005">
        <ele>1737.8000488281</ele>
        <time>2021-08-21T07:53:46.000Z</time>
      </trkpt>
      <trkpt lat="44.0848" lon="6.60049">
        <ele>1738.5999755859</ele>
        <time>2021-08-21T07:53:53.000Z</time>
      </trkpt>
      <trkpt lat="44.08484" lon="6.60049">
        <ele>1738.8000488281</ele>
        <time>2021-08-21T07:53:55.000Z</time>
      </trkpt>
      <trkpt lat="44.08496" lon="6.60049">
        <ele>1740</ele>
        <time>2021-08-21T07:54:02.000Z</time>
      </trkpt>
      <trkpt lat="44.08513" lon="6.60048">
        <ele>1741</ele>
        <time>2021-08-21T07:54:11.000Z</time>
      </trkpt>
      <trkpt lat="44.08523" lon="6.60043">
        <ele>1742</ele>
        <time>2021-08-21T07:54:18.000Z</time>
      </trkpt>
      <trkpt lat="44.08525" lon="6.60042">
        <ele>1742.1999511719</ele>
        <time>2021-08-21T07:54:19.000Z</time>
      </trkpt>
      <trkpt lat="44.08534" lon="6.60036">
        <ele>1743</ele>
        <time>2021-08-21T07:54:25.000Z</time>
      </trkpt>
      <trkpt lat="44.08537" lon="6.60034">
        <ele>1743.4000244141</ele>
        <time>2021-08-21T07:54:27.000Z</time>
      </trkpt>
      <trkpt lat="44.08544" lon="6.6003">
        <ele>1744.1999511719</ele>
        <time>2021-08-21T07:54:33.000Z</time>
      </trkpt>
      <trkpt lat="44.08549" lon="6.60027">
        <ele>1745</ele>
        <time>2021-08-21T07:54:37.000Z</time>
      </trkpt>
      <trkpt lat="44.08552" lon="6.60025">
        <ele>1745.4000244141</ele>
        <time>2021-08-21T07:54:39.000Z</time>
      </trkpt>
      <trkpt lat="44.08559" lon="6.60021">
        <ele>1746.4000244141</ele>
        <time>2021-08-21T07:54:45.000Z</time>
      </trkpt>
      <trkpt lat="44.08566" lon="6.60019">
        <ele>1747.5999755859</ele>
        <time>2021-08-21T07:54:51.000Z</time>
      </trkpt>
      <trkpt lat="44.08569" lon="6.60019">
        <ele>1747.8000488281</ele>
        <time>2021-08-21T07:54:53.000Z</time>
      </trkpt>
      <trkpt lat="44.08576" lon="6.60019">
        <ele>1748.8000488281</ele>
        <time>2021-08-21T07:54:59.000Z</time>
      </trkpt>
      <trkpt lat="44.0858" lon="6.6002">
        <ele>1749.1999511719</ele>
        <time>2021-08-21T07:55:02.000Z</time>
      </trkpt>
      <trkpt lat="44.08585" lon="6.60023">
        <ele>1749.8000488281</ele>
        <time>2021-08-21T07:55:06.000Z</time>
      </trkpt>
      <trkpt lat="44.08588" lon="6.60023">
        <ele>1750</ele>
        <time>2021-08-21T07:55:08.000Z</time>
      </trkpt>
      <trkpt lat="44.08594" lon="6.60023">
        <ele>1750.8000488281</ele>
        <time>2021-08-21T07:55:13.000Z</time>
      </trkpt>
      <trkpt lat="44.08598" lon="6.60024">
        <ele>1751.4000244141</ele>
        <time>2021-08-21T07:55:16.000Z</time>
      </trkpt>
      <trkpt lat="44.08601" lon="6.60024">
        <ele>1752</ele>
        <time>2021-08-21T07:55:19.000Z</time>
      </trkpt>
      <trkpt lat="44.08607" lon="6.60026">
        <ele>1752.5999755859</ele>
        <time>2021-08-21T07:55:24.000Z</time>
      </trkpt>
      <trkpt lat="44.0861" lon="6.60026">
        <ele>1753</ele>
        <time>2021-08-21T07:55:26.000Z</time>
      </trkpt>
      <trkpt lat="44.08616" lon="6.6003">
        <ele>1753.8000488281</ele>
        <time>2021-08-21T07:55:31.000Z</time>
      </trkpt>
      <trkpt lat="44.08618" lon="6.60031">
        <ele>1754</ele>
        <time>2021-08-21T07:55:33.000Z</time>
      </trkpt>
      <trkpt lat="44.08624" lon="6.60035">
        <ele>1754.8000488281</ele>
        <time>2021-08-21T07:55:39.000Z</time>
      </trkpt>
      <trkpt lat="44.08627" lon="6.60037">
        <ele>1755.1999511719</ele>
        <time>2021-08-21T07:55:41.000Z</time>
      </trkpt>
      <trkpt lat="44.08634" lon="6.60043">
        <ele>1756.1999511719</ele>
        <time>2021-08-21T07:55:48.000Z</time>
      </trkpt>
      <trkpt lat="44.08635" lon="6.60044">
        <ele>1756.4000244141</ele>
        <time>2021-08-21T07:55:49.000Z</time>
      </trkpt>
      <trkpt lat="44.08641" lon="6.60048">
        <ele>1757.4000244141</ele>
        <time>2021-08-21T07:55:55.000Z</time>
      </trkpt>
      <trkpt lat="44.08645" lon="6.6005">
        <ele>1757.8000488281</ele>
        <time>2021-08-21T07:55:58.000Z</time>
      </trkpt>
      <trkpt lat="44.0865" lon="6.60055">
        <ele>1758.5999755859</ele>
        <time>2021-08-21T07:56:03.000Z</time>
      </trkpt>
      <trkpt lat="44.08654" lon="6.60057">
        <ele>1759</ele>
        <time>2021-08-21T07:56:07.000Z</time>
      </trkpt>
      <trkpt lat="44.08659" lon="6.60061">
        <ele>1759.5999755859</ele>
        <time>2021-08-21T07:56:12.000Z</time>
      </trkpt>
      <trkpt lat="44.08663" lon="6.60063">
        <ele>1760</ele>
        <time>2021-08-21T07:56:15.000Z</time>
      </trkpt>
      <trkpt lat="44.08668" lon="6.60068">
        <ele>1760.5999755859</ele>
        <time>2021-08-21T07:56:20.000Z</time>
      </trkpt>
      <trkpt lat="44.08672" lon="6.60074">
        <ele>1761.1999511719</ele>
        <time>2021-08-21T07:56:24.000Z</time>
      </trkpt>
      <trkpt lat="44.0868" lon="6.60091">
        <ele>1761.8000488281</ele>
        <time>2021-08-21T07:56:32.000Z</time>
      </trkpt>
      <trkpt lat="44.08683" lon="6.60096">
        <ele>1761.8000488281</ele>
        <time>2021-08-21T07:56:34.000Z</time>
      </trkpt>
      <trkpt lat="44.08693" lon="6.60123">
        <ele>1762.5999755859</ele>
        <time>2021-08-21T07:56:44.000Z</time>
      </trkpt>
      <trkpt lat="44.08704" lon="6.60136">
        <ele>1762.5999755859</ele>
        <time>2021-08-21T07:56:49.000Z</time>
      </trkpt>
      <trkpt lat="44.08724" lon="6.6014">
        <ele>1762.8000488281</ele>
        <time>2021-08-21T07:56:55.000Z</time>
      </trkpt>
      <trkpt lat="44.0875" lon="6.6014">
        <ele>1762.8000488281</ele>
        <time>2021-08-21T07:57:02.000Z</time>
      </trkpt>
      <trkpt lat="44.08765" lon="6.6014">
        <ele>1762.5999755859</ele>
        <time>2021-08-21T07:57:07.000Z</time>
      </trkpt>
      <trkpt lat="44.08784" lon="6.6014">
        <ele>1763.1999511719</ele>
        <time>2021-08-21T07:57:14.000Z</time>
      </trkpt>
      <trkpt lat="44.08792" lon="6.60141">
        <ele>1764</ele>
        <time>2021-08-21T07:57:18.000Z</time>
      </trkpt>
      <trkpt lat="44.08799" lon="6.60143">
        <ele>1764.4000244141</ele>
        <time>2021-08-21T07:57:21.000Z</time>
      </trkpt>
      <trkpt lat="44.08801" lon="6.60147">
        <ele>1764.4000244141</ele>
        <time>2021-08-21T07:57:22.000Z</time>
      </trkpt>
      <trkpt lat="44.08807" lon="6.60171">
        <ele>1764.5999755859</ele>
        <time>2021-08-21T07:57:26.000Z</time>
      </trkpt>
      <trkpt lat="44.08808" lon="6.60176">
        <ele>1764.4000244141</ele>
        <time>2021-08-21T07:57:27.000Z</time>
      </trkpt>
      <trkpt lat="44.08812" lon="6.60194">
        <ele>1763.1999511719</ele>
        <time>2021-08-21T07:57:31.000Z</time>
      </trkpt>
      <trkpt lat="44.0881" lon="6.60214">
        <ele>1763.4000244141</ele>
        <time>2021-08-21T07:57:37.000Z</time>
      </trkpt>
      <trkpt lat="44.08798" lon="6.60244">
        <ele>1763.5999755859</ele>
        <time>2021-08-21T07:57:46.000Z</time>
      </trkpt>
      <trkpt lat="44.08782" lon="6.60267">
        <ele>1763.5999755859</ele>
        <time>2021-08-21T07:57:52.000Z</time>
      </trkpt>
      <trkpt lat="44.08768" lon="6.60292">
        <ele>1763.1999511719</ele>
        <time>2021-08-21T07:57:59.000Z</time>
      </trkpt>
      <trkpt lat="44.08768" lon="6.60293">
        <ele>1762.8000488281</ele>
        <time>2021-08-21T07:58:03.000Z</time>
      </trkpt>
      <trkpt lat="44.08762" lon="6.60295">
        <ele>1762.5999755859</ele>
        <time>2021-08-21T07:58:10.000Z</time>
      </trkpt>
      <trkpt lat="44.0875" lon="6.6031">
        <ele>1762.5999755859</ele>
        <time>2021-08-21T07:58:15.000Z</time>
      </trkpt>
      <trkpt lat="44.08728" lon="6.6034">
        <ele>1761.8000488281</ele>
        <time>2021-08-21T07:58:22.000Z</time>
      </trkpt>
      <trkpt lat="44.08717" lon="6.60351">
        <ele>1761.5999755859</ele>
        <time>2021-08-21T07:58:25.000Z</time>
      </trkpt>
      <trkpt lat="44.08702" lon="6.60368">
        <ele>1761.1999511719</ele>
        <time>2021-08-21T07:58:29.000Z</time>
      </trkpt>
      <trkpt lat="44.08685" lon="6.60382">
        <ele>1760.8000488281</ele>
        <time>2021-08-21T07:58:33.000Z</time>
      </trkpt>
      <trkpt lat="44.08671" lon="6.60391">
        <ele>1760.4000244141</ele>
        <time>2021-08-21T07:58:36.000Z</time>
      </trkpt>
      <trkpt lat="44.08651" lon="6.60402">
        <ele>1759.5999755859</ele>
        <time>2021-08-21T07:58:40.000Z</time>
      </trkpt>
      <trkpt lat="44.0863" lon="6.60415">
        <ele>1758.4000244141</ele>
        <time>2021-08-21T07:58:44.000Z</time>
      </trkpt>
      <trkpt lat="44.08599" lon="6.60435">
        <ele>1757.4000244141</ele>
        <time>2021-08-21T07:58:50.000Z</time>
      </trkpt>
      <trkpt lat="44.08593" lon="6.60439">
        <ele>1757.1999511719</ele>
        <time>2021-08-21T07:58:51.000Z</time>
      </trkpt>
      <trkpt lat="44.08572" lon="6.60452">
        <ele>1756.4000244141</ele>
        <time>2021-08-21T07:58:55.000Z</time>
      </trkpt>
      <trkpt lat="44.08557" lon="6.60463">
        <ele>1755.8000488281</ele>
        <time>2021-08-21T07:58:58.000Z</time>
      </trkpt>
      <trkpt lat="44.08552" lon="6.60467">
        <ele>1755.4000244141</ele>
        <time>2021-08-21T07:58:59.000Z</time>
      </trkpt>
      <trkpt lat="44.08548" lon="6.60471">
        <ele>1755.1999511719</ele>
        <time>2021-08-21T07:59:00.000Z</time>
      </trkpt>
      <trkpt lat="44.08541" lon="6.60477">
        <ele>1754.5999755859</ele>
        <time>2021-08-21T07:59:02.000Z</time>
      </trkpt>
      <trkpt lat="44.08521" lon="6.60503">
        <ele>1754.8000488281</ele>
        <time>2021-08-21T07:59:09.000Z</time>
      </trkpt>
      <trkpt lat="44.08497" lon="6.60536">
        <ele>1755.1999511719</ele>
        <time>2021-08-21T07:59:18.000Z</time>
      </trkpt>
      <trkpt lat="44.08483" lon="6.60557">
        <ele>1755.8000488281</ele>
        <time>2021-08-21T07:59:25.000Z</time>
      </trkpt>
      <trkpt lat="44.08479" lon="6.60566">
        <ele>1756.1999511719</ele>
        <time>2021-08-21T07:59:28.000Z</time>
      </trkpt>
      <trkpt lat="44.08473" lon="6.6058">
        <ele>1757.1999511719</ele>
        <time>2021-08-21T07:59:33.000Z</time>
      </trkpt>
      <trkpt lat="44.08471" lon="6.60584">
        <ele>1757.4000244141</ele>
        <time>2021-08-21T07:59:34.000Z</time>
      </trkpt>
      <trkpt lat="44.08465" lon="6.60595">
        <ele>1758.4000244141</ele>
        <time>2021-08-21T07:59:38.000Z</time>
      </trkpt>
      <trkpt lat="44.08458" lon="6.60606">
        <ele>1759</ele>
        <time>2021-08-21T07:59:42.000Z</time>
      </trkpt>
      <trkpt lat="44.08451" lon="6.60615">
        <ele>1759.5999755859</ele>
        <time>2021-08-21T07:59:45.000Z</time>
      </trkpt>
      <trkpt lat="44.08441" lon="6.60632">
        <ele>1759.5999755859</ele>
        <time>2021-08-21T07:59:49.000Z</time>
      </trkpt>
      <trkpt lat="44.08441" lon="6.60643">
        <ele>1759.1999511719</ele>
        <time>2021-08-21T07:59:51.000Z</time>
      </trkpt>
      <trkpt lat="44.08442" lon="6.60647">
        <ele>1759</ele>
        <time>2021-08-21T07:59:52.000Z</time>
      </trkpt>
      <trkpt lat="44.08446" lon="6.60652">
        <ele>1758.5999755859</ele>
        <time>2021-08-21T07:59:54.000Z</time>
      </trkpt>
      <trkpt lat="44.08449" lon="6.60656">
        <ele>1758.4000244141</ele>
        <time>2021-08-21T07:59:55.000Z</time>
      </trkpt>
      <trkpt lat="44.08451" lon="6.60658">
        <ele>1758.1999511719</ele>
        <time>2021-08-21T07:59:56.000Z</time>
      </trkpt>
      <trkpt lat="44.08462" lon="6.60669">
        <ele>1758.5999755859</ele>
        <time>2021-08-21T08:00:02.000Z</time>
      </trkpt>
      <trkpt lat="44.08472" lon="6.60679">
        <ele>1759.5999755859</ele>
        <time>2021-08-21T08:00:08.000Z</time>
      </trkpt>
      <trkpt lat="44.08474" lon="6.60684">
        <ele>1760</ele>
        <time>2021-08-21T08:00:10.000Z</time>
      </trkpt>
      <trkpt lat="44.08479" lon="6.60693">
        <ele>1760.5999755859</ele>
        <time>2021-08-21T08:00:14.000Z</time>
      </trkpt>
      <trkpt lat="44.08485" lon="6.60702">
        <ele>1761.5999755859</ele>
        <time>2021-08-21T08:00:18.000Z</time>
      </trkpt>
      <trkpt lat="44.08487" lon="6.60703">
        <ele>1761.8000488281</ele>
        <time>2021-08-21T08:00:19.000Z</time>
      </trkpt>
      <trkpt lat="44.08494" lon="6.60714">
        <ele>1762.8000488281</ele>
        <time>2021-08-21T08:00:24.000Z</time>
      </trkpt>
      <trkpt lat="44.08497" lon="6.60718">
        <ele>1763.4000244141</ele>
        <time>2021-08-21T08:00:26.000Z</time>
      </trkpt>
      <trkpt lat="44.085" lon="6.60723">
        <ele>1764</ele>
        <time>2021-08-21T08:00:29.000Z</time>
      </trkpt>
      <trkpt lat="44.08509" lon="6.60739">
        <ele>1764.8000488281</ele>
        <time>2021-08-21T08:00:36.000Z</time>
      </trkpt>
      <trkpt lat="44.08527" lon="6.60748">
        <ele>1765</ele>
        <time>2021-08-21T08:00:41.000Z</time>
      </trkpt>
      <trkpt lat="44.08536" lon="6.6075">
        <ele>1764.8000488281</ele>
        <time>2021-08-21T08:00:43.000Z</time>
      </trkpt>
      <trkpt lat="44.08553" lon="6.60753">
        <ele>1764.1999511719</ele>
        <time>2021-08-21T08:00:46.000Z</time>
      </trkpt>
      <trkpt lat="44.08583" lon="6.60761">
        <ele>1763</ele>
        <time>2021-08-21T08:00:51.000Z</time>
      </trkpt>
      <trkpt lat="44.0859" lon="6.60764">
        <ele>1762.8000488281</ele>
        <time>2021-08-21T08:00:52.000Z</time>
      </trkpt>
      <trkpt lat="44.08615" lon="6.60772">
        <ele>1761.8000488281</ele>
        <time>2021-08-21T08:00:56.000Z</time>
      </trkpt>
      <trkpt lat="44.08627" lon="6.60779">
        <ele>1761.1999511719</ele>
        <time>2021-08-21T08:00:58.000Z</time>
      </trkpt>
      <trkpt lat="44.08637" lon="6.60789">
        <ele>1760.4000244141</ele>
        <time>2021-08-21T08:01:00.000Z</time>
      </trkpt>
      <trkpt lat="44.08645" lon="6.608">
        <ele>1759.8000488281</ele>
        <time>2021-08-21T08:01:02.000Z</time>
      </trkpt>
      <trkpt lat="44.08645" lon="6.60815">
        <ele>1759.4000244141</ele>
        <time>2021-08-21T08:01:04.000Z</time>
      </trkpt>
      <trkpt lat="44.08643" lon="6.60817">
        <ele>1759.4000244141</ele>
        <time>2021-08-21T08:01:05.000Z</time>
      </trkpt>
      <trkpt lat="44.08628" lon="6.60833">
        <ele>1758.5999755859</ele>
        <time>2021-08-21T08:01:08.000Z</time>
      </trkpt>
      <trkpt lat="44.08622" lon="6.60839">
        <ele>1758.1999511719</ele>
        <time>2021-08-21T08:01:09.000Z</time>
      </trkpt>
      <trkpt lat="44.08618" lon="6.60845">
        <ele>1757.8000488281</ele>
        <time>2021-08-21T08:01:10.000Z</time>
      </trkpt>
      <trkpt lat="44.08609" lon="6.60856">
        <ele>1757.1999511719</ele>
        <time>2021-08-21T08:01:12.000Z</time>
      </trkpt>
      <trkpt lat="44.086" lon="6.60868">
        <ele>1756.1999511719</ele>
        <time>2021-08-21T08:01:14.000Z</time>
      </trkpt>
      <trkpt lat="44.08595" lon="6.60874">
        <ele>1755.8000488281</ele>
        <time>2021-08-21T08:01:15.000Z</time>
      </trkpt>
      <trkpt lat="44.08582" lon="6.60895">
        <ele>1754.5999755859</ele>
        <time>2021-08-21T08:01:18.000Z</time>
      </trkpt>
      <trkpt lat="44.08569" lon="6.60919">
        <ele>1753.8000488281</ele>
        <time>2021-08-21T08:01:21.000Z</time>
      </trkpt>
      <trkpt lat="44.08566" lon="6.60927">
        <ele>1753.1999511719</ele>
        <time>2021-08-21T08:01:22.000Z</time>
      </trkpt>
      <trkpt lat="44.08558" lon="6.60944">
        <ele>1752.4000244141</ele>
        <time>2021-08-21T08:01:24.000Z</time>
      </trkpt>
      <trkpt lat="44.08555" lon="6.60953">
        <ele>1752</ele>
        <time>2021-08-21T08:01:25.000Z</time>
      </trkpt>
      <trkpt lat="44.08554" lon="6.60961">
        <ele>1751.4000244141</ele>
        <time>2021-08-21T08:01:26.000Z</time>
      </trkpt>
      <trkpt lat="44.08556" lon="6.60979">
        <ele>1750.5999755859</ele>
        <time>2021-08-21T08:01:28.000Z</time>
      </trkpt>
      <trkpt lat="44.08559" lon="6.60987">
        <ele>1750</ele>
        <time>2021-08-21T08:01:29.000Z</time>
      </trkpt>
      <trkpt lat="44.08564" lon="6.60993">
        <ele>1749.4000244141</ele>
        <time>2021-08-21T08:01:30.000Z</time>
      </trkpt>
      <trkpt lat="44.08575" lon="6.61003">
        <ele>1748.4000244141</ele>
        <time>2021-08-21T08:01:32.000Z</time>
      </trkpt>
      <trkpt lat="44.08581" lon="6.61007">
        <ele>1748</ele>
        <time>2021-08-21T08:01:33.000Z</time>
      </trkpt>
      <trkpt lat="44.08586" lon="6.61011">
        <ele>1747.8000488281</ele>
        <time>2021-08-21T08:01:34.000Z</time>
      </trkpt>
      <trkpt lat="44.08598" lon="6.61021">
        <ele>1747.1999511719</ele>
        <time>2021-08-21T08:01:37.000Z</time>
      </trkpt>
      <trkpt lat="44.08601" lon="6.61024">
        <ele>1747</ele>
        <time>2021-08-21T08:01:38.000Z</time>
      </trkpt>
      <trkpt lat="44.08613" lon="6.61031">
        <ele>1747.1999511719</ele>
        <time>2021-08-21T08:01:42.000Z</time>
      </trkpt>
      <trkpt lat="44.08626" lon="6.61038">
        <ele>1748.4000244141</ele>
        <time>2021-08-21T08:01:47.000Z</time>
      </trkpt>
      <trkpt lat="44.08631" lon="6.61041">
        <ele>1749</ele>
        <time>2021-08-21T08:01:49.000Z</time>
      </trkpt>
      <trkpt lat="44.08636" lon="6.61043">
        <ele>1749.4000244141</ele>
        <time>2021-08-21T08:01:51.000Z</time>
      </trkpt>
      <trkpt lat="44.08645" lon="6.61047">
        <ele>1750.1999511719</ele>
        <time>2021-08-21T08:01:55.000Z</time>
      </trkpt>
      <trkpt lat="44.0865" lon="6.61049">
        <ele>1750.5999755859</ele>
        <time>2021-08-21T08:01:57.000Z</time>
      </trkpt>
      <trkpt lat="44.08659" lon="6.61053">
        <ele>1751.1999511719</ele>
        <time>2021-08-21T08:02:01.000Z</time>
      </trkpt>
      <trkpt lat="44.08661" lon="6.61054">
        <ele>1751.5999755859</ele>
        <time>2021-08-21T08:02:02.000Z</time>
      </trkpt>
      <trkpt lat="44.08673" lon="6.61058">
        <ele>1752.8000488281</ele>
        <time>2021-08-21T08:02:07.000Z</time>
      </trkpt>
      <trkpt lat="44.08679" lon="6.61057">
        <ele>1753.1999511719</ele>
        <time>2021-08-21T08:02:10.000Z</time>
      </trkpt>
      <trkpt lat="44.08683" lon="6.61056">
        <ele>1753.8000488281</ele>
        <time>2021-08-21T08:02:13.000Z</time>
      </trkpt>
      <trkpt lat="44.08686" lon="6.61058">
        <ele>1754.4000244141</ele>
        <time>2021-08-21T08:02:15.000Z</time>
      </trkpt>
      <trkpt lat="44.08691" lon="6.61063">
        <ele>1755</ele>
        <time>2021-08-21T08:02:18.000Z</time>
      </trkpt>
      <trkpt lat="44.08695" lon="6.61067">
        <ele>1755.4000244141</ele>
        <time>2021-08-21T08:02:20.000Z</time>
      </trkpt>
      <trkpt lat="44.08701" lon="6.61076">
        <ele>1756.1999511719</ele>
        <time>2021-08-21T08:02:24.000Z</time>
      </trkpt>
      <trkpt lat="44.08707" lon="6.61084">
        <ele>1757</ele>
        <time>2021-08-21T08:02:28.000Z</time>
      </trkpt>
      <trkpt lat="44.08708" lon="6.61087">
        <ele>1757.1999511719</ele>
        <time>2021-08-21T08:02:29.000Z</time>
      </trkpt>
      <trkpt lat="44.08711" lon="6.61101">
        <ele>1757.5999755859</ele>
        <time>2021-08-21T08:02:33.000Z</time>
      </trkpt>
      <trkpt lat="44.08704" lon="6.61118">
        <ele>1758</ele>
        <time>2021-08-21T08:02:39.000Z</time>
      </trkpt>
      <trkpt lat="44.08699" lon="6.61127">
        <ele>1758.1999511719</ele>
        <time>2021-08-21T08:02:42.000Z</time>
      </trkpt>
      <trkpt lat="44.08692" lon="6.61137">
        <ele>1758.8000488281</ele>
        <time>2021-08-21T08:02:46.000Z</time>
      </trkpt>
      <trkpt lat="44.08686" lon="6.61144">
        <ele>1759.4000244141</ele>
        <time>2021-08-21T08:02:49.000Z</time>
      </trkpt>
      <trkpt lat="44.08676" lon="6.61155">
        <ele>1760.4000244141</ele>
        <time>2021-08-21T08:02:54.000Z</time>
      </trkpt>
      <trkpt lat="44.08659" lon="6.61171">
        <ele>1761.1999511719</ele>
        <time>2021-08-21T08:03:03.000Z</time>
      </trkpt>
      <trkpt lat="44.08653" lon="6.61177">
        <ele>1761.4000244141</ele>
        <time>2021-08-21T08:03:07.000Z</time>
      </trkpt>
      <trkpt lat="44.08646" lon="6.61187">
        <ele>1762</ele>
        <time>2021-08-21T08:03:12.000Z</time>
      </trkpt>
      <trkpt lat="44.0864" lon="6.61195">
        <ele>1762.4000244141</ele>
        <time>2021-08-21T08:03:16.000Z</time>
      </trkpt>
      <trkpt lat="44.08636" lon="6.61207">
        <ele>1762.8000488281</ele>
        <time>2021-08-21T08:03:20.000Z</time>
      </trkpt>
      <trkpt lat="44.0864" lon="6.61224">
        <ele>1763.1999511719</ele>
        <time>2021-08-21T08:03:26.000Z</time>
      </trkpt>
      <trkpt lat="44.08648" lon="6.61235">
        <ele>1763.5999755859</ele>
        <time>2021-08-21T08:03:31.000Z</time>
      </trkpt>
      <trkpt lat="44.08651" lon="6.61239">
        <ele>1764.1999511719</ele>
        <time>2021-08-21T08:03:33.000Z</time>
      </trkpt>
      <trkpt lat="44.08657" lon="6.61246">
        <ele>1764.5999755859</ele>
        <time>2021-08-21T08:03:37.000Z</time>
      </trkpt>
      <trkpt lat="44.08663" lon="6.61255">
        <ele>1765.1999511719</ele>
        <time>2021-08-21T08:03:41.000Z</time>
      </trkpt>
      <trkpt lat="44.08666" lon="6.61273">
        <ele>1765.5999755859</ele>
        <time>2021-08-21T08:03:47.000Z</time>
      </trkpt>
      <trkpt lat="44.08664" lon="6.61279">
        <ele>1765.8000488281</ele>
        <time>2021-08-21T08:03:49.000Z</time>
      </trkpt>
      <trkpt lat="44.08659" lon="6.61289">
        <ele>1766.1999511719</ele>
        <time>2021-08-21T08:03:53.000Z</time>
      </trkpt>
      <trkpt lat="44.08645" lon="6.6131">
        <ele>1766.4000244141</ele>
        <time>2021-08-21T08:04:01.000Z</time>
      </trkpt>
      <trkpt lat="44.08626" lon="6.61337">
        <ele>1766.5999755859</ele>
        <time>2021-08-21T08:04:12.000Z</time>
      </trkpt>
      <trkpt lat="44.08618" lon="6.61354">
        <ele>1766.5999755859</ele>
        <time>2021-08-21T08:04:18.000Z</time>
      </trkpt>
      <trkpt lat="44.08618" lon="6.61357">
        <ele>1766.5999755859</ele>
        <time>2021-08-21T08:04:19.000Z</time>
      </trkpt>
      <trkpt lat="44.08622" lon="6.61364">
        <ele>1766.8000488281</ele>
        <time>2021-08-21T08:04:22.000Z</time>
      </trkpt>
      <trkpt lat="44.08627" lon="6.61369">
        <ele>1766.8000488281</ele>
        <time>2021-08-21T08:04:24.000Z</time>
      </trkpt>
      <trkpt lat="44.08641" lon="6.61377">
        <ele>1766.4000244141</ele>
        <time>2021-08-21T08:04:28.000Z</time>
      </trkpt>
      <trkpt lat="44.08645" lon="6.61379">
        <ele>1766.1999511719</ele>
        <time>2021-08-21T08:04:29.000Z</time>
      </trkpt>
      <trkpt lat="44.08652" lon="6.61382">
        <ele>1765.8000488281</ele>
        <time>2021-08-21T08:04:31.000Z</time>
      </trkpt>
      <trkpt lat="44.08662" lon="6.61384">
        <ele>1765.5999755859</ele>
        <time>2021-08-21T08:04:35.000Z</time>
      </trkpt>
      <trkpt lat="44.08685" lon="6.61389">
        <ele>1766.4000244141</ele>
        <time>2021-08-21T08:04:44.000Z</time>
      </trkpt>
      <trkpt lat="44.08693" lon="6.6139">
        <ele>1766.8000488281</ele>
        <time>2021-08-21T08:04:47.000Z</time>
      </trkpt>
      <trkpt lat="44.08704" lon="6.61389">
        <ele>1766.8000488281</ele>
        <time>2021-08-21T08:04:51.000Z</time>
      </trkpt>
      <trkpt lat="44.08718" lon="6.61394">
        <ele>1766.8000488281</ele>
        <time>2021-08-21T08:04:56.000Z</time>
      </trkpt>
      <trkpt lat="44.08726" lon="6.61396">
        <ele>1767.4000244141</ele>
        <time>2021-08-21T08:05:01.000Z</time>
      </trkpt>
      <trkpt lat="44.08729" lon="6.61395">
        <ele>1767.8000488281</ele>
        <time>2021-08-21T08:05:03.000Z</time>
      </trkpt>
      <trkpt lat="44.08734" lon="6.61392">
        <ele>1768.5999755859</ele>
        <time>2021-08-21T08:05:07.000Z</time>
      </trkpt>
      <trkpt lat="44.08737" lon="6.6139">
        <ele>1769</ele>
        <time>2021-08-21T08:05:09.000Z</time>
      </trkpt>
      <trkpt lat="44.08748" lon="6.61384">
        <ele>1770</ele>
        <time>2021-08-21T08:05:16.000Z</time>
      </trkpt>
      <trkpt lat="44.08755" lon="6.61381">
        <ele>1771.1999511719</ele>
        <time>2021-08-21T08:05:21.000Z</time>
      </trkpt>
      <trkpt lat="44.08762" lon="6.61377">
        <ele>1772</ele>
        <time>2021-08-21T08:05:25.000Z</time>
      </trkpt>
      <trkpt lat="44.08765" lon="6.61375">
        <ele>1772.4000244141</ele>
        <time>2021-08-21T08:05:27.000Z</time>
      </trkpt>
      <trkpt lat="44.08777" lon="6.61367">
        <ele>1773.5999755859</ele>
        <time>2021-08-21T08:05:35.000Z</time>
      </trkpt>
      <trkpt lat="44.08786" lon="6.61361">
        <ele>1774.5999755859</ele>
        <time>2021-08-21T08:05:41.000Z</time>
      </trkpt>
      <trkpt lat="44.08791" lon="6.61358">
        <ele>1775.1999511719</ele>
        <time>2021-08-21T08:05:44.000Z</time>
      </trkpt>
      <trkpt lat="44.08799" lon="6.61354">
        <ele>1775.8000488281</ele>
        <time>2021-08-21T08:05:49.000Z</time>
      </trkpt>
      <trkpt lat="44.08803" lon="6.61352">
        <ele>1776</ele>
        <time>2021-08-21T08:05:52.000Z</time>
      </trkpt>
      <trkpt lat="44.08813" lon="6.61349">
        <ele>1776.8000488281</ele>
        <time>2021-08-21T08:05:57.000Z</time>
      </trkpt>
      <trkpt lat="44.08819" lon="6.61347">
        <ele>1777.1999511719</ele>
        <time>2021-08-21T08:06:00.000Z</time>
      </trkpt>
      <trkpt lat="44.08838" lon="6.61342">
        <ele>1778</ele>
        <time>2021-08-21T08:06:10.000Z</time>
      </trkpt>
      <trkpt lat="44.08841" lon="6.61341">
        <ele>1778</ele>
        <time>2021-08-21T08:06:11.000Z</time>
      </trkpt>
      <trkpt lat="44.0886" lon="6.61337">
        <ele>1778.5999755859</ele>
        <time>2021-08-21T08:06:20.000Z</time>
      </trkpt>
      <trkpt lat="44.08876" lon="6.61334">
        <ele>1778.8000488281</ele>
        <time>2021-08-21T08:06:28.000Z</time>
      </trkpt>
      <trkpt lat="44.08888" lon="6.61342">
        <ele>1778.5999755859</ele>
        <time>2021-08-21T08:06:34.000Z</time>
      </trkpt>
      <trkpt lat="44.08899" lon="6.61358">
        <ele>1779</ele>
        <time>2021-08-21T08:06:42.000Z</time>
      </trkpt>
      <trkpt lat="44.08906" lon="6.61363">
        <ele>1780</ele>
        <time>2021-08-21T08:06:47.000Z</time>
      </trkpt>
      <trkpt lat="44.08911" lon="6.61365">
        <ele>1781</ele>
        <time>2021-08-21T08:06:51.000Z</time>
      </trkpt>
      <trkpt lat="44.08913" lon="6.61366">
        <ele>1781.1999511719</ele>
        <time>2021-08-21T08:06:52.000Z</time>
      </trkpt>
      <trkpt lat="44.08919" lon="6.61365">
        <ele>1781.8000488281</ele>
        <time>2021-08-21T08:06:56.000Z</time>
      </trkpt>
      <trkpt lat="44.0892" lon="6.61365">
        <ele>1782</ele>
        <time>2021-08-21T08:06:57.000Z</time>
      </trkpt>
      <trkpt lat="44.08922" lon="6.61365">
        <ele>1782</ele>
        <time>2021-08-21T08:06:58.000Z</time>
      </trkpt>
      <trkpt lat="44.08926" lon="6.61366">
        <ele>1782.4000244141</ele>
        <time>2021-08-21T08:07:00.000Z</time>
      </trkpt>
      <trkpt lat="44.08931" lon="6.61367">
        <ele>1783</ele>
        <time>2021-08-21T08:07:03.000Z</time>
      </trkpt>
      <trkpt lat="44.08932" lon="6.61367">
        <ele>1783.1999511719</ele>
        <time>2021-08-21T08:07:04.000Z</time>
      </trkpt>
      <trkpt lat="44.08935" lon="6.61366">
        <ele>1784.1999511719</ele>
        <time>2021-08-21T08:07:07.000Z</time>
      </trkpt>
      <trkpt lat="44.08936" lon="6.61366">
        <ele>1784.4000244141</ele>
        <time>2021-08-21T08:07:08.000Z</time>
      </trkpt>
      <trkpt lat="44.08937" lon="6.61366">
        <ele>1784.8000488281</ele>
        <time>2021-08-21T08:07:09.000Z</time>
      </trkpt>
      <trkpt lat="44.08942" lon="6.61366">
        <ele>1785.4000244141</ele>
        <time>2021-08-21T08:07:12.000Z</time>
      </trkpt>
      <trkpt lat="44.08943" lon="6.61366">
        <ele>1785.5999755859</ele>
        <time>2021-08-21T08:07:13.000Z</time>
      </trkpt>
      <trkpt lat="44.08945" lon="6.61367">
        <ele>1786</ele>
        <time>2021-08-21T08:07:14.000Z</time>
      </trkpt>
      <trkpt lat="44.08947" lon="6.61367">
        <ele>1786.4000244141</ele>
        <time>2021-08-21T08:07:16.000Z</time>
      </trkpt>
      <trkpt lat="44.08948" lon="6.61366">
        <ele>1786.5999755859</ele>
        <time>2021-08-21T08:07:17.000Z</time>
      </trkpt>
      <trkpt lat="44.08956" lon="6.6137">
        <ele>1787.1999511719</ele>
        <time>2021-08-21T08:07:21.000Z</time>
      </trkpt>
      <trkpt lat="44.08958" lon="6.61371">
        <ele>1787.4000244141</ele>
        <time>2021-08-21T08:07:22.000Z</time>
      </trkpt>
      <trkpt lat="44.08963" lon="6.61372">
        <ele>1788.5999755859</ele>
        <time>2021-08-21T08:07:26.000Z</time>
      </trkpt>
      <trkpt lat="44.08971" lon="6.61376">
        <ele>1789.5999755859</ele>
        <time>2021-08-21T08:07:30.000Z</time>
      </trkpt>
      <trkpt lat="44.08974" lon="6.61376">
        <ele>1790.1999511719</ele>
        <time>2021-08-21T08:07:32.000Z</time>
      </trkpt>
      <trkpt lat="44.08977" lon="6.61377">
        <ele>1790.5999755859</ele>
        <time>2021-08-21T08:07:34.000Z</time>
      </trkpt>
      <trkpt lat="44.08978" lon="6.61377">
        <ele>1790.8000488281</ele>
        <time>2021-08-21T08:07:35.000Z</time>
      </trkpt>
      <trkpt lat="44.0898" lon="6.61379">
        <ele>1791</ele>
        <time>2021-08-21T08:07:37.000Z</time>
      </trkpt>
      <trkpt lat="44.08982" lon="6.61379">
        <ele>1791.1999511719</ele>
        <time>2021-08-21T08:07:39.000Z</time>
      </trkpt>
      <trkpt lat="44.08982" lon="6.61379">
        <ele>1791.4000244141</ele>
        <time>2021-08-21T08:07:40.000Z</time>
      </trkpt>
      <trkpt lat="44.08984" lon="6.6138">
        <ele>1791.8000488281</ele>
        <time>2021-08-21T08:07:42.000Z</time>
      </trkpt>
      <trkpt lat="44.08986" lon="6.61381">
        <ele>1792.4000244141</ele>
        <time>2021-08-21T08:07:46.000Z</time>
      </trkpt>
      <trkpt lat="44.08994" lon="6.61383">
        <ele>1792.5999755859</ele>
        <time>2021-08-21T08:07:53.000Z</time>
      </trkpt>
      <trkpt lat="44.08995" lon="6.61384">
        <ele>1792.8000488281</ele>
        <time>2021-08-21T08:07:56.000Z</time>
      </trkpt>
      <trkpt lat="44.08999" lon="6.61386">
        <ele>1793.4000244141</ele>
        <time>2021-08-21T08:08:01.000Z</time>
      </trkpt>
      <trkpt lat="44.09003" lon="6.61389">
        <ele>1794</ele>
        <time>2021-08-21T08:08:06.000Z</time>
      </trkpt>
      <trkpt lat="44.09006" lon="6.61391">
        <ele>1794.5999755859</ele>
        <time>2021-08-21T08:08:09.000Z</time>
      </trkpt>
      <trkpt lat="44.09009" lon="6.61392">
        <ele>1795.1999511719</ele>
        <time>2021-08-21T08:08:13.000Z</time>
      </trkpt>
      <trkpt lat="44.09011" lon="6.61393">
        <ele>1795.4000244141</ele>
        <time>2021-08-21T08:08:16.000Z</time>
      </trkpt>
      <trkpt lat="44.09014" lon="6.61396">
        <ele>1796</ele>
        <time>2021-08-21T08:08:21.000Z</time>
      </trkpt>
      <trkpt lat="44.09015" lon="6.61398">
        <ele>1796.1999511719</ele>
        <time>2021-08-21T08:08:23.000Z</time>
      </trkpt>
      <trkpt lat="44.09019" lon="6.61401">
        <ele>1797.1999511719</ele>
        <time>2021-08-21T08:08:28.000Z</time>
      </trkpt>
      <trkpt lat="44.09022" lon="6.61404">
        <ele>1798.4000244141</ele>
        <time>2021-08-21T08:08:33.000Z</time>
      </trkpt>
      <trkpt lat="44.09023" lon="6.61405">
        <ele>1798.8000488281</ele>
        <time>2021-08-21T08:08:35.000Z</time>
      </trkpt>
      <trkpt lat="44.09024" lon="6.61406">
        <ele>1799.4000244141</ele>
        <time>2021-08-21T08:08:38.000Z</time>
      </trkpt>
      <trkpt lat="44.09026" lon="6.61408">
        <ele>1800</ele>
        <time>2021-08-21T08:08:41.000Z</time>
      </trkpt>
      <trkpt lat="44.09029" lon="6.61411">
        <ele>1800.5999755859</ele>
        <time>2021-08-21T08:08:45.000Z</time>
      </trkpt>
      <trkpt lat="44.09032" lon="6.61414">
        <ele>1801.4000244141</ele>
        <time>2021-08-21T08:08:50.000Z</time>
      </trkpt>
      <trkpt lat="44.09033" lon="6.61415">
        <ele>1801.8000488281</ele>
        <time>2021-08-21T08:08:52.000Z</time>
      </trkpt>
      <trkpt lat="44.09037" lon="6.61419">
        <ele>1803</ele>
        <time>2021-08-21T08:08:58.000Z</time>
      </trkpt>
      <trkpt lat="44.09038" lon="6.61419">
        <ele>1803.1999511719</ele>
        <time>2021-08-21T08:08:59.000Z</time>
      </trkpt>
      <trkpt lat="44.0904" lon="6.61422">
        <ele>1804</ele>
        <time>2021-08-21T08:09:03.000Z</time>
      </trkpt>
      <trkpt lat="44.09042" lon="6.61424">
        <ele>1804.5999755859</ele>
        <time>2021-08-21T08:09:07.000Z</time>
      </trkpt>
      <trkpt lat="44.09043" lon="6.61425">
        <ele>1805</ele>
        <time>2021-08-21T08:09:10.000Z</time>
      </trkpt>
      <trkpt lat="44.09044" lon="6.61427">
        <ele>1805.8000488281</ele>
        <time>2021-08-21T08:09:13.000Z</time>
      </trkpt>
      <trkpt lat="44.09044" lon="6.61427">
        <ele>1806.1999511719</ele>
        <time>2021-08-21T08:09:16.000Z</time>
      </trkpt>
      <trkpt lat="44.09047" lon="6.61431">
        <ele>1806.8000488281</ele>
        <time>2021-08-21T08:09:21.000Z</time>
      </trkpt>
      <trkpt lat="44.09048" lon="6.61432">
        <ele>1807.1999511719</ele>
        <time>2021-08-21T08:09:24.000Z</time>
      </trkpt>
      <trkpt lat="44.0905" lon="6.61435">
        <ele>1808.1999511719</ele>
        <time>2021-08-21T08:09:29.000Z</time>
      </trkpt>
      <trkpt lat="44.09052" lon="6.61441">
        <ele>1809.4000244141</ele>
        <time>2021-08-21T08:09:36.000Z</time>
      </trkpt>
      <trkpt lat="44.09052" lon="6.6144">
        <ele>1809.5999755859</ele>
        <time>2021-08-21T08:09:37.000Z</time>
      </trkpt>
      <trkpt lat="44.09054" lon="6.61445">
        <ele>1810.4000244141</ele>
        <time>2021-08-21T08:09:40.000Z</time>
      </trkpt>
      <trkpt lat="44.09056" lon="6.6145">
        <ele>1811.5999755859</ele>
        <time>2021-08-21T08:09:46.000Z</time>
      </trkpt>
      <trkpt lat="44.09056" lon="6.6145">
        <ele>1812</ele>
        <time>2021-08-21T08:09:47.000Z</time>
      </trkpt>
      <trkpt lat="44.09057" lon="6.61452">
        <ele>1812.8000488281</ele>
        <time>2021-08-21T08:09:50.000Z</time>
      </trkpt>
      <trkpt lat="44.09061" lon="6.61456">
        <ele>1813.8000488281</ele>
        <time>2021-08-21T08:09:56.000Z</time>
      </trkpt>
      <trkpt lat="44.09061" lon="6.61456">
        <ele>1814</ele>
        <time>2021-08-21T08:09:57.000Z</time>
      </trkpt>
      <trkpt lat="44.09065" lon="6.6146">
        <ele>1814.5999755859</ele>
        <time>2021-08-21T08:10:03.000Z</time>
      </trkpt>
      <trkpt lat="44.09066" lon="6.61461">
        <ele>1815</ele>
        <time>2021-08-21T08:10:05.000Z</time>
      </trkpt>
      <trkpt lat="44.09069" lon="6.61465">
        <ele>1816</ele>
        <time>2021-08-21T08:10:11.000Z</time>
      </trkpt>
      <trkpt lat="44.0907" lon="6.61466">
        <ele>1816.1999511719</ele>
        <time>2021-08-21T08:10:12.000Z</time>
      </trkpt>
      <trkpt lat="44.09074" lon="6.61471">
        <ele>1817.1999511719</ele>
        <time>2021-08-21T08:10:19.000Z</time>
      </trkpt>
      <trkpt lat="44.09074" lon="6.61472">
        <ele>1817.1999511719</ele>
        <time>2021-08-21T08:10:20.000Z</time>
      </trkpt>
      <trkpt lat="44.09077" lon="6.61476">
        <ele>1818.1999511719</ele>
        <time>2021-08-21T08:10:24.000Z</time>
      </trkpt>
      <trkpt lat="44.09079" lon="6.61478">
        <ele>1819</ele>
        <time>2021-08-21T08:10:28.000Z</time>
      </trkpt>
      <trkpt lat="44.0908" lon="6.6148">
        <ele>1819.4000244141</ele>
        <time>2021-08-21T08:10:30.000Z</time>
      </trkpt>
      <trkpt lat="44.09084" lon="6.61484">
        <ele>1820.4000244141</ele>
        <time>2021-08-21T08:10:37.000Z</time>
      </trkpt>
      <trkpt lat="44.09085" lon="6.61487">
        <ele>1821.4000244141</ele>
        <time>2021-08-21T08:10:44.000Z</time>
      </trkpt>
      <trkpt lat="44.09088" lon="6.6149">
        <ele>1821.5999755859</ele>
        <time>2021-08-21T08:10:51.000Z</time>
      </trkpt>
      <trkpt lat="44.09089" lon="6.61491">
        <ele>1821.5999755859</ele>
        <time>2021-08-21T08:10:52.000Z</time>
      </trkpt>
      <trkpt lat="44.09092" lon="6.61494">
        <ele>1822.5999755859</ele>
        <time>2021-08-21T08:10:57.000Z</time>
      </trkpt>
      <trkpt lat="44.09093" lon="6.61494">
        <ele>1823</ele>
        <time>2021-08-21T08:10:58.000Z</time>
      </trkpt>
      <trkpt lat="44.09095" lon="6.61497">
        <ele>1823.8000488281</ele>
        <time>2021-08-21T08:11:01.000Z</time>
      </trkpt>
      <trkpt lat="44.09097" lon="6.61501">
        <ele>1825.1999511719</ele>
        <time>2021-08-21T08:11:05.000Z</time>
      </trkpt>
      <trkpt lat="44.09099" lon="6.61503">
        <ele>1826.4000244141</ele>
        <time>2021-08-21T08:11:09.000Z</time>
      </trkpt>
      <trkpt lat="44.09101" lon="6.61505">
        <ele>1826.5999755859</ele>
        <time>2021-08-21T08:11:11.000Z</time>
      </trkpt>
      <trkpt lat="44.09104" lon="6.6151">
        <ele>1827.1999511719</ele>
        <time>2021-08-21T08:11:17.000Z</time>
      </trkpt>
      <trkpt lat="44.09105" lon="6.61511">
        <ele>1827.4000244141</ele>
        <time>2021-08-21T08:11:18.000Z</time>
      </trkpt>
      <trkpt lat="44.09108" lon="6.61515">
        <ele>1828.1999511719</ele>
        <time>2021-08-21T08:11:22.000Z</time>
      </trkpt>
      <trkpt lat="44.09109" lon="6.61517">
        <ele>1828.5999755859</ele>
        <time>2021-08-21T08:11:24.000Z</time>
      </trkpt>
      <trkpt lat="44.09113" lon="6.61521">
        <ele>1829.4000244141</ele>
        <time>2021-08-21T08:11:32.000Z</time>
      </trkpt>
      <trkpt lat="44.09113" lon="6.61522">
        <ele>1829.5999755859</ele>
        <time>2021-08-21T08:11:33.000Z</time>
      </trkpt>
      <trkpt lat="44.09116" lon="6.61527">
        <ele>1830.5999755859</ele>
        <time>2021-08-21T08:11:38.000Z</time>
      </trkpt>
      <trkpt lat="44.09115" lon="6.61526">
        <ele>1830.8000488281</ele>
        <time>2021-08-21T08:11:39.000Z</time>
      </trkpt>
      <trkpt lat="44.09119" lon="6.61532">
        <ele>1832</ele>
        <time>2021-08-21T08:11:45.000Z</time>
      </trkpt>
      <trkpt lat="44.09121" lon="6.61536">
        <ele>1832.8000488281</ele>
        <time>2021-08-21T08:11:51.000Z</time>
      </trkpt>
      <trkpt lat="44.09122" lon="6.61538">
        <ele>1833</ele>
        <time>2021-08-21T08:11:52.000Z</time>
      </trkpt>
      <trkpt lat="44.09123" lon="6.61542">
        <ele>1834</ele>
        <time>2021-08-21T08:11:58.000Z</time>
      </trkpt>
      <trkpt lat="44.09127" lon="6.61548">
        <ele>1835.1999511719</ele>
        <time>2021-08-21T08:12:04.000Z</time>
      </trkpt>
      <trkpt lat="44.09127" lon="6.61549">
        <ele>1835.4000244141</ele>
        <time>2021-08-21T08:12:05.000Z</time>
      </trkpt>
      <trkpt lat="44.09128" lon="6.61553">
        <ele>1836.4000244141</ele>
        <time>2021-08-21T08:12:10.000Z</time>
      </trkpt>
      <trkpt lat="44.0913" lon="6.61556">
        <ele>1837</ele>
        <time>2021-08-21T08:12:17.000Z</time>
      </trkpt>
      <trkpt lat="44.09132" lon="6.61559">
        <ele>1837</ele>
        <time>2021-08-21T08:12:21.000Z</time>
      </trkpt>
      <trkpt lat="44.09135" lon="6.61562">
        <ele>1837</ele>
        <time>2021-08-21T08:12:23.000Z</time>
      </trkpt>
      <trkpt lat="44.09136" lon="6.61564">
        <ele>1837.1999511719</ele>
        <time>2021-08-21T08:12:24.000Z</time>
      </trkpt>
      <trkpt lat="44.09138" lon="6.61567">
        <ele>1837.4000244141</ele>
        <time>2021-08-21T08:12:26.000Z</time>
      </trkpt>
      <trkpt lat="44.09139" lon="6.61569">
        <ele>1837.8000488281</ele>
        <time>2021-08-21T08:12:28.000Z</time>
      </trkpt>
      <trkpt lat="44.09142" lon="6.61572">
        <ele>1838.4000244141</ele>
        <time>2021-08-21T08:12:30.000Z</time>
      </trkpt>
      <trkpt lat="44.09144" lon="6.61573">
        <ele>1839.4000244141</ele>
        <time>2021-08-21T08:12:33.000Z</time>
      </trkpt>
      <trkpt lat="44.09144" lon="6.61573">
        <ele>1839.5999755859</ele>
        <time>2021-08-21T08:12:34.000Z</time>
      </trkpt>
      <trkpt lat="44.09146" lon="6.61574">
        <ele>1839.8000488281</ele>
        <time>2021-08-21T08:12:35.000Z</time>
      </trkpt>
      <trkpt lat="44.09149" lon="6.61578">
        <ele>1840.4000244141</ele>
        <time>2021-08-21T08:12:38.000Z</time>
      </trkpt>
      <trkpt lat="44.09151" lon="6.61579">
        <ele>1840.8000488281</ele>
        <time>2021-08-21T08:12:40.000Z</time>
      </trkpt>
      <trkpt lat="44.09153" lon="6.61581">
        <ele>1841.5999755859</ele>
        <time>2021-08-21T08:12:44.000Z</time>
      </trkpt>
      <trkpt lat="44.09154" lon="6.61581">
        <ele>1841.8000488281</ele>
        <time>2021-08-21T08:12:45.000Z</time>
      </trkpt>
      <trkpt lat="44.09158" lon="6.61586">
        <ele>1842.5999755859</ele>
        <time>2021-08-21T08:12:49.000Z</time>
      </trkpt>
      <trkpt lat="44.0916" lon="6.61588">
        <ele>1843</ele>
        <time>2021-08-21T08:12:51.000Z</time>
      </trkpt>
      <trkpt lat="44.09162" lon="6.61593">
        <ele>1843.1999511719</ele>
        <time>2021-08-21T08:12:53.000Z</time>
      </trkpt>
      <trkpt lat="44.09167" lon="6.61599">
        <ele>1843.8000488281</ele>
        <time>2021-08-21T08:12:57.000Z</time>
      </trkpt>
      <trkpt lat="44.09168" lon="6.61601">
        <ele>1844</ele>
        <time>2021-08-21T08:12:58.000Z</time>
      </trkpt>
      <trkpt lat="44.09173" lon="6.61606">
        <ele>1844.8000488281</ele>
        <time>2021-08-21T08:13:02.000Z</time>
      </trkpt>
      <trkpt lat="44.09175" lon="6.61607">
        <ele>1845</ele>
        <time>2021-08-21T08:13:03.000Z</time>
      </trkpt>
      <trkpt lat="44.09178" lon="6.6161">
        <ele>1846</ele>
        <time>2021-08-21T08:13:08.000Z</time>
      </trkpt>
      <trkpt lat="44.09179" lon="6.61611">
        <ele>1846.1999511719</ele>
        <time>2021-08-21T08:13:09.000Z</time>
      </trkpt>
      <trkpt lat="44.09181" lon="6.61613">
        <ele>1846.5999755859</ele>
        <time>2021-08-21T08:13:11.000Z</time>
      </trkpt>
      <trkpt lat="44.09186" lon="6.61618">
        <ele>1847.1999511719</ele>
        <time>2021-08-21T08:13:15.000Z</time>
      </trkpt>
      <trkpt lat="44.09187" lon="6.6162">
        <ele>1847.4000244141</ele>
        <time>2021-08-21T08:13:16.000Z</time>
      </trkpt>
      <trkpt lat="44.0919" lon="6.61623">
        <ele>1847.5999755859</ele>
        <time>2021-08-21T08:13:18.000Z</time>
      </trkpt>
      <trkpt lat="44.09193" lon="6.61627">
        <ele>1848.5999755859</ele>
        <time>2021-08-21T08:13:21.000Z</time>
      </trkpt>
      <trkpt lat="44.09194" lon="6.61629">
        <ele>1849.1999511719</ele>
        <time>2021-08-21T08:13:23.000Z</time>
      </trkpt>
      <trkpt lat="44.09197" lon="6.61632">
        <ele>1849.8000488281</ele>
        <time>2021-08-21T08:13:25.000Z</time>
      </trkpt>
      <trkpt lat="44.09202" lon="6.61638">
        <ele>1850.5999755859</ele>
        <time>2021-08-21T08:13:29.000Z</time>
      </trkpt>
      <trkpt lat="44.09202" lon="6.61639">
        <ele>1850.8000488281</ele>
        <time>2021-08-21T08:13:30.000Z</time>
      </trkpt>
      <trkpt lat="44.09208" lon="6.61645">
        <ele>1852</ele>
        <time>2021-08-21T08:13:36.000Z</time>
      </trkpt>
      <trkpt lat="44.09212" lon="6.61652">
        <ele>1853</ele>
        <time>2021-08-21T08:13:41.000Z</time>
      </trkpt>
      <trkpt lat="44.09212" lon="6.61653">
        <ele>1853.1999511719</ele>
        <time>2021-08-21T08:13:42.000Z</time>
      </trkpt>
      <trkpt lat="44.09213" lon="6.61654">
        <ele>1853.4000244141</ele>
        <time>2021-08-21T08:13:43.000Z</time>
      </trkpt>
      <trkpt lat="44.09214" lon="6.61657">
        <ele>1854.1999511719</ele>
        <time>2021-08-21T08:13:45.000Z</time>
      </trkpt>
      <trkpt lat="44.09215" lon="6.6166">
        <ele>1854.8000488281</ele>
        <time>2021-08-21T08:13:47.000Z</time>
      </trkpt>
      <trkpt lat="44.09217" lon="6.61663">
        <ele>1855.4000244141</ele>
        <time>2021-08-21T08:13:49.000Z</time>
      </trkpt>
      <trkpt lat="44.09218" lon="6.61668">
        <ele>1856.1999511719</ele>
        <time>2021-08-21T08:13:53.000Z</time>
      </trkpt>
      <trkpt lat="44.09219" lon="6.61669">
        <ele>1856.5999755859</ele>
        <time>2021-08-21T08:13:55.000Z</time>
      </trkpt>
      <trkpt lat="44.0922" lon="6.61671">
        <ele>1857.1999511719</ele>
        <time>2021-08-21T08:13:58.000Z</time>
      </trkpt>
      <trkpt lat="44.09223" lon="6.61677">
        <ele>1857.1999511719</ele>
        <time>2021-08-21T08:14:04.000Z</time>
      </trkpt>
      <trkpt lat="44.09226" lon="6.61682">
        <ele>1857.5999755859</ele>
        <time>2021-08-21T08:14:09.000Z</time>
      </trkpt>
      <trkpt lat="44.09227" lon="6.61684">
        <ele>1858</ele>
        <time>2021-08-21T08:14:12.000Z</time>
      </trkpt>
      <trkpt lat="44.09229" lon="6.61689">
        <ele>1858.5999755859</ele>
        <time>2021-08-21T08:14:16.000Z</time>
      </trkpt>
      <trkpt lat="44.09229" lon="6.61693">
        <ele>1859.1999511719</ele>
        <time>2021-08-21T08:14:19.000Z</time>
      </trkpt>
      <trkpt lat="44.09231" lon="6.61698">
        <ele>1859.5999755859</ele>
        <time>2021-08-21T08:14:23.000Z</time>
      </trkpt>
      <trkpt lat="44.09232" lon="6.61701">
        <ele>1860.1999511719</ele>
        <time>2021-08-21T08:14:26.000Z</time>
      </trkpt>
      <trkpt lat="44.09233" lon="6.61704">
        <ele>1860.8000488281</ele>
        <time>2021-08-21T08:14:29.000Z</time>
      </trkpt>
      <trkpt lat="44.09233" lon="6.61708">
        <ele>1861.8000488281</ele>
        <time>2021-08-21T08:14:33.000Z</time>
      </trkpt>
      <trkpt lat="44.09234" lon="6.61709">
        <ele>1862</ele>
        <time>2021-08-21T08:14:34.000Z</time>
      </trkpt>
      <trkpt lat="44.09234" lon="6.61715">
        <ele>1863</ele>
        <time>2021-08-21T08:14:40.000Z</time>
      </trkpt>
      <trkpt lat="44.09235" lon="6.61721">
        <ele>1864.1999511719</ele>
        <time>2021-08-21T08:14:47.000Z</time>
      </trkpt>
      <trkpt lat="44.09236" lon="6.61722">
        <ele>1864.4000244141</ele>
        <time>2021-08-21T08:14:48.000Z</time>
      </trkpt>
      <trkpt lat="44.09237" lon="6.61727">
        <ele>1865.1999511719</ele>
        <time>2021-08-21T08:14:53.000Z</time>
      </trkpt>
      <trkpt lat="44.09237" lon="6.61728">
        <ele>1865.4000244141</ele>
        <time>2021-08-21T08:14:54.000Z</time>
      </trkpt>
      <trkpt lat="44.09238" lon="6.61734">
        <ele>1866.1999511719</ele>
        <time>2021-08-21T08:15:00.000Z</time>
      </trkpt>
      <trkpt lat="44.09239" lon="6.61737">
        <ele>1866.8000488281</ele>
        <time>2021-08-21T08:15:04.000Z</time>
      </trkpt>
      <trkpt lat="44.09239" lon="6.6174">
        <ele>1867.4000244141</ele>
        <time>2021-08-21T08:15:07.000Z</time>
      </trkpt>
      <trkpt lat="44.09241" lon="6.61749">
        <ele>1868</ele>
        <time>2021-08-21T08:15:13.000Z</time>
      </trkpt>
      <trkpt lat="44.09241" lon="6.61751">
        <ele>1868.4000244141</ele>
        <time>2021-08-21T08:15:15.000Z</time>
      </trkpt>
      <trkpt lat="44.09242" lon="6.61763">
        <ele>1869.1999511719</ele>
        <time>2021-08-21T08:15:22.000Z</time>
      </trkpt>
      <trkpt lat="44.09241" lon="6.61766">
        <ele>1869.4000244141</ele>
        <time>2021-08-21T08:15:24.000Z</time>
      </trkpt>
      <trkpt lat="44.0924" lon="6.61771">
        <ele>1870</ele>
        <time>2021-08-21T08:15:28.000Z</time>
      </trkpt>
      <trkpt lat="44.09239" lon="6.61776">
        <ele>1870.5999755859</ele>
        <time>2021-08-21T08:15:32.000Z</time>
      </trkpt>
      <trkpt lat="44.09239" lon="6.61781">
        <ele>1871.1999511719</ele>
        <time>2021-08-21T08:15:35.000Z</time>
      </trkpt>
      <trkpt lat="44.09239" lon="6.61784">
        <ele>1871.5999755859</ele>
        <time>2021-08-21T08:15:37.000Z</time>
      </trkpt>
      <trkpt lat="44.0924" lon="6.61789">
        <ele>1871.5999755859</ele>
        <time>2021-08-21T08:15:42.000Z</time>
      </trkpt>
      <trkpt lat="44.09239" lon="6.61791">
        <ele>1871.4000244141</ele>
        <time>2021-08-21T08:15:47.000Z</time>
      </trkpt>
      <trkpt lat="44.0924" lon="6.61794">
        <ele>1872</ele>
        <time>2021-08-21T08:15:55.000Z</time>
      </trkpt>
      <trkpt lat="44.0924" lon="6.61795">
        <ele>1872</ele>
        <time>2021-08-21T08:15:56.000Z</time>
      </trkpt>
      <trkpt lat="44.09241" lon="6.61798">
        <ele>1871.8000488281</ele>
        <time>2021-08-21T08:16:07.000Z</time>
      </trkpt>
      <trkpt lat="44.09249" lon="6.61799">
        <ele>1872</ele>
        <time>2021-08-21T08:16:13.000Z</time>
      </trkpt>
      <trkpt lat="44.09259" lon="6.61798">
        <ele>1871.5999755859</ele>
        <time>2021-08-21T08:16:18.000Z</time>
      </trkpt>
      <trkpt lat="44.09273" lon="6.61802">
        <ele>1872.5999755859</ele>
        <time>2021-08-21T08:16:25.000Z</time>
      </trkpt>
      <trkpt lat="44.09274" lon="6.61802">
        <ele>1872.8000488281</ele>
        <time>2021-08-21T08:16:26.000Z</time>
      </trkpt>
      <trkpt lat="44.09281" lon="6.61801">
        <ele>1873.5999755859</ele>
        <time>2021-08-21T08:16:30.000Z</time>
      </trkpt>
      <trkpt lat="44.09286" lon="6.61801">
        <ele>1873.8000488281</ele>
        <time>2021-08-21T08:16:32.000Z</time>
      </trkpt>
      <trkpt lat="44.09294" lon="6.61802">
        <ele>1873.8000488281</ele>
        <time>2021-08-21T08:16:35.000Z</time>
      </trkpt>
      <trkpt lat="44.09309" lon="6.618">
        <ele>1874.5999755859</ele>
        <time>2021-08-21T08:16:42.000Z</time>
      </trkpt>
      <trkpt lat="44.09311" lon="6.618">
        <ele>1875</ele>
        <time>2021-08-21T08:16:43.000Z</time>
      </trkpt>
      <trkpt lat="44.09322" lon="6.61799">
        <ele>1876.1999511719</ele>
        <time>2021-08-21T08:16:49.000Z</time>
      </trkpt>
      <trkpt lat="44.09327" lon="6.61799">
        <ele>1876.8000488281</ele>
        <time>2021-08-21T08:16:52.000Z</time>
      </trkpt>
      <trkpt lat="44.09328" lon="6.61799">
        <ele>1877.1999511719</ele>
        <time>2021-08-21T08:16:53.000Z</time>
      </trkpt>
      <trkpt lat="44.09335" lon="6.61801">
        <ele>1878.4000244141</ele>
        <time>2021-08-21T08:16:58.000Z</time>
      </trkpt>
      <trkpt lat="44.09337" lon="6.61801">
        <ele>1879</ele>
        <time>2021-08-21T08:17:00.000Z</time>
      </trkpt>
      <trkpt lat="44.09341" lon="6.618">
        <ele>1879.5999755859</ele>
        <time>2021-08-21T08:17:03.000Z</time>
      </trkpt>
      <trkpt lat="44.09346" lon="6.61799">
        <ele>1880</ele>
        <time>2021-08-21T08:17:06.000Z</time>
      </trkpt>
      <trkpt lat="44.0935" lon="6.61801">
        <ele>1880.5999755859</ele>
        <time>2021-08-21T08:17:11.000Z</time>
      </trkpt>
      <trkpt lat="44.0935" lon="6.618">
        <ele>1880.8000488281</ele>
        <time>2021-08-21T08:17:12.000Z</time>
      </trkpt>
      <trkpt lat="44.09354" lon="6.61802">
        <ele>1881.4000244141</ele>
        <time>2021-08-21T08:17:17.000Z</time>
      </trkpt>
      <trkpt lat="44.09354" lon="6.61802">
        <ele>1881.5999755859</ele>
        <time>2021-08-21T08:17:18.000Z</time>
      </trkpt>
      <trkpt lat="44.09357" lon="6.61803">
        <ele>1882.5999755859</ele>
        <time>2021-08-21T08:17:24.000Z</time>
      </trkpt>
      <trkpt lat="44.09358" lon="6.61803">
        <ele>1882.5999755859</ele>
        <time>2021-08-21T08:17:25.000Z</time>
      </trkpt>
      <trkpt lat="44.09359" lon="6.61803">
        <ele>1883.4000244141</ele>
        <time>2021-08-21T08:17:30.000Z</time>
      </trkpt>
      <trkpt lat="44.09361" lon="6.61804">
        <ele>1883.5999755859</ele>
        <time>2021-08-21T08:17:36.000Z</time>
      </trkpt>
      <trkpt lat="44.09362" lon="6.61804">
        <ele>1883.4000244141</ele>
        <time>2021-08-21T08:17:39.000Z</time>
      </trkpt>
      <trkpt lat="44.09367" lon="6.61806">
        <ele>1884.4000244141</ele>
        <time>2021-08-21T08:17:45.000Z</time>
      </trkpt>
      <trkpt lat="44.09368" lon="6.61806">
        <ele>1884.8000488281</ele>
        <time>2021-08-21T08:17:46.000Z</time>
      </trkpt>
      <trkpt lat="44.09372" lon="6.61809">
        <ele>1886</ele>
        <time>2021-08-21T08:17:50.000Z</time>
      </trkpt>
      <trkpt lat="44.09375" lon="6.61811">
        <ele>1886.8000488281</ele>
        <time>2021-08-21T08:17:53.000Z</time>
      </trkpt>
      <trkpt lat="44.09376" lon="6.61811">
        <ele>1887</ele>
        <time>2021-08-21T08:17:54.000Z</time>
      </trkpt>
      <trkpt lat="44.0938" lon="6.61812">
        <ele>1888</ele>
        <time>2021-08-21T08:17:58.000Z</time>
      </trkpt>
      <trkpt lat="44.09382" lon="6.61812">
        <ele>1888.5999755859</ele>
        <time>2021-08-21T08:18:00.000Z</time>
      </trkpt>
      <trkpt lat="44.09384" lon="6.61813">
        <ele>1889.1999511719</ele>
        <time>2021-08-21T08:18:04.000Z</time>
      </trkpt>
      <trkpt lat="44.09386" lon="6.61813">
        <ele>1889.8000488281</ele>
        <time>2021-08-21T08:18:06.000Z</time>
      </trkpt>
      <trkpt lat="44.09388" lon="6.61813">
        <ele>1890.4000244141</ele>
        <time>2021-08-21T08:18:08.000Z</time>
      </trkpt>
      <trkpt lat="44.09393" lon="6.61814">
        <ele>1891</ele>
        <time>2021-08-21T08:18:12.000Z</time>
      </trkpt>
      <trkpt lat="44.09397" lon="6.61815">
        <ele>1891.4000244141</ele>
        <time>2021-08-21T08:18:15.000Z</time>
      </trkpt>
      <trkpt lat="44.09405" lon="6.61815">
        <ele>1892</ele>
        <time>2021-08-21T08:18:21.000Z</time>
      </trkpt>
      <trkpt lat="44.09412" lon="6.61815">
        <ele>1892.4000244141</ele>
        <time>2021-08-21T08:18:25.000Z</time>
      </trkpt>
      <trkpt lat="44.09417" lon="6.61816">
        <ele>1893</ele>
        <time>2021-08-21T08:18:28.000Z</time>
      </trkpt>
      <trkpt lat="44.09422" lon="6.61817">
        <ele>1893.4000244141</ele>
        <time>2021-08-21T08:18:31.000Z</time>
      </trkpt>
      <trkpt lat="44.09431" lon="6.61817">
        <ele>1894.5999755859</ele>
        <time>2021-08-21T08:18:38.000Z</time>
      </trkpt>
      <trkpt lat="44.09432" lon="6.61817">
        <ele>1894.5999755859</ele>
        <time>2021-08-21T08:18:39.000Z</time>
      </trkpt>
      <trkpt lat="44.09436" lon="6.61818">
        <ele>1895.5999755859</ele>
        <time>2021-08-21T08:18:42.000Z</time>
      </trkpt>
      <trkpt lat="44.09441" lon="6.6182">
        <ele>1896.5999755859</ele>
        <time>2021-08-21T08:18:46.000Z</time>
      </trkpt>
      <trkpt lat="44.09442" lon="6.6182">
        <ele>1897</ele>
        <time>2021-08-21T08:18:47.000Z</time>
      </trkpt>
      <trkpt lat="44.09446" lon="6.61823">
        <ele>1897.5999755859</ele>
        <time>2021-08-21T08:18:50.000Z</time>
      </trkpt>
      <trkpt lat="44.09449" lon="6.61824">
        <ele>1898.4000244141</ele>
        <time>2021-08-21T08:18:53.000Z</time>
      </trkpt>
      <trkpt lat="44.0945" lon="6.61825">
        <ele>1898.5999755859</ele>
        <time>2021-08-21T08:18:54.000Z</time>
      </trkpt>
      <trkpt lat="44.09453" lon="6.61826">
        <ele>1899.8000488281</ele>
        <time>2021-08-21T08:18:58.000Z</time>
      </trkpt>
      <trkpt lat="44.09455" lon="6.61827">
        <ele>1900.1999511719</ele>
        <time>2021-08-21T08:19:00.000Z</time>
      </trkpt>
      <trkpt lat="44.09456" lon="6.61828">
        <ele>1900.8000488281</ele>
        <time>2021-08-21T08:19:02.000Z</time>
      </trkpt>
      <trkpt lat="44.0946" lon="6.61829">
        <ele>1901.8000488281</ele>
        <time>2021-08-21T08:19:06.000Z</time>
      </trkpt>
      <trkpt lat="44.09464" lon="6.61832">
        <ele>1902.5999755859</ele>
        <time>2021-08-21T08:19:10.000Z</time>
      </trkpt>
      <trkpt lat="44.09467" lon="6.61835">
        <ele>1903</ele>
        <time>2021-08-21T08:19:13.000Z</time>
      </trkpt>
      <trkpt lat="44.09467" lon="6.61839">
        <ele>1903.5999755859</ele>
        <time>2021-08-21T08:19:16.000Z</time>
      </trkpt>
      <trkpt lat="44.09467" lon="6.6184">
        <ele>1904</ele>
        <time>2021-08-21T08:19:17.000Z</time>
      </trkpt>
      <trkpt lat="44.09465" lon="6.61843">
        <ele>1904.8000488281</ele>
        <time>2021-08-21T08:19:20.000Z</time>
      </trkpt>
      <trkpt lat="44.09465" lon="6.61844">
        <ele>1905</ele>
        <time>2021-08-21T08:19:21.000Z</time>
      </trkpt>
      <trkpt lat="44.09462" lon="6.61847">
        <ele>1905.5999755859</ele>
        <time>2021-08-21T08:19:25.000Z</time>
      </trkpt>
      <trkpt lat="44.09459" lon="6.61848">
        <ele>1906</ele>
        <time>2021-08-21T08:19:29.000Z</time>
      </trkpt>
      <trkpt lat="44.09457" lon="6.6185">
        <ele>1906.4000244141</ele>
        <time>2021-08-21T08:19:32.000Z</time>
      </trkpt>
      <trkpt lat="44.09453" lon="6.61854">
        <ele>1907.1999511719</ele>
        <time>2021-08-21T08:19:39.000Z</time>
      </trkpt>
      <trkpt lat="44.09447" lon="6.61859">
        <ele>1908.1999511719</ele>
        <time>2021-08-21T08:19:47.000Z</time>
      </trkpt>
      <trkpt lat="44.09434" lon="6.61865">
        <ele>1909</ele>
        <time>2021-08-21T08:19:56.000Z</time>
      </trkpt>
      <trkpt lat="44.09431" lon="6.61867">
        <ele>1909.4000244141</ele>
        <time>2021-08-21T08:19:58.000Z</time>
      </trkpt>
      <trkpt lat="44.09428" lon="6.61871">
        <ele>1910</ele>
        <time>2021-08-21T08:20:02.000Z</time>
      </trkpt>
      <trkpt lat="44.09427" lon="6.61872">
        <ele>1910.4000244141</ele>
        <time>2021-08-21T08:20:04.000Z</time>
      </trkpt>
      <trkpt lat="44.09423" lon="6.61877">
        <ele>1911.1999511719</ele>
        <time>2021-08-21T08:20:10.000Z</time>
      </trkpt>
      <trkpt lat="44.0942" lon="6.61879">
        <ele>1911.4000244141</ele>
        <time>2021-08-21T08:20:12.000Z</time>
      </trkpt>
      <trkpt lat="44.09414" lon="6.61884">
        <ele>1912.1999511719</ele>
        <time>2021-08-21T08:20:18.000Z</time>
      </trkpt>
      <trkpt lat="44.09413" lon="6.61885">
        <ele>1912.4000244141</ele>
        <time>2021-08-21T08:20:19.000Z</time>
      </trkpt>
      <trkpt lat="44.09405" lon="6.6189">
        <ele>1913.5999755859</ele>
        <time>2021-08-21T08:20:27.000Z</time>
      </trkpt>
      <trkpt lat="44.09398" lon="6.61894">
        <ele>1914.5999755859</ele>
        <time>2021-08-21T08:20:33.000Z</time>
      </trkpt>
      <trkpt lat="44.09395" lon="6.61896">
        <ele>1915</ele>
        <time>2021-08-21T08:20:36.000Z</time>
      </trkpt>
      <trkpt lat="44.09389" lon="6.61898">
        <ele>1915.5999755859</ele>
        <time>2021-08-21T08:20:41.000Z</time>
      </trkpt>
      <trkpt lat="44.09386" lon="6.61899">
        <ele>1916</ele>
        <time>2021-08-21T08:20:44.000Z</time>
      </trkpt>
      <trkpt lat="44.09381" lon="6.619">
        <ele>1916.8000488281</ele>
        <time>2021-08-21T08:20:48.000Z</time>
      </trkpt>
      <trkpt lat="44.09377" lon="6.61902">
        <ele>1917.4000244141</ele>
        <time>2021-08-21T08:20:52.000Z</time>
      </trkpt>
      <trkpt lat="44.09372" lon="6.61904">
        <ele>1917.8000488281</ele>
        <time>2021-08-21T08:20:56.000Z</time>
      </trkpt>
      <trkpt lat="44.09365" lon="6.61907">
        <ele>1918.5999755859</ele>
        <time>2021-08-21T08:21:02.000Z</time>
      </trkpt>
      <trkpt lat="44.09363" lon="6.61908">
        <ele>1918.8000488281</ele>
        <time>2021-08-21T08:21:04.000Z</time>
      </trkpt>
      <trkpt lat="44.09356" lon="6.6191">
        <ele>1919.8000488281</ele>
        <time>2021-08-21T08:21:10.000Z</time>
      </trkpt>
      <trkpt lat="44.09346" lon="6.61914">
        <ele>1921</ele>
        <time>2021-08-21T08:21:18.000Z</time>
      </trkpt>
      <trkpt lat="44.09343" lon="6.61915">
        <ele>1921.4000244141</ele>
        <time>2021-08-21T08:21:21.000Z</time>
      </trkpt>
      <trkpt lat="44.09339" lon="6.61917">
        <ele>1922</ele>
        <time>2021-08-21T08:21:25.000Z</time>
      </trkpt>
      <trkpt lat="44.09337" lon="6.61918">
        <ele>1922.4000244141</ele>
        <time>2021-08-21T08:21:27.000Z</time>
      </trkpt>
      <trkpt lat="44.09331" lon="6.61921">
        <ele>1923.1999511719</ele>
        <time>2021-08-21T08:21:32.000Z</time>
      </trkpt>
      <trkpt lat="44.09327" lon="6.61924">
        <ele>1923.8000488281</ele>
        <time>2021-08-21T08:21:36.000Z</time>
      </trkpt>
      <trkpt lat="44.09324" lon="6.61926">
        <ele>1924.1999511719</ele>
        <time>2021-08-21T08:21:39.000Z</time>
      </trkpt>
      <trkpt lat="44.09319" lon="6.6193">
        <ele>1925</ele>
        <time>2021-08-21T08:21:44.000Z</time>
      </trkpt>
      <trkpt lat="44.09318" lon="6.6193">
        <ele>1925</ele>
        <time>2021-08-21T08:21:45.000Z</time>
      </trkpt>
      <trkpt lat="44.09317" lon="6.61931">
        <ele>1925.1999511719</ele>
        <time>2021-08-21T08:21:46.000Z</time>
      </trkpt>
      <trkpt lat="44.09313" lon="6.61932">
        <ele>1926</ele>
        <time>2021-08-21T08:21:50.000Z</time>
      </trkpt>
      <trkpt lat="44.0931" lon="6.61932">
        <ele>1926.4000244141</ele>
        <time>2021-08-21T08:21:52.000Z</time>
      </trkpt>
      <trkpt lat="44.09303" lon="6.61934">
        <ele>1927.5999755859</ele>
        <time>2021-08-21T08:21:58.000Z</time>
      </trkpt>
      <trkpt lat="44.09296" lon="6.61935">
        <ele>1928.5999755859</ele>
        <time>2021-08-21T08:22:04.000Z</time>
      </trkpt>
      <trkpt lat="44.0929" lon="6.61938">
        <ele>1929.4000244141</ele>
        <time>2021-08-21T08:22:09.000Z</time>
      </trkpt>
      <trkpt lat="44.09288" lon="6.61939">
        <ele>1929.8000488281</ele>
        <time>2021-08-21T08:22:11.000Z</time>
      </trkpt>
      <trkpt lat="44.09282" lon="6.61942">
        <ele>1930.8000488281</ele>
        <time>2021-08-21T08:22:17.000Z</time>
      </trkpt>
      <trkpt lat="44.0928" lon="6.61943">
        <ele>1931.1999511719</ele>
        <time>2021-08-21T08:22:19.000Z</time>
      </trkpt>
      <trkpt lat="44.09276" lon="6.61944">
        <ele>1932</ele>
        <time>2021-08-21T08:22:22.000Z</time>
      </trkpt>
      <trkpt lat="44.09271" lon="6.61947">
        <ele>1933</ele>
        <time>2021-08-21T08:22:28.000Z</time>
      </trkpt>
      <trkpt lat="44.09266" lon="6.6195">
        <ele>1934</ele>
        <time>2021-08-21T08:22:33.000Z</time>
      </trkpt>
      <trkpt lat="44.09264" lon="6.61952">
        <ele>1934.5999755859</ele>
        <time>2021-08-21T08:22:35.000Z</time>
      </trkpt>
      <trkpt lat="44.09262" lon="6.61953">
        <ele>1935</ele>
        <time>2021-08-21T08:22:37.000Z</time>
      </trkpt>
      <trkpt lat="44.09262" lon="6.61954">
        <ele>1935.1999511719</ele>
        <time>2021-08-21T08:22:38.000Z</time>
      </trkpt>
      <trkpt lat="44.09258" lon="6.61957">
        <ele>1935.8000488281</ele>
        <time>2021-08-21T08:22:42.000Z</time>
      </trkpt>
      <trkpt lat="44.09257" lon="6.61959">
        <ele>1936.1999511719</ele>
        <time>2021-08-21T08:22:44.000Z</time>
      </trkpt>
      <trkpt lat="44.09256" lon="6.6196">
        <ele>1936.4000244141</ele>
        <time>2021-08-21T08:22:46.000Z</time>
      </trkpt>
      <trkpt lat="44.09255" lon="6.61962">
        <ele>1937</ele>
        <time>2021-08-21T08:22:49.000Z</time>
      </trkpt>
      <trkpt lat="44.09254" lon="6.61963">
        <ele>1937.1999511719</ele>
        <time>2021-08-21T08:22:50.000Z</time>
      </trkpt>
      <trkpt lat="44.09253" lon="6.61964">
        <ele>1937.4000244141</ele>
        <time>2021-08-21T08:22:51.000Z</time>
      </trkpt>
      <trkpt lat="44.09251" lon="6.61967">
        <ele>1938.4000244141</ele>
        <time>2021-08-21T08:22:55.000Z</time>
      </trkpt>
      <trkpt lat="44.0925" lon="6.61968">
        <ele>1938.4000244141</ele>
        <time>2021-08-21T08:22:56.000Z</time>
      </trkpt>
      <trkpt lat="44.09246" lon="6.61973">
        <ele>1939.4000244141</ele>
        <time>2021-08-21T08:23:02.000Z</time>
      </trkpt>
      <trkpt lat="44.09245" lon="6.61975">
        <ele>1939.5999755859</ele>
        <time>2021-08-21T08:23:04.000Z</time>
      </trkpt>
      <trkpt lat="44.09242" lon="6.61979">
        <ele>1940.4000244141</ele>
        <time>2021-08-21T08:23:09.000Z</time>
      </trkpt>
      <trkpt lat="44.09241" lon="6.6198">
        <ele>1940.5999755859</ele>
        <time>2021-08-21T08:23:10.000Z</time>
      </trkpt>
      <trkpt lat="44.09239" lon="6.61983">
        <ele>1941.1999511719</ele>
        <time>2021-08-21T08:23:13.000Z</time>
      </trkpt>
      <trkpt lat="44.09237" lon="6.61985">
        <ele>1941.5999755859</ele>
        <time>2021-08-21T08:23:16.000Z</time>
      </trkpt>
      <trkpt lat="44.09236" lon="6.61986">
        <ele>1941.8000488281</ele>
        <time>2021-08-21T08:23:18.000Z</time>
      </trkpt>
      <trkpt lat="44.09231" lon="6.61993">
        <ele>1942.8000488281</ele>
        <time>2021-08-21T08:23:25.000Z</time>
      </trkpt>
      <trkpt lat="44.09227" lon="6.61998">
        <ele>1943.8000488281</ele>
        <time>2021-08-21T08:23:31.000Z</time>
      </trkpt>
      <trkpt lat="44.09226" lon="6.61999">
        <ele>1943.8000488281</ele>
        <time>2021-08-21T08:23:32.000Z</time>
      </trkpt>
      <trkpt lat="44.09219" lon="6.62008">
        <ele>1944.8000488281</ele>
        <time>2021-08-21T08:23:39.000Z</time>
      </trkpt>
      <trkpt lat="44.09218" lon="6.62009">
        <ele>1944.8000488281</ele>
        <time>2021-08-21T08:23:40.000Z</time>
      </trkpt>
      <trkpt lat="44.09213" lon="6.62015">
        <ele>1945.8000488281</ele>
        <time>2021-08-21T08:23:45.000Z</time>
      </trkpt>
      <trkpt lat="44.09213" lon="6.62017">
        <ele>1946</ele>
        <time>2021-08-21T08:23:46.000Z</time>
      </trkpt>
      <trkpt lat="44.09209" lon="6.62025">
        <ele>1946.8000488281</ele>
        <time>2021-08-21T08:23:52.000Z</time>
      </trkpt>
      <trkpt lat="44.09207" lon="6.62029">
        <ele>1947</ele>
        <time>2021-08-21T08:23:55.000Z</time>
      </trkpt>
      <trkpt lat="44.09204" lon="6.62034">
        <ele>1947.1999511719</ele>
        <time>2021-08-21T08:23:58.000Z</time>
      </trkpt>
      <trkpt lat="44.092" lon="6.62041">
        <ele>1947.8000488281</ele>
        <time>2021-08-21T08:24:03.000Z</time>
      </trkpt>
      <trkpt lat="44.092" lon="6.62042">
        <ele>1948</ele>
        <time>2021-08-21T08:24:04.000Z</time>
      </trkpt>
      <trkpt lat="44.09196" lon="6.62052">
        <ele>1948.8000488281</ele>
        <time>2021-08-21T08:24:09.000Z</time>
      </trkpt>
      <trkpt lat="44.09194" lon="6.62057">
        <ele>1949</ele>
        <time>2021-08-21T08:24:12.000Z</time>
      </trkpt>
      <trkpt lat="44.09192" lon="6.62061">
        <ele>1949.4000244141</ele>
        <time>2021-08-21T08:24:14.000Z</time>
      </trkpt>
      <trkpt lat="44.0919" lon="6.62064">
        <ele>1949.5999755859</ele>
        <time>2021-08-21T08:24:16.000Z</time>
      </trkpt>
      <trkpt lat="44.09189" lon="6.62067">
        <ele>1950</ele>
        <time>2021-08-21T08:24:18.000Z</time>
      </trkpt>
      <trkpt lat="44.09188" lon="6.62069">
        <ele>1950</ele>
        <time>2021-08-21T08:24:19.000Z</time>
      </trkpt>
      <trkpt lat="44.09186" lon="6.62074">
        <ele>1950.8000488281</ele>
        <time>2021-08-21T08:24:23.000Z</time>
      </trkpt>
      <trkpt lat="44.09184" lon="6.62077">
        <ele>1951.1999511719</ele>
        <time>2021-08-21T08:24:26.000Z</time>
      </trkpt>
      <trkpt lat="44.09184" lon="6.62079">
        <ele>1951.4000244141</ele>
        <time>2021-08-21T08:24:27.000Z</time>
      </trkpt>
      <trkpt lat="44.09183" lon="6.62082">
        <ele>1951.8000488281</ele>
        <time>2021-08-21T08:24:29.000Z</time>
      </trkpt>
      <trkpt lat="44.09181" lon="6.62086">
        <ele>1952.1999511719</ele>
        <time>2021-08-21T08:24:33.000Z</time>
      </trkpt>
      <trkpt lat="44.0918" lon="6.6209">
        <ele>1952.5999755859</ele>
        <time>2021-08-21T08:24:36.000Z</time>
      </trkpt>
      <trkpt lat="44.09179" lon="6.62092">
        <ele>1952.8000488281</ele>
        <time>2021-08-21T08:24:37.000Z</time>
      </trkpt>
      <trkpt lat="44.09177" lon="6.62098">
        <ele>1953.1999511719</ele>
        <time>2021-08-21T08:24:41.000Z</time>
      </trkpt>
      <trkpt lat="44.09176" lon="6.621">
        <ele>1953.4000244141</ele>
        <time>2021-08-21T08:24:42.000Z</time>
      </trkpt>
      <trkpt lat="44.09176" lon="6.62101">
        <ele>1953.5999755859</ele>
        <time>2021-08-21T08:24:43.000Z</time>
      </trkpt>
      <trkpt lat="44.09174" lon="6.62107">
        <ele>1954.4000244141</ele>
        <time>2021-08-21T08:24:47.000Z</time>
      </trkpt>
      <trkpt lat="44.09173" lon="6.62109">
        <ele>1954.5999755859</ele>
        <time>2021-08-21T08:24:48.000Z</time>
      </trkpt>
      <trkpt lat="44.09172" lon="6.62113">
        <ele>1955</ele>
        <time>2021-08-21T08:24:51.000Z</time>
      </trkpt>
      <trkpt lat="44.09171" lon="6.62116">
        <ele>1955.1999511719</ele>
        <time>2021-08-21T08:24:53.000Z</time>
      </trkpt>
      <trkpt lat="44.09171" lon="6.62118">
        <ele>1955.4000244141</ele>
        <time>2021-08-21T08:24:54.000Z</time>
      </trkpt>
      <trkpt lat="44.09171" lon="6.62128">
        <ele>1956.4000244141</ele>
        <time>2021-08-21T08:25:00.000Z</time>
      </trkpt>
      <trkpt lat="44.09171" lon="6.6213">
        <ele>1956.5999755859</ele>
        <time>2021-08-21T08:25:01.000Z</time>
      </trkpt>
      <trkpt lat="44.09173" lon="6.62141">
        <ele>1957.1999511719</ele>
        <time>2021-08-21T08:25:07.000Z</time>
      </trkpt>
      <trkpt lat="44.09174" lon="6.62146">
        <ele>1957.4000244141</ele>
        <time>2021-08-21T08:25:09.000Z</time>
      </trkpt>
      <trkpt lat="44.09175" lon="6.62151">
        <ele>1957.8000488281</ele>
        <time>2021-08-21T08:25:12.000Z</time>
      </trkpt>
      <trkpt lat="44.09176" lon="6.62157">
        <ele>1958.4000244141</ele>
        <time>2021-08-21T08:25:15.000Z</time>
      </trkpt>
      <trkpt lat="44.09176" lon="6.62159">
        <ele>1958.8000488281</ele>
        <time>2021-08-21T08:25:16.000Z</time>
      </trkpt>
      <trkpt lat="44.09176" lon="6.62163">
        <ele>1959.1999511719</ele>
        <time>2021-08-21T08:25:18.000Z</time>
      </trkpt>
      <trkpt lat="44.09177" lon="6.6217">
        <ele>1959.5999755859</ele>
        <time>2021-08-21T08:25:21.000Z</time>
      </trkpt>
      <trkpt lat="44.09177" lon="6.62173">
        <ele>1959.8000488281</ele>
        <time>2021-08-21T08:25:23.000Z</time>
      </trkpt>
      <trkpt lat="44.09179" lon="6.6219">
        <ele>1960.8000488281</ele>
        <time>2021-08-21T08:25:30.000Z</time>
      </trkpt>
      <trkpt lat="44.0918" lon="6.62193">
        <ele>1961.1999511719</ele>
        <time>2021-08-21T08:25:32.000Z</time>
      </trkpt>
      <trkpt lat="44.0918" lon="6.62196">
        <ele>1961.8000488281</ele>
        <time>2021-08-21T08:25:34.000Z</time>
      </trkpt>
      <trkpt lat="44.0918" lon="6.62198">
        <ele>1962</ele>
        <time>2021-08-21T08:25:35.000Z</time>
      </trkpt>
      <trkpt lat="44.09182" lon="6.62205">
        <ele>1962.8000488281</ele>
        <time>2021-08-21T08:25:40.000Z</time>
      </trkpt>
      <trkpt lat="44.09182" lon="6.62207">
        <ele>1963</ele>
        <time>2021-08-21T08:25:41.000Z</time>
      </trkpt>
      <trkpt lat="44.09184" lon="6.62216">
        <ele>1963.4000244141</ele>
        <time>2021-08-21T08:25:46.000Z</time>
      </trkpt>
      <trkpt lat="44.09184" lon="6.62218">
        <ele>1963.5999755859</ele>
        <time>2021-08-21T08:25:47.000Z</time>
      </trkpt>
      <trkpt lat="44.09185" lon="6.62221">
        <ele>1964</ele>
        <time>2021-08-21T08:25:49.000Z</time>
      </trkpt>
      <trkpt lat="44.09186" lon="6.62224">
        <ele>1964.4000244141</ele>
        <time>2021-08-21T08:25:51.000Z</time>
      </trkpt>
      <trkpt lat="44.09188" lon="6.62234">
        <ele>1965</ele>
        <time>2021-08-21T08:25:56.000Z</time>
      </trkpt>
      <trkpt lat="44.09191" lon="6.62241">
        <ele>1965.5999755859</ele>
        <time>2021-08-21T08:26:00.000Z</time>
      </trkpt>
      <trkpt lat="44.09191" lon="6.62243">
        <ele>1965.5999755859</ele>
        <time>2021-08-21T08:26:01.000Z</time>
      </trkpt>
      <trkpt lat="44.09192" lon="6.62244">
        <ele>1965.8000488281</ele>
        <time>2021-08-21T08:26:02.000Z</time>
      </trkpt>
      <trkpt lat="44.09193" lon="6.6225">
        <ele>1966</ele>
        <time>2021-08-21T08:26:05.000Z</time>
      </trkpt>
      <trkpt lat="44.09194" lon="6.62253">
        <ele>1966.1999511719</ele>
        <time>2021-08-21T08:26:07.000Z</time>
      </trkpt>
      <trkpt lat="44.09196" lon="6.62258">
        <ele>1966.4000244141</ele>
        <time>2021-08-21T08:26:10.000Z</time>
      </trkpt>
      <trkpt lat="44.09197" lon="6.6226">
        <ele>1966.4000244141</ele>
        <time>2021-08-21T08:26:11.000Z</time>
      </trkpt>
      <trkpt lat="44.09197" lon="6.62261">
        <ele>1966.4000244141</ele>
        <time>2021-08-21T08:26:12.000Z</time>
      </trkpt>
      <trkpt lat="44.09199" lon="6.62271">
        <ele>1966.8000488281</ele>
        <time>2021-08-21T08:26:16.000Z</time>
      </trkpt>
      <trkpt lat="44.09199" lon="6.62273">
        <ele>1966.8000488281</ele>
        <time>2021-08-21T08:26:17.000Z</time>
      </trkpt>
      <trkpt lat="44.092" lon="6.62276">
        <ele>1967</ele>
        <time>2021-08-21T08:26:19.000Z</time>
      </trkpt>
      <trkpt lat="44.09202" lon="6.62282">
        <ele>1967.5999755859</ele>
        <time>2021-08-21T08:26:22.000Z</time>
      </trkpt>
      <trkpt lat="44.09203" lon="6.62285">
        <ele>1967.5999755859</ele>
        <time>2021-08-21T08:26:23.000Z</time>
      </trkpt>
      <trkpt lat="44.09205" lon="6.62291">
        <ele>1968.1999511719</ele>
        <time>2021-08-21T08:26:26.000Z</time>
      </trkpt>
      <trkpt lat="44.09206" lon="6.62297">
        <ele>1968.8000488281</ele>
        <time>2021-08-21T08:26:29.000Z</time>
      </trkpt>
      <trkpt lat="44.09209" lon="6.62304">
        <ele>1969.4000244141</ele>
        <time>2021-08-21T08:26:33.000Z</time>
      </trkpt>
      <trkpt lat="44.09209" lon="6.62306">
        <ele>1969.5999755859</ele>
        <time>2021-08-21T08:26:34.000Z</time>
      </trkpt>
      <trkpt lat="44.09211" lon="6.62317">
        <ele>1970.4000244141</ele>
        <time>2021-08-21T08:26:40.000Z</time>
      </trkpt>
      <trkpt lat="44.09216" lon="6.62331">
        <ele>1971.4000244141</ele>
        <time>2021-08-21T08:26:46.000Z</time>
      </trkpt>
      <trkpt lat="44.09217" lon="6.62333">
        <ele>1971.5999755859</ele>
        <time>2021-08-21T08:26:47.000Z</time>
      </trkpt>
      <trkpt lat="44.09219" lon="6.62346">
        <ele>1972.4000244141</ele>
        <time>2021-08-21T08:26:52.000Z</time>
      </trkpt>
      <trkpt lat="44.0922" lon="6.62348">
        <ele>1972.5999755859</ele>
        <time>2021-08-21T08:26:53.000Z</time>
      </trkpt>
      <trkpt lat="44.09222" lon="6.62358">
        <ele>1973.8000488281</ele>
        <time>2021-08-21T08:26:58.000Z</time>
      </trkpt>
      <trkpt lat="44.09226" lon="6.62367">
        <ele>1975</ele>
        <time>2021-08-21T08:27:03.000Z</time>
      </trkpt>
      <trkpt lat="44.09226" lon="6.62369">
        <ele>1975.1999511719</ele>
        <time>2021-08-21T08:27:04.000Z</time>
      </trkpt>
      <trkpt lat="44.09231" lon="6.62376">
        <ele>1976</ele>
        <time>2021-08-21T08:27:09.000Z</time>
      </trkpt>
      <trkpt lat="44.09231" lon="6.62376">
        <ele>1976</ele>
        <time>2021-08-21T08:27:10.000Z</time>
      </trkpt>
      <trkpt lat="44.09232" lon="6.6238">
        <ele>1977</ele>
        <time>2021-08-21T08:27:15.000Z</time>
      </trkpt>
      <trkpt lat="44.09233" lon="6.62382">
        <ele>1977</ele>
        <time>2021-08-21T08:27:17.000Z</time>
      </trkpt>
      <trkpt lat="44.09237" lon="6.6239">
        <ele>1977.8000488281</ele>
        <time>2021-08-21T08:27:24.000Z</time>
      </trkpt>
      <trkpt lat="44.09237" lon="6.62391">
        <ele>1978</ele>
        <time>2021-08-21T08:27:25.000Z</time>
      </trkpt>
      <trkpt lat="44.09237" lon="6.62391">
        <ele>1978</ele>
        <time>2021-08-21T08:27:26.000Z</time>
      </trkpt>
      <trkpt lat="44.09236" lon="6.62393">
        <ele>1978</ele>
        <time>2021-08-21T08:27:29.000Z</time>
      </trkpt>
      <trkpt lat="44.09238" lon="6.62395">
        <ele>1978.4000244141</ele>
        <time>2021-08-21T08:27:33.000Z</time>
      </trkpt>
      <trkpt lat="44.09238" lon="6.62396">
        <ele>1978.4000244141</ele>
        <time>2021-08-21T08:27:34.000Z</time>
      </trkpt>
      <trkpt lat="44.09239" lon="6.62399">
        <ele>1978.5999755859</ele>
        <time>2021-08-21T08:27:38.000Z</time>
      </trkpt>
      <trkpt lat="44.0924" lon="6.624">
        <ele>1978.5999755859</ele>
        <time>2021-08-21T08:27:39.000Z</time>
      </trkpt>
      <trkpt lat="44.09243" lon="6.62405">
        <ele>1979</ele>
        <time>2021-08-21T08:27:42.000Z</time>
      </trkpt>
      <trkpt lat="44.09247" lon="6.62413">
        <ele>1980</ele>
        <time>2021-08-21T08:27:47.000Z</time>
      </trkpt>
      <trkpt lat="44.09248" lon="6.62415">
        <ele>1980</ele>
        <time>2021-08-21T08:27:48.000Z</time>
      </trkpt>
      <trkpt lat="44.09252" lon="6.62422">
        <ele>1981.4000244141</ele>
        <time>2021-08-21T08:27:53.000Z</time>
      </trkpt>
      <trkpt lat="44.09253" lon="6.62423">
        <ele>1981.5999755859</ele>
        <time>2021-08-21T08:27:54.000Z</time>
      </trkpt>
      <trkpt lat="44.0926" lon="6.6243">
        <ele>1982.4000244141</ele>
        <time>2021-08-21T08:28:00.000Z</time>
      </trkpt>
      <trkpt lat="44.09261" lon="6.62432">
        <ele>1982.4000244141</ele>
        <time>2021-08-21T08:28:01.000Z</time>
      </trkpt>
      <trkpt lat="44.09267" lon="6.62443">
        <ele>1983.1999511719</ele>
        <time>2021-08-21T08:28:07.000Z</time>
      </trkpt>
      <trkpt lat="44.09268" lon="6.62446">
        <ele>1983.5999755859</ele>
        <time>2021-08-21T08:28:09.000Z</time>
      </trkpt>
      <trkpt lat="44.09268" lon="6.62449">
        <ele>1985</ele>
        <time>2021-08-21T08:28:12.000Z</time>
      </trkpt>
      <trkpt lat="44.09269" lon="6.62454">
        <ele>1986.1999511719</ele>
        <time>2021-08-21T08:28:16.000Z</time>
      </trkpt>
      <trkpt lat="44.09269" lon="6.62455">
        <ele>1986.4000244141</ele>
        <time>2021-08-21T08:28:17.000Z</time>
      </trkpt>
      <trkpt lat="44.09269" lon="6.6246">
        <ele>1987.4000244141</ele>
        <time>2021-08-21T08:28:21.000Z</time>
      </trkpt>
      <trkpt lat="44.09269" lon="6.62469">
        <ele>1988.4000244141</ele>
        <time>2021-08-21T08:28:27.000Z</time>
      </trkpt>
      <trkpt lat="44.09269" lon="6.62479">
        <ele>1989.4000244141</ele>
        <time>2021-08-21T08:28:33.000Z</time>
      </trkpt>
      <trkpt lat="44.09268" lon="6.62483">
        <ele>1989.8000488281</ele>
        <time>2021-08-21T08:28:36.000Z</time>
      </trkpt>
      <trkpt lat="44.09266" lon="6.6249">
        <ele>1990.5999755859</ele>
        <time>2021-08-21T08:28:42.000Z</time>
      </trkpt>
      <trkpt lat="44.09265" lon="6.62492">
        <ele>1991</ele>
        <time>2021-08-21T08:28:44.000Z</time>
      </trkpt>
      <trkpt lat="44.09264" lon="6.62499">
        <ele>1991.5999755859</ele>
        <time>2021-08-21T08:28:49.000Z</time>
      </trkpt>
      <trkpt lat="44.09263" lon="6.62503">
        <ele>1991.8000488281</ele>
        <time>2021-08-21T08:28:51.000Z</time>
      </trkpt>
      <trkpt lat="44.09252" lon="6.62516">
        <ele>1992</ele>
        <time>2021-08-21T08:28:58.000Z</time>
      </trkpt>
      <trkpt lat="44.09231" lon="6.62533">
        <ele>1991.5999755859</ele>
        <time>2021-08-21T08:29:04.000Z</time>
      </trkpt>
      <trkpt lat="44.09215" lon="6.62548">
        <ele>1990.8000488281</ele>
        <time>2021-08-21T08:29:08.000Z</time>
      </trkpt>
      <trkpt lat="44.0921" lon="6.62551">
        <ele>1990.4000244141</ele>
        <time>2021-08-21T08:29:09.000Z</time>
      </trkpt>
      <trkpt lat="44.09197" lon="6.62563">
        <ele>1989.8000488281</ele>
        <time>2021-08-21T08:29:13.000Z</time>
      </trkpt>
      <trkpt lat="44.09191" lon="6.62568">
        <ele>1989.1999511719</ele>
        <time>2021-08-21T08:29:15.000Z</time>
      </trkpt>
      <trkpt lat="44.09186" lon="6.62572">
        <ele>1988.8000488281</ele>
        <time>2021-08-21T08:29:18.000Z</time>
      </trkpt>
      <trkpt lat="44.09179" lon="6.6258">
        <ele>1989</ele>
        <time>2021-08-21T08:29:22.000Z</time>
      </trkpt>
      <trkpt lat="44.09166" lon="6.62593">
        <ele>1988.8000488281</ele>
        <time>2021-08-21T08:29:27.000Z</time>
      </trkpt>
      <trkpt lat="44.09156" lon="6.62601">
        <ele>1988.5999755859</ele>
        <time>2021-08-21T08:29:33.000Z</time>
      </trkpt>
      <trkpt lat="44.09149" lon="6.62607">
        <ele>1989</ele>
        <time>2021-08-21T08:29:37.000Z</time>
      </trkpt>
      <trkpt lat="44.0914" lon="6.62615">
        <ele>1989.4000244141</ele>
        <time>2021-08-21T08:29:43.000Z</time>
      </trkpt>
      <trkpt lat="44.09138" lon="6.62617">
        <ele>1989.5999755859</ele>
        <time>2021-08-21T08:29:44.000Z</time>
      </trkpt>
      <trkpt lat="44.09135" lon="6.6262">
        <ele>1989.5999755859</ele>
        <time>2021-08-21T08:29:47.000Z</time>
      </trkpt>
      <trkpt lat="44.09133" lon="6.6262">
        <ele>1990</ele>
        <time>2021-08-21T08:29:49.000Z</time>
      </trkpt>
      <trkpt lat="44.0913" lon="6.62623">
        <ele>1990.4000244141</ele>
        <time>2021-08-21T08:29:51.000Z</time>
      </trkpt>
      <trkpt lat="44.09129" lon="6.62624">
        <ele>1990.4000244141</ele>
        <time>2021-08-21T08:29:52.000Z</time>
      </trkpt>
      <trkpt lat="44.09118" lon="6.62631">
        <ele>1991.1999511719</ele>
        <time>2021-08-21T08:29:59.000Z</time>
      </trkpt>
      <trkpt lat="44.09116" lon="6.62632">
        <ele>1991.4000244141</ele>
        <time>2021-08-21T08:30:01.000Z</time>
      </trkpt>
      <trkpt lat="44.09114" lon="6.62634">
        <ele>1991.5999755859</ele>
        <time>2021-08-21T08:30:03.000Z</time>
      </trkpt>
      <trkpt lat="44.09111" lon="6.62635">
        <ele>1992</ele>
        <time>2021-08-21T08:30:05.000Z</time>
      </trkpt>
      <trkpt lat="44.0911" lon="6.62635">
        <ele>1992.4000244141</ele>
        <time>2021-08-21T08:30:06.000Z</time>
      </trkpt>
      <trkpt lat="44.09109" lon="6.62636">
        <ele>1992.5999755859</ele>
        <time>2021-08-21T08:30:07.000Z</time>
      </trkpt>
      <trkpt lat="44.09107" lon="6.62639">
        <ele>1993.1999511719</ele>
        <time>2021-08-21T08:30:09.000Z</time>
      </trkpt>
      <trkpt lat="44.09104" lon="6.62643">
        <ele>1993.5999755859</ele>
        <time>2021-08-21T08:30:11.000Z</time>
      </trkpt>
      <trkpt lat="44.09098" lon="6.62652">
        <ele>1993.8000488281</ele>
        <time>2021-08-21T08:30:14.000Z</time>
      </trkpt>
      <trkpt lat="44.09089" lon="6.62662">
        <ele>1993.5999755859</ele>
        <time>2021-08-21T08:30:18.000Z</time>
      </trkpt>
      <trkpt lat="44.09079" lon="6.62674">
        <ele>1993.8000488281</ele>
        <time>2021-08-21T08:30:23.000Z</time>
      </trkpt>
      <trkpt lat="44.09073" lon="6.62683">
        <ele>1994.1999511719</ele>
        <time>2021-08-21T08:30:27.000Z</time>
      </trkpt>
      <trkpt lat="44.09066" lon="6.62692">
        <ele>1994.5999755859</ele>
        <time>2021-08-21T08:30:31.000Z</time>
      </trkpt>
      <trkpt lat="44.09057" lon="6.6271">
        <ele>1994.8000488281</ele>
        <time>2021-08-21T08:30:36.000Z</time>
      </trkpt>
      <trkpt lat="44.09054" lon="6.62716">
        <ele>1994.5999755859</ele>
        <time>2021-08-21T08:30:38.000Z</time>
      </trkpt>
      <trkpt lat="44.09051" lon="6.62721">
        <ele>1994.8000488281</ele>
        <time>2021-08-21T08:30:40.000Z</time>
      </trkpt>
      <trkpt lat="44.09047" lon="6.62731">
        <ele>1995.1999511719</ele>
        <time>2021-08-21T08:30:44.000Z</time>
      </trkpt>
      <trkpt lat="44.09044" lon="6.62744">
        <ele>1995.5999755859</ele>
        <time>2021-08-21T08:30:48.000Z</time>
      </trkpt>
      <trkpt lat="44.09041" lon="6.62752">
        <ele>1995.5999755859</ele>
        <time>2021-08-21T08:30:51.000Z</time>
      </trkpt>
      <trkpt lat="44.09041" lon="6.62754">
        <ele>1995.5999755859</ele>
        <time>2021-08-21T08:30:52.000Z</time>
      </trkpt>
      <trkpt lat="44.09038" lon="6.62765">
        <ele>1996.5999755859</ele>
        <time>2021-08-21T08:30:58.000Z</time>
      </trkpt>
      <trkpt lat="44.09037" lon="6.62772">
        <ele>1997</ele>
        <time>2021-08-21T08:31:01.000Z</time>
      </trkpt>
      <trkpt lat="44.09034" lon="6.62782">
        <ele>1997.1999511719</ele>
        <time>2021-08-21T08:31:04.000Z</time>
      </trkpt>
      <trkpt lat="44.09033" lon="6.62784">
        <ele>1997.4000244141</ele>
        <time>2021-08-21T08:31:05.000Z</time>
      </trkpt>
      <trkpt lat="44.09033" lon="6.62787">
        <ele>1997.5999755859</ele>
        <time>2021-08-21T08:31:06.000Z</time>
      </trkpt>
      <trkpt lat="44.09033" lon="6.62791">
        <ele>1998</ele>
        <time>2021-08-21T08:31:07.000Z</time>
      </trkpt>
      <trkpt lat="44.09032" lon="6.62804">
        <ele>1998.8000488281</ele>
        <time>2021-08-21T08:31:12.000Z</time>
      </trkpt>
      <trkpt lat="44.09031" lon="6.62818">
        <ele>1999.1999511719</ele>
        <time>2021-08-21T08:31:17.000Z</time>
      </trkpt>
      <trkpt lat="44.0903" lon="6.62832">
        <ele>1999.4000244141</ele>
        <time>2021-08-21T08:31:22.000Z</time>
      </trkpt>
      <trkpt lat="44.09029" lon="6.62841">
        <ele>1999.8000488281</ele>
        <time>2021-08-21T08:31:25.000Z</time>
      </trkpt>
      <trkpt lat="44.09028" lon="6.62844">
        <ele>2000</ele>
        <time>2021-08-21T08:31:26.000Z</time>
      </trkpt>
      <trkpt lat="44.09027" lon="6.6286">
        <ele>2000.4000244141</ele>
        <time>2021-08-21T08:31:31.000Z</time>
      </trkpt>
      <trkpt lat="44.09025" lon="6.62874">
        <ele>2001</ele>
        <time>2021-08-21T08:31:35.000Z</time>
      </trkpt>
      <trkpt lat="44.09024" lon="6.62879">
        <ele>2001.4000244141</ele>
        <time>2021-08-21T08:31:37.000Z</time>
      </trkpt>
      <trkpt lat="44.09026" lon="6.6289">
        <ele>2001.8000488281</ele>
        <time>2021-08-21T08:31:41.000Z</time>
      </trkpt>
      <trkpt lat="44.09026" lon="6.62895">
        <ele>2001.8000488281</ele>
        <time>2021-08-21T08:31:42.000Z</time>
      </trkpt>
      <trkpt lat="44.09024" lon="6.62912">
        <ele>2001.8000488281</ele>
        <time>2021-08-21T08:31:46.000Z</time>
      </trkpt>
      <trkpt lat="44.09023" lon="6.62921">
        <ele>2001.8000488281</ele>
        <time>2021-08-21T08:31:49.000Z</time>
      </trkpt>
      <trkpt lat="44.09023" lon="6.62926">
        <ele>2002</ele>
        <time>2021-08-21T08:31:51.000Z</time>
      </trkpt>
      <trkpt lat="44.09023" lon="6.62933">
        <ele>2002.4000244141</ele>
        <time>2021-08-21T08:31:53.000Z</time>
      </trkpt>
      <trkpt lat="44.09022" lon="6.62939">
        <ele>2002.5999755859</ele>
        <time>2021-08-21T08:31:55.000Z</time>
      </trkpt>
      <trkpt lat="44.09024" lon="6.62951">
        <ele>2003.1999511719</ele>
        <time>2021-08-21T08:32:00.000Z</time>
      </trkpt>
      <trkpt lat="44.09024" lon="6.62954">
        <ele>2003.1999511719</ele>
        <time>2021-08-21T08:32:01.000Z</time>
      </trkpt>
      <trkpt lat="44.09029" lon="6.62969">
        <ele>2003.5999755859</ele>
        <time>2021-08-21T08:32:06.000Z</time>
      </trkpt>
      <trkpt lat="44.09035" lon="6.62981">
        <ele>2003.5999755859</ele>
        <time>2021-08-21T08:32:10.000Z</time>
      </trkpt>
      <trkpt lat="44.09036" lon="6.62985">
        <ele>2003.8000488281</ele>
        <time>2021-08-21T08:32:11.000Z</time>
      </trkpt>
      <trkpt lat="44.09042" lon="6.62998">
        <ele>2004.1999511719</ele>
        <time>2021-08-21T08:32:15.000Z</time>
      </trkpt>
      <trkpt lat="44.09046" lon="6.63005">
        <ele>2004.5999755859</ele>
        <time>2021-08-21T08:32:18.000Z</time>
      </trkpt>
      <trkpt lat="44.0905" lon="6.63011">
        <ele>2005.1999511719</ele>
        <time>2021-08-21T08:32:21.000Z</time>
      </trkpt>
      <trkpt lat="44.09058" lon="6.63023">
        <ele>2006.1999511719</ele>
        <time>2021-08-21T08:32:26.000Z</time>
      </trkpt>
      <trkpt lat="44.09059" lon="6.63025">
        <ele>2006.4000244141</ele>
        <time>2021-08-21T08:32:27.000Z</time>
      </trkpt>
      <trkpt lat="44.09072" lon="6.63047">
        <ele>2007.4000244141</ele>
        <time>2021-08-21T08:32:35.000Z</time>
      </trkpt>
      <trkpt lat="44.09075" lon="6.63051">
        <ele>2007.4000244141</ele>
        <time>2021-08-21T08:32:37.000Z</time>
      </trkpt>
      <trkpt lat="44.09077" lon="6.63056">
        <ele>2007.8000488281</ele>
        <time>2021-08-21T08:32:39.000Z</time>
      </trkpt>
      <trkpt lat="44.09081" lon="6.63068">
        <ele>2008.1999511719</ele>
        <time>2021-08-21T08:32:43.000Z</time>
      </trkpt>
      <trkpt lat="44.09081" lon="6.63071">
        <ele>2008.4000244141</ele>
        <time>2021-08-21T08:32:44.000Z</time>
      </trkpt>
      <trkpt lat="44.09081" lon="6.63074">
        <ele>2008.5999755859</ele>
        <time>2021-08-21T08:32:45.000Z</time>
      </trkpt>
      <trkpt lat="44.09082" lon="6.63083">
        <ele>2009.4000244141</ele>
        <time>2021-08-21T08:32:49.000Z</time>
      </trkpt>
      <trkpt lat="44.09082" lon="6.63084">
        <ele>2009.5999755859</ele>
        <time>2021-08-21T08:32:50.000Z</time>
      </trkpt>
      <trkpt lat="44.09082" lon="6.63092">
        <ele>2010.5999755859</ele>
        <time>2021-08-21T08:32:55.000Z</time>
      </trkpt>
      <trkpt lat="44.09082" lon="6.63093">
        <ele>2010.8000488281</ele>
        <time>2021-08-21T08:32:56.000Z</time>
      </trkpt>
      <trkpt lat="44.0908" lon="6.63103">
        <ele>2011.8000488281</ele>
        <time>2021-08-21T08:33:03.000Z</time>
      </trkpt>
      <trkpt lat="44.0908" lon="6.63104">
        <ele>2012</ele>
        <time>2021-08-21T08:33:04.000Z</time>
      </trkpt>
      <trkpt lat="44.09079" lon="6.63106">
        <ele>2012.4000244141</ele>
        <time>2021-08-21T08:33:06.000Z</time>
      </trkpt>
      <trkpt lat="44.09078" lon="6.63109">
        <ele>2012.5999755859</ele>
        <time>2021-08-21T08:33:08.000Z</time>
      </trkpt>
      <trkpt lat="44.09077" lon="6.63112">
        <ele>2013</ele>
        <time>2021-08-21T08:33:11.000Z</time>
      </trkpt>
      <trkpt lat="44.09076" lon="6.63115">
        <ele>2013.4000244141</ele>
        <time>2021-08-21T08:33:14.000Z</time>
      </trkpt>
      <trkpt lat="44.09074" lon="6.6312">
        <ele>2014</ele>
        <time>2021-08-21T08:33:18.000Z</time>
      </trkpt>
      <trkpt lat="44.09071" lon="6.63124">
        <ele>2014.4000244141</ele>
        <time>2021-08-21T08:33:21.000Z</time>
      </trkpt>
      <trkpt lat="44.09066" lon="6.63133">
        <ele>2015.1999511719</ele>
        <time>2021-08-21T08:33:28.000Z</time>
      </trkpt>
      <trkpt lat="44.09066" lon="6.63134">
        <ele>2015.5999755859</ele>
        <time>2021-08-21T08:33:30.000Z</time>
      </trkpt>
      <trkpt lat="44.09062" lon="6.63142">
        <ele>2016</ele>
        <time>2021-08-21T08:33:35.000Z</time>
      </trkpt>
      <trkpt lat="44.09059" lon="6.63147">
        <ele>2016.1999511719</ele>
        <time>2021-08-21T08:33:38.000Z</time>
      </trkpt>
      <trkpt lat="44.09057" lon="6.63151">
        <ele>2016.5999755859</ele>
        <time>2021-08-21T08:33:40.000Z</time>
      </trkpt>
      <trkpt lat="44.09045" lon="6.63166">
        <ele>2016.8000488281</ele>
        <time>2021-08-21T08:33:47.000Z</time>
      </trkpt>
      <trkpt lat="44.09035" lon="6.63178">
        <ele>2016.8000488281</ele>
        <time>2021-08-21T08:33:52.000Z</time>
      </trkpt>
      <trkpt lat="44.09022" lon="6.63198">
        <ele>2016.4000244141</ele>
        <time>2021-08-21T08:33:57.000Z</time>
      </trkpt>
      <trkpt lat="44.09007" lon="6.6322">
        <ele>2015.5999755859</ele>
        <time>2021-08-21T08:34:01.000Z</time>
      </trkpt>
      <trkpt lat="44.09003" lon="6.63225">
        <ele>2015.4000244141</ele>
        <time>2021-08-21T08:34:02.000Z</time>
      </trkpt>
      <trkpt lat="44.08993" lon="6.63237">
        <ele>2015</ele>
        <time>2021-08-21T08:34:04.000Z</time>
      </trkpt>
      <trkpt lat="44.08988" lon="6.63243">
        <ele>2014.8000488281</ele>
        <time>2021-08-21T08:34:05.000Z</time>
      </trkpt>
      <trkpt lat="44.08975" lon="6.63262">
        <ele>2014</ele>
        <time>2021-08-21T08:34:08.000Z</time>
      </trkpt>
      <trkpt lat="44.08969" lon="6.63268">
        <ele>2013.5999755859</ele>
        <time>2021-08-21T08:34:09.000Z</time>
      </trkpt>
      <trkpt lat="44.08964" lon="6.63273">
        <ele>2013.1999511719</ele>
        <time>2021-08-21T08:34:10.000Z</time>
      </trkpt>
      <trkpt lat="44.08957" lon="6.63278">
        <ele>2012.8000488281</ele>
        <time>2021-08-21T08:34:11.000Z</time>
      </trkpt>
      <trkpt lat="44.08952" lon="6.6328">
        <ele>2012.4000244141</ele>
        <time>2021-08-21T08:34:12.000Z</time>
      </trkpt>
      <trkpt lat="44.08946" lon="6.63281">
        <ele>2011.8000488281</ele>
        <time>2021-08-21T08:34:13.000Z</time>
      </trkpt>
      <trkpt lat="44.0894" lon="6.63281">
        <ele>2011.1999511719</ele>
        <time>2021-08-21T08:34:14.000Z</time>
      </trkpt>
      <trkpt lat="44.08923" lon="6.63282">
        <ele>2009.8000488281</ele>
        <time>2021-08-21T08:34:17.000Z</time>
      </trkpt>
      <trkpt lat="44.08917" lon="6.63286">
        <ele>2009.1999511719</ele>
        <time>2021-08-21T08:34:18.000Z</time>
      </trkpt>
      <trkpt lat="44.08907" lon="6.63298">
        <ele>2008.5999755859</ele>
        <time>2021-08-21T08:34:20.000Z</time>
      </trkpt>
      <trkpt lat="44.08903" lon="6.63306">
        <ele>2008.1999511719</ele>
        <time>2021-08-21T08:34:21.000Z</time>
      </trkpt>
      <trkpt lat="44.08897" lon="6.63321">
        <ele>2007.5999755859</ele>
        <time>2021-08-21T08:34:23.000Z</time>
      </trkpt>
      <trkpt lat="44.08894" lon="6.63329">
        <ele>2007.4000244141</ele>
        <time>2021-08-21T08:34:24.000Z</time>
      </trkpt>
      <trkpt lat="44.08887" lon="6.63344">
        <ele>2007</ele>
        <time>2021-08-21T08:34:26.000Z</time>
      </trkpt>
      <trkpt lat="44.08883" lon="6.63357">
        <ele>2006.5999755859</ele>
        <time>2021-08-21T08:34:28.000Z</time>
      </trkpt>
      <trkpt lat="44.0888" lon="6.63365">
        <ele>2006.4000244141</ele>
        <time>2021-08-21T08:34:29.000Z</time>
      </trkpt>
      <trkpt lat="44.08878" lon="6.63372">
        <ele>2006.1999511719</ele>
        <time>2021-08-21T08:34:30.000Z</time>
      </trkpt>
      <trkpt lat="44.08872" lon="6.6339">
        <ele>2005.4000244141</ele>
        <time>2021-08-21T08:34:33.000Z</time>
      </trkpt>
      <trkpt lat="44.08868" lon="6.63406">
        <ele>2004.8000488281</ele>
        <time>2021-08-21T08:34:36.000Z</time>
      </trkpt>
      <trkpt lat="44.08862" lon="6.63432">
        <ele>2004.5999755859</ele>
        <time>2021-08-21T08:34:41.000Z</time>
      </trkpt>
      <trkpt lat="44.08858" lon="6.63455">
        <ele>2005.4000244141</ele>
        <time>2021-08-21T08:34:46.000Z</time>
      </trkpt>
      <trkpt lat="44.08855" lon="6.63476">
        <ele>2006.1999511719</ele>
        <time>2021-08-21T08:34:51.000Z</time>
      </trkpt>
      <trkpt lat="44.08854" lon="6.63485">
        <ele>2006.5999755859</ele>
        <time>2021-08-21T08:34:53.000Z</time>
      </trkpt>
      <trkpt lat="44.08853" lon="6.63499">
        <ele>2006.8000488281</ele>
        <time>2021-08-21T08:34:56.000Z</time>
      </trkpt>
      <trkpt lat="44.08854" lon="6.6352">
        <ele>2007</ele>
        <time>2021-08-21T08:35:01.000Z</time>
      </trkpt>
      <trkpt lat="44.08855" lon="6.63537">
        <ele>2007.4000244141</ele>
        <time>2021-08-21T08:35:05.000Z</time>
      </trkpt>
      <trkpt lat="44.08857" lon="6.63547">
        <ele>2007.5999755859</ele>
        <time>2021-08-21T08:35:07.000Z</time>
      </trkpt>
      <trkpt lat="44.0886" lon="6.63559">
        <ele>2007.5999755859</ele>
        <time>2021-08-21T08:35:10.000Z</time>
      </trkpt>
      <trkpt lat="44.08868" lon="6.63582">
        <ele>2008.1999511719</ele>
        <time>2021-08-21T08:35:16.000Z</time>
      </trkpt>
      <trkpt lat="44.08872" lon="6.63593">
        <ele>2008.5999755859</ele>
        <time>2021-08-21T08:35:19.000Z</time>
      </trkpt>
      <trkpt lat="44.08875" lon="6.63598">
        <ele>2008.8000488281</ele>
        <time>2021-08-21T08:35:21.000Z</time>
      </trkpt>
      <trkpt lat="44.08879" lon="6.63614">
        <ele>2009</ele>
        <time>2021-08-21T08:35:25.000Z</time>
      </trkpt>
      <trkpt lat="44.0888" lon="6.63622">
        <ele>2009.1999511719</ele>
        <time>2021-08-21T08:35:27.000Z</time>
      </trkpt>
      <trkpt lat="44.08884" lon="6.63638">
        <ele>2009.8000488281</ele>
        <time>2021-08-21T08:35:31.000Z</time>
      </trkpt>
      <trkpt lat="44.08884" lon="6.63642">
        <ele>2009.8000488281</ele>
        <time>2021-08-21T08:35:32.000Z</time>
      </trkpt>
      <trkpt lat="44.08883" lon="6.63669">
        <ele>2010.4000244141</ele>
        <time>2021-08-21T08:35:38.000Z</time>
      </trkpt>
      <trkpt lat="44.08881" lon="6.63688">
        <ele>2010.8000488281</ele>
        <time>2021-08-21T08:35:43.000Z</time>
      </trkpt>
      <trkpt lat="44.08881" lon="6.63692">
        <ele>2010.8000488281</ele>
        <time>2021-08-21T08:35:44.000Z</time>
      </trkpt>
      <trkpt lat="44.0888" lon="6.63711">
        <ele>2011.1999511719</ele>
        <time>2021-08-21T08:35:48.000Z</time>
      </trkpt>
      <trkpt lat="44.08878" lon="6.63727">
        <ele>2011.1999511719</ele>
        <time>2021-08-21T08:35:52.000Z</time>
      </trkpt>
      <trkpt lat="44.08873" lon="6.63751">
        <ele>2011.4000244141</ele>
        <time>2021-08-21T08:35:57.000Z</time>
      </trkpt>
      <trkpt lat="44.08868" lon="6.63773">
        <ele>2011.8000488281</ele>
        <time>2021-08-21T08:36:02.000Z</time>
      </trkpt>
      <trkpt lat="44.0886" lon="6.63802">
        <ele>2012.1999511719</ele>
        <time>2021-08-21T08:36:08.000Z</time>
      </trkpt>
      <trkpt lat="44.08852" lon="6.63826">
        <ele>2012.8000488281</ele>
        <time>2021-08-21T08:36:14.000Z</time>
      </trkpt>
      <trkpt lat="44.08845" lon="6.63846">
        <ele>2013.4000244141</ele>
        <time>2021-08-21T08:36:19.000Z</time>
      </trkpt>
      <trkpt lat="44.08839" lon="6.63864">
        <ele>2013.8000488281</ele>
        <time>2021-08-21T08:36:24.000Z</time>
      </trkpt>
      <trkpt lat="44.08838" lon="6.63867">
        <ele>2013.8000488281</ele>
        <time>2021-08-21T08:36:25.000Z</time>
      </trkpt>
      <trkpt lat="44.08837" lon="6.63878">
        <ele>2014.1999511719</ele>
        <time>2021-08-21T08:36:28.000Z</time>
      </trkpt>
      <trkpt lat="44.08836" lon="6.63883">
        <ele>2014.1999511719</ele>
        <time>2021-08-21T08:36:29.000Z</time>
      </trkpt>
      <trkpt lat="44.08836" lon="6.639">
        <ele>2014.5999755859</ele>
        <time>2021-08-21T08:36:34.000Z</time>
      </trkpt>
      <trkpt lat="44.08838" lon="6.63908">
        <ele>2015</ele>
        <time>2021-08-21T08:36:37.000Z</time>
      </trkpt>
      <trkpt lat="44.08839" lon="6.63914">
        <ele>2015.4000244141</ele>
        <time>2021-08-21T08:36:39.000Z</time>
      </trkpt>
      <trkpt lat="44.08841" lon="6.63923">
        <ele>2016</ele>
        <time>2021-08-21T08:36:42.000Z</time>
      </trkpt>
      <trkpt lat="44.08843" lon="6.63927">
        <ele>2016.4000244141</ele>
        <time>2021-08-21T08:36:44.000Z</time>
      </trkpt>
      <trkpt lat="44.08844" lon="6.63935">
        <ele>2017.1999511719</ele>
        <time>2021-08-21T08:36:47.000Z</time>
      </trkpt>
      <trkpt lat="44.08845" lon="6.63943">
        <ele>2018</ele>
        <time>2021-08-21T08:36:50.000Z</time>
      </trkpt>
      <trkpt lat="44.08845" lon="6.63947">
        <ele>2018.4000244141</ele>
        <time>2021-08-21T08:36:52.000Z</time>
      </trkpt>
      <trkpt lat="44.08845" lon="6.63952">
        <ele>2019</ele>
        <time>2021-08-21T08:36:55.000Z</time>
      </trkpt>
      <trkpt lat="44.08846" lon="6.63955">
        <ele>2019.4000244141</ele>
        <time>2021-08-21T08:36:57.000Z</time>
      </trkpt>
      <trkpt lat="44.08846" lon="6.63961">
        <ele>2019.8000488281</ele>
        <time>2021-08-21T08:37:00.000Z</time>
      </trkpt>
      <trkpt lat="44.08845" lon="6.63964">
        <ele>2020</ele>
        <time>2021-08-21T08:37:02.000Z</time>
      </trkpt>
      <trkpt lat="44.08845" lon="6.63967">
        <ele>2020.4000244141</ele>
        <time>2021-08-21T08:37:04.000Z</time>
      </trkpt>
      <trkpt lat="44.08844" lon="6.63973">
        <ele>2020.8000488281</ele>
        <time>2021-08-21T08:37:07.000Z</time>
      </trkpt>
      <trkpt lat="44.08844" lon="6.63981">
        <ele>2021.4000244141</ele>
        <time>2021-08-21T08:37:12.000Z</time>
      </trkpt>
      <trkpt lat="44.08844" lon="6.63984">
        <ele>2021.5999755859</ele>
        <time>2021-08-21T08:37:14.000Z</time>
      </trkpt>
      <trkpt lat="44.08843" lon="6.63997">
        <ele>2022.4000244141</ele>
        <time>2021-08-21T08:37:21.000Z</time>
      </trkpt>
      <trkpt lat="44.08842" lon="6.64017">
        <ele>2023.4000244141</ele>
        <time>2021-08-21T08:37:29.000Z</time>
      </trkpt>
      <trkpt lat="44.08842" lon="6.6402">
        <ele>2023.5999755859</ele>
        <time>2021-08-21T08:37:30.000Z</time>
      </trkpt>
      <trkpt lat="44.08842" lon="6.64034">
        <ele>2024.5999755859</ele>
        <time>2021-08-21T08:37:36.000Z</time>
      </trkpt>
      <trkpt lat="44.08843" lon="6.64051">
        <ele>2025.5999755859</ele>
        <time>2021-08-21T08:37:44.000Z</time>
      </trkpt>
      <trkpt lat="44.08842" lon="6.64053">
        <ele>2025.8000488281</ele>
        <time>2021-08-21T08:37:45.000Z</time>
      </trkpt>
      <trkpt lat="44.0884" lon="6.64061">
        <ele>2026.8000488281</ele>
        <time>2021-08-21T08:37:49.000Z</time>
      </trkpt>
      <trkpt lat="44.0884" lon="6.64063">
        <ele>2027.4000244141</ele>
        <time>2021-08-21T08:37:51.000Z</time>
      </trkpt>
      <trkpt lat="44.08839" lon="6.64066">
        <ele>2027.8000488281</ele>
        <time>2021-08-21T08:37:53.000Z</time>
      </trkpt>
      <trkpt lat="44.08838" lon="6.64074">
        <ele>2028.8000488281</ele>
        <time>2021-08-21T08:37:58.000Z</time>
      </trkpt>
      <trkpt lat="44.08838" lon="6.64075">
        <ele>2029</ele>
        <time>2021-08-21T08:37:59.000Z</time>
      </trkpt>
      <trkpt lat="44.08837" lon="6.64091">
        <ele>2029.8000488281</ele>
        <time>2021-08-21T08:38:07.000Z</time>
      </trkpt>
      <trkpt lat="44.08837" lon="6.64093">
        <ele>2030</ele>
        <time>2021-08-21T08:38:08.000Z</time>
      </trkpt>
      <trkpt lat="44.08835" lon="6.64104">
        <ele>2030.8000488281</ele>
        <time>2021-08-21T08:38:16.000Z</time>
      </trkpt>
      <trkpt lat="44.08835" lon="6.64107">
        <ele>2031</ele>
        <time>2021-08-21T08:38:18.000Z</time>
      </trkpt>
      <trkpt lat="44.08832" lon="6.64113">
        <ele>2031.4000244141</ele>
        <time>2021-08-21T08:38:24.000Z</time>
      </trkpt>
      <trkpt lat="44.08831" lon="6.64114">
        <ele>2031.4000244141</ele>
        <time>2021-08-21T08:38:30.000Z</time>
      </trkpt>
      <trkpt lat="44.08832" lon="6.64117">
        <ele>2031.4000244141</ele>
        <time>2021-08-21T08:38:38.000Z</time>
      </trkpt>
      <trkpt lat="44.0883" lon="6.64116">
        <ele>2031.4000244141</ele>
        <time>2021-08-21T08:38:41.000Z</time>
      </trkpt>
      <trkpt lat="44.08829" lon="6.64118">
        <ele>2031.4000244141</ele>
        <time>2021-08-21T08:38:42.000Z</time>
      </trkpt>
      <trkpt lat="44.0883" lon="6.64117">
        <ele>2030.5999755859</ele>
        <time>2021-08-21T08:38:47.000Z</time>
      </trkpt>
      <trkpt lat="44.0883" lon="6.64118">
        <ele>2031</ele>
        <time>2021-08-21T08:38:56.000Z</time>
      </trkpt>
      <trkpt lat="44.08833" lon="6.64117">
        <ele>2031.1999511719</ele>
        <time>2021-08-21T08:39:13.000Z</time>
      </trkpt>
      <trkpt lat="44.08834" lon="6.64116">
        <ele>2031</ele>
        <time>2021-08-21T08:39:29.000Z</time>
      </trkpt>
      <trkpt lat="44.08834" lon="6.64116">
        <ele>2031</ele>
        <time>2021-08-21T08:39:43.000Z</time>
      </trkpt>
      <trkpt lat="44.08833" lon="6.64116">
        <ele>2030.8000488281</ele>
        <time>2021-08-21T08:40:05.000Z</time>
      </trkpt>
      <trkpt lat="44.08833" lon="6.64116">
        <ele>2031</ele>
        <time>2021-08-21T08:40:26.000Z</time>
      </trkpt>
      <trkpt lat="44.08833" lon="6.64116">
        <ele>2031</ele>
        <time>2021-08-21T08:40:45.000Z</time>
      </trkpt>
      <trkpt lat="44.08833" lon="6.64116">
        <ele>2030.8000488281</ele>
        <time>2021-08-21T08:40:57.000Z</time>
      </trkpt>
      <trkpt lat="44.08833" lon="6.64116">
        <ele>2030.8000488281</ele>
        <time>2021-08-21T08:41:18.000Z</time>
      </trkpt>
      <trkpt lat="44.08833" lon="6.64115">
        <ele>2030.8000488281</ele>
        <time>2021-08-21T08:41:40.000Z</time>
      </trkpt>
      <trkpt lat="44.08833" lon="6.64114">
        <ele>2030.8000488281</ele>
        <time>2021-08-21T08:42:04.000Z</time>
      </trkpt>
      <trkpt lat="44.08833" lon="6.64114">
        <ele>2030.5999755859</ele>
        <time>2021-08-21T08:42:26.000Z</time>
      </trkpt>
      <trkpt lat="44.08833" lon="6.64114">
        <ele>2030.8000488281</ele>
        <time>2021-08-21T08:42:47.000Z</time>
      </trkpt>
      <trkpt lat="44.08833" lon="6.64114">
        <ele>2030.8000488281</ele>
        <time>2021-08-21T08:43:00.000Z</time>
      </trkpt>
      <trkpt lat="44.08832" lon="6.64114">
        <ele>2030.5999755859</ele>
        <time>2021-08-21T08:43:17.000Z</time>
      </trkpt>
      <trkpt lat="44.08832" lon="6.64115">
        <ele>2030.5999755859</ele>
        <time>2021-08-21T08:43:38.000Z</time>
      </trkpt>
      <trkpt lat="44.08832" lon="6.64115">
        <ele>2030.5999755859</ele>
        <time>2021-08-21T08:44:00.000Z</time>
      </trkpt>
      <trkpt lat="44.08832" lon="6.64115">
        <ele>2030.5999755859</ele>
        <time>2021-08-21T08:44:30.000Z</time>
      </trkpt>
      <trkpt lat="44.08831" lon="6.64116">
        <ele>2030.5999755859</ele>
        <time>2021-08-21T08:44:57.000Z</time>
      </trkpt>
      <trkpt lat="44.0883" lon="6.64117">
        <ele>2030.5999755859</ele>
        <time>2021-08-21T08:45:21.000Z</time>
      </trkpt>
      <trkpt lat="44.08831" lon="6.64118">
        <ele>2030.1999511719</ele>
        <time>2021-08-21T08:45:38.000Z</time>
      </trkpt>
      <trkpt lat="44.08831" lon="6.64118">
        <ele>2029.8000488281</ele>
        <time>2021-08-21T08:45:44.000Z</time>
      </trkpt>
      <trkpt lat="44.08831" lon="6.64118">
        <ele>2030.4000244141</ele>
        <time>2021-08-21T08:45:50.000Z</time>
      </trkpt>
      <trkpt lat="44.0883" lon="6.64119">
        <ele>2030.4000244141</ele>
        <time>2021-08-21T08:46:12.000Z</time>
      </trkpt>
      <trkpt lat="44.08831" lon="6.64119">
        <ele>2030.4000244141</ele>
        <time>2021-08-21T08:46:32.000Z</time>
      </trkpt>
      <trkpt lat="44.08831" lon="6.64119">
        <ele>2030.4000244141</ele>
        <time>2021-08-21T08:47:01.000Z</time>
      </trkpt>
      <trkpt lat="44.08831" lon="6.6412">
        <ele>2030.4000244141</ele>
        <time>2021-08-21T08:47:25.000Z</time>
      </trkpt>
      <trkpt lat="44.08831" lon="6.6412">
        <ele>2030.4000244141</ele>
        <time>2021-08-21T08:47:47.000Z</time>
      </trkpt>
      <trkpt lat="44.08832" lon="6.6412">
        <ele>2030.4000244141</ele>
        <time>2021-08-21T08:48:16.000Z</time>
      </trkpt>
      <trkpt lat="44.08832" lon="6.6412">
        <ele>2030.4000244141</ele>
        <time>2021-08-21T08:48:40.000Z</time>
      </trkpt>
      <trkpt lat="44.08832" lon="6.6412">
        <ele>2030.4000244141</ele>
        <time>2021-08-21T08:49:02.000Z</time>
      </trkpt>
      <trkpt lat="44.08832" lon="6.6412">
        <ele>2030.1999511719</ele>
        <time>2021-08-21T08:49:28.000Z</time>
      </trkpt>
      <trkpt lat="44.08832" lon="6.6412">
        <ele>2030</ele>
        <time>2021-08-21T08:49:41.000Z</time>
      </trkpt>
      <trkpt lat="44.08833" lon="6.64119">
        <ele>2029.5999755859</ele>
        <time>2021-08-21T08:49:48.000Z</time>
      </trkpt>
      <trkpt lat="44.08833" lon="6.64119">
        <ele>2030.1999511719</ele>
        <time>2021-08-21T08:49:57.000Z</time>
      </trkpt>
      <trkpt lat="44.08833" lon="6.64119">
        <ele>2030.4000244141</ele>
        <time>2021-08-21T08:50:06.000Z</time>
      </trkpt>
      <trkpt lat="44.08833" lon="6.64119">
        <ele>2030.1999511719</ele>
        <time>2021-08-21T08:50:22.000Z</time>
      </trkpt>
      <trkpt lat="44.08832" lon="6.64118">
        <ele>2030.1999511719</ele>
        <time>2021-08-21T08:50:34.000Z</time>
      </trkpt>
      <trkpt lat="44.08832" lon="6.64118">
        <ele>2030.8000488281</ele>
        <time>2021-08-21T08:50:41.000Z</time>
      </trkpt>
      <trkpt lat="44.08833" lon="6.64116">
        <ele>2030.1999511719</ele>
        <time>2021-08-21T08:50:48.000Z</time>
      </trkpt>
      <trkpt lat="44.08833" lon="6.64117">
        <ele>2030.1999511719</ele>
        <time>2021-08-21T08:51:01.000Z</time>
      </trkpt>
      <trkpt lat="44.08834" lon="6.64119">
        <ele>2030.4000244141</ele>
        <time>2021-08-21T08:51:03.000Z</time>
      </trkpt>
      <trkpt lat="44.08833" lon="6.64123">
        <ele>2030.4000244141</ele>
        <time>2021-08-21T08:51:05.000Z</time>
      </trkpt>
      <trkpt lat="44.08832" lon="6.64128">
        <ele>2030.4000244141</ele>
        <time>2021-08-21T08:51:08.000Z</time>
      </trkpt>
      <trkpt lat="44.08829" lon="6.64137">
        <ele>2031</ele>
        <time>2021-08-21T08:51:12.000Z</time>
      </trkpt>
      <trkpt lat="44.08828" lon="6.64144">
        <ele>2031.1999511719</ele>
        <time>2021-08-21T08:51:15.000Z</time>
      </trkpt>
      <trkpt lat="44.08826" lon="6.64163">
        <ele>2031.4000244141</ele>
        <time>2021-08-21T08:51:22.000Z</time>
      </trkpt>
      <trkpt lat="44.08824" lon="6.64179">
        <ele>2032</ele>
        <time>2021-08-21T08:51:28.000Z</time>
      </trkpt>
      <trkpt lat="44.08822" lon="6.64189">
        <ele>2032.1999511719</ele>
        <time>2021-08-21T08:51:32.000Z</time>
      </trkpt>
      <trkpt lat="44.08819" lon="6.6421">
        <ele>2033</ele>
        <time>2021-08-21T08:51:40.000Z</time>
      </trkpt>
      <trkpt lat="44.0881" lon="6.64229">
        <ele>2033.4000244141</ele>
        <time>2021-08-21T08:51:48.000Z</time>
      </trkpt>
      <trkpt lat="44.08808" lon="6.64233">
        <ele>2034</ele>
        <time>2021-08-21T08:51:50.000Z</time>
      </trkpt>
      <trkpt lat="44.08805" lon="6.6424">
        <ele>2035.1999511719</ele>
        <time>2021-08-21T08:51:54.000Z</time>
      </trkpt>
      <trkpt lat="44.08804" lon="6.64243">
        <ele>2035.4000244141</ele>
        <time>2021-08-21T08:51:56.000Z</time>
      </trkpt>
      <trkpt lat="44.08798" lon="6.64254">
        <ele>2036.1999511719</ele>
        <time>2021-08-21T08:52:02.000Z</time>
      </trkpt>
      <trkpt lat="44.08797" lon="6.64256">
        <ele>2036.1999511719</ele>
        <time>2021-08-21T08:52:03.000Z</time>
      </trkpt>
      <trkpt lat="44.0879" lon="6.64271">
        <ele>2037.1999511719</ele>
        <time>2021-08-21T08:52:11.000Z</time>
      </trkpt>
      <trkpt lat="44.08788" lon="6.64274">
        <ele>2037.4000244141</ele>
        <time>2021-08-21T08:52:13.000Z</time>
      </trkpt>
      <trkpt lat="44.08781" lon="6.64288">
        <ele>2038.1999511719</ele>
        <time>2021-08-21T08:52:20.000Z</time>
      </trkpt>
      <trkpt lat="44.08779" lon="6.64291">
        <ele>2038.5999755859</ele>
        <time>2021-08-21T08:52:22.000Z</time>
      </trkpt>
      <trkpt lat="44.08775" lon="6.64302">
        <ele>2039.1999511719</ele>
        <time>2021-08-21T08:52:27.000Z</time>
      </trkpt>
      <trkpt lat="44.08774" lon="6.64306">
        <ele>2039.5999755859</ele>
        <time>2021-08-21T08:52:29.000Z</time>
      </trkpt>
      <trkpt lat="44.08772" lon="6.64314">
        <ele>2040.4000244141</ele>
        <time>2021-08-21T08:52:33.000Z</time>
      </trkpt>
      <trkpt lat="44.0877" lon="6.64323">
        <ele>2041.4000244141</ele>
        <time>2021-08-21T08:52:38.000Z</time>
      </trkpt>
      <trkpt lat="44.08773" lon="6.6434">
        <ele>2041.8000488281</ele>
        <time>2021-08-21T08:52:45.000Z</time>
      </trkpt>
      <trkpt lat="44.08775" lon="6.64355">
        <ele>2042.5999755859</ele>
        <time>2021-08-21T08:52:52.000Z</time>
      </trkpt>
      <trkpt lat="44.08776" lon="6.64362">
        <ele>2042.8000488281</ele>
        <time>2021-08-21T08:52:55.000Z</time>
      </trkpt>
      <trkpt lat="44.08781" lon="6.64382">
        <ele>2043.8000488281</ele>
        <time>2021-08-21T08:53:05.000Z</time>
      </trkpt>
      <trkpt lat="44.08784" lon="6.64391">
        <ele>2044.8000488281</ele>
        <time>2021-08-21T08:53:10.000Z</time>
      </trkpt>
      <trkpt lat="44.08787" lon="6.644">
        <ele>2045.4000244141</ele>
        <time>2021-08-21T08:53:14.000Z</time>
      </trkpt>
      <trkpt lat="44.08791" lon="6.64414">
        <ele>2045.8000488281</ele>
        <time>2021-08-21T08:53:20.000Z</time>
      </trkpt>
      <trkpt lat="44.08794" lon="6.64424">
        <ele>2046.4000244141</ele>
        <time>2021-08-21T08:53:24.000Z</time>
      </trkpt>
      <trkpt lat="44.08801" lon="6.64437">
        <ele>2047</ele>
        <time>2021-08-21T08:53:30.000Z</time>
      </trkpt>
      <trkpt lat="44.08802" lon="6.64439">
        <ele>2047.1999511719</ele>
        <time>2021-08-21T08:53:31.000Z</time>
      </trkpt>
      <trkpt lat="44.08811" lon="6.64457">
        <ele>2047.5999755859</ele>
        <time>2021-08-21T08:53:39.000Z</time>
      </trkpt>
      <trkpt lat="44.08813" lon="6.64462">
        <ele>2048</ele>
        <time>2021-08-21T08:53:41.000Z</time>
      </trkpt>
      <trkpt lat="44.08816" lon="6.64472">
        <ele>2049</ele>
        <time>2021-08-21T08:53:46.000Z</time>
      </trkpt>
      <trkpt lat="44.08821" lon="6.64487">
        <ele>2050</ele>
        <time>2021-08-21T08:53:53.000Z</time>
      </trkpt>
      <trkpt lat="44.08822" lon="6.6449">
        <ele>2050.1999511719</ele>
        <time>2021-08-21T08:53:54.000Z</time>
      </trkpt>
      <trkpt lat="44.08826" lon="6.64505">
        <ele>2050.3999023438</ele>
        <time>2021-08-21T08:54:00.000Z</time>
      </trkpt>
      <trkpt lat="44.08833" lon="6.64517">
        <ele>2050.3999023438</ele>
        <time>2021-08-21T08:54:06.000Z</time>
      </trkpt>
      <trkpt lat="44.0884" lon="6.64525">
        <ele>2051.1999511719</ele>
        <time>2021-08-21T08:54:11.000Z</time>
      </trkpt>
      <trkpt lat="44.08844" lon="6.64534">
        <ele>2051.6000976562</ele>
        <time>2021-08-21T08:54:15.000Z</time>
      </trkpt>
      <trkpt lat="44.0885" lon="6.64542">
        <ele>2052.1999511719</ele>
        <time>2021-08-21T08:54:19.000Z</time>
      </trkpt>
      <trkpt lat="44.08862" lon="6.64555">
        <ele>2053</ele>
        <time>2021-08-21T08:54:26.000Z</time>
      </trkpt>
      <trkpt lat="44.08868" lon="6.64563">
        <ele>2053.3999023438</ele>
        <time>2021-08-21T08:54:30.000Z</time>
      </trkpt>
      <trkpt lat="44.08878" lon="6.64575">
        <ele>2053.8000488281</ele>
        <time>2021-08-21T08:54:36.000Z</time>
      </trkpt>
      <trkpt lat="44.08896" lon="6.64605">
        <ele>2054</ele>
        <time>2021-08-21T08:54:47.000Z</time>
      </trkpt>
      <trkpt lat="44.08911" lon="6.64631">
        <ele>2054.3999023438</ele>
        <time>2021-08-21T08:54:55.000Z</time>
      </trkpt>
      <trkpt lat="44.08916" lon="6.6464">
        <ele>2054.6000976562</ele>
        <time>2021-08-21T08:54:58.000Z</time>
      </trkpt>
      <trkpt lat="44.08926" lon="6.64664">
        <ele>2054.3999023438</ele>
        <time>2021-08-21T08:55:05.000Z</time>
      </trkpt>
      <trkpt lat="44.08937" lon="6.64691">
        <ele>2055.3999023438</ele>
        <time>2021-08-21T08:55:14.000Z</time>
      </trkpt>
      <trkpt lat="44.08939" lon="6.64694">
        <ele>2055.3999023438</ele>
        <time>2021-08-21T08:55:15.000Z</time>
      </trkpt>
      <trkpt lat="44.08948" lon="6.64711">
        <ele>2056.1999511719</ele>
        <time>2021-08-21T08:55:22.000Z</time>
      </trkpt>
      <trkpt lat="44.08954" lon="6.6472">
        <ele>2056.3999023438</ele>
        <time>2021-08-21T08:55:25.000Z</time>
      </trkpt>
      <trkpt lat="44.08957" lon="6.64728">
        <ele>2056.8000488281</ele>
        <time>2021-08-21T08:55:28.000Z</time>
      </trkpt>
      <trkpt lat="44.08958" lon="6.64738">
        <ele>2057.3999023438</ele>
        <time>2021-08-21T08:55:31.000Z</time>
      </trkpt>
      <trkpt lat="44.0896" lon="6.64744">
        <ele>2057.8000488281</ele>
        <time>2021-08-21T08:55:33.000Z</time>
      </trkpt>
      <trkpt lat="44.0897" lon="6.64759">
        <ele>2058</ele>
        <time>2021-08-21T08:55:39.000Z</time>
      </trkpt>
      <trkpt lat="44.08976" lon="6.64767">
        <ele>2058.6000976562</ele>
        <time>2021-08-21T08:55:43.000Z</time>
      </trkpt>
      <trkpt lat="44.08982" lon="6.64776">
        <ele>2059.3999023438</ele>
        <time>2021-08-21T08:55:47.000Z</time>
      </trkpt>
      <trkpt lat="44.08987" lon="6.64789">
        <ele>2059.6000976562</ele>
        <time>2021-08-21T08:55:51.000Z</time>
      </trkpt>
      <trkpt lat="44.08992" lon="6.64798">
        <ele>2059.6000976562</ele>
        <time>2021-08-21T08:55:54.000Z</time>
      </trkpt>
      <trkpt lat="44.09012" lon="6.64826">
        <ele>2060</ele>
        <time>2021-08-21T08:56:04.000Z</time>
      </trkpt>
      <trkpt lat="44.0902" lon="6.64836">
        <ele>2059.8000488281</ele>
        <time>2021-08-21T08:56:07.000Z</time>
      </trkpt>
      <trkpt lat="44.09032" lon="6.64852">
        <ele>2059.6000976562</ele>
        <time>2021-08-21T08:56:13.000Z</time>
      </trkpt>
      <trkpt lat="44.09043" lon="6.64862">
        <ele>2059.3999023438</ele>
        <time>2021-08-21T08:56:14.000Z</time>
      </trkpt>
      <trkpt lat="44.09063" lon="6.64878">
        <ele>2058.8000488281</ele>
        <time>2021-08-21T08:56:17.000Z</time>
      </trkpt>
      <trkpt lat="44.09069" lon="6.64883">
        <ele>2058.3999023438</ele>
        <time>2021-08-21T08:56:18.000Z</time>
      </trkpt>
      <trkpt lat="44.09079" lon="6.64893">
        <ele>2057.6000976562</ele>
        <time>2021-08-21T08:56:20.000Z</time>
      </trkpt>
      <trkpt lat="44.09084" lon="6.64898">
        <ele>2056.8000488281</ele>
        <time>2021-08-21T08:56:21.000Z</time>
      </trkpt>
      <trkpt lat="44.09096" lon="6.6491">
        <ele>2055.8000488281</ele>
        <time>2021-08-21T08:56:23.000Z</time>
      </trkpt>
      <trkpt lat="44.09107" lon="6.64923">
        <ele>2054.6000976562</ele>
        <time>2021-08-21T08:56:25.000Z</time>
      </trkpt>
      <trkpt lat="44.09117" lon="6.64936">
        <ele>2053.6000976562</ele>
        <time>2021-08-21T08:56:27.000Z</time>
      </trkpt>
      <trkpt lat="44.09122" lon="6.64944">
        <ele>2053.3999023438</ele>
        <time>2021-08-21T08:56:28.000Z</time>
      </trkpt>
      <trkpt lat="44.09126" lon="6.6495">
        <ele>2052.6000976562</ele>
        <time>2021-08-21T08:56:29.000Z</time>
      </trkpt>
      <trkpt lat="44.09133" lon="6.64962">
        <ele>2051.3999023438</ele>
        <time>2021-08-21T08:56:31.000Z</time>
      </trkpt>
      <trkpt lat="44.09135" lon="6.64967">
        <ele>2050.8000488281</ele>
        <time>2021-08-21T08:56:32.000Z</time>
      </trkpt>
      <trkpt lat="44.09137" lon="6.64975">
        <ele>2050</ele>
        <time>2021-08-21T08:56:33.000Z</time>
      </trkpt>
      <trkpt lat="44.09141" lon="6.64989">
        <ele>2049.8000488281</ele>
        <time>2021-08-21T08:56:35.000Z</time>
      </trkpt>
      <trkpt lat="44.09147" lon="6.65006">
        <ele>2049.1999511719</ele>
        <time>2021-08-21T08:56:37.000Z</time>
      </trkpt>
      <trkpt lat="44.09151" lon="6.65013">
        <ele>2048.6000976562</ele>
        <time>2021-08-21T08:56:38.000Z</time>
      </trkpt>
      <trkpt lat="44.09157" lon="6.65028">
        <ele>2047.1999511719</ele>
        <time>2021-08-21T08:56:40.000Z</time>
      </trkpt>
      <trkpt lat="44.09164" lon="6.65042">
        <ele>2045.4000244141</ele>
        <time>2021-08-21T08:56:42.000Z</time>
      </trkpt>
      <trkpt lat="44.09168" lon="6.65048">
        <ele>2044.4000244141</ele>
        <time>2021-08-21T08:56:43.000Z</time>
      </trkpt>
      <trkpt lat="44.09171" lon="6.65054">
        <ele>2043.8000488281</ele>
        <time>2021-08-21T08:56:44.000Z</time>
      </trkpt>
      <trkpt lat="44.09176" lon="6.65065">
        <ele>2042.8000488281</ele>
        <time>2021-08-21T08:56:46.000Z</time>
      </trkpt>
      <trkpt lat="44.0918" lon="6.65077">
        <ele>2042.1999511719</ele>
        <time>2021-08-21T08:56:48.000Z</time>
      </trkpt>
      <trkpt lat="44.09185" lon="6.65086">
        <ele>2041.4000244141</ele>
        <time>2021-08-21T08:56:50.000Z</time>
      </trkpt>
      <trkpt lat="44.09185" lon="6.65091">
        <ele>2041.1999511719</ele>
        <time>2021-08-21T08:56:51.000Z</time>
      </trkpt>
      <trkpt lat="44.0918" lon="6.65098">
        <ele>2040.1999511719</ele>
        <time>2021-08-21T08:56:53.000Z</time>
      </trkpt>
      <trkpt lat="44.09177" lon="6.65101">
        <ele>2040</ele>
        <time>2021-08-21T08:56:54.000Z</time>
      </trkpt>
      <trkpt lat="44.0917" lon="6.65117">
        <ele>2039.5999755859</ele>
        <time>2021-08-21T08:56:58.000Z</time>
      </trkpt>
      <trkpt lat="44.09161" lon="6.65144">
        <ele>2039.5999755859</ele>
        <time>2021-08-21T08:57:04.000Z</time>
      </trkpt>
      <trkpt lat="44.09156" lon="6.65164">
        <ele>2039.8000488281</ele>
        <time>2021-08-21T08:57:08.000Z</time>
      </trkpt>
      <trkpt lat="44.09154" lon="6.65169">
        <ele>2039.5999755859</ele>
        <time>2021-08-21T08:57:09.000Z</time>
      </trkpt>
      <trkpt lat="44.09149" lon="6.65192">
        <ele>2039.5999755859</ele>
        <time>2021-08-21T08:57:14.000Z</time>
      </trkpt>
      <trkpt lat="44.09148" lon="6.6521">
        <ele>2039.5999755859</ele>
        <time>2021-08-21T08:57:19.000Z</time>
      </trkpt>
      <trkpt lat="44.09148" lon="6.65216">
        <ele>2039.8000488281</ele>
        <time>2021-08-21T08:57:20.000Z</time>
      </trkpt>
      <trkpt lat="44.09145" lon="6.65222">
        <ele>2039.5999755859</ele>
        <time>2021-08-21T08:57:22.000Z</time>
      </trkpt>
      <trkpt lat="44.09139" lon="6.65235">
        <ele>2039.8000488281</ele>
        <time>2021-08-21T08:57:26.000Z</time>
      </trkpt>
      <trkpt lat="44.09139" lon="6.65244">
        <ele>2040</ele>
        <time>2021-08-21T08:57:28.000Z</time>
      </trkpt>
      <trkpt lat="44.09138" lon="6.6526">
        <ele>2039.8000488281</ele>
        <time>2021-08-21T08:57:32.000Z</time>
      </trkpt>
      <trkpt lat="44.09143" lon="6.6529">
        <ele>2040</ele>
        <time>2021-08-21T08:57:39.000Z</time>
      </trkpt>
      <trkpt lat="44.09143" lon="6.65304">
        <ele>2039.5999755859</ele>
        <time>2021-08-21T08:57:43.000Z</time>
      </trkpt>
      <trkpt lat="44.0914" lon="6.65327">
        <ele>2039.5999755859</ele>
        <time>2021-08-21T08:57:48.000Z</time>
      </trkpt>
      <trkpt lat="44.09137" lon="6.65356">
        <ele>2039.4000244141</ele>
        <time>2021-08-21T08:57:54.000Z</time>
      </trkpt>
      <trkpt lat="44.09136" lon="6.65366">
        <ele>2039.1999511719</ele>
        <time>2021-08-21T08:57:56.000Z</time>
      </trkpt>
      <trkpt lat="44.09134" lon="6.65381">
        <ele>2039</ele>
        <time>2021-08-21T08:57:59.000Z</time>
      </trkpt>
      <trkpt lat="44.09131" lon="6.65405">
        <ele>2038.4000244141</ele>
        <time>2021-08-21T08:58:03.000Z</time>
      </trkpt>
      <trkpt lat="44.09132" lon="6.65411">
        <ele>2038.4000244141</ele>
        <time>2021-08-21T08:58:04.000Z</time>
      </trkpt>
      <trkpt lat="44.09137" lon="6.65424">
        <ele>2038</ele>
        <time>2021-08-21T08:58:06.000Z</time>
      </trkpt>
      <trkpt lat="44.09141" lon="6.65429">
        <ele>2037.5999755859</ele>
        <time>2021-08-21T08:58:07.000Z</time>
      </trkpt>
      <trkpt lat="44.09145" lon="6.65433">
        <ele>2037.1999511719</ele>
        <time>2021-08-21T08:58:08.000Z</time>
      </trkpt>
      <trkpt lat="44.09148" lon="6.65437">
        <ele>2036.8000488281</ele>
        <time>2021-08-21T08:58:09.000Z</time>
      </trkpt>
      <trkpt lat="44.09155" lon="6.65442">
        <ele>2035.8000488281</ele>
        <time>2021-08-21T08:58:11.000Z</time>
      </trkpt>
      <trkpt lat="44.09159" lon="6.65445">
        <ele>2035.4000244141</ele>
        <time>2021-08-21T08:58:12.000Z</time>
      </trkpt>
      <trkpt lat="44.09162" lon="6.65448">
        <ele>2035.1999511719</ele>
        <time>2021-08-21T08:58:13.000Z</time>
      </trkpt>
      <trkpt lat="44.09173" lon="6.65458">
        <ele>2035.1999511719</ele>
        <time>2021-08-21T08:58:16.000Z</time>
      </trkpt>
      <trkpt lat="44.09182" lon="6.65463">
        <ele>2035</ele>
        <time>2021-08-21T08:58:18.000Z</time>
      </trkpt>
      <trkpt lat="44.09217" lon="6.65486">
        <ele>2035</ele>
        <time>2021-08-21T08:58:26.000Z</time>
      </trkpt>
      <trkpt lat="44.09221" lon="6.65489">
        <ele>2035</ele>
        <time>2021-08-21T08:58:27.000Z</time>
      </trkpt>
      <trkpt lat="44.09231" lon="6.65494">
        <ele>2035</ele>
        <time>2021-08-21T08:58:29.000Z</time>
      </trkpt>
      <trkpt lat="44.09244" lon="6.65501">
        <ele>2035</ele>
        <time>2021-08-21T08:58:32.000Z</time>
      </trkpt>
      <trkpt lat="44.09252" lon="6.65505">
        <ele>2034.8000488281</ele>
        <time>2021-08-21T08:58:34.000Z</time>
      </trkpt>
      <trkpt lat="44.09265" lon="6.65508">
        <ele>2034</ele>
        <time>2021-08-21T08:58:37.000Z</time>
      </trkpt>
      <trkpt lat="44.09269" lon="6.65509">
        <ele>2033.5999755859</ele>
        <time>2021-08-21T08:58:38.000Z</time>
      </trkpt>
      <trkpt lat="44.09273" lon="6.6551">
        <ele>2033.4000244141</ele>
        <time>2021-08-21T08:58:39.000Z</time>
      </trkpt>
      <trkpt lat="44.09289" lon="6.6552">
        <ele>2033.1999511719</ele>
        <time>2021-08-21T08:58:43.000Z</time>
      </trkpt>
      <trkpt lat="44.09305" lon="6.65531">
        <ele>2033</ele>
        <time>2021-08-21T08:58:47.000Z</time>
      </trkpt>
      <trkpt lat="44.09314" lon="6.65537">
        <ele>2032.4000244141</ele>
        <time>2021-08-21T08:58:49.000Z</time>
      </trkpt>
      <trkpt lat="44.09319" lon="6.65541">
        <ele>2032.1999511719</ele>
        <time>2021-08-21T08:58:50.000Z</time>
      </trkpt>
      <trkpt lat="44.09327" lon="6.65547">
        <ele>2031.8000488281</ele>
        <time>2021-08-21T08:58:52.000Z</time>
      </trkpt>
      <trkpt lat="44.09338" lon="6.65553">
        <ele>2031</ele>
        <time>2021-08-21T08:58:54.000Z</time>
      </trkpt>
      <trkpt lat="44.09347" lon="6.65558">
        <ele>2029.8000488281</ele>
        <time>2021-08-21T08:58:56.000Z</time>
      </trkpt>
      <trkpt lat="44.09351" lon="6.65559">
        <ele>2029.4000244141</ele>
        <time>2021-08-21T08:58:57.000Z</time>
      </trkpt>
      <trkpt lat="44.09364" lon="6.65563">
        <ele>2028.5999755859</ele>
        <time>2021-08-21T08:59:01.000Z</time>
      </trkpt>
      <trkpt lat="44.09367" lon="6.65565">
        <ele>2028.4000244141</ele>
        <time>2021-08-21T08:59:02.000Z</time>
      </trkpt>
      <trkpt lat="44.09377" lon="6.6557">
        <ele>2027.5999755859</ele>
        <time>2021-08-21T08:59:05.000Z</time>
      </trkpt>
      <trkpt lat="44.09383" lon="6.65575">
        <ele>2027.4000244141</ele>
        <time>2021-08-21T08:59:07.000Z</time>
      </trkpt>
      <trkpt lat="44.09387" lon="6.65578">
        <ele>2027</ele>
        <time>2021-08-21T08:59:08.000Z</time>
      </trkpt>
      <trkpt lat="44.09395" lon="6.65584">
        <ele>2026.4000244141</ele>
        <time>2021-08-21T08:59:10.000Z</time>
      </trkpt>
      <trkpt lat="44.09399" lon="6.65587">
        <ele>2026</ele>
        <time>2021-08-21T08:59:11.000Z</time>
      </trkpt>
      <trkpt lat="44.09403" lon="6.65588">
        <ele>2025.5999755859</ele>
        <time>2021-08-21T08:59:12.000Z</time>
      </trkpt>
      <trkpt lat="44.09409" lon="6.65588">
        <ele>2025</ele>
        <time>2021-08-21T08:59:14.000Z</time>
      </trkpt>
      <trkpt lat="44.09412" lon="6.6559">
        <ele>2024.4000244141</ele>
        <time>2021-08-21T08:59:15.000Z</time>
      </trkpt>
      <trkpt lat="44.09418" lon="6.65596">
        <ele>2024</ele>
        <time>2021-08-21T08:59:17.000Z</time>
      </trkpt>
      <trkpt lat="44.09427" lon="6.65599">
        <ele>2023.5999755859</ele>
        <time>2021-08-21T08:59:19.000Z</time>
      </trkpt>
      <trkpt lat="44.09432" lon="6.656">
        <ele>2023.4000244141</ele>
        <time>2021-08-21T08:59:20.000Z</time>
      </trkpt>
      <trkpt lat="44.09442" lon="6.65603">
        <ele>2022.5999755859</ele>
        <time>2021-08-21T08:59:23.000Z</time>
      </trkpt>
      <trkpt lat="44.09446" lon="6.65604">
        <ele>2022.4000244141</ele>
        <time>2021-08-21T08:59:24.000Z</time>
      </trkpt>
      <trkpt lat="44.09466" lon="6.65608">
        <ele>2022.4000244141</ele>
        <time>2021-08-21T08:59:29.000Z</time>
      </trkpt>
      <trkpt lat="44.0948" lon="6.65616">
        <ele>2022.5999755859</ele>
        <time>2021-08-21T08:59:32.000Z</time>
      </trkpt>
      <trkpt lat="44.0949" lon="6.6562">
        <ele>2022.1999511719</ele>
        <time>2021-08-21T08:59:34.000Z</time>
      </trkpt>
      <trkpt lat="44.09494" lon="6.65621">
        <ele>2022</ele>
        <time>2021-08-21T08:59:35.000Z</time>
      </trkpt>
      <trkpt lat="44.09503" lon="6.65623">
        <ele>2021.4000244141</ele>
        <time>2021-08-21T08:59:37.000Z</time>
      </trkpt>
      <trkpt lat="44.09507" lon="6.65626">
        <ele>2021</ele>
        <time>2021-08-21T08:59:38.000Z</time>
      </trkpt>
      <trkpt lat="44.09511" lon="6.65629">
        <ele>2020.5999755859</ele>
        <time>2021-08-21T08:59:39.000Z</time>
      </trkpt>
      <trkpt lat="44.09514" lon="6.65633">
        <ele>2020.1999511719</ele>
        <time>2021-08-21T08:59:40.000Z</time>
      </trkpt>
      <trkpt lat="44.09533" lon="6.65655">
        <ele>2020.1999511719</ele>
        <time>2021-08-21T08:59:45.000Z</time>
      </trkpt>
      <trkpt lat="44.09551" lon="6.65683">
        <ele>2020.1999511719</ele>
        <time>2021-08-21T08:59:52.000Z</time>
      </trkpt>
      <trkpt lat="44.0956" lon="6.65711">
        <ele>2021.5999755859</ele>
        <time>2021-08-21T09:00:00.000Z</time>
      </trkpt>
      <trkpt lat="44.09563" lon="6.65716">
        <ele>2022.8000488281</ele>
        <time>2021-08-21T09:00:03.000Z</time>
      </trkpt>
      <trkpt lat="44.09566" lon="6.65717">
        <ele>2023.1999511719</ele>
        <time>2021-08-21T09:00:05.000Z</time>
      </trkpt>
      <trkpt lat="44.09571" lon="6.65724">
        <ele>2023.5999755859</ele>
        <time>2021-08-21T09:00:12.000Z</time>
      </trkpt>
      <trkpt lat="44.09571" lon="6.65724">
        <ele>2023</ele>
        <time>2021-08-21T09:00:21.000Z</time>
      </trkpt>
      <trkpt lat="44.09572" lon="6.65723">
        <ele>2023</ele>
        <time>2021-08-21T09:00:32.000Z</time>
      </trkpt>
      <trkpt lat="44.09572" lon="6.65722">
        <ele>2023.1999511719</ele>
        <time>2021-08-21T09:00:37.000Z</time>
      </trkpt>
      <trkpt lat="44.0957" lon="6.65721">
        <ele>2022.5999755859</ele>
        <time>2021-08-21T09:00:47.000Z</time>
      </trkpt>
      <trkpt lat="44.09568" lon="6.65721">
        <ele>2022.1999511719</ele>
        <time>2021-08-21T09:01:00.000Z</time>
      </trkpt>
      <trkpt lat="44.09568" lon="6.65721">
        <ele>2022.5999755859</ele>
        <time>2021-08-21T09:01:08.000Z</time>
      </trkpt>
      <trkpt lat="44.09569" lon="6.65721">
        <ele>2022.8000488281</ele>
        <time>2021-08-21T09:01:23.000Z</time>
      </trkpt>
      <trkpt lat="44.09566" lon="6.65721">
        <ele>2022.5999755859</ele>
        <time>2021-08-21T09:01:38.000Z</time>
      </trkpt>
      <trkpt lat="44.09564" lon="6.65719">
        <ele>2022.5999755859</ele>
        <time>2021-08-21T09:01:48.000Z</time>
      </trkpt>
      <trkpt lat="44.09563" lon="6.65719">
        <ele>2023</ele>
        <time>2021-08-21T09:01:58.000Z</time>
      </trkpt>
      <trkpt lat="44.09563" lon="6.65718">
        <ele>2021.8000488281</ele>
        <time>2021-08-21T09:02:01.000Z</time>
      </trkpt>
      <trkpt lat="44.09563" lon="6.65718">
        <ele>2021.8000488281</ele>
        <time>2021-08-21T09:02:05.000Z</time>
      </trkpt>
      <trkpt lat="44.09563" lon="6.65717">
        <ele>2022.8000488281</ele>
        <time>2021-08-21T09:02:10.000Z</time>
      </trkpt>
      <trkpt lat="44.09564" lon="6.6572">
        <ele>2022.8000488281</ele>
        <time>2021-08-21T09:02:16.000Z</time>
      </trkpt>
      <trkpt lat="44.09565" lon="6.65721">
        <ele>2022.8000488281</ele>
        <time>2021-08-21T09:02:17.000Z</time>
      </trkpt>
      <trkpt lat="44.09567" lon="6.65731">
        <ele>2022.8000488281</ele>
        <time>2021-08-21T09:02:20.000Z</time>
      </trkpt>
      <trkpt lat="44.09571" lon="6.65753">
        <ele>2022.1999511719</ele>
        <time>2021-08-21T09:02:23.000Z</time>
      </trkpt>
      <trkpt lat="44.09573" lon="6.6576">
        <ele>2021.8000488281</ele>
        <time>2021-08-21T09:02:24.000Z</time>
      </trkpt>
      <trkpt lat="44.09581" lon="6.6577">
        <ele>2020.1999511719</ele>
        <time>2021-08-21T09:02:26.000Z</time>
      </trkpt>
      <trkpt lat="44.09586" lon="6.65779">
        <ele>2018.4000244141</ele>
        <time>2021-08-21T09:02:28.000Z</time>
      </trkpt>
      <trkpt lat="44.09589" lon="6.65787">
        <ele>2016.5999755859</ele>
        <time>2021-08-21T09:02:30.000Z</time>
      </trkpt>
      <trkpt lat="44.09589" lon="6.65788">
        <ele>2015.1999511719</ele>
        <time>2021-08-21T09:02:32.000Z</time>
      </trkpt>
      <trkpt lat="44.0959" lon="6.6579">
        <ele>2014.5999755859</ele>
        <time>2021-08-21T09:02:33.000Z</time>
      </trkpt>
      <trkpt lat="44.0959" lon="6.65792">
        <ele>2014.1999511719</ele>
        <time>2021-08-21T09:02:34.000Z</time>
      </trkpt>
      <trkpt lat="44.09593" lon="6.65802">
        <ele>2013.1999511719</ele>
        <time>2021-08-21T09:02:37.000Z</time>
      </trkpt>
      <trkpt lat="44.09595" lon="6.65807">
        <ele>2013</ele>
        <time>2021-08-21T09:02:38.000Z</time>
      </trkpt>
      <trkpt lat="44.096" lon="6.6582">
        <ele>2011.4000244141</ele>
        <time>2021-08-21T09:02:41.000Z</time>
      </trkpt>
      <trkpt lat="44.09605" lon="6.65829">
        <ele>2009.5999755859</ele>
        <time>2021-08-21T09:02:43.000Z</time>
      </trkpt>
      <trkpt lat="44.09607" lon="6.65835">
        <ele>2008.5999755859</ele>
        <time>2021-08-21T09:02:44.000Z</time>
      </trkpt>
      <trkpt lat="44.09609" lon="6.6584">
        <ele>2007.5999755859</ele>
        <time>2021-08-21T09:02:45.000Z</time>
      </trkpt>
      <trkpt lat="44.09613" lon="6.6585">
        <ele>2005.8000488281</ele>
        <time>2021-08-21T09:02:47.000Z</time>
      </trkpt>
      <trkpt lat="44.09616" lon="6.65853">
        <ele>2004.8000488281</ele>
        <time>2021-08-21T09:02:48.000Z</time>
      </trkpt>
      <trkpt lat="44.09617" lon="6.65856">
        <ele>2004</ele>
        <time>2021-08-21T09:02:49.000Z</time>
      </trkpt>
      <trkpt lat="44.09622" lon="6.65862">
        <ele>2002</ele>
        <time>2021-08-21T09:02:51.000Z</time>
      </trkpt>
      <trkpt lat="44.09626" lon="6.65868">
        <ele>2000.8000488281</ele>
        <time>2021-08-21T09:02:53.000Z</time>
      </trkpt>
      <trkpt lat="44.09629" lon="6.65874">
        <ele>1999.4000244141</ele>
        <time>2021-08-21T09:02:55.000Z</time>
      </trkpt>
      <trkpt lat="44.09632" lon="6.65881">
        <ele>1998.1999511719</ele>
        <time>2021-08-21T09:02:57.000Z</time>
      </trkpt>
      <trkpt lat="44.09633" lon="6.65883">
        <ele>1997.8000488281</ele>
        <time>2021-08-21T09:02:58.000Z</time>
      </trkpt>
      <trkpt lat="44.09635" lon="6.65886">
        <ele>1997</ele>
        <time>2021-08-21T09:02:59.000Z</time>
      </trkpt>
      <trkpt lat="44.09639" lon="6.65893">
        <ele>1995.4000244141</ele>
        <time>2021-08-21T09:03:02.000Z</time>
      </trkpt>
      <trkpt lat="44.09642" lon="6.65903">
        <ele>1994.4000244141</ele>
        <time>2021-08-21T09:03:04.000Z</time>
      </trkpt>
      <trkpt lat="44.09646" lon="6.65916">
        <ele>1993.4000244141</ele>
        <time>2021-08-21T09:03:07.000Z</time>
      </trkpt>
      <trkpt lat="44.0965" lon="6.65924">
        <ele>1992.8000488281</ele>
        <time>2021-08-21T09:03:09.000Z</time>
      </trkpt>
      <trkpt lat="44.09652" lon="6.65927">
        <ele>1992.1999511719</ele>
        <time>2021-08-21T09:03:10.000Z</time>
      </trkpt>
      <trkpt lat="44.09658" lon="6.65937">
        <ele>1990.8000488281</ele>
        <time>2021-08-21T09:03:12.000Z</time>
      </trkpt>
      <trkpt lat="44.09661" lon="6.65943">
        <ele>1990</ele>
        <time>2021-08-21T09:03:13.000Z</time>
      </trkpt>
      <trkpt lat="44.09664" lon="6.65949">
        <ele>1989.4000244141</ele>
        <time>2021-08-21T09:03:14.000Z</time>
      </trkpt>
      <trkpt lat="44.0967" lon="6.65961">
        <ele>1987.5999755859</ele>
        <time>2021-08-21T09:03:16.000Z</time>
      </trkpt>
      <trkpt lat="44.09673" lon="6.65966">
        <ele>1986.5999755859</ele>
        <time>2021-08-21T09:03:17.000Z</time>
      </trkpt>
      <trkpt lat="44.09677" lon="6.65972">
        <ele>1985.4000244141</ele>
        <time>2021-08-21T09:03:18.000Z</time>
      </trkpt>
      <trkpt lat="44.0968" lon="6.65977">
        <ele>1984.1999511719</ele>
        <time>2021-08-21T09:03:19.000Z</time>
      </trkpt>
      <trkpt lat="44.09683" lon="6.65983">
        <ele>1983</ele>
        <time>2021-08-21T09:03:20.000Z</time>
      </trkpt>
      <trkpt lat="44.09686" lon="6.65989">
        <ele>1982</ele>
        <time>2021-08-21T09:03:21.000Z</time>
      </trkpt>
      <trkpt lat="44.09691" lon="6.65998">
        <ele>1980.1999511719</ele>
        <time>2021-08-21T09:03:23.000Z</time>
      </trkpt>
      <trkpt lat="44.09694" lon="6.66002">
        <ele>1979.4000244141</ele>
        <time>2021-08-21T09:03:24.000Z</time>
      </trkpt>
      <trkpt lat="44.09697" lon="6.66006">
        <ele>1978.5999755859</ele>
        <time>2021-08-21T09:03:25.000Z</time>
      </trkpt>
      <trkpt lat="44.097" lon="6.6601">
        <ele>1977.5999755859</ele>
        <time>2021-08-21T09:03:26.000Z</time>
      </trkpt>
      <trkpt lat="44.09703" lon="6.66014">
        <ele>1976.5999755859</ele>
        <time>2021-08-21T09:03:27.000Z</time>
      </trkpt>
      <trkpt lat="44.0971" lon="6.66022">
        <ele>1974.5999755859</ele>
        <time>2021-08-21T09:03:29.000Z</time>
      </trkpt>
      <trkpt lat="44.09714" lon="6.66025">
        <ele>1973.8000488281</ele>
        <time>2021-08-21T09:03:30.000Z</time>
      </trkpt>
      <trkpt lat="44.09717" lon="6.66027">
        <ele>1973</ele>
        <time>2021-08-21T09:03:31.000Z</time>
      </trkpt>
      <trkpt lat="44.09723" lon="6.66032">
        <ele>1971.4000244141</ele>
        <time>2021-08-21T09:03:33.000Z</time>
      </trkpt>
      <trkpt lat="44.09728" lon="6.66036">
        <ele>1970</ele>
        <time>2021-08-21T09:03:35.000Z</time>
      </trkpt>
      <trkpt lat="44.09732" lon="6.6604">
        <ele>1968.5999755859</ele>
        <time>2021-08-21T09:03:37.000Z</time>
      </trkpt>
      <trkpt lat="44.09737" lon="6.66042">
        <ele>1967.4000244141</ele>
        <time>2021-08-21T09:03:39.000Z</time>
      </trkpt>
      <trkpt lat="44.09739" lon="6.66037">
        <ele>1966.1999511719</ele>
        <time>2021-08-21T09:03:42.000Z</time>
      </trkpt>
      <trkpt lat="44.09741" lon="6.66032">
        <ele>1965.5999755859</ele>
        <time>2021-08-21T09:03:44.000Z</time>
      </trkpt>
      <trkpt lat="44.09742" lon="6.66028">
        <ele>1965.5999755859</ele>
        <time>2021-08-21T09:03:48.000Z</time>
      </trkpt>
      <trkpt lat="44.09744" lon="6.66026">
        <ele>1966.1999511719</ele>
        <time>2021-08-21T09:03:57.000Z</time>
      </trkpt>
      <trkpt lat="44.09747" lon="6.66022">
        <ele>1966.8000488281</ele>
        <time>2021-08-21T09:04:04.000Z</time>
      </trkpt>
      <trkpt lat="44.09748" lon="6.6602">
        <ele>1967.1999511719</ele>
        <time>2021-08-21T09:04:07.000Z</time>
      </trkpt>
      <trkpt lat="44.0975" lon="6.66016">
        <ele>1967.5999755859</ele>
        <time>2021-08-21T09:04:11.000Z</time>
      </trkpt>
      <trkpt lat="44.0975" lon="6.66013">
        <ele>1968.1999511719</ele>
        <time>2021-08-21T09:04:14.000Z</time>
      </trkpt>
      <trkpt lat="44.09752" lon="6.66009">
        <ele>1969.1999511719</ele>
        <time>2021-08-21T09:04:19.000Z</time>
      </trkpt>
      <trkpt lat="44.09753" lon="6.66008">
        <ele>1969.4000244141</ele>
        <time>2021-08-21T09:04:20.000Z</time>
      </trkpt>
      <trkpt lat="44.09754" lon="6.66006">
        <ele>1969.8000488281</ele>
        <time>2021-08-21T09:04:25.000Z</time>
      </trkpt>
      <trkpt lat="44.09757" lon="6.66002">
        <ele>1970.1999511719</ele>
        <time>2021-08-21T09:04:28.000Z</time>
      </trkpt>
      <trkpt lat="44.09758" lon="6.66">
        <ele>1970.4000244141</ele>
        <time>2021-08-21T09:04:29.000Z</time>
      </trkpt>
      <trkpt lat="44.0976" lon="6.65998">
        <ele>1970.4000244141</ele>
        <time>2021-08-21T09:04:30.000Z</time>
      </trkpt>
      <trkpt lat="44.09772" lon="6.65983">
        <ele>1969.8000488281</ele>
        <time>2021-08-21T09:04:36.000Z</time>
      </trkpt>
      <trkpt lat="44.09783" lon="6.65958">
        <ele>1969.8000488281</ele>
        <time>2021-08-21T09:04:44.000Z</time>
      </trkpt>
      <trkpt lat="44.09793" lon="6.65932">
        <ele>1970.4000244141</ele>
        <time>2021-08-21T09:04:53.000Z</time>
      </trkpt>
      <trkpt lat="44.09801" lon="6.65927">
        <ele>1970.1999511719</ele>
        <time>2021-08-21T09:04:57.000Z</time>
      </trkpt>
      <trkpt lat="44.09803" lon="6.65928">
        <ele>1969.8000488281</ele>
        <time>2021-08-21T09:04:58.000Z</time>
      </trkpt>
      <trkpt lat="44.09808" lon="6.65932">
        <ele>1969.4000244141</ele>
        <time>2021-08-21T09:05:00.000Z</time>
      </trkpt>
      <trkpt lat="44.0981" lon="6.65935">
        <ele>1968.8000488281</ele>
        <time>2021-08-21T09:05:01.000Z</time>
      </trkpt>
      <trkpt lat="44.09813" lon="6.65936">
        <ele>1968.5999755859</ele>
        <time>2021-08-21T09:05:02.000Z</time>
      </trkpt>
      <trkpt lat="44.09816" lon="6.65938">
        <ele>1968</ele>
        <time>2021-08-21T09:05:03.000Z</time>
      </trkpt>
      <trkpt lat="44.09823" lon="6.65942">
        <ele>1966.5999755859</ele>
        <time>2021-08-21T09:05:05.000Z</time>
      </trkpt>
      <trkpt lat="44.0983" lon="6.65945">
        <ele>1965.4000244141</ele>
        <time>2021-08-21T09:05:07.000Z</time>
      </trkpt>
      <trkpt lat="44.09833" lon="6.65947">
        <ele>1964.8000488281</ele>
        <time>2021-08-21T09:05:08.000Z</time>
      </trkpt>
      <trkpt lat="44.09837" lon="6.65948">
        <ele>1964</ele>
        <time>2021-08-21T09:05:09.000Z</time>
      </trkpt>
      <trkpt lat="44.09845" lon="6.65947">
        <ele>1962.5999755859</ele>
        <time>2021-08-21T09:05:12.000Z</time>
      </trkpt>
      <trkpt lat="44.09851" lon="6.65944">
        <ele>1961.5999755859</ele>
        <time>2021-08-21T09:05:16.000Z</time>
      </trkpt>
      <trkpt lat="44.09851" lon="6.65939">
        <ele>1961.5999755859</ele>
        <time>2021-08-21T09:05:21.000Z</time>
      </trkpt>
      <trkpt lat="44.09849" lon="6.6593">
        <ele>1962.1999511719</ele>
        <time>2021-08-21T09:05:28.000Z</time>
      </trkpt>
      <trkpt lat="44.09849" lon="6.65928">
        <ele>1963.1999511719</ele>
        <time>2021-08-21T09:05:33.000Z</time>
      </trkpt>
      <trkpt lat="44.09849" lon="6.65926">
        <ele>1963.1999511719</ele>
        <time>2021-08-21T09:05:34.000Z</time>
      </trkpt>
      <trkpt lat="44.09845" lon="6.6592">
        <ele>1963</ele>
        <time>2021-08-21T09:05:37.000Z</time>
      </trkpt>
      <trkpt lat="44.09844" lon="6.65919">
        <ele>1963</ele>
        <time>2021-08-21T09:05:38.000Z</time>
      </trkpt>
      <trkpt lat="44.0984" lon="6.65912">
        <ele>1963.5999755859</ele>
        <time>2021-08-21T09:05:43.000Z</time>
      </trkpt>
      <trkpt lat="44.0984" lon="6.6591">
        <ele>1963.5999755859</ele>
        <time>2021-08-21T09:05:44.000Z</time>
      </trkpt>
      <trkpt lat="44.09842" lon="6.65906">
        <ele>1964.4000244141</ele>
        <time>2021-08-21T09:05:48.000Z</time>
      </trkpt>
      <trkpt lat="44.09844" lon="6.65902">
        <ele>1964.5999755859</ele>
        <time>2021-08-21T09:05:52.000Z</time>
      </trkpt>
      <trkpt lat="44.09844" lon="6.65899">
        <ele>1964.5999755859</ele>
        <time>2021-08-21T09:05:53.000Z</time>
      </trkpt>
      <trkpt lat="44.09843" lon="6.65898">
        <ele>1964.8000488281</ele>
        <time>2021-08-21T09:05:54.000Z</time>
      </trkpt>
      <trkpt lat="44.09838" lon="6.65892">
        <ele>1965.8000488281</ele>
        <time>2021-08-21T09:05:59.000Z</time>
      </trkpt>
      <trkpt lat="44.09838" lon="6.65889">
        <ele>1966</ele>
        <time>2021-08-21T09:06:01.000Z</time>
      </trkpt>
      <trkpt lat="44.09836" lon="6.65886">
        <ele>1966.8000488281</ele>
        <time>2021-08-21T09:06:04.000Z</time>
      </trkpt>
      <trkpt lat="44.09835" lon="6.65881">
        <ele>1967.8000488281</ele>
        <time>2021-08-21T09:06:08.000Z</time>
      </trkpt>
      <trkpt lat="44.09834" lon="6.65878">
        <ele>1968.1999511719</ele>
        <time>2021-08-21T09:06:10.000Z</time>
      </trkpt>
      <trkpt lat="44.09834" lon="6.65874">
        <ele>1968.8000488281</ele>
        <time>2021-08-21T09:06:13.000Z</time>
      </trkpt>
      <trkpt lat="44.09835" lon="6.6587">
        <ele>1969.4000244141</ele>
        <time>2021-08-21T09:06:16.000Z</time>
      </trkpt>
      <trkpt lat="44.09836" lon="6.65868">
        <ele>1970</ele>
        <time>2021-08-21T09:06:19.000Z</time>
      </trkpt>
      <trkpt lat="44.09837" lon="6.65866">
        <ele>1970.8000488281</ele>
        <time>2021-08-21T09:06:22.000Z</time>
      </trkpt>
      <trkpt lat="44.09838" lon="6.65864">
        <ele>1971.1999511719</ele>
        <time>2021-08-21T09:06:26.000Z</time>
      </trkpt>
      <trkpt lat="44.09838" lon="6.65863">
        <ele>1971.5999755859</ele>
        <time>2021-08-21T09:06:30.000Z</time>
      </trkpt>
      <trkpt lat="44.09839" lon="6.65862">
        <ele>1972.1999511719</ele>
        <time>2021-08-21T09:06:32.000Z</time>
      </trkpt>
      <trkpt lat="44.0984" lon="6.65861">
        <ele>1973.4000244141</ele>
        <time>2021-08-21T09:06:36.000Z</time>
      </trkpt>
      <trkpt lat="44.09844" lon="6.65858">
        <ele>1974.1999511719</ele>
        <time>2021-08-21T09:06:43.000Z</time>
      </trkpt>
      <trkpt lat="44.09844" lon="6.65858">
        <ele>1974.4000244141</ele>
        <time>2021-08-21T09:06:44.000Z</time>
      </trkpt>
      <trkpt lat="44.09846" lon="6.65855">
        <ele>1975.1999511719</ele>
        <time>2021-08-21T09:06:50.000Z</time>
      </trkpt>
      <trkpt lat="44.09847" lon="6.65854">
        <ele>1975.5999755859</ele>
        <time>2021-08-21T09:06:52.000Z</time>
      </trkpt>
      <trkpt lat="44.09848" lon="6.65852">
        <ele>1975.8000488281</ele>
        <time>2021-08-21T09:06:56.000Z</time>
      </trkpt>
      <trkpt lat="44.09851" lon="6.65844">
        <ele>1976.4000244141</ele>
        <time>2021-08-21T09:07:02.000Z</time>
      </trkpt>
      <trkpt lat="44.09852" lon="6.65841">
        <ele>1976.5999755859</ele>
        <time>2021-08-21T09:07:04.000Z</time>
      </trkpt>
      <trkpt lat="44.09854" lon="6.65838">
        <ele>1977</ele>
        <time>2021-08-21T09:07:06.000Z</time>
      </trkpt>
      <trkpt lat="44.09856" lon="6.65831">
        <ele>1977.4000244141</ele>
        <time>2021-08-21T09:07:11.000Z</time>
      </trkpt>
      <trkpt lat="44.09858" lon="6.65826">
        <ele>1977.8000488281</ele>
        <time>2021-08-21T09:07:14.000Z</time>
      </trkpt>
      <trkpt lat="44.0986" lon="6.65819">
        <ele>1978.1999511719</ele>
        <time>2021-08-21T09:07:17.000Z</time>
      </trkpt>
      <trkpt lat="44.0986" lon="6.65815">
        <ele>1978.5999755859</ele>
        <time>2021-08-21T09:07:19.000Z</time>
      </trkpt>
      <trkpt lat="44.09861" lon="6.65811">
        <ele>1978.8000488281</ele>
        <time>2021-08-21T09:07:21.000Z</time>
      </trkpt>
      <trkpt lat="44.09862" lon="6.65808">
        <ele>1978.8000488281</ele>
        <time>2021-08-21T09:07:22.000Z</time>
      </trkpt>
      <trkpt lat="44.09864" lon="6.65799">
        <ele>1979.4000244141</ele>
        <time>2021-08-21T09:07:26.000Z</time>
      </trkpt>
      <trkpt lat="44.09867" lon="6.6579">
        <ele>1979.8000488281</ele>
        <time>2021-08-21T09:07:30.000Z</time>
      </trkpt>
      <trkpt lat="44.09869" lon="6.65787">
        <ele>1980.1999511719</ele>
        <time>2021-08-21T09:07:32.000Z</time>
      </trkpt>
      <trkpt lat="44.09873" lon="6.65779">
        <ele>1980.5999755859</ele>
        <time>2021-08-21T09:07:36.000Z</time>
      </trkpt>
      <trkpt lat="44.09875" lon="6.65774">
        <ele>1980.8000488281</ele>
        <time>2021-08-21T09:07:39.000Z</time>
      </trkpt>
      <trkpt lat="44.09879" lon="6.65767">
        <ele>1981.1999511719</ele>
        <time>2021-08-21T09:07:43.000Z</time>
      </trkpt>
      <trkpt lat="44.09886" lon="6.65755">
        <ele>1982</ele>
        <time>2021-08-21T09:07:48.000Z</time>
      </trkpt>
      <trkpt lat="44.0989" lon="6.65747">
        <ele>1982.4000244141</ele>
        <time>2021-08-21T09:07:52.000Z</time>
      </trkpt>
      <trkpt lat="44.09892" lon="6.65744">
        <ele>1982.5999755859</ele>
        <time>2021-08-21T09:07:53.000Z</time>
      </trkpt>
      <trkpt lat="44.09894" lon="6.65739">
        <ele>1983</ele>
        <time>2021-08-21T09:07:55.000Z</time>
      </trkpt>
      <trkpt lat="44.09897" lon="6.65732">
        <ele>1983.4000244141</ele>
        <time>2021-08-21T09:07:57.000Z</time>
      </trkpt>
      <trkpt lat="44.099" lon="6.65724">
        <ele>1984</ele>
        <time>2021-08-21T09:08:01.000Z</time>
      </trkpt>
      <trkpt lat="44.09902" lon="6.6572">
        <ele>1984</ele>
        <time>2021-08-21T09:08:03.000Z</time>
      </trkpt>
      <trkpt lat="44.09907" lon="6.65707">
        <ele>1984.5999755859</ele>
        <time>2021-08-21T09:08:07.000Z</time>
      </trkpt>
      <trkpt lat="44.09911" lon="6.65698">
        <ele>1985.1999511719</ele>
        <time>2021-08-21T09:08:11.000Z</time>
      </trkpt>
      <trkpt lat="44.09911" lon="6.65696">
        <ele>1985.1999511719</ele>
        <time>2021-08-21T09:08:12.000Z</time>
      </trkpt>
      <trkpt lat="44.09914" lon="6.65688">
        <ele>1985.8000488281</ele>
        <time>2021-08-21T09:08:16.000Z</time>
      </trkpt>
      <trkpt lat="44.09916" lon="6.65685">
        <ele>1986</ele>
        <time>2021-08-21T09:08:17.000Z</time>
      </trkpt>
      <trkpt lat="44.09918" lon="6.65679">
        <ele>1986.1999511719</ele>
        <time>2021-08-21T09:08:19.000Z</time>
      </trkpt>
      <trkpt lat="44.09924" lon="6.65664">
        <ele>1987</ele>
        <time>2021-08-21T09:08:24.000Z</time>
      </trkpt>
      <trkpt lat="44.09924" lon="6.65662">
        <ele>1987</ele>
        <time>2021-08-21T09:08:25.000Z</time>
      </trkpt>
      <trkpt lat="44.09926" lon="6.6566">
        <ele>1987.1999511719</ele>
        <time>2021-08-21T09:08:26.000Z</time>
      </trkpt>
      <trkpt lat="44.09926" lon="6.65658">
        <ele>1987.1999511719</ele>
        <time>2021-08-21T09:08:27.000Z</time>
      </trkpt>
      <trkpt lat="44.09931" lon="6.65646">
        <ele>1987.5999755859</ele>
        <time>2021-08-21T09:08:32.000Z</time>
      </trkpt>
      <trkpt lat="44.09934" lon="6.65638">
        <ele>1988.1999511719</ele>
        <time>2021-08-21T09:08:35.000Z</time>
      </trkpt>
      <trkpt lat="44.09935" lon="6.65634">
        <ele>1988.5999755859</ele>
        <time>2021-08-21T09:08:37.000Z</time>
      </trkpt>
      <trkpt lat="44.09938" lon="6.65623">
        <ele>1989</ele>
        <time>2021-08-21T09:08:41.000Z</time>
      </trkpt>
      <trkpt lat="44.09938" lon="6.65621">
        <ele>1989.1999511719</ele>
        <time>2021-08-21T09:08:42.000Z</time>
      </trkpt>
      <trkpt lat="44.0994" lon="6.65613">
        <ele>1989.4000244141</ele>
        <time>2021-08-21T09:08:44.000Z</time>
      </trkpt>
      <trkpt lat="44.09942" lon="6.65608">
        <ele>1989.5999755859</ele>
        <time>2021-08-21T09:08:46.000Z</time>
      </trkpt>
      <trkpt lat="44.09944" lon="6.65595">
        <ele>1990.4000244141</ele>
        <time>2021-08-21T09:08:51.000Z</time>
      </trkpt>
      <trkpt lat="44.09944" lon="6.65593">
        <ele>1990.5999755859</ele>
        <time>2021-08-21T09:08:52.000Z</time>
      </trkpt>
      <trkpt lat="44.09946" lon="6.65585">
        <ele>1991.4000244141</ele>
        <time>2021-08-21T09:08:56.000Z</time>
      </trkpt>
      <trkpt lat="44.09947" lon="6.65582">
        <ele>1991.5999755859</ele>
        <time>2021-08-21T09:08:57.000Z</time>
      </trkpt>
      <trkpt lat="44.09948" lon="6.65579">
        <ele>1991.5999755859</ele>
        <time>2021-08-21T09:08:58.000Z</time>
      </trkpt>
      <trkpt lat="44.0995" lon="6.65566">
        <ele>1992.4000244141</ele>
        <time>2021-08-21T09:09:04.000Z</time>
      </trkpt>
      <trkpt lat="44.0995" lon="6.65567">
        <ele>1992.5999755859</ele>
        <time>2021-08-21T09:09:05.000Z</time>
      </trkpt>
      <trkpt lat="44.09952" lon="6.65554">
        <ele>1993.1999511719</ele>
        <time>2021-08-21T09:09:09.000Z</time>
      </trkpt>
      <trkpt lat="44.09953" lon="6.65544">
        <ele>1993.8000488281</ele>
        <time>2021-08-21T09:09:13.000Z</time>
      </trkpt>
      <trkpt lat="44.09955" lon="6.65539">
        <ele>1994</ele>
        <time>2021-08-21T09:09:15.000Z</time>
      </trkpt>
      <trkpt lat="44.09957" lon="6.65523">
        <ele>1994.8000488281</ele>
        <time>2021-08-21T09:09:20.000Z</time>
      </trkpt>
      <trkpt lat="44.09957" lon="6.65521">
        <ele>1994.8000488281</ele>
        <time>2021-08-21T09:09:21.000Z</time>
      </trkpt>
      <trkpt lat="44.09959" lon="6.65507">
        <ele>1995.4000244141</ele>
        <time>2021-08-21T09:09:26.000Z</time>
      </trkpt>
      <trkpt lat="44.09959" lon="6.65499">
        <ele>1995.8000488281</ele>
        <time>2021-08-21T09:09:29.000Z</time>
      </trkpt>
      <trkpt lat="44.0996" lon="6.65497">
        <ele>1996</ele>
        <time>2021-08-21T09:09:30.000Z</time>
      </trkpt>
      <trkpt lat="44.0996" lon="6.65494">
        <ele>1996.1999511719</ele>
        <time>2021-08-21T09:09:31.000Z</time>
      </trkpt>
      <trkpt lat="44.09962" lon="6.6548">
        <ele>1997</ele>
        <time>2021-08-21T09:09:36.000Z</time>
      </trkpt>
      <trkpt lat="44.09962" lon="6.65478">
        <ele>1997.1999511719</ele>
        <time>2021-08-21T09:09:37.000Z</time>
      </trkpt>
      <trkpt lat="44.09962" lon="6.65465">
        <ele>1997.8000488281</ele>
        <time>2021-08-21T09:09:41.000Z</time>
      </trkpt>
      <trkpt lat="44.09964" lon="6.65452">
        <ele>1998.1999511719</ele>
        <time>2021-08-21T09:09:45.000Z</time>
      </trkpt>
      <trkpt lat="44.09965" lon="6.65449">
        <ele>1998.1999511719</ele>
        <time>2021-08-21T09:09:46.000Z</time>
      </trkpt>
      <trkpt lat="44.09966" lon="6.65437">
        <ele>1999</ele>
        <time>2021-08-21T09:09:50.000Z</time>
      </trkpt>
      <trkpt lat="44.09967" lon="6.65434">
        <ele>1999.1999511719</ele>
        <time>2021-08-21T09:09:51.000Z</time>
      </trkpt>
      <trkpt lat="44.09968" lon="6.65432">
        <ele>1999.1999511719</ele>
        <time>2021-08-21T09:09:52.000Z</time>
      </trkpt>
      <trkpt lat="44.09972" lon="6.65424">
        <ele>1999.5999755859</ele>
        <time>2021-08-21T09:09:55.000Z</time>
      </trkpt>
      <trkpt lat="44.0998" lon="6.65418">
        <ele>2000.1999511719</ele>
        <time>2021-08-21T09:10:01.000Z</time>
      </trkpt>
      <trkpt lat="44.09982" lon="6.65416">
        <ele>2000.1999511719</ele>
        <time>2021-08-21T09:10:02.000Z</time>
      </trkpt>
      <trkpt lat="44.09985" lon="6.65414">
        <ele>2000.8000488281</ele>
        <time>2021-08-21T09:10:05.000Z</time>
      </trkpt>
      <trkpt lat="44.09989" lon="6.65413">
        <ele>2001</ele>
        <time>2021-08-21T09:10:07.000Z</time>
      </trkpt>
      <trkpt lat="44.09992" lon="6.65412">
        <ele>2001.1999511719</ele>
        <time>2021-08-21T09:10:09.000Z</time>
      </trkpt>
      <trkpt lat="44.09996" lon="6.65411">
        <ele>2001.5999755859</ele>
        <time>2021-08-21T09:10:12.000Z</time>
      </trkpt>
      <trkpt lat="44.10004" lon="6.65412">
        <ele>2002.1999511719</ele>
        <time>2021-08-21T09:10:18.000Z</time>
      </trkpt>
      <trkpt lat="44.10006" lon="6.65412">
        <ele>2002.4000244141</ele>
        <time>2021-08-21T09:10:19.000Z</time>
      </trkpt>
      <trkpt lat="44.10008" lon="6.65413">
        <ele>2002.4000244141</ele>
        <time>2021-08-21T09:10:20.000Z</time>
      </trkpt>
      <trkpt lat="44.10016" lon="6.65414">
        <ele>2003</ele>
        <time>2021-08-21T09:10:24.000Z</time>
      </trkpt>
      <trkpt lat="44.10023" lon="6.65417">
        <ele>2003.4000244141</ele>
        <time>2021-08-21T09:10:28.000Z</time>
      </trkpt>
      <trkpt lat="44.10023" lon="6.65417">
        <ele>2003.5999755859</ele>
        <time>2021-08-21T09:10:29.000Z</time>
      </trkpt>
      <trkpt lat="44.10025" lon="6.65417">
        <ele>2003.8000488281</ele>
        <time>2021-08-21T09:10:30.000Z</time>
      </trkpt>
      <trkpt lat="44.1003" lon="6.65419">
        <ele>2004.5999755859</ele>
        <time>2021-08-21T09:10:33.000Z</time>
      </trkpt>
      <trkpt lat="44.10032" lon="6.6542">
        <ele>2004.8000488281</ele>
        <time>2021-08-21T09:10:34.000Z</time>
      </trkpt>
      <trkpt lat="44.1004" lon="6.65422">
        <ele>2005.5999755859</ele>
        <time>2021-08-21T09:10:39.000Z</time>
      </trkpt>
      <trkpt lat="44.10048" lon="6.65424">
        <ele>2006.4000244141</ele>
        <time>2021-08-21T09:10:44.000Z</time>
      </trkpt>
      <trkpt lat="44.10053" lon="6.65427">
        <ele>2006.5999755859</ele>
        <time>2021-08-21T09:10:47.000Z</time>
      </trkpt>
      <trkpt lat="44.10056" lon="6.65428">
        <ele>2007</ele>
        <time>2021-08-21T09:10:50.000Z</time>
      </trkpt>
      <trkpt lat="44.10061" lon="6.65431">
        <ele>2008</ele>
        <time>2021-08-21T09:10:54.000Z</time>
      </trkpt>
      <trkpt lat="44.10064" lon="6.65433">
        <ele>2008.1999511719</ele>
        <time>2021-08-21T09:10:56.000Z</time>
      </trkpt>
      <trkpt lat="44.10068" lon="6.65435">
        <ele>2008.8000488281</ele>
        <time>2021-08-21T09:10:59.000Z</time>
      </trkpt>
      <trkpt lat="44.1007" lon="6.65436">
        <ele>2009</ele>
        <time>2021-08-21T09:11:00.000Z</time>
      </trkpt>
      <trkpt lat="44.10073" lon="6.65438">
        <ele>2009.1999511719</ele>
        <time>2021-08-21T09:11:02.000Z</time>
      </trkpt>
      <trkpt lat="44.10078" lon="6.65443">
        <ele>2010.1999511719</ele>
        <time>2021-08-21T09:11:08.000Z</time>
      </trkpt>
      <trkpt lat="44.1008" lon="6.65445">
        <ele>2010.4000244141</ele>
        <time>2021-08-21T09:11:10.000Z</time>
      </trkpt>
      <trkpt lat="44.10083" lon="6.65447">
        <ele>2010.5999755859</ele>
        <time>2021-08-21T09:11:12.000Z</time>
      </trkpt>
      <trkpt lat="44.10086" lon="6.6545">
        <ele>2011.1999511719</ele>
        <time>2021-08-21T09:11:15.000Z</time>
      </trkpt>
      <trkpt lat="44.10088" lon="6.65452">
        <ele>2011.5999755859</ele>
        <time>2021-08-21T09:11:17.000Z</time>
      </trkpt>
      <trkpt lat="44.10091" lon="6.65454">
        <ele>2012.1999511719</ele>
        <time>2021-08-21T09:11:21.000Z</time>
      </trkpt>
      <trkpt lat="44.10093" lon="6.65456">
        <ele>2012.4000244141</ele>
        <time>2021-08-21T09:11:23.000Z</time>
      </trkpt>
      <trkpt lat="44.10096" lon="6.65458">
        <ele>2012.8000488281</ele>
        <time>2021-08-21T09:11:25.000Z</time>
      </trkpt>
      <trkpt lat="44.101" lon="6.65461">
        <ele>2013.1999511719</ele>
        <time>2021-08-21T09:11:28.000Z</time>
      </trkpt>
      <trkpt lat="44.10102" lon="6.65463">
        <ele>2013.4000244141</ele>
        <time>2021-08-21T09:11:29.000Z</time>
      </trkpt>
      <trkpt lat="44.10103" lon="6.65464">
        <ele>2013.5999755859</ele>
        <time>2021-08-21T09:11:30.000Z</time>
      </trkpt>
      <trkpt lat="44.10108" lon="6.6547">
        <ele>2014.1999511719</ele>
        <time>2021-08-21T09:11:35.000Z</time>
      </trkpt>
      <trkpt lat="44.10113" lon="6.65473">
        <ele>2014.8000488281</ele>
        <time>2021-08-21T09:11:40.000Z</time>
      </trkpt>
      <trkpt lat="44.10114" lon="6.65475">
        <ele>2015</ele>
        <time>2021-08-21T09:11:41.000Z</time>
      </trkpt>
      <trkpt lat="44.10116" lon="6.65479">
        <ele>2015.4000244141</ele>
        <time>2021-08-21T09:11:43.000Z</time>
      </trkpt>
      <trkpt lat="44.10117" lon="6.6548">
        <ele>2015.5999755859</ele>
        <time>2021-08-21T09:11:44.000Z</time>
      </trkpt>
      <trkpt lat="44.10125" lon="6.65486">
        <ele>2016.4000244141</ele>
        <time>2021-08-21T09:11:50.000Z</time>
      </trkpt>
      <trkpt lat="44.1013" lon="6.6549">
        <ele>2017</ele>
        <time>2021-08-21T09:11:54.000Z</time>
      </trkpt>
      <trkpt lat="44.10133" lon="6.65493">
        <ele>2017.1999511719</ele>
        <time>2021-08-21T09:11:56.000Z</time>
      </trkpt>
      <trkpt lat="44.10135" lon="6.65495">
        <ele>2017.5999755859</ele>
        <time>2021-08-21T09:11:58.000Z</time>
      </trkpt>
      <trkpt lat="44.10135" lon="6.65496">
        <ele>2017.5999755859</ele>
        <time>2021-08-21T09:11:59.000Z</time>
      </trkpt>
      <trkpt lat="44.10137" lon="6.65498">
        <ele>2017.8000488281</ele>
        <time>2021-08-21T09:12:00.000Z</time>
      </trkpt>
      <trkpt lat="44.10137" lon="6.65498">
        <ele>2018.1999511719</ele>
        <time>2021-08-21T09:12:02.000Z</time>
      </trkpt>
      <trkpt lat="44.10142" lon="6.65504">
        <ele>2018.5999755859</ele>
        <time>2021-08-21T09:12:05.000Z</time>
      </trkpt>
      <trkpt lat="44.10149" lon="6.65511">
        <ele>2019.5999755859</ele>
        <time>2021-08-21T09:12:10.000Z</time>
      </trkpt>
      <trkpt lat="44.10157" lon="6.65516">
        <ele>2020.4000244141</ele>
        <time>2021-08-21T09:12:16.000Z</time>
      </trkpt>
      <trkpt lat="44.10161" lon="6.65521">
        <ele>2020.8000488281</ele>
        <time>2021-08-21T09:12:19.000Z</time>
      </trkpt>
      <trkpt lat="44.10164" lon="6.65523">
        <ele>2021</ele>
        <time>2021-08-21T09:12:21.000Z</time>
      </trkpt>
      <trkpt lat="44.10165" lon="6.65525">
        <ele>2021</ele>
        <time>2021-08-21T09:12:22.000Z</time>
      </trkpt>
      <trkpt lat="44.10167" lon="6.65525">
        <ele>2021.1999511719</ele>
        <time>2021-08-21T09:12:23.000Z</time>
      </trkpt>
      <trkpt lat="44.1017" lon="6.65528">
        <ele>2021.8000488281</ele>
        <time>2021-08-21T09:12:26.000Z</time>
      </trkpt>
      <trkpt lat="44.1017" lon="6.65528">
        <ele>2022</ele>
        <time>2021-08-21T09:12:27.000Z</time>
      </trkpt>
      <trkpt lat="44.10173" lon="6.65529">
        <ele>2022.1999511719</ele>
        <time>2021-08-21T09:12:29.000Z</time>
      </trkpt>
      <trkpt lat="44.10177" lon="6.65533">
        <ele>2022.4000244141</ele>
        <time>2021-08-21T09:12:31.000Z</time>
      </trkpt>
      <trkpt lat="44.10179" lon="6.65535">
        <ele>2022.8000488281</ele>
        <time>2021-08-21T09:12:33.000Z</time>
      </trkpt>
      <trkpt lat="44.10182" lon="6.65538">
        <ele>2023.4000244141</ele>
        <time>2021-08-21T09:12:36.000Z</time>
      </trkpt>
      <trkpt lat="44.10188" lon="6.65543">
        <ele>2023.8000488281</ele>
        <time>2021-08-21T09:12:41.000Z</time>
      </trkpt>
      <trkpt lat="44.10197" lon="6.65552">
        <ele>2024.5999755859</ele>
        <time>2021-08-21T09:12:46.000Z</time>
      </trkpt>
      <trkpt lat="44.102" lon="6.65554">
        <ele>2024.8000488281</ele>
        <time>2021-08-21T09:12:48.000Z</time>
      </trkpt>
      <trkpt lat="44.10204" lon="6.65558">
        <ele>2025.4000244141</ele>
        <time>2021-08-21T09:12:52.000Z</time>
      </trkpt>
      <trkpt lat="44.10208" lon="6.65562">
        <ele>2026</ele>
        <time>2021-08-21T09:12:56.000Z</time>
      </trkpt>
      <trkpt lat="44.1021" lon="6.65564">
        <ele>2026</ele>
        <time>2021-08-21T09:12:57.000Z</time>
      </trkpt>
      <trkpt lat="44.10213" lon="6.65569">
        <ele>2026.4000244141</ele>
        <time>2021-08-21T09:13:01.000Z</time>
      </trkpt>
      <trkpt lat="44.10218" lon="6.65575">
        <ele>2027</ele>
        <time>2021-08-21T09:13:05.000Z</time>
      </trkpt>
      <trkpt lat="44.10221" lon="6.65579">
        <ele>2027.1999511719</ele>
        <time>2021-08-21T09:13:07.000Z</time>
      </trkpt>
      <trkpt lat="44.10229" lon="6.65591">
        <ele>2028</ele>
        <time>2021-08-21T09:13:13.000Z</time>
      </trkpt>
      <trkpt lat="44.10231" lon="6.65593">
        <ele>2028.1999511719</ele>
        <time>2021-08-21T09:13:14.000Z</time>
      </trkpt>
      <trkpt lat="44.10236" lon="6.656">
        <ele>2029</ele>
        <time>2021-08-21T09:13:18.000Z</time>
      </trkpt>
      <trkpt lat="44.10236" lon="6.65599">
        <ele>2029</ele>
        <time>2021-08-21T09:13:19.000Z</time>
      </trkpt>
      <trkpt lat="44.10242" lon="6.65606">
        <ele>2029.5999755859</ele>
        <time>2021-08-21T09:13:22.000Z</time>
      </trkpt>
      <trkpt lat="44.1025" lon="6.65615">
        <ele>2030.1999511719</ele>
        <time>2021-08-21T09:13:26.000Z</time>
      </trkpt>
      <trkpt lat="44.10251" lon="6.65615">
        <ele>2030.4000244141</ele>
        <time>2021-08-21T09:13:28.000Z</time>
      </trkpt>
      <trkpt lat="44.1026" lon="6.65624">
        <ele>2031.1999511719</ele>
        <time>2021-08-21T09:13:32.000Z</time>
      </trkpt>
      <trkpt lat="44.10261" lon="6.65627">
        <ele>2031.4000244141</ele>
        <time>2021-08-21T09:13:33.000Z</time>
      </trkpt>
      <trkpt lat="44.10268" lon="6.65636">
        <ele>2032.4000244141</ele>
        <time>2021-08-21T09:13:37.000Z</time>
      </trkpt>
      <trkpt lat="44.10272" lon="6.65641">
        <ele>2033.4000244141</ele>
        <time>2021-08-21T09:13:40.000Z</time>
      </trkpt>
      <trkpt lat="44.10275" lon="6.65646">
        <ele>2034.4000244141</ele>
        <time>2021-08-21T09:13:43.000Z</time>
      </trkpt>
      <trkpt lat="44.10277" lon="6.65648">
        <ele>2034.5999755859</ele>
        <time>2021-08-21T09:13:44.000Z</time>
      </trkpt>
      <trkpt lat="44.10279" lon="6.65652">
        <ele>2034.8000488281</ele>
        <time>2021-08-21T09:13:46.000Z</time>
      </trkpt>
      <trkpt lat="44.10285" lon="6.65662">
        <ele>2035.8000488281</ele>
        <time>2021-08-21T09:13:51.000Z</time>
      </trkpt>
      <trkpt lat="44.10287" lon="6.65666">
        <ele>2036.1999511719</ele>
        <time>2021-08-21T09:13:53.000Z</time>
      </trkpt>
      <trkpt lat="44.10289" lon="6.65669">
        <ele>2036.8000488281</ele>
        <time>2021-08-21T09:13:55.000Z</time>
      </trkpt>
      <trkpt lat="44.10292" lon="6.65672">
        <ele>2037.4000244141</ele>
        <time>2021-08-21T09:13:57.000Z</time>
      </trkpt>
      <trkpt lat="44.10294" lon="6.65673">
        <ele>2038</ele>
        <time>2021-08-21T09:14:00.000Z</time>
      </trkpt>
      <trkpt lat="44.10297" lon="6.65678">
        <ele>2038.4000244141</ele>
        <time>2021-08-21T09:14:02.000Z</time>
      </trkpt>
      <trkpt lat="44.103" lon="6.65681">
        <ele>2038.8000488281</ele>
        <time>2021-08-21T09:14:06.000Z</time>
      </trkpt>
      <trkpt lat="44.10303" lon="6.65683">
        <ele>2039</ele>
        <time>2021-08-21T09:14:09.000Z</time>
      </trkpt>
      <trkpt lat="44.10305" lon="6.65686">
        <ele>2039.4000244141</ele>
        <time>2021-08-21T09:14:12.000Z</time>
      </trkpt>
      <trkpt lat="44.1031" lon="6.65694">
        <ele>2039.8000488281</ele>
        <time>2021-08-21T09:14:19.000Z</time>
      </trkpt>
      <trkpt lat="44.10311" lon="6.65695">
        <ele>2040.1999511719</ele>
        <time>2021-08-21T09:14:21.000Z</time>
      </trkpt>
      <trkpt lat="44.10312" lon="6.65699">
        <ele>2040.4000244141</ele>
        <time>2021-08-21T09:14:24.000Z</time>
      </trkpt>
      <trkpt lat="44.10318" lon="6.65706">
        <ele>2041</ele>
        <time>2021-08-21T09:14:30.000Z</time>
      </trkpt>
      <trkpt lat="44.10319" lon="6.65708">
        <ele>2041.1999511719</ele>
        <time>2021-08-21T09:14:31.000Z</time>
      </trkpt>
      <trkpt lat="44.10324" lon="6.65714">
        <ele>2041.8000488281</ele>
        <time>2021-08-21T09:14:35.000Z</time>
      </trkpt>
      <trkpt lat="44.10325" lon="6.65716">
        <ele>2042.1999511719</ele>
        <time>2021-08-21T09:14:37.000Z</time>
      </trkpt>
      <trkpt lat="44.1033" lon="6.65723">
        <ele>2042.5999755859</ele>
        <time>2021-08-21T09:14:41.000Z</time>
      </trkpt>
      <trkpt lat="44.10334" lon="6.65729">
        <ele>2043.1999511719</ele>
        <time>2021-08-21T09:14:45.000Z</time>
      </trkpt>
      <trkpt lat="44.10336" lon="6.65731">
        <ele>2043.8000488281</ele>
        <time>2021-08-21T09:14:47.000Z</time>
      </trkpt>
      <trkpt lat="44.10338" lon="6.65734">
        <ele>2044.1999511719</ele>
        <time>2021-08-21T09:14:49.000Z</time>
      </trkpt>
      <trkpt lat="44.10339" lon="6.65735">
        <ele>2044.1999511719</ele>
        <time>2021-08-21T09:14:50.000Z</time>
      </trkpt>
      <trkpt lat="44.10342" lon="6.65738">
        <ele>2044.8000488281</ele>
        <time>2021-08-21T09:14:53.000Z</time>
      </trkpt>
      <trkpt lat="44.10343" lon="6.6574">
        <ele>2045</ele>
        <time>2021-08-21T09:14:54.000Z</time>
      </trkpt>
      <trkpt lat="44.10344" lon="6.65741">
        <ele>2045.4000244141</ele>
        <time>2021-08-21T09:14:55.000Z</time>
      </trkpt>
      <trkpt lat="44.10349" lon="6.65747">
        <ele>2046</ele>
        <time>2021-08-21T09:14:59.000Z</time>
      </trkpt>
      <trkpt lat="44.1035" lon="6.65749">
        <ele>2046.4000244141</ele>
        <time>2021-08-21T09:15:01.000Z</time>
      </trkpt>
      <trkpt lat="44.10353" lon="6.65751">
        <ele>2047</ele>
        <time>2021-08-21T09:15:03.000Z</time>
      </trkpt>
      <trkpt lat="44.10353" lon="6.65752">
        <ele>2047.4000244141</ele>
        <time>2021-08-21T09:15:05.000Z</time>
      </trkpt>
      <trkpt lat="44.10361" lon="6.65759">
        <ele>2048.1999511719</ele>
        <time>2021-08-21T09:15:10.000Z</time>
      </trkpt>
      <trkpt lat="44.10364" lon="6.65763">
        <ele>2048.6000976562</ele>
        <time>2021-08-21T09:15:12.000Z</time>
      </trkpt>
      <trkpt lat="44.10367" lon="6.65766">
        <ele>2048.8000488281</ele>
        <time>2021-08-21T09:15:15.000Z</time>
      </trkpt>
      <trkpt lat="44.10368" lon="6.65767">
        <ele>2049</ele>
        <time>2021-08-21T09:15:16.000Z</time>
      </trkpt>
      <trkpt lat="44.10371" lon="6.6577">
        <ele>2049.3999023438</ele>
        <time>2021-08-21T09:15:18.000Z</time>
      </trkpt>
      <trkpt lat="44.10374" lon="6.65772">
        <ele>2049.6000976562</ele>
        <time>2021-08-21T09:15:19.000Z</time>
      </trkpt>
      <trkpt lat="44.10376" lon="6.65773">
        <ele>2049.8000488281</ele>
        <time>2021-08-21T09:15:20.000Z</time>
      </trkpt>
      <trkpt lat="44.10378" lon="6.65775">
        <ele>2050</ele>
        <time>2021-08-21T09:15:22.000Z</time>
      </trkpt>
      <trkpt lat="44.1038" lon="6.65778">
        <ele>2050.1999511719</ele>
        <time>2021-08-21T09:15:24.000Z</time>
      </trkpt>
      <trkpt lat="44.10379" lon="6.65777">
        <ele>2050.3999023438</ele>
        <time>2021-08-21T09:15:25.000Z</time>
      </trkpt>
      <trkpt lat="44.10381" lon="6.6578">
        <ele>2050.6000976562</ele>
        <time>2021-08-21T09:15:27.000Z</time>
      </trkpt>
      <trkpt lat="44.10386" lon="6.65785">
        <ele>2051.6000976562</ele>
        <time>2021-08-21T09:15:32.000Z</time>
      </trkpt>
      <trkpt lat="44.10387" lon="6.65785">
        <ele>2051.8000488281</ele>
        <time>2021-08-21T09:15:33.000Z</time>
      </trkpt>
      <trkpt lat="44.10391" lon="6.65791">
        <ele>2052.3999023438</ele>
        <time>2021-08-21T09:15:37.000Z</time>
      </trkpt>
      <trkpt lat="44.10392" lon="6.65792">
        <ele>2052.8000488281</ele>
        <time>2021-08-21T09:15:38.000Z</time>
      </trkpt>
      <trkpt lat="44.10395" lon="6.65796">
        <ele>2054</ele>
        <time>2021-08-21T09:15:42.000Z</time>
      </trkpt>
      <trkpt lat="44.10396" lon="6.65796">
        <ele>2054.1999511719</ele>
        <time>2021-08-21T09:15:43.000Z</time>
      </trkpt>
      <trkpt lat="44.10401" lon="6.658">
        <ele>2054.8000488281</ele>
        <time>2021-08-21T09:15:48.000Z</time>
      </trkpt>
      <trkpt lat="44.10404" lon="6.65803">
        <ele>2055.1999511719</ele>
        <time>2021-08-21T09:15:51.000Z</time>
      </trkpt>
      <trkpt lat="44.10407" lon="6.65806">
        <ele>2055.8000488281</ele>
        <time>2021-08-21T09:15:54.000Z</time>
      </trkpt>
      <trkpt lat="44.10411" lon="6.65808">
        <ele>2056.3999023438</ele>
        <time>2021-08-21T09:15:57.000Z</time>
      </trkpt>
      <trkpt lat="44.10414" lon="6.65811">
        <ele>2056.8000488281</ele>
        <time>2021-08-21T09:16:00.000Z</time>
      </trkpt>
      <trkpt lat="44.10416" lon="6.65813">
        <ele>2057.6000976562</ele>
        <time>2021-08-21T09:16:04.000Z</time>
      </trkpt>
      <trkpt lat="44.10419" lon="6.65816">
        <ele>2058</ele>
        <time>2021-08-21T09:16:07.000Z</time>
      </trkpt>
      <trkpt lat="44.10424" lon="6.6582">
        <ele>2058.3999023438</ele>
        <time>2021-08-21T09:16:13.000Z</time>
      </trkpt>
      <trkpt lat="44.10427" lon="6.65822">
        <ele>2058.6000976562</ele>
        <time>2021-08-21T09:16:16.000Z</time>
      </trkpt>
      <trkpt lat="44.10431" lon="6.65826">
        <ele>2059.1999511719</ele>
        <time>2021-08-21T09:16:20.000Z</time>
      </trkpt>
      <trkpt lat="44.10433" lon="6.65827">
        <ele>2059.8000488281</ele>
        <time>2021-08-21T09:16:23.000Z</time>
      </trkpt>
      <trkpt lat="44.10435" lon="6.65831">
        <ele>2060.3999023438</ele>
        <time>2021-08-21T09:16:28.000Z</time>
      </trkpt>
      <trkpt lat="44.10436" lon="6.65832">
        <ele>2060.8000488281</ele>
        <time>2021-08-21T09:16:30.000Z</time>
      </trkpt>
      <trkpt lat="44.1044" lon="6.65836">
        <ele>2061.8000488281</ele>
        <time>2021-08-21T09:16:34.000Z</time>
      </trkpt>
      <trkpt lat="44.10441" lon="6.65836">
        <ele>2061.8000488281</ele>
        <time>2021-08-21T09:16:35.000Z</time>
      </trkpt>
      <trkpt lat="44.10444" lon="6.6584">
        <ele>2063</ele>
        <time>2021-08-21T09:16:39.000Z</time>
      </trkpt>
      <trkpt lat="44.10447" lon="6.65842">
        <ele>2063.3999023438</ele>
        <time>2021-08-21T09:16:42.000Z</time>
      </trkpt>
      <trkpt lat="44.1045" lon="6.65846">
        <ele>2064</ele>
        <time>2021-08-21T09:16:47.000Z</time>
      </trkpt>
      <trkpt lat="44.10451" lon="6.65847">
        <ele>2064.1999511719</ele>
        <time>2021-08-21T09:16:48.000Z</time>
      </trkpt>
      <trkpt lat="44.10454" lon="6.65851">
        <ele>2065.1999511719</ele>
        <time>2021-08-21T09:16:53.000Z</time>
      </trkpt>
      <trkpt lat="44.10455" lon="6.65853">
        <ele>2065.3999023438</ele>
        <time>2021-08-21T09:16:55.000Z</time>
      </trkpt>
      <trkpt lat="44.10457" lon="6.65856">
        <ele>2066.1999511719</ele>
        <time>2021-08-21T09:17:02.000Z</time>
      </trkpt>
      <trkpt lat="44.10458" lon="6.65858">
        <ele>2066.3999023438</ele>
        <time>2021-08-21T09:17:04.000Z</time>
      </trkpt>
      <trkpt lat="44.1046" lon="6.65862">
        <ele>2067.3999023438</ele>
        <time>2021-08-21T09:17:10.000Z</time>
      </trkpt>
      <trkpt lat="44.1046" lon="6.65861">
        <ele>2067.3999023438</ele>
        <time>2021-08-21T09:17:11.000Z</time>
      </trkpt>
      <trkpt lat="44.10463" lon="6.65867">
        <ele>2068.3999023438</ele>
        <time>2021-08-21T09:17:19.000Z</time>
      </trkpt>
      <trkpt lat="44.10465" lon="6.65872">
        <ele>2069.3999023438</ele>
        <time>2021-08-21T09:17:26.000Z</time>
      </trkpt>
      <trkpt lat="44.10468" lon="6.65877">
        <ele>2070.3999023438</ele>
        <time>2021-08-21T09:17:32.000Z</time>
      </trkpt>
      <trkpt lat="44.10469" lon="6.65879">
        <ele>2071</ele>
        <time>2021-08-21T09:17:35.000Z</time>
      </trkpt>
      <trkpt lat="44.10471" lon="6.65881">
        <ele>2071.6000976562</ele>
        <time>2021-08-21T09:17:38.000Z</time>
      </trkpt>
      <trkpt lat="44.10473" lon="6.65884">
        <ele>2072.3999023438</ele>
        <time>2021-08-21T09:17:43.000Z</time>
      </trkpt>
      <trkpt lat="44.10474" lon="6.65885">
        <ele>2072.6000976562</ele>
        <time>2021-08-21T09:17:45.000Z</time>
      </trkpt>
      <trkpt lat="44.10478" lon="6.65889">
        <ele>2073.8000488281</ele>
        <time>2021-08-21T09:17:52.000Z</time>
      </trkpt>
      <trkpt lat="44.10478" lon="6.6589">
        <ele>2073.8000488281</ele>
        <time>2021-08-21T09:17:53.000Z</time>
      </trkpt>
      <trkpt lat="44.10482" lon="6.65894">
        <ele>2074.8000488281</ele>
        <time>2021-08-21T09:18:00.000Z</time>
      </trkpt>
      <trkpt lat="44.10484" lon="6.65896">
        <ele>2075.1999511719</ele>
        <time>2021-08-21T09:18:03.000Z</time>
      </trkpt>
      <trkpt lat="44.10486" lon="6.65898">
        <ele>2076</ele>
        <time>2021-08-21T09:18:07.000Z</time>
      </trkpt>
      <trkpt lat="44.10489" lon="6.65902">
        <ele>2076.3999023438</ele>
        <time>2021-08-21T09:18:11.000Z</time>
      </trkpt>
      <trkpt lat="44.10491" lon="6.65904">
        <ele>2076.8000488281</ele>
        <time>2021-08-21T09:18:17.000Z</time>
      </trkpt>
      <trkpt lat="44.10492" lon="6.65906">
        <ele>2077</ele>
        <time>2021-08-21T09:18:19.000Z</time>
      </trkpt>
      <trkpt lat="44.10495" lon="6.65909">
        <ele>2078</ele>
        <time>2021-08-21T09:18:25.000Z</time>
      </trkpt>
      <trkpt lat="44.10496" lon="6.6591">
        <ele>2078</ele>
        <time>2021-08-21T09:18:26.000Z</time>
      </trkpt>
      <trkpt lat="44.105" lon="6.65916">
        <ele>2079</ele>
        <time>2021-08-21T09:18:34.000Z</time>
      </trkpt>
      <trkpt lat="44.105" lon="6.65919">
        <ele>2079.1999511719</ele>
        <time>2021-08-21T09:18:37.000Z</time>
      </trkpt>
      <trkpt lat="44.10501" lon="6.65922">
        <ele>2080</ele>
        <time>2021-08-21T09:18:42.000Z</time>
      </trkpt>
      <trkpt lat="44.10502" lon="6.65924">
        <ele>2080.1999511719</ele>
        <time>2021-08-21T09:18:44.000Z</time>
      </trkpt>
      <trkpt lat="44.10504" lon="6.65928">
        <ele>2081</ele>
        <time>2021-08-21T09:18:51.000Z</time>
      </trkpt>
      <trkpt lat="44.10504" lon="6.65929">
        <ele>2081.1999511719</ele>
        <time>2021-08-21T09:18:52.000Z</time>
      </trkpt>
      <trkpt lat="44.10508" lon="6.65937">
        <ele>2082.3999023438</ele>
        <time>2021-08-21T09:18:59.000Z</time>
      </trkpt>
      <trkpt lat="44.10508" lon="6.65942">
        <ele>2083</ele>
        <time>2021-08-21T09:19:06.000Z</time>
      </trkpt>
      <trkpt lat="44.1051" lon="6.65947">
        <ele>2083.3999023438</ele>
        <time>2021-08-21T09:19:11.000Z</time>
      </trkpt>
      <trkpt lat="44.1051" lon="6.65948">
        <ele>2083.6000976562</ele>
        <time>2021-08-21T09:19:12.000Z</time>
      </trkpt>
      <trkpt lat="44.10512" lon="6.65957">
        <ele>2084.6000976562</ele>
        <time>2021-08-21T09:19:19.000Z</time>
      </trkpt>
      <trkpt lat="44.10512" lon="6.6596">
        <ele>2084.6000976562</ele>
        <time>2021-08-21T09:19:21.000Z</time>
      </trkpt>
      <trkpt lat="44.10512" lon="6.65967">
        <ele>2085.6000976562</ele>
        <time>2021-08-21T09:19:28.000Z</time>
      </trkpt>
      <trkpt lat="44.10513" lon="6.65969">
        <ele>2085.8000488281</ele>
        <time>2021-08-21T09:19:30.000Z</time>
      </trkpt>
      <trkpt lat="44.10515" lon="6.65977">
        <ele>2086.6000976562</ele>
        <time>2021-08-21T09:19:38.000Z</time>
      </trkpt>
      <trkpt lat="44.10516" lon="6.65985">
        <ele>2087.3999023438</ele>
        <time>2021-08-21T09:19:45.000Z</time>
      </trkpt>
      <trkpt lat="44.10516" lon="6.65986">
        <ele>2087.6000976562</ele>
        <time>2021-08-21T09:19:46.000Z</time>
      </trkpt>
      <trkpt lat="44.10514" lon="6.65991">
        <ele>2088.3999023438</ele>
        <time>2021-08-21T09:19:53.000Z</time>
      </trkpt>
      <trkpt lat="44.10512" lon="6.65993">
        <ele>2088.8000488281</ele>
        <time>2021-08-21T09:19:55.000Z</time>
      </trkpt>
      <trkpt lat="44.10513" lon="6.65993">
        <ele>2089.6000976562</ele>
        <time>2021-08-21T09:20:01.000Z</time>
      </trkpt>
      <trkpt lat="44.10512" lon="6.65996">
        <ele>2089.6000976562</ele>
        <time>2021-08-21T09:20:17.000Z</time>
      </trkpt>
      <trkpt lat="44.10512" lon="6.65997">
        <ele>2089.8000488281</ele>
        <time>2021-08-21T09:20:19.000Z</time>
      </trkpt>
      <trkpt lat="44.10513" lon="6.65999">
        <ele>2090.1999511719</ele>
        <time>2021-08-21T09:20:23.000Z</time>
      </trkpt>
      <trkpt lat="44.10513" lon="6.66">
        <ele>2090.6000976562</ele>
        <time>2021-08-21T09:20:30.000Z</time>
      </trkpt>
      <trkpt lat="44.10513" lon="6.66">
        <ele>2090.1999511719</ele>
        <time>2021-08-21T09:20:57.000Z</time>
      </trkpt>
      <trkpt lat="44.10514" lon="6.66001">
        <ele>2090.3999023438</ele>
        <time>2021-08-21T09:21:27.000Z</time>
      </trkpt>
      <trkpt lat="44.10514" lon="6.66001">
        <ele>2090.6000976562</ele>
        <time>2021-08-21T09:21:51.000Z</time>
      </trkpt>
      <trkpt lat="44.10514" lon="6.66002">
        <ele>2090.3999023438</ele>
        <time>2021-08-21T09:22:19.000Z</time>
      </trkpt>
      <trkpt lat="44.10515" lon="6.66003">
        <ele>2090.3999023438</ele>
        <time>2021-08-21T09:22:38.000Z</time>
      </trkpt>
      <trkpt lat="44.10515" lon="6.66003">
        <ele>2090.8000488281</ele>
        <time>2021-08-21T09:22:59.000Z</time>
      </trkpt>
      <trkpt lat="44.10516" lon="6.66003">
        <ele>2090.6000976562</ele>
        <time>2021-08-21T09:23:18.000Z</time>
      </trkpt>
      <trkpt lat="44.10517" lon="6.66006">
        <ele>2090.8000488281</ele>
        <time>2021-08-21T09:23:23.000Z</time>
      </trkpt>
      <trkpt lat="44.1052" lon="6.6601">
        <ele>2091.3999023438</ele>
        <time>2021-08-21T09:23:27.000Z</time>
      </trkpt>
      <trkpt lat="44.10522" lon="6.66016">
        <ele>2091.8000488281</ele>
        <time>2021-08-21T09:23:33.000Z</time>
      </trkpt>
      <trkpt lat="44.10523" lon="6.66018">
        <ele>2092</ele>
        <time>2021-08-21T09:23:34.000Z</time>
      </trkpt>
      <trkpt lat="44.10524" lon="6.66032">
        <ele>2092.3999023438</ele>
        <time>2021-08-21T09:23:43.000Z</time>
      </trkpt>
      <trkpt lat="44.10524" lon="6.66046">
        <ele>2093</ele>
        <time>2021-08-21T09:23:52.000Z</time>
      </trkpt>
      <trkpt lat="44.10524" lon="6.66051">
        <ele>2094</ele>
        <time>2021-08-21T09:23:58.000Z</time>
      </trkpt>
      <trkpt lat="44.10524" lon="6.66051">
        <ele>2094.1999511719</ele>
        <time>2021-08-21T09:24:00.000Z</time>
      </trkpt>
      <trkpt lat="44.10525" lon="6.66051">
        <ele>2094.1999511719</ele>
        <time>2021-08-21T09:24:09.000Z</time>
      </trkpt>
      <trkpt lat="44.10525" lon="6.66056">
        <ele>2094.6000976562</ele>
        <time>2021-08-21T09:24:18.000Z</time>
      </trkpt>
      <trkpt lat="44.10525" lon="6.66058">
        <ele>2095.1999511719</ele>
        <time>2021-08-21T09:24:21.000Z</time>
      </trkpt>
      <trkpt lat="44.10525" lon="6.66062">
        <ele>2095.6000976562</ele>
        <time>2021-08-21T09:24:26.000Z</time>
      </trkpt>
      <trkpt lat="44.10525" lon="6.66065">
        <ele>2096.1999511719</ele>
        <time>2021-08-21T09:24:29.000Z</time>
      </trkpt>
      <trkpt lat="44.10523" lon="6.6607">
        <ele>2097</ele>
        <time>2021-08-21T09:24:35.000Z</time>
      </trkpt>
      <trkpt lat="44.10523" lon="6.66071">
        <ele>2097.1999511719</ele>
        <time>2021-08-21T09:24:36.000Z</time>
      </trkpt>
      <trkpt lat="44.10523" lon="6.66077">
        <ele>2098.1999511719</ele>
        <time>2021-08-21T09:24:43.000Z</time>
      </trkpt>
      <trkpt lat="44.10523" lon="6.66078">
        <ele>2098.6000976562</ele>
        <time>2021-08-21T09:24:47.000Z</time>
      </trkpt>
      <trkpt lat="44.10524" lon="6.6608">
        <ele>2099</ele>
        <time>2021-08-21T09:24:54.000Z</time>
      </trkpt>
      <trkpt lat="44.10526" lon="6.66089">
        <ele>2099.1999511719</ele>
        <time>2021-08-21T09:24:59.000Z</time>
      </trkpt>
      <trkpt lat="44.10526" lon="6.66091">
        <ele>2099.3999023438</ele>
        <time>2021-08-21T09:25:00.000Z</time>
      </trkpt>
      <trkpt lat="44.10528" lon="6.66098">
        <ele>2100.3999023438</ele>
        <time>2021-08-21T09:25:05.000Z</time>
      </trkpt>
      <trkpt lat="44.10529" lon="6.66101">
        <ele>2101</ele>
        <time>2021-08-21T09:25:07.000Z</time>
      </trkpt>
      <trkpt lat="44.10529" lon="6.66102">
        <ele>2101.3999023438</ele>
        <time>2021-08-21T09:25:08.000Z</time>
      </trkpt>
      <trkpt lat="44.10531" lon="6.66108">
        <ele>2102.1999511719</ele>
        <time>2021-08-21T09:25:14.000Z</time>
      </trkpt>
      <trkpt lat="44.10533" lon="6.6611">
        <ele>2102.3999023438</ele>
        <time>2021-08-21T09:25:16.000Z</time>
      </trkpt>
      <trkpt lat="44.10534" lon="6.66114">
        <ele>2103.3999023438</ele>
        <time>2021-08-21T09:25:21.000Z</time>
      </trkpt>
      <trkpt lat="44.10536" lon="6.66118">
        <ele>2104.6000976562</ele>
        <time>2021-08-21T09:25:26.000Z</time>
      </trkpt>
      <trkpt lat="44.10537" lon="6.66121">
        <ele>2105.3999023438</ele>
        <time>2021-08-21T09:25:29.000Z</time>
      </trkpt>
      <trkpt lat="44.10538" lon="6.66122">
        <ele>2105.8000488281</ele>
        <time>2021-08-21T09:25:31.000Z</time>
      </trkpt>
      <trkpt lat="44.10539" lon="6.66124">
        <ele>2106.3999023438</ele>
        <time>2021-08-21T09:25:35.000Z</time>
      </trkpt>
      <trkpt lat="44.10541" lon="6.66127">
        <ele>2106.8000488281</ele>
        <time>2021-08-21T09:25:39.000Z</time>
      </trkpt>
      <trkpt lat="44.10542" lon="6.66128">
        <ele>2107</ele>
        <time>2021-08-21T09:25:41.000Z</time>
      </trkpt>
      <trkpt lat="44.10544" lon="6.66131">
        <ele>2107.6000976562</ele>
        <time>2021-08-21T09:25:44.000Z</time>
      </trkpt>
      <trkpt lat="44.10545" lon="6.66133">
        <ele>2107.8000488281</ele>
        <time>2021-08-21T09:25:47.000Z</time>
      </trkpt>
      <trkpt lat="44.10547" lon="6.66137">
        <ele>2108.8000488281</ele>
        <time>2021-08-21T09:25:53.000Z</time>
      </trkpt>
      <trkpt lat="44.10547" lon="6.66137">
        <ele>2109</ele>
        <time>2021-08-21T09:25:54.000Z</time>
      </trkpt>
      <trkpt lat="44.10545" lon="6.66137">
        <ele>2109.1999511719</ele>
        <time>2021-08-21T09:26:02.000Z</time>
      </trkpt>
      <trkpt lat="44.10545" lon="6.66138">
        <ele>2109</ele>
        <time>2021-08-21T09:26:10.000Z</time>
      </trkpt>
      <trkpt lat="44.10545" lon="6.66139">
        <ele>2109.1999511719</ele>
        <time>2021-08-21T09:26:18.000Z</time>
      </trkpt>
      <trkpt lat="44.10547" lon="6.6614">
        <ele>2109.3999023438</ele>
        <time>2021-08-21T09:26:28.000Z</time>
      </trkpt>
      <trkpt lat="44.10547" lon="6.66142">
        <ele>2109.1999511719</ele>
        <time>2021-08-21T09:26:36.000Z</time>
      </trkpt>
      <trkpt lat="44.1055" lon="6.66144">
        <ele>2109.1999511719</ele>
        <time>2021-08-21T09:26:55.000Z</time>
      </trkpt>
      <trkpt lat="44.10552" lon="6.66149">
        <ele>2110</ele>
        <time>2021-08-21T09:27:02.000Z</time>
      </trkpt>
      <trkpt lat="44.10552" lon="6.6615">
        <ele>2110</ele>
        <time>2021-08-21T09:27:03.000Z</time>
      </trkpt>
      <trkpt lat="44.10553" lon="6.66151">
        <ele>2111</ele>
        <time>2021-08-21T09:27:08.000Z</time>
      </trkpt>
      <trkpt lat="44.10552" lon="6.66151">
        <ele>2111.1999511719</ele>
        <time>2021-08-21T09:27:10.000Z</time>
      </trkpt>
      <trkpt lat="44.10553" lon="6.66154">
        <ele>2111.1999511719</ele>
        <time>2021-08-21T09:27:14.000Z</time>
      </trkpt>
      <trkpt lat="44.10553" lon="6.66155">
        <ele>2111.1999511719</ele>
        <time>2021-08-21T09:27:16.000Z</time>
      </trkpt>
      <trkpt lat="44.10554" lon="6.6616">
        <ele>2112.1999511719</ele>
        <time>2021-08-21T09:27:22.000Z</time>
      </trkpt>
      <trkpt lat="44.10554" lon="6.66161">
        <ele>2112.3999023438</ele>
        <time>2021-08-21T09:27:23.000Z</time>
      </trkpt>
      <trkpt lat="44.10555" lon="6.66167">
        <ele>2113.3999023438</ele>
        <time>2021-08-21T09:27:28.000Z</time>
      </trkpt>
      <trkpt lat="44.10556" lon="6.66168">
        <ele>2113.6000976562</ele>
        <time>2021-08-21T09:27:29.000Z</time>
      </trkpt>
      <trkpt lat="44.10556" lon="6.6617">
        <ele>2114.1999511719</ele>
        <time>2021-08-21T09:27:31.000Z</time>
      </trkpt>
      <trkpt lat="44.10556" lon="6.66171">
        <ele>2114.6000976562</ele>
        <time>2021-08-21T09:27:32.000Z</time>
      </trkpt>
      <trkpt lat="44.10556" lon="6.66172">
        <ele>2115</ele>
        <time>2021-08-21T09:27:34.000Z</time>
      </trkpt>
      <trkpt lat="44.10557" lon="6.66173">
        <ele>2115.1999511719</ele>
        <time>2021-08-21T09:27:35.000Z</time>
      </trkpt>
      <trkpt lat="44.10557" lon="6.66174">
        <ele>2115.6000976562</ele>
        <time>2021-08-21T09:27:37.000Z</time>
      </trkpt>
      <trkpt lat="44.10557" lon="6.66175">
        <ele>2115.8000488281</ele>
        <time>2021-08-21T09:27:38.000Z</time>
      </trkpt>
      <trkpt lat="44.10558" lon="6.66177">
        <ele>2116.8000488281</ele>
        <time>2021-08-21T09:27:42.000Z</time>
      </trkpt>
      <trkpt lat="44.10557" lon="6.66177">
        <ele>2117</ele>
        <time>2021-08-21T09:27:43.000Z</time>
      </trkpt>
      <trkpt lat="44.10558" lon="6.66178">
        <ele>2118</ele>
        <time>2021-08-21T09:27:47.000Z</time>
      </trkpt>
      <trkpt lat="44.10558" lon="6.66178">
        <ele>2118.1999511719</ele>
        <time>2021-08-21T09:27:49.000Z</time>
      </trkpt>
      <trkpt lat="44.10563" lon="6.66178">
        <ele>2118.1999511719</ele>
        <time>2021-08-21T09:28:09.000Z</time>
      </trkpt>
      <trkpt lat="44.10566" lon="6.66181">
        <ele>2118.1999511719</ele>
        <time>2021-08-21T09:28:26.000Z</time>
      </trkpt>
      <trkpt lat="44.10566" lon="6.66182">
        <ele>2118.1999511719</ele>
        <time>2021-08-21T09:28:33.000Z</time>
      </trkpt>
      <trkpt lat="44.1057" lon="6.66184">
        <ele>2118</ele>
        <time>2021-08-21T09:28:46.000Z</time>
      </trkpt>
      <trkpt lat="44.10575" lon="6.66186">
        <ele>2118</ele>
        <time>2021-08-21T09:29:01.000Z</time>
      </trkpt>
      <trkpt lat="44.10577" lon="6.66189">
        <ele>2118.3999023438</ele>
        <time>2021-08-21T09:29:12.000Z</time>
      </trkpt>
      <trkpt lat="44.10577" lon="6.66193">
        <ele>2119</ele>
        <time>2021-08-21T09:29:17.000Z</time>
      </trkpt>
      <trkpt lat="44.10576" lon="6.66195">
        <ele>2119.8000488281</ele>
        <time>2021-08-21T09:29:20.000Z</time>
      </trkpt>
      <trkpt lat="44.10576" lon="6.66196">
        <ele>2119.8000488281</ele>
        <time>2021-08-21T09:29:21.000Z</time>
      </trkpt>
      <trkpt lat="44.10576" lon="6.66198">
        <ele>2120.1999511719</ele>
        <time>2021-08-21T09:29:23.000Z</time>
      </trkpt>
      <trkpt lat="44.10576" lon="6.66199">
        <ele>2120.1999511719</ele>
        <time>2021-08-21T09:29:24.000Z</time>
      </trkpt>
      <trkpt lat="44.10577" lon="6.66203">
        <ele>2121.1999511719</ele>
        <time>2021-08-21T09:29:29.000Z</time>
      </trkpt>
      <trkpt lat="44.10577" lon="6.66206">
        <ele>2121.3999023438</ele>
        <time>2021-08-21T09:29:32.000Z</time>
      </trkpt>
      <trkpt lat="44.10576" lon="6.66211">
        <ele>2122.3999023438</ele>
        <time>2021-08-21T09:29:37.000Z</time>
      </trkpt>
      <trkpt lat="44.10576" lon="6.66212">
        <ele>2122.6000976562</ele>
        <time>2021-08-21T09:29:38.000Z</time>
      </trkpt>
      <trkpt lat="44.10575" lon="6.66215">
        <ele>2122.8000488281</ele>
        <time>2021-08-21T09:29:40.000Z</time>
      </trkpt>
      <trkpt lat="44.10574" lon="6.66217">
        <ele>2123.1999511719</ele>
        <time>2021-08-21T09:29:43.000Z</time>
      </trkpt>
      <trkpt lat="44.10575" lon="6.66217">
        <ele>2123.3999023438</ele>
        <time>2021-08-21T09:29:45.000Z</time>
      </trkpt>
      <trkpt lat="44.10578" lon="6.66219">
        <ele>2124.6000976562</ele>
        <time>2021-08-21T09:29:50.000Z</time>
      </trkpt>
      <trkpt lat="44.10581" lon="6.66221">
        <ele>2125.8000488281</ele>
        <time>2021-08-21T09:29:57.000Z</time>
      </trkpt>
      <trkpt lat="44.10582" lon="6.66222">
        <ele>2126</ele>
        <time>2021-08-21T09:30:05.000Z</time>
      </trkpt>
      <trkpt lat="44.10586" lon="6.66227">
        <ele>2125.8000488281</ele>
        <time>2021-08-21T09:30:11.000Z</time>
      </trkpt>
      <trkpt lat="44.10588" lon="6.66233">
        <ele>2126.8000488281</ele>
        <time>2021-08-21T09:30:17.000Z</time>
      </trkpt>
      <trkpt lat="44.10588" lon="6.66234">
        <ele>2127</ele>
        <time>2021-08-21T09:30:18.000Z</time>
      </trkpt>
      <trkpt lat="44.10591" lon="6.66237">
        <ele>2128</ele>
        <time>2021-08-21T09:30:22.000Z</time>
      </trkpt>
      <trkpt lat="44.10592" lon="6.66239">
        <ele>2128.3999023438</ele>
        <time>2021-08-21T09:30:24.000Z</time>
      </trkpt>
      <trkpt lat="44.10593" lon="6.66242">
        <ele>2129</ele>
        <time>2021-08-21T09:30:27.000Z</time>
      </trkpt>
      <trkpt lat="44.10595" lon="6.66245">
        <ele>2129.8000488281</ele>
        <time>2021-08-21T09:30:31.000Z</time>
      </trkpt>
      <trkpt lat="44.10596" lon="6.66247">
        <ele>2130.1999511719</ele>
        <time>2021-08-21T09:30:33.000Z</time>
      </trkpt>
      <trkpt lat="44.10597" lon="6.6625">
        <ele>2131</ele>
        <time>2021-08-21T09:30:36.000Z</time>
      </trkpt>
      <trkpt lat="44.10597" lon="6.66251">
        <ele>2131.1999511719</ele>
        <time>2021-08-21T09:30:37.000Z</time>
      </trkpt>
      <trkpt lat="44.10598" lon="6.66252">
        <ele>2131.3999023438</ele>
        <time>2021-08-21T09:30:38.000Z</time>
      </trkpt>
      <trkpt lat="44.10601" lon="6.66256">
        <ele>2132.1999511719</ele>
        <time>2021-08-21T09:30:42.000Z</time>
      </trkpt>
      <trkpt lat="44.10601" lon="6.66257">
        <ele>2132.6000976562</ele>
        <time>2021-08-21T09:30:44.000Z</time>
      </trkpt>
      <trkpt lat="44.10603" lon="6.66262">
        <ele>2133.6000976562</ele>
        <time>2021-08-21T09:30:49.000Z</time>
      </trkpt>
      <trkpt lat="44.10603" lon="6.66262">
        <ele>2133.8000488281</ele>
        <time>2021-08-21T09:30:50.000Z</time>
      </trkpt>
      <trkpt lat="44.10605" lon="6.66265">
        <ele>2134</ele>
        <time>2021-08-21T09:31:01.000Z</time>
      </trkpt>
      <trkpt lat="44.10607" lon="6.66267">
        <ele>2134</ele>
        <time>2021-08-21T09:31:10.000Z</time>
      </trkpt>
      <trkpt lat="44.10609" lon="6.66268">
        <ele>2134</ele>
        <time>2021-08-21T09:31:22.000Z</time>
      </trkpt>
      <trkpt lat="44.1061" lon="6.66269">
        <ele>2134</ele>
        <time>2021-08-21T09:31:29.000Z</time>
      </trkpt>
      <trkpt lat="44.1061" lon="6.66271">
        <ele>2134.1999511719</ele>
        <time>2021-08-21T09:31:34.000Z</time>
      </trkpt>
      <trkpt lat="44.10613" lon="6.66274">
        <ele>2134.6000976562</ele>
        <time>2021-08-21T09:31:39.000Z</time>
      </trkpt>
      <trkpt lat="44.10613" lon="6.66275">
        <ele>2134.6000976562</ele>
        <time>2021-08-21T09:31:40.000Z</time>
      </trkpt>
      <trkpt lat="44.10617" lon="6.66282">
        <ele>2135.3999023438</ele>
        <time>2021-08-21T09:31:47.000Z</time>
      </trkpt>
      <trkpt lat="44.10617" lon="6.66283">
        <ele>2135.6000976562</ele>
        <time>2021-08-21T09:31:48.000Z</time>
      </trkpt>
      <trkpt lat="44.10618" lon="6.66284">
        <ele>2136</ele>
        <time>2021-08-21T09:31:49.000Z</time>
      </trkpt>
      <trkpt lat="44.10619" lon="6.66286">
        <ele>2136.8000488281</ele>
        <time>2021-08-21T09:31:52.000Z</time>
      </trkpt>
      <trkpt lat="44.10621" lon="6.6629">
        <ele>2138</ele>
        <time>2021-08-21T09:31:57.000Z</time>
      </trkpt>
      <trkpt lat="44.10622" lon="6.66292">
        <ele>2138</ele>
        <time>2021-08-21T09:31:58.000Z</time>
      </trkpt>
      <trkpt lat="44.10623" lon="6.66296">
        <ele>2139</ele>
        <time>2021-08-21T09:32:03.000Z</time>
      </trkpt>
      <trkpt lat="44.10625" lon="6.66299">
        <ele>2140.1999511719</ele>
        <time>2021-08-21T09:32:08.000Z</time>
      </trkpt>
      <trkpt lat="44.10625" lon="6.66299">
        <ele>2140.3999023438</ele>
        <time>2021-08-21T09:32:09.000Z</time>
      </trkpt>
      <trkpt lat="44.10625" lon="6.66301">
        <ele>2140.6000976562</ele>
        <time>2021-08-21T09:32:23.000Z</time>
      </trkpt>
      <trkpt lat="44.10624" lon="6.66304">
        <ele>2140.8000488281</ele>
        <time>2021-08-21T09:32:28.000Z</time>
      </trkpt>
      <trkpt lat="44.10628" lon="6.66306">
        <ele>2141.1999511719</ele>
        <time>2021-08-21T09:32:33.000Z</time>
      </trkpt>
      <trkpt lat="44.10629" lon="6.66308">
        <ele>2141.3999023438</ele>
        <time>2021-08-21T09:32:35.000Z</time>
      </trkpt>
      <trkpt lat="44.10632" lon="6.66311">
        <ele>2142.1999511719</ele>
        <time>2021-08-21T09:32:41.000Z</time>
      </trkpt>
      <trkpt lat="44.10631" lon="6.66312">
        <ele>2142.3999023438</ele>
        <time>2021-08-21T09:32:42.000Z</time>
      </trkpt>
      <trkpt lat="44.10633" lon="6.66316">
        <ele>2143.1999511719</ele>
        <time>2021-08-21T09:32:47.000Z</time>
      </trkpt>
      <trkpt lat="44.10634" lon="6.66316">
        <ele>2143.3999023438</ele>
        <time>2021-08-21T09:32:48.000Z</time>
      </trkpt>
      <trkpt lat="44.10635" lon="6.6632">
        <ele>2144.3999023438</ele>
        <time>2021-08-21T09:32:55.000Z</time>
      </trkpt>
      <trkpt lat="44.10638" lon="6.66325">
        <ele>2144.8000488281</ele>
        <time>2021-08-21T09:33:04.000Z</time>
      </trkpt>
      <trkpt lat="44.10644" lon="6.66331">
        <ele>2144.8000488281</ele>
        <time>2021-08-21T09:33:16.000Z</time>
      </trkpt>
      <trkpt lat="44.10646" lon="6.66335">
        <ele>2145.1999511719</ele>
        <time>2021-08-21T09:33:22.000Z</time>
      </trkpt>
      <trkpt lat="44.10647" lon="6.66336">
        <ele>2145.3999023438</ele>
        <time>2021-08-21T09:33:24.000Z</time>
      </trkpt>
      <trkpt lat="44.10649" lon="6.66338">
        <ele>2145.3999023438</ele>
        <time>2021-08-21T09:33:36.000Z</time>
      </trkpt>
      <trkpt lat="44.10652" lon="6.66342">
        <ele>2145.1999511719</ele>
        <time>2021-08-21T09:33:55.000Z</time>
      </trkpt>
      <trkpt lat="44.10654" lon="6.66345">
        <ele>2145.3999023438</ele>
        <time>2021-08-21T09:34:07.000Z</time>
      </trkpt>
      <trkpt lat="44.10657" lon="6.66347">
        <ele>2145.3999023438</ele>
        <time>2021-08-21T09:34:21.000Z</time>
      </trkpt>
      <trkpt lat="44.10661" lon="6.66347">
        <ele>2145.1999511719</ele>
        <time>2021-08-21T09:34:35.000Z</time>
      </trkpt>
      <trkpt lat="44.10666" lon="6.66347">
        <ele>2145.1999511719</ele>
        <time>2021-08-21T09:34:52.000Z</time>
      </trkpt>
      <trkpt lat="44.10666" lon="6.66348">
        <ele>2145.1999511719</ele>
        <time>2021-08-21T09:35:19.000Z</time>
      </trkpt>
      <trkpt lat="44.10665" lon="6.66349">
        <ele>2145.1999511719</ele>
        <time>2021-08-21T09:35:44.000Z</time>
      </trkpt>
      <trkpt lat="44.10664" lon="6.6635">
        <ele>2145.3999023438</ele>
        <time>2021-08-21T09:35:52.000Z</time>
      </trkpt>
      <trkpt lat="44.10665" lon="6.66355">
        <ele>2146.3999023438</ele>
        <time>2021-08-21T09:35:58.000Z</time>
      </trkpt>
      <trkpt lat="44.10665" lon="6.66356">
        <ele>2146.8000488281</ele>
        <time>2021-08-21T09:36:00.000Z</time>
      </trkpt>
      <trkpt lat="44.10665" lon="6.66359">
        <ele>2147.3999023438</ele>
        <time>2021-08-21T09:36:05.000Z</time>
      </trkpt>
      <trkpt lat="44.10665" lon="6.6636">
        <ele>2147.6000976562</ele>
        <time>2021-08-21T09:36:06.000Z</time>
      </trkpt>
      <trkpt lat="44.10666" lon="6.66363">
        <ele>2148.3999023438</ele>
        <time>2021-08-21T09:36:12.000Z</time>
      </trkpt>
      <trkpt lat="44.10666" lon="6.66364">
        <ele>2148.8000488281</ele>
        <time>2021-08-21T09:36:14.000Z</time>
      </trkpt>
      <trkpt lat="44.10666" lon="6.66365">
        <ele>2149.1999511719</ele>
        <time>2021-08-21T09:36:17.000Z</time>
      </trkpt>
      <trkpt lat="44.10665" lon="6.66364">
        <ele>2149.6000976562</ele>
        <time>2021-08-21T09:36:21.000Z</time>
      </trkpt>
      <trkpt lat="44.10664" lon="6.66364">
        <ele>2150</ele>
        <time>2021-08-21T09:36:23.000Z</time>
      </trkpt>
      <trkpt lat="44.10665" lon="6.66364">
        <ele>2150.3999023438</ele>
        <time>2021-08-21T09:36:29.000Z</time>
      </trkpt>
      <trkpt lat="44.10664" lon="6.66363">
        <ele>2150.3999023438</ele>
        <time>2021-08-21T09:36:32.000Z</time>
      </trkpt>
      <trkpt lat="44.10663" lon="6.66362">
        <ele>2150.6000976562</ele>
        <time>2021-08-21T09:36:34.000Z</time>
      </trkpt>
      <trkpt lat="44.10661" lon="6.66361">
        <ele>2150.8000488281</ele>
        <time>2021-08-21T09:36:36.000Z</time>
      </trkpt>
      <trkpt lat="44.10655" lon="6.66357">
        <ele>2151.3999023438</ele>
        <time>2021-08-21T09:36:40.000Z</time>
      </trkpt>
      <trkpt lat="44.10652" lon="6.66356">
        <ele>2152</ele>
        <time>2021-08-21T09:36:42.000Z</time>
      </trkpt>
      <trkpt lat="44.10648" lon="6.66353">
        <ele>2153</ele>
        <time>2021-08-21T09:36:47.000Z</time>
      </trkpt>
      <trkpt lat="44.10646" lon="6.66353">
        <ele>2153.1999511719</ele>
        <time>2021-08-21T09:36:48.000Z</time>
      </trkpt>
      <trkpt lat="44.1064" lon="6.6635">
        <ele>2154.1999511719</ele>
        <time>2021-08-21T09:36:53.000Z</time>
      </trkpt>
      <trkpt lat="44.10639" lon="6.6635">
        <ele>2154.6000976562</ele>
        <time>2021-08-21T09:36:54.000Z</time>
      </trkpt>
      <trkpt lat="44.10634" lon="6.66347">
        <ele>2155.3999023438</ele>
        <time>2021-08-21T09:36:59.000Z</time>
      </trkpt>
      <trkpt lat="44.10632" lon="6.66347">
        <ele>2156</ele>
        <time>2021-08-21T09:37:01.000Z</time>
      </trkpt>
      <trkpt lat="44.10627" lon="6.66346">
        <ele>2156.6000976562</ele>
        <time>2021-08-21T09:37:05.000Z</time>
      </trkpt>
      <trkpt lat="44.10625" lon="6.66344">
        <ele>2157</ele>
        <time>2021-08-21T09:37:07.000Z</time>
      </trkpt>
      <trkpt lat="44.10623" lon="6.66343">
        <ele>2157.6000976562</ele>
        <time>2021-08-21T09:37:10.000Z</time>
      </trkpt>
      <trkpt lat="44.10621" lon="6.66342">
        <ele>2158</ele>
        <time>2021-08-21T09:37:12.000Z</time>
      </trkpt>
      <trkpt lat="44.10617" lon="6.66341">
        <ele>2158.8000488281</ele>
        <time>2021-08-21T09:37:18.000Z</time>
      </trkpt>
      <trkpt lat="44.10615" lon="6.6634">
        <ele>2159</ele>
        <time>2021-08-21T09:37:24.000Z</time>
      </trkpt>
      <trkpt lat="44.10609" lon="6.66339">
        <ele>2159.8000488281</ele>
        <time>2021-08-21T09:37:33.000Z</time>
      </trkpt>
      <trkpt lat="44.10607" lon="6.66339">
        <ele>2160.1999511719</ele>
        <time>2021-08-21T09:37:39.000Z</time>
      </trkpt>
      <trkpt lat="44.10601" lon="6.66335">
        <ele>2160.6000976562</ele>
        <time>2021-08-21T09:37:46.000Z</time>
      </trkpt>
      <trkpt lat="44.10597" lon="6.66334">
        <ele>2161</ele>
        <time>2021-08-21T09:37:50.000Z</time>
      </trkpt>
      <trkpt lat="44.10593" lon="6.66331">
        <ele>2161.8000488281</ele>
        <time>2021-08-21T09:37:54.000Z</time>
      </trkpt>
      <trkpt lat="44.1059" lon="6.6633">
        <ele>2162</ele>
        <time>2021-08-21T09:37:56.000Z</time>
      </trkpt>
      <trkpt lat="44.10585" lon="6.66327">
        <ele>2162.3999023438</ele>
        <time>2021-08-21T09:38:01.000Z</time>
      </trkpt>
      <trkpt lat="44.10582" lon="6.66327">
        <ele>2163</ele>
        <time>2021-08-21T09:38:05.000Z</time>
      </trkpt>
      <trkpt lat="44.10582" lon="6.66326">
        <ele>2163.3999023438</ele>
        <time>2021-08-21T09:38:07.000Z</time>
      </trkpt>
      <trkpt lat="44.10576" lon="6.66324">
        <ele>2164.1999511719</ele>
        <time>2021-08-21T09:38:16.000Z</time>
      </trkpt>
      <trkpt lat="44.10571" lon="6.66321">
        <ele>2165.1999511719</ele>
        <time>2021-08-21T09:38:24.000Z</time>
      </trkpt>
      <trkpt lat="44.10563" lon="6.66317">
        <ele>2165.8000488281</ele>
        <time>2021-08-21T09:38:34.000Z</time>
      </trkpt>
      <trkpt lat="44.10561" lon="6.66316">
        <ele>2166.1999511719</ele>
        <time>2021-08-21T09:38:37.000Z</time>
      </trkpt>
      <trkpt lat="44.1056" lon="6.66315">
        <ele>2166.3999023438</ele>
        <time>2021-08-21T09:38:38.000Z</time>
      </trkpt>
      <trkpt lat="44.10554" lon="6.6631">
        <ele>2167.1999511719</ele>
        <time>2021-08-21T09:38:44.000Z</time>
      </trkpt>
      <trkpt lat="44.10553" lon="6.6631">
        <ele>2167.3999023438</ele>
        <time>2021-08-21T09:38:45.000Z</time>
      </trkpt>
      <trkpt lat="44.10546" lon="6.66305">
        <ele>2168.3999023438</ele>
        <time>2021-08-21T09:38:51.000Z</time>
      </trkpt>
      <trkpt lat="44.10545" lon="6.66305">
        <ele>2168.6000976562</ele>
        <time>2021-08-21T09:38:52.000Z</time>
      </trkpt>
      <trkpt lat="44.10541" lon="6.66302">
        <ele>2169.3999023438</ele>
        <time>2021-08-21T09:38:58.000Z</time>
      </trkpt>
      <trkpt lat="44.10541" lon="6.66302">
        <ele>2169.6000976562</ele>
        <time>2021-08-21T09:38:59.000Z</time>
      </trkpt>
      <trkpt lat="44.10539" lon="6.66301">
        <ele>2170</ele>
        <time>2021-08-21T09:39:03.000Z</time>
      </trkpt>
      <trkpt lat="44.10536" lon="6.66297">
        <ele>2170.1999511719</ele>
        <time>2021-08-21T09:39:09.000Z</time>
      </trkpt>
      <trkpt lat="44.10534" lon="6.66295">
        <ele>2170.6000976562</ele>
        <time>2021-08-21T09:39:12.000Z</time>
      </trkpt>
      <trkpt lat="44.1053" lon="6.66291">
        <ele>2171.3999023438</ele>
        <time>2021-08-21T09:39:17.000Z</time>
      </trkpt>
      <trkpt lat="44.10529" lon="6.6629">
        <ele>2171.6000976562</ele>
        <time>2021-08-21T09:39:18.000Z</time>
      </trkpt>
      <trkpt lat="44.10526" lon="6.66285">
        <ele>2172.1999511719</ele>
        <time>2021-08-21T09:39:24.000Z</time>
      </trkpt>
      <trkpt lat="44.10523" lon="6.66282">
        <ele>2172.6000976562</ele>
        <time>2021-08-21T09:39:30.000Z</time>
      </trkpt>
      <trkpt lat="44.10521" lon="6.6628">
        <ele>2173.8000488281</ele>
        <time>2021-08-21T09:39:36.000Z</time>
      </trkpt>
      <trkpt lat="44.1052" lon="6.66278">
        <ele>2173.8000488281</ele>
        <time>2021-08-21T09:39:39.000Z</time>
      </trkpt>
      <trkpt lat="44.10517" lon="6.66275">
        <ele>2174</ele>
        <time>2021-08-21T09:39:42.000Z</time>
      </trkpt>
      <trkpt lat="44.10514" lon="6.66267">
        <ele>2174.6000976562</ele>
        <time>2021-08-21T09:39:47.000Z</time>
      </trkpt>
      <trkpt lat="44.10513" lon="6.66266">
        <ele>2174.6000976562</ele>
        <time>2021-08-21T09:39:48.000Z</time>
      </trkpt>
      <trkpt lat="44.10512" lon="6.66264">
        <ele>2174.8000488281</ele>
        <time>2021-08-21T09:39:49.000Z</time>
      </trkpt>
      <trkpt lat="44.10506" lon="6.66259">
        <ele>2175.6000976562</ele>
        <time>2021-08-21T09:39:54.000Z</time>
      </trkpt>
      <trkpt lat="44.10505" lon="6.66259">
        <ele>2175.8000488281</ele>
        <time>2021-08-21T09:39:55.000Z</time>
      </trkpt>
      <trkpt lat="44.10501" lon="6.66253">
        <ele>2176.8000488281</ele>
        <time>2021-08-21T09:40:00.000Z</time>
      </trkpt>
      <trkpt lat="44.105" lon="6.66252">
        <ele>2177</ele>
        <time>2021-08-21T09:40:01.000Z</time>
      </trkpt>
      <trkpt lat="44.10496" lon="6.6625">
        <ele>2178</ele>
        <time>2021-08-21T09:40:06.000Z</time>
      </trkpt>
      <trkpt lat="44.10493" lon="6.66248">
        <ele>2178.3999023438</ele>
        <time>2021-08-21T09:40:12.000Z</time>
      </trkpt>
      <trkpt lat="44.1049" lon="6.66247">
        <ele>2179</ele>
        <time>2021-08-21T09:40:16.000Z</time>
      </trkpt>
      <trkpt lat="44.10489" lon="6.66246">
        <ele>2179.1999511719</ele>
        <time>2021-08-21T09:40:18.000Z</time>
      </trkpt>
      <trkpt lat="44.10486" lon="6.66242">
        <ele>2179.8000488281</ele>
        <time>2021-08-21T09:40:22.000Z</time>
      </trkpt>
      <trkpt lat="44.10486" lon="6.66241">
        <ele>2179.8000488281</ele>
        <time>2021-08-21T09:40:23.000Z</time>
      </trkpt>
      <trkpt lat="44.10484" lon="6.6624">
        <ele>2179.8000488281</ele>
        <time>2021-08-21T09:40:25.000Z</time>
      </trkpt>
      <trkpt lat="44.10483" lon="6.66238">
        <ele>2180</ele>
        <time>2021-08-21T09:40:27.000Z</time>
      </trkpt>
      <trkpt lat="44.1048" lon="6.66236">
        <ele>2180.6000976562</ele>
        <time>2021-08-21T09:40:31.000Z</time>
      </trkpt>
      <trkpt lat="44.10479" lon="6.66233">
        <ele>2181</ele>
        <time>2021-08-21T09:40:34.000Z</time>
      </trkpt>
      <trkpt lat="44.10475" lon="6.66229">
        <ele>2181.6000976562</ele>
        <time>2021-08-21T09:40:40.000Z</time>
      </trkpt>
      <trkpt lat="44.1047" lon="6.66226">
        <ele>2182.1999511719</ele>
        <time>2021-08-21T09:40:45.000Z</time>
      </trkpt>
      <trkpt lat="44.10468" lon="6.66224">
        <ele>2182.3999023438</ele>
        <time>2021-08-21T09:40:47.000Z</time>
      </trkpt>
      <trkpt lat="44.10463" lon="6.66219">
        <ele>2183.1999511719</ele>
        <time>2021-08-21T09:40:54.000Z</time>
      </trkpt>
      <trkpt lat="44.10461" lon="6.66218">
        <ele>2183.3999023438</ele>
        <time>2021-08-21T09:40:56.000Z</time>
      </trkpt>
      <trkpt lat="44.10457" lon="6.66215">
        <ele>2184.3999023438</ele>
        <time>2021-08-21T09:41:02.000Z</time>
      </trkpt>
      <trkpt lat="44.10455" lon="6.66214">
        <ele>2184.8000488281</ele>
        <time>2021-08-21T09:41:04.000Z</time>
      </trkpt>
      <trkpt lat="44.10451" lon="6.66211">
        <ele>2185.3999023438</ele>
        <time>2021-08-21T09:41:10.000Z</time>
      </trkpt>
      <trkpt lat="44.10449" lon="6.66209">
        <ele>2185.6000976562</ele>
        <time>2021-08-21T09:41:13.000Z</time>
      </trkpt>
      <trkpt lat="44.10445" lon="6.66206">
        <ele>2186.6000976562</ele>
        <time>2021-08-21T09:41:19.000Z</time>
      </trkpt>
      <trkpt lat="44.10442" lon="6.66204">
        <ele>2187</ele>
        <time>2021-08-21T09:41:23.000Z</time>
      </trkpt>
      <trkpt lat="44.10439" lon="6.66202">
        <ele>2187.6000976562</ele>
        <time>2021-08-21T09:41:28.000Z</time>
      </trkpt>
      <trkpt lat="44.10439" lon="6.66201">
        <ele>2188</ele>
        <time>2021-08-21T09:41:30.000Z</time>
      </trkpt>
      <trkpt lat="44.10434" lon="6.66198">
        <ele>2188.3999023438</ele>
        <time>2021-08-21T09:41:35.000Z</time>
      </trkpt>
      <trkpt lat="44.1043" lon="6.66197">
        <ele>2188.8000488281</ele>
        <time>2021-08-21T09:41:38.000Z</time>
      </trkpt>
      <trkpt lat="44.10426" lon="6.66195">
        <ele>2189.8000488281</ele>
        <time>2021-08-21T09:41:42.000Z</time>
      </trkpt>
      <trkpt lat="44.10425" lon="6.66194">
        <ele>2190</ele>
        <time>2021-08-21T09:41:43.000Z</time>
      </trkpt>
      <trkpt lat="44.10419" lon="6.66191">
        <ele>2190.3999023438</ele>
        <time>2021-08-21T09:41:49.000Z</time>
      </trkpt>
      <trkpt lat="44.10416" lon="6.66189">
        <ele>2191</ele>
        <time>2021-08-21T09:41:52.000Z</time>
      </trkpt>
      <trkpt lat="44.1041" lon="6.66187">
        <ele>2191.8000488281</ele>
        <time>2021-08-21T09:41:56.000Z</time>
      </trkpt>
      <trkpt lat="44.10409" lon="6.66186">
        <ele>2192</ele>
        <time>2021-08-21T09:41:57.000Z</time>
      </trkpt>
      <trkpt lat="44.10405" lon="6.66185">
        <ele>2193</ele>
        <time>2021-08-21T09:42:01.000Z</time>
      </trkpt>
      <trkpt lat="44.10401" lon="6.66183">
        <ele>2193.6000976562</ele>
        <time>2021-08-21T09:42:05.000Z</time>
      </trkpt>
      <trkpt lat="44.10397" lon="6.66181">
        <ele>2194.1999511719</ele>
        <time>2021-08-21T09:42:09.000Z</time>
      </trkpt>
      <trkpt lat="44.10394" lon="6.66181">
        <ele>2194.8000488281</ele>
        <time>2021-08-21T09:42:13.000Z</time>
      </trkpt>
      <trkpt lat="44.10393" lon="6.66181">
        <ele>2195.1999511719</ele>
        <time>2021-08-21T09:42:16.000Z</time>
      </trkpt>
      <trkpt lat="44.10392" lon="6.6618">
        <ele>2195.3999023438</ele>
        <time>2021-08-21T09:42:20.000Z</time>
      </trkpt>
      <trkpt lat="44.10386" lon="6.6618">
        <ele>2195.8000488281</ele>
        <time>2021-08-21T09:42:28.000Z</time>
      </trkpt>
      <trkpt lat="44.10385" lon="6.6618">
        <ele>2196.1999511719</ele>
        <time>2021-08-21T09:42:30.000Z</time>
      </trkpt>
      <trkpt lat="44.1038" lon="6.6618">
        <ele>2197</ele>
        <time>2021-08-21T09:42:36.000Z</time>
      </trkpt>
      <trkpt lat="44.10377" lon="6.6618">
        <ele>2197.1999511719</ele>
        <time>2021-08-21T09:42:39.000Z</time>
      </trkpt>
      <trkpt lat="44.10372" lon="6.6618">
        <ele>2198.1999511719</ele>
        <time>2021-08-21T09:42:45.000Z</time>
      </trkpt>
      <trkpt lat="44.10373" lon="6.6618">
        <ele>2198.1999511719</ele>
        <time>2021-08-21T09:42:46.000Z</time>
      </trkpt>
      <trkpt lat="44.10372" lon="6.66179">
        <ele>2198.8000488281</ele>
        <time>2021-08-21T09:42:49.000Z</time>
      </trkpt>
      <trkpt lat="44.10366" lon="6.6618">
        <ele>2199.1999511719</ele>
        <time>2021-08-21T09:42:56.000Z</time>
      </trkpt>
      <trkpt lat="44.10365" lon="6.6618">
        <ele>2199.1999511719</ele>
        <time>2021-08-21T09:42:57.000Z</time>
      </trkpt>
      <trkpt lat="44.1036" lon="6.6618">
        <ele>2200.1999511719</ele>
        <time>2021-08-21T09:43:04.000Z</time>
      </trkpt>
      <trkpt lat="44.10359" lon="6.6618">
        <ele>2200.3999023438</ele>
        <time>2021-08-21T09:43:05.000Z</time>
      </trkpt>
      <trkpt lat="44.10357" lon="6.66181">
        <ele>2200.6000976562</ele>
        <time>2021-08-21T09:43:09.000Z</time>
      </trkpt>
      <trkpt lat="44.10355" lon="6.66182">
        <ele>2201</ele>
        <time>2021-08-21T09:43:11.000Z</time>
      </trkpt>
      <trkpt lat="44.10354" lon="6.66182">
        <ele>2201.3999023438</ele>
        <time>2021-08-21T09:43:12.000Z</time>
      </trkpt>
      <trkpt lat="44.10346" lon="6.66184">
        <ele>2202.1999511719</ele>
        <time>2021-08-21T09:43:20.000Z</time>
      </trkpt>
      <trkpt lat="44.10345" lon="6.66185">
        <ele>2202.3999023438</ele>
        <time>2021-08-21T09:43:21.000Z</time>
      </trkpt>
      <trkpt lat="44.1034" lon="6.66187">
        <ele>2203.3999023438</ele>
        <time>2021-08-21T09:43:26.000Z</time>
      </trkpt>
      <trkpt lat="44.10336" lon="6.6619">
        <ele>2204.3999023438</ele>
        <time>2021-08-21T09:43:31.000Z</time>
      </trkpt>
      <trkpt lat="44.10335" lon="6.66191">
        <ele>2204.6000976562</ele>
        <time>2021-08-21T09:43:33.000Z</time>
      </trkpt>
      <trkpt lat="44.10329" lon="6.66195">
        <ele>2205.6000976562</ele>
        <time>2021-08-21T09:43:40.000Z</time>
      </trkpt>
      <trkpt lat="44.10328" lon="6.66197">
        <ele>2205.8000488281</ele>
        <time>2021-08-21T09:43:42.000Z</time>
      </trkpt>
      <trkpt lat="44.10327" lon="6.66198">
        <ele>2206</ele>
        <time>2021-08-21T09:43:43.000Z</time>
      </trkpt>
      <trkpt lat="44.10325" lon="6.662">
        <ele>2206.3999023438</ele>
        <time>2021-08-21T09:43:46.000Z</time>
      </trkpt>
      <trkpt lat="44.10323" lon="6.66203">
        <ele>2207</ele>
        <time>2021-08-21T09:43:50.000Z</time>
      </trkpt>
      <trkpt lat="44.10321" lon="6.66207">
        <ele>2207.3999023438</ele>
        <time>2021-08-21T09:43:54.000Z</time>
      </trkpt>
      <trkpt lat="44.10319" lon="6.66212">
        <ele>2208</ele>
        <time>2021-08-21T09:43:59.000Z</time>
      </trkpt>
      <trkpt lat="44.10318" lon="6.66215">
        <ele>2208.6000976562</ele>
        <time>2021-08-21T09:44:02.000Z</time>
      </trkpt>
      <trkpt lat="44.10317" lon="6.6622">
        <ele>2209.1999511719</ele>
        <time>2021-08-21T09:44:06.000Z</time>
      </trkpt>
      <trkpt lat="44.10316" lon="6.66225">
        <ele>2209.6000976562</ele>
        <time>2021-08-21T09:44:10.000Z</time>
      </trkpt>
      <trkpt lat="44.10315" lon="6.66228">
        <ele>2209.8000488281</ele>
        <time>2021-08-21T09:44:13.000Z</time>
      </trkpt>
      <trkpt lat="44.10316" lon="6.6623">
        <ele>2210.1999511719</ele>
        <time>2021-08-21T09:44:15.000Z</time>
      </trkpt>
      <trkpt lat="44.10316" lon="6.66231">
        <ele>2210.1999511719</ele>
        <time>2021-08-21T09:44:16.000Z</time>
      </trkpt>
      <trkpt lat="44.10316" lon="6.66236">
        <ele>2211.1999511719</ele>
        <time>2021-08-21T09:44:21.000Z</time>
      </trkpt>
      <trkpt lat="44.10316" lon="6.66237">
        <ele>2211.3999023438</ele>
        <time>2021-08-21T09:44:22.000Z</time>
      </trkpt>
      <trkpt lat="44.10316" lon="6.66248">
        <ele>2212.1999511719</ele>
        <time>2021-08-21T09:44:30.000Z</time>
      </trkpt>
      <trkpt lat="44.10316" lon="6.66249">
        <ele>2212.3999023438</ele>
        <time>2021-08-21T09:44:31.000Z</time>
      </trkpt>
      <trkpt lat="44.10318" lon="6.66257">
        <ele>2213.1999511719</ele>
        <time>2021-08-21T09:44:37.000Z</time>
      </trkpt>
      <trkpt lat="44.10318" lon="6.6626">
        <ele>2213.6000976562</ele>
        <time>2021-08-21T09:44:39.000Z</time>
      </trkpt>
      <trkpt lat="44.10319" lon="6.66265">
        <ele>2214.3999023438</ele>
        <time>2021-08-21T09:44:43.000Z</time>
      </trkpt>
      <trkpt lat="44.10321" lon="6.66275">
        <ele>2215.3999023438</ele>
        <time>2021-08-21T09:44:50.000Z</time>
      </trkpt>
      <trkpt lat="44.10322" lon="6.66278">
        <ele>2215.6000976562</ele>
        <time>2021-08-21T09:44:52.000Z</time>
      </trkpt>
      <trkpt lat="44.10324" lon="6.66284">
        <ele>2216.8000488281</ele>
        <time>2021-08-21T09:44:56.000Z</time>
      </trkpt>
      <trkpt lat="44.10325" lon="6.66288">
        <ele>2217.3999023438</ele>
        <time>2021-08-21T09:44:59.000Z</time>
      </trkpt>
      <trkpt lat="44.10326" lon="6.66291">
        <ele>2217.8000488281</ele>
        <time>2021-08-21T09:45:01.000Z</time>
      </trkpt>
      <trkpt lat="44.10327" lon="6.66297">
        <ele>2218.3999023438</ele>
        <time>2021-08-21T09:45:06.000Z</time>
      </trkpt>
      <trkpt lat="44.10328" lon="6.66301">
        <ele>2218.8000488281</ele>
        <time>2021-08-21T09:45:09.000Z</time>
      </trkpt>
      <trkpt lat="44.10329" lon="6.66305">
        <ele>2219.6000976562</ele>
        <time>2021-08-21T09:45:13.000Z</time>
      </trkpt>
      <trkpt lat="44.1033" lon="6.66308">
        <ele>2220</ele>
        <time>2021-08-21T09:45:15.000Z</time>
      </trkpt>
      <trkpt lat="44.10333" lon="6.66313">
        <ele>2220.8000488281</ele>
        <time>2021-08-21T09:45:20.000Z</time>
      </trkpt>
      <trkpt lat="44.10334" lon="6.66316">
        <ele>2221</ele>
        <time>2021-08-21T09:45:22.000Z</time>
      </trkpt>
      <trkpt lat="44.10337" lon="6.66326">
        <ele>2222.1999511719</ele>
        <time>2021-08-21T09:45:30.000Z</time>
      </trkpt>
      <trkpt lat="44.10341" lon="6.66334">
        <ele>2223.1999511719</ele>
        <time>2021-08-21T09:45:37.000Z</time>
      </trkpt>
      <trkpt lat="44.10345" lon="6.66343">
        <ele>2224.1999511719</ele>
        <time>2021-08-21T09:45:45.000Z</time>
      </trkpt>
      <trkpt lat="44.10346" lon="6.66346">
        <ele>2224.6000976562</ele>
        <time>2021-08-21T09:45:47.000Z</time>
      </trkpt>
      <trkpt lat="44.10349" lon="6.66353">
        <ele>2225.6000976562</ele>
        <time>2021-08-21T09:45:53.000Z</time>
      </trkpt>
      <trkpt lat="44.10349" lon="6.66354">
        <ele>2225.8000488281</ele>
        <time>2021-08-21T09:45:54.000Z</time>
      </trkpt>
      <trkpt lat="44.1035" lon="6.66356">
        <ele>2226</ele>
        <time>2021-08-21T09:45:55.000Z</time>
      </trkpt>
      <trkpt lat="44.10353" lon="6.66363">
        <ele>2226.6000976562</ele>
        <time>2021-08-21T09:46:01.000Z</time>
      </trkpt>
      <trkpt lat="44.10354" lon="6.66365">
        <ele>2226.8000488281</ele>
        <time>2021-08-21T09:46:03.000Z</time>
      </trkpt>
      <trkpt lat="44.10357" lon="6.6637">
        <ele>2227.6000976562</ele>
        <time>2021-08-21T09:46:07.000Z</time>
      </trkpt>
      <trkpt lat="44.10357" lon="6.66371">
        <ele>2227.8000488281</ele>
        <time>2021-08-21T09:46:08.000Z</time>
      </trkpt>
      <trkpt lat="44.10362" lon="6.6638">
        <ele>2228.8000488281</ele>
        <time>2021-08-21T09:46:15.000Z</time>
      </trkpt>
      <trkpt lat="44.10363" lon="6.66381">
        <ele>2228.8000488281</ele>
        <time>2021-08-21T09:46:16.000Z</time>
      </trkpt>
      <trkpt lat="44.10365" lon="6.66389">
        <ele>2229.6000976562</ele>
        <time>2021-08-21T09:46:22.000Z</time>
      </trkpt>
      <trkpt lat="44.10365" lon="6.66391">
        <ele>2230</ele>
        <time>2021-08-21T09:46:24.000Z</time>
      </trkpt>
      <trkpt lat="44.10367" lon="6.66402">
        <ele>2231</ele>
        <time>2021-08-21T09:46:32.000Z</time>
      </trkpt>
      <trkpt lat="44.10369" lon="6.66415">
        <ele>2232.1999511719</ele>
        <time>2021-08-21T09:46:41.000Z</time>
      </trkpt>
      <trkpt lat="44.10369" lon="6.66416">
        <ele>2232.3999023438</ele>
        <time>2021-08-21T09:46:42.000Z</time>
      </trkpt>
      <trkpt lat="44.10369" lon="6.66423">
        <ele>2233.3999023438</ele>
        <time>2021-08-21T09:46:47.000Z</time>
      </trkpt>
      <trkpt lat="44.1037" lon="6.6643">
        <ele>2234</ele>
        <time>2021-08-21T09:46:52.000Z</time>
      </trkpt>
      <trkpt lat="44.1037" lon="6.66437">
        <ele>2234.6000976562</ele>
        <time>2021-08-21T09:46:57.000Z</time>
      </trkpt>
      <trkpt lat="44.10371" lon="6.6644">
        <ele>2235.1999511719</ele>
        <time>2021-08-21T09:47:00.000Z</time>
      </trkpt>
      <trkpt lat="44.10372" lon="6.66443">
        <ele>2235.6000976562</ele>
        <time>2021-08-21T09:47:02.000Z</time>
      </trkpt>
      <trkpt lat="44.10372" lon="6.66444">
        <ele>2235.8000488281</ele>
        <time>2021-08-21T09:47:03.000Z</time>
      </trkpt>
      <trkpt lat="44.10373" lon="6.66446">
        <ele>2236.1999511719</ele>
        <time>2021-08-21T09:47:06.000Z</time>
      </trkpt>
      <trkpt lat="44.10374" lon="6.66451">
        <ele>2236.6000976562</ele>
        <time>2021-08-21T09:47:13.000Z</time>
      </trkpt>
      <trkpt lat="44.10375" lon="6.66453">
        <ele>2236.8000488281</ele>
        <time>2021-08-21T09:47:16.000Z</time>
      </trkpt>
      <trkpt lat="44.10376" lon="6.66452">
        <ele>2237.8000488281</ele>
        <time>2021-08-21T09:47:20.000Z</time>
      </trkpt>
      <trkpt lat="44.10382" lon="6.66445">
        <ele>2239</ele>
        <time>2021-08-21T09:47:29.000Z</time>
      </trkpt>
      <trkpt lat="44.10383" lon="6.66445">
        <ele>2239</ele>
        <time>2021-08-21T09:47:30.000Z</time>
      </trkpt>
      <trkpt lat="44.10388" lon="6.66442">
        <ele>2240</ele>
        <time>2021-08-21T09:47:37.000Z</time>
      </trkpt>
      <trkpt lat="44.1039" lon="6.66442">
        <ele>2240.3999023438</ele>
        <time>2021-08-21T09:47:40.000Z</time>
      </trkpt>
      <trkpt lat="44.10394" lon="6.6644">
        <ele>2241.1999511719</ele>
        <time>2021-08-21T09:47:45.000Z</time>
      </trkpt>
      <trkpt lat="44.10397" lon="6.66441">
        <ele>2241.6000976562</ele>
        <time>2021-08-21T09:47:49.000Z</time>
      </trkpt>
      <trkpt lat="44.104" lon="6.66441">
        <ele>2242.3999023438</ele>
        <time>2021-08-21T09:47:53.000Z</time>
      </trkpt>
      <trkpt lat="44.10402" lon="6.66442">
        <ele>2243</ele>
        <time>2021-08-21T09:47:56.000Z</time>
      </trkpt>
      <trkpt lat="44.10404" lon="6.66444">
        <ele>2243.3999023438</ele>
        <time>2021-08-21T09:48:00.000Z</time>
      </trkpt>
      <trkpt lat="44.10408" lon="6.66446">
        <ele>2244</ele>
        <time>2021-08-21T09:48:06.000Z</time>
      </trkpt>
      <trkpt lat="44.10411" lon="6.66449">
        <ele>2244.6000976562</ele>
        <time>2021-08-21T09:48:10.000Z</time>
      </trkpt>
      <trkpt lat="44.10413" lon="6.66451">
        <ele>2245.1999511719</ele>
        <time>2021-08-21T09:48:14.000Z</time>
      </trkpt>
      <trkpt lat="44.10413" lon="6.66452">
        <ele>2245.6000976562</ele>
        <time>2021-08-21T09:48:18.000Z</time>
      </trkpt>
      <trkpt lat="44.10413" lon="6.66452">
        <ele>2245.8000488281</ele>
        <time>2021-08-21T09:48:19.000Z</time>
      </trkpt>
      <trkpt lat="44.10413" lon="6.66452">
        <ele>2246</ele>
        <time>2021-08-21T09:48:29.000Z</time>
      </trkpt>
      <trkpt lat="44.10414" lon="6.66453">
        <ele>2246</ele>
        <time>2021-08-21T09:48:30.000Z</time>
      </trkpt>
      <trkpt lat="44.1042" lon="6.66458">
        <ele>2246.6000976562</ele>
        <time>2021-08-21T09:48:37.000Z</time>
      </trkpt>
      <trkpt lat="44.10422" lon="6.6646">
        <ele>2246.8000488281</ele>
        <time>2021-08-21T09:48:39.000Z</time>
      </trkpt>
      <trkpt lat="44.10427" lon="6.66463">
        <ele>2247.8000488281</ele>
        <time>2021-08-21T09:48:45.000Z</time>
      </trkpt>
      <trkpt lat="44.10428" lon="6.66464">
        <ele>2248.1999511719</ele>
        <time>2021-08-21T09:48:46.000Z</time>
      </trkpt>
      <trkpt lat="44.10432" lon="6.66466">
        <ele>2249</ele>
        <time>2021-08-21T09:48:50.000Z</time>
      </trkpt>
      <trkpt lat="44.10437" lon="6.66469">
        <ele>2250</ele>
        <time>2021-08-21T09:48:56.000Z</time>
      </trkpt>
      <trkpt lat="44.10438" lon="6.6647">
        <ele>2250</ele>
        <time>2021-08-21T09:48:57.000Z</time>
      </trkpt>
      <trkpt lat="44.10444" lon="6.66473">
        <ele>2251</ele>
        <time>2021-08-21T09:49:03.000Z</time>
      </trkpt>
      <trkpt lat="44.10446" lon="6.66474">
        <ele>2251.6000976562</ele>
        <time>2021-08-21T09:49:06.000Z</time>
      </trkpt>
      <trkpt lat="44.1045" lon="6.66476">
        <ele>2252.1999511719</ele>
        <time>2021-08-21T09:49:10.000Z</time>
      </trkpt>
      <trkpt lat="44.10453" lon="6.66478">
        <ele>2252.6000976562</ele>
        <time>2021-08-21T09:49:14.000Z</time>
      </trkpt>
      <trkpt lat="44.10457" lon="6.6648">
        <ele>2253.1999511719</ele>
        <time>2021-08-21T09:49:18.000Z</time>
      </trkpt>
      <trkpt lat="44.10459" lon="6.66481">
        <ele>2254</ele>
        <time>2021-08-21T09:49:21.000Z</time>
      </trkpt>
      <trkpt lat="44.1046" lon="6.66481">
        <ele>2254.3999023438</ele>
        <time>2021-08-21T09:49:23.000Z</time>
      </trkpt>
      <trkpt lat="44.10461" lon="6.66482">
        <ele>2255</ele>
        <time>2021-08-21T09:49:27.000Z</time>
      </trkpt>
      <trkpt lat="44.10466" lon="6.66485">
        <ele>2255.3999023438</ele>
        <time>2021-08-21T09:49:33.000Z</time>
      </trkpt>
      <trkpt lat="44.10469" lon="6.66487">
        <ele>2256</ele>
        <time>2021-08-21T09:49:37.000Z</time>
      </trkpt>
      <trkpt lat="44.1047" lon="6.66488">
        <ele>2256.3999023438</ele>
        <time>2021-08-21T09:49:39.000Z</time>
      </trkpt>
      <trkpt lat="44.10474" lon="6.6649">
        <ele>2257.1999511719</ele>
        <time>2021-08-21T09:49:45.000Z</time>
      </trkpt>
      <trkpt lat="44.10476" lon="6.66491">
        <ele>2257.3999023438</ele>
        <time>2021-08-21T09:49:47.000Z</time>
      </trkpt>
      <trkpt lat="44.1048" lon="6.66494">
        <ele>2258.1999511719</ele>
        <time>2021-08-21T09:49:53.000Z</time>
      </trkpt>
      <trkpt lat="44.10481" lon="6.66495">
        <ele>2258.6000976562</ele>
        <time>2021-08-21T09:49:55.000Z</time>
      </trkpt>
      <trkpt lat="44.10483" lon="6.66496">
        <ele>2259.3999023438</ele>
        <time>2021-08-21T09:50:00.000Z</time>
      </trkpt>
      <trkpt lat="44.10483" lon="6.66496">
        <ele>2259.6000976562</ele>
        <time>2021-08-21T09:50:01.000Z</time>
      </trkpt>
      <trkpt lat="44.10484" lon="6.66496">
        <ele>2259.8000488281</ele>
        <time>2021-08-21T09:50:05.000Z</time>
      </trkpt>
      <trkpt lat="44.10485" lon="6.66498">
        <ele>2259.6000976562</ele>
        <time>2021-08-21T09:50:11.000Z</time>
      </trkpt>
      <trkpt lat="44.10491" lon="6.66504">
        <ele>2260.6000976562</ele>
        <time>2021-08-21T09:50:19.000Z</time>
      </trkpt>
      <trkpt lat="44.10492" lon="6.66504">
        <ele>2260.8000488281</ele>
        <time>2021-08-21T09:50:20.000Z</time>
      </trkpt>
      <trkpt lat="44.10503" lon="6.66511">
        <ele>2261.6000976562</ele>
        <time>2021-08-21T09:50:30.000Z</time>
      </trkpt>
      <trkpt lat="44.10504" lon="6.66512">
        <ele>2261.8000488281</ele>
        <time>2021-08-21T09:50:31.000Z</time>
      </trkpt>
      <trkpt lat="44.10507" lon="6.66524">
        <ele>2262.3999023438</ele>
        <time>2021-08-21T09:50:38.000Z</time>
      </trkpt>
      <trkpt lat="44.10505" lon="6.66543">
        <ele>2262.8000488281</ele>
        <time>2021-08-21T09:50:46.000Z</time>
      </trkpt>
      <trkpt lat="44.10503" lon="6.66551">
        <ele>2262.8000488281</ele>
        <time>2021-08-21T09:50:49.000Z</time>
      </trkpt>
      <trkpt lat="44.10498" lon="6.66572">
        <ele>2263.1999511719</ele>
        <time>2021-08-21T09:50:56.000Z</time>
      </trkpt>
      <trkpt lat="44.10494" lon="6.66594">
        <ele>2263.3999023438</ele>
        <time>2021-08-21T09:51:02.000Z</time>
      </trkpt>
      <trkpt lat="44.10494" lon="6.66627">
        <ele>2263.6000976562</ele>
        <time>2021-08-21T09:51:12.000Z</time>
      </trkpt>
      <trkpt lat="44.10502" lon="6.66652">
        <ele>2263.1999511719</ele>
        <time>2021-08-21T09:51:20.000Z</time>
      </trkpt>
      <trkpt lat="44.10515" lon="6.66673">
        <ele>2263.6000976562</ele>
        <time>2021-08-21T09:51:28.000Z</time>
      </trkpt>
      <trkpt lat="44.10519" lon="6.6668">
        <ele>2264</ele>
        <time>2021-08-21T09:51:31.000Z</time>
      </trkpt>
      <trkpt lat="44.10523" lon="6.66687">
        <ele>2264.1999511719</ele>
        <time>2021-08-21T09:51:35.000Z</time>
      </trkpt>
      <trkpt lat="44.10529" lon="6.66697">
        <ele>2265</ele>
        <time>2021-08-21T09:51:42.000Z</time>
      </trkpt>
      <trkpt lat="44.1053" lon="6.66699">
        <ele>2265.6000976562</ele>
        <time>2021-08-21T09:51:44.000Z</time>
      </trkpt>
      <trkpt lat="44.1053" lon="6.667">
        <ele>2266</ele>
        <time>2021-08-21T09:51:47.000Z</time>
      </trkpt>
      <trkpt lat="44.10531" lon="6.66702">
        <ele>2265.8000488281</ele>
        <time>2021-08-21T09:51:52.000Z</time>
      </trkpt>
      <trkpt lat="44.1053" lon="6.66703">
        <ele>2265.8000488281</ele>
        <time>2021-08-21T09:51:59.000Z</time>
      </trkpt>
      <trkpt lat="44.10531" lon="6.66703">
        <ele>2265.1999511719</ele>
        <time>2021-08-21T09:52:05.000Z</time>
      </trkpt>
      <trkpt lat="44.10531" lon="6.66704">
        <ele>2264.3999023438</ele>
        <time>2021-08-21T09:52:15.000Z</time>
      </trkpt>
      <trkpt lat="44.10531" lon="6.66704">
        <ele>2265.3999023438</ele>
        <time>2021-08-21T09:52:29.000Z</time>
      </trkpt>
      <trkpt lat="44.10531" lon="6.66705">
        <ele>2265.3999023438</ele>
        <time>2021-08-21T09:52:45.000Z</time>
      </trkpt>
      <trkpt lat="44.10531" lon="6.66704">
        <ele>2265.3999023438</ele>
        <time>2021-08-21T09:53:07.000Z</time>
      </trkpt>
      <trkpt lat="44.10531" lon="6.66704">
        <ele>2265.3999023438</ele>
        <time>2021-08-21T09:53:30.000Z</time>
      </trkpt>
      <trkpt lat="44.10532" lon="6.66704">
        <ele>2265.3999023438</ele>
        <time>2021-08-21T09:53:50.000Z</time>
      </trkpt>
      <trkpt lat="44.10533" lon="6.66704">
        <ele>2265</ele>
        <time>2021-08-21T09:54:06.000Z</time>
      </trkpt>
      <trkpt lat="44.10533" lon="6.66702">
        <ele>2265.3999023438</ele>
        <time>2021-08-21T09:54:36.000Z</time>
      </trkpt>
      <trkpt lat="44.10533" lon="6.66703">
        <ele>2265.1999511719</ele>
        <time>2021-08-21T09:55:09.000Z</time>
      </trkpt>
      <trkpt lat="44.10533" lon="6.66703">
        <ele>2265.1999511719</ele>
        <time>2021-08-21T09:55:35.000Z</time>
      </trkpt>
      <trkpt lat="44.10532" lon="6.66703">
        <ele>2265.1999511719</ele>
        <time>2021-08-21T09:56:06.000Z</time>
      </trkpt>
      <trkpt lat="44.10532" lon="6.66704">
        <ele>2265</ele>
        <time>2021-08-21T09:56:37.000Z</time>
      </trkpt>
      <trkpt lat="44.10532" lon="6.66704">
        <ele>2265</ele>
        <time>2021-08-21T09:56:59.000Z</time>
      </trkpt>
      <trkpt lat="44.10532" lon="6.66704">
        <ele>2264.8000488281</ele>
        <time>2021-08-21T09:57:24.000Z</time>
      </trkpt>
      <trkpt lat="44.10532" lon="6.66703">
        <ele>2264.6000976562</ele>
        <time>2021-08-21T09:57:54.000Z</time>
      </trkpt>
      <trkpt lat="44.10532" lon="6.66703">
        <ele>2265</ele>
        <time>2021-08-21T09:58:03.000Z</time>
      </trkpt>
      <trkpt lat="44.10532" lon="6.66703">
        <ele>2265</ele>
        <time>2021-08-21T09:58:19.000Z</time>
      </trkpt>
      <trkpt lat="44.10531" lon="6.66702">
        <ele>2265.1999511719</ele>
        <time>2021-08-21T09:58:36.000Z</time>
      </trkpt>
      <trkpt lat="44.10531" lon="6.66701">
        <ele>2264.8000488281</ele>
        <time>2021-08-21T09:58:42.000Z</time>
      </trkpt>
      <trkpt lat="44.10532" lon="6.66701">
        <ele>2265</ele>
        <time>2021-08-21T09:58:50.000Z</time>
      </trkpt>
      <trkpt lat="44.10532" lon="6.66701">
        <ele>2265.1999511719</ele>
        <time>2021-08-21T09:59:01.000Z</time>
      </trkpt>
      <trkpt lat="44.10532" lon="6.667">
        <ele>2265</ele>
        <time>2021-08-21T09:59:16.000Z</time>
      </trkpt>
      <trkpt lat="44.10532" lon="6.667">
        <ele>2265.6000976562</ele>
        <time>2021-08-21T09:59:27.000Z</time>
      </trkpt>
      <trkpt lat="44.10538" lon="6.66701">
        <ele>2265.1999511719</ele>
        <time>2021-08-21T09:59:35.000Z</time>
      </trkpt>
      <trkpt lat="44.10554" lon="6.66705">
        <ele>2265.3999023438</ele>
        <time>2021-08-21T09:59:43.000Z</time>
      </trkpt>
      <trkpt lat="44.10571" lon="6.66718">
        <ele>2264.6000976562</ele>
        <time>2021-08-21T09:59:51.000Z</time>
      </trkpt>
      <trkpt lat="44.10583" lon="6.66725">
        <ele>2264.3999023438</ele>
        <time>2021-08-21T09:59:56.000Z</time>
      </trkpt>
      <trkpt lat="44.10595" lon="6.66726">
        <ele>2264.1999511719</ele>
        <time>2021-08-21T10:00:01.000Z</time>
      </trkpt>
      <trkpt lat="44.10599" lon="6.66725">
        <ele>2264</ele>
        <time>2021-08-21T10:00:03.000Z</time>
      </trkpt>
      <trkpt lat="44.10608" lon="6.66725">
        <ele>2264</ele>
        <time>2021-08-21T10:00:06.000Z</time>
      </trkpt>
      <trkpt lat="44.10619" lon="6.66722">
        <ele>2263.6000976562</ele>
        <time>2021-08-21T10:00:11.000Z</time>
      </trkpt>
      <trkpt lat="44.10633" lon="6.66723">
        <ele>2264</ele>
        <time>2021-08-21T10:00:16.000Z</time>
      </trkpt>
      <trkpt lat="44.1065" lon="6.66721">
        <ele>2264</ele>
        <time>2021-08-21T10:00:22.000Z</time>
      </trkpt>
      <trkpt lat="44.10668" lon="6.66721">
        <ele>2264.3999023438</ele>
        <time>2021-08-21T10:00:29.000Z</time>
      </trkpt>
      <trkpt lat="44.10677" lon="6.66721">
        <ele>2265.1999511719</ele>
        <time>2021-08-21T10:00:32.000Z</time>
      </trkpt>
      <trkpt lat="44.10683" lon="6.66722">
        <ele>2265.1999511719</ele>
        <time>2021-08-21T10:00:34.000Z</time>
      </trkpt>
      <trkpt lat="44.107" lon="6.66727">
        <ele>2265.1999511719</ele>
        <time>2021-08-21T10:00:40.000Z</time>
      </trkpt>
      <trkpt lat="44.10711" lon="6.66732">
        <ele>2265.6000976562</ele>
        <time>2021-08-21T10:00:45.000Z</time>
      </trkpt>
      <trkpt lat="44.10717" lon="6.66738">
        <ele>2266.3999023438</ele>
        <time>2021-08-21T10:00:49.000Z</time>
      </trkpt>
      <trkpt lat="44.10719" lon="6.66739">
        <ele>2266.8000488281</ele>
        <time>2021-08-21T10:00:51.000Z</time>
      </trkpt>
      <trkpt lat="44.10726" lon="6.66734">
        <ele>2267</ele>
        <time>2021-08-21T10:00:55.000Z</time>
      </trkpt>
      <trkpt lat="44.10732" lon="6.66733">
        <ele>2267.1999511719</ele>
        <time>2021-08-21T10:00:58.000Z</time>
      </trkpt>
      <trkpt lat="44.10737" lon="6.6673">
        <ele>2267.1999511719</ele>
        <time>2021-08-21T10:01:01.000Z</time>
      </trkpt>
      <trkpt lat="44.10751" lon="6.66725">
        <ele>2267.1999511719</ele>
        <time>2021-08-21T10:01:08.000Z</time>
      </trkpt>
      <trkpt lat="44.10768" lon="6.66718">
        <ele>2267.3999023438</ele>
        <time>2021-08-21T10:01:16.000Z</time>
      </trkpt>
      <trkpt lat="44.10771" lon="6.66716">
        <ele>2267.3999023438</ele>
        <time>2021-08-21T10:01:18.000Z</time>
      </trkpt>
      <trkpt lat="44.1079" lon="6.66709">
        <ele>2267.8000488281</ele>
        <time>2021-08-21T10:01:28.000Z</time>
      </trkpt>
      <trkpt lat="44.10791" lon="6.66707">
        <ele>2267.8000488281</ele>
        <time>2021-08-21T10:01:29.000Z</time>
      </trkpt>
      <trkpt lat="44.10796" lon="6.66697">
        <ele>2267.6000976562</ele>
        <time>2021-08-21T10:01:34.000Z</time>
      </trkpt>
      <trkpt lat="44.10808" lon="6.66687">
        <ele>2267.3999023438</ele>
        <time>2021-08-21T10:01:39.000Z</time>
      </trkpt>
      <trkpt lat="44.10819" lon="6.66679">
        <ele>2267.3999023438</ele>
        <time>2021-08-21T10:01:45.000Z</time>
      </trkpt>
      <trkpt lat="44.10837" lon="6.66661">
        <ele>2267.8000488281</ele>
        <time>2021-08-21T10:01:53.000Z</time>
      </trkpt>
      <trkpt lat="44.10857" lon="6.66641">
        <ele>2267.8000488281</ele>
        <time>2021-08-21T10:02:01.000Z</time>
      </trkpt>
      <trkpt lat="44.10871" lon="6.66632">
        <ele>2268</ele>
        <time>2021-08-21T10:02:07.000Z</time>
      </trkpt>
      <trkpt lat="44.10881" lon="6.66629">
        <ele>2268.3999023438</ele>
        <time>2021-08-21T10:02:12.000Z</time>
      </trkpt>
      <trkpt lat="44.10886" lon="6.66629">
        <ele>2269.1999511719</ele>
        <time>2021-08-21T10:02:15.000Z</time>
      </trkpt>
      <trkpt lat="44.1089" lon="6.66629">
        <ele>2269.6000976562</ele>
        <time>2021-08-21T10:02:17.000Z</time>
      </trkpt>
      <trkpt lat="44.10899" lon="6.66629">
        <ele>2270.3999023438</ele>
        <time>2021-08-21T10:02:23.000Z</time>
      </trkpt>
      <trkpt lat="44.10903" lon="6.66631">
        <ele>2270.6000976562</ele>
        <time>2021-08-21T10:02:25.000Z</time>
      </trkpt>
      <trkpt lat="44.10912" lon="6.66637">
        <ele>2270.6000976562</ele>
        <time>2021-08-21T10:02:30.000Z</time>
      </trkpt>
      <trkpt lat="44.10917" lon="6.66647">
        <ele>2270.6000976562</ele>
        <time>2021-08-21T10:02:35.000Z</time>
      </trkpt>
      <trkpt lat="44.10925" lon="6.66671">
        <ele>2270.8000488281</ele>
        <time>2021-08-21T10:02:40.000Z</time>
      </trkpt>
      <trkpt lat="44.10935" lon="6.66705">
        <ele>2269.6000976562</ele>
        <time>2021-08-21T10:02:46.000Z</time>
      </trkpt>
      <trkpt lat="44.10936" lon="6.66709">
        <ele>2269.3999023438</ele>
        <time>2021-08-21T10:02:47.000Z</time>
      </trkpt>
      <trkpt lat="44.1094" lon="6.66733">
        <ele>2268.8000488281</ele>
        <time>2021-08-21T10:02:52.000Z</time>
      </trkpt>
      <trkpt lat="44.10942" lon="6.66753">
        <ele>2268.6000976562</ele>
        <time>2021-08-21T10:02:57.000Z</time>
      </trkpt>
      <trkpt lat="44.10945" lon="6.66764">
        <ele>2268.1999511719</ele>
        <time>2021-08-21T10:03:00.000Z</time>
      </trkpt>
      <trkpt lat="44.10948" lon="6.66767">
        <ele>2268.3999023438</ele>
        <time>2021-08-21T10:03:02.000Z</time>
      </trkpt>
      <trkpt lat="44.10953" lon="6.66777">
        <ele>2268.8000488281</ele>
        <time>2021-08-21T10:03:07.000Z</time>
      </trkpt>
      <trkpt lat="44.10957" lon="6.66786">
        <ele>2268.6000976562</ele>
        <time>2021-08-21T10:03:13.000Z</time>
      </trkpt>
      <trkpt lat="44.10958" lon="6.66791">
        <ele>2268.3999023438</ele>
        <time>2021-08-21T10:03:19.000Z</time>
      </trkpt>
      <trkpt lat="44.10959" lon="6.66798">
        <ele>2268.6000976562</ele>
        <time>2021-08-21T10:03:25.000Z</time>
      </trkpt>
      <trkpt lat="44.10964" lon="6.6681">
        <ele>2269</ele>
        <time>2021-08-21T10:03:31.000Z</time>
      </trkpt>
      <trkpt lat="44.10966" lon="6.66812">
        <ele>2269.3999023438</ele>
        <time>2021-08-21T10:03:34.000Z</time>
      </trkpt>
      <trkpt lat="44.10967" lon="6.66813">
        <ele>2269.3999023438</ele>
        <time>2021-08-21T10:03:35.000Z</time>
      </trkpt>
      <trkpt lat="44.10973" lon="6.66828">
        <ele>2269.1999511719</ele>
        <time>2021-08-21T10:03:40.000Z</time>
      </trkpt>
      <trkpt lat="44.10977" lon="6.66834">
        <ele>2269.1999511719</ele>
        <time>2021-08-21T10:03:45.000Z</time>
      </trkpt>
      <trkpt lat="44.10978" lon="6.66836">
        <ele>2269.1999511719</ele>
        <time>2021-08-21T10:03:47.000Z</time>
      </trkpt>
      <trkpt lat="44.1098" lon="6.66837">
        <ele>2269.1999511719</ele>
        <time>2021-08-21T10:03:50.000Z</time>
      </trkpt>
      <trkpt lat="44.10988" lon="6.66842">
        <ele>2269</ele>
        <time>2021-08-21T10:03:55.000Z</time>
      </trkpt>
      <trkpt lat="44.10993" lon="6.66839">
        <ele>2268.8000488281</ele>
        <time>2021-08-21T10:03:59.000Z</time>
      </trkpt>
      <trkpt lat="44.10998" lon="6.6684">
        <ele>2268.3999023438</ele>
        <time>2021-08-21T10:04:02.000Z</time>
      </trkpt>
      <trkpt lat="44.11" lon="6.66841">
        <ele>2268.1999511719</ele>
        <time>2021-08-21T10:04:03.000Z</time>
      </trkpt>
      <trkpt lat="44.11003" lon="6.66842">
        <ele>2268</ele>
        <time>2021-08-21T10:04:04.000Z</time>
      </trkpt>
      <trkpt lat="44.11005" lon="6.66844">
        <ele>2268</ele>
        <time>2021-08-21T10:04:05.000Z</time>
      </trkpt>
      <trkpt lat="44.11009" lon="6.66849">
        <ele>2267.6000976562</ele>
        <time>2021-08-21T10:04:08.000Z</time>
      </trkpt>
      <trkpt lat="44.11019" lon="6.66862">
        <ele>2267.1999511719</ele>
        <time>2021-08-21T10:04:13.000Z</time>
      </trkpt>
      <trkpt lat="44.11021" lon="6.66864">
        <ele>2267</ele>
        <time>2021-08-21T10:04:14.000Z</time>
      </trkpt>
      <trkpt lat="44.11028" lon="6.6687">
        <ele>2266.3999023438</ele>
        <time>2021-08-21T10:04:17.000Z</time>
      </trkpt>
      <trkpt lat="44.11034" lon="6.66876">
        <ele>2266</ele>
        <time>2021-08-21T10:04:20.000Z</time>
      </trkpt>
      <trkpt lat="44.11037" lon="6.66879">
        <ele>2265.6000976562</ele>
        <time>2021-08-21T10:04:22.000Z</time>
      </trkpt>
      <trkpt lat="44.11038" lon="6.6688">
        <ele>2265.1999511719</ele>
        <time>2021-08-21T10:04:24.000Z</time>
      </trkpt>
      <trkpt lat="44.11039" lon="6.6688">
        <ele>2264.6000976562</ele>
        <time>2021-08-21T10:04:25.000Z</time>
      </trkpt>
      <trkpt lat="44.1104" lon="6.66881">
        <ele>2264.3999023438</ele>
        <time>2021-08-21T10:04:26.000Z</time>
      </trkpt>
      <trkpt lat="44.11043" lon="6.66881">
        <ele>2263.1999511719</ele>
        <time>2021-08-21T10:04:29.000Z</time>
      </trkpt>
      <trkpt lat="44.11046" lon="6.6688">
        <ele>2263.1999511719</ele>
        <time>2021-08-21T10:04:33.000Z</time>
      </trkpt>
      <trkpt lat="44.11055" lon="6.66876">
        <ele>2263.1999511719</ele>
        <time>2021-08-21T10:04:42.000Z</time>
      </trkpt>
      <trkpt lat="44.11062" lon="6.66873">
        <ele>2262.1999511719</ele>
        <time>2021-08-21T10:04:48.000Z</time>
      </trkpt>
      <trkpt lat="44.11064" lon="6.66872">
        <ele>2262.3999023438</ele>
        <time>2021-08-21T10:04:50.000Z</time>
      </trkpt>
      <trkpt lat="44.11066" lon="6.66871">
        <ele>2263</ele>
        <time>2021-08-21T10:04:55.000Z</time>
      </trkpt>
      <trkpt lat="44.11068" lon="6.66872">
        <ele>2262.6000976562</ele>
        <time>2021-08-21T10:04:59.000Z</time>
      </trkpt>
      <trkpt lat="44.1107" lon="6.6687">
        <ele>2262.8000488281</ele>
        <time>2021-08-21T10:05:02.000Z</time>
      </trkpt>
      <trkpt lat="44.11079" lon="6.66869">
        <ele>2262.6000976562</ele>
        <time>2021-08-21T10:05:06.000Z</time>
      </trkpt>
      <trkpt lat="44.11094" lon="6.66872">
        <ele>2262.3999023438</ele>
        <time>2021-08-21T10:05:11.000Z</time>
      </trkpt>
      <trkpt lat="44.11113" lon="6.66881">
        <ele>2262</ele>
        <time>2021-08-21T10:05:18.000Z</time>
      </trkpt>
      <trkpt lat="44.1113" lon="6.66889">
        <ele>2262.3999023438</ele>
        <time>2021-08-21T10:05:24.000Z</time>
      </trkpt>
      <trkpt lat="44.11136" lon="6.669">
        <ele>2262.3999023438</ele>
        <time>2021-08-21T10:05:28.000Z</time>
      </trkpt>
      <trkpt lat="44.11146" lon="6.66919">
        <ele>2262.6000976562</ele>
        <time>2021-08-21T10:05:35.000Z</time>
      </trkpt>
      <trkpt lat="44.11154" lon="6.66935">
        <ele>2262.6000976562</ele>
        <time>2021-08-21T10:05:41.000Z</time>
      </trkpt>
      <trkpt lat="44.11163" lon="6.66948">
        <ele>2262.8000488281</ele>
        <time>2021-08-21T10:05:47.000Z</time>
      </trkpt>
      <trkpt lat="44.11175" lon="6.66969">
        <ele>2262.8000488281</ele>
        <time>2021-08-21T10:05:55.000Z</time>
      </trkpt>
      <trkpt lat="44.11189" lon="6.6699">
        <ele>2262.1999511719</ele>
        <time>2021-08-21T10:06:02.000Z</time>
      </trkpt>
      <trkpt lat="44.11196" lon="6.67009">
        <ele>2261.1999511719</ele>
        <time>2021-08-21T10:06:07.000Z</time>
      </trkpt>
      <trkpt lat="44.11196" lon="6.67024">
        <ele>2261</ele>
        <time>2021-08-21T10:06:11.000Z</time>
      </trkpt>
      <trkpt lat="44.11196" lon="6.67028">
        <ele>2261</ele>
        <time>2021-08-21T10:06:12.000Z</time>
      </trkpt>
      <trkpt lat="44.11195" lon="6.67052">
        <ele>2260.8000488281</ele>
        <time>2021-08-21T10:06:19.000Z</time>
      </trkpt>
      <trkpt lat="44.11194" lon="6.67073">
        <ele>2261.8000488281</ele>
        <time>2021-08-21T10:06:27.000Z</time>
      </trkpt>
      <trkpt lat="44.112" lon="6.67085">
        <ele>2261.8000488281</ele>
        <time>2021-08-21T10:06:33.000Z</time>
      </trkpt>
      <trkpt lat="44.11205" lon="6.67087">
        <ele>2262.1999511719</ele>
        <time>2021-08-21T10:06:36.000Z</time>
      </trkpt>
      <trkpt lat="44.11211" lon="6.67092">
        <ele>2263.1999511719</ele>
        <time>2021-08-21T10:06:40.000Z</time>
      </trkpt>
      <trkpt lat="44.11219" lon="6.67101">
        <ele>2264.1999511719</ele>
        <time>2021-08-21T10:06:47.000Z</time>
      </trkpt>
      <trkpt lat="44.11221" lon="6.67102">
        <ele>2264.3999023438</ele>
        <time>2021-08-21T10:06:48.000Z</time>
      </trkpt>
      <trkpt lat="44.1123" lon="6.67109">
        <ele>2265.3999023438</ele>
        <time>2021-08-21T10:06:54.000Z</time>
      </trkpt>
      <trkpt lat="44.11233" lon="6.67111">
        <ele>2265.6000976562</ele>
        <time>2021-08-21T10:06:56.000Z</time>
      </trkpt>
      <trkpt lat="44.11246" lon="6.67118">
        <ele>2266.3999023438</ele>
        <time>2021-08-21T10:07:04.000Z</time>
      </trkpt>
      <trkpt lat="44.11247" lon="6.6712">
        <ele>2266.6000976562</ele>
        <time>2021-08-21T10:07:05.000Z</time>
      </trkpt>
      <trkpt lat="44.11253" lon="6.67131">
        <ele>2266.6000976562</ele>
        <time>2021-08-21T10:07:10.000Z</time>
      </trkpt>
      <trkpt lat="44.11261" lon="6.67141">
        <ele>2266.1999511719</ele>
        <time>2021-08-21T10:07:15.000Z</time>
      </trkpt>
      <trkpt lat="44.11281" lon="6.67151">
        <ele>2267.3999023438</ele>
        <time>2021-08-21T10:07:24.000Z</time>
      </trkpt>
      <trkpt lat="44.11289" lon="6.67154">
        <ele>2267.6000976562</ele>
        <time>2021-08-21T10:07:28.000Z</time>
      </trkpt>
      <trkpt lat="44.11298" lon="6.67157">
        <ele>2268</ele>
        <time>2021-08-21T10:07:33.000Z</time>
      </trkpt>
      <trkpt lat="44.1131" lon="6.67165">
        <ele>2268.6000976562</ele>
        <time>2021-08-21T10:07:40.000Z</time>
      </trkpt>
      <trkpt lat="44.11311" lon="6.67167">
        <ele>2268.6000976562</ele>
        <time>2021-08-21T10:07:41.000Z</time>
      </trkpt>
      <trkpt lat="44.11316" lon="6.67176">
        <ele>2269</ele>
        <time>2021-08-21T10:07:47.000Z</time>
      </trkpt>
      <trkpt lat="44.11318" lon="6.67185">
        <ele>2269.6000976562</ele>
        <time>2021-08-21T10:07:53.000Z</time>
      </trkpt>
      <trkpt lat="44.11319" lon="6.67188">
        <ele>2269.8000488281</ele>
        <time>2021-08-21T10:07:55.000Z</time>
      </trkpt>
      <trkpt lat="44.11319" lon="6.67191">
        <ele>2270</ele>
        <time>2021-08-21T10:07:57.000Z</time>
      </trkpt>
      <trkpt lat="44.11317" lon="6.67194">
        <ele>2270.6000976562</ele>
        <time>2021-08-21T10:08:00.000Z</time>
      </trkpt>
      <trkpt lat="44.11316" lon="6.67195">
        <ele>2270.8000488281</ele>
        <time>2021-08-21T10:08:01.000Z</time>
      </trkpt>
      <trkpt lat="44.1131" lon="6.672">
        <ele>2271.8000488281</ele>
        <time>2021-08-21T10:08:08.000Z</time>
      </trkpt>
      <trkpt lat="44.1131" lon="6.672">
        <ele>2271.8000488281</ele>
        <time>2021-08-21T10:08:09.000Z</time>
      </trkpt>
      <trkpt lat="44.11307" lon="6.67205">
        <ele>2272.8000488281</ele>
        <time>2021-08-21T10:08:15.000Z</time>
      </trkpt>
      <trkpt lat="44.11309" lon="6.67206">
        <ele>2273</ele>
        <time>2021-08-21T10:08:16.000Z</time>
      </trkpt>
      <trkpt lat="44.1131" lon="6.67207">
        <ele>2273.1999511719</ele>
        <time>2021-08-21T10:08:17.000Z</time>
      </trkpt>
      <trkpt lat="44.11313" lon="6.6721">
        <ele>2273.8000488281</ele>
        <time>2021-08-21T10:08:21.000Z</time>
      </trkpt>
      <trkpt lat="44.11313" lon="6.67212">
        <ele>2274</ele>
        <time>2021-08-21T10:08:23.000Z</time>
      </trkpt>
      <trkpt lat="44.11313" lon="6.67213">
        <ele>2274.1999511719</ele>
        <time>2021-08-21T10:08:24.000Z</time>
      </trkpt>
      <trkpt lat="44.11313" lon="6.67216">
        <ele>2274.6000976562</ele>
        <time>2021-08-21T10:08:26.000Z</time>
      </trkpt>
      <trkpt lat="44.11315" lon="6.67218">
        <ele>2275.1999511719</ele>
        <time>2021-08-21T10:08:29.000Z</time>
      </trkpt>
      <trkpt lat="44.11314" lon="6.67217">
        <ele>2275.3999023438</ele>
        <time>2021-08-21T10:08:30.000Z</time>
      </trkpt>
      <trkpt lat="44.11315" lon="6.67217">
        <ele>2276</ele>
        <time>2021-08-21T10:08:34.000Z</time>
      </trkpt>
      <trkpt lat="44.11319" lon="6.67219">
        <ele>2276.1999511719</ele>
        <time>2021-08-21T10:08:40.000Z</time>
      </trkpt>
      <trkpt lat="44.11323" lon="6.67223">
        <ele>2277.3999023438</ele>
        <time>2021-08-21T10:08:47.000Z</time>
      </trkpt>
      <trkpt lat="44.11324" lon="6.67223">
        <ele>2277.3999023438</ele>
        <time>2021-08-21T10:08:48.000Z</time>
      </trkpt>
      <trkpt lat="44.11326" lon="6.67226">
        <ele>2278.1999511719</ele>
        <time>2021-08-21T10:08:52.000Z</time>
      </trkpt>
      <trkpt lat="44.11327" lon="6.67228">
        <ele>2278.3999023438</ele>
        <time>2021-08-21T10:08:54.000Z</time>
      </trkpt>
      <trkpt lat="44.11327" lon="6.6723">
        <ele>2278.6000976562</ele>
        <time>2021-08-21T10:08:55.000Z</time>
      </trkpt>
      <trkpt lat="44.11328" lon="6.67241">
        <ele>2279.6000976562</ele>
        <time>2021-08-21T10:09:04.000Z</time>
      </trkpt>
      <trkpt lat="44.11329" lon="6.67243">
        <ele>2279.8000488281</ele>
        <time>2021-08-21T10:09:06.000Z</time>
      </trkpt>
      <trkpt lat="44.1133" lon="6.67251">
        <ele>2280.6000976562</ele>
        <time>2021-08-21T10:09:13.000Z</time>
      </trkpt>
      <trkpt lat="44.11331" lon="6.67254">
        <ele>2281.1999511719</ele>
        <time>2021-08-21T10:09:16.000Z</time>
      </trkpt>
      <trkpt lat="44.11331" lon="6.67258">
        <ele>2281.6000976562</ele>
        <time>2021-08-21T10:09:20.000Z</time>
      </trkpt>
      <trkpt lat="44.11332" lon="6.67263">
        <ele>2282.8000488281</ele>
        <time>2021-08-21T10:09:26.000Z</time>
      </trkpt>
      <trkpt lat="44.11333" lon="6.67264">
        <ele>2283</ele>
        <time>2021-08-21T10:09:27.000Z</time>
      </trkpt>
      <trkpt lat="44.11334" lon="6.67271">
        <ele>2284</ele>
        <time>2021-08-21T10:09:34.000Z</time>
      </trkpt>
      <trkpt lat="44.11334" lon="6.67273">
        <ele>2284.1999511719</ele>
        <time>2021-08-21T10:09:36.000Z</time>
      </trkpt>
      <trkpt lat="44.11336" lon="6.67278">
        <ele>2285</ele>
        <time>2021-08-21T10:09:42.000Z</time>
      </trkpt>
      <trkpt lat="44.11337" lon="6.67281">
        <ele>2285.3999023438</ele>
        <time>2021-08-21T10:09:45.000Z</time>
      </trkpt>
      <trkpt lat="44.11338" lon="6.67283">
        <ele>2286</ele>
        <time>2021-08-21T10:09:48.000Z</time>
      </trkpt>
      <trkpt lat="44.1134" lon="6.67288">
        <ele>2287</ele>
        <time>2021-08-21T10:09:55.000Z</time>
      </trkpt>
      <trkpt lat="44.11343" lon="6.67294">
        <ele>2288.1999511719</ele>
        <time>2021-08-21T10:10:02.000Z</time>
      </trkpt>
      <trkpt lat="44.11343" lon="6.67298">
        <ele>2288.8000488281</ele>
        <time>2021-08-21T10:10:05.000Z</time>
      </trkpt>
      <trkpt lat="44.11344" lon="6.67301">
        <ele>2289.3999023438</ele>
        <time>2021-08-21T10:10:08.000Z</time>
      </trkpt>
      <trkpt lat="44.11346" lon="6.67307">
        <ele>2290.3999023438</ele>
        <time>2021-08-21T10:10:14.000Z</time>
      </trkpt>
      <trkpt lat="44.11347" lon="6.67307">
        <ele>2290.6000976562</ele>
        <time>2021-08-21T10:10:15.000Z</time>
      </trkpt>
      <trkpt lat="44.11349" lon="6.67311">
        <ele>2291.6000976562</ele>
        <time>2021-08-21T10:10:20.000Z</time>
      </trkpt>
      <trkpt lat="44.1135" lon="6.67313">
        <ele>2291.8000488281</ele>
        <time>2021-08-21T10:10:22.000Z</time>
      </trkpt>
      <trkpt lat="44.11353" lon="6.67317">
        <ele>2292.6000976562</ele>
        <time>2021-08-21T10:10:27.000Z</time>
      </trkpt>
      <trkpt lat="44.11354" lon="6.67321">
        <ele>2293</ele>
        <time>2021-08-21T10:10:30.000Z</time>
      </trkpt>
      <trkpt lat="44.11355" lon="6.67324">
        <ele>2293.6000976562</ele>
        <time>2021-08-21T10:10:33.000Z</time>
      </trkpt>
      <trkpt lat="44.11356" lon="6.67328">
        <ele>2294.6000976562</ele>
        <time>2021-08-21T10:10:40.000Z</time>
      </trkpt>
      <trkpt lat="44.11356" lon="6.67327">
        <ele>2295.1999511719</ele>
        <time>2021-08-21T10:10:54.000Z</time>
      </trkpt>
      <trkpt lat="44.11356" lon="6.67328">
        <ele>2295.1999511719</ele>
        <time>2021-08-21T10:11:06.000Z</time>
      </trkpt>
      <trkpt lat="44.1136" lon="6.67331">
        <ele>2295.3999023438</ele>
        <time>2021-08-21T10:11:13.000Z</time>
      </trkpt>
      <trkpt lat="44.11363" lon="6.67334">
        <ele>2295.8000488281</ele>
        <time>2021-08-21T10:11:16.000Z</time>
      </trkpt>
      <trkpt lat="44.11369" lon="6.67339">
        <ele>2296.8000488281</ele>
        <time>2021-08-21T10:11:22.000Z</time>
      </trkpt>
      <trkpt lat="44.11374" lon="6.67345">
        <ele>2298</ele>
        <time>2021-08-21T10:11:28.000Z</time>
      </trkpt>
      <trkpt lat="44.11379" lon="6.67349">
        <ele>2298.8000488281</ele>
        <time>2021-08-21T10:11:33.000Z</time>
      </trkpt>
      <trkpt lat="44.1138" lon="6.6735">
        <ele>2299</ele>
        <time>2021-08-21T10:11:34.000Z</time>
      </trkpt>
      <trkpt lat="44.11385" lon="6.67355">
        <ele>2300</ele>
        <time>2021-08-21T10:11:40.000Z</time>
      </trkpt>
      <trkpt lat="44.11386" lon="6.67356">
        <ele>2300.1999511719</ele>
        <time>2021-08-21T10:11:41.000Z</time>
      </trkpt>
      <trkpt lat="44.11387" lon="6.67357">
        <ele>2300.3999023438</ele>
        <time>2021-08-21T10:11:42.000Z</time>
      </trkpt>
      <trkpt lat="44.1139" lon="6.6736">
        <ele>2301</ele>
        <time>2021-08-21T10:11:46.000Z</time>
      </trkpt>
      <trkpt lat="44.11391" lon="6.6736">
        <ele>2301.1999511719</ele>
        <time>2021-08-21T10:11:47.000Z</time>
      </trkpt>
      <trkpt lat="44.11395" lon="6.67365">
        <ele>2302</ele>
        <time>2021-08-21T10:11:52.000Z</time>
      </trkpt>
      <trkpt lat="44.11396" lon="6.67365">
        <ele>2302.6000976562</ele>
        <time>2021-08-21T10:11:54.000Z</time>
      </trkpt>
      <trkpt lat="44.11397" lon="6.67368">
        <ele>2303.1999511719</ele>
        <time>2021-08-21T10:11:58.000Z</time>
      </trkpt>
      <trkpt lat="44.11398" lon="6.67369">
        <ele>2303.1999511719</ele>
        <time>2021-08-21T10:12:00.000Z</time>
      </trkpt>
      <trkpt lat="44.114" lon="6.67372">
        <ele>2303.6000976562</ele>
        <time>2021-08-21T10:12:07.000Z</time>
      </trkpt>
      <trkpt lat="44.11401" lon="6.67373">
        <ele>2304.1999511719</ele>
        <time>2021-08-21T10:12:11.000Z</time>
      </trkpt>
      <trkpt lat="44.11406" lon="6.67377">
        <ele>2304.6000976562</ele>
        <time>2021-08-21T10:12:18.000Z</time>
      </trkpt>
      <trkpt lat="44.11408" lon="6.67379">
        <ele>2305</ele>
        <time>2021-08-21T10:12:20.000Z</time>
      </trkpt>
      <trkpt lat="44.11409" lon="6.6738">
        <ele>2305.1999511719</ele>
        <time>2021-08-21T10:12:21.000Z</time>
      </trkpt>
      <trkpt lat="44.11413" lon="6.67385">
        <ele>2306.1999511719</ele>
        <time>2021-08-21T10:12:27.000Z</time>
      </trkpt>
      <trkpt lat="44.11414" lon="6.67386">
        <ele>2306.3999023438</ele>
        <time>2021-08-21T10:12:28.000Z</time>
      </trkpt>
      <trkpt lat="44.11417" lon="6.67393">
        <ele>2307.1999511719</ele>
        <time>2021-08-21T10:12:34.000Z</time>
      </trkpt>
      <trkpt lat="44.11418" lon="6.67395">
        <ele>2307.3999023438</ele>
        <time>2021-08-21T10:12:35.000Z</time>
      </trkpt>
      <trkpt lat="44.11423" lon="6.67402">
        <ele>2308.3999023438</ele>
        <time>2021-08-21T10:12:42.000Z</time>
      </trkpt>
      <trkpt lat="44.11424" lon="6.67403">
        <ele>2308.6000976562</ele>
        <time>2021-08-21T10:12:43.000Z</time>
      </trkpt>
      <trkpt lat="44.11431" lon="6.67407">
        <ele>2309.8000488281</ele>
        <time>2021-08-21T10:12:50.000Z</time>
      </trkpt>
      <trkpt lat="44.1144" lon="6.6741">
        <ele>2310.8000488281</ele>
        <time>2021-08-21T10:12:58.000Z</time>
      </trkpt>
      <trkpt lat="44.11449" lon="6.67413">
        <ele>2311.8000488281</ele>
        <time>2021-08-21T10:13:06.000Z</time>
      </trkpt>
      <trkpt lat="44.1145" lon="6.67413">
        <ele>2312</ele>
        <time>2021-08-21T10:13:07.000Z</time>
      </trkpt>
      <trkpt lat="44.11458" lon="6.67416">
        <ele>2312.8000488281</ele>
        <time>2021-08-21T10:13:15.000Z</time>
      </trkpt>
      <trkpt lat="44.11459" lon="6.67416">
        <ele>2312.8000488281</ele>
        <time>2021-08-21T10:13:16.000Z</time>
      </trkpt>
      <trkpt lat="44.11466" lon="6.67417">
        <ele>2313.8000488281</ele>
        <time>2021-08-21T10:13:22.000Z</time>
      </trkpt>
      <trkpt lat="44.11467" lon="6.67417">
        <ele>2314</ele>
        <time>2021-08-21T10:13:23.000Z</time>
      </trkpt>
      <trkpt lat="44.11474" lon="6.67417">
        <ele>2315</ele>
        <time>2021-08-21T10:13:30.000Z</time>
      </trkpt>
      <trkpt lat="44.11475" lon="6.67418">
        <ele>2315</ele>
        <time>2021-08-21T10:13:31.000Z</time>
      </trkpt>
      <trkpt lat="44.11483" lon="6.67426">
        <ele>2316.1999511719</ele>
        <time>2021-08-21T10:13:40.000Z</time>
      </trkpt>
      <trkpt lat="44.11489" lon="6.67429">
        <ele>2317</ele>
        <time>2021-08-21T10:13:47.000Z</time>
      </trkpt>
      <trkpt lat="44.1149" lon="6.67428">
        <ele>2317.3999023438</ele>
        <time>2021-08-21T10:13:48.000Z</time>
      </trkpt>
      <trkpt lat="44.11497" lon="6.67425">
        <ele>2318.1999511719</ele>
        <time>2021-08-21T10:13:54.000Z</time>
      </trkpt>
      <trkpt lat="44.11498" lon="6.67425">
        <ele>2318.3999023438</ele>
        <time>2021-08-21T10:13:55.000Z</time>
      </trkpt>
      <trkpt lat="44.11507" lon="6.67423">
        <ele>2319.3999023438</ele>
        <time>2021-08-21T10:14:03.000Z</time>
      </trkpt>
      <trkpt lat="44.11508" lon="6.67423">
        <ele>2319.3999023438</ele>
        <time>2021-08-21T10:14:04.000Z</time>
      </trkpt>
      <trkpt lat="44.1151" lon="6.67423">
        <ele>2319.8000488281</ele>
        <time>2021-08-21T10:14:06.000Z</time>
      </trkpt>
      <trkpt lat="44.1151" lon="6.67424">
        <ele>2320.1999511719</ele>
        <time>2021-08-21T10:14:08.000Z</time>
      </trkpt>
      <trkpt lat="44.11511" lon="6.67424">
        <ele>2320.6000976562</ele>
        <time>2021-08-21T10:14:10.000Z</time>
      </trkpt>
      <trkpt lat="44.11512" lon="6.67426">
        <ele>2320.8000488281</ele>
        <time>2021-08-21T10:14:14.000Z</time>
      </trkpt>
      <trkpt lat="44.11508" lon="6.6743">
        <ele>2321.3999023438</ele>
        <time>2021-08-21T10:14:22.000Z</time>
      </trkpt>
      <trkpt lat="44.11507" lon="6.67431">
        <ele>2321.6000976562</ele>
        <time>2021-08-21T10:14:23.000Z</time>
      </trkpt>
      <trkpt lat="44.11504" lon="6.67436">
        <ele>2322.6000976562</ele>
        <time>2021-08-21T10:14:31.000Z</time>
      </trkpt>
      <trkpt lat="44.11503" lon="6.67437">
        <ele>2322.6000976562</ele>
        <time>2021-08-21T10:14:32.000Z</time>
      </trkpt>
      <trkpt lat="44.11503" lon="6.67439">
        <ele>2323</ele>
        <time>2021-08-21T10:14:37.000Z</time>
      </trkpt>
      <trkpt lat="44.11504" lon="6.6744">
        <ele>2323.6000976562</ele>
        <time>2021-08-21T10:14:42.000Z</time>
      </trkpt>
      <trkpt lat="44.11504" lon="6.6744">
        <ele>2323.8000488281</ele>
        <time>2021-08-21T10:14:43.000Z</time>
      </trkpt>
      <trkpt lat="44.11504" lon="6.67442">
        <ele>2324</ele>
        <time>2021-08-21T10:14:49.000Z</time>
      </trkpt>
      <trkpt lat="44.115" lon="6.67452">
        <ele>2324.6000976562</ele>
        <time>2021-08-21T10:14:58.000Z</time>
      </trkpt>
      <trkpt lat="44.115" lon="6.67453">
        <ele>2325</ele>
        <time>2021-08-21T10:14:59.000Z</time>
      </trkpt>
      <trkpt lat="44.11499" lon="6.67458">
        <ele>2326</ele>
        <time>2021-08-21T10:15:04.000Z</time>
      </trkpt>
      <trkpt lat="44.11499" lon="6.6746">
        <ele>2326.1999511719</ele>
        <time>2021-08-21T10:15:06.000Z</time>
      </trkpt>
      <trkpt lat="44.11498" lon="6.67465">
        <ele>2327</ele>
        <time>2021-08-21T10:15:14.000Z</time>
      </trkpt>
      <trkpt lat="44.11498" lon="6.67466">
        <ele>2327.1999511719</ele>
        <time>2021-08-21T10:15:15.000Z</time>
      </trkpt>
      <trkpt lat="44.11498" lon="6.6747">
        <ele>2328.3999023438</ele>
        <time>2021-08-21T10:15:21.000Z</time>
      </trkpt>
      <trkpt lat="44.11498" lon="6.67472">
        <ele>2329</ele>
        <time>2021-08-21T10:15:25.000Z</time>
      </trkpt>
      <trkpt lat="44.11498" lon="6.67475">
        <ele>2329.3999023438</ele>
        <time>2021-08-21T10:15:30.000Z</time>
      </trkpt>
      <trkpt lat="44.11498" lon="6.67479">
        <ele>2330.6000976562</ele>
        <time>2021-08-21T10:15:37.000Z</time>
      </trkpt>
      <trkpt lat="44.11497" lon="6.67483">
        <ele>2331.6000976562</ele>
        <time>2021-08-21T10:15:43.000Z</time>
      </trkpt>
      <trkpt lat="44.11497" lon="6.67484">
        <ele>2332.1999511719</ele>
        <time>2021-08-21T10:15:46.000Z</time>
      </trkpt>
      <trkpt lat="44.11497" lon="6.67486">
        <ele>2332.6000976562</ele>
        <time>2021-08-21T10:15:50.000Z</time>
      </trkpt>
      <trkpt lat="44.11496" lon="6.67488">
        <ele>2333.8000488281</ele>
        <time>2021-08-21T10:15:55.000Z</time>
      </trkpt>
      <trkpt lat="44.11495" lon="6.67493">
        <ele>2335</ele>
        <time>2021-08-21T10:16:03.000Z</time>
      </trkpt>
      <trkpt lat="44.11495" lon="6.67494">
        <ele>2335.1999511719</ele>
        <time>2021-08-21T10:16:05.000Z</time>
      </trkpt>
      <trkpt lat="44.11494" lon="6.67496">
        <ele>2336.1999511719</ele>
        <time>2021-08-21T10:16:10.000Z</time>
      </trkpt>
      <trkpt lat="44.11495" lon="6.67498">
        <ele>2337</ele>
        <time>2021-08-21T10:16:15.000Z</time>
      </trkpt>
      <trkpt lat="44.11495" lon="6.67499">
        <ele>2337.1999511719</ele>
        <time>2021-08-21T10:16:16.000Z</time>
      </trkpt>
      <trkpt lat="44.11495" lon="6.67503">
        <ele>2338.1999511719</ele>
        <time>2021-08-21T10:16:22.000Z</time>
      </trkpt>
      <trkpt lat="44.11495" lon="6.67503">
        <ele>2338.1999511719</ele>
        <time>2021-08-21T10:16:23.000Z</time>
      </trkpt>
      <trkpt lat="44.11496" lon="6.67507">
        <ele>2339.1999511719</ele>
        <time>2021-08-21T10:16:29.000Z</time>
      </trkpt>
      <trkpt lat="44.11497" lon="6.67507">
        <ele>2339.3999023438</ele>
        <time>2021-08-21T10:16:30.000Z</time>
      </trkpt>
      <trkpt lat="44.11498" lon="6.6751">
        <ele>2340.3999023438</ele>
        <time>2021-08-21T10:16:36.000Z</time>
      </trkpt>
      <trkpt lat="44.11499" lon="6.67511">
        <ele>2340.6000976562</ele>
        <time>2021-08-21T10:16:38.000Z</time>
      </trkpt>
      <trkpt lat="44.11499" lon="6.67514">
        <ele>2341.6000976562</ele>
        <time>2021-08-21T10:16:44.000Z</time>
      </trkpt>
      <trkpt lat="44.11499" lon="6.67515">
        <ele>2342</ele>
        <time>2021-08-21T10:16:46.000Z</time>
      </trkpt>
      <trkpt lat="44.11499" lon="6.67518">
        <ele>2342.8000488281</ele>
        <time>2021-08-21T10:16:50.000Z</time>
      </trkpt>
      <trkpt lat="44.11498" lon="6.67519">
        <ele>2343.3999023438</ele>
        <time>2021-08-21T10:16:55.000Z</time>
      </trkpt>
      <trkpt lat="44.11497" lon="6.67521">
        <ele>2343.8000488281</ele>
        <time>2021-08-21T10:16:58.000Z</time>
      </trkpt>
      <trkpt lat="44.11496" lon="6.67523">
        <ele>2344.6000976562</ele>
        <time>2021-08-21T10:17:03.000Z</time>
      </trkpt>
      <trkpt lat="44.11495" lon="6.67524">
        <ele>2344.8000488281</ele>
        <time>2021-08-21T10:17:05.000Z</time>
      </trkpt>
      <trkpt lat="44.11495" lon="6.67527">
        <ele>2346</ele>
        <time>2021-08-21T10:17:11.000Z</time>
      </trkpt>
      <trkpt lat="44.11496" lon="6.67528">
        <ele>2346</ele>
        <time>2021-08-21T10:17:12.000Z</time>
      </trkpt>
      <trkpt lat="44.11497" lon="6.67531">
        <ele>2347</ele>
        <time>2021-08-21T10:17:19.000Z</time>
      </trkpt>
      <trkpt lat="44.11497" lon="6.67532">
        <ele>2347</ele>
        <time>2021-08-21T10:17:20.000Z</time>
      </trkpt>
      <trkpt lat="44.11496" lon="6.67537">
        <ele>2348.1999511719</ele>
        <time>2021-08-21T10:17:27.000Z</time>
      </trkpt>
      <trkpt lat="44.11496" lon="6.67536">
        <ele>2348.3999023438</ele>
        <time>2021-08-21T10:17:28.000Z</time>
      </trkpt>
      <trkpt lat="44.11496" lon="6.67539">
        <ele>2349.1999511719</ele>
        <time>2021-08-21T10:17:33.000Z</time>
      </trkpt>
      <trkpt lat="44.11496" lon="6.67542">
        <ele>2349.8000488281</ele>
        <time>2021-08-21T10:17:37.000Z</time>
      </trkpt>
      <trkpt lat="44.11496" lon="6.67544">
        <ele>2350.3999023438</ele>
        <time>2021-08-21T10:17:40.000Z</time>
      </trkpt>
      <trkpt lat="44.11497" lon="6.67549">
        <ele>2351.3999023438</ele>
        <time>2021-08-21T10:17:47.000Z</time>
      </trkpt>
      <trkpt lat="44.11497" lon="6.6755">
        <ele>2351.6000976562</ele>
        <time>2021-08-21T10:17:48.000Z</time>
      </trkpt>
      <trkpt lat="44.11498" lon="6.67553">
        <ele>2352.3999023438</ele>
        <time>2021-08-21T10:17:54.000Z</time>
      </trkpt>
      <trkpt lat="44.11499" lon="6.67555">
        <ele>2353</ele>
        <time>2021-08-21T10:17:57.000Z</time>
      </trkpt>
      <trkpt lat="44.11501" lon="6.67557">
        <ele>2353.8000488281</ele>
        <time>2021-08-21T10:18:02.000Z</time>
      </trkpt>
      <trkpt lat="44.11502" lon="6.67559">
        <ele>2354.3999023438</ele>
        <time>2021-08-21T10:18:06.000Z</time>
      </trkpt>
      <trkpt lat="44.11503" lon="6.67561">
        <ele>2354.8000488281</ele>
        <time>2021-08-21T10:18:09.000Z</time>
      </trkpt>
      <trkpt lat="44.11504" lon="6.67563">
        <ele>2355.6000976562</ele>
        <time>2021-08-21T10:18:14.000Z</time>
      </trkpt>
      <trkpt lat="44.11504" lon="6.67565">
        <ele>2355.8000488281</ele>
        <time>2021-08-21T10:18:16.000Z</time>
      </trkpt>
      <trkpt lat="44.11504" lon="6.67566">
        <ele>2356.8000488281</ele>
        <time>2021-08-21T10:18:22.000Z</time>
      </trkpt>
      <trkpt lat="44.11505" lon="6.67567">
        <ele>2357</ele>
        <time>2021-08-21T10:18:23.000Z</time>
      </trkpt>
      <trkpt lat="44.11506" lon="6.6757">
        <ele>2358</ele>
        <time>2021-08-21T10:18:29.000Z</time>
      </trkpt>
      <trkpt lat="44.11506" lon="6.6757">
        <ele>2358.1999511719</ele>
        <time>2021-08-21T10:18:30.000Z</time>
      </trkpt>
      <trkpt lat="44.11508" lon="6.67573">
        <ele>2359.1999511719</ele>
        <time>2021-08-21T10:18:35.000Z</time>
      </trkpt>
      <trkpt lat="44.11509" lon="6.67574">
        <ele>2359.8000488281</ele>
        <time>2021-08-21T10:18:39.000Z</time>
      </trkpt>
      <trkpt lat="44.11509" lon="6.67575">
        <ele>2360.3999023438</ele>
        <time>2021-08-21T10:18:42.000Z</time>
      </trkpt>
      <trkpt lat="44.1151" lon="6.67578">
        <ele>2361</ele>
        <time>2021-08-21T10:18:46.000Z</time>
      </trkpt>
      <trkpt lat="44.11511" lon="6.67579">
        <ele>2361.3999023438</ele>
        <time>2021-08-21T10:18:48.000Z</time>
      </trkpt>
      <trkpt lat="44.11514" lon="6.6758">
        <ele>2362.3999023438</ele>
        <time>2021-08-21T10:18:53.000Z</time>
      </trkpt>
      <trkpt lat="44.11515" lon="6.67581">
        <ele>2362.3999023438</ele>
        <time>2021-08-21T10:18:54.000Z</time>
      </trkpt>
      <trkpt lat="44.11518" lon="6.67585">
        <ele>2363.3999023438</ele>
        <time>2021-08-21T10:19:01.000Z</time>
      </trkpt>
      <trkpt lat="44.11519" lon="6.67585">
        <ele>2363.3999023438</ele>
        <time>2021-08-21T10:19:02.000Z</time>
      </trkpt>
      <trkpt lat="44.11523" lon="6.67591">
        <ele>2364.6000976562</ele>
        <time>2021-08-21T10:19:09.000Z</time>
      </trkpt>
      <trkpt lat="44.11523" lon="6.67592">
        <ele>2364.8000488281</ele>
        <time>2021-08-21T10:19:10.000Z</time>
      </trkpt>
      <trkpt lat="44.11527" lon="6.67597">
        <ele>2365.6000976562</ele>
        <time>2021-08-21T10:19:17.000Z</time>
      </trkpt>
      <trkpt lat="44.11528" lon="6.67599">
        <ele>2366</ele>
        <time>2021-08-21T10:19:19.000Z</time>
      </trkpt>
      <trkpt lat="44.11533" lon="6.67602">
        <ele>2366.3999023438</ele>
        <time>2021-08-21T10:19:27.000Z</time>
      </trkpt>
      <trkpt lat="44.11534" lon="6.67605">
        <ele>2366.6000976562</ele>
        <time>2021-08-21T10:19:30.000Z</time>
      </trkpt>
      <trkpt lat="44.11534" lon="6.67606">
        <ele>2366.8000488281</ele>
        <time>2021-08-21T10:19:31.000Z</time>
      </trkpt>
      <trkpt lat="44.11534" lon="6.6761">
        <ele>2366.8000488281</ele>
        <time>2021-08-21T10:19:34.000Z</time>
      </trkpt>
      <trkpt lat="44.11536" lon="6.6762">
        <ele>2367.1999511719</ele>
        <time>2021-08-21T10:19:43.000Z</time>
      </trkpt>
      <trkpt lat="44.11539" lon="6.6763">
        <ele>2366.8000488281</ele>
        <time>2021-08-21T10:19:52.000Z</time>
      </trkpt>
      <trkpt lat="44.11543" lon="6.67636">
        <ele>2367.1999511719</ele>
        <time>2021-08-21T10:20:00.000Z</time>
      </trkpt>
      <trkpt lat="44.11548" lon="6.67641">
        <ele>2367.6000976562</ele>
        <time>2021-08-21T10:20:10.000Z</time>
      </trkpt>
      <trkpt lat="44.11549" lon="6.67646">
        <ele>2367.8000488281</ele>
        <time>2021-08-21T10:20:15.000Z</time>
      </trkpt>
      <trkpt lat="44.1155" lon="6.67648">
        <ele>2368</ele>
        <time>2021-08-21T10:20:18.000Z</time>
      </trkpt>
      <trkpt lat="44.11554" lon="6.67654">
        <ele>2368.6000976562</ele>
        <time>2021-08-21T10:20:26.000Z</time>
      </trkpt>
      <trkpt lat="44.11556" lon="6.67657">
        <ele>2368.3999023438</ele>
        <time>2021-08-21T10:20:30.000Z</time>
      </trkpt>
      <trkpt lat="44.11558" lon="6.6766">
        <ele>2368.8000488281</ele>
        <time>2021-08-21T10:20:34.000Z</time>
      </trkpt>
      <trkpt lat="44.11559" lon="6.6766">
        <ele>2369</ele>
        <time>2021-08-21T10:20:35.000Z</time>
      </trkpt>
      <trkpt lat="44.11564" lon="6.67662">
        <ele>2369</ele>
        <time>2021-08-21T10:20:41.000Z</time>
      </trkpt>
      <trkpt lat="44.11571" lon="6.67666">
        <ele>2369.3999023438</ele>
        <time>2021-08-21T10:20:50.000Z</time>
      </trkpt>
      <trkpt lat="44.11574" lon="6.67669">
        <ele>2369.8000488281</ele>
        <time>2021-08-21T10:20:57.000Z</time>
      </trkpt>
      <trkpt lat="44.11576" lon="6.6767">
        <ele>2370</ele>
        <time>2021-08-21T10:20:59.000Z</time>
      </trkpt>
      <trkpt lat="44.1158" lon="6.67671">
        <ele>2370.6000976562</ele>
        <time>2021-08-21T10:21:05.000Z</time>
      </trkpt>
      <trkpt lat="44.11585" lon="6.67675">
        <ele>2371</ele>
        <time>2021-08-21T10:21:12.000Z</time>
      </trkpt>
      <trkpt lat="44.11586" lon="6.67676">
        <ele>2371</ele>
        <time>2021-08-21T10:21:13.000Z</time>
      </trkpt>
      <trkpt lat="44.11589" lon="6.67679">
        <ele>2372.1999511719</ele>
        <time>2021-08-21T10:21:19.000Z</time>
      </trkpt>
      <trkpt lat="44.1159" lon="6.67679">
        <ele>2372.3999023438</ele>
        <time>2021-08-21T10:21:20.000Z</time>
      </trkpt>
      <trkpt lat="44.11593" lon="6.67682">
        <ele>2373.1999511719</ele>
        <time>2021-08-21T10:21:24.000Z</time>
      </trkpt>
      <trkpt lat="44.11594" lon="6.67682">
        <ele>2373.1999511719</ele>
        <time>2021-08-21T10:21:25.000Z</time>
      </trkpt>
      <trkpt lat="44.11595" lon="6.67685">
        <ele>2373.3999023438</ele>
        <time>2021-08-21T10:21:27.000Z</time>
      </trkpt>
      <trkpt lat="44.11595" lon="6.67686">
        <ele>2373.3999023438</ele>
        <time>2021-08-21T10:21:28.000Z</time>
      </trkpt>
      <trkpt lat="44.11596" lon="6.6769">
        <ele>2374</ele>
        <time>2021-08-21T10:21:31.000Z</time>
      </trkpt>
      <trkpt lat="44.11596" lon="6.67693">
        <ele>2374.1999511719</ele>
        <time>2021-08-21T10:21:33.000Z</time>
      </trkpt>
      <trkpt lat="44.11597" lon="6.67697">
        <ele>2374.6000976562</ele>
        <time>2021-08-21T10:21:36.000Z</time>
      </trkpt>
      <trkpt lat="44.116" lon="6.67706">
        <ele>2374.8000488281</ele>
        <time>2021-08-21T10:21:43.000Z</time>
      </trkpt>
      <trkpt lat="44.11602" lon="6.6771">
        <ele>2375.3999023438</ele>
        <time>2021-08-21T10:21:47.000Z</time>
      </trkpt>
      <trkpt lat="44.11605" lon="6.67713">
        <ele>2376</ele>
        <time>2021-08-21T10:21:51.000Z</time>
      </trkpt>
      <trkpt lat="44.11609" lon="6.67714">
        <ele>2376.6000976562</ele>
        <time>2021-08-21T10:21:55.000Z</time>
      </trkpt>
      <trkpt lat="44.11613" lon="6.67716">
        <ele>2377.1999511719</ele>
        <time>2021-08-21T10:21:59.000Z</time>
      </trkpt>
      <trkpt lat="44.11625" lon="6.67718">
        <ele>2377.3999023438</ele>
        <time>2021-08-21T10:22:10.000Z</time>
      </trkpt>
      <trkpt lat="44.11625" lon="6.67718">
        <ele>2377.3999023438</ele>
        <time>2021-08-21T10:22:16.000Z</time>
      </trkpt>
      <trkpt lat="44.11625" lon="6.67718">
        <ele>2377.6000976562</ele>
        <time>2021-08-21T10:22:21.000Z</time>
      </trkpt>
      <trkpt lat="44.11626" lon="6.67718">
        <ele>2377.6000976562</ele>
        <time>2021-08-21T10:22:22.000Z</time>
      </trkpt>
      <trkpt lat="44.11627" lon="6.67717">
        <ele>2377.3999023438</ele>
        <time>2021-08-21T10:22:34.000Z</time>
      </trkpt>
      <trkpt lat="44.11627" lon="6.67717">
        <ele>2377.3999023438</ele>
        <time>2021-08-21T10:22:44.000Z</time>
      </trkpt>
      <trkpt lat="44.11627" lon="6.67715">
        <ele>2377.3999023438</ele>
        <time>2021-08-21T10:23:01.000Z</time>
      </trkpt>
      <trkpt lat="44.11627" lon="6.67715">
        <ele>2377.1999511719</ele>
        <time>2021-08-21T10:23:18.000Z</time>
      </trkpt>
      <trkpt lat="44.11627" lon="6.67714">
        <ele>2378</ele>
        <time>2021-08-21T10:23:31.000Z</time>
      </trkpt>
      <trkpt lat="44.11627" lon="6.67714">
        <ele>2377.3999023438</ele>
        <time>2021-08-21T10:23:39.000Z</time>
      </trkpt>
      <trkpt lat="44.11627" lon="6.67715">
        <ele>2377.3999023438</ele>
        <time>2021-08-21T10:23:52.000Z</time>
      </trkpt>
      <trkpt lat="44.11627" lon="6.67714">
        <ele>2377.3999023438</ele>
        <time>2021-08-21T10:24:07.000Z</time>
      </trkpt>
      <trkpt lat="44.11628" lon="6.67715">
        <ele>2377.3999023438</ele>
        <time>2021-08-21T10:24:20.000Z</time>
      </trkpt>
      <trkpt lat="44.11627" lon="6.67714">
        <ele>2377</ele>
        <time>2021-08-21T10:24:27.000Z</time>
      </trkpt>
      <trkpt lat="44.11628" lon="6.67714">
        <ele>2377</ele>
        <time>2021-08-21T10:24:47.000Z</time>
      </trkpt>
      <trkpt lat="44.11628" lon="6.67714">
        <ele>2377.3999023438</ele>
        <time>2021-08-21T10:24:59.000Z</time>
      </trkpt>
      <trkpt lat="44.11629" lon="6.67714">
        <ele>2377.1999511719</ele>
        <time>2021-08-21T10:25:05.000Z</time>
      </trkpt>
      <trkpt lat="44.11628" lon="6.67714">
        <ele>2377.1999511719</ele>
        <time>2021-08-21T10:25:18.000Z</time>
      </trkpt>
      <trkpt lat="44.11628" lon="6.67714">
        <ele>2377</ele>
        <time>2021-08-21T10:25:33.000Z</time>
      </trkpt>
      <trkpt lat="44.11628" lon="6.67714">
        <ele>2377</ele>
        <time>2021-08-21T10:25:42.000Z</time>
      </trkpt>
      <trkpt lat="44.11628" lon="6.67714">
        <ele>2377</ele>
        <time>2021-08-21T10:25:55.000Z</time>
      </trkpt>
      <trkpt lat="44.11627" lon="6.67715">
        <ele>2376.8000488281</ele>
        <time>2021-08-21T10:26:05.000Z</time>
      </trkpt>
      <trkpt lat="44.11627" lon="6.67714">
        <ele>2377.1999511719</ele>
        <time>2021-08-21T10:26:09.000Z</time>
      </trkpt>
      <trkpt lat="44.11627" lon="6.67714">
        <ele>2378</ele>
        <time>2021-08-21T10:26:19.000Z</time>
      </trkpt>
      <trkpt lat="44.11628" lon="6.67714">
        <ele>2377.1999511719</ele>
        <time>2021-08-21T10:26:26.000Z</time>
      </trkpt>
      <trkpt lat="44.11631" lon="6.6772">
        <ele>2377.1999511719</ele>
        <time>2021-08-21T10:26:31.000Z</time>
      </trkpt>
      <trkpt lat="44.11644" lon="6.67727">
        <ele>2376.6000976562</ele>
        <time>2021-08-21T10:26:37.000Z</time>
      </trkpt>
      <trkpt lat="44.11645" lon="6.67726">
        <ele>2376.1999511719</ele>
        <time>2021-08-21T10:26:38.000Z</time>
      </trkpt>
      <trkpt lat="44.11649" lon="6.67722">
        <ele>2375.3999023438</ele>
        <time>2021-08-21T10:26:41.000Z</time>
      </trkpt>
      <trkpt lat="44.11652" lon="6.67721">
        <ele>2375.1999511719</ele>
        <time>2021-08-21T10:26:43.000Z</time>
      </trkpt>
      <trkpt lat="44.11657" lon="6.67718">
        <ele>2375</ele>
        <time>2021-08-21T10:26:45.000Z</time>
      </trkpt>
      <trkpt lat="44.11673" lon="6.67715">
        <ele>2374.1999511719</ele>
        <time>2021-08-21T10:26:50.000Z</time>
      </trkpt>
      <trkpt lat="44.11682" lon="6.67713">
        <ele>2373.8000488281</ele>
        <time>2021-08-21T10:26:52.000Z</time>
      </trkpt>
      <trkpt lat="44.11687" lon="6.67708">
        <ele>2373.1999511719</ele>
        <time>2021-08-21T10:26:54.000Z</time>
      </trkpt>
      <trkpt lat="44.11694" lon="6.67703">
        <ele>2373</ele>
        <time>2021-08-21T10:26:55.000Z</time>
      </trkpt>
      <trkpt lat="44.11709" lon="6.677">
        <ele>2372.1999511719</ele>
        <time>2021-08-21T10:26:58.000Z</time>
      </trkpt>
      <trkpt lat="44.1172" lon="6.67701">
        <ele>2371.8000488281</ele>
        <time>2021-08-21T10:27:00.000Z</time>
      </trkpt>
      <trkpt lat="44.11726" lon="6.67702">
        <ele>2371.6000976562</ele>
        <time>2021-08-21T10:27:01.000Z</time>
      </trkpt>
      <trkpt lat="44.11736" lon="6.67705">
        <ele>2371</ele>
        <time>2021-08-21T10:27:03.000Z</time>
      </trkpt>
      <trkpt lat="44.11741" lon="6.67707">
        <ele>2370.6000976562</ele>
        <time>2021-08-21T10:27:04.000Z</time>
      </trkpt>
      <trkpt lat="44.11749" lon="6.67709">
        <ele>2369</ele>
        <time>2021-08-21T10:27:06.000Z</time>
      </trkpt>
      <trkpt lat="44.11753" lon="6.6771">
        <ele>2368.1999511719</ele>
        <time>2021-08-21T10:27:07.000Z</time>
      </trkpt>
      <trkpt lat="44.11757" lon="6.67709">
        <ele>2367.1999511719</ele>
        <time>2021-08-21T10:27:08.000Z</time>
      </trkpt>
      <trkpt lat="44.11768" lon="6.67707">
        <ele>2366.1999511719</ele>
        <time>2021-08-21T10:27:10.000Z</time>
      </trkpt>
      <trkpt lat="44.11773" lon="6.67707">
        <ele>2365.6000976562</ele>
        <time>2021-08-21T10:27:11.000Z</time>
      </trkpt>
      <trkpt lat="44.11778" lon="6.67709">
        <ele>2365</ele>
        <time>2021-08-21T10:27:12.000Z</time>
      </trkpt>
      <trkpt lat="44.11789" lon="6.67716">
        <ele>2363.3999023438</ele>
        <time>2021-08-21T10:27:14.000Z</time>
      </trkpt>
      <trkpt lat="44.11794" lon="6.67721">
        <ele>2362.6000976562</ele>
        <time>2021-08-21T10:27:15.000Z</time>
      </trkpt>
      <trkpt lat="44.118" lon="6.67725">
        <ele>2361.8000488281</ele>
        <time>2021-08-21T10:27:16.000Z</time>
      </trkpt>
      <trkpt lat="44.11812" lon="6.67732">
        <ele>2360.3999023438</ele>
        <time>2021-08-21T10:27:18.000Z</time>
      </trkpt>
      <trkpt lat="44.11824" lon="6.67739">
        <ele>2359</ele>
        <time>2021-08-21T10:27:20.000Z</time>
      </trkpt>
      <trkpt lat="44.11836" lon="6.67744">
        <ele>2357.3999023438</ele>
        <time>2021-08-21T10:27:22.000Z</time>
      </trkpt>
      <trkpt lat="44.11841" lon="6.67747">
        <ele>2356.3999023438</ele>
        <time>2021-08-21T10:27:23.000Z</time>
      </trkpt>
      <trkpt lat="44.11845" lon="6.67753">
        <ele>2355.1999511719</ele>
        <time>2021-08-21T10:27:24.000Z</time>
      </trkpt>
      <trkpt lat="44.11847" lon="6.67758">
        <ele>2353.8000488281</ele>
        <time>2021-08-21T10:27:25.000Z</time>
      </trkpt>
      <trkpt lat="44.1185" lon="6.67764">
        <ele>2352.3999023438</ele>
        <time>2021-08-21T10:27:26.000Z</time>
      </trkpt>
      <trkpt lat="44.11852" lon="6.6777">
        <ele>2351</ele>
        <time>2021-08-21T10:27:27.000Z</time>
      </trkpt>
      <trkpt lat="44.11855" lon="6.67776">
        <ele>2349.8000488281</ele>
        <time>2021-08-21T10:27:28.000Z</time>
      </trkpt>
      <trkpt lat="44.1186" lon="6.67787">
        <ele>2348</ele>
        <time>2021-08-21T10:27:30.000Z</time>
      </trkpt>
      <trkpt lat="44.11863" lon="6.67792">
        <ele>2347.1999511719</ele>
        <time>2021-08-21T10:27:31.000Z</time>
      </trkpt>
      <trkpt lat="44.11864" lon="6.67796">
        <ele>2346.6000976562</ele>
        <time>2021-08-21T10:27:32.000Z</time>
      </trkpt>
      <trkpt lat="44.11866" lon="6.67804">
        <ele>2345.1999511719</ele>
        <time>2021-08-21T10:27:34.000Z</time>
      </trkpt>
      <trkpt lat="44.11868" lon="6.67809">
        <ele>2344.1999511719</ele>
        <time>2021-08-21T10:27:36.000Z</time>
      </trkpt>
      <trkpt lat="44.11869" lon="6.67813">
        <ele>2343.1999511719</ele>
        <time>2021-08-21T10:27:38.000Z</time>
      </trkpt>
      <trkpt lat="44.1187" lon="6.67817">
        <ele>2342</ele>
        <time>2021-08-21T10:27:40.000Z</time>
      </trkpt>
      <trkpt lat="44.11873" lon="6.67824">
        <ele>2340.8000488281</ele>
        <time>2021-08-21T10:27:43.000Z</time>
      </trkpt>
      <trkpt lat="44.11876" lon="6.67833">
        <ele>2339.1999511719</ele>
        <time>2021-08-21T10:27:46.000Z</time>
      </trkpt>
      <trkpt lat="44.11878" lon="6.67838">
        <ele>2338.1999511719</ele>
        <time>2021-08-21T10:27:48.000Z</time>
      </trkpt>
      <trkpt lat="44.1188" lon="6.67845">
        <ele>2337</ele>
        <time>2021-08-21T10:27:50.000Z</time>
      </trkpt>
      <trkpt lat="44.11882" lon="6.67851">
        <ele>2335.3999023438</ele>
        <time>2021-08-21T10:27:52.000Z</time>
      </trkpt>
      <trkpt lat="44.11883" lon="6.67854">
        <ele>2335</ele>
        <time>2021-08-21T10:27:53.000Z</time>
      </trkpt>
      <trkpt lat="44.11883" lon="6.67858">
        <ele>2334.1999511719</ele>
        <time>2021-08-21T10:27:54.000Z</time>
      </trkpt>
      <trkpt lat="44.11884" lon="6.67864">
        <ele>2332.6000976562</ele>
        <time>2021-08-21T10:27:56.000Z</time>
      </trkpt>
      <trkpt lat="44.11884" lon="6.6787">
        <ele>2330.3999023438</ele>
        <time>2021-08-21T10:27:58.000Z</time>
      </trkpt>
      <trkpt lat="44.11884" lon="6.67874">
        <ele>2329.3999023438</ele>
        <time>2021-08-21T10:27:59.000Z</time>
      </trkpt>
      <trkpt lat="44.11885" lon="6.67877">
        <ele>2328.1999511719</ele>
        <time>2021-08-21T10:28:00.000Z</time>
      </trkpt>
      <trkpt lat="44.11885" lon="6.6788">
        <ele>2327</ele>
        <time>2021-08-21T10:28:01.000Z</time>
      </trkpt>
      <trkpt lat="44.11885" lon="6.67884">
        <ele>2325.8000488281</ele>
        <time>2021-08-21T10:28:02.000Z</time>
      </trkpt>
      <trkpt lat="44.11886" lon="6.67887">
        <ele>2324.6000976562</ele>
        <time>2021-08-21T10:28:03.000Z</time>
      </trkpt>
      <trkpt lat="44.11886" lon="6.67891">
        <ele>2323.3999023438</ele>
        <time>2021-08-21T10:28:04.000Z</time>
      </trkpt>
      <trkpt lat="44.11886" lon="6.67894">
        <ele>2322.1999511719</ele>
        <time>2021-08-21T10:28:05.000Z</time>
      </trkpt>
      <trkpt lat="44.11888" lon="6.67898">
        <ele>2321</ele>
        <time>2021-08-21T10:28:06.000Z</time>
      </trkpt>
      <trkpt lat="44.11888" lon="6.67901">
        <ele>2319.8000488281</ele>
        <time>2021-08-21T10:28:07.000Z</time>
      </trkpt>
      <trkpt lat="44.11889" lon="6.67904">
        <ele>2318.8000488281</ele>
        <time>2021-08-21T10:28:08.000Z</time>
      </trkpt>
      <trkpt lat="44.11889" lon="6.67907">
        <ele>2317.6000976562</ele>
        <time>2021-08-21T10:28:09.000Z</time>
      </trkpt>
      <trkpt lat="44.1189" lon="6.67912">
        <ele>2315.6000976562</ele>
        <time>2021-08-21T10:28:11.000Z</time>
      </trkpt>
      <trkpt lat="44.11891" lon="6.67915">
        <ele>2314.6000976562</ele>
        <time>2021-08-21T10:28:12.000Z</time>
      </trkpt>
      <trkpt lat="44.11893" lon="6.67921">
        <ele>2313.6000976562</ele>
        <time>2021-08-21T10:28:14.000Z</time>
      </trkpt>
      <trkpt lat="44.11893" lon="6.67924">
        <ele>2312.8000488281</ele>
        <time>2021-08-21T10:28:15.000Z</time>
      </trkpt>
      <trkpt lat="44.11892" lon="6.67927">
        <ele>2311.8000488281</ele>
        <time>2021-08-21T10:28:16.000Z</time>
      </trkpt>
      <trkpt lat="44.11892" lon="6.6793">
        <ele>2310.6000976562</ele>
        <time>2021-08-21T10:28:17.000Z</time>
      </trkpt>
      <trkpt lat="44.11892" lon="6.67933">
        <ele>2309.1999511719</ele>
        <time>2021-08-21T10:28:18.000Z</time>
      </trkpt>
      <trkpt lat="44.11892" lon="6.67937">
        <ele>2307.6000976562</ele>
        <time>2021-08-21T10:28:19.000Z</time>
      </trkpt>
      <trkpt lat="44.11891" lon="6.67942">
        <ele>2306.3999023438</ele>
        <time>2021-08-21T10:28:20.000Z</time>
      </trkpt>
      <trkpt lat="44.11891" lon="6.67946">
        <ele>2305</ele>
        <time>2021-08-21T10:28:21.000Z</time>
      </trkpt>
      <trkpt lat="44.1189" lon="6.67951">
        <ele>2303.3999023438</ele>
        <time>2021-08-21T10:28:22.000Z</time>
      </trkpt>
      <trkpt lat="44.1189" lon="6.67955">
        <ele>2302</ele>
        <time>2021-08-21T10:28:23.000Z</time>
      </trkpt>
      <trkpt lat="44.1189" lon="6.67961">
        <ele>2300.8000488281</ele>
        <time>2021-08-21T10:28:24.000Z</time>
      </trkpt>
      <trkpt lat="44.1189" lon="6.67967">
        <ele>2299.3999023438</ele>
        <time>2021-08-21T10:28:25.000Z</time>
      </trkpt>
      <trkpt lat="44.11891" lon="6.67973">
        <ele>2298.1999511719</ele>
        <time>2021-08-21T10:28:26.000Z</time>
      </trkpt>
      <trkpt lat="44.11893" lon="6.67984">
        <ele>2296.1999511719</ele>
        <time>2021-08-21T10:28:28.000Z</time>
      </trkpt>
      <trkpt lat="44.11895" lon="6.67997">
        <ele>2294.3999023438</ele>
        <time>2021-08-21T10:28:30.000Z</time>
      </trkpt>
      <trkpt lat="44.11896" lon="6.68004">
        <ele>2293.1999511719</ele>
        <time>2021-08-21T10:28:31.000Z</time>
      </trkpt>
      <trkpt lat="44.11898" lon="6.6801">
        <ele>2294.1999511719</ele>
        <time>2021-08-21T10:28:32.000Z</time>
      </trkpt>
      <trkpt lat="44.11899" lon="6.68017">
        <ele>2294.1999511719</ele>
        <time>2021-08-21T10:28:33.000Z</time>
      </trkpt>
      <trkpt lat="44.11901" lon="6.68025">
        <ele>2292.3999023438</ele>
        <time>2021-08-21T10:28:34.000Z</time>
      </trkpt>
      <trkpt lat="44.11903" lon="6.68032">
        <ele>2290.1999511719</ele>
        <time>2021-08-21T10:28:35.000Z</time>
      </trkpt>
      <trkpt lat="44.11905" lon="6.6804">
        <ele>2287.8000488281</ele>
        <time>2021-08-21T10:28:36.000Z</time>
      </trkpt>
      <trkpt lat="44.11908" lon="6.68048">
        <ele>2286.1999511719</ele>
        <time>2021-08-21T10:28:37.000Z</time>
      </trkpt>
      <trkpt lat="44.1191" lon="6.68056">
        <ele>2284.6000976562</ele>
        <time>2021-08-21T10:28:38.000Z</time>
      </trkpt>
      <trkpt lat="44.11912" lon="6.68065">
        <ele>2282.8000488281</ele>
        <time>2021-08-21T10:28:39.000Z</time>
      </trkpt>
      <trkpt lat="44.11914" lon="6.68073">
        <ele>2281.3999023438</ele>
        <time>2021-08-21T10:28:40.000Z</time>
      </trkpt>
      <trkpt lat="44.11916" lon="6.68082">
        <ele>2279.8000488281</ele>
        <time>2021-08-21T10:28:41.000Z</time>
      </trkpt>
      <trkpt lat="44.11918" lon="6.6809">
        <ele>2278.6000976562</ele>
        <time>2021-08-21T10:28:42.000Z</time>
      </trkpt>
      <trkpt lat="44.11919" lon="6.68097">
        <ele>2277.3999023438</ele>
        <time>2021-08-21T10:28:43.000Z</time>
      </trkpt>
      <trkpt lat="44.1192" lon="6.68104">
        <ele>2276.1999511719</ele>
        <time>2021-08-21T10:28:44.000Z</time>
      </trkpt>
      <trkpt lat="44.11922" lon="6.6811">
        <ele>2275.6000976562</ele>
        <time>2021-08-21T10:28:45.000Z</time>
      </trkpt>
      <trkpt lat="44.11923" lon="6.68116">
        <ele>2274.6000976562</ele>
        <time>2021-08-21T10:28:46.000Z</time>
      </trkpt>
      <trkpt lat="44.11927" lon="6.68127">
        <ele>2273.1999511719</ele>
        <time>2021-08-21T10:28:48.000Z</time>
      </trkpt>
      <trkpt lat="44.11928" lon="6.68136">
        <ele>2271.3999023438</ele>
        <time>2021-08-21T10:28:50.000Z</time>
      </trkpt>
      <trkpt lat="44.11929" lon="6.6814">
        <ele>2270.1999511719</ele>
        <time>2021-08-21T10:28:51.000Z</time>
      </trkpt>
      <trkpt lat="44.11929" lon="6.68145">
        <ele>2269</ele>
        <time>2021-08-21T10:28:53.000Z</time>
      </trkpt>
      <trkpt lat="44.11928" lon="6.68149">
        <ele>2267.8000488281</ele>
        <time>2021-08-21T10:28:55.000Z</time>
      </trkpt>
      <trkpt lat="44.11927" lon="6.6815">
        <ele>2267.3999023438</ele>
        <time>2021-08-21T10:28:56.000Z</time>
      </trkpt>
      <trkpt lat="44.11925" lon="6.68151">
        <ele>2266.8000488281</ele>
        <time>2021-08-21T10:28:58.000Z</time>
      </trkpt>
      <trkpt lat="44.11919" lon="6.68152">
        <ele>2265.6000976562</ele>
        <time>2021-08-21T10:29:01.000Z</time>
      </trkpt>
      <trkpt lat="44.1192" lon="6.68158">
        <ele>2264.8000488281</ele>
        <time>2021-08-21T10:29:05.000Z</time>
      </trkpt>
      <trkpt lat="44.11924" lon="6.68164">
        <ele>2264.3999023438</ele>
        <time>2021-08-21T10:29:07.000Z</time>
      </trkpt>
      <trkpt lat="44.11926" lon="6.68167">
        <ele>2264.3999023438</ele>
        <time>2021-08-21T10:29:08.000Z</time>
      </trkpt>
      <trkpt lat="44.11927" lon="6.6817">
        <ele>2264</ele>
        <time>2021-08-21T10:29:09.000Z</time>
      </trkpt>
      <trkpt lat="44.11934" lon="6.68174">
        <ele>2263.6000976562</ele>
        <time>2021-08-21T10:29:13.000Z</time>
      </trkpt>
      <trkpt lat="44.11935" lon="6.68173">
        <ele>2263.3999023438</ele>
        <time>2021-08-21T10:29:14.000Z</time>
      </trkpt>
      <trkpt lat="44.1194" lon="6.6818">
        <ele>2262</ele>
        <time>2021-08-21T10:29:18.000Z</time>
      </trkpt>
      <trkpt lat="44.11942" lon="6.68189">
        <ele>2260.8000488281</ele>
        <time>2021-08-21T10:29:21.000Z</time>
      </trkpt>
      <trkpt lat="44.11942" lon="6.68199">
        <ele>2260</ele>
        <time>2021-08-21T10:29:24.000Z</time>
      </trkpt>
      <trkpt lat="44.11942" lon="6.68202">
        <ele>2259.6000976562</ele>
        <time>2021-08-21T10:29:25.000Z</time>
      </trkpt>
      <trkpt lat="44.11942" lon="6.68217">
        <ele>2259</ele>
        <time>2021-08-21T10:29:30.000Z</time>
      </trkpt>
      <trkpt lat="44.11942" lon="6.68227">
        <ele>2258.3999023438</ele>
        <time>2021-08-21T10:29:33.000Z</time>
      </trkpt>
      <trkpt lat="44.11943" lon="6.68239">
        <ele>2257.1999511719</ele>
        <time>2021-08-21T10:29:36.000Z</time>
      </trkpt>
      <trkpt lat="44.11944" lon="6.68261">
        <ele>2256</ele>
        <time>2021-08-21T10:29:42.000Z</time>
      </trkpt>
      <trkpt lat="44.11944" lon="6.68265">
        <ele>2256</ele>
        <time>2021-08-21T10:29:43.000Z</time>
      </trkpt>
      <trkpt lat="44.11946" lon="6.68277">
        <ele>2255</ele>
        <time>2021-08-21T10:29:46.000Z</time>
      </trkpt>
      <trkpt lat="44.1195" lon="6.68294">
        <ele>2254</ele>
        <time>2021-08-21T10:29:50.000Z</time>
      </trkpt>
      <trkpt lat="44.11951" lon="6.68299">
        <ele>2253.3999023438</ele>
        <time>2021-08-21T10:29:51.000Z</time>
      </trkpt>
      <trkpt lat="44.11952" lon="6.68307">
        <ele>2252.6000976562</ele>
        <time>2021-08-21T10:29:53.000Z</time>
      </trkpt>
      <trkpt lat="44.11955" lon="6.68319">
        <ele>2251.1999511719</ele>
        <time>2021-08-21T10:29:56.000Z</time>
      </trkpt>
      <trkpt lat="44.1196" lon="6.68347">
        <ele>2250</ele>
        <time>2021-08-21T10:30:03.000Z</time>
      </trkpt>
      <trkpt lat="44.11963" lon="6.68363">
        <ele>2248.8000488281</ele>
        <time>2021-08-21T10:30:07.000Z</time>
      </trkpt>
      <trkpt lat="44.11965" lon="6.68377">
        <ele>2248</ele>
        <time>2021-08-21T10:30:10.000Z</time>
      </trkpt>
      <trkpt lat="44.11965" lon="6.68382">
        <ele>2247.6000976562</ele>
        <time>2021-08-21T10:30:11.000Z</time>
      </trkpt>
      <trkpt lat="44.11966" lon="6.684">
        <ele>2246.1999511719</ele>
        <time>2021-08-21T10:30:14.000Z</time>
      </trkpt>
      <trkpt lat="44.11966" lon="6.68407">
        <ele>2245.6000976562</ele>
        <time>2021-08-21T10:30:15.000Z</time>
      </trkpt>
      <trkpt lat="44.11967" lon="6.68423">
        <ele>2245</ele>
        <time>2021-08-21T10:30:17.000Z</time>
      </trkpt>
      <trkpt lat="44.11968" lon="6.68449">
        <ele>2243.8000488281</ele>
        <time>2021-08-21T10:30:20.000Z</time>
      </trkpt>
      <trkpt lat="44.11968" lon="6.68469">
        <ele>2242.6000976562</ele>
        <time>2021-08-21T10:30:22.000Z</time>
      </trkpt>
      <trkpt lat="44.11967" lon="6.68486">
        <ele>2241.3999023438</ele>
        <time>2021-08-21T10:30:24.000Z</time>
      </trkpt>
      <trkpt lat="44.11965" lon="6.68508">
        <ele>2240</ele>
        <time>2021-08-21T10:30:27.000Z</time>
      </trkpt>
      <trkpt lat="44.11964" lon="6.68515">
        <ele>2239.6000976562</ele>
        <time>2021-08-21T10:30:28.000Z</time>
      </trkpt>
      <trkpt lat="44.1196" lon="6.68531">
        <ele>2238.3999023438</ele>
        <time>2021-08-21T10:30:30.000Z</time>
      </trkpt>
      <trkpt lat="44.11955" lon="6.68548">
        <ele>2236.8000488281</ele>
        <time>2021-08-21T10:30:32.000Z</time>
      </trkpt>
      <trkpt lat="44.11953" lon="6.68563">
        <ele>2235.3999023438</ele>
        <time>2021-08-21T10:30:34.000Z</time>
      </trkpt>
      <trkpt lat="44.11953" lon="6.68569">
        <ele>2235</ele>
        <time>2021-08-21T10:30:35.000Z</time>
      </trkpt>
      <trkpt lat="44.11952" lon="6.6858">
        <ele>2234</ele>
        <time>2021-08-21T10:30:37.000Z</time>
      </trkpt>
      <trkpt lat="44.11952" lon="6.68587">
        <ele>2232.8000488281</ele>
        <time>2021-08-21T10:30:39.000Z</time>
      </trkpt>
      <trkpt lat="44.11951" lon="6.68595">
        <ele>2231.8000488281</ele>
        <time>2021-08-21T10:30:42.000Z</time>
      </trkpt>
      <trkpt lat="44.11949" lon="6.68605">
        <ele>2232.6000976562</ele>
        <time>2021-08-21T10:30:47.000Z</time>
      </trkpt>
      <trkpt lat="44.11949" lon="6.68606">
        <ele>2232.8000488281</ele>
        <time>2021-08-21T10:30:48.000Z</time>
      </trkpt>
      <trkpt lat="44.11947" lon="6.68614">
        <ele>2233.8000488281</ele>
        <time>2021-08-21T10:30:52.000Z</time>
      </trkpt>
      <trkpt lat="44.11947" lon="6.6862">
        <ele>2234.1999511719</ele>
        <time>2021-08-21T10:30:54.000Z</time>
      </trkpt>
      <trkpt lat="44.11946" lon="6.68641">
        <ele>2234.6000976562</ele>
        <time>2021-08-21T10:31:00.000Z</time>
      </trkpt>
      <trkpt lat="44.11943" lon="6.68667">
        <ele>2234</ele>
        <time>2021-08-21T10:31:05.000Z</time>
      </trkpt>
      <trkpt lat="44.11941" lon="6.68688">
        <ele>2232.8000488281</ele>
        <time>2021-08-21T10:31:09.000Z</time>
      </trkpt>
      <trkpt lat="44.11941" lon="6.68691">
        <ele>2232.3999023438</ele>
        <time>2021-08-21T10:31:10.000Z</time>
      </trkpt>
      <trkpt lat="44.11941" lon="6.68703">
        <ele>2232.1999511719</ele>
        <time>2021-08-21T10:31:16.000Z</time>
      </trkpt>
      <trkpt lat="44.11942" lon="6.68723">
        <ele>2232.8000488281</ele>
        <time>2021-08-21T10:31:25.000Z</time>
      </trkpt>
      <trkpt lat="44.11944" lon="6.68743">
        <ele>2233.3999023438</ele>
        <time>2021-08-21T10:31:32.000Z</time>
      </trkpt>
      <trkpt lat="44.11947" lon="6.68771">
        <ele>2232.3999023438</ele>
        <time>2021-08-21T10:31:40.000Z</time>
      </trkpt>
      <trkpt lat="44.1195" lon="6.68802">
        <ele>2232.1999511719</ele>
        <time>2021-08-21T10:31:48.000Z</time>
      </trkpt>
      <trkpt lat="44.11947" lon="6.68825">
        <ele>2231.3999023438</ele>
        <time>2021-08-21T10:31:53.000Z</time>
      </trkpt>
      <trkpt lat="44.11947" lon="6.6883">
        <ele>2231.1999511719</ele>
        <time>2021-08-21T10:31:54.000Z</time>
      </trkpt>
      <trkpt lat="44.11943" lon="6.68862">
        <ele>2230.1999511719</ele>
        <time>2021-08-21T10:32:00.000Z</time>
      </trkpt>
      <trkpt lat="44.11942" lon="6.68867">
        <ele>2230</ele>
        <time>2021-08-21T10:32:01.000Z</time>
      </trkpt>
      <trkpt lat="44.11938" lon="6.68877">
        <ele>2229.8000488281</ele>
        <time>2021-08-21T10:32:03.000Z</time>
      </trkpt>
      <trkpt lat="44.1193" lon="6.68895">
        <ele>2229.3999023438</ele>
        <time>2021-08-21T10:32:06.000Z</time>
      </trkpt>
      <trkpt lat="44.11927" lon="6.68901">
        <ele>2229</ele>
        <time>2021-08-21T10:32:07.000Z</time>
      </trkpt>
      <trkpt lat="44.11921" lon="6.6892">
        <ele>2227.8000488281</ele>
        <time>2021-08-21T10:32:10.000Z</time>
      </trkpt>
      <trkpt lat="44.1192" lon="6.68924">
        <ele>2227.1999511719</ele>
        <time>2021-08-21T10:32:11.000Z</time>
      </trkpt>
      <trkpt lat="44.11918" lon="6.68935">
        <ele>2226.6000976562</ele>
        <time>2021-08-21T10:32:13.000Z</time>
      </trkpt>
      <trkpt lat="44.11912" lon="6.68955">
        <ele>2225.6000976562</ele>
        <time>2021-08-21T10:32:16.000Z</time>
      </trkpt>
      <trkpt lat="44.11911" lon="6.6896">
        <ele>2225.1999511719</ele>
        <time>2021-08-21T10:32:17.000Z</time>
      </trkpt>
      <trkpt lat="44.11908" lon="6.68979">
        <ele>2224</ele>
        <time>2021-08-21T10:32:21.000Z</time>
      </trkpt>
      <trkpt lat="44.11908" lon="6.68982">
        <ele>2224</ele>
        <time>2021-08-21T10:32:22.000Z</time>
      </trkpt>
      <trkpt lat="44.11902" lon="6.68999">
        <ele>2224.8000488281</ele>
        <time>2021-08-21T10:32:28.000Z</time>
      </trkpt>
      <trkpt lat="44.1189" lon="6.69023">
        <ele>2224.3999023438</ele>
        <time>2021-08-21T10:32:34.000Z</time>
      </trkpt>
      <trkpt lat="44.11876" lon="6.69051">
        <ele>2223</ele>
        <time>2021-08-21T10:32:39.000Z</time>
      </trkpt>
      <trkpt lat="44.1187" lon="6.69064">
        <ele>2221.8000488281</ele>
        <time>2021-08-21T10:32:41.000Z</time>
      </trkpt>
      <trkpt lat="44.11861" lon="6.69077">
        <ele>2220.8000488281</ele>
        <time>2021-08-21T10:32:43.000Z</time>
      </trkpt>
      <trkpt lat="44.11852" lon="6.69088">
        <ele>2219.6000976562</ele>
        <time>2021-08-21T10:32:45.000Z</time>
      </trkpt>
      <trkpt lat="44.11843" lon="6.69099">
        <ele>2218.6000976562</ele>
        <time>2021-08-21T10:32:47.000Z</time>
      </trkpt>
      <trkpt lat="44.1184" lon="6.69104">
        <ele>2218.1999511719</ele>
        <time>2021-08-21T10:32:48.000Z</time>
      </trkpt>
      <trkpt lat="44.11832" lon="6.69116">
        <ele>2217.3999023438</ele>
        <time>2021-08-21T10:32:50.000Z</time>
      </trkpt>
      <trkpt lat="44.11829" lon="6.69121">
        <ele>2216.8000488281</ele>
        <time>2021-08-21T10:32:51.000Z</time>
      </trkpt>
      <trkpt lat="44.11823" lon="6.69128">
        <ele>2216</ele>
        <time>2021-08-21T10:32:53.000Z</time>
      </trkpt>
      <trkpt lat="44.11813" lon="6.6914">
        <ele>2215.6000976562</ele>
        <time>2021-08-21T10:32:56.000Z</time>
      </trkpt>
      <trkpt lat="44.11803" lon="6.69151">
        <ele>2215</ele>
        <time>2021-08-21T10:32:59.000Z</time>
      </trkpt>
      <trkpt lat="44.1179" lon="6.69164">
        <ele>2214</ele>
        <time>2021-08-21T10:33:03.000Z</time>
      </trkpt>
      <trkpt lat="44.11783" lon="6.6917">
        <ele>2213.8000488281</ele>
        <time>2021-08-21T10:33:05.000Z</time>
      </trkpt>
      <trkpt lat="44.11775" lon="6.69175">
        <ele>2213.3999023438</ele>
        <time>2021-08-21T10:33:07.000Z</time>
      </trkpt>
      <trkpt lat="44.11756" lon="6.69187">
        <ele>2213.1999511719</ele>
        <time>2021-08-21T10:33:12.000Z</time>
      </trkpt>
      <trkpt lat="44.11751" lon="6.6919">
        <ele>2213</ele>
        <time>2021-08-21T10:33:13.000Z</time>
      </trkpt>
      <trkpt lat="44.11722" lon="6.69206">
        <ele>2212</ele>
        <time>2021-08-21T10:33:19.000Z</time>
      </trkpt>
      <trkpt lat="44.11712" lon="6.6921">
        <ele>2211.8000488281</ele>
        <time>2021-08-21T10:33:21.000Z</time>
      </trkpt>
      <trkpt lat="44.11691" lon="6.6922">
        <ele>2211.6000976562</ele>
        <time>2021-08-21T10:33:26.000Z</time>
      </trkpt>
      <trkpt lat="44.11673" lon="6.69228">
        <ele>2212.3999023438</ele>
        <time>2021-08-21T10:33:32.000Z</time>
      </trkpt>
      <trkpt lat="44.11662" lon="6.69232">
        <ele>2213</ele>
        <time>2021-08-21T10:33:36.000Z</time>
      </trkpt>
      <trkpt lat="44.11648" lon="6.69239">
        <ele>2213.3999023438</ele>
        <time>2021-08-21T10:33:41.000Z</time>
      </trkpt>
      <trkpt lat="44.11628" lon="6.69254">
        <ele>2213.6000976562</ele>
        <time>2021-08-21T10:33:49.000Z</time>
      </trkpt>
      <trkpt lat="44.1162" lon="6.69259">
        <ele>2214.1999511719</ele>
        <time>2021-08-21T10:33:52.000Z</time>
      </trkpt>
      <trkpt lat="44.11613" lon="6.69263">
        <ele>2215.1999511719</ele>
        <time>2021-08-21T10:33:55.000Z</time>
      </trkpt>
      <trkpt lat="44.11604" lon="6.69268">
        <ele>2215.8000488281</ele>
        <time>2021-08-21T10:33:58.000Z</time>
      </trkpt>
      <trkpt lat="44.11588" lon="6.69283">
        <ele>2215.8000488281</ele>
        <time>2021-08-21T10:34:04.000Z</time>
      </trkpt>
      <trkpt lat="44.11569" lon="6.69299">
        <ele>2216.1999511719</ele>
        <time>2021-08-21T10:34:12.000Z</time>
      </trkpt>
      <trkpt lat="44.11563" lon="6.69303">
        <ele>2216.1999511719</ele>
        <time>2021-08-21T10:34:14.000Z</time>
      </trkpt>
      <trkpt lat="44.11549" lon="6.69312">
        <ele>2216.6000976562</ele>
        <time>2021-08-21T10:34:19.000Z</time>
      </trkpt>
      <trkpt lat="44.11524" lon="6.69332">
        <ele>2216</ele>
        <time>2021-08-21T10:34:27.000Z</time>
      </trkpt>
      <trkpt lat="44.11505" lon="6.69351">
        <ele>2215.3999023438</ele>
        <time>2021-08-21T10:34:33.000Z</time>
      </trkpt>
      <trkpt lat="44.11501" lon="6.69354">
        <ele>2215.3999023438</ele>
        <time>2021-08-21T10:34:34.000Z</time>
      </trkpt>
      <trkpt lat="44.11498" lon="6.69357">
        <ele>2215.1999511719</ele>
        <time>2021-08-21T10:34:35.000Z</time>
      </trkpt>
      <trkpt lat="44.11479" lon="6.69373">
        <ele>2215</ele>
        <time>2021-08-21T10:34:40.000Z</time>
      </trkpt>
      <trkpt lat="44.11458" lon="6.69394">
        <ele>2214.8000488281</ele>
        <time>2021-08-21T10:34:47.000Z</time>
      </trkpt>
      <trkpt lat="44.11437" lon="6.69412">
        <ele>2215.3999023438</ele>
        <time>2021-08-21T10:34:54.000Z</time>
      </trkpt>
      <trkpt lat="44.11416" lon="6.69423">
        <ele>2215.3999023438</ele>
        <time>2021-08-21T10:35:01.000Z</time>
      </trkpt>
      <trkpt lat="44.11401" lon="6.69439">
        <ele>2215.3999023438</ele>
        <time>2021-08-21T10:35:07.000Z</time>
      </trkpt>
      <trkpt lat="44.11396" lon="6.69456">
        <ele>2215.8000488281</ele>
        <time>2021-08-21T10:35:12.000Z</time>
      </trkpt>
      <trkpt lat="44.11384" lon="6.69476">
        <ele>2216.1999511719</ele>
        <time>2021-08-21T10:35:18.000Z</time>
      </trkpt>
      <trkpt lat="44.11377" lon="6.69485">
        <ele>2216.3999023438</ele>
        <time>2021-08-21T10:35:21.000Z</time>
      </trkpt>
      <trkpt lat="44.11366" lon="6.69496">
        <ele>2217</ele>
        <time>2021-08-21T10:35:26.000Z</time>
      </trkpt>
      <trkpt lat="44.11357" lon="6.69505">
        <ele>2217.3999023438</ele>
        <time>2021-08-21T10:35:30.000Z</time>
      </trkpt>
      <trkpt lat="44.11344" lon="6.69521">
        <ele>2218</ele>
        <time>2021-08-21T10:35:36.000Z</time>
      </trkpt>
      <trkpt lat="44.11329" lon="6.69539">
        <ele>2218.8000488281</ele>
        <time>2021-08-21T10:35:43.000Z</time>
      </trkpt>
      <trkpt lat="44.11327" lon="6.69541">
        <ele>2219</ele>
        <time>2021-08-21T10:35:44.000Z</time>
      </trkpt>
      <trkpt lat="44.11325" lon="6.69544">
        <ele>2219.8000488281</ele>
        <time>2021-08-21T10:35:46.000Z</time>
      </trkpt>
      <trkpt lat="44.1132" lon="6.69552">
        <ele>2220.8000488281</ele>
        <time>2021-08-21T10:35:50.000Z</time>
      </trkpt>
      <trkpt lat="44.11319" lon="6.69553">
        <ele>2221</ele>
        <time>2021-08-21T10:35:51.000Z</time>
      </trkpt>
      <trkpt lat="44.11309" lon="6.69567">
        <ele>2221.3999023438</ele>
        <time>2021-08-21T10:35:58.000Z</time>
      </trkpt>
      <trkpt lat="44.11294" lon="6.69581">
        <ele>2221</ele>
        <time>2021-08-21T10:36:04.000Z</time>
      </trkpt>
      <trkpt lat="44.11285" lon="6.69588">
        <ele>2221.6000976562</ele>
        <time>2021-08-21T10:36:09.000Z</time>
      </trkpt>
      <trkpt lat="44.11281" lon="6.69592">
        <ele>2222</ele>
        <time>2021-08-21T10:36:13.000Z</time>
      </trkpt>
      <trkpt lat="44.11278" lon="6.69595">
        <ele>2222.1999511719</ele>
        <time>2021-08-21T10:36:15.000Z</time>
      </trkpt>
      <trkpt lat="44.11272" lon="6.69597">
        <ele>2223</ele>
        <time>2021-08-21T10:36:20.000Z</time>
      </trkpt>
      <trkpt lat="44.11267" lon="6.696">
        <ele>2224.1999511719</ele>
        <time>2021-08-21T10:36:24.000Z</time>
      </trkpt>
      <trkpt lat="44.11263" lon="6.69606">
        <ele>2224.8000488281</ele>
        <time>2021-08-21T10:36:28.000Z</time>
      </trkpt>
      <trkpt lat="44.1126" lon="6.69613">
        <ele>2225.3999023438</ele>
        <time>2021-08-21T10:36:32.000Z</time>
      </trkpt>
      <trkpt lat="44.11257" lon="6.69617">
        <ele>2225.6000976562</ele>
        <time>2021-08-21T10:36:35.000Z</time>
      </trkpt>
      <trkpt lat="44.11246" lon="6.69632">
        <ele>2226.3999023438</ele>
        <time>2021-08-21T10:36:43.000Z</time>
      </trkpt>
      <trkpt lat="44.11244" lon="6.69634">
        <ele>2226.3999023438</ele>
        <time>2021-08-21T10:36:44.000Z</time>
      </trkpt>
      <trkpt lat="44.11233" lon="6.69652">
        <ele>2226.6000976562</ele>
        <time>2021-08-21T10:36:52.000Z</time>
      </trkpt>
      <trkpt lat="44.11219" lon="6.69674">
        <ele>2227.3999023438</ele>
        <time>2021-08-21T10:37:01.000Z</time>
      </trkpt>
      <trkpt lat="44.11211" lon="6.69685">
        <ele>2227.6000976562</ele>
        <time>2021-08-21T10:37:06.000Z</time>
      </trkpt>
      <trkpt lat="44.11204" lon="6.69692">
        <ele>2228</ele>
        <time>2021-08-21T10:37:10.000Z</time>
      </trkpt>
      <trkpt lat="44.11197" lon="6.69698">
        <ele>2228.6000976562</ele>
        <time>2021-08-21T10:37:14.000Z</time>
      </trkpt>
      <trkpt lat="44.11185" lon="6.69712">
        <ele>2229.1999511719</ele>
        <time>2021-08-21T10:37:21.000Z</time>
      </trkpt>
      <trkpt lat="44.11174" lon="6.69724">
        <ele>2229.8000488281</ele>
        <time>2021-08-21T10:37:27.000Z</time>
      </trkpt>
      <trkpt lat="44.11169" lon="6.69731">
        <ele>2230</ele>
        <time>2021-08-21T10:37:30.000Z</time>
      </trkpt>
      <trkpt lat="44.11149" lon="6.69758">
        <ele>2230.3999023438</ele>
        <time>2021-08-21T10:37:41.000Z</time>
      </trkpt>
      <trkpt lat="44.11141" lon="6.69762">
        <ele>2230.8000488281</ele>
        <time>2021-08-21T10:37:45.000Z</time>
      </trkpt>
      <trkpt lat="44.11135" lon="6.69764">
        <ele>2231.6000976562</ele>
        <time>2021-08-21T10:37:48.000Z</time>
      </trkpt>
      <trkpt lat="44.11131" lon="6.69766">
        <ele>2232</ele>
        <time>2021-08-21T10:37:50.000Z</time>
      </trkpt>
      <trkpt lat="44.11117" lon="6.69773">
        <ele>2232.8000488281</ele>
        <time>2021-08-21T10:37:57.000Z</time>
      </trkpt>
      <trkpt lat="44.11109" lon="6.69778">
        <ele>2233</ele>
        <time>2021-08-21T10:38:01.000Z</time>
      </trkpt>
      <trkpt lat="44.111" lon="6.69787">
        <ele>2233.8000488281</ele>
        <time>2021-08-21T10:38:06.000Z</time>
      </trkpt>
      <trkpt lat="44.11096" lon="6.69793">
        <ele>2234</ele>
        <time>2021-08-21T10:38:08.000Z</time>
      </trkpt>
      <trkpt lat="44.1109" lon="6.69803">
        <ele>2234.3999023438</ele>
        <time>2021-08-21T10:38:12.000Z</time>
      </trkpt>
      <trkpt lat="44.11086" lon="6.6981">
        <ele>2235</ele>
        <time>2021-08-21T10:38:15.000Z</time>
      </trkpt>
      <trkpt lat="44.11081" lon="6.69822">
        <ele>2236</ele>
        <time>2021-08-21T10:38:20.000Z</time>
      </trkpt>
      <trkpt lat="44.1108" lon="6.69823">
        <ele>2236.1999511719</ele>
        <time>2021-08-21T10:38:21.000Z</time>
      </trkpt>
      <trkpt lat="44.11073" lon="6.69834">
        <ele>2237.1999511719</ele>
        <time>2021-08-21T10:38:26.000Z</time>
      </trkpt>
      <trkpt lat="44.11058" lon="6.69855">
        <ele>2238</ele>
        <time>2021-08-21T10:38:35.000Z</time>
      </trkpt>
      <trkpt lat="44.11047" lon="6.69866">
        <ele>2238.3999023438</ele>
        <time>2021-08-21T10:38:41.000Z</time>
      </trkpt>
      <trkpt lat="44.11045" lon="6.69868">
        <ele>2238.3999023438</ele>
        <time>2021-08-21T10:38:42.000Z</time>
      </trkpt>
      <trkpt lat="44.11038" lon="6.69885">
        <ele>2239.3999023438</ele>
        <time>2021-08-21T10:38:49.000Z</time>
      </trkpt>
      <trkpt lat="44.11036" lon="6.6989">
        <ele>2239.6000976562</ele>
        <time>2021-08-21T10:38:51.000Z</time>
      </trkpt>
      <trkpt lat="44.11026" lon="6.69917">
        <ele>2240</ele>
        <time>2021-08-21T10:39:00.000Z</time>
      </trkpt>
      <trkpt lat="44.1102" lon="6.69931">
        <ele>2240.6000976562</ele>
        <time>2021-08-21T10:39:05.000Z</time>
      </trkpt>
      <trkpt lat="44.11012" lon="6.69944">
        <ele>2241</ele>
        <time>2021-08-21T10:39:11.000Z</time>
      </trkpt>
      <trkpt lat="44.11004" lon="6.69961">
        <ele>2241.6000976562</ele>
        <time>2021-08-21T10:39:18.000Z</time>
      </trkpt>
      <trkpt lat="44.11003" lon="6.69964">
        <ele>2241.8000488281</ele>
        <time>2021-08-21T10:39:19.000Z</time>
      </trkpt>
      <trkpt lat="44.10994" lon="6.69988">
        <ele>2242.3999023438</ele>
        <time>2021-08-21T10:39:27.000Z</time>
      </trkpt>
      <trkpt lat="44.10985" lon="6.7002">
        <ele>2242.1999511719</ele>
        <time>2021-08-21T10:39:35.000Z</time>
      </trkpt>
      <trkpt lat="44.10972" lon="6.70047">
        <ele>2242.3999023438</ele>
        <time>2021-08-21T10:39:43.000Z</time>
      </trkpt>
      <trkpt lat="44.10963" lon="6.70062">
        <ele>2242.8000488281</ele>
        <time>2021-08-21T10:39:49.000Z</time>
      </trkpt>
      <trkpt lat="44.10959" lon="6.7007">
        <ele>2243</ele>
        <time>2021-08-21T10:39:52.000Z</time>
      </trkpt>
      <trkpt lat="44.10951" lon="6.70094">
        <ele>2243.8000488281</ele>
        <time>2021-08-21T10:39:59.000Z</time>
      </trkpt>
      <trkpt lat="44.1094" lon="6.70116">
        <ele>2244.6000976562</ele>
        <time>2021-08-21T10:40:08.000Z</time>
      </trkpt>
      <trkpt lat="44.10939" lon="6.70118">
        <ele>2244.8000488281</ele>
        <time>2021-08-21T10:40:09.000Z</time>
      </trkpt>
      <trkpt lat="44.1093" lon="6.70128">
        <ele>2245.8000488281</ele>
        <time>2021-08-21T10:40:15.000Z</time>
      </trkpt>
      <trkpt lat="44.10927" lon="6.70133">
        <ele>2246</ele>
        <time>2021-08-21T10:40:18.000Z</time>
      </trkpt>
      <trkpt lat="44.10915" lon="6.70146">
        <ele>2246.6000976562</ele>
        <time>2021-08-21T10:40:25.000Z</time>
      </trkpt>
      <trkpt lat="44.10912" lon="6.70147">
        <ele>2246.8000488281</ele>
        <time>2021-08-21T10:40:26.000Z</time>
      </trkpt>
      <trkpt lat="44.10897" lon="6.70151">
        <ele>2247.1999511719</ele>
        <time>2021-08-21T10:40:31.000Z</time>
      </trkpt>
      <trkpt lat="44.10882" lon="6.70158">
        <ele>2246.3999023438</ele>
        <time>2021-08-21T10:40:37.000Z</time>
      </trkpt>
      <trkpt lat="44.10867" lon="6.70171">
        <ele>2246.6000976562</ele>
        <time>2021-08-21T10:40:44.000Z</time>
      </trkpt>
      <trkpt lat="44.10859" lon="6.70177">
        <ele>2248</ele>
        <time>2021-08-21T10:40:49.000Z</time>
      </trkpt>
      <trkpt lat="44.10851" lon="6.70183">
        <ele>2248.6000976562</ele>
        <time>2021-08-21T10:40:53.000Z</time>
      </trkpt>
      <trkpt lat="44.10846" lon="6.70188">
        <ele>2249</ele>
        <time>2021-08-21T10:40:56.000Z</time>
      </trkpt>
      <trkpt lat="44.10842" lon="6.70193">
        <ele>2249.1999511719</ele>
        <time>2021-08-21T10:40:59.000Z</time>
      </trkpt>
      <trkpt lat="44.10827" lon="6.70208">
        <ele>2249.1999511719</ele>
        <time>2021-08-21T10:41:07.000Z</time>
      </trkpt>
      <trkpt lat="44.1082" lon="6.70218">
        <ele>2249</ele>
        <time>2021-08-21T10:41:12.000Z</time>
      </trkpt>
      <trkpt lat="44.10815" lon="6.70218">
        <ele>2249</ele>
        <time>2021-08-21T10:41:15.000Z</time>
      </trkpt>
      <trkpt lat="44.10811" lon="6.70215">
        <ele>2249.1999511719</ele>
        <time>2021-08-21T10:41:17.000Z</time>
      </trkpt>
      <trkpt lat="44.10799" lon="6.70211">
        <ele>2249.6000976562</ele>
        <time>2021-08-21T10:41:20.000Z</time>
      </trkpt>
      <trkpt lat="44.10794" lon="6.70211">
        <ele>2249.6000976562</ele>
        <time>2021-08-21T10:41:21.000Z</time>
      </trkpt>
      <trkpt lat="44.10777" lon="6.70221">
        <ele>2248</ele>
        <time>2021-08-21T10:41:25.000Z</time>
      </trkpt>
      <trkpt lat="44.10774" lon="6.70223">
        <ele>2247.6000976562</ele>
        <time>2021-08-21T10:41:26.000Z</time>
      </trkpt>
      <trkpt lat="44.10769" lon="6.70223">
        <ele>2247</ele>
        <time>2021-08-21T10:41:28.000Z</time>
      </trkpt>
      <trkpt lat="44.1076" lon="6.7023">
        <ele>2247.1999511719</ele>
        <time>2021-08-21T10:41:33.000Z</time>
      </trkpt>
      <trkpt lat="44.10753" lon="6.70242">
        <ele>2248.8000488281</ele>
        <time>2021-08-21T10:41:39.000Z</time>
      </trkpt>
      <trkpt lat="44.10749" lon="6.70249">
        <ele>2249.3999023438</ele>
        <time>2021-08-21T10:41:42.000Z</time>
      </trkpt>
      <trkpt lat="44.10749" lon="6.70252">
        <ele>2249.8000488281</ele>
        <time>2021-08-21T10:41:43.000Z</time>
      </trkpt>
      <trkpt lat="44.10743" lon="6.70267">
        <ele>2250.3999023438</ele>
        <time>2021-08-21T10:41:48.000Z</time>
      </trkpt>
      <trkpt lat="44.10739" lon="6.70275">
        <ele>2250.8000488281</ele>
        <time>2021-08-21T10:41:52.000Z</time>
      </trkpt>
      <trkpt lat="44.10734" lon="6.70284">
        <ele>2251.3999023438</ele>
        <time>2021-08-21T10:41:56.000Z</time>
      </trkpt>
      <trkpt lat="44.1073" lon="6.70291">
        <ele>2251.8000488281</ele>
        <time>2021-08-21T10:42:00.000Z</time>
      </trkpt>
      <trkpt lat="44.10724" lon="6.70297">
        <ele>2252.3999023438</ele>
        <time>2021-08-21T10:42:04.000Z</time>
      </trkpt>
      <trkpt lat="44.10712" lon="6.70308">
        <ele>2252.8000488281</ele>
        <time>2021-08-21T10:42:11.000Z</time>
      </trkpt>
      <trkpt lat="44.10711" lon="6.7031">
        <ele>2253</ele>
        <time>2021-08-21T10:42:12.000Z</time>
      </trkpt>
      <trkpt lat="44.10701" lon="6.70321">
        <ele>2253.6000976562</ele>
        <time>2021-08-21T10:42:18.000Z</time>
      </trkpt>
      <trkpt lat="44.10684" lon="6.70342">
        <ele>2253.1999511719</ele>
        <time>2021-08-21T10:42:27.000Z</time>
      </trkpt>
      <trkpt lat="44.10667" lon="6.70368">
        <ele>2253.3999023438</ele>
        <time>2021-08-21T10:42:37.000Z</time>
      </trkpt>
      <trkpt lat="44.10649" lon="6.70395">
        <ele>2253.3999023438</ele>
        <time>2021-08-21T10:42:46.000Z</time>
      </trkpt>
      <trkpt lat="44.10632" lon="6.70412">
        <ele>2253.1999511719</ele>
        <time>2021-08-21T10:42:53.000Z</time>
      </trkpt>
      <trkpt lat="44.10613" lon="6.70427">
        <ele>2252.6000976562</ele>
        <time>2021-08-21T10:42:58.000Z</time>
      </trkpt>
      <trkpt lat="44.10601" lon="6.70439">
        <ele>2251.8000488281</ele>
        <time>2021-08-21T10:43:01.000Z</time>
      </trkpt>
      <trkpt lat="44.10597" lon="6.70443">
        <ele>2251.3999023438</ele>
        <time>2021-08-21T10:43:02.000Z</time>
      </trkpt>
      <trkpt lat="44.10589" lon="6.70452">
        <ele>2250.8000488281</ele>
        <time>2021-08-21T10:43:04.000Z</time>
      </trkpt>
      <trkpt lat="44.10586" lon="6.70455">
        <ele>2250.6000976562</ele>
        <time>2021-08-21T10:43:05.000Z</time>
      </trkpt>
      <trkpt lat="44.10569" lon="6.70475">
        <ele>2249.6000976562</ele>
        <time>2021-08-21T10:43:10.000Z</time>
      </trkpt>
      <trkpt lat="44.10558" lon="6.70493">
        <ele>2249.6000976562</ele>
        <time>2021-08-21T10:43:15.000Z</time>
      </trkpt>
      <trkpt lat="44.1055" lon="6.70509">
        <ele>2250.1999511719</ele>
        <time>2021-08-21T10:43:21.000Z</time>
      </trkpt>
      <trkpt lat="44.10539" lon="6.70526">
        <ele>2250.3999023438</ele>
        <time>2021-08-21T10:43:27.000Z</time>
      </trkpt>
      <trkpt lat="44.10525" lon="6.70551">
        <ele>2250</ele>
        <time>2021-08-21T10:43:33.000Z</time>
      </trkpt>
      <trkpt lat="44.10514" lon="6.70574">
        <ele>2249.8000488281</ele>
        <time>2021-08-21T10:43:39.000Z</time>
      </trkpt>
      <trkpt lat="44.105" lon="6.70592">
        <ele>2249.6000976562</ele>
        <time>2021-08-21T10:43:44.000Z</time>
      </trkpt>
      <trkpt lat="44.10498" lon="6.70598">
        <ele>2249.6000976562</ele>
        <time>2021-08-21T10:43:45.000Z</time>
      </trkpt>
      <trkpt lat="44.10496" lon="6.70612">
        <ele>2249.1999511719</ele>
        <time>2021-08-21T10:43:47.000Z</time>
      </trkpt>
      <trkpt lat="44.10496" lon="6.70638">
        <ele>2248.6000976562</ele>
        <time>2021-08-21T10:43:50.000Z</time>
      </trkpt>
      <trkpt lat="44.10495" lon="6.70647">
        <ele>2248.3999023438</ele>
        <time>2021-08-21T10:43:51.000Z</time>
      </trkpt>
      <trkpt lat="44.10489" lon="6.70665">
        <ele>2247.6000976562</ele>
        <time>2021-08-21T10:43:54.000Z</time>
      </trkpt>
      <trkpt lat="44.10484" lon="6.70674">
        <ele>2247.3999023438</ele>
        <time>2021-08-21T10:43:56.000Z</time>
      </trkpt>
      <trkpt lat="44.10476" lon="6.70682">
        <ele>2247</ele>
        <time>2021-08-21T10:43:59.000Z</time>
      </trkpt>
      <trkpt lat="44.1047" lon="6.70686">
        <ele>2247.1999511719</ele>
        <time>2021-08-21T10:44:01.000Z</time>
      </trkpt>
      <trkpt lat="44.10463" lon="6.70698">
        <ele>2247.6000976562</ele>
        <time>2021-08-21T10:44:04.000Z</time>
      </trkpt>
      <trkpt lat="44.10452" lon="6.70725">
        <ele>2247.3999023438</ele>
        <time>2021-08-21T10:44:10.000Z</time>
      </trkpt>
      <trkpt lat="44.10439" lon="6.70736">
        <ele>2247.3999023438</ele>
        <time>2021-08-21T10:44:15.000Z</time>
      </trkpt>
      <trkpt lat="44.10419" lon="6.70753">
        <ele>2247.8000488281</ele>
        <time>2021-08-21T10:44:22.000Z</time>
      </trkpt>
      <trkpt lat="44.10408" lon="6.70755">
        <ele>2248.1999511719</ele>
        <time>2021-08-21T10:44:26.000Z</time>
      </trkpt>
      <trkpt lat="44.10403" lon="6.70758">
        <ele>2248.3999023438</ele>
        <time>2021-08-21T10:44:28.000Z</time>
      </trkpt>
      <trkpt lat="44.10389" lon="6.70767">
        <ele>2248.1999511719</ele>
        <time>2021-08-21T10:44:33.000Z</time>
      </trkpt>
      <trkpt lat="44.10383" lon="6.70772">
        <ele>2248</ele>
        <time>2021-08-21T10:44:38.000Z</time>
      </trkpt>
      <trkpt lat="44.10383" lon="6.70773">
        <ele>2247.6000976562</ele>
        <time>2021-08-21T10:44:45.000Z</time>
      </trkpt>
      <trkpt lat="44.10383" lon="6.70773">
        <ele>2248</ele>
        <time>2021-08-21T10:44:52.000Z</time>
      </trkpt>
      <trkpt lat="44.10383" lon="6.70773">
        <ele>2248</ele>
        <time>2021-08-21T10:44:58.000Z</time>
      </trkpt>
      <trkpt lat="44.10384" lon="6.70773">
        <ele>2247.8000488281</ele>
        <time>2021-08-21T10:45:07.000Z</time>
      </trkpt>
      <trkpt lat="44.10383" lon="6.70774">
        <ele>2247.6000976562</ele>
        <time>2021-08-21T10:45:25.000Z</time>
      </trkpt>
      <trkpt lat="44.10382" lon="6.70775">
        <ele>2247.8000488281</ele>
        <time>2021-08-21T10:45:31.000Z</time>
      </trkpt>
      <trkpt lat="44.10382" lon="6.70775">
        <ele>2247.8000488281</ele>
        <time>2021-08-21T10:45:38.000Z</time>
      </trkpt>
      <trkpt lat="44.10382" lon="6.70775">
        <ele>2247.1999511719</ele>
        <time>2021-08-21T10:45:39.000Z</time>
      </trkpt>
      <trkpt lat="44.10382" lon="6.70775">
        <ele>2247</ele>
        <time>2021-08-21T10:45:48.000Z</time>
      </trkpt>
      <trkpt lat="44.10381" lon="6.70776">
        <ele>2247</ele>
        <time>2021-08-21T10:45:56.000Z</time>
      </trkpt>
      <trkpt lat="44.10382" lon="6.70776">
        <ele>2247.1999511719</ele>
        <time>2021-08-21T10:46:04.000Z</time>
      </trkpt>
      <trkpt lat="44.10381" lon="6.70776">
        <ele>2247</ele>
        <time>2021-08-21T10:46:13.000Z</time>
      </trkpt>
      <trkpt lat="44.10382" lon="6.70776">
        <ele>2247.3999023438</ele>
        <time>2021-08-21T10:46:20.000Z</time>
      </trkpt>
      <trkpt lat="44.10382" lon="6.70776">
        <ele>2247.6000976562</ele>
        <time>2021-08-21T10:46:39.000Z</time>
      </trkpt>
      <trkpt lat="44.10382" lon="6.70776">
        <ele>2247.6000976562</ele>
        <time>2021-08-21T10:46:58.000Z</time>
      </trkpt>
      <trkpt lat="44.10382" lon="6.70776">
        <ele>2247.6000976562</ele>
        <time>2021-08-21T10:47:25.000Z</time>
      </trkpt>
      <trkpt lat="44.10382" lon="6.70777">
        <ele>2247.3999023438</ele>
        <time>2021-08-21T10:47:51.000Z</time>
      </trkpt>
      <trkpt lat="44.10382" lon="6.70777">
        <ele>2247.3999023438</ele>
        <time>2021-08-21T10:48:22.000Z</time>
      </trkpt>
      <trkpt lat="44.10382" lon="6.70777">
        <ele>2247.3999023438</ele>
        <time>2021-08-21T10:48:54.000Z</time>
      </trkpt>
      <trkpt lat="44.10382" lon="6.70777">
        <ele>2247.1999511719</ele>
        <time>2021-08-21T10:49:28.000Z</time>
      </trkpt>
      <trkpt lat="44.10381" lon="6.70777">
        <ele>2247.3999023438</ele>
        <time>2021-08-21T10:50:02.000Z</time>
      </trkpt>
      <trkpt lat="44.10381" lon="6.70776">
        <ele>2247.1999511719</ele>
        <time>2021-08-21T10:50:37.000Z</time>
      </trkpt>
      <trkpt lat="44.10381" lon="6.70776">
        <ele>2247</ele>
        <time>2021-08-21T10:51:09.000Z</time>
      </trkpt>
      <trkpt lat="44.10381" lon="6.70776">
        <ele>2247</ele>
        <time>2021-08-21T10:51:43.000Z</time>
      </trkpt>
      <trkpt lat="44.10381" lon="6.70775">
        <ele>2247.1999511719</ele>
        <time>2021-08-21T10:52:16.000Z</time>
      </trkpt>
      <trkpt lat="44.10381" lon="6.70775">
        <ele>2247.1999511719</ele>
        <time>2021-08-21T10:52:48.000Z</time>
      </trkpt>
      <trkpt lat="44.10381" lon="6.70775">
        <ele>2247.1999511719</ele>
        <time>2021-08-21T10:53:22.000Z</time>
      </trkpt>
      <trkpt lat="44.10381" lon="6.70775">
        <ele>2247.1999511719</ele>
        <time>2021-08-21T10:53:50.000Z</time>
      </trkpt>
      <trkpt lat="44.1038" lon="6.70773">
        <ele>2247.1999511719</ele>
        <time>2021-08-21T10:54:14.000Z</time>
      </trkpt>
      <trkpt lat="44.1038" lon="6.70773">
        <ele>2247.1999511719</ele>
        <time>2021-08-21T10:54:45.000Z</time>
      </trkpt>
      <trkpt lat="44.1038" lon="6.70773">
        <ele>2247.1999511719</ele>
        <time>2021-08-21T10:55:14.000Z</time>
      </trkpt>
      <trkpt lat="44.10379" lon="6.70771">
        <ele>2247.1999511719</ele>
        <time>2021-08-21T10:55:40.000Z</time>
      </trkpt>
      <trkpt lat="44.10378" lon="6.70769">
        <ele>2247.1999511719</ele>
        <time>2021-08-21T10:56:12.000Z</time>
      </trkpt>
      <trkpt lat="44.10379" lon="6.70771">
        <ele>2247.1999511719</ele>
        <time>2021-08-21T10:56:34.000Z</time>
      </trkpt>
      <trkpt lat="44.10379" lon="6.70771">
        <ele>2247.3999023438</ele>
        <time>2021-08-21T10:56:53.000Z</time>
      </trkpt>
      <trkpt lat="44.10379" lon="6.70771">
        <ele>2247.3999023438</ele>
        <time>2021-08-21T10:57:18.000Z</time>
      </trkpt>
      <trkpt lat="44.10379" lon="6.7077">
        <ele>2247.6000976562</ele>
        <time>2021-08-21T10:57:45.000Z</time>
      </trkpt>
      <trkpt lat="44.10378" lon="6.7077">
        <ele>2247.6000976562</ele>
        <time>2021-08-21T10:58:09.000Z</time>
      </trkpt>
      <trkpt lat="44.10378" lon="6.7077">
        <ele>2247.6000976562</ele>
        <time>2021-08-21T10:58:32.000Z</time>
      </trkpt>
      <trkpt lat="44.10378" lon="6.70769">
        <ele>2247.8000488281</ele>
        <time>2021-08-21T10:58:57.000Z</time>
      </trkpt>
      <trkpt lat="44.10378" lon="6.70769">
        <ele>2247.8000488281</ele>
        <time>2021-08-21T10:59:15.000Z</time>
      </trkpt>
      <trkpt lat="44.10377" lon="6.70768">
        <ele>2247.8000488281</ele>
        <time>2021-08-21T10:59:37.000Z</time>
      </trkpt>
      <trkpt lat="44.10378" lon="6.70769">
        <ele>2247.6000976562</ele>
        <time>2021-08-21T11:00:09.000Z</time>
      </trkpt>
      <trkpt lat="44.10378" lon="6.70771">
        <ele>2247.6000976562</ele>
        <time>2021-08-21T11:00:28.000Z</time>
      </trkpt>
      <trkpt lat="44.10378" lon="6.7077">
        <ele>2247.6000976562</ele>
        <time>2021-08-21T11:00:46.000Z</time>
      </trkpt>
      <trkpt lat="44.10378" lon="6.70769">
        <ele>2247.8000488281</ele>
        <time>2021-08-21T11:01:08.000Z</time>
      </trkpt>
      <trkpt lat="44.10378" lon="6.7077">
        <ele>2247.6000976562</ele>
        <time>2021-08-21T11:01:19.000Z</time>
      </trkpt>
      <trkpt lat="44.10379" lon="6.70772">
        <ele>2247.8000488281</ele>
        <time>2021-08-21T11:01:32.000Z</time>
      </trkpt>
      <trkpt lat="44.1038" lon="6.70774">
        <ele>2248</ele>
        <time>2021-08-21T11:01:57.000Z</time>
      </trkpt>
      <trkpt lat="44.1038" lon="6.70775">
        <ele>2247.8000488281</ele>
        <time>2021-08-21T11:02:27.000Z</time>
      </trkpt>
      <trkpt lat="44.10381" lon="6.70775">
        <ele>2248</ele>
        <time>2021-08-21T11:02:57.000Z</time>
      </trkpt>
      <trkpt lat="44.10381" lon="6.70776">
        <ele>2247.8000488281</ele>
        <time>2021-08-21T11:03:25.000Z</time>
      </trkpt>
      <trkpt lat="44.10382" lon="6.70776">
        <ele>2247.8000488281</ele>
        <time>2021-08-21T11:03:57.000Z</time>
      </trkpt>
      <trkpt lat="44.10381" lon="6.70776">
        <ele>2247.8000488281</ele>
        <time>2021-08-21T11:04:25.000Z</time>
      </trkpt>
      <trkpt lat="44.10381" lon="6.70776">
        <ele>2248</ele>
        <time>2021-08-21T11:04:55.000Z</time>
      </trkpt>
      <trkpt lat="44.10381" lon="6.70776">
        <ele>2248</ele>
        <time>2021-08-21T11:05:23.000Z</time>
      </trkpt>
      <trkpt lat="44.10381" lon="6.70776">
        <ele>2247.8000488281</ele>
        <time>2021-08-21T11:05:51.000Z</time>
      </trkpt>
      <trkpt lat="44.10381" lon="6.70776">
        <ele>2247.6000976562</ele>
        <time>2021-08-21T11:06:23.000Z</time>
      </trkpt>
      <trkpt lat="44.10381" lon="6.70776">
        <ele>2247.3999023438</ele>
        <time>2021-08-21T11:06:50.000Z</time>
      </trkpt>
      <trkpt lat="44.10381" lon="6.70776">
        <ele>2247.3999023438</ele>
        <time>2021-08-21T11:07:20.000Z</time>
      </trkpt>
      <trkpt lat="44.10381" lon="6.70776">
        <ele>2247.3999023438</ele>
        <time>2021-08-21T11:07:52.000Z</time>
      </trkpt>
      <trkpt lat="44.10381" lon="6.70777">
        <ele>2247.3999023438</ele>
        <time>2021-08-21T11:08:27.000Z</time>
      </trkpt>
      <trkpt lat="44.10381" lon="6.70777">
        <ele>2247.3999023438</ele>
        <time>2021-08-21T11:09:04.000Z</time>
      </trkpt>
      <trkpt lat="44.1038" lon="6.70777">
        <ele>2247</ele>
        <time>2021-08-21T11:09:36.000Z</time>
      </trkpt>
      <trkpt lat="44.1038" lon="6.70777">
        <ele>2246.8000488281</ele>
        <time>2021-08-21T11:10:09.000Z</time>
      </trkpt>
      <trkpt lat="44.10381" lon="6.70777">
        <ele>2246.8000488281</ele>
        <time>2021-08-21T11:10:45.000Z</time>
      </trkpt>
      <trkpt lat="44.10381" lon="6.70777">
        <ele>2246.8000488281</ele>
        <time>2021-08-21T11:11:21.000Z</time>
      </trkpt>
      <trkpt lat="44.10381" lon="6.70777">
        <ele>2246.8000488281</ele>
        <time>2021-08-21T11:11:49.000Z</time>
      </trkpt>
      <trkpt lat="44.1038" lon="6.70777">
        <ele>2246.8000488281</ele>
        <time>2021-08-21T11:12:19.000Z</time>
      </trkpt>
      <trkpt lat="44.1038" lon="6.70778">
        <ele>2246.8000488281</ele>
        <time>2021-08-21T11:12:46.000Z</time>
      </trkpt>
      <trkpt lat="44.10379" lon="6.70778">
        <ele>2246.8000488281</ele>
        <time>2021-08-21T11:13:07.000Z</time>
      </trkpt>
      <trkpt lat="44.1038" lon="6.70778">
        <ele>2246.8000488281</ele>
        <time>2021-08-21T11:13:39.000Z</time>
      </trkpt>
      <trkpt lat="44.1038" lon="6.70778">
        <ele>2246.8000488281</ele>
        <time>2021-08-21T11:14:09.000Z</time>
      </trkpt>
      <trkpt lat="44.1038" lon="6.70777">
        <ele>2247</ele>
        <time>2021-08-21T11:14:39.000Z</time>
      </trkpt>
      <trkpt lat="44.10379" lon="6.70777">
        <ele>2247</ele>
        <time>2021-08-21T11:15:10.000Z</time>
      </trkpt>
      <trkpt lat="44.10379" lon="6.70777">
        <ele>2247</ele>
        <time>2021-08-21T11:15:37.000Z</time>
      </trkpt>
      <trkpt lat="44.10379" lon="6.70777">
        <ele>2247</ele>
        <time>2021-08-21T11:16:07.000Z</time>
      </trkpt>
      <trkpt lat="44.10378" lon="6.70777">
        <ele>2247</ele>
        <time>2021-08-21T11:16:33.000Z</time>
      </trkpt>
      <trkpt lat="44.10378" lon="6.70777">
        <ele>2246.8000488281</ele>
        <time>2021-08-21T11:17:01.000Z</time>
      </trkpt>
      <trkpt lat="44.10378" lon="6.70777">
        <ele>2246.6000976562</ele>
        <time>2021-08-21T11:17:28.000Z</time>
      </trkpt>
      <trkpt lat="44.10378" lon="6.70777">
        <ele>2246.6000976562</ele>
        <time>2021-08-21T11:18:00.000Z</time>
      </trkpt>
      <trkpt lat="44.10378" lon="6.70777">
        <ele>2246.6000976562</ele>
        <time>2021-08-21T11:18:29.000Z</time>
      </trkpt>
      <trkpt lat="44.10377" lon="6.70777">
        <ele>2246.8000488281</ele>
        <time>2021-08-21T11:18:58.000Z</time>
      </trkpt>
      <trkpt lat="44.10377" lon="6.70777">
        <ele>2246.8000488281</ele>
        <time>2021-08-21T11:19:26.000Z</time>
      </trkpt>
      <trkpt lat="44.10377" lon="6.70777">
        <ele>2246.8000488281</ele>
        <time>2021-08-21T11:19:51.000Z</time>
      </trkpt>
      <trkpt lat="44.10378" lon="6.70777">
        <ele>2246.8000488281</ele>
        <time>2021-08-21T11:20:16.000Z</time>
      </trkpt>
      <trkpt lat="44.10379" lon="6.70776">
        <ele>2246.8000488281</ele>
        <time>2021-08-21T11:20:41.000Z</time>
      </trkpt>
      <trkpt lat="44.10379" lon="6.70777">
        <ele>2246.8000488281</ele>
        <time>2021-08-21T11:21:09.000Z</time>
      </trkpt>
      <trkpt lat="44.10379" lon="6.70777">
        <ele>2246.6000976562</ele>
        <time>2021-08-21T11:21:37.000Z</time>
      </trkpt>
      <trkpt lat="44.1038" lon="6.70776">
        <ele>2246.3999023438</ele>
        <time>2021-08-21T11:21:54.000Z</time>
      </trkpt>
      <trkpt lat="44.1038" lon="6.70776">
        <ele>2246.6000976562</ele>
        <time>2021-08-21T11:22:19.000Z</time>
      </trkpt>
      <trkpt lat="44.1038" lon="6.70776">
        <ele>2246.6000976562</ele>
        <time>2021-08-21T11:22:46.000Z</time>
      </trkpt>
      <trkpt lat="44.10381" lon="6.70776">
        <ele>2246.8000488281</ele>
        <time>2021-08-21T11:23:11.000Z</time>
      </trkpt>
      <trkpt lat="44.10381" lon="6.70776">
        <ele>2246.6000976562</ele>
        <time>2021-08-21T11:23:32.000Z</time>
      </trkpt>
      <trkpt lat="44.1038" lon="6.70776">
        <ele>2246.1999511719</ele>
        <time>2021-08-21T11:23:52.000Z</time>
      </trkpt>
      <trkpt lat="44.1038" lon="6.70776">
        <ele>2246.1999511719</ele>
        <time>2021-08-21T11:24:11.000Z</time>
      </trkpt>
      <trkpt lat="44.10379" lon="6.70777">
        <ele>2246.3999023438</ele>
        <time>2021-08-21T11:24:43.000Z</time>
      </trkpt>
      <trkpt lat="44.10379" lon="6.70777">
        <ele>2246.1999511719</ele>
        <time>2021-08-21T11:25:20.000Z</time>
      </trkpt>
      <trkpt lat="44.10378" lon="6.70777">
        <ele>2246.1999511719</ele>
        <time>2021-08-21T11:25:46.000Z</time>
      </trkpt>
      <trkpt lat="44.10378" lon="6.70777">
        <ele>2246.1999511719</ele>
        <time>2021-08-21T11:26:23.000Z</time>
      </trkpt>
      <trkpt lat="44.10378" lon="6.70777">
        <ele>2246.1999511719</ele>
        <time>2021-08-21T11:26:47.000Z</time>
      </trkpt>
      <trkpt lat="44.10378" lon="6.70777">
        <ele>2246.1999511719</ele>
        <time>2021-08-21T11:27:12.000Z</time>
      </trkpt>
      <trkpt lat="44.10379" lon="6.70777">
        <ele>2246.1999511719</ele>
        <time>2021-08-21T11:27:24.000Z</time>
      </trkpt>
      <trkpt lat="44.1038" lon="6.70777">
        <ele>2247.8000488281</ele>
        <time>2021-08-21T11:27:34.000Z</time>
      </trkpt>
      <trkpt lat="44.1038" lon="6.70776">
        <ele>2247.6000976562</ele>
        <time>2021-08-21T11:27:35.000Z</time>
      </trkpt>
      <trkpt lat="44.1038" lon="6.70776">
        <ele>2246.6000976562</ele>
        <time>2021-08-21T11:27:37.000Z</time>
      </trkpt>
      <trkpt lat="44.1038" lon="6.70776">
        <ele>2245.6000976562</ele>
        <time>2021-08-21T11:27:41.000Z</time>
      </trkpt>
      <trkpt lat="44.10381" lon="6.70776">
        <ele>2245.8000488281</ele>
        <time>2021-08-21T11:27:47.000Z</time>
      </trkpt>
      <trkpt lat="44.10381" lon="6.70777">
        <ele>2246</ele>
        <time>2021-08-21T11:27:52.000Z</time>
      </trkpt>
      <trkpt lat="44.10381" lon="6.70777">
        <ele>2246.6000976562</ele>
        <time>2021-08-21T11:27:57.000Z</time>
      </trkpt>
      <trkpt lat="44.10381" lon="6.70776">
        <ele>2246.6000976562</ele>
        <time>2021-08-21T11:28:00.000Z</time>
      </trkpt>
      <trkpt lat="44.10381" lon="6.70775">
        <ele>2247.1999511719</ele>
        <time>2021-08-21T11:28:14.000Z</time>
      </trkpt>
      <trkpt lat="44.10381" lon="6.70776">
        <ele>2246.8000488281</ele>
        <time>2021-08-21T11:28:22.000Z</time>
      </trkpt>
      <trkpt lat="44.10381" lon="6.70774">
        <ele>2246.8000488281</ele>
        <time>2021-08-21T11:28:29.000Z</time>
      </trkpt>
      <trkpt lat="44.10382" lon="6.70774">
        <ele>2246.8000488281</ele>
        <time>2021-08-21T11:28:39.000Z</time>
      </trkpt>
      <trkpt lat="44.10383" lon="6.70774">
        <ele>2247</ele>
        <time>2021-08-21T11:28:45.000Z</time>
      </trkpt>
      <trkpt lat="44.10386" lon="6.70769">
        <ele>2247.1999511719</ele>
        <time>2021-08-21T11:28:50.000Z</time>
      </trkpt>
      <trkpt lat="44.10398" lon="6.70755">
        <ele>2247.1999511719</ele>
        <time>2021-08-21T11:28:57.000Z</time>
      </trkpt>
      <trkpt lat="44.10409" lon="6.70746">
        <ele>2247</ele>
        <time>2021-08-21T11:29:02.000Z</time>
      </trkpt>
      <trkpt lat="44.10419" lon="6.70733">
        <ele>2247.3999023438</ele>
        <time>2021-08-21T11:29:08.000Z</time>
      </trkpt>
      <trkpt lat="44.10435" lon="6.70717">
        <ele>2246.8000488281</ele>
        <time>2021-08-21T11:29:14.000Z</time>
      </trkpt>
      <trkpt lat="44.10455" lon="6.707">
        <ele>2246.6000976562</ele>
        <time>2021-08-21T11:29:21.000Z</time>
      </trkpt>
      <trkpt lat="44.1047" lon="6.70684">
        <ele>2246.8000488281</ele>
        <time>2021-08-21T11:29:28.000Z</time>
      </trkpt>
      <trkpt lat="44.10484" lon="6.70673">
        <ele>2247.1999511719</ele>
        <time>2021-08-21T11:29:34.000Z</time>
      </trkpt>
      <trkpt lat="44.10496" lon="6.70657">
        <ele>2247</ele>
        <time>2021-08-21T11:29:40.000Z</time>
      </trkpt>
      <trkpt lat="44.10498" lon="6.70652">
        <ele>2246.8000488281</ele>
        <time>2021-08-21T11:29:42.000Z</time>
      </trkpt>
      <trkpt lat="44.10498" lon="6.70639">
        <ele>2246.6000976562</ele>
        <time>2021-08-21T11:29:45.000Z</time>
      </trkpt>
      <trkpt lat="44.10498" lon="6.70634">
        <ele>2246.3999023438</ele>
        <time>2021-08-21T11:29:46.000Z</time>
      </trkpt>
      <trkpt lat="44.10496" lon="6.70619">
        <ele>2245.8000488281</ele>
        <time>2021-08-21T11:29:50.000Z</time>
      </trkpt>
      <trkpt lat="44.10496" lon="6.70617">
        <ele>2245.8000488281</ele>
        <time>2021-08-21T11:29:51.000Z</time>
      </trkpt>
      <trkpt lat="44.10493" lon="6.70598">
        <ele>2246.8000488281</ele>
        <time>2021-08-21T11:29:58.000Z</time>
      </trkpt>
      <trkpt lat="44.10494" lon="6.70584">
        <ele>2247.8000488281</ele>
        <time>2021-08-21T11:30:04.000Z</time>
      </trkpt>
      <trkpt lat="44.10494" lon="6.70581">
        <ele>2247.8000488281</ele>
        <time>2021-08-21T11:30:05.000Z</time>
      </trkpt>
      <trkpt lat="44.10494" lon="6.70565">
        <ele>2248.8000488281</ele>
        <time>2021-08-21T11:30:12.000Z</time>
      </trkpt>
      <trkpt lat="44.10495" lon="6.7055">
        <ele>2250</ele>
        <time>2021-08-21T11:30:18.000Z</time>
      </trkpt>
      <trkpt lat="44.10497" lon="6.70535">
        <ele>2251</ele>
        <time>2021-08-21T11:30:24.000Z</time>
      </trkpt>
      <trkpt lat="44.10497" lon="6.70532">
        <ele>2251</ele>
        <time>2021-08-21T11:30:25.000Z</time>
      </trkpt>
      <trkpt lat="44.10501" lon="6.70515">
        <ele>2252.1999511719</ele>
        <time>2021-08-21T11:30:32.000Z</time>
      </trkpt>
      <trkpt lat="44.10502" lon="6.70513">
        <ele>2252.3999023438</ele>
        <time>2021-08-21T11:30:33.000Z</time>
      </trkpt>
      <trkpt lat="44.10505" lon="6.70497">
        <ele>2253.1999511719</ele>
        <time>2021-08-21T11:30:39.000Z</time>
      </trkpt>
      <trkpt lat="44.10507" lon="6.70484">
        <ele>2253.8000488281</ele>
        <time>2021-08-21T11:30:44.000Z</time>
      </trkpt>
      <trkpt lat="44.10505" lon="6.70475">
        <ele>2254.3999023438</ele>
        <time>2021-08-21T11:30:48.000Z</time>
      </trkpt>
      <trkpt lat="44.10505" lon="6.70466">
        <ele>2255.1999511719</ele>
        <time>2021-08-21T11:30:52.000Z</time>
      </trkpt>
      <trkpt lat="44.10505" lon="6.70464">
        <ele>2255.3999023438</ele>
        <time>2021-08-21T11:30:53.000Z</time>
      </trkpt>
      <trkpt lat="44.10506" lon="6.70453">
        <ele>2256.6000976562</ele>
        <time>2021-08-21T11:30:58.000Z</time>
      </trkpt>
      <trkpt lat="44.10506" lon="6.70442">
        <ele>2257.1999511719</ele>
        <time>2021-08-21T11:31:03.000Z</time>
      </trkpt>
      <trkpt lat="44.10506" lon="6.70434">
        <ele>2257.8000488281</ele>
        <time>2021-08-21T11:31:06.000Z</time>
      </trkpt>
      <trkpt lat="44.10506" lon="6.70419">
        <ele>2258.6000976562</ele>
        <time>2021-08-21T11:31:12.000Z</time>
      </trkpt>
      <trkpt lat="44.10507" lon="6.70411">
        <ele>2258.8000488281</ele>
        <time>2021-08-21T11:31:15.000Z</time>
      </trkpt>
      <trkpt lat="44.10512" lon="6.70389">
        <ele>2259.6000976562</ele>
        <time>2021-08-21T11:31:24.000Z</time>
      </trkpt>
      <trkpt lat="44.10513" lon="6.70385">
        <ele>2259.8000488281</ele>
        <time>2021-08-21T11:31:26.000Z</time>
      </trkpt>
      <trkpt lat="44.10517" lon="6.70374">
        <ele>2260.6000976562</ele>
        <time>2021-08-21T11:31:33.000Z</time>
      </trkpt>
      <trkpt lat="44.10527" lon="6.70363">
        <ele>2261</ele>
        <time>2021-08-21T11:31:42.000Z</time>
      </trkpt>
      <trkpt lat="44.10541" lon="6.70358">
        <ele>2261.1999511719</ele>
        <time>2021-08-21T11:31:48.000Z</time>
      </trkpt>
      <trkpt lat="44.10557" lon="6.70346">
        <ele>2260.6000976562</ele>
        <time>2021-08-21T11:31:54.000Z</time>
      </trkpt>
      <trkpt lat="44.1057" lon="6.70331">
        <ele>2260</ele>
        <time>2021-08-21T11:32:00.000Z</time>
      </trkpt>
      <trkpt lat="44.10577" lon="6.70322">
        <ele>2259.3999023438</ele>
        <time>2021-08-21T11:32:03.000Z</time>
      </trkpt>
      <trkpt lat="44.10592" lon="6.70302">
        <ele>2259.1999511719</ele>
        <time>2021-08-21T11:32:10.000Z</time>
      </trkpt>
      <trkpt lat="44.10595" lon="6.70283">
        <ele>2259</ele>
        <time>2021-08-21T11:32:16.000Z</time>
      </trkpt>
      <trkpt lat="44.10595" lon="6.7028">
        <ele>2258.8000488281</ele>
        <time>2021-08-21T11:32:17.000Z</time>
      </trkpt>
      <trkpt lat="44.10594" lon="6.7026">
        <ele>2257.6000976562</ele>
        <time>2021-08-21T11:32:22.000Z</time>
      </trkpt>
      <trkpt lat="44.10591" lon="6.70246">
        <ele>2256.6000976562</ele>
        <time>2021-08-21T11:32:26.000Z</time>
      </trkpt>
      <trkpt lat="44.10588" lon="6.7024">
        <ele>2256.1999511719</ele>
        <time>2021-08-21T11:32:28.000Z</time>
      </trkpt>
      <trkpt lat="44.10579" lon="6.70228">
        <ele>2255.3999023438</ele>
        <time>2021-08-21T11:32:33.000Z</time>
      </trkpt>
      <trkpt lat="44.10575" lon="6.70224">
        <ele>2255</ele>
        <time>2021-08-21T11:32:35.000Z</time>
      </trkpt>
      <trkpt lat="44.1057" lon="6.70221">
        <ele>2254.3999023438</ele>
        <time>2021-08-21T11:32:38.000Z</time>
      </trkpt>
      <trkpt lat="44.10569" lon="6.70222">
        <ele>2254</ele>
        <time>2021-08-21T11:32:39.000Z</time>
      </trkpt>
      <trkpt lat="44.10568" lon="6.70222">
        <ele>2253.8000488281</ele>
        <time>2021-08-21T11:32:40.000Z</time>
      </trkpt>
      <trkpt lat="44.10565" lon="6.70221">
        <ele>2253.1999511719</ele>
        <time>2021-08-21T11:32:42.000Z</time>
      </trkpt>
      <trkpt lat="44.10562" lon="6.7022">
        <ele>2253.3999023438</ele>
        <time>2021-08-21T11:32:46.000Z</time>
      </trkpt>
      <trkpt lat="44.10558" lon="6.7022">
        <ele>2253.3999023438</ele>
        <time>2021-08-21T11:32:48.000Z</time>
      </trkpt>
      <trkpt lat="44.10553" lon="6.70223">
        <ele>2253.6000976562</ele>
        <time>2021-08-21T11:32:50.000Z</time>
      </trkpt>
      <trkpt lat="44.10545" lon="6.70227">
        <ele>2253.6000976562</ele>
        <time>2021-08-21T11:32:54.000Z</time>
      </trkpt>
      <trkpt lat="44.1054" lon="6.70231">
        <ele>2253.8000488281</ele>
        <time>2021-08-21T11:32:56.000Z</time>
      </trkpt>
      <trkpt lat="44.10534" lon="6.70235">
        <ele>2254.3999023438</ele>
        <time>2021-08-21T11:32:59.000Z</time>
      </trkpt>
      <trkpt lat="44.10528" lon="6.70239">
        <ele>2254.8000488281</ele>
        <time>2021-08-21T11:33:02.000Z</time>
      </trkpt>
      <trkpt lat="44.10517" lon="6.70243">
        <ele>2255.3999023438</ele>
        <time>2021-08-21T11:33:06.000Z</time>
      </trkpt>
      <trkpt lat="44.10512" lon="6.7024">
        <ele>2255.3999023438</ele>
        <time>2021-08-21T11:33:08.000Z</time>
      </trkpt>
      <trkpt lat="44.10503" lon="6.70227">
        <ele>2255.3999023438</ele>
        <time>2021-08-21T11:33:12.000Z</time>
      </trkpt>
      <trkpt lat="44.10487" lon="6.70193">
        <ele>2255</ele>
        <time>2021-08-21T11:33:20.000Z</time>
      </trkpt>
      <trkpt lat="44.10481" lon="6.7016">
        <ele>2255</ele>
        <time>2021-08-21T11:33:27.000Z</time>
      </trkpt>
      <trkpt lat="44.10482" lon="6.70119">
        <ele>2254.6000976562</ele>
        <time>2021-08-21T11:33:35.000Z</time>
      </trkpt>
      <trkpt lat="44.10488" lon="6.70097">
        <ele>2255</ele>
        <time>2021-08-21T11:33:40.000Z</time>
      </trkpt>
      <trkpt lat="44.10494" lon="6.70075">
        <ele>2256</ele>
        <time>2021-08-21T11:33:47.000Z</time>
      </trkpt>
      <trkpt lat="44.10494" lon="6.70068">
        <ele>2256.3999023438</ele>
        <time>2021-08-21T11:33:49.000Z</time>
      </trkpt>
      <trkpt lat="44.10497" lon="6.70043">
        <ele>2257</ele>
        <time>2021-08-21T11:33:55.000Z</time>
      </trkpt>
      <trkpt lat="44.10505" lon="6.70016">
        <ele>2256.6000976562</ele>
        <time>2021-08-21T11:34:02.000Z</time>
      </trkpt>
      <trkpt lat="44.10515" lon="6.70001">
        <ele>2257</ele>
        <time>2021-08-21T11:34:08.000Z</time>
      </trkpt>
      <trkpt lat="44.1052" lon="6.69996">
        <ele>2257.3999023438</ele>
        <time>2021-08-21T11:34:11.000Z</time>
      </trkpt>
      <trkpt lat="44.10525" lon="6.69988">
        <ele>2257.8000488281</ele>
        <time>2021-08-21T11:34:14.000Z</time>
      </trkpt>
      <trkpt lat="44.10539" lon="6.69979">
        <ele>2257.6000976562</ele>
        <time>2021-08-21T11:34:20.000Z</time>
      </trkpt>
      <trkpt lat="44.10552" lon="6.69973">
        <ele>2258</ele>
        <time>2021-08-21T11:34:26.000Z</time>
      </trkpt>
      <trkpt lat="44.10558" lon="6.69965">
        <ele>2258</ele>
        <time>2021-08-21T11:34:32.000Z</time>
      </trkpt>
      <trkpt lat="44.1056" lon="6.69961">
        <ele>2258</ele>
        <time>2021-08-21T11:34:35.000Z</time>
      </trkpt>
      <trkpt lat="44.10561" lon="6.69961">
        <ele>2258</ele>
        <time>2021-08-21T11:34:38.000Z</time>
      </trkpt>
      <trkpt lat="44.10564" lon="6.69959">
        <ele>2257.3999023438</ele>
        <time>2021-08-21T11:34:42.000Z</time>
      </trkpt>
      <trkpt lat="44.10566" lon="6.69961">
        <ele>2256.8000488281</ele>
        <time>2021-08-21T11:34:44.000Z</time>
      </trkpt>
      <trkpt lat="44.1057" lon="6.6997">
        <ele>2257.3999023438</ele>
        <time>2021-08-21T11:34:52.000Z</time>
      </trkpt>
      <trkpt lat="44.10574" lon="6.69978">
        <ele>2258</ele>
        <time>2021-08-21T11:34:59.000Z</time>
      </trkpt>
      <trkpt lat="44.10579" lon="6.69981">
        <ele>2258.6000976562</ele>
        <time>2021-08-21T11:35:02.000Z</time>
      </trkpt>
      <trkpt lat="44.10583" lon="6.69983">
        <ele>2258.6000976562</ele>
        <time>2021-08-21T11:35:04.000Z</time>
      </trkpt>
      <trkpt lat="44.10596" lon="6.69982">
        <ele>2258.8000488281</ele>
        <time>2021-08-21T11:35:10.000Z</time>
      </trkpt>
      <trkpt lat="44.10605" lon="6.69979">
        <ele>2259</ele>
        <time>2021-08-21T11:35:15.000Z</time>
      </trkpt>
      <trkpt lat="44.10607" lon="6.69976">
        <ele>2259</ele>
        <time>2021-08-21T11:35:17.000Z</time>
      </trkpt>
      <trkpt lat="44.10607" lon="6.69976">
        <ele>2258.8000488281</ele>
        <time>2021-08-21T11:35:19.000Z</time>
      </trkpt>
      <trkpt lat="44.10609" lon="6.69973">
        <ele>2258.1999511719</ele>
        <time>2021-08-21T11:35:22.000Z</time>
      </trkpt>
      <trkpt lat="44.10609" lon="6.69974">
        <ele>2257.8000488281</ele>
        <time>2021-08-21T11:35:23.000Z</time>
      </trkpt>
      <trkpt lat="44.10614" lon="6.69974">
        <ele>2258.1999511719</ele>
        <time>2021-08-21T11:35:29.000Z</time>
      </trkpt>
      <trkpt lat="44.10618" lon="6.69977">
        <ele>2258.6000976562</ele>
        <time>2021-08-21T11:35:34.000Z</time>
      </trkpt>
      <trkpt lat="44.10625" lon="6.69978">
        <ele>2259.3999023438</ele>
        <time>2021-08-21T11:35:39.000Z</time>
      </trkpt>
      <trkpt lat="44.10632" lon="6.6998">
        <ele>2259.6000976562</ele>
        <time>2021-08-21T11:35:42.000Z</time>
      </trkpt>
      <trkpt lat="44.10637" lon="6.69981">
        <ele>2259.6000976562</ele>
        <time>2021-08-21T11:35:44.000Z</time>
      </trkpt>
      <trkpt lat="44.10644" lon="6.69986">
        <ele>2259.3999023438</ele>
        <time>2021-08-21T11:35:48.000Z</time>
      </trkpt>
      <trkpt lat="44.10654" lon="6.6998">
        <ele>2259.3999023438</ele>
        <time>2021-08-21T11:35:53.000Z</time>
      </trkpt>
      <trkpt lat="44.10658" lon="6.69979">
        <ele>2259</ele>
        <time>2021-08-21T11:35:57.000Z</time>
      </trkpt>
      <trkpt lat="44.1066" lon="6.69977">
        <ele>2258.8000488281</ele>
        <time>2021-08-21T11:36:00.000Z</time>
      </trkpt>
      <trkpt lat="44.10662" lon="6.69978">
        <ele>2258.3999023438</ele>
        <time>2021-08-21T11:36:02.000Z</time>
      </trkpt>
      <trkpt lat="44.10663" lon="6.69977">
        <ele>2258.3999023438</ele>
        <time>2021-08-21T11:36:03.000Z</time>
      </trkpt>
      <trkpt lat="44.10672" lon="6.69973">
        <ele>2259.1999511719</ele>
        <time>2021-08-21T11:36:11.000Z</time>
      </trkpt>
      <trkpt lat="44.10679" lon="6.69971">
        <ele>2259.1999511719</ele>
        <time>2021-08-21T11:36:17.000Z</time>
      </trkpt>
      <trkpt lat="44.1068" lon="6.6997">
        <ele>2259.3999023438</ele>
        <time>2021-08-21T11:36:18.000Z</time>
      </trkpt>
      <trkpt lat="44.10682" lon="6.69967">
        <ele>2259.6000976562</ele>
        <time>2021-08-21T11:36:20.000Z</time>
      </trkpt>
      <trkpt lat="44.10684" lon="6.69966">
        <ele>2259.8000488281</ele>
        <time>2021-08-21T11:36:21.000Z</time>
      </trkpt>
      <trkpt lat="44.10685" lon="6.69967">
        <ele>2259.8000488281</ele>
        <time>2021-08-21T11:36:22.000Z</time>
      </trkpt>
      <trkpt lat="44.10691" lon="6.69969">
        <ele>2259.6000976562</ele>
        <time>2021-08-21T11:36:28.000Z</time>
      </trkpt>
      <trkpt lat="44.10696" lon="6.69969">
        <ele>2260.8000488281</ele>
        <time>2021-08-21T11:36:33.000Z</time>
      </trkpt>
      <trkpt lat="44.10697" lon="6.69969">
        <ele>2261.1999511719</ele>
        <time>2021-08-21T11:36:35.000Z</time>
      </trkpt>
      <trkpt lat="44.10698" lon="6.69969">
        <ele>2261.3999023438</ele>
        <time>2021-08-21T11:36:37.000Z</time>
      </trkpt>
      <trkpt lat="44.10703" lon="6.69967">
        <ele>2261.6000976562</ele>
        <time>2021-08-21T11:36:40.000Z</time>
      </trkpt>
      <trkpt lat="44.10706" lon="6.69963">
        <ele>2261.8000488281</ele>
        <time>2021-08-21T11:36:42.000Z</time>
      </trkpt>
      <trkpt lat="44.10719" lon="6.69956">
        <ele>2262.6000976562</ele>
        <time>2021-08-21T11:36:47.000Z</time>
      </trkpt>
      <trkpt lat="44.10724" lon="6.69952">
        <ele>2263</ele>
        <time>2021-08-21T11:36:49.000Z</time>
      </trkpt>
      <trkpt lat="44.10731" lon="6.69943">
        <ele>2263.1999511719</ele>
        <time>2021-08-21T11:36:53.000Z</time>
      </trkpt>
      <trkpt lat="44.10742" lon="6.69933">
        <ele>2263.6000976562</ele>
        <time>2021-08-21T11:36:58.000Z</time>
      </trkpt>
      <trkpt lat="44.10745" lon="6.69927">
        <ele>2264</ele>
        <time>2021-08-21T11:37:01.000Z</time>
      </trkpt>
      <trkpt lat="44.1075" lon="6.69922">
        <ele>2264.8000488281</ele>
        <time>2021-08-21T11:37:04.000Z</time>
      </trkpt>
      <trkpt lat="44.10755" lon="6.6992">
        <ele>2265.1999511719</ele>
        <time>2021-08-21T11:37:06.000Z</time>
      </trkpt>
      <trkpt lat="44.10765" lon="6.69919">
        <ele>2265.3999023438</ele>
        <time>2021-08-21T11:37:10.000Z</time>
      </trkpt>
      <trkpt lat="44.10783" lon="6.69907">
        <ele>2266</ele>
        <time>2021-08-21T11:37:17.000Z</time>
      </trkpt>
      <trkpt lat="44.108" lon="6.69889">
        <ele>2266</ele>
        <time>2021-08-21T11:37:24.000Z</time>
      </trkpt>
      <trkpt lat="44.10809" lon="6.6987">
        <ele>2266</ele>
        <time>2021-08-21T11:37:29.000Z</time>
      </trkpt>
      <trkpt lat="44.1081" lon="6.69865">
        <ele>2266.1999511719</ele>
        <time>2021-08-21T11:37:31.000Z</time>
      </trkpt>
      <trkpt lat="44.10811" lon="6.69861">
        <ele>2266.3999023438</ele>
        <time>2021-08-21T11:37:33.000Z</time>
      </trkpt>
      <trkpt lat="44.10813" lon="6.69853">
        <ele>2267.1999511719</ele>
        <time>2021-08-21T11:37:37.000Z</time>
      </trkpt>
      <trkpt lat="44.10813" lon="6.69845">
        <ele>2268.1999511719</ele>
        <time>2021-08-21T11:37:41.000Z</time>
      </trkpt>
      <trkpt lat="44.10816" lon="6.69838">
        <ele>2269.1999511719</ele>
        <time>2021-08-21T11:37:45.000Z</time>
      </trkpt>
      <trkpt lat="44.10821" lon="6.69832">
        <ele>2269.6000976562</ele>
        <time>2021-08-21T11:37:48.000Z</time>
      </trkpt>
      <trkpt lat="44.10834" lon="6.69813">
        <ele>2270</ele>
        <time>2021-08-21T11:37:55.000Z</time>
      </trkpt>
      <trkpt lat="44.10845" lon="6.6979">
        <ele>2269.8000488281</ele>
        <time>2021-08-21T11:38:02.000Z</time>
      </trkpt>
      <trkpt lat="44.10855" lon="6.69757">
        <ele>2269.1999511719</ele>
        <time>2021-08-21T11:38:09.000Z</time>
      </trkpt>
      <trkpt lat="44.10857" lon="6.69752">
        <ele>2269.1999511719</ele>
        <time>2021-08-21T11:38:10.000Z</time>
      </trkpt>
      <trkpt lat="44.10858" lon="6.69745">
        <ele>2268.8000488281</ele>
        <time>2021-08-21T11:38:12.000Z</time>
      </trkpt>
      <trkpt lat="44.1086" lon="6.69737">
        <ele>2268.8000488281</ele>
        <time>2021-08-21T11:38:14.000Z</time>
      </trkpt>
      <trkpt lat="44.10861" lon="6.69722">
        <ele>2269</ele>
        <time>2021-08-21T11:38:18.000Z</time>
      </trkpt>
      <trkpt lat="44.10865" lon="6.69699">
        <ele>2269.8000488281</ele>
        <time>2021-08-21T11:38:25.000Z</time>
      </trkpt>
      <trkpt lat="44.10865" lon="6.6968">
        <ele>2270</ele>
        <time>2021-08-21T11:38:31.000Z</time>
      </trkpt>
      <trkpt lat="44.10867" lon="6.69675">
        <ele>2270.1999511719</ele>
        <time>2021-08-21T11:38:33.000Z</time>
      </trkpt>
      <trkpt lat="44.10867" lon="6.69666">
        <ele>2270.6000976562</ele>
        <time>2021-08-21T11:38:36.000Z</time>
      </trkpt>
      <trkpt lat="44.10866" lon="6.6965">
        <ele>2271.3999023438</ele>
        <time>2021-08-21T11:38:42.000Z</time>
      </trkpt>
      <trkpt lat="44.10866" lon="6.69647">
        <ele>2271.6000976562</ele>
        <time>2021-08-21T11:38:43.000Z</time>
      </trkpt>
      <trkpt lat="44.10862" lon="6.69636">
        <ele>2272</ele>
        <time>2021-08-21T11:38:47.000Z</time>
      </trkpt>
      <trkpt lat="44.1086" lon="6.69636">
        <ele>2272</ele>
        <time>2021-08-21T11:38:48.000Z</time>
      </trkpt>
      <trkpt lat="44.10849" lon="6.69635">
        <ele>2272.6000976562</ele>
        <time>2021-08-21T11:38:52.000Z</time>
      </trkpt>
      <trkpt lat="44.10842" lon="6.69632">
        <ele>2272.8000488281</ele>
        <time>2021-08-21T11:38:55.000Z</time>
      </trkpt>
      <trkpt lat="44.10826" lon="6.69622">
        <ele>2273.1999511719</ele>
        <time>2021-08-21T11:39:02.000Z</time>
      </trkpt>
      <trkpt lat="44.10814" lon="6.6961">
        <ele>2272.3999023438</ele>
        <time>2021-08-21T11:39:08.000Z</time>
      </trkpt>
      <trkpt lat="44.10804" lon="6.69595">
        <ele>2272.8000488281</ele>
        <time>2021-08-21T11:39:15.000Z</time>
      </trkpt>
      <trkpt lat="44.10788" lon="6.69587">
        <ele>2273.3999023438</ele>
        <time>2021-08-21T11:39:23.000Z</time>
      </trkpt>
      <trkpt lat="44.10774" lon="6.69597">
        <ele>2273.1999511719</ele>
        <time>2021-08-21T11:39:29.000Z</time>
      </trkpt>
      <trkpt lat="44.10762" lon="6.69602">
        <ele>2273</ele>
        <time>2021-08-21T11:39:34.000Z</time>
      </trkpt>
      <trkpt lat="44.10753" lon="6.69594">
        <ele>2273.3999023438</ele>
        <time>2021-08-21T11:39:39.000Z</time>
      </trkpt>
      <trkpt lat="44.10751" lon="6.69591">
        <ele>2273.6000976562</ele>
        <time>2021-08-21T11:39:40.000Z</time>
      </trkpt>
      <trkpt lat="44.10745" lon="6.69574">
        <ele>2273.6000976562</ele>
        <time>2021-08-21T11:39:44.000Z</time>
      </trkpt>
      <trkpt lat="44.1074" lon="6.69552">
        <ele>2273.8000488281</ele>
        <time>2021-08-21T11:39:50.000Z</time>
      </trkpt>
      <trkpt lat="44.1073" lon="6.69541">
        <ele>2274</ele>
        <time>2021-08-21T11:39:55.000Z</time>
      </trkpt>
      <trkpt lat="44.10715" lon="6.69528">
        <ele>2274.1999511719</ele>
        <time>2021-08-21T11:40:02.000Z</time>
      </trkpt>
      <trkpt lat="44.10699" lon="6.69515">
        <ele>2274.6000976562</ele>
        <time>2021-08-21T11:40:10.000Z</time>
      </trkpt>
      <trkpt lat="44.10698" lon="6.69512">
        <ele>2274.6000976562</ele>
        <time>2021-08-21T11:40:11.000Z</time>
      </trkpt>
      <trkpt lat="44.1069" lon="6.69505">
        <ele>2275</ele>
        <time>2021-08-21T11:40:15.000Z</time>
      </trkpt>
      <trkpt lat="44.10683" lon="6.69498">
        <ele>2275.8000488281</ele>
        <time>2021-08-21T11:40:19.000Z</time>
      </trkpt>
      <trkpt lat="44.10681" lon="6.69492">
        <ele>2276</ele>
        <time>2021-08-21T11:40:21.000Z</time>
      </trkpt>
      <trkpt lat="44.10674" lon="6.69476">
        <ele>2275.8000488281</ele>
        <time>2021-08-21T11:40:27.000Z</time>
      </trkpt>
      <trkpt lat="44.10668" lon="6.6947">
        <ele>2276</ele>
        <time>2021-08-21T11:40:31.000Z</time>
      </trkpt>
      <trkpt lat="44.10667" lon="6.69454">
        <ele>2276.3999023438</ele>
        <time>2021-08-21T11:40:36.000Z</time>
      </trkpt>
      <trkpt lat="44.10664" lon="6.69439">
        <ele>2276.8000488281</ele>
        <time>2021-08-21T11:40:41.000Z</time>
      </trkpt>
      <trkpt lat="44.10662" lon="6.69433">
        <ele>2277</ele>
        <time>2021-08-21T11:40:43.000Z</time>
      </trkpt>
      <trkpt lat="44.10658" lon="6.69413">
        <ele>2277.3999023438</ele>
        <time>2021-08-21T11:40:50.000Z</time>
      </trkpt>
      <trkpt lat="44.10655" lon="6.69402">
        <ele>2278</ele>
        <time>2021-08-21T11:40:54.000Z</time>
      </trkpt>
      <trkpt lat="44.10653" lon="6.69392">
        <ele>2278.1999511719</ele>
        <time>2021-08-21T11:40:57.000Z</time>
      </trkpt>
      <trkpt lat="44.10653" lon="6.69367">
        <ele>2278.6000976562</ele>
        <time>2021-08-21T11:41:05.000Z</time>
      </trkpt>
      <trkpt lat="44.10661" lon="6.69356">
        <ele>2278.6000976562</ele>
        <time>2021-08-21T11:41:10.000Z</time>
      </trkpt>
      <trkpt lat="44.10668" lon="6.69346">
        <ele>2279</ele>
        <time>2021-08-21T11:41:14.000Z</time>
      </trkpt>
      <trkpt lat="44.10671" lon="6.69338">
        <ele>2279.1999511719</ele>
        <time>2021-08-21T11:41:17.000Z</time>
      </trkpt>
      <trkpt lat="44.10678" lon="6.69311">
        <ele>2279.8000488281</ele>
        <time>2021-08-21T11:41:25.000Z</time>
      </trkpt>
      <trkpt lat="44.10682" lon="6.69288">
        <ele>2280</ele>
        <time>2021-08-21T11:41:32.000Z</time>
      </trkpt>
      <trkpt lat="44.1068" lon="6.69278">
        <ele>2280</ele>
        <time>2021-08-21T11:41:35.000Z</time>
      </trkpt>
      <trkpt lat="44.10675" lon="6.69269">
        <ele>2280.1999511719</ele>
        <time>2021-08-21T11:41:38.000Z</time>
      </trkpt>
      <trkpt lat="44.10668" lon="6.69252">
        <ele>2280</ele>
        <time>2021-08-21T11:41:44.000Z</time>
      </trkpt>
      <trkpt lat="44.10669" lon="6.69248">
        <ele>2280.1999511719</ele>
        <time>2021-08-21T11:41:45.000Z</time>
      </trkpt>
      <trkpt lat="44.10671" lon="6.69238">
        <ele>2280.6000976562</ele>
        <time>2021-08-21T11:41:48.000Z</time>
      </trkpt>
      <trkpt lat="44.10669" lon="6.69224">
        <ele>2280.8000488281</ele>
        <time>2021-08-21T11:41:53.000Z</time>
      </trkpt>
      <trkpt lat="44.10665" lon="6.69221">
        <ele>2281</ele>
        <time>2021-08-21T11:41:55.000Z</time>
      </trkpt>
      <trkpt lat="44.10662" lon="6.69214">
        <ele>2281.1999511719</ele>
        <time>2021-08-21T11:41:58.000Z</time>
      </trkpt>
      <trkpt lat="44.10663" lon="6.69211">
        <ele>2281.1999511719</ele>
        <time>2021-08-21T11:41:59.000Z</time>
      </trkpt>
      <trkpt lat="44.10661" lon="6.69205">
        <ele>2280.8000488281</ele>
        <time>2021-08-21T11:42:02.000Z</time>
      </trkpt>
      <trkpt lat="44.1066" lon="6.69204">
        <ele>2280.8000488281</ele>
        <time>2021-08-21T11:42:04.000Z</time>
      </trkpt>
      <trkpt lat="44.10658" lon="6.69201">
        <ele>2280.8000488281</ele>
        <time>2021-08-21T11:42:06.000Z</time>
      </trkpt>
      <trkpt lat="44.10655" lon="6.69185">
        <ele>2280.3999023438</ele>
        <time>2021-08-21T11:42:11.000Z</time>
      </trkpt>
      <trkpt lat="44.10655" lon="6.69169">
        <ele>2280.8000488281</ele>
        <time>2021-08-21T11:42:16.000Z</time>
      </trkpt>
      <trkpt lat="44.10655" lon="6.69157">
        <ele>2281.1999511719</ele>
        <time>2021-08-21T11:42:21.000Z</time>
      </trkpt>
      <trkpt lat="44.10657" lon="6.69144">
        <ele>2281.8000488281</ele>
        <time>2021-08-21T11:42:27.000Z</time>
      </trkpt>
      <trkpt lat="44.10661" lon="6.69131">
        <ele>2282</ele>
        <time>2021-08-21T11:42:33.000Z</time>
      </trkpt>
      <trkpt lat="44.10664" lon="6.69124">
        <ele>2282.1999511719</ele>
        <time>2021-08-21T11:42:36.000Z</time>
      </trkpt>
      <trkpt lat="44.10664" lon="6.69117">
        <ele>2282.1999511719</ele>
        <time>2021-08-21T11:42:39.000Z</time>
      </trkpt>
      <trkpt lat="44.10666" lon="6.69099">
        <ele>2282.1999511719</ele>
        <time>2021-08-21T11:42:46.000Z</time>
      </trkpt>
      <trkpt lat="44.10668" lon="6.69083">
        <ele>2282.8000488281</ele>
        <time>2021-08-21T11:42:52.000Z</time>
      </trkpt>
      <trkpt lat="44.10672" lon="6.69071">
        <ele>2283.1999511719</ele>
        <time>2021-08-21T11:42:57.000Z</time>
      </trkpt>
      <trkpt lat="44.10675" lon="6.69064">
        <ele>2283.3999023438</ele>
        <time>2021-08-21T11:43:00.000Z</time>
      </trkpt>
      <trkpt lat="44.10679" lon="6.69043">
        <ele>2284.3999023438</ele>
        <time>2021-08-21T11:43:08.000Z</time>
      </trkpt>
      <trkpt lat="44.10674" lon="6.69026">
        <ele>2285</ele>
        <time>2021-08-21T11:43:15.000Z</time>
      </trkpt>
      <trkpt lat="44.10673" lon="6.6901">
        <ele>2285.1999511719</ele>
        <time>2021-08-21T11:43:21.000Z</time>
      </trkpt>
      <trkpt lat="44.10672" lon="6.69008">
        <ele>2285.3999023438</ele>
        <time>2021-08-21T11:43:22.000Z</time>
      </trkpt>
      <trkpt lat="44.10675" lon="6.68996">
        <ele>2286</ele>
        <time>2021-08-21T11:43:28.000Z</time>
      </trkpt>
      <trkpt lat="44.10679" lon="6.68987">
        <ele>2286.3999023438</ele>
        <time>2021-08-21T11:43:33.000Z</time>
      </trkpt>
      <trkpt lat="44.10682" lon="6.68981">
        <ele>2286.8000488281</ele>
        <time>2021-08-21T11:43:36.000Z</time>
      </trkpt>
      <trkpt lat="44.10689" lon="6.68972">
        <ele>2287.3999023438</ele>
        <time>2021-08-21T11:43:42.000Z</time>
      </trkpt>
      <trkpt lat="44.1069" lon="6.68971">
        <ele>2287.6000976562</ele>
        <time>2021-08-21T11:43:43.000Z</time>
      </trkpt>
      <trkpt lat="44.10696" lon="6.68965">
        <ele>2288</ele>
        <time>2021-08-21T11:43:48.000Z</time>
      </trkpt>
      <trkpt lat="44.10697" lon="6.68965">
        <ele>2288</ele>
        <time>2021-08-21T11:43:49.000Z</time>
      </trkpt>
      <trkpt lat="44.10702" lon="6.68969">
        <ele>2288.3999023438</ele>
        <time>2021-08-21T11:43:53.000Z</time>
      </trkpt>
      <trkpt lat="44.10704" lon="6.68968">
        <ele>2288.3999023438</ele>
        <time>2021-08-21T11:43:54.000Z</time>
      </trkpt>
      <trkpt lat="44.10705" lon="6.68968">
        <ele>2288.3999023438</ele>
        <time>2021-08-21T11:43:55.000Z</time>
      </trkpt>
      <trkpt lat="44.10706" lon="6.68966">
        <ele>2288.6000976562</ele>
        <time>2021-08-21T11:43:56.000Z</time>
      </trkpt>
      <trkpt lat="44.10707" lon="6.68958">
        <ele>2289.1999511719</ele>
        <time>2021-08-21T11:44:00.000Z</time>
      </trkpt>
      <trkpt lat="44.10706" lon="6.68954">
        <ele>2289.3999023438</ele>
        <time>2021-08-21T11:44:02.000Z</time>
      </trkpt>
      <trkpt lat="44.10707" lon="6.68943">
        <ele>2290.1999511719</ele>
        <time>2021-08-21T11:44:08.000Z</time>
      </trkpt>
      <trkpt lat="44.10707" lon="6.68935">
        <ele>2290.6000976562</ele>
        <time>2021-08-21T11:44:12.000Z</time>
      </trkpt>
      <trkpt lat="44.10707" lon="6.68927">
        <ele>2291</ele>
        <time>2021-08-21T11:44:17.000Z</time>
      </trkpt>
      <trkpt lat="44.10707" lon="6.68917">
        <ele>2291.6000976562</ele>
        <time>2021-08-21T11:44:22.000Z</time>
      </trkpt>
      <trkpt lat="44.10707" lon="6.68909">
        <ele>2292</ele>
        <time>2021-08-21T11:44:26.000Z</time>
      </trkpt>
      <trkpt lat="44.10707" lon="6.68895">
        <ele>2292.8000488281</ele>
        <time>2021-08-21T11:44:33.000Z</time>
      </trkpt>
      <trkpt lat="44.10707" lon="6.68891">
        <ele>2293</ele>
        <time>2021-08-21T11:44:35.000Z</time>
      </trkpt>
      <trkpt lat="44.10709" lon="6.68876">
        <ele>2293.8000488281</ele>
        <time>2021-08-21T11:44:43.000Z</time>
      </trkpt>
      <trkpt lat="44.10709" lon="6.68874">
        <ele>2294</ele>
        <time>2021-08-21T11:44:44.000Z</time>
      </trkpt>
      <trkpt lat="44.1071" lon="6.6886">
        <ele>2295</ele>
        <time>2021-08-21T11:44:51.000Z</time>
      </trkpt>
      <trkpt lat="44.10709" lon="6.68848">
        <ele>2296</ele>
        <time>2021-08-21T11:44:59.000Z</time>
      </trkpt>
      <trkpt lat="44.10708" lon="6.68845">
        <ele>2296.6000976562</ele>
        <time>2021-08-21T11:45:04.000Z</time>
      </trkpt>
      <trkpt lat="44.10706" lon="6.68839">
        <ele>2297.1999511719</ele>
        <time>2021-08-21T11:45:10.000Z</time>
      </trkpt>
      <trkpt lat="44.10706" lon="6.68838">
        <ele>2297.3999023438</ele>
        <time>2021-08-21T11:45:11.000Z</time>
      </trkpt>
      <trkpt lat="44.10702" lon="6.68832">
        <ele>2298.3999023438</ele>
        <time>2021-08-21T11:45:19.000Z</time>
      </trkpt>
      <trkpt lat="44.10702" lon="6.68832">
        <ele>2298.3999023438</ele>
        <time>2021-08-21T11:45:20.000Z</time>
      </trkpt>
      <trkpt lat="44.10699" lon="6.68828">
        <ele>2299.3999023438</ele>
        <time>2021-08-21T11:45:26.000Z</time>
      </trkpt>
      <trkpt lat="44.10698" lon="6.68826">
        <ele>2300.3999023438</ele>
        <time>2021-08-21T11:45:29.000Z</time>
      </trkpt>
      <trkpt lat="44.10698" lon="6.68825">
        <ele>2300.6000976562</ele>
        <time>2021-08-21T11:45:30.000Z</time>
      </trkpt>
      <trkpt lat="44.10696" lon="6.68822">
        <ele>2301.6000976562</ele>
        <time>2021-08-21T11:45:35.000Z</time>
      </trkpt>
      <trkpt lat="44.10695" lon="6.6882">
        <ele>2301.8000488281</ele>
        <time>2021-08-21T11:45:36.000Z</time>
      </trkpt>
      <trkpt lat="44.10696" lon="6.68814">
        <ele>2302.8000488281</ele>
        <time>2021-08-21T11:45:42.000Z</time>
      </trkpt>
      <trkpt lat="44.10694" lon="6.68806">
        <ele>2304</ele>
        <time>2021-08-21T11:45:49.000Z</time>
      </trkpt>
      <trkpt lat="44.10693" lon="6.68803">
        <ele>2304.3999023438</ele>
        <time>2021-08-21T11:45:51.000Z</time>
      </trkpt>
      <trkpt lat="44.10692" lon="6.68799">
        <ele>2305.1999511719</ele>
        <time>2021-08-21T11:45:56.000Z</time>
      </trkpt>
      <trkpt lat="44.10689" lon="6.68795">
        <ele>2306.3999023438</ele>
        <time>2021-08-21T11:46:01.000Z</time>
      </trkpt>
      <trkpt lat="44.10689" lon="6.68793">
        <ele>2307.1999511719</ele>
        <time>2021-08-21T11:46:05.000Z</time>
      </trkpt>
      <trkpt lat="44.10687" lon="6.6879">
        <ele>2307.3999023438</ele>
        <time>2021-08-21T11:46:10.000Z</time>
      </trkpt>
      <trkpt lat="44.10686" lon="6.6879">
        <ele>2307.3999023438</ele>
        <time>2021-08-21T11:46:11.000Z</time>
      </trkpt>
      <trkpt lat="44.10682" lon="6.68785">
        <ele>2307.8000488281</ele>
        <time>2021-08-21T11:46:14.000Z</time>
      </trkpt>
      <trkpt lat="44.10679" lon="6.68778">
        <ele>2308.3999023438</ele>
        <time>2021-08-21T11:46:18.000Z</time>
      </trkpt>
      <trkpt lat="44.10678" lon="6.68776">
        <ele>2308.6000976562</ele>
        <time>2021-08-21T11:46:19.000Z</time>
      </trkpt>
      <trkpt lat="44.10667" lon="6.68764">
        <ele>2309.6000976562</ele>
        <time>2021-08-21T11:46:28.000Z</time>
      </trkpt>
      <trkpt lat="44.10665" lon="6.68761">
        <ele>2309.6000976562</ele>
        <time>2021-08-21T11:46:30.000Z</time>
      </trkpt>
      <trkpt lat="44.10653" lon="6.68748">
        <ele>2310.6000976562</ele>
        <time>2021-08-21T11:46:39.000Z</time>
      </trkpt>
      <trkpt lat="44.10648" lon="6.68742">
        <ele>2310.8000488281</ele>
        <time>2021-08-21T11:46:43.000Z</time>
      </trkpt>
      <trkpt lat="44.10642" lon="6.68731">
        <ele>2311.1999511719</ele>
        <time>2021-08-21T11:46:48.000Z</time>
      </trkpt>
      <trkpt lat="44.10639" lon="6.68715">
        <ele>2311.8000488281</ele>
        <time>2021-08-21T11:46:55.000Z</time>
      </trkpt>
      <trkpt lat="44.1064" lon="6.68713">
        <ele>2312.1999511719</ele>
        <time>2021-08-21T11:46:56.000Z</time>
      </trkpt>
      <trkpt lat="44.10645" lon="6.68706">
        <ele>2312.8000488281</ele>
        <time>2021-08-21T11:47:00.000Z</time>
      </trkpt>
      <trkpt lat="44.10648" lon="6.68702">
        <ele>2313</ele>
        <time>2021-08-21T11:47:03.000Z</time>
      </trkpt>
      <trkpt lat="44.10651" lon="6.68695">
        <ele>2313.3999023438</ele>
        <time>2021-08-21T11:47:07.000Z</time>
      </trkpt>
      <trkpt lat="44.10647" lon="6.68696">
        <ele>2313.8000488281</ele>
        <time>2021-08-21T11:47:09.000Z</time>
      </trkpt>
      <trkpt lat="44.10645" lon="6.68696">
        <ele>2314</ele>
        <time>2021-08-21T11:47:10.000Z</time>
      </trkpt>
      <trkpt lat="44.10644" lon="6.68696">
        <ele>2314</ele>
        <time>2021-08-21T11:47:11.000Z</time>
      </trkpt>
      <trkpt lat="44.10635" lon="6.68699">
        <ele>2315</ele>
        <time>2021-08-21T11:47:17.000Z</time>
      </trkpt>
      <trkpt lat="44.10626" lon="6.68702">
        <ele>2316</ele>
        <time>2021-08-21T11:47:24.000Z</time>
      </trkpt>
      <trkpt lat="44.10625" lon="6.68701">
        <ele>2316</ele>
        <time>2021-08-21T11:47:25.000Z</time>
      </trkpt>
      <trkpt lat="44.10624" lon="6.687">
        <ele>2316.1999511719</ele>
        <time>2021-08-21T11:47:26.000Z</time>
      </trkpt>
      <trkpt lat="44.10626" lon="6.68694">
        <ele>2316.6000976562</ele>
        <time>2021-08-21T11:47:29.000Z</time>
      </trkpt>
      <trkpt lat="44.10627" lon="6.6869">
        <ele>2317</ele>
        <time>2021-08-21T11:47:31.000Z</time>
      </trkpt>
      <trkpt lat="44.10628" lon="6.68688">
        <ele>2317.1999511719</ele>
        <time>2021-08-21T11:47:32.000Z</time>
      </trkpt>
      <trkpt lat="44.10632" lon="6.68675">
        <ele>2318</ele>
        <time>2021-08-21T11:47:38.000Z</time>
      </trkpt>
      <trkpt lat="44.10635" lon="6.68671">
        <ele>2318.1999511719</ele>
        <time>2021-08-21T11:47:40.000Z</time>
      </trkpt>
      <trkpt lat="44.10641" lon="6.68662">
        <ele>2318.8000488281</ele>
        <time>2021-08-21T11:47:45.000Z</time>
      </trkpt>
      <trkpt lat="44.10644" lon="6.68659">
        <ele>2319.1999511719</ele>
        <time>2021-08-21T11:47:47.000Z</time>
      </trkpt>
      <trkpt lat="44.10654" lon="6.68649">
        <ele>2320</ele>
        <time>2021-08-21T11:47:54.000Z</time>
      </trkpt>
      <trkpt lat="44.10655" lon="6.68648">
        <ele>2320.1999511719</ele>
        <time>2021-08-21T11:47:55.000Z</time>
      </trkpt>
      <trkpt lat="44.10665" lon="6.68643">
        <ele>2321</ele>
        <time>2021-08-21T11:48:02.000Z</time>
      </trkpt>
      <trkpt lat="44.10668" lon="6.68643">
        <ele>2321.1999511719</ele>
        <time>2021-08-21T11:48:04.000Z</time>
      </trkpt>
      <trkpt lat="44.10677" lon="6.6864">
        <ele>2321.6000976562</ele>
        <time>2021-08-21T11:48:10.000Z</time>
      </trkpt>
      <trkpt lat="44.10686" lon="6.68632">
        <ele>2322.3999023438</ele>
        <time>2021-08-21T11:48:17.000Z</time>
      </trkpt>
      <trkpt lat="44.10689" lon="6.68629">
        <ele>2322.6000976562</ele>
        <time>2021-08-21T11:48:19.000Z</time>
      </trkpt>
      <trkpt lat="44.10701" lon="6.68615">
        <ele>2323.1999511719</ele>
        <time>2021-08-21T11:48:29.000Z</time>
      </trkpt>
      <trkpt lat="44.10703" lon="6.68611">
        <ele>2323.3999023438</ele>
        <time>2021-08-21T11:48:31.000Z</time>
      </trkpt>
      <trkpt lat="44.10705" lon="6.68594">
        <ele>2324</ele>
        <time>2021-08-21T11:48:39.000Z</time>
      </trkpt>
      <trkpt lat="44.10703" lon="6.68583">
        <ele>2324.3999023438</ele>
        <time>2021-08-21T11:48:44.000Z</time>
      </trkpt>
      <trkpt lat="44.107" lon="6.68579">
        <ele>2324.8000488281</ele>
        <time>2021-08-21T11:48:47.000Z</time>
      </trkpt>
      <trkpt lat="44.10692" lon="6.68578">
        <ele>2325.3999023438</ele>
        <time>2021-08-21T11:48:52.000Z</time>
      </trkpt>
      <trkpt lat="44.10689" lon="6.68578">
        <ele>2325.6000976562</ele>
        <time>2021-08-21T11:48:54.000Z</time>
      </trkpt>
      <trkpt lat="44.10681" lon="6.68572">
        <ele>2326.1999511719</ele>
        <time>2021-08-21T11:49:00.000Z</time>
      </trkpt>
      <trkpt lat="44.10681" lon="6.68567">
        <ele>2326.3999023438</ele>
        <time>2021-08-21T11:49:02.000Z</time>
      </trkpt>
      <trkpt lat="44.10678" lon="6.6856">
        <ele>2326.8000488281</ele>
        <time>2021-08-21T11:49:06.000Z</time>
      </trkpt>
      <trkpt lat="44.10671" lon="6.68549">
        <ele>2327.6000976562</ele>
        <time>2021-08-21T11:49:13.000Z</time>
      </trkpt>
      <trkpt lat="44.1067" lon="6.68547">
        <ele>2327.6000976562</ele>
        <time>2021-08-21T11:49:14.000Z</time>
      </trkpt>
      <trkpt lat="44.10665" lon="6.68535">
        <ele>2328.3999023438</ele>
        <time>2021-08-21T11:49:21.000Z</time>
      </trkpt>
      <trkpt lat="44.10663" lon="6.68533">
        <ele>2328.6000976562</ele>
        <time>2021-08-21T11:49:22.000Z</time>
      </trkpt>
      <trkpt lat="44.10662" lon="6.68521">
        <ele>2328.8000488281</ele>
        <time>2021-08-21T11:49:28.000Z</time>
      </trkpt>
      <trkpt lat="44.10663" lon="6.68512">
        <ele>2329.6000976562</ele>
        <time>2021-08-21T11:49:32.000Z</time>
      </trkpt>
      <trkpt lat="44.10663" lon="6.68511">
        <ele>2329.6000976562</ele>
        <time>2021-08-21T11:49:33.000Z</time>
      </trkpt>
      <trkpt lat="44.10661" lon="6.68501">
        <ele>2330.6000976562</ele>
        <time>2021-08-21T11:49:39.000Z</time>
      </trkpt>
      <trkpt lat="44.1066" lon="6.685">
        <ele>2330.8000488281</ele>
        <time>2021-08-21T11:49:40.000Z</time>
      </trkpt>
      <trkpt lat="44.10654" lon="6.68488">
        <ele>2331.3999023438</ele>
        <time>2021-08-21T11:49:48.000Z</time>
      </trkpt>
      <trkpt lat="44.10648" lon="6.68476">
        <ele>2331.8000488281</ele>
        <time>2021-08-21T11:49:55.000Z</time>
      </trkpt>
      <trkpt lat="44.10647" lon="6.68475">
        <ele>2331.8000488281</ele>
        <time>2021-08-21T11:49:56.000Z</time>
      </trkpt>
      <trkpt lat="44.10641" lon="6.68454">
        <ele>2332.6000976562</ele>
        <time>2021-08-21T11:50:07.000Z</time>
      </trkpt>
      <trkpt lat="44.10641" lon="6.68449">
        <ele>2332.8000488281</ele>
        <time>2021-08-21T11:50:09.000Z</time>
      </trkpt>
      <trkpt lat="44.1064" lon="6.6844">
        <ele>2333.8000488281</ele>
        <time>2021-08-21T11:50:14.000Z</time>
      </trkpt>
      <trkpt lat="44.10637" lon="6.68432">
        <ele>2335</ele>
        <time>2021-08-21T11:50:20.000Z</time>
      </trkpt>
      <trkpt lat="44.10634" lon="6.68429">
        <ele>2335.1999511719</ele>
        <time>2021-08-21T11:50:23.000Z</time>
      </trkpt>
      <trkpt lat="44.10631" lon="6.68423">
        <ele>2336</ele>
        <time>2021-08-21T11:50:28.000Z</time>
      </trkpt>
      <trkpt lat="44.10631" lon="6.6842">
        <ele>2336.1999511719</ele>
        <time>2021-08-21T11:50:30.000Z</time>
      </trkpt>
      <trkpt lat="44.10628" lon="6.68407">
        <ele>2337.1999511719</ele>
        <time>2021-08-21T11:50:38.000Z</time>
      </trkpt>
      <trkpt lat="44.10628" lon="6.68407">
        <ele>2337.3999023438</ele>
        <time>2021-08-21T11:50:39.000Z</time>
      </trkpt>
      <trkpt lat="44.10622" lon="6.68396">
        <ele>2338.1999511719</ele>
        <time>2021-08-21T11:50:48.000Z</time>
      </trkpt>
      <trkpt lat="44.10621" lon="6.68386">
        <ele>2339.3999023438</ele>
        <time>2021-08-21T11:50:54.000Z</time>
      </trkpt>
      <trkpt lat="44.10622" lon="6.68384">
        <ele>2339.8000488281</ele>
        <time>2021-08-21T11:50:56.000Z</time>
      </trkpt>
      <trkpt lat="44.10625" lon="6.68372">
        <ele>2340.3999023438</ele>
        <time>2021-08-21T11:51:04.000Z</time>
      </trkpt>
      <trkpt lat="44.10626" lon="6.68371">
        <ele>2340.3999023438</ele>
        <time>2021-08-21T11:51:05.000Z</time>
      </trkpt>
      <trkpt lat="44.10625" lon="6.6836">
        <ele>2341.3999023438</ele>
        <time>2021-08-21T11:51:12.000Z</time>
      </trkpt>
      <trkpt lat="44.10624" lon="6.68358">
        <ele>2341.6000976562</ele>
        <time>2021-08-21T11:51:13.000Z</time>
      </trkpt>
      <trkpt lat="44.10619" lon="6.68346">
        <ele>2342</ele>
        <time>2021-08-21T11:51:22.000Z</time>
      </trkpt>
      <trkpt lat="44.10618" lon="6.68337">
        <ele>2342.6000976562</ele>
        <time>2021-08-21T11:51:28.000Z</time>
      </trkpt>
      <trkpt lat="44.10615" lon="6.68328">
        <ele>2343.3999023438</ele>
        <time>2021-08-21T11:51:34.000Z</time>
      </trkpt>
      <trkpt lat="44.10614" lon="6.68325">
        <ele>2343.8000488281</ele>
        <time>2021-08-21T11:51:36.000Z</time>
      </trkpt>
      <trkpt lat="44.10608" lon="6.68318">
        <ele>2344.8000488281</ele>
        <time>2021-08-21T11:51:43.000Z</time>
      </trkpt>
      <trkpt lat="44.10606" lon="6.68318">
        <ele>2344.8000488281</ele>
        <time>2021-08-21T11:51:44.000Z</time>
      </trkpt>
      <trkpt lat="44.10605" lon="6.68315">
        <ele>2345.6000976562</ele>
        <time>2021-08-21T11:51:49.000Z</time>
      </trkpt>
      <trkpt lat="44.10604" lon="6.68311">
        <ele>2345.8000488281</ele>
        <time>2021-08-21T11:51:56.000Z</time>
      </trkpt>
      <trkpt lat="44.10603" lon="6.6831">
        <ele>2346</ele>
        <time>2021-08-21T11:51:57.000Z</time>
      </trkpt>
      <trkpt lat="44.10602" lon="6.68306">
        <ele>2346.1999511719</ele>
        <time>2021-08-21T11:52:02.000Z</time>
      </trkpt>
      <trkpt lat="44.10599" lon="6.68303">
        <ele>2347</ele>
        <time>2021-08-21T11:52:07.000Z</time>
      </trkpt>
      <trkpt lat="44.10598" lon="6.68301">
        <ele>2347.1999511719</ele>
        <time>2021-08-21T11:52:09.000Z</time>
      </trkpt>
      <trkpt lat="44.10595" lon="6.68294">
        <ele>2347.8000488281</ele>
        <time>2021-08-21T11:52:16.000Z</time>
      </trkpt>
      <trkpt lat="44.10594" lon="6.68292">
        <ele>2348</ele>
        <time>2021-08-21T11:52:17.000Z</time>
      </trkpt>
      <trkpt lat="44.10593" lon="6.68289">
        <ele>2348.3999023438</ele>
        <time>2021-08-21T11:52:21.000Z</time>
      </trkpt>
      <trkpt lat="44.10591" lon="6.68286">
        <ele>2349</ele>
        <time>2021-08-21T11:52:26.000Z</time>
      </trkpt>
      <trkpt lat="44.10589" lon="6.68284">
        <ele>2349.3999023438</ele>
        <time>2021-08-21T11:52:28.000Z</time>
      </trkpt>
      <trkpt lat="44.10585" lon="6.6828">
        <ele>2349.1999511719</ele>
        <time>2021-08-21T11:52:34.000Z</time>
      </trkpt>
      <trkpt lat="44.10582" lon="6.68278">
        <ele>2350.1999511719</ele>
        <time>2021-08-21T11:52:38.000Z</time>
      </trkpt>
      <trkpt lat="44.10579" lon="6.68276">
        <ele>2350.6000976562</ele>
        <time>2021-08-21T11:52:42.000Z</time>
      </trkpt>
      <trkpt lat="44.10574" lon="6.68272">
        <ele>2350.8000488281</ele>
        <time>2021-08-21T11:52:50.000Z</time>
      </trkpt>
      <trkpt lat="44.10572" lon="6.68271">
        <ele>2351.1999511719</ele>
        <time>2021-08-21T11:52:52.000Z</time>
      </trkpt>
      <trkpt lat="44.1057" lon="6.68267">
        <ele>2352.1999511719</ele>
        <time>2021-08-21T11:52:58.000Z</time>
      </trkpt>
      <trkpt lat="44.1057" lon="6.68267">
        <ele>2352.3999023438</ele>
        <time>2021-08-21T11:53:00.000Z</time>
      </trkpt>
      <trkpt lat="44.10575" lon="6.68266">
        <ele>2353.1999511719</ele>
        <time>2021-08-21T11:53:04.000Z</time>
      </trkpt>
      <trkpt lat="44.10575" lon="6.68265">
        <ele>2353.3999023438</ele>
        <time>2021-08-21T11:53:05.000Z</time>
      </trkpt>
      <trkpt lat="44.10581" lon="6.68263">
        <ele>2354.1999511719</ele>
        <time>2021-08-21T11:53:12.000Z</time>
      </trkpt>
      <trkpt lat="44.10586" lon="6.68264">
        <ele>2354.6000976562</ele>
        <time>2021-08-21T11:53:18.000Z</time>
      </trkpt>
      <trkpt lat="44.10587" lon="6.68264">
        <ele>2354.8000488281</ele>
        <time>2021-08-21T11:53:19.000Z</time>
      </trkpt>
      <trkpt lat="44.10592" lon="6.68266">
        <ele>2355</ele>
        <time>2021-08-21T11:53:25.000Z</time>
      </trkpt>
      <trkpt lat="44.10597" lon="6.68268">
        <ele>2355.8000488281</ele>
        <time>2021-08-21T11:53:31.000Z</time>
      </trkpt>
      <trkpt lat="44.10599" lon="6.68268">
        <ele>2356</ele>
        <time>2021-08-21T11:53:33.000Z</time>
      </trkpt>
      <trkpt lat="44.10607" lon="6.6827">
        <ele>2356.1999511719</ele>
        <time>2021-08-21T11:53:41.000Z</time>
      </trkpt>
      <trkpt lat="44.10608" lon="6.68269">
        <ele>2356.1999511719</ele>
        <time>2021-08-21T11:53:42.000Z</time>
      </trkpt>
      <trkpt lat="44.10618" lon="6.68267">
        <ele>2356.3999023438</ele>
        <time>2021-08-21T11:53:51.000Z</time>
      </trkpt>
      <trkpt lat="44.10626" lon="6.68269">
        <ele>2356.6000976562</ele>
        <time>2021-08-21T11:53:59.000Z</time>
      </trkpt>
      <trkpt lat="44.10628" lon="6.68269">
        <ele>2356.8000488281</ele>
        <time>2021-08-21T11:54:00.000Z</time>
      </trkpt>
      <trkpt lat="44.10632" lon="6.68267">
        <ele>2357.1999511719</ele>
        <time>2021-08-21T11:54:05.000Z</time>
      </trkpt>
      <trkpt lat="44.10633" lon="6.68264">
        <ele>2357.1999511719</ele>
        <time>2021-08-21T11:54:07.000Z</time>
      </trkpt>
      <trkpt lat="44.10635" lon="6.68262">
        <ele>2357.6000976562</ele>
        <time>2021-08-21T11:54:10.000Z</time>
      </trkpt>
      <trkpt lat="44.10637" lon="6.68261">
        <ele>2357.8000488281</ele>
        <time>2021-08-21T11:54:13.000Z</time>
      </trkpt>
      <trkpt lat="44.10639" lon="6.68259">
        <ele>2358</ele>
        <time>2021-08-21T11:54:15.000Z</time>
      </trkpt>
      <trkpt lat="44.10642" lon="6.68255">
        <ele>2359</ele>
        <time>2021-08-21T11:54:20.000Z</time>
      </trkpt>
      <trkpt lat="44.10643" lon="6.68255">
        <ele>2359.1999511719</ele>
        <time>2021-08-21T11:54:21.000Z</time>
      </trkpt>
      <trkpt lat="44.10645" lon="6.68252">
        <ele>2359.1999511719</ele>
        <time>2021-08-21T11:54:28.000Z</time>
      </trkpt>
      <trkpt lat="44.10645" lon="6.6825">
        <ele>2359.3999023438</ele>
        <time>2021-08-21T11:54:30.000Z</time>
      </trkpt>
      <trkpt lat="44.10648" lon="6.68246">
        <ele>2359.3999023438</ele>
        <time>2021-08-21T11:54:33.000Z</time>
      </trkpt>
      <trkpt lat="44.10651" lon="6.68242">
        <ele>2359.3999023438</ele>
        <time>2021-08-21T11:54:36.000Z</time>
      </trkpt>
      <trkpt lat="44.10656" lon="6.68235">
        <ele>2359.3999023438</ele>
        <time>2021-08-21T11:54:41.000Z</time>
      </trkpt>
      <trkpt lat="44.10665" lon="6.68229">
        <ele>2360</ele>
        <time>2021-08-21T11:54:48.000Z</time>
      </trkpt>
      <trkpt lat="44.10671" lon="6.68228">
        <ele>2361.1999511719</ele>
        <time>2021-08-21T11:54:54.000Z</time>
      </trkpt>
      <trkpt lat="44.10673" lon="6.68226">
        <ele>2361.3999023438</ele>
        <time>2021-08-21T11:54:56.000Z</time>
      </trkpt>
      <trkpt lat="44.10675" lon="6.68223">
        <ele>2362.1999511719</ele>
        <time>2021-08-21T11:54:59.000Z</time>
      </trkpt>
      <trkpt lat="44.10679" lon="6.68218">
        <ele>2363</ele>
        <time>2021-08-21T11:55:04.000Z</time>
      </trkpt>
      <trkpt lat="44.1068" lon="6.68212">
        <ele>2363.3999023438</ele>
        <time>2021-08-21T11:55:08.000Z</time>
      </trkpt>
      <trkpt lat="44.10681" lon="6.6821">
        <ele>2363.3999023438</ele>
        <time>2021-08-21T11:55:09.000Z</time>
      </trkpt>
      <trkpt lat="44.10688" lon="6.68198">
        <ele>2364</ele>
        <time>2021-08-21T11:55:16.000Z</time>
      </trkpt>
      <trkpt lat="44.10694" lon="6.68188">
        <ele>2364.3999023438</ele>
        <time>2021-08-21T11:55:22.000Z</time>
      </trkpt>
      <trkpt lat="44.10696" lon="6.68185">
        <ele>2364.6000976562</ele>
        <time>2021-08-21T11:55:24.000Z</time>
      </trkpt>
      <trkpt lat="44.107" lon="6.68179">
        <ele>2365.3999023438</ele>
        <time>2021-08-21T11:55:30.000Z</time>
      </trkpt>
      <trkpt lat="44.10703" lon="6.68175">
        <ele>2365.8000488281</ele>
        <time>2021-08-21T11:55:33.000Z</time>
      </trkpt>
      <trkpt lat="44.10715" lon="6.68162">
        <ele>2366.1999511719</ele>
        <time>2021-08-21T11:55:43.000Z</time>
      </trkpt>
      <trkpt lat="44.1072" lon="6.68156">
        <ele>2366.6000976562</ele>
        <time>2021-08-21T11:55:47.000Z</time>
      </trkpt>
      <trkpt lat="44.10725" lon="6.68149">
        <ele>2367.3999023438</ele>
        <time>2021-08-21T11:55:51.000Z</time>
      </trkpt>
      <trkpt lat="44.10727" lon="6.68147">
        <ele>2367.6000976562</ele>
        <time>2021-08-21T11:55:53.000Z</time>
      </trkpt>
      <trkpt lat="44.10735" lon="6.68144">
        <ele>2368.3999023438</ele>
        <time>2021-08-21T11:55:59.000Z</time>
      </trkpt>
      <trkpt lat="44.10738" lon="6.68144">
        <ele>2368.8000488281</ele>
        <time>2021-08-21T11:56:01.000Z</time>
      </trkpt>
      <trkpt lat="44.10744" lon="6.68138">
        <ele>2369.6000976562</ele>
        <time>2021-08-21T11:56:06.000Z</time>
      </trkpt>
      <trkpt lat="44.10744" lon="6.68136">
        <ele>2369.8000488281</ele>
        <time>2021-08-21T11:56:07.000Z</time>
      </trkpt>
      <trkpt lat="44.10751" lon="6.68128">
        <ele>2370.1999511719</ele>
        <time>2021-08-21T11:56:13.000Z</time>
      </trkpt>
      <trkpt lat="44.10757" lon="6.68112">
        <ele>2370.6000976562</ele>
        <time>2021-08-21T11:56:23.000Z</time>
      </trkpt>
      <trkpt lat="44.10757" lon="6.68107">
        <ele>2370.8000488281</ele>
        <time>2021-08-21T11:56:25.000Z</time>
      </trkpt>
      <trkpt lat="44.1076" lon="6.68098">
        <ele>2371.1999511719</ele>
        <time>2021-08-21T11:56:30.000Z</time>
      </trkpt>
      <trkpt lat="44.10765" lon="6.68083">
        <ele>2371.8000488281</ele>
        <time>2021-08-21T11:56:38.000Z</time>
      </trkpt>
      <trkpt lat="44.10765" lon="6.68081">
        <ele>2371.8000488281</ele>
        <time>2021-08-21T11:56:39.000Z</time>
      </trkpt>
      <trkpt lat="44.10769" lon="6.68067">
        <ele>2372.3999023438</ele>
        <time>2021-08-21T11:56:46.000Z</time>
      </trkpt>
      <trkpt lat="44.10773" lon="6.68059">
        <ele>2373</ele>
        <time>2021-08-21T11:56:51.000Z</time>
      </trkpt>
      <trkpt lat="44.10775" lon="6.68056">
        <ele>2373</ele>
        <time>2021-08-21T11:56:53.000Z</time>
      </trkpt>
      <trkpt lat="44.10781" lon="6.68052">
        <ele>2373.6000976562</ele>
        <time>2021-08-21T11:56:59.000Z</time>
      </trkpt>
      <trkpt lat="44.10783" lon="6.68053">
        <ele>2373.6000976562</ele>
        <time>2021-08-21T11:57:00.000Z</time>
      </trkpt>
      <trkpt lat="44.10787" lon="6.68053">
        <ele>2374</ele>
        <time>2021-08-21T11:57:03.000Z</time>
      </trkpt>
      <trkpt lat="44.10789" lon="6.68054">
        <ele>2374</ele>
        <time>2021-08-21T11:57:04.000Z</time>
      </trkpt>
      <trkpt lat="44.10792" lon="6.68058">
        <ele>2374.1999511719</ele>
        <time>2021-08-21T11:57:07.000Z</time>
      </trkpt>
      <trkpt lat="44.10798" lon="6.68058">
        <ele>2375</ele>
        <time>2021-08-21T11:57:13.000Z</time>
      </trkpt>
      <trkpt lat="44.10808" lon="6.68058">
        <ele>2376</ele>
        <time>2021-08-21T11:57:21.000Z</time>
      </trkpt>
      <trkpt lat="44.10809" lon="6.68058">
        <ele>2376.1999511719</ele>
        <time>2021-08-21T11:57:22.000Z</time>
      </trkpt>
      <trkpt lat="44.10818" lon="6.68059">
        <ele>2377</ele>
        <time>2021-08-21T11:57:29.000Z</time>
      </trkpt>
      <trkpt lat="44.10819" lon="6.68059">
        <ele>2377.1999511719</ele>
        <time>2021-08-21T11:57:30.000Z</time>
      </trkpt>
      <trkpt lat="44.10828" lon="6.68063">
        <ele>2378.1999511719</ele>
        <time>2021-08-21T11:57:38.000Z</time>
      </trkpt>
      <trkpt lat="44.10831" lon="6.68065">
        <ele>2378.6000976562</ele>
        <time>2021-08-21T11:57:41.000Z</time>
      </trkpt>
      <trkpt lat="44.10835" lon="6.68066">
        <ele>2379.1999511719</ele>
        <time>2021-08-21T11:57:45.000Z</time>
      </trkpt>
      <trkpt lat="44.10835" lon="6.68067">
        <ele>2379.3999023438</ele>
        <time>2021-08-21T11:57:46.000Z</time>
      </trkpt>
      <trkpt lat="44.10842" lon="6.68071">
        <ele>2380.3999023438</ele>
        <time>2021-08-21T11:57:53.000Z</time>
      </trkpt>
      <trkpt lat="44.1085" lon="6.68064">
        <ele>2381.3999023438</ele>
        <time>2021-08-21T11:58:01.000Z</time>
      </trkpt>
      <trkpt lat="44.10851" lon="6.68063">
        <ele>2381.6000976562</ele>
        <time>2021-08-21T11:58:02.000Z</time>
      </trkpt>
      <trkpt lat="44.10859" lon="6.68056">
        <ele>2382.3999023438</ele>
        <time>2021-08-21T11:58:09.000Z</time>
      </trkpt>
      <trkpt lat="44.10862" lon="6.68054">
        <ele>2382.6000976562</ele>
        <time>2021-08-21T11:58:12.000Z</time>
      </trkpt>
      <trkpt lat="44.10868" lon="6.68048">
        <ele>2383.3999023438</ele>
        <time>2021-08-21T11:58:18.000Z</time>
      </trkpt>
      <trkpt lat="44.10871" lon="6.68046">
        <ele>2383.6000976562</ele>
        <time>2021-08-21T11:58:21.000Z</time>
      </trkpt>
      <trkpt lat="44.10876" lon="6.68043">
        <ele>2384.3999023438</ele>
        <time>2021-08-21T11:58:26.000Z</time>
      </trkpt>
      <trkpt lat="44.10883" lon="6.68045">
        <ele>2384.8000488281</ele>
        <time>2021-08-21T11:58:31.000Z</time>
      </trkpt>
      <trkpt lat="44.10886" lon="6.68046">
        <ele>2385</ele>
        <time>2021-08-21T11:58:33.000Z</time>
      </trkpt>
      <trkpt lat="44.10887" lon="6.68045">
        <ele>2385</ele>
        <time>2021-08-21T11:58:34.000Z</time>
      </trkpt>
      <trkpt lat="44.10887" lon="6.68045">
        <ele>2385.3999023438</ele>
        <time>2021-08-21T11:58:37.000Z</time>
      </trkpt>
      <trkpt lat="44.10888" lon="6.68045">
        <ele>2386</ele>
        <time>2021-08-21T11:58:39.000Z</time>
      </trkpt>
      <trkpt lat="44.10887" lon="6.6804">
        <ele>2386</ele>
        <time>2021-08-21T11:58:44.000Z</time>
      </trkpt>
      <trkpt lat="44.10884" lon="6.68031">
        <ele>2386.8000488281</ele>
        <time>2021-08-21T11:58:53.000Z</time>
      </trkpt>
      <trkpt lat="44.10884" lon="6.6803">
        <ele>2387</ele>
        <time>2021-08-21T11:58:54.000Z</time>
      </trkpt>
      <trkpt lat="44.10882" lon="6.68025">
        <ele>2388</ele>
        <time>2021-08-21T11:59:00.000Z</time>
      </trkpt>
      <trkpt lat="44.10881" lon="6.68024">
        <ele>2388.1999511719</ele>
        <time>2021-08-21T11:59:01.000Z</time>
      </trkpt>
      <trkpt lat="44.10878" lon="6.6802">
        <ele>2389</ele>
        <time>2021-08-21T11:59:06.000Z</time>
      </trkpt>
      <trkpt lat="44.10877" lon="6.68018">
        <ele>2389.6000976562</ele>
        <time>2021-08-21T11:59:09.000Z</time>
      </trkpt>
      <trkpt lat="44.10875" lon="6.68016">
        <ele>2390</ele>
        <time>2021-08-21T11:59:12.000Z</time>
      </trkpt>
      <trkpt lat="44.1087" lon="6.68011">
        <ele>2391</ele>
        <time>2021-08-21T11:59:19.000Z</time>
      </trkpt>
      <trkpt lat="44.1087" lon="6.6801">
        <ele>2391.1999511719</ele>
        <time>2021-08-21T11:59:20.000Z</time>
      </trkpt>
      <trkpt lat="44.10869" lon="6.68009">
        <ele>2392.1999511719</ele>
        <time>2021-08-21T11:59:25.000Z</time>
      </trkpt>
      <trkpt lat="44.10869" lon="6.68009">
        <ele>2392.1999511719</ele>
        <time>2021-08-21T11:59:26.000Z</time>
      </trkpt>
      <trkpt lat="44.10869" lon="6.68007">
        <ele>2392.1999511719</ele>
        <time>2021-08-21T11:59:31.000Z</time>
      </trkpt>
      <trkpt lat="44.10868" lon="6.68002">
        <ele>2393.1999511719</ele>
        <time>2021-08-21T11:59:38.000Z</time>
      </trkpt>
      <trkpt lat="44.10868" lon="6.68001">
        <ele>2393.6000976562</ele>
        <time>2021-08-21T11:59:40.000Z</time>
      </trkpt>
      <trkpt lat="44.10866" lon="6.67998">
        <ele>2394.3999023438</ele>
        <time>2021-08-21T11:59:44.000Z</time>
      </trkpt>
      <trkpt lat="44.10866" lon="6.67996">
        <ele>2395</ele>
        <time>2021-08-21T11:59:47.000Z</time>
      </trkpt>
      <trkpt lat="44.10867" lon="6.67993">
        <ele>2395.6000976562</ele>
        <time>2021-08-21T11:59:51.000Z</time>
      </trkpt>
      <trkpt lat="44.10867" lon="6.67989">
        <ele>2396.6000976562</ele>
        <time>2021-08-21T11:59:56.000Z</time>
      </trkpt>
      <trkpt lat="44.10867" lon="6.67987">
        <ele>2397.8000488281</ele>
        <time>2021-08-21T12:00:01.000Z</time>
      </trkpt>
      <trkpt lat="44.10867" lon="6.67985">
        <ele>2398.1999511719</ele>
        <time>2021-08-21T12:00:03.000Z</time>
      </trkpt>
      <trkpt lat="44.10867" lon="6.67982">
        <ele>2399</ele>
        <time>2021-08-21T12:00:08.000Z</time>
      </trkpt>
      <trkpt lat="44.10866" lon="6.67981">
        <ele>2399.3999023438</ele>
        <time>2021-08-21T12:00:10.000Z</time>
      </trkpt>
      <trkpt lat="44.10865" lon="6.6798">
        <ele>2400</ele>
        <time>2021-08-21T12:00:12.000Z</time>
      </trkpt>
      <trkpt lat="44.10864" lon="6.67977">
        <ele>2400.6000976562</ele>
        <time>2021-08-21T12:00:18.000Z</time>
      </trkpt>
      <trkpt lat="44.10864" lon="6.67976">
        <ele>2401.1999511719</ele>
        <time>2021-08-21T12:00:20.000Z</time>
      </trkpt>
      <trkpt lat="44.10862" lon="6.67974">
        <ele>2402.3999023438</ele>
        <time>2021-08-21T12:00:26.000Z</time>
      </trkpt>
      <trkpt lat="44.1086" lon="6.6797">
        <ele>2403.3999023438</ele>
        <time>2021-08-21T12:00:32.000Z</time>
      </trkpt>
      <trkpt lat="44.10858" lon="6.67969">
        <ele>2403.8000488281</ele>
        <time>2021-08-21T12:00:34.000Z</time>
      </trkpt>
      <trkpt lat="44.10859" lon="6.67966">
        <ele>2404.1999511719</ele>
        <time>2021-08-21T12:00:39.000Z</time>
      </trkpt>
      <trkpt lat="44.10862" lon="6.67965">
        <ele>2404.6000976562</ele>
        <time>2021-08-21T12:00:43.000Z</time>
      </trkpt>
      <trkpt lat="44.10865" lon="6.67965">
        <ele>2404.8000488281</ele>
        <time>2021-08-21T12:00:46.000Z</time>
      </trkpt>
      <trkpt lat="44.10869" lon="6.67964">
        <ele>2405.6000976562</ele>
        <time>2021-08-21T12:00:52.000Z</time>
      </trkpt>
      <trkpt lat="44.10872" lon="6.67963">
        <ele>2405.8000488281</ele>
        <time>2021-08-21T12:00:55.000Z</time>
      </trkpt>
      <trkpt lat="44.10876" lon="6.67963">
        <ele>2406.6000976562</ele>
        <time>2021-08-21T12:01:01.000Z</time>
      </trkpt>
      <trkpt lat="44.10877" lon="6.67962">
        <ele>2407</ele>
        <time>2021-08-21T12:01:03.000Z</time>
      </trkpt>
      <trkpt lat="44.10881" lon="6.67962">
        <ele>2407.8000488281</ele>
        <time>2021-08-21T12:01:08.000Z</time>
      </trkpt>
      <trkpt lat="44.10884" lon="6.67962">
        <ele>2408.1999511719</ele>
        <time>2021-08-21T12:01:11.000Z</time>
      </trkpt>
      <trkpt lat="44.10887" lon="6.67963">
        <ele>2408.8000488281</ele>
        <time>2021-08-21T12:01:15.000Z</time>
      </trkpt>
      <trkpt lat="44.10889" lon="6.67962">
        <ele>2409.1999511719</ele>
        <time>2021-08-21T12:01:18.000Z</time>
      </trkpt>
      <trkpt lat="44.10887" lon="6.6796">
        <ele>2409.6000976562</ele>
        <time>2021-08-21T12:01:24.000Z</time>
      </trkpt>
      <trkpt lat="44.10885" lon="6.67959">
        <ele>2410</ele>
        <time>2021-08-21T12:01:27.000Z</time>
      </trkpt>
      <trkpt lat="44.10883" lon="6.67956">
        <ele>2410.8000488281</ele>
        <time>2021-08-21T12:01:33.000Z</time>
      </trkpt>
      <trkpt lat="44.10882" lon="6.67954">
        <ele>2411</ele>
        <time>2021-08-21T12:01:35.000Z</time>
      </trkpt>
      <trkpt lat="44.10879" lon="6.6795">
        <ele>2412</ele>
        <time>2021-08-21T12:01:41.000Z</time>
      </trkpt>
      <trkpt lat="44.10878" lon="6.67949">
        <ele>2412.1999511719</ele>
        <time>2021-08-21T12:01:42.000Z</time>
      </trkpt>
      <trkpt lat="44.10874" lon="6.67946">
        <ele>2413</ele>
        <time>2021-08-21T12:01:48.000Z</time>
      </trkpt>
      <trkpt lat="44.10872" lon="6.67946">
        <ele>2413.1999511719</ele>
        <time>2021-08-21T12:01:50.000Z</time>
      </trkpt>
      <trkpt lat="44.10869" lon="6.67943">
        <ele>2414</ele>
        <time>2021-08-21T12:01:56.000Z</time>
      </trkpt>
      <trkpt lat="44.10867" lon="6.67941">
        <ele>2414.3999023438</ele>
        <time>2021-08-21T12:01:59.000Z</time>
      </trkpt>
      <trkpt lat="44.10864" lon="6.67938">
        <ele>2415.1999511719</ele>
        <time>2021-08-21T12:02:04.000Z</time>
      </trkpt>
      <trkpt lat="44.10865" lon="6.67936">
        <ele>2415.3999023438</ele>
        <time>2021-08-21T12:02:06.000Z</time>
      </trkpt>
      <trkpt lat="44.10865" lon="6.6793">
        <ele>2416.3999023438</ele>
        <time>2021-08-21T12:02:12.000Z</time>
      </trkpt>
      <trkpt lat="44.10865" lon="6.6793">
        <ele>2416.6000976562</ele>
        <time>2021-08-21T12:02:13.000Z</time>
      </trkpt>
      <trkpt lat="44.10863" lon="6.67927">
        <ele>2417.6000976562</ele>
        <time>2021-08-21T12:02:17.000Z</time>
      </trkpt>
      <trkpt lat="44.10862" lon="6.67925">
        <ele>2418.6000976562</ele>
        <time>2021-08-21T12:02:21.000Z</time>
      </trkpt>
      <trkpt lat="44.10861" lon="6.67924">
        <ele>2419</ele>
        <time>2021-08-21T12:02:22.000Z</time>
      </trkpt>
      <trkpt lat="44.10861" lon="6.67921">
        <ele>2420</ele>
        <time>2021-08-21T12:02:27.000Z</time>
      </trkpt>
      <trkpt lat="44.10861" lon="6.6792">
        <ele>2420.1999511719</ele>
        <time>2021-08-21T12:02:28.000Z</time>
      </trkpt>
      <trkpt lat="44.10861" lon="6.67916">
        <ele>2421</ele>
        <time>2021-08-21T12:02:32.000Z</time>
      </trkpt>
      <trkpt lat="44.10859" lon="6.67913">
        <ele>2421.8000488281</ele>
        <time>2021-08-21T12:02:36.000Z</time>
      </trkpt>
      <trkpt lat="44.10858" lon="6.67913">
        <ele>2422.1999511719</ele>
        <time>2021-08-21T12:02:37.000Z</time>
      </trkpt>
      <trkpt lat="44.10855" lon="6.6791">
        <ele>2423.3999023438</ele>
        <time>2021-08-21T12:02:41.000Z</time>
      </trkpt>
      <trkpt lat="44.10854" lon="6.67909">
        <ele>2424</ele>
        <time>2021-08-21T12:02:43.000Z</time>
      </trkpt>
      <trkpt lat="44.10851" lon="6.67907">
        <ele>2424.6000976562</ele>
        <time>2021-08-21T12:02:46.000Z</time>
      </trkpt>
      <trkpt lat="44.10849" lon="6.67904">
        <ele>2425.3999023438</ele>
        <time>2021-08-21T12:02:52.000Z</time>
      </trkpt>
      <trkpt lat="44.10847" lon="6.67905">
        <ele>2425.8000488281</ele>
        <time>2021-08-21T12:02:55.000Z</time>
      </trkpt>
      <trkpt lat="44.10846" lon="6.67904">
        <ele>2426</ele>
        <time>2021-08-21T12:02:56.000Z</time>
      </trkpt>
      <trkpt lat="44.1084" lon="6.67901">
        <ele>2426.8000488281</ele>
        <time>2021-08-21T12:03:01.000Z</time>
      </trkpt>
      <trkpt lat="44.10837" lon="6.67898">
        <ele>2427.6000976562</ele>
        <time>2021-08-21T12:03:04.000Z</time>
      </trkpt>
      <trkpt lat="44.10836" lon="6.67897">
        <ele>2427.8000488281</ele>
        <time>2021-08-21T12:03:05.000Z</time>
      </trkpt>
      <trkpt lat="44.1083" lon="6.67893">
        <ele>2429</ele>
        <time>2021-08-21T12:03:09.000Z</time>
      </trkpt>
      <trkpt lat="44.10828" lon="6.67892">
        <ele>2429.1999511719</ele>
        <time>2021-08-21T12:03:11.000Z</time>
      </trkpt>
      <trkpt lat="44.1082" lon="6.67889">
        <ele>2430</ele>
        <time>2021-08-21T12:03:18.000Z</time>
      </trkpt>
      <trkpt lat="44.10819" lon="6.67888">
        <ele>2430.1999511719</ele>
        <time>2021-08-21T12:03:19.000Z</time>
      </trkpt>
      <trkpt lat="44.1081" lon="6.67882">
        <ele>2430.6000976562</ele>
        <time>2021-08-21T12:03:27.000Z</time>
      </trkpt>
      <trkpt lat="44.10804" lon="6.67877">
        <ele>2431</ele>
        <time>2021-08-21T12:03:33.000Z</time>
      </trkpt>
      <trkpt lat="44.10801" lon="6.67875">
        <ele>2431.6000976562</ele>
        <time>2021-08-21T12:03:36.000Z</time>
      </trkpt>
      <trkpt lat="44.10792" lon="6.6787">
        <ele>2432</ele>
        <time>2021-08-21T12:03:43.000Z</time>
      </trkpt>
      <trkpt lat="44.10789" lon="6.67867">
        <ele>2432.3999023438</ele>
        <time>2021-08-21T12:03:46.000Z</time>
      </trkpt>
      <trkpt lat="44.10779" lon="6.67862">
        <ele>2433.1999511719</ele>
        <time>2021-08-21T12:03:53.000Z</time>
      </trkpt>
      <trkpt lat="44.10776" lon="6.6786">
        <ele>2433.6000976562</ele>
        <time>2021-08-21T12:03:55.000Z</time>
      </trkpt>
      <trkpt lat="44.1077" lon="6.67856">
        <ele>2434.1999511719</ele>
        <time>2021-08-21T12:04:00.000Z</time>
      </trkpt>
      <trkpt lat="44.10765" lon="6.67853">
        <ele>2434.8000488281</ele>
        <time>2021-08-21T12:04:04.000Z</time>
      </trkpt>
      <trkpt lat="44.10761" lon="6.6785">
        <ele>2435.1999511719</ele>
        <time>2021-08-21T12:04:08.000Z</time>
      </trkpt>
      <trkpt lat="44.10757" lon="6.67845">
        <ele>2436.3999023438</ele>
        <time>2021-08-21T12:04:12.000Z</time>
      </trkpt>
      <trkpt lat="44.10757" lon="6.67844">
        <ele>2436.6000976562</ele>
        <time>2021-08-21T12:04:13.000Z</time>
      </trkpt>
      <trkpt lat="44.10757" lon="6.67841">
        <ele>2437.6000976562</ele>
        <time>2021-08-21T12:04:15.000Z</time>
      </trkpt>
      <trkpt lat="44.10759" lon="6.6784">
        <ele>2438.1999511719</ele>
        <time>2021-08-21T12:04:19.000Z</time>
      </trkpt>
      <trkpt lat="44.10759" lon="6.67839">
        <ele>2437.8000488281</ele>
        <time>2021-08-21T12:04:25.000Z</time>
      </trkpt>
      <trkpt lat="44.10758" lon="6.67839">
        <ele>2437.3999023438</ele>
        <time>2021-08-21T12:04:33.000Z</time>
      </trkpt>
      <trkpt lat="44.10759" lon="6.67839">
        <ele>2437</ele>
        <time>2021-08-21T12:04:38.000Z</time>
      </trkpt>
      <trkpt lat="44.1076" lon="6.67839">
        <ele>2437</ele>
        <time>2021-08-21T12:04:59.000Z</time>
      </trkpt>
      <trkpt lat="44.1076" lon="6.6784">
        <ele>2436.6000976562</ele>
        <time>2021-08-21T12:05:05.000Z</time>
      </trkpt>
      <trkpt lat="44.1076" lon="6.67841">
        <ele>2436.3999023438</ele>
        <time>2021-08-21T12:05:06.000Z</time>
      </trkpt>
      <trkpt lat="44.10759" lon="6.67844">
        <ele>2436.6000976562</ele>
        <time>2021-08-21T12:05:12.000Z</time>
      </trkpt>
      <trkpt lat="44.10759" lon="6.67844">
        <ele>2436.6000976562</ele>
        <time>2021-08-21T12:05:24.000Z</time>
      </trkpt>
      <trkpt lat="44.1076" lon="6.67842">
        <ele>2437.6000976562</ele>
        <time>2021-08-21T12:05:31.000Z</time>
      </trkpt>
      <trkpt lat="44.10762" lon="6.67841">
        <ele>2437.8000488281</ele>
        <time>2021-08-21T12:05:32.000Z</time>
      </trkpt>
      <trkpt lat="44.10761" lon="6.67841">
        <ele>2438.1999511719</ele>
        <time>2021-08-21T12:05:37.000Z</time>
      </trkpt>
      <trkpt lat="44.10761" lon="6.6784">
        <ele>2437.8000488281</ele>
        <time>2021-08-21T12:05:48.000Z</time>
      </trkpt>
      <trkpt lat="44.10763" lon="6.67835">
        <ele>2437.3999023438</ele>
        <time>2021-08-21T12:05:59.000Z</time>
      </trkpt>
      <trkpt lat="44.10772" lon="6.67822">
        <ele>2437.1999511719</ele>
        <time>2021-08-21T12:06:05.000Z</time>
      </trkpt>
      <trkpt lat="44.10778" lon="6.67817">
        <ele>2436.3999023438</ele>
        <time>2021-08-21T12:06:07.000Z</time>
      </trkpt>
      <trkpt lat="44.10784" lon="6.67813">
        <ele>2435</ele>
        <time>2021-08-21T12:06:09.000Z</time>
      </trkpt>
      <trkpt lat="44.10787" lon="6.67813">
        <ele>2434.1999511719</ele>
        <time>2021-08-21T12:06:10.000Z</time>
      </trkpt>
      <trkpt lat="44.10789" lon="6.67815">
        <ele>2433.6000976562</ele>
        <time>2021-08-21T12:06:11.000Z</time>
      </trkpt>
      <trkpt lat="44.10794" lon="6.67814">
        <ele>2432.6000976562</ele>
        <time>2021-08-21T12:06:13.000Z</time>
      </trkpt>
      <trkpt lat="44.10796" lon="6.67812">
        <ele>2432.1999511719</ele>
        <time>2021-08-21T12:06:14.000Z</time>
      </trkpt>
      <trkpt lat="44.108" lon="6.67809">
        <ele>2432</ele>
        <time>2021-08-21T12:06:18.000Z</time>
      </trkpt>
      <trkpt lat="44.10801" lon="6.6781">
        <ele>2431.3999023438</ele>
        <time>2021-08-21T12:06:20.000Z</time>
      </trkpt>
      <trkpt lat="44.10803" lon="6.67808">
        <ele>2430.8000488281</ele>
        <time>2021-08-21T12:06:23.000Z</time>
      </trkpt>
      <trkpt lat="44.10803" lon="6.67807">
        <ele>2430.6000976562</ele>
        <time>2021-08-21T12:06:24.000Z</time>
      </trkpt>
      <trkpt lat="44.10803" lon="6.67805">
        <ele>2430</ele>
        <time>2021-08-21T12:06:25.000Z</time>
      </trkpt>
      <trkpt lat="44.10805" lon="6.67802">
        <ele>2429</ele>
        <time>2021-08-21T12:06:28.000Z</time>
      </trkpt>
      <trkpt lat="44.10807" lon="6.67799">
        <ele>2428</ele>
        <time>2021-08-21T12:06:32.000Z</time>
      </trkpt>
      <trkpt lat="44.10808" lon="6.67798">
        <ele>2427.8000488281</ele>
        <time>2021-08-21T12:06:33.000Z</time>
      </trkpt>
      <trkpt lat="44.10812" lon="6.67798">
        <ele>2428</ele>
        <time>2021-08-21T12:06:39.000Z</time>
      </trkpt>
      <trkpt lat="44.10814" lon="6.67795">
        <ele>2428</ele>
        <time>2021-08-21T12:06:45.000Z</time>
      </trkpt>
      <trkpt lat="44.10817" lon="6.67792">
        <ele>2427.8000488281</ele>
        <time>2021-08-21T12:06:47.000Z</time>
      </trkpt>
      <trkpt lat="44.10822" lon="6.67784">
        <ele>2427.6000976562</ele>
        <time>2021-08-21T12:06:50.000Z</time>
      </trkpt>
      <trkpt lat="44.10829" lon="6.67772">
        <ele>2426.8000488281</ele>
        <time>2021-08-21T12:06:54.000Z</time>
      </trkpt>
      <trkpt lat="44.10833" lon="6.67767">
        <ele>2426.3999023438</ele>
        <time>2021-08-21T12:06:56.000Z</time>
      </trkpt>
      <trkpt lat="44.10836" lon="6.67761">
        <ele>2425.6000976562</ele>
        <time>2021-08-21T12:06:59.000Z</time>
      </trkpt>
      <trkpt lat="44.1084" lon="6.67753">
        <ele>2424.3999023438</ele>
        <time>2021-08-21T12:07:02.000Z</time>
      </trkpt>
      <trkpt lat="44.10844" lon="6.67743">
        <ele>2423</ele>
        <time>2021-08-21T12:07:06.000Z</time>
      </trkpt>
      <trkpt lat="44.10844" lon="6.67741">
        <ele>2422.6000976562</ele>
        <time>2021-08-21T12:07:07.000Z</time>
      </trkpt>
      <trkpt lat="44.10844" lon="6.67738">
        <ele>2421.8000488281</ele>
        <time>2021-08-21T12:07:08.000Z</time>
      </trkpt>
      <trkpt lat="44.10844" lon="6.67733">
        <ele>2420.8000488281</ele>
        <time>2021-08-21T12:07:10.000Z</time>
      </trkpt>
      <trkpt lat="44.10843" lon="6.67728">
        <ele>2419.6000976562</ele>
        <time>2021-08-21T12:07:12.000Z</time>
      </trkpt>
      <trkpt lat="44.10844" lon="6.67718">
        <ele>2418.6000976562</ele>
        <time>2021-08-21T12:07:15.000Z</time>
      </trkpt>
      <trkpt lat="44.10845" lon="6.67709">
        <ele>2418.1999511719</ele>
        <time>2021-08-21T12:07:17.000Z</time>
      </trkpt>
      <trkpt lat="44.10846" lon="6.67705">
        <ele>2417.6000976562</ele>
        <time>2021-08-21T12:07:18.000Z</time>
      </trkpt>
      <trkpt lat="44.10844" lon="6.67698">
        <ele>2416.3999023438</ele>
        <time>2021-08-21T12:07:20.000Z</time>
      </trkpt>
      <trkpt lat="44.10844" lon="6.67694">
        <ele>2416</ele>
        <time>2021-08-21T12:07:21.000Z</time>
      </trkpt>
      <trkpt lat="44.10844" lon="6.67692">
        <ele>2415</ele>
        <time>2021-08-21T12:07:22.000Z</time>
      </trkpt>
      <trkpt lat="44.10844" lon="6.67687">
        <ele>2414</ele>
        <time>2021-08-21T12:07:24.000Z</time>
      </trkpt>
      <trkpt lat="44.10844" lon="6.67681">
        <ele>2412.6000976562</ele>
        <time>2021-08-21T12:07:26.000Z</time>
      </trkpt>
      <trkpt lat="44.10844" lon="6.67663">
        <ele>2411.3999023438</ele>
        <time>2021-08-21T12:07:31.000Z</time>
      </trkpt>
      <trkpt lat="44.10844" lon="6.67661">
        <ele>2411</ele>
        <time>2021-08-21T12:07:32.000Z</time>
      </trkpt>
      <trkpt lat="44.10842" lon="6.67655">
        <ele>2410</ele>
        <time>2021-08-21T12:07:34.000Z</time>
      </trkpt>
      <trkpt lat="44.10842" lon="6.67648">
        <ele>2408.8000488281</ele>
        <time>2021-08-21T12:07:36.000Z</time>
      </trkpt>
      <trkpt lat="44.10841" lon="6.6764">
        <ele>2407.8000488281</ele>
        <time>2021-08-21T12:07:38.000Z</time>
      </trkpt>
      <trkpt lat="44.1084" lon="6.67632">
        <ele>2406.8000488281</ele>
        <time>2021-08-21T12:07:40.000Z</time>
      </trkpt>
      <trkpt lat="44.10839" lon="6.67628">
        <ele>2406</ele>
        <time>2021-08-21T12:07:41.000Z</time>
      </trkpt>
      <trkpt lat="44.10839" lon="6.67625">
        <ele>2405.3999023438</ele>
        <time>2021-08-21T12:07:42.000Z</time>
      </trkpt>
      <trkpt lat="44.10839" lon="6.67622">
        <ele>2404.1999511719</ele>
        <time>2021-08-21T12:07:44.000Z</time>
      </trkpt>
      <trkpt lat="44.10839" lon="6.6762">
        <ele>2403.6000976562</ele>
        <time>2021-08-21T12:07:45.000Z</time>
      </trkpt>
      <trkpt lat="44.10838" lon="6.67613">
        <ele>2402.8000488281</ele>
        <time>2021-08-21T12:07:48.000Z</time>
      </trkpt>
      <trkpt lat="44.10838" lon="6.67606">
        <ele>2402.1999511719</ele>
        <time>2021-08-21T12:07:50.000Z</time>
      </trkpt>
      <trkpt lat="44.10838" lon="6.676">
        <ele>2401.6000976562</ele>
        <time>2021-08-21T12:07:52.000Z</time>
      </trkpt>
      <trkpt lat="44.10838" lon="6.67594">
        <ele>2400.6000976562</ele>
        <time>2021-08-21T12:07:54.000Z</time>
      </trkpt>
      <trkpt lat="44.10838" lon="6.67588">
        <ele>2399.1999511719</ele>
        <time>2021-08-21T12:07:56.000Z</time>
      </trkpt>
      <trkpt lat="44.10837" lon="6.67574">
        <ele>2398.1999511719</ele>
        <time>2021-08-21T12:08:00.000Z</time>
      </trkpt>
      <trkpt lat="44.10836" lon="6.67566">
        <ele>2397.6000976562</ele>
        <time>2021-08-21T12:08:02.000Z</time>
      </trkpt>
      <trkpt lat="44.10836" lon="6.67559">
        <ele>2396.6000976562</ele>
        <time>2021-08-21T12:08:04.000Z</time>
      </trkpt>
      <trkpt lat="44.10837" lon="6.67555">
        <ele>2395.3999023438</ele>
        <time>2021-08-21T12:08:07.000Z</time>
      </trkpt>
      <trkpt lat="44.10837" lon="6.67553">
        <ele>2394.3999023438</ele>
        <time>2021-08-21T12:08:12.000Z</time>
      </trkpt>
      <trkpt lat="44.10837" lon="6.67552">
        <ele>2394.1999511719</ele>
        <time>2021-08-21T12:08:13.000Z</time>
      </trkpt>
      <trkpt lat="44.10836" lon="6.67551">
        <ele>2393.1999511719</ele>
        <time>2021-08-21T12:08:16.000Z</time>
      </trkpt>
      <trkpt lat="44.10836" lon="6.67551">
        <ele>2392.8000488281</ele>
        <time>2021-08-21T12:08:17.000Z</time>
      </trkpt>
      <trkpt lat="44.10837" lon="6.6755">
        <ele>2392.6000976562</ele>
        <time>2021-08-21T12:08:18.000Z</time>
      </trkpt>
      <trkpt lat="44.10836" lon="6.6755">
        <ele>2392.1999511719</ele>
        <time>2021-08-21T12:08:24.000Z</time>
      </trkpt>
      <trkpt lat="44.10836" lon="6.6754">
        <ele>2392.1999511719</ele>
        <time>2021-08-21T12:08:28.000Z</time>
      </trkpt>
      <trkpt lat="44.10832" lon="6.6752">
        <ele>2391.6000976562</ele>
        <time>2021-08-21T12:08:33.000Z</time>
      </trkpt>
      <trkpt lat="44.10831" lon="6.67507">
        <ele>2390.6000976562</ele>
        <time>2021-08-21T12:08:36.000Z</time>
      </trkpt>
      <trkpt lat="44.1083" lon="6.67504">
        <ele>2390</ele>
        <time>2021-08-21T12:08:37.000Z</time>
      </trkpt>
      <trkpt lat="44.10829" lon="6.675">
        <ele>2389.3999023438</ele>
        <time>2021-08-21T12:08:38.000Z</time>
      </trkpt>
      <trkpt lat="44.10827" lon="6.67493">
        <ele>2388</ele>
        <time>2021-08-21T12:08:40.000Z</time>
      </trkpt>
      <trkpt lat="44.10825" lon="6.67489">
        <ele>2387.3999023438</ele>
        <time>2021-08-21T12:08:41.000Z</time>
      </trkpt>
      <trkpt lat="44.10824" lon="6.67486">
        <ele>2386.8000488281</ele>
        <time>2021-08-21T12:08:42.000Z</time>
      </trkpt>
      <trkpt lat="44.10821" lon="6.67478">
        <ele>2385.8000488281</ele>
        <time>2021-08-21T12:08:44.000Z</time>
      </trkpt>
      <trkpt lat="44.1082" lon="6.67471">
        <ele>2384.8000488281</ele>
        <time>2021-08-21T12:08:46.000Z</time>
      </trkpt>
      <trkpt lat="44.10818" lon="6.67465">
        <ele>2383.6000976562</ele>
        <time>2021-08-21T12:08:48.000Z</time>
      </trkpt>
      <trkpt lat="44.10815" lon="6.67458">
        <ele>2382.6000976562</ele>
        <time>2021-08-21T12:08:50.000Z</time>
      </trkpt>
      <trkpt lat="44.10814" lon="6.67452">
        <ele>2381.1999511719</ele>
        <time>2021-08-21T12:08:52.000Z</time>
      </trkpt>
      <trkpt lat="44.10809" lon="6.67445">
        <ele>2380</ele>
        <time>2021-08-21T12:08:55.000Z</time>
      </trkpt>
      <trkpt lat="44.10807" lon="6.67443">
        <ele>2379.6000976562</ele>
        <time>2021-08-21T12:08:56.000Z</time>
      </trkpt>
      <trkpt lat="44.10804" lon="6.67437">
        <ele>2378.8000488281</ele>
        <time>2021-08-21T12:08:58.000Z</time>
      </trkpt>
      <trkpt lat="44.10802" lon="6.67431">
        <ele>2377.6000976562</ele>
        <time>2021-08-21T12:09:00.000Z</time>
      </trkpt>
      <trkpt lat="44.10801" lon="6.67425">
        <ele>2376.3999023438</ele>
        <time>2021-08-21T12:09:02.000Z</time>
      </trkpt>
      <trkpt lat="44.108" lon="6.67422">
        <ele>2375.8000488281</ele>
        <time>2021-08-21T12:09:03.000Z</time>
      </trkpt>
      <trkpt lat="44.10798" lon="6.67419">
        <ele>2375</ele>
        <time>2021-08-21T12:09:05.000Z</time>
      </trkpt>
      <trkpt lat="44.10796" lon="6.67416">
        <ele>2374.3999023438</ele>
        <time>2021-08-21T12:09:07.000Z</time>
      </trkpt>
      <trkpt lat="44.10796" lon="6.67416">
        <ele>2374</ele>
        <time>2021-08-21T12:09:08.000Z</time>
      </trkpt>
      <trkpt lat="44.10797" lon="6.67416">
        <ele>2373</ele>
        <time>2021-08-21T12:09:10.000Z</time>
      </trkpt>
      <trkpt lat="44.10797" lon="6.67414">
        <ele>2372</ele>
        <time>2021-08-21T12:09:13.000Z</time>
      </trkpt>
      <trkpt lat="44.10797" lon="6.67413">
        <ele>2371.8000488281</ele>
        <time>2021-08-21T12:09:14.000Z</time>
      </trkpt>
      <trkpt lat="44.10796" lon="6.67412">
        <ele>2371.8000488281</ele>
        <time>2021-08-21T12:09:18.000Z</time>
      </trkpt>
      <trkpt lat="44.10795" lon="6.67411">
        <ele>2371.8000488281</ele>
        <time>2021-08-21T12:09:19.000Z</time>
      </trkpt>
      <trkpt lat="44.10793" lon="6.67406">
        <ele>2371.8000488281</ele>
        <time>2021-08-21T12:09:22.000Z</time>
      </trkpt>
      <trkpt lat="44.10792" lon="6.67401">
        <ele>2371.8000488281</ele>
        <time>2021-08-21T12:09:24.000Z</time>
      </trkpt>
      <trkpt lat="44.10788" lon="6.6739">
        <ele>2370.3999023438</ele>
        <time>2021-08-21T12:09:28.000Z</time>
      </trkpt>
      <trkpt lat="44.10785" lon="6.67382">
        <ele>2369.1999511719</ele>
        <time>2021-08-21T12:09:31.000Z</time>
      </trkpt>
      <trkpt lat="44.10784" lon="6.67379">
        <ele>2369</ele>
        <time>2021-08-21T12:09:32.000Z</time>
      </trkpt>
      <trkpt lat="44.10781" lon="6.67368">
        <ele>2367.6000976562</ele>
        <time>2021-08-21T12:09:35.000Z</time>
      </trkpt>
      <trkpt lat="44.10779" lon="6.67361">
        <ele>2366.6000976562</ele>
        <time>2021-08-21T12:09:37.000Z</time>
      </trkpt>
      <trkpt lat="44.10773" lon="6.67355">
        <ele>2365.6000976562</ele>
        <time>2021-08-21T12:09:40.000Z</time>
      </trkpt>
      <trkpt lat="44.10771" lon="6.67348">
        <ele>2364.8000488281</ele>
        <time>2021-08-21T12:09:42.000Z</time>
      </trkpt>
      <trkpt lat="44.10769" lon="6.67345">
        <ele>2364.1999511719</ele>
        <time>2021-08-21T12:09:43.000Z</time>
      </trkpt>
      <trkpt lat="44.10767" lon="6.67339">
        <ele>2363</ele>
        <time>2021-08-21T12:09:45.000Z</time>
      </trkpt>
      <trkpt lat="44.10764" lon="6.67332">
        <ele>2361.6000976562</ele>
        <time>2021-08-21T12:09:47.000Z</time>
      </trkpt>
      <trkpt lat="44.10763" lon="6.67329">
        <ele>2361</ele>
        <time>2021-08-21T12:09:48.000Z</time>
      </trkpt>
      <trkpt lat="44.10762" lon="6.67325">
        <ele>2360.3999023438</ele>
        <time>2021-08-21T12:09:49.000Z</time>
      </trkpt>
      <trkpt lat="44.1076" lon="6.67316">
        <ele>2359</ele>
        <time>2021-08-21T12:09:52.000Z</time>
      </trkpt>
      <trkpt lat="44.10756" lon="6.67311">
        <ele>2358</ele>
        <time>2021-08-21T12:09:54.000Z</time>
      </trkpt>
      <trkpt lat="44.10753" lon="6.67301">
        <ele>2357</ele>
        <time>2021-08-21T12:09:57.000Z</time>
      </trkpt>
      <trkpt lat="44.1075" lon="6.67293">
        <ele>2356.1999511719</ele>
        <time>2021-08-21T12:09:59.000Z</time>
      </trkpt>
      <trkpt lat="44.1075" lon="6.67289">
        <ele>2355.6000976562</ele>
        <time>2021-08-21T12:10:00.000Z</time>
      </trkpt>
      <trkpt lat="44.10749" lon="6.67283">
        <ele>2354.3999023438</ele>
        <time>2021-08-21T12:10:02.000Z</time>
      </trkpt>
      <trkpt lat="44.10748" lon="6.6728">
        <ele>2354</ele>
        <time>2021-08-21T12:10:03.000Z</time>
      </trkpt>
      <trkpt lat="44.10745" lon="6.67273">
        <ele>2353.1999511719</ele>
        <time>2021-08-21T12:10:05.000Z</time>
      </trkpt>
      <trkpt lat="44.10743" lon="6.67264">
        <ele>2352.1999511719</ele>
        <time>2021-08-21T12:10:07.000Z</time>
      </trkpt>
      <trkpt lat="44.1074" lon="6.67252">
        <ele>2350.8000488281</ele>
        <time>2021-08-21T12:10:10.000Z</time>
      </trkpt>
      <trkpt lat="44.10738" lon="6.67246">
        <ele>2349.8000488281</ele>
        <time>2021-08-21T12:10:12.000Z</time>
      </trkpt>
      <trkpt lat="44.10736" lon="6.67242">
        <ele>2349</ele>
        <time>2021-08-21T12:10:13.000Z</time>
      </trkpt>
      <trkpt lat="44.10734" lon="6.67235">
        <ele>2347.6000976562</ele>
        <time>2021-08-21T12:10:15.000Z</time>
      </trkpt>
      <trkpt lat="44.10732" lon="6.67228">
        <ele>2346.1999511719</ele>
        <time>2021-08-21T12:10:17.000Z</time>
      </trkpt>
      <trkpt lat="44.10731" lon="6.67221">
        <ele>2345</ele>
        <time>2021-08-21T12:10:19.000Z</time>
      </trkpt>
      <trkpt lat="44.10725" lon="6.67207">
        <ele>2343.8000488281</ele>
        <time>2021-08-21T12:10:23.000Z</time>
      </trkpt>
      <trkpt lat="44.10724" lon="6.67204">
        <ele>2343.3999023438</ele>
        <time>2021-08-21T12:10:24.000Z</time>
      </trkpt>
      <trkpt lat="44.10721" lon="6.67197">
        <ele>2342.3999023438</ele>
        <time>2021-08-21T12:10:26.000Z</time>
      </trkpt>
      <trkpt lat="44.10718" lon="6.67187">
        <ele>2341</ele>
        <time>2021-08-21T12:10:29.000Z</time>
      </trkpt>
      <trkpt lat="44.10717" lon="6.67184">
        <ele>2340.3999023438</ele>
        <time>2021-08-21T12:10:30.000Z</time>
      </trkpt>
      <trkpt lat="44.10716" lon="6.67181">
        <ele>2339.8000488281</ele>
        <time>2021-08-21T12:10:31.000Z</time>
      </trkpt>
      <trkpt lat="44.10715" lon="6.67174">
        <ele>2338.6000976562</ele>
        <time>2021-08-21T12:10:33.000Z</time>
      </trkpt>
      <trkpt lat="44.10712" lon="6.67169">
        <ele>2337.6000976562</ele>
        <time>2021-08-21T12:10:35.000Z</time>
      </trkpt>
      <trkpt lat="44.1071" lon="6.67167">
        <ele>2337.1999511719</ele>
        <time>2021-08-21T12:10:36.000Z</time>
      </trkpt>
      <trkpt lat="44.10706" lon="6.67161">
        <ele>2336</ele>
        <time>2021-08-21T12:10:38.000Z</time>
      </trkpt>
      <trkpt lat="44.10703" lon="6.67154">
        <ele>2335</ele>
        <time>2021-08-21T12:10:40.000Z</time>
      </trkpt>
      <trkpt lat="44.10701" lon="6.6715">
        <ele>2334.1999511719</ele>
        <time>2021-08-21T12:10:41.000Z</time>
      </trkpt>
      <trkpt lat="44.10699" lon="6.67146">
        <ele>2333.8000488281</ele>
        <time>2021-08-21T12:10:42.000Z</time>
      </trkpt>
      <trkpt lat="44.10695" lon="6.67138">
        <ele>2332.6000976562</ele>
        <time>2021-08-21T12:10:44.000Z</time>
      </trkpt>
      <trkpt lat="44.10692" lon="6.67132">
        <ele>2331.8000488281</ele>
        <time>2021-08-21T12:10:46.000Z</time>
      </trkpt>
      <trkpt lat="44.1069" lon="6.67129">
        <ele>2331.1999511719</ele>
        <time>2021-08-21T12:10:47.000Z</time>
      </trkpt>
      <trkpt lat="44.10687" lon="6.67124">
        <ele>2330</ele>
        <time>2021-08-21T12:10:49.000Z</time>
      </trkpt>
      <trkpt lat="44.10685" lon="6.6712">
        <ele>2329.3999023438</ele>
        <time>2021-08-21T12:10:50.000Z</time>
      </trkpt>
      <trkpt lat="44.10683" lon="6.67117">
        <ele>2328.8000488281</ele>
        <time>2021-08-21T12:10:51.000Z</time>
      </trkpt>
      <trkpt lat="44.10679" lon="6.6711">
        <ele>2327.6000976562</ele>
        <time>2021-08-21T12:10:53.000Z</time>
      </trkpt>
      <trkpt lat="44.10675" lon="6.67104">
        <ele>2326.3999023438</ele>
        <time>2021-08-21T12:10:55.000Z</time>
      </trkpt>
      <trkpt lat="44.10673" lon="6.67102">
        <ele>2325.8000488281</ele>
        <time>2021-08-21T12:10:56.000Z</time>
      </trkpt>
      <trkpt lat="44.10671" lon="6.671">
        <ele>2325.1999511719</ele>
        <time>2021-08-21T12:10:57.000Z</time>
      </trkpt>
      <trkpt lat="44.10667" lon="6.67097">
        <ele>2324.3999023438</ele>
        <time>2021-08-21T12:10:59.000Z</time>
      </trkpt>
      <trkpt lat="44.10664" lon="6.67095">
        <ele>2323.8000488281</ele>
        <time>2021-08-21T12:11:00.000Z</time>
      </trkpt>
      <trkpt lat="44.10659" lon="6.67089">
        <ele>2322.1999511719</ele>
        <time>2021-08-21T12:11:03.000Z</time>
      </trkpt>
      <trkpt lat="44.10658" lon="6.67086">
        <ele>2321.6000976562</ele>
        <time>2021-08-21T12:11:04.000Z</time>
      </trkpt>
      <trkpt lat="44.10656" lon="6.67084">
        <ele>2321</ele>
        <time>2021-08-21T12:11:05.000Z</time>
      </trkpt>
      <trkpt lat="44.10652" lon="6.6708">
        <ele>2319.8000488281</ele>
        <time>2021-08-21T12:11:07.000Z</time>
      </trkpt>
      <trkpt lat="44.10651" lon="6.67077">
        <ele>2319</ele>
        <time>2021-08-21T12:11:08.000Z</time>
      </trkpt>
      <trkpt lat="44.10649" lon="6.67075">
        <ele>2318.3999023438</ele>
        <time>2021-08-21T12:11:09.000Z</time>
      </trkpt>
      <trkpt lat="44.10645" lon="6.6707">
        <ele>2317.3999023438</ele>
        <time>2021-08-21T12:11:11.000Z</time>
      </trkpt>
      <trkpt lat="44.10639" lon="6.67064">
        <ele>2316.1999511719</ele>
        <time>2021-08-21T12:11:14.000Z</time>
      </trkpt>
      <trkpt lat="44.10637" lon="6.67062">
        <ele>2316</ele>
        <time>2021-08-21T12:11:15.000Z</time>
      </trkpt>
      <trkpt lat="44.10633" lon="6.67057">
        <ele>2314.8000488281</ele>
        <time>2021-08-21T12:11:17.000Z</time>
      </trkpt>
      <trkpt lat="44.1063" lon="6.67051">
        <ele>2313.8000488281</ele>
        <time>2021-08-21T12:11:19.000Z</time>
      </trkpt>
      <trkpt lat="44.10626" lon="6.67044">
        <ele>2312.6000976562</ele>
        <time>2021-08-21T12:11:21.000Z</time>
      </trkpt>
      <trkpt lat="44.10624" lon="6.67042">
        <ele>2312.1999511719</ele>
        <time>2021-08-21T12:11:22.000Z</time>
      </trkpt>
      <trkpt lat="44.10619" lon="6.67036">
        <ele>2311.1999511719</ele>
        <time>2021-08-21T12:11:24.000Z</time>
      </trkpt>
      <trkpt lat="44.10615" lon="6.67031">
        <ele>2310</ele>
        <time>2021-08-21T12:11:26.000Z</time>
      </trkpt>
      <trkpt lat="44.10612" lon="6.67025">
        <ele>2308.6000976562</ele>
        <time>2021-08-21T12:11:28.000Z</time>
      </trkpt>
      <trkpt lat="44.10607" lon="6.67014">
        <ele>2307</ele>
        <time>2021-08-21T12:11:31.000Z</time>
      </trkpt>
      <trkpt lat="44.10602" lon="6.67003">
        <ele>2305.8000488281</ele>
        <time>2021-08-21T12:11:34.000Z</time>
      </trkpt>
      <trkpt lat="44.106" lon="6.66999">
        <ele>2305.1999511719</ele>
        <time>2021-08-21T12:11:35.000Z</time>
      </trkpt>
      <trkpt lat="44.10599" lon="6.66995">
        <ele>2304.6000976562</ele>
        <time>2021-08-21T12:11:36.000Z</time>
      </trkpt>
      <trkpt lat="44.10596" lon="6.66983">
        <ele>2303.3999023438</ele>
        <time>2021-08-21T12:11:39.000Z</time>
      </trkpt>
      <trkpt lat="44.10596" lon="6.66979">
        <ele>2302.6000976562</ele>
        <time>2021-08-21T12:11:40.000Z</time>
      </trkpt>
      <trkpt lat="44.10596" lon="6.66976">
        <ele>2301.8000488281</ele>
        <time>2021-08-21T12:11:41.000Z</time>
      </trkpt>
      <trkpt lat="44.10594" lon="6.66968">
        <ele>2300.3999023438</ele>
        <time>2021-08-21T12:11:43.000Z</time>
      </trkpt>
      <trkpt lat="44.10594" lon="6.66964">
        <ele>2299.8000488281</ele>
        <time>2021-08-21T12:11:44.000Z</time>
      </trkpt>
      <trkpt lat="44.10593" lon="6.6696">
        <ele>2299.3999023438</ele>
        <time>2021-08-21T12:11:45.000Z</time>
      </trkpt>
      <trkpt lat="44.10593" lon="6.66944">
        <ele>2298.1999511719</ele>
        <time>2021-08-21T12:11:48.000Z</time>
      </trkpt>
      <trkpt lat="44.10593" lon="6.6694">
        <ele>2297.1999511719</ele>
        <time>2021-08-21T12:11:49.000Z</time>
      </trkpt>
      <trkpt lat="44.10593" lon="6.66936">
        <ele>2296.3999023438</ele>
        <time>2021-08-21T12:11:50.000Z</time>
      </trkpt>
      <trkpt lat="44.10594" lon="6.66932">
        <ele>2295.3999023438</ele>
        <time>2021-08-21T12:11:52.000Z</time>
      </trkpt>
      <trkpt lat="44.10594" lon="6.66932">
        <ele>2294.8000488281</ele>
        <time>2021-08-21T12:11:53.000Z</time>
      </trkpt>
      <trkpt lat="44.10594" lon="6.66932">
        <ele>2294.1999511719</ele>
        <time>2021-08-21T12:11:54.000Z</time>
      </trkpt>
      <trkpt lat="44.10594" lon="6.66931">
        <ele>2293.1999511719</ele>
        <time>2021-08-21T12:11:57.000Z</time>
      </trkpt>
      <trkpt lat="44.10594" lon="6.66929">
        <ele>2292.6000976562</ele>
        <time>2021-08-21T12:11:59.000Z</time>
      </trkpt>
      <trkpt lat="44.10595" lon="6.66928">
        <ele>2292</ele>
        <time>2021-08-21T12:12:02.000Z</time>
      </trkpt>
      <trkpt lat="44.10595" lon="6.66927">
        <ele>2291.6000976562</ele>
        <time>2021-08-21T12:12:05.000Z</time>
      </trkpt>
      <trkpt lat="44.10594" lon="6.66926">
        <ele>2291.6000976562</ele>
        <time>2021-08-21T12:12:06.000Z</time>
      </trkpt>
      <trkpt lat="44.10592" lon="6.6692">
        <ele>2291.3999023438</ele>
        <time>2021-08-21T12:12:09.000Z</time>
      </trkpt>
      <trkpt lat="44.10588" lon="6.66902">
        <ele>2290.8000488281</ele>
        <time>2021-08-21T12:12:14.000Z</time>
      </trkpt>
      <trkpt lat="44.10587" lon="6.66898">
        <ele>2290.1999511719</ele>
        <time>2021-08-21T12:12:15.000Z</time>
      </trkpt>
      <trkpt lat="44.10587" lon="6.66894">
        <ele>2289.8000488281</ele>
        <time>2021-08-21T12:12:16.000Z</time>
      </trkpt>
      <trkpt lat="44.10588" lon="6.66886">
        <ele>2288.6000976562</ele>
        <time>2021-08-21T12:12:18.000Z</time>
      </trkpt>
      <trkpt lat="44.10591" lon="6.6688">
        <ele>2287.8000488281</ele>
        <time>2021-08-21T12:12:20.000Z</time>
      </trkpt>
      <trkpt lat="44.10591" lon="6.66876">
        <ele>2287.1999511719</ele>
        <time>2021-08-21T12:12:21.000Z</time>
      </trkpt>
      <trkpt lat="44.10592" lon="6.66861">
        <ele>2286.1999511719</ele>
        <time>2021-08-21T12:12:25.000Z</time>
      </trkpt>
      <trkpt lat="44.10583" lon="6.66846">
        <ele>2285.1999511719</ele>
        <time>2021-08-21T12:12:30.000Z</time>
      </trkpt>
      <trkpt lat="44.1058" lon="6.66844">
        <ele>2285.1999511719</ele>
        <time>2021-08-21T12:12:31.000Z</time>
      </trkpt>
      <trkpt lat="44.10574" lon="6.6684">
        <ele>2284.6000976562</ele>
        <time>2021-08-21T12:12:33.000Z</time>
      </trkpt>
      <trkpt lat="44.10571" lon="6.66835">
        <ele>2284.1999511719</ele>
        <time>2021-08-21T12:12:35.000Z</time>
      </trkpt>
      <trkpt lat="44.10569" lon="6.66831">
        <ele>2284</ele>
        <time>2021-08-21T12:12:36.000Z</time>
      </trkpt>
      <trkpt lat="44.10562" lon="6.66818">
        <ele>2283.1999511719</ele>
        <time>2021-08-21T12:12:39.000Z</time>
      </trkpt>
      <trkpt lat="44.10558" lon="6.66813">
        <ele>2283</ele>
        <time>2021-08-21T12:12:40.000Z</time>
      </trkpt>
      <trkpt lat="44.10548" lon="6.66804">
        <ele>2282.1999511719</ele>
        <time>2021-08-21T12:12:43.000Z</time>
      </trkpt>
      <trkpt lat="44.10546" lon="6.66803">
        <ele>2281.8000488281</ele>
        <time>2021-08-21T12:12:44.000Z</time>
      </trkpt>
      <trkpt lat="44.10545" lon="6.66801">
        <ele>2281.3999023438</ele>
        <time>2021-08-21T12:12:45.000Z</time>
      </trkpt>
      <trkpt lat="44.10545" lon="6.668">
        <ele>2281.1999511719</ele>
        <time>2021-08-21T12:12:46.000Z</time>
      </trkpt>
      <trkpt lat="44.10546" lon="6.668">
        <ele>2280.8000488281</ele>
        <time>2021-08-21T12:12:47.000Z</time>
      </trkpt>
      <trkpt lat="44.10547" lon="6.668">
        <ele>2279.6000976562</ele>
        <time>2021-08-21T12:12:50.000Z</time>
      </trkpt>
      <trkpt lat="44.10547" lon="6.66801">
        <ele>2279</ele>
        <time>2021-08-21T12:12:57.000Z</time>
      </trkpt>
      <trkpt lat="44.10546" lon="6.66803">
        <ele>2279</ele>
        <time>2021-08-21T12:13:06.000Z</time>
      </trkpt>
      <trkpt lat="44.10546" lon="6.66803">
        <ele>2278.6000976562</ele>
        <time>2021-08-21T12:13:15.000Z</time>
      </trkpt>
      <trkpt lat="44.10546" lon="6.66803">
        <ele>2278.6000976562</ele>
        <time>2021-08-21T12:13:19.000Z</time>
      </trkpt>
      <trkpt lat="44.10546" lon="6.66804">
        <ele>2278.6000976562</ele>
        <time>2021-08-21T12:13:29.000Z</time>
      </trkpt>
      <trkpt lat="44.10546" lon="6.66804">
        <ele>2277.6000976562</ele>
        <time>2021-08-21T12:13:33.000Z</time>
      </trkpt>
      <trkpt lat="44.10547" lon="6.66805">
        <ele>2278.8000488281</ele>
        <time>2021-08-21T12:13:37.000Z</time>
      </trkpt>
      <trkpt lat="44.10547" lon="6.66805">
        <ele>2277.8000488281</ele>
        <time>2021-08-21T12:13:42.000Z</time>
      </trkpt>
      <trkpt lat="44.10547" lon="6.66806">
        <ele>2278.1999511719</ele>
        <time>2021-08-21T12:13:50.000Z</time>
      </trkpt>
      <trkpt lat="44.10547" lon="6.66806">
        <ele>2278.1999511719</ele>
        <time>2021-08-21T12:14:07.000Z</time>
      </trkpt>
      <trkpt lat="44.10548" lon="6.66807">
        <ele>2277.8000488281</ele>
        <time>2021-08-21T12:14:20.000Z</time>
      </trkpt>
      <trkpt lat="44.10548" lon="6.66807">
        <ele>2277.8000488281</ele>
        <time>2021-08-21T12:14:36.000Z</time>
      </trkpt>
      <trkpt lat="44.10548" lon="6.66806">
        <ele>2278.8000488281</ele>
        <time>2021-08-21T12:14:40.000Z</time>
      </trkpt>
      <trkpt lat="44.10545" lon="6.66802">
        <ele>2279.1999511719</ele>
        <time>2021-08-21T12:14:44.000Z</time>
      </trkpt>
      <trkpt lat="44.10544" lon="6.66801">
        <ele>2278.6000976562</ele>
        <time>2021-08-21T12:14:51.000Z</time>
      </trkpt>
      <trkpt lat="44.10543" lon="6.668">
        <ele>2278.1999511719</ele>
        <time>2021-08-21T12:15:02.000Z</time>
      </trkpt>
      <trkpt lat="44.10543" lon="6.668">
        <ele>2277.6000976562</ele>
        <time>2021-08-21T12:15:16.000Z</time>
      </trkpt>
      <trkpt lat="44.10543" lon="6.668">
        <ele>2277.8000488281</ele>
        <time>2021-08-21T12:15:22.000Z</time>
      </trkpt>
      <trkpt lat="44.10544" lon="6.668">
        <ele>2278.1999511719</ele>
        <time>2021-08-21T12:15:28.000Z</time>
      </trkpt>
      <trkpt lat="44.10544" lon="6.668">
        <ele>2278.1999511719</ele>
        <time>2021-08-21T12:15:43.000Z</time>
      </trkpt>
      <trkpt lat="44.10543" lon="6.66796">
        <ele>2278</ele>
        <time>2021-08-21T12:16:04.000Z</time>
      </trkpt>
      <trkpt lat="44.10543" lon="6.66795">
        <ele>2278</ele>
        <time>2021-08-21T12:16:24.000Z</time>
      </trkpt>
      <trkpt lat="44.10543" lon="6.66795">
        <ele>2277.8000488281</ele>
        <time>2021-08-21T12:16:40.000Z</time>
      </trkpt>
      <trkpt lat="44.10544" lon="6.66795">
        <ele>2277.8000488281</ele>
        <time>2021-08-21T12:17:01.000Z</time>
      </trkpt>
      <trkpt lat="44.10544" lon="6.66794">
        <ele>2278</ele>
        <time>2021-08-21T12:17:27.000Z</time>
      </trkpt>
      <trkpt lat="44.10543" lon="6.66792">
        <ele>2278.1999511719</ele>
        <time>2021-08-21T12:17:44.000Z</time>
      </trkpt>
      <trkpt lat="44.10542" lon="6.66791">
        <ele>2278</ele>
        <time>2021-08-21T12:18:01.000Z</time>
      </trkpt>
      <trkpt lat="44.10542" lon="6.66791">
        <ele>2278</ele>
        <time>2021-08-21T12:18:20.000Z</time>
      </trkpt>
      <trkpt lat="44.10543" lon="6.66792">
        <ele>2278.3999023438</ele>
        <time>2021-08-21T12:18:39.000Z</time>
      </trkpt>
      <trkpt lat="44.10543" lon="6.66792">
        <ele>2278</ele>
        <time>2021-08-21T12:18:59.000Z</time>
      </trkpt>
      <trkpt lat="44.10544" lon="6.66793">
        <ele>2278</ele>
        <time>2021-08-21T12:19:15.000Z</time>
      </trkpt>
      <trkpt lat="44.10544" lon="6.66794">
        <ele>2278</ele>
        <time>2021-08-21T12:19:30.000Z</time>
      </trkpt>
      <trkpt lat="44.10544" lon="6.66794">
        <ele>2277.6000976562</ele>
        <time>2021-08-21T12:19:43.000Z</time>
      </trkpt>
      <trkpt lat="44.10544" lon="6.66794">
        <ele>2278</ele>
        <time>2021-08-21T12:19:58.000Z</time>
      </trkpt>
      <trkpt lat="44.10544" lon="6.66792">
        <ele>2278</ele>
        <time>2021-08-21T12:20:13.000Z</time>
      </trkpt>
      <trkpt lat="44.10544" lon="6.66791">
        <ele>2278.1999511719</ele>
        <time>2021-08-21T12:20:17.000Z</time>
      </trkpt>
      <trkpt lat="44.10544" lon="6.66792">
        <ele>2278.6000976562</ele>
        <time>2021-08-21T12:20:26.000Z</time>
      </trkpt>
      <trkpt lat="44.10544" lon="6.66792">
        <ele>2278.8000488281</ele>
        <time>2021-08-21T12:20:30.000Z</time>
      </trkpt>
      <trkpt lat="44.10544" lon="6.66792">
        <ele>2278</ele>
        <time>2021-08-21T12:20:40.000Z</time>
      </trkpt>
      <trkpt lat="44.10543" lon="6.66792">
        <ele>2277.8000488281</ele>
        <time>2021-08-21T12:20:57.000Z</time>
      </trkpt>
      <trkpt lat="44.10543" lon="6.66792">
        <ele>2278</ele>
        <time>2021-08-21T12:21:16.000Z</time>
      </trkpt>
      <trkpt lat="44.10543" lon="6.66793">
        <ele>2277.8000488281</ele>
        <time>2021-08-21T12:21:40.000Z</time>
      </trkpt>
      <trkpt lat="44.10542" lon="6.66793">
        <ele>2277.6000976562</ele>
        <time>2021-08-21T12:21:56.000Z</time>
      </trkpt>
      <trkpt lat="44.10542" lon="6.66793">
        <ele>2277.6000976562</ele>
        <time>2021-08-21T12:21:57.000Z</time>
      </trkpt>
      <trkpt lat="44.10542" lon="6.66794">
        <ele>2277.6000976562</ele>
        <time>2021-08-21T12:22:19.000Z</time>
      </trkpt>
      <trkpt lat="44.10544" lon="6.66795">
        <ele>2277.8000488281</ele>
        <time>2021-08-21T12:22:27.000Z</time>
      </trkpt>
      <trkpt lat="44.10544" lon="6.66795">
        <ele>2277.6000976562</ele>
        <time>2021-08-21T12:22:42.000Z</time>
      </trkpt>
      <trkpt lat="44.10544" lon="6.66795">
        <ele>2277.6000976562</ele>
        <time>2021-08-21T12:22:51.000Z</time>
      </trkpt>
      <trkpt lat="44.10545" lon="6.66796">
        <ele>2277.6000976562</ele>
        <time>2021-08-21T12:22:58.000Z</time>
      </trkpt>
      <trkpt lat="44.10545" lon="6.66796">
        <ele>2277.6000976562</ele>
        <time>2021-08-21T12:22:59.000Z</time>
      </trkpt>
      <trkpt lat="44.10546" lon="6.66798">
        <ele>2277.6000976562</ele>
        <time>2021-08-21T12:23:02.000Z</time>
      </trkpt>
      <trkpt lat="44.10547" lon="6.66799">
        <ele>2278</ele>
        <time>2021-08-21T12:23:10.000Z</time>
      </trkpt>
      <trkpt lat="44.10546" lon="6.66796">
        <ele>2278</ele>
        <time>2021-08-21T12:23:19.000Z</time>
      </trkpt>
      <trkpt lat="44.10546" lon="6.66795">
        <ele>2278.1999511719</ele>
        <time>2021-08-21T12:23:25.000Z</time>
      </trkpt>
      <trkpt lat="44.10546" lon="6.66794">
        <ele>2278.1999511719</ele>
        <time>2021-08-21T12:23:26.000Z</time>
      </trkpt>
      <trkpt lat="44.10545" lon="6.66786">
        <ele>2278.1999511719</ele>
        <time>2021-08-21T12:23:29.000Z</time>
      </trkpt>
      <trkpt lat="44.1054" lon="6.66769">
        <ele>2278</ele>
        <time>2021-08-21T12:23:33.000Z</time>
      </trkpt>
      <trkpt lat="44.10539" lon="6.66765">
        <ele>2277.8000488281</ele>
        <time>2021-08-21T12:23:34.000Z</time>
      </trkpt>
      <trkpt lat="44.10539" lon="6.6675">
        <ele>2276.1999511719</ele>
        <time>2021-08-21T12:23:37.000Z</time>
      </trkpt>
      <trkpt lat="44.10539" lon="6.66741">
        <ele>2274.8000488281</ele>
        <time>2021-08-21T12:23:39.000Z</time>
      </trkpt>
      <trkpt lat="44.10542" lon="6.66732">
        <ele>2273.8000488281</ele>
        <time>2021-08-21T12:23:42.000Z</time>
      </trkpt>
      <trkpt lat="44.10545" lon="6.66725">
        <ele>2272</ele>
        <time>2021-08-21T12:23:44.000Z</time>
      </trkpt>
      <trkpt lat="44.10547" lon="6.66719">
        <ele>2270.6000976562</ele>
        <time>2021-08-21T12:23:46.000Z</time>
      </trkpt>
      <trkpt lat="44.10551" lon="6.66713">
        <ele>2269.3999023438</ele>
        <time>2021-08-21T12:23:48.000Z</time>
      </trkpt>
      <trkpt lat="44.10555" lon="6.66708">
        <ele>2268.1999511719</ele>
        <time>2021-08-21T12:23:50.000Z</time>
      </trkpt>
      <trkpt lat="44.10559" lon="6.66706">
        <ele>2266.6000976562</ele>
        <time>2021-08-21T12:23:52.000Z</time>
      </trkpt>
      <trkpt lat="44.10562" lon="6.66707">
        <ele>2265.1999511719</ele>
        <time>2021-08-21T12:23:54.000Z</time>
      </trkpt>
      <trkpt lat="44.10564" lon="6.66709">
        <ele>2264.6000976562</ele>
        <time>2021-08-21T12:23:55.000Z</time>
      </trkpt>
      <trkpt lat="44.10566" lon="6.66711">
        <ele>2264.1999511719</ele>
        <time>2021-08-21T12:23:56.000Z</time>
      </trkpt>
      <trkpt lat="44.10571" lon="6.66713">
        <ele>2263.1999511719</ele>
        <time>2021-08-21T12:23:58.000Z</time>
      </trkpt>
      <trkpt lat="44.10573" lon="6.66715">
        <ele>2262.8000488281</ele>
        <time>2021-08-21T12:23:59.000Z</time>
      </trkpt>
      <trkpt lat="44.10587" lon="6.66721">
        <ele>2262.6000976562</ele>
        <time>2021-08-21T12:24:04.000Z</time>
      </trkpt>
      <trkpt lat="44.10604" lon="6.66719">
        <ele>2262.6000976562</ele>
        <time>2021-08-21T12:24:09.000Z</time>
      </trkpt>
      <trkpt lat="44.10617" lon="6.66716">
        <ele>2262.3999023438</ele>
        <time>2021-08-21T12:24:14.000Z</time>
      </trkpt>
      <trkpt lat="44.1063" lon="6.66717">
        <ele>2262.3999023438</ele>
        <time>2021-08-21T12:24:19.000Z</time>
      </trkpt>
      <trkpt lat="44.1064" lon="6.66714">
        <ele>2262.6000976562</ele>
        <time>2021-08-21T12:24:24.000Z</time>
      </trkpt>
      <trkpt lat="44.10643" lon="6.66714">
        <ele>2262.6000976562</ele>
        <time>2021-08-21T12:24:25.000Z</time>
      </trkpt>
      <trkpt lat="44.10653" lon="6.66715">
        <ele>2262.6000976562</ele>
        <time>2021-08-21T12:24:29.000Z</time>
      </trkpt>
      <trkpt lat="44.10665" lon="6.66715">
        <ele>2262.8000488281</ele>
        <time>2021-08-21T12:24:35.000Z</time>
      </trkpt>
      <trkpt lat="44.10673" lon="6.66714">
        <ele>2263.3999023438</ele>
        <time>2021-08-21T12:24:39.000Z</time>
      </trkpt>
      <trkpt lat="44.10676" lon="6.66714">
        <ele>2263.3999023438</ele>
        <time>2021-08-21T12:24:40.000Z</time>
      </trkpt>
      <trkpt lat="44.10691" lon="6.66717">
        <ele>2263.6000976562</ele>
        <time>2021-08-21T12:24:46.000Z</time>
      </trkpt>
      <trkpt lat="44.10705" lon="6.66723">
        <ele>2263.8000488281</ele>
        <time>2021-08-21T12:24:52.000Z</time>
      </trkpt>
      <trkpt lat="44.10707" lon="6.66725">
        <ele>2263.8000488281</ele>
        <time>2021-08-21T12:24:53.000Z</time>
      </trkpt>
      <trkpt lat="44.10716" lon="6.66733">
        <ele>2264.8000488281</ele>
        <time>2021-08-21T12:25:00.000Z</time>
      </trkpt>
      <trkpt lat="44.10717" lon="6.66733">
        <ele>2265</ele>
        <time>2021-08-21T12:25:01.000Z</time>
      </trkpt>
      <trkpt lat="44.1072" lon="6.6673">
        <ele>2265.3999023438</ele>
        <time>2021-08-21T12:25:04.000Z</time>
      </trkpt>
      <trkpt lat="44.10726" lon="6.66727">
        <ele>2265.6000976562</ele>
        <time>2021-08-21T12:25:07.000Z</time>
      </trkpt>
      <trkpt lat="44.10731" lon="6.66726">
        <ele>2265.8000488281</ele>
        <time>2021-08-21T12:25:09.000Z</time>
      </trkpt>
      <trkpt lat="44.10742" lon="6.66721">
        <ele>2265.8000488281</ele>
        <time>2021-08-21T12:25:15.000Z</time>
      </trkpt>
      <trkpt lat="44.10764" lon="6.66712">
        <ele>2266</ele>
        <time>2021-08-21T12:25:25.000Z</time>
      </trkpt>
      <trkpt lat="44.1077" lon="6.66708">
        <ele>2266.1999511719</ele>
        <time>2021-08-21T12:25:28.000Z</time>
      </trkpt>
      <trkpt lat="44.10782" lon="6.66703">
        <ele>2266</ele>
        <time>2021-08-21T12:25:34.000Z</time>
      </trkpt>
      <trkpt lat="44.10786" lon="6.66703">
        <ele>2266.1999511719</ele>
        <time>2021-08-21T12:25:39.000Z</time>
      </trkpt>
      <trkpt lat="44.10787" lon="6.66702">
        <ele>2266.3999023438</ele>
        <time>2021-08-21T12:25:41.000Z</time>
      </trkpt>
      <trkpt lat="44.10789" lon="6.66699">
        <ele>2266.3999023438</ele>
        <time>2021-08-21T12:25:43.000Z</time>
      </trkpt>
      <trkpt lat="44.10791" lon="6.66695">
        <ele>2266</ele>
        <time>2021-08-21T12:25:46.000Z</time>
      </trkpt>
      <trkpt lat="44.10792" lon="6.66693">
        <ele>2265.6000976562</ele>
        <time>2021-08-21T12:25:49.000Z</time>
      </trkpt>
      <trkpt lat="44.10795" lon="6.66688">
        <ele>2266</ele>
        <time>2021-08-21T12:25:53.000Z</time>
      </trkpt>
      <trkpt lat="44.10807" lon="6.6668">
        <ele>2265.8000488281</ele>
        <time>2021-08-21T12:25:58.000Z</time>
      </trkpt>
      <trkpt lat="44.10818" lon="6.66671">
        <ele>2265.6000976562</ele>
        <time>2021-08-21T12:26:03.000Z</time>
      </trkpt>
      <trkpt lat="44.10834" lon="6.66655">
        <ele>2266.1999511719</ele>
        <time>2021-08-21T12:26:10.000Z</time>
      </trkpt>
      <trkpt lat="44.10836" lon="6.66653">
        <ele>2266.1999511719</ele>
        <time>2021-08-21T12:26:11.000Z</time>
      </trkpt>
      <trkpt lat="44.10855" lon="6.66634">
        <ele>2266.3999023438</ele>
        <time>2021-08-21T12:26:19.000Z</time>
      </trkpt>
      <trkpt lat="44.10873" lon="6.66618">
        <ele>2267</ele>
        <time>2021-08-21T12:26:26.000Z</time>
      </trkpt>
      <trkpt lat="44.10898" lon="6.66606">
        <ele>2266.6000976562</ele>
        <time>2021-08-21T12:26:35.000Z</time>
      </trkpt>
      <trkpt lat="44.10908" lon="6.66613">
        <ele>2266.8000488281</ele>
        <time>2021-08-21T12:26:39.000Z</time>
      </trkpt>
      <trkpt lat="44.10917" lon="6.66621">
        <ele>2267.1999511719</ele>
        <time>2021-08-21T12:26:43.000Z</time>
      </trkpt>
      <trkpt lat="44.1092" lon="6.66627">
        <ele>2267.6000976562</ele>
        <time>2021-08-21T12:26:45.000Z</time>
      </trkpt>
      <trkpt lat="44.10925" lon="6.66646">
        <ele>2268</ele>
        <time>2021-08-21T12:26:50.000Z</time>
      </trkpt>
      <trkpt lat="44.10926" lon="6.66668">
        <ele>2267.6000976562</ele>
        <time>2021-08-21T12:26:55.000Z</time>
      </trkpt>
      <trkpt lat="44.10932" lon="6.66698">
        <ele>2267.1999511719</ele>
        <time>2021-08-21T12:27:02.000Z</time>
      </trkpt>
      <trkpt lat="44.10939" lon="6.66726">
        <ele>2267.1999511719</ele>
        <time>2021-08-21T12:27:09.000Z</time>
      </trkpt>
      <trkpt lat="44.1094" lon="6.66746">
        <ele>2266.8000488281</ele>
        <time>2021-08-21T12:27:14.000Z</time>
      </trkpt>
      <trkpt lat="44.10947" lon="6.66763">
        <ele>2267.1999511719</ele>
        <time>2021-08-21T12:27:19.000Z</time>
      </trkpt>
      <trkpt lat="44.10951" lon="6.6677">
        <ele>2267.1999511719</ele>
        <time>2021-08-21T12:27:22.000Z</time>
      </trkpt>
      <trkpt lat="44.10953" lon="6.66775">
        <ele>2267.1999511719</ele>
        <time>2021-08-21T12:27:24.000Z</time>
      </trkpt>
      <trkpt lat="44.10955" lon="6.66781">
        <ele>2267.1999511719</ele>
        <time>2021-08-21T12:27:29.000Z</time>
      </trkpt>
      <trkpt lat="44.10957" lon="6.66785">
        <ele>2266.8000488281</ele>
        <time>2021-08-21T12:27:35.000Z</time>
      </trkpt>
      <trkpt lat="44.10958" lon="6.66791">
        <ele>2266.8000488281</ele>
        <time>2021-08-21T12:27:41.000Z</time>
      </trkpt>
      <trkpt lat="44.10958" lon="6.66793">
        <ele>2267</ele>
        <time>2021-08-21T12:27:42.000Z</time>
      </trkpt>
      <trkpt lat="44.10959" lon="6.66795">
        <ele>2267.8000488281</ele>
        <time>2021-08-21T12:27:48.000Z</time>
      </trkpt>
      <trkpt lat="44.10963" lon="6.66805">
        <ele>2267</ele>
        <time>2021-08-21T12:27:53.000Z</time>
      </trkpt>
      <trkpt lat="44.10966" lon="6.6681">
        <ele>2267.3999023438</ele>
        <time>2021-08-21T12:27:57.000Z</time>
      </trkpt>
      <trkpt lat="44.10973" lon="6.66822">
        <ele>2267.3999023438</ele>
        <time>2021-08-21T12:28:02.000Z</time>
      </trkpt>
      <trkpt lat="44.10977" lon="6.66834">
        <ele>2267.3999023438</ele>
        <time>2021-08-21T12:28:07.000Z</time>
      </trkpt>
      <trkpt lat="44.10978" lon="6.66834">
        <ele>2267.3999023438</ele>
        <time>2021-08-21T12:28:08.000Z</time>
      </trkpt>
      <trkpt lat="44.10983" lon="6.66838">
        <ele>2267.3999023438</ele>
        <time>2021-08-21T12:28:15.000Z</time>
      </trkpt>
      <trkpt lat="44.10985" lon="6.66839">
        <ele>2267.3999023438</ele>
        <time>2021-08-21T12:28:16.000Z</time>
      </trkpt>
      <trkpt lat="44.10991" lon="6.66837">
        <ele>2267.3999023438</ele>
        <time>2021-08-21T12:28:19.000Z</time>
      </trkpt>
      <trkpt lat="44.10999" lon="6.66836">
        <ele>2267.1999511719</ele>
        <time>2021-08-21T12:28:22.000Z</time>
      </trkpt>
      <trkpt lat="44.11001" lon="6.66837">
        <ele>2267</ele>
        <time>2021-08-21T12:28:23.000Z</time>
      </trkpt>
      <trkpt lat="44.11006" lon="6.66839">
        <ele>2266.3999023438</ele>
        <time>2021-08-21T12:28:25.000Z</time>
      </trkpt>
      <trkpt lat="44.11007" lon="6.66841">
        <ele>2266.1999511719</ele>
        <time>2021-08-21T12:28:26.000Z</time>
      </trkpt>
      <trkpt lat="44.11009" lon="6.66844">
        <ele>2266.1999511719</ele>
        <time>2021-08-21T12:28:28.000Z</time>
      </trkpt>
      <trkpt lat="44.11019" lon="6.66854">
        <ele>2266</ele>
        <time>2021-08-21T12:28:32.000Z</time>
      </trkpt>
      <trkpt lat="44.11028" lon="6.66863">
        <ele>2265.1999511719</ele>
        <time>2021-08-21T12:28:36.000Z</time>
      </trkpt>
      <trkpt lat="44.1103" lon="6.66866">
        <ele>2265.1999511719</ele>
        <time>2021-08-21T12:28:37.000Z</time>
      </trkpt>
      <trkpt lat="44.11037" lon="6.66872">
        <ele>2264.1999511719</ele>
        <time>2021-08-21T12:28:41.000Z</time>
      </trkpt>
      <trkpt lat="44.11039" lon="6.66875">
        <ele>2263</ele>
        <time>2021-08-21T12:28:43.000Z</time>
      </trkpt>
      <trkpt lat="44.11039" lon="6.66875">
        <ele>2262.3999023438</ele>
        <time>2021-08-21T12:28:45.000Z</time>
      </trkpt>
      <trkpt lat="44.11043" lon="6.66876">
        <ele>2261.8000488281</ele>
        <time>2021-08-21T12:28:49.000Z</time>
      </trkpt>
      <trkpt lat="44.11044" lon="6.66876">
        <ele>2261.8000488281</ele>
        <time>2021-08-21T12:28:50.000Z</time>
      </trkpt>
      <trkpt lat="44.11047" lon="6.66875">
        <ele>2261.6000976562</ele>
        <time>2021-08-21T12:28:53.000Z</time>
      </trkpt>
      <trkpt lat="44.1105" lon="6.66874">
        <ele>2261.6000976562</ele>
        <time>2021-08-21T12:28:56.000Z</time>
      </trkpt>
      <trkpt lat="44.11051" lon="6.66874">
        <ele>2261.6000976562</ele>
        <time>2021-08-21T12:28:57.000Z</time>
      </trkpt>
      <trkpt lat="44.11052" lon="6.66872">
        <ele>2261.8000488281</ele>
        <time>2021-08-21T12:29:02.000Z</time>
      </trkpt>
      <trkpt lat="44.11054" lon="6.66872">
        <ele>2261.8000488281</ele>
        <time>2021-08-21T12:29:03.000Z</time>
      </trkpt>
      <trkpt lat="44.11059" lon="6.66869">
        <ele>2261.8000488281</ele>
        <time>2021-08-21T12:29:06.000Z</time>
      </trkpt>
      <trkpt lat="44.1107" lon="6.66865">
        <ele>2262.1999511719</ele>
        <time>2021-08-21T12:29:12.000Z</time>
      </trkpt>
      <trkpt lat="44.11083" lon="6.66862">
        <ele>2261.6000976562</ele>
        <time>2021-08-21T12:29:17.000Z</time>
      </trkpt>
      <trkpt lat="44.11099" lon="6.66867">
        <ele>2261.1999511719</ele>
        <time>2021-08-21T12:29:23.000Z</time>
      </trkpt>
      <trkpt lat="44.11104" lon="6.66869">
        <ele>2260.8000488281</ele>
        <time>2021-08-21T12:29:25.000Z</time>
      </trkpt>
      <trkpt lat="44.11118" lon="6.66875">
        <ele>2261.1999511719</ele>
        <time>2021-08-21T12:29:30.000Z</time>
      </trkpt>
      <trkpt lat="44.11134" lon="6.66886">
        <ele>2261</ele>
        <time>2021-08-21T12:29:36.000Z</time>
      </trkpt>
      <trkpt lat="44.11143" lon="6.66903">
        <ele>2261.1999511719</ele>
        <time>2021-08-21T12:29:41.000Z</time>
      </trkpt>
      <trkpt lat="44.11151" lon="6.66923">
        <ele>2261.1999511719</ele>
        <time>2021-08-21T12:29:46.000Z</time>
      </trkpt>
      <trkpt lat="44.11167" lon="6.66946">
        <ele>2261.6000976562</ele>
        <time>2021-08-21T12:29:53.000Z</time>
      </trkpt>
      <trkpt lat="44.11183" lon="6.66972">
        <ele>2261.1999511719</ele>
        <time>2021-08-21T12:30:00.000Z</time>
      </trkpt>
      <trkpt lat="44.11204" lon="6.67001">
        <ele>2260.6000976562</ele>
        <time>2021-08-21T12:30:08.000Z</time>
      </trkpt>
      <trkpt lat="44.11215" lon="6.67008">
        <ele>2259.8000488281</ele>
        <time>2021-08-21T12:30:11.000Z</time>
      </trkpt>
      <trkpt lat="44.11225" lon="6.67016">
        <ele>2259.3999023438</ele>
        <time>2021-08-21T12:30:14.000Z</time>
      </trkpt>
      <trkpt lat="44.11233" lon="6.67022">
        <ele>2258.8000488281</ele>
        <time>2021-08-21T12:30:17.000Z</time>
      </trkpt>
      <trkpt lat="44.11237" lon="6.67024">
        <ele>2258.8000488281</ele>
        <time>2021-08-21T12:30:18.000Z</time>
      </trkpt>
      <trkpt lat="44.11242" lon="6.67032">
        <ele>2258.6000976562</ele>
        <time>2021-08-21T12:30:20.000Z</time>
      </trkpt>
      <trkpt lat="44.11244" lon="6.67037">
        <ele>2258.1999511719</ele>
        <time>2021-08-21T12:30:21.000Z</time>
      </trkpt>
      <trkpt lat="44.11246" lon="6.6704">
        <ele>2257.6000976562</ele>
        <time>2021-08-21T12:30:22.000Z</time>
      </trkpt>
      <trkpt lat="44.11251" lon="6.67053">
        <ele>2257.1999511719</ele>
        <time>2021-08-21T12:30:26.000Z</time>
      </trkpt>
      <trkpt lat="44.11255" lon="6.67058">
        <ele>2257.8000488281</ele>
        <time>2021-08-21T12:30:29.000Z</time>
      </trkpt>
      <trkpt lat="44.11261" lon="6.67059">
        <ele>2258</ele>
        <time>2021-08-21T12:30:31.000Z</time>
      </trkpt>
      <trkpt lat="44.11277" lon="6.6706">
        <ele>2258.6000976562</ele>
        <time>2021-08-21T12:30:38.000Z</time>
      </trkpt>
      <trkpt lat="44.11279" lon="6.6706">
        <ele>2259.1999511719</ele>
        <time>2021-08-21T12:30:39.000Z</time>
      </trkpt>
      <trkpt lat="44.11291" lon="6.67062">
        <ele>2260.1999511719</ele>
        <time>2021-08-21T12:30:45.000Z</time>
      </trkpt>
      <trkpt lat="44.11294" lon="6.67063">
        <ele>2260.3999023438</ele>
        <time>2021-08-21T12:30:46.000Z</time>
      </trkpt>
      <trkpt lat="44.11309" lon="6.67069">
        <ele>2261.1999511719</ele>
        <time>2021-08-21T12:30:53.000Z</time>
      </trkpt>
      <trkpt lat="44.11321" lon="6.67067">
        <ele>2261.3999023438</ele>
        <time>2021-08-21T12:30:58.000Z</time>
      </trkpt>
      <trkpt lat="44.11334" lon="6.67061">
        <ele>2262.1999511719</ele>
        <time>2021-08-21T12:31:06.000Z</time>
      </trkpt>
      <trkpt lat="44.11335" lon="6.67061">
        <ele>2262.3999023438</ele>
        <time>2021-08-21T12:31:07.000Z</time>
      </trkpt>
      <trkpt lat="44.11344" lon="6.67059">
        <ele>2263.6000976562</ele>
        <time>2021-08-21T12:31:13.000Z</time>
      </trkpt>
      <trkpt lat="44.11355" lon="6.67059">
        <ele>2264</ele>
        <time>2021-08-21T12:31:20.000Z</time>
      </trkpt>
      <trkpt lat="44.11359" lon="6.67057">
        <ele>2264.6000976562</ele>
        <time>2021-08-21T12:31:23.000Z</time>
      </trkpt>
      <trkpt lat="44.11364" lon="6.67055">
        <ele>2265.1999511719</ele>
        <time>2021-08-21T12:31:27.000Z</time>
      </trkpt>
      <trkpt lat="44.11369" lon="6.67053">
        <ele>2265.6000976562</ele>
        <time>2021-08-21T12:31:30.000Z</time>
      </trkpt>
      <trkpt lat="44.11379" lon="6.67052">
        <ele>2266.3999023438</ele>
        <time>2021-08-21T12:31:37.000Z</time>
      </trkpt>
      <trkpt lat="44.11382" lon="6.67052">
        <ele>2266.8000488281</ele>
        <time>2021-08-21T12:31:39.000Z</time>
      </trkpt>
      <trkpt lat="44.11392" lon="6.6705">
        <ele>2266.8000488281</ele>
        <time>2021-08-21T12:31:45.000Z</time>
      </trkpt>
      <trkpt lat="44.11406" lon="6.67046">
        <ele>2267.3999023438</ele>
        <time>2021-08-21T12:31:54.000Z</time>
      </trkpt>
      <trkpt lat="44.11419" lon="6.67047">
        <ele>2267.8000488281</ele>
        <time>2021-08-21T12:32:01.000Z</time>
      </trkpt>
      <trkpt lat="44.11429" lon="6.67046">
        <ele>2269</ele>
        <time>2021-08-21T12:32:08.000Z</time>
      </trkpt>
      <trkpt lat="44.11432" lon="6.67045">
        <ele>2269.3999023438</ele>
        <time>2021-08-21T12:32:10.000Z</time>
      </trkpt>
      <trkpt lat="44.11443" lon="6.67043">
        <ele>2269.8000488281</ele>
        <time>2021-08-21T12:32:17.000Z</time>
      </trkpt>
      <trkpt lat="44.11447" lon="6.67042">
        <ele>2270.1999511719</ele>
        <time>2021-08-21T12:32:19.000Z</time>
      </trkpt>
      <trkpt lat="44.11452" lon="6.67041">
        <ele>2271.1999511719</ele>
        <time>2021-08-21T12:32:23.000Z</time>
      </trkpt>
      <trkpt lat="44.11453" lon="6.6704">
        <ele>2271.3999023438</ele>
        <time>2021-08-21T12:32:24.000Z</time>
      </trkpt>
      <trkpt lat="44.11455" lon="6.67038">
        <ele>2272</ele>
        <time>2021-08-21T12:32:26.000Z</time>
      </trkpt>
      <trkpt lat="44.11455" lon="6.67036">
        <ele>2272.1999511719</ele>
        <time>2021-08-21T12:32:27.000Z</time>
      </trkpt>
      <trkpt lat="44.11456" lon="6.67032">
        <ele>2273</ele>
        <time>2021-08-21T12:32:30.000Z</time>
      </trkpt>
      <trkpt lat="44.11456" lon="6.6703">
        <ele>2273.1999511719</ele>
        <time>2021-08-21T12:32:31.000Z</time>
      </trkpt>
      <trkpt lat="44.11456" lon="6.6703">
        <ele>2273.3999023438</ele>
        <time>2021-08-21T12:32:33.000Z</time>
      </trkpt>
      <trkpt lat="44.11456" lon="6.6703">
        <ele>2273.6000976562</ele>
        <time>2021-08-21T12:32:36.000Z</time>
      </trkpt>
      <trkpt lat="44.11457" lon="6.67024">
        <ele>2273.6000976562</ele>
        <time>2021-08-21T12:32:48.000Z</time>
      </trkpt>
      <trkpt lat="44.11461" lon="6.67006">
        <ele>2274</ele>
        <time>2021-08-21T12:32:56.000Z</time>
      </trkpt>
      <trkpt lat="44.11463" lon="6.67002">
        <ele>2274.3999023438</ele>
        <time>2021-08-21T12:32:58.000Z</time>
      </trkpt>
      <trkpt lat="44.11465" lon="6.66987">
        <ele>2275</ele>
        <time>2021-08-21T12:33:04.000Z</time>
      </trkpt>
      <trkpt lat="44.11465" lon="6.66978">
        <ele>2275.6000976562</ele>
        <time>2021-08-21T12:33:08.000Z</time>
      </trkpt>
      <trkpt lat="44.11468" lon="6.66969">
        <ele>2276</ele>
        <time>2021-08-21T12:33:12.000Z</time>
      </trkpt>
      <trkpt lat="44.11468" lon="6.66956">
        <ele>2276.8000488281</ele>
        <time>2021-08-21T12:33:17.000Z</time>
      </trkpt>
      <trkpt lat="44.11467" lon="6.66939">
        <ele>2277.6000976562</ele>
        <time>2021-08-21T12:33:24.000Z</time>
      </trkpt>
      <trkpt lat="44.11466" lon="6.66937">
        <ele>2277.8000488281</ele>
        <time>2021-08-21T12:33:25.000Z</time>
      </trkpt>
      <trkpt lat="44.11463" lon="6.66924">
        <ele>2278.8000488281</ele>
        <time>2021-08-21T12:33:31.000Z</time>
      </trkpt>
      <trkpt lat="44.11463" lon="6.66923">
        <ele>2278.8000488281</ele>
        <time>2021-08-21T12:33:32.000Z</time>
      </trkpt>
      <trkpt lat="44.11464" lon="6.66912">
        <ele>2279</ele>
        <time>2021-08-21T12:33:36.000Z</time>
      </trkpt>
      <trkpt lat="44.11465" lon="6.66899">
        <ele>2279.1999511719</ele>
        <time>2021-08-21T12:33:41.000Z</time>
      </trkpt>
      <trkpt lat="44.11469" lon="6.66884">
        <ele>2278.6000976562</ele>
        <time>2021-08-21T12:33:47.000Z</time>
      </trkpt>
      <trkpt lat="44.11476" lon="6.66871">
        <ele>2279</ele>
        <time>2021-08-21T12:33:53.000Z</time>
      </trkpt>
      <trkpt lat="44.11478" lon="6.66864">
        <ele>2278.8000488281</ele>
        <time>2021-08-21T12:33:56.000Z</time>
      </trkpt>
      <trkpt lat="44.11477" lon="6.6686">
        <ele>2279</ele>
        <time>2021-08-21T12:33:58.000Z</time>
      </trkpt>
      <trkpt lat="44.11469" lon="6.66855">
        <ele>2279.1999511719</ele>
        <time>2021-08-21T12:34:02.000Z</time>
      </trkpt>
      <trkpt lat="44.11463" lon="6.6685">
        <ele>2279.1999511719</ele>
        <time>2021-08-21T12:34:05.000Z</time>
      </trkpt>
      <trkpt lat="44.11459" lon="6.66846">
        <ele>2279</ele>
        <time>2021-08-21T12:34:07.000Z</time>
      </trkpt>
      <trkpt lat="44.11454" lon="6.66838">
        <ele>2279.1999511719</ele>
        <time>2021-08-21T12:34:11.000Z</time>
      </trkpt>
      <trkpt lat="44.11451" lon="6.66837">
        <ele>2279.1999511719</ele>
        <time>2021-08-21T12:34:12.000Z</time>
      </trkpt>
      <trkpt lat="44.11439" lon="6.66825">
        <ele>2279.8000488281</ele>
        <time>2021-08-21T12:34:17.000Z</time>
      </trkpt>
      <trkpt lat="44.11437" lon="6.66823">
        <ele>2279.6000976562</ele>
        <time>2021-08-21T12:34:18.000Z</time>
      </trkpt>
      <trkpt lat="44.11431" lon="6.66812">
        <ele>2278.6000976562</ele>
        <time>2021-08-21T12:34:23.000Z</time>
      </trkpt>
      <trkpt lat="44.11428" lon="6.66791">
        <ele>2279.1999511719</ele>
        <time>2021-08-21T12:34:30.000Z</time>
      </trkpt>
      <trkpt lat="44.11428" lon="6.66771">
        <ele>2278.8000488281</ele>
        <time>2021-08-21T12:34:36.000Z</time>
      </trkpt>
      <trkpt lat="44.11426" lon="6.66752">
        <ele>2278.8000488281</ele>
        <time>2021-08-21T12:34:42.000Z</time>
      </trkpt>
      <trkpt lat="44.11426" lon="6.66749">
        <ele>2278.6000976562</ele>
        <time>2021-08-21T12:34:43.000Z</time>
      </trkpt>
      <trkpt lat="44.11421" lon="6.66743">
        <ele>2278.8000488281</ele>
        <time>2021-08-21T12:34:46.000Z</time>
      </trkpt>
      <trkpt lat="44.11417" lon="6.66739">
        <ele>2279.1999511719</ele>
        <time>2021-08-21T12:34:48.000Z</time>
      </trkpt>
      <trkpt lat="44.11407" lon="6.66732">
        <ele>2279</ele>
        <time>2021-08-21T12:34:53.000Z</time>
      </trkpt>
      <trkpt lat="44.11399" lon="6.66718">
        <ele>2279.8000488281</ele>
        <time>2021-08-21T12:34:58.000Z</time>
      </trkpt>
      <trkpt lat="44.11396" lon="6.6671">
        <ele>2279.1999511719</ele>
        <time>2021-08-21T12:35:02.000Z</time>
      </trkpt>
      <trkpt lat="44.11396" lon="6.66709">
        <ele>2278.8000488281</ele>
        <time>2021-08-21T12:35:03.000Z</time>
      </trkpt>
      <trkpt lat="44.11393" lon="6.66705">
        <ele>2278</ele>
        <time>2021-08-21T12:35:07.000Z</time>
      </trkpt>
      <trkpt lat="44.11388" lon="6.66697">
        <ele>2278.3999023438</ele>
        <time>2021-08-21T12:35:14.000Z</time>
      </trkpt>
      <trkpt lat="44.11387" lon="6.66694">
        <ele>2279</ele>
        <time>2021-08-21T12:35:18.000Z</time>
      </trkpt>
      <trkpt lat="44.11386" lon="6.66693">
        <ele>2279</ele>
        <time>2021-08-21T12:35:19.000Z</time>
      </trkpt>
      <trkpt lat="44.1138" lon="6.66681">
        <ele>2279.3999023438</ele>
        <time>2021-08-21T12:35:24.000Z</time>
      </trkpt>
      <trkpt lat="44.11378" lon="6.66666">
        <ele>2279.8000488281</ele>
        <time>2021-08-21T12:35:30.000Z</time>
      </trkpt>
      <trkpt lat="44.11377" lon="6.66663">
        <ele>2279.8000488281</ele>
        <time>2021-08-21T12:35:31.000Z</time>
      </trkpt>
      <trkpt lat="44.11372" lon="6.66654">
        <ele>2279.3999023438</ele>
        <time>2021-08-21T12:35:35.000Z</time>
      </trkpt>
      <trkpt lat="44.11363" lon="6.66642">
        <ele>2279</ele>
        <time>2021-08-21T12:35:41.000Z</time>
      </trkpt>
      <trkpt lat="44.11357" lon="6.66642">
        <ele>2279</ele>
        <time>2021-08-21T12:35:44.000Z</time>
      </trkpt>
      <trkpt lat="44.11356" lon="6.66638">
        <ele>2279</ele>
        <time>2021-08-21T12:35:46.000Z</time>
      </trkpt>
      <trkpt lat="44.11348" lon="6.66634">
        <ele>2279.1999511719</ele>
        <time>2021-08-21T12:35:50.000Z</time>
      </trkpt>
      <trkpt lat="44.11333" lon="6.66622">
        <ele>2279.8000488281</ele>
        <time>2021-08-21T12:35:56.000Z</time>
      </trkpt>
      <trkpt lat="44.11313" lon="6.66606">
        <ele>2279.3999023438</ele>
        <time>2021-08-21T12:36:03.000Z</time>
      </trkpt>
      <trkpt lat="44.11301" lon="6.66588">
        <ele>2280</ele>
        <time>2021-08-21T12:36:08.000Z</time>
      </trkpt>
      <trkpt lat="44.11295" lon="6.66561">
        <ele>2278.8000488281</ele>
        <time>2021-08-21T12:36:15.000Z</time>
      </trkpt>
      <trkpt lat="44.11294" lon="6.66558">
        <ele>2278.8000488281</ele>
        <time>2021-08-21T12:36:16.000Z</time>
      </trkpt>
      <trkpt lat="44.11292" lon="6.66553">
        <ele>2278</ele>
        <time>2021-08-21T12:36:19.000Z</time>
      </trkpt>
      <trkpt lat="44.11292" lon="6.66551">
        <ele>2277.8000488281</ele>
        <time>2021-08-21T12:36:20.000Z</time>
      </trkpt>
      <trkpt lat="44.11291" lon="6.66531">
        <ele>2279</ele>
        <time>2021-08-21T12:36:26.000Z</time>
      </trkpt>
      <trkpt lat="44.1129" lon="6.66516">
        <ele>2279</ele>
        <time>2021-08-21T12:36:30.000Z</time>
      </trkpt>
      <trkpt lat="44.11291" lon="6.66514">
        <ele>2278.8000488281</ele>
        <time>2021-08-21T12:36:31.000Z</time>
      </trkpt>
      <trkpt lat="44.1129" lon="6.66505">
        <ele>2278.1999511719</ele>
        <time>2021-08-21T12:36:35.000Z</time>
      </trkpt>
      <trkpt lat="44.11289" lon="6.66502">
        <ele>2278.1999511719</ele>
        <time>2021-08-21T12:36:36.000Z</time>
      </trkpt>
      <trkpt lat="44.11291" lon="6.66484">
        <ele>2278.1999511719</ele>
        <time>2021-08-21T12:36:41.000Z</time>
      </trkpt>
      <trkpt lat="44.11296" lon="6.66478">
        <ele>2278.1999511719</ele>
        <time>2021-08-21T12:36:46.000Z</time>
      </trkpt>
      <trkpt lat="44.11296" lon="6.66477">
        <ele>2278.1999511719</ele>
        <time>2021-08-21T12:36:47.000Z</time>
      </trkpt>
      <trkpt lat="44.11295" lon="6.66474">
        <ele>2278.3999023438</ele>
        <time>2021-08-21T12:36:50.000Z</time>
      </trkpt>
      <trkpt lat="44.11294" lon="6.66473">
        <ele>2278.1999511719</ele>
        <time>2021-08-21T12:36:51.000Z</time>
      </trkpt>
      <trkpt lat="44.11294" lon="6.66463">
        <ele>2278.1999511719</ele>
        <time>2021-08-21T12:36:55.000Z</time>
      </trkpt>
      <trkpt lat="44.11295" lon="6.6646">
        <ele>2278.3999023438</ele>
        <time>2021-08-21T12:36:56.000Z</time>
      </trkpt>
      <trkpt lat="44.11298" lon="6.66452">
        <ele>2278.6000976562</ele>
        <time>2021-08-21T12:37:00.000Z</time>
      </trkpt>
      <trkpt lat="44.11299" lon="6.66447">
        <ele>2278.8000488281</ele>
        <time>2021-08-21T12:37:02.000Z</time>
      </trkpt>
      <trkpt lat="44.11303" lon="6.66429">
        <ele>2279</ele>
        <time>2021-08-21T12:37:08.000Z</time>
      </trkpt>
      <trkpt lat="44.11315" lon="6.66414">
        <ele>2279.1999511719</ele>
        <time>2021-08-21T12:37:14.000Z</time>
      </trkpt>
      <trkpt lat="44.11323" lon="6.66406">
        <ele>2279.8000488281</ele>
        <time>2021-08-21T12:37:18.000Z</time>
      </trkpt>
      <trkpt lat="44.11326" lon="6.66404">
        <ele>2279.6000976562</ele>
        <time>2021-08-21T12:37:19.000Z</time>
      </trkpt>
      <trkpt lat="44.11341" lon="6.66401">
        <ele>2279.1999511719</ele>
        <time>2021-08-21T12:37:24.000Z</time>
      </trkpt>
      <trkpt lat="44.11348" lon="6.66399">
        <ele>2279.1999511719</ele>
        <time>2021-08-21T12:37:29.000Z</time>
      </trkpt>
      <trkpt lat="44.11349" lon="6.664">
        <ele>2279.3999023438</ele>
        <time>2021-08-21T12:37:30.000Z</time>
      </trkpt>
      <trkpt lat="44.1135" lon="6.664">
        <ele>2279.6000976562</ele>
        <time>2021-08-21T12:37:33.000Z</time>
      </trkpt>
      <trkpt lat="44.11351" lon="6.664">
        <ele>2279.3999023438</ele>
        <time>2021-08-21T12:37:34.000Z</time>
      </trkpt>
      <trkpt lat="44.11355" lon="6.66399">
        <ele>2279</ele>
        <time>2021-08-21T12:37:39.000Z</time>
      </trkpt>
      <trkpt lat="44.11357" lon="6.66399">
        <ele>2279</ele>
        <time>2021-08-21T12:37:40.000Z</time>
      </trkpt>
      <trkpt lat="44.11368" lon="6.66402">
        <ele>2278.8000488281</ele>
        <time>2021-08-21T12:37:46.000Z</time>
      </trkpt>
      <trkpt lat="44.11377" lon="6.66398">
        <ele>2279.3999023438</ele>
        <time>2021-08-21T12:37:51.000Z</time>
      </trkpt>
      <trkpt lat="44.1138" lon="6.66387">
        <ele>2279.1999511719</ele>
        <time>2021-08-21T12:37:55.000Z</time>
      </trkpt>
      <trkpt lat="44.1139" lon="6.66381">
        <ele>2279.6000976562</ele>
        <time>2021-08-21T12:37:59.000Z</time>
      </trkpt>
      <trkpt lat="44.11393" lon="6.66379">
        <ele>2279.8000488281</ele>
        <time>2021-08-21T12:38:00.000Z</time>
      </trkpt>
      <trkpt lat="44.11395" lon="6.66372">
        <ele>2279.1999511719</ele>
        <time>2021-08-21T12:38:03.000Z</time>
      </trkpt>
      <trkpt lat="44.11404" lon="6.6636">
        <ele>2279.1999511719</ele>
        <time>2021-08-21T12:38:08.000Z</time>
      </trkpt>
      <trkpt lat="44.1142" lon="6.6635">
        <ele>2279.6000976562</ele>
        <time>2021-08-21T12:38:14.000Z</time>
      </trkpt>
      <trkpt lat="44.1144" lon="6.66349">
        <ele>2278.8000488281</ele>
        <time>2021-08-21T12:38:21.000Z</time>
      </trkpt>
      <trkpt lat="44.11442" lon="6.6635">
        <ele>2278.6000976562</ele>
        <time>2021-08-21T12:38:22.000Z</time>
      </trkpt>
      <trkpt lat="44.1145" lon="6.6635">
        <ele>2278.1999511719</ele>
        <time>2021-08-21T12:38:26.000Z</time>
      </trkpt>
      <trkpt lat="44.11466" lon="6.66345">
        <ele>2278.8000488281</ele>
        <time>2021-08-21T12:38:33.000Z</time>
      </trkpt>
      <trkpt lat="44.11475" lon="6.66337">
        <ele>2278.8000488281</ele>
        <time>2021-08-21T12:38:38.000Z</time>
      </trkpt>
      <trkpt lat="44.11478" lon="6.66334">
        <ele>2279</ele>
        <time>2021-08-21T12:38:40.000Z</time>
      </trkpt>
      <trkpt lat="44.11481" lon="6.66326">
        <ele>2279.1999511719</ele>
        <time>2021-08-21T12:38:43.000Z</time>
      </trkpt>
      <trkpt lat="44.1149" lon="6.66312">
        <ele>2278.8000488281</ele>
        <time>2021-08-21T12:38:48.000Z</time>
      </trkpt>
      <trkpt lat="44.11493" lon="6.66306">
        <ele>2278.6000976562</ele>
        <time>2021-08-21T12:38:50.000Z</time>
      </trkpt>
      <trkpt lat="44.11501" lon="6.66294">
        <ele>2278.1999511719</ele>
        <time>2021-08-21T12:38:55.000Z</time>
      </trkpt>
      <trkpt lat="44.11502" lon="6.66294">
        <ele>2278</ele>
        <time>2021-08-21T12:38:56.000Z</time>
      </trkpt>
      <trkpt lat="44.11503" lon="6.66293">
        <ele>2278</ele>
        <time>2021-08-21T12:38:59.000Z</time>
      </trkpt>
      <trkpt lat="44.11506" lon="6.66291">
        <ele>2278.1999511719</ele>
        <time>2021-08-21T12:39:04.000Z</time>
      </trkpt>
      <trkpt lat="44.1151" lon="6.66284">
        <ele>2278.8000488281</ele>
        <time>2021-08-21T12:39:11.000Z</time>
      </trkpt>
      <trkpt lat="44.11514" lon="6.66276">
        <ele>2279.3999023438</ele>
        <time>2021-08-21T12:39:16.000Z</time>
      </trkpt>
      <trkpt lat="44.1152" lon="6.66258">
        <ele>2277.8000488281</ele>
        <time>2021-08-21T12:39:21.000Z</time>
      </trkpt>
      <trkpt lat="44.11522" lon="6.66257">
        <ele>2277.6000976562</ele>
        <time>2021-08-21T12:39:22.000Z</time>
      </trkpt>
      <trkpt lat="44.11525" lon="6.66255">
        <ele>2277.3999023438</ele>
        <time>2021-08-21T12:39:25.000Z</time>
      </trkpt>
      <trkpt lat="44.11527" lon="6.66255">
        <ele>2277</ele>
        <time>2021-08-21T12:39:30.000Z</time>
      </trkpt>
      <trkpt lat="44.11527" lon="6.66254">
        <ele>2276.3999023438</ele>
        <time>2021-08-21T12:39:32.000Z</time>
      </trkpt>
      <trkpt lat="44.11529" lon="6.66251">
        <ele>2277</ele>
        <time>2021-08-21T12:39:36.000Z</time>
      </trkpt>
      <trkpt lat="44.11528" lon="6.66244">
        <ele>2277.3999023438</ele>
        <time>2021-08-21T12:39:42.000Z</time>
      </trkpt>
      <trkpt lat="44.11527" lon="6.66242">
        <ele>2277.6000976562</ele>
        <time>2021-08-21T12:39:45.000Z</time>
      </trkpt>
      <trkpt lat="44.11528" lon="6.66239">
        <ele>2277.6000976562</ele>
        <time>2021-08-21T12:39:47.000Z</time>
      </trkpt>
      <trkpt lat="44.11536" lon="6.66229">
        <ele>2277.1999511719</ele>
        <time>2021-08-21T12:39:52.000Z</time>
      </trkpt>
      <trkpt lat="44.11536" lon="6.66227">
        <ele>2277.1999511719</ele>
        <time>2021-08-21T12:39:53.000Z</time>
      </trkpt>
      <trkpt lat="44.11536" lon="6.66221">
        <ele>2276.8000488281</ele>
        <time>2021-08-21T12:39:55.000Z</time>
      </trkpt>
      <trkpt lat="44.11536" lon="6.66213">
        <ele>2276.6000976562</ele>
        <time>2021-08-21T12:39:57.000Z</time>
      </trkpt>
      <trkpt lat="44.11536" lon="6.6621">
        <ele>2276.3999023438</ele>
        <time>2021-08-21T12:39:58.000Z</time>
      </trkpt>
      <trkpt lat="44.11538" lon="6.66202">
        <ele>2276.3999023438</ele>
        <time>2021-08-21T12:40:00.000Z</time>
      </trkpt>
      <trkpt lat="44.11545" lon="6.66189">
        <ele>2276.1999511719</ele>
        <time>2021-08-21T12:40:03.000Z</time>
      </trkpt>
      <trkpt lat="44.1155" lon="6.66182">
        <ele>2276</ele>
        <time>2021-08-21T12:40:05.000Z</time>
      </trkpt>
      <trkpt lat="44.11556" lon="6.66179">
        <ele>2275.1999511719</ele>
        <time>2021-08-21T12:40:08.000Z</time>
      </trkpt>
      <trkpt lat="44.11556" lon="6.66177">
        <ele>2275</ele>
        <time>2021-08-21T12:40:09.000Z</time>
      </trkpt>
      <trkpt lat="44.11556" lon="6.6617">
        <ele>2274.6000976562</ele>
        <time>2021-08-21T12:40:12.000Z</time>
      </trkpt>
      <trkpt lat="44.11558" lon="6.66159">
        <ele>2274.3999023438</ele>
        <time>2021-08-21T12:40:16.000Z</time>
      </trkpt>
      <trkpt lat="44.11561" lon="6.66155">
        <ele>2274.1999511719</ele>
        <time>2021-08-21T12:40:18.000Z</time>
      </trkpt>
      <trkpt lat="44.11565" lon="6.66153">
        <ele>2274.1999511719</ele>
        <time>2021-08-21T12:40:20.000Z</time>
      </trkpt>
      <trkpt lat="44.11579" lon="6.66151">
        <ele>2273.8000488281</ele>
        <time>2021-08-21T12:40:26.000Z</time>
      </trkpt>
      <trkpt lat="44.1158" lon="6.6615">
        <ele>2273.8000488281</ele>
        <time>2021-08-21T12:40:27.000Z</time>
      </trkpt>
      <trkpt lat="44.11587" lon="6.66145">
        <ele>2274</ele>
        <time>2021-08-21T12:40:31.000Z</time>
      </trkpt>
      <trkpt lat="44.1159" lon="6.66142">
        <ele>2274.3999023438</ele>
        <time>2021-08-21T12:40:33.000Z</time>
      </trkpt>
      <trkpt lat="44.1159" lon="6.66138">
        <ele>2274.6000976562</ele>
        <time>2021-08-21T12:40:35.000Z</time>
      </trkpt>
      <trkpt lat="44.11589" lon="6.66132">
        <ele>2274.8000488281</ele>
        <time>2021-08-21T12:40:37.000Z</time>
      </trkpt>
      <trkpt lat="44.11587" lon="6.66125">
        <ele>2275.1999511719</ele>
        <time>2021-08-21T12:40:39.000Z</time>
      </trkpt>
      <trkpt lat="44.11586" lon="6.66121">
        <ele>2275.3999023438</ele>
        <time>2021-08-21T12:40:40.000Z</time>
      </trkpt>
      <trkpt lat="44.11581" lon="6.66098">
        <ele>2274.6000976562</ele>
        <time>2021-08-21T12:40:46.000Z</time>
      </trkpt>
      <trkpt lat="44.11581" lon="6.66088">
        <ele>2274</ele>
        <time>2021-08-21T12:40:48.000Z</time>
      </trkpt>
      <trkpt lat="44.11581" lon="6.66073">
        <ele>2272.6000976562</ele>
        <time>2021-08-21T12:40:51.000Z</time>
      </trkpt>
      <trkpt lat="44.11582" lon="6.66054">
        <ele>2271.8000488281</ele>
        <time>2021-08-21T12:40:56.000Z</time>
      </trkpt>
      <trkpt lat="44.11582" lon="6.6605">
        <ele>2271.3999023438</ele>
        <time>2021-08-21T12:40:57.000Z</time>
      </trkpt>
      <trkpt lat="44.11587" lon="6.66032">
        <ele>2271</ele>
        <time>2021-08-21T12:41:01.000Z</time>
      </trkpt>
      <trkpt lat="44.11593" lon="6.66021">
        <ele>2270.6000976562</ele>
        <time>2021-08-21T12:41:05.000Z</time>
      </trkpt>
      <trkpt lat="44.11593" lon="6.66018">
        <ele>2270.1999511719</ele>
        <time>2021-08-21T12:41:06.000Z</time>
      </trkpt>
      <trkpt lat="44.11591" lon="6.66006">
        <ele>2269.6000976562</ele>
        <time>2021-08-21T12:41:09.000Z</time>
      </trkpt>
      <trkpt lat="44.11593" lon="6.6598">
        <ele>2269.3999023438</ele>
        <time>2021-08-21T12:41:15.000Z</time>
      </trkpt>
      <trkpt lat="44.11594" lon="6.65972">
        <ele>2269.1999511719</ele>
        <time>2021-08-21T12:41:17.000Z</time>
      </trkpt>
      <trkpt lat="44.11599" lon="6.65965">
        <ele>2269</ele>
        <time>2021-08-21T12:41:19.000Z</time>
      </trkpt>
      <trkpt lat="44.11604" lon="6.65959">
        <ele>2268</ele>
        <time>2021-08-21T12:41:21.000Z</time>
      </trkpt>
      <trkpt lat="44.11605" lon="6.6595">
        <ele>2267.3999023438</ele>
        <time>2021-08-21T12:41:23.000Z</time>
      </trkpt>
      <trkpt lat="44.11604" lon="6.65946">
        <ele>2267</ele>
        <time>2021-08-21T12:41:24.000Z</time>
      </trkpt>
      <trkpt lat="44.116" lon="6.65939">
        <ele>2266.1999511719</ele>
        <time>2021-08-21T12:41:27.000Z</time>
      </trkpt>
      <trkpt lat="44.11598" lon="6.65937">
        <ele>2266</ele>
        <time>2021-08-21T12:41:28.000Z</time>
      </trkpt>
      <trkpt lat="44.11597" lon="6.65935">
        <ele>2265.8000488281</ele>
        <time>2021-08-21T12:41:29.000Z</time>
      </trkpt>
      <trkpt lat="44.11594" lon="6.6593">
        <ele>2265.8000488281</ele>
        <time>2021-08-21T12:41:31.000Z</time>
      </trkpt>
      <trkpt lat="44.11594" lon="6.65923">
        <ele>2266.1999511719</ele>
        <time>2021-08-21T12:41:33.000Z</time>
      </trkpt>
      <trkpt lat="44.11596" lon="6.65919">
        <ele>2266.1999511719</ele>
        <time>2021-08-21T12:41:37.000Z</time>
      </trkpt>
      <trkpt lat="44.11598" lon="6.65917">
        <ele>2265.3999023438</ele>
        <time>2021-08-21T12:41:53.000Z</time>
      </trkpt>
      <trkpt lat="44.11602" lon="6.65903">
        <ele>2265.1999511719</ele>
        <time>2021-08-21T12:41:58.000Z</time>
      </trkpt>
      <trkpt lat="44.11607" lon="6.65881">
        <ele>2265</ele>
        <time>2021-08-21T12:42:03.000Z</time>
      </trkpt>
      <trkpt lat="44.11611" lon="6.65876">
        <ele>2264.8000488281</ele>
        <time>2021-08-21T12:42:05.000Z</time>
      </trkpt>
      <trkpt lat="44.11616" lon="6.65874">
        <ele>2264.3999023438</ele>
        <time>2021-08-21T12:42:07.000Z</time>
      </trkpt>
      <trkpt lat="44.11618" lon="6.65872">
        <ele>2264.1999511719</ele>
        <time>2021-08-21T12:42:08.000Z</time>
      </trkpt>
      <trkpt lat="44.11619" lon="6.65865">
        <ele>2263.8000488281</ele>
        <time>2021-08-21T12:42:10.000Z</time>
      </trkpt>
      <trkpt lat="44.11619" lon="6.65843">
        <ele>2264.1999511719</ele>
        <time>2021-08-21T12:42:15.000Z</time>
      </trkpt>
      <trkpt lat="44.11624" lon="6.65839">
        <ele>2263.6000976562</ele>
        <time>2021-08-21T12:42:17.000Z</time>
      </trkpt>
      <trkpt lat="44.11627" lon="6.65836">
        <ele>2263.1999511719</ele>
        <time>2021-08-21T12:42:18.000Z</time>
      </trkpt>
      <trkpt lat="44.11627" lon="6.65824">
        <ele>2262.6000976562</ele>
        <time>2021-08-21T12:42:21.000Z</time>
      </trkpt>
      <trkpt lat="44.11627" lon="6.65815">
        <ele>2262.6000976562</ele>
        <time>2021-08-21T12:42:23.000Z</time>
      </trkpt>
      <trkpt lat="44.11628" lon="6.65796">
        <ele>2262.3999023438</ele>
        <time>2021-08-21T12:42:26.000Z</time>
      </trkpt>
      <trkpt lat="44.1163" lon="6.65782">
        <ele>2262.1999511719</ele>
        <time>2021-08-21T12:42:28.000Z</time>
      </trkpt>
      <trkpt lat="44.11636" lon="6.65757">
        <ele>2261.1999511719</ele>
        <time>2021-08-21T12:42:31.000Z</time>
      </trkpt>
      <trkpt lat="44.11641" lon="6.65741">
        <ele>2259.6000976562</ele>
        <time>2021-08-21T12:42:33.000Z</time>
      </trkpt>
      <trkpt lat="44.11642" lon="6.65733">
        <ele>2258.3999023438</ele>
        <time>2021-08-21T12:42:34.000Z</time>
      </trkpt>
      <trkpt lat="44.11643" lon="6.65717">
        <ele>2257</ele>
        <time>2021-08-21T12:42:36.000Z</time>
      </trkpt>
      <trkpt lat="44.11644" lon="6.65708">
        <ele>2255.6000976562</ele>
        <time>2021-08-21T12:42:37.000Z</time>
      </trkpt>
      <trkpt lat="44.11645" lon="6.65701">
        <ele>2254.1999511719</ele>
        <time>2021-08-21T12:42:38.000Z</time>
      </trkpt>
      <trkpt lat="44.11648" lon="6.65692">
        <ele>2252</ele>
        <time>2021-08-21T12:42:39.000Z</time>
      </trkpt>
      <trkpt lat="44.1165" lon="6.65684">
        <ele>2250.6000976562</ele>
        <time>2021-08-21T12:42:40.000Z</time>
      </trkpt>
      <trkpt lat="44.11653" lon="6.65677">
        <ele>2249.1999511719</ele>
        <time>2021-08-21T12:42:41.000Z</time>
      </trkpt>
      <trkpt lat="44.11656" lon="6.65669">
        <ele>2248</ele>
        <time>2021-08-21T12:42:42.000Z</time>
      </trkpt>
      <trkpt lat="44.11659" lon="6.65662">
        <ele>2246.8000488281</ele>
        <time>2021-08-21T12:42:43.000Z</time>
      </trkpt>
      <trkpt lat="44.11663" lon="6.65654">
        <ele>2245.8000488281</ele>
        <time>2021-08-21T12:42:44.000Z</time>
      </trkpt>
      <trkpt lat="44.11672" lon="6.65643">
        <ele>2245.8000488281</ele>
        <time>2021-08-21T12:42:46.000Z</time>
      </trkpt>
      <trkpt lat="44.1168" lon="6.6563">
        <ele>2244</ele>
        <time>2021-08-21T12:42:49.000Z</time>
      </trkpt>
      <trkpt lat="44.11681" lon="6.65627">
        <ele>2243.8000488281</ele>
        <time>2021-08-21T12:42:50.000Z</time>
      </trkpt>
      <trkpt lat="44.11682" lon="6.65626">
        <ele>2242.1999511719</ele>
        <time>2021-08-21T12:42:51.000Z</time>
      </trkpt>
      <trkpt lat="44.11682" lon="6.65626">
        <ele>2240.6000976562</ele>
        <time>2021-08-21T12:42:53.000Z</time>
      </trkpt>
      <trkpt lat="44.11683" lon="6.65627">
        <ele>2240.3999023438</ele>
        <time>2021-08-21T12:42:59.000Z</time>
      </trkpt>
      <trkpt lat="44.11683" lon="6.65628">
        <ele>2240.6000976562</ele>
        <time>2021-08-21T12:43:08.000Z</time>
      </trkpt>
      <trkpt lat="44.11683" lon="6.65629">
        <ele>2240</ele>
        <time>2021-08-21T12:43:15.000Z</time>
      </trkpt>
      <trkpt lat="44.11683" lon="6.65629">
        <ele>2240</ele>
        <time>2021-08-21T12:43:23.000Z</time>
      </trkpt>
      <trkpt lat="44.11683" lon="6.65629">
        <ele>2239.3999023438</ele>
        <time>2021-08-21T12:43:32.000Z</time>
      </trkpt>
      <trkpt lat="44.11682" lon="6.65629">
        <ele>2238.8000488281</ele>
        <time>2021-08-21T12:43:36.000Z</time>
      </trkpt>
      <trkpt lat="44.11683" lon="6.65629">
        <ele>2238.3999023438</ele>
        <time>2021-08-21T12:43:40.000Z</time>
      </trkpt>
      <trkpt lat="44.11683" lon="6.65628">
        <ele>2238.1999511719</ele>
        <time>2021-08-21T12:43:42.000Z</time>
      </trkpt>
      <trkpt lat="44.11682" lon="6.65627">
        <ele>2237.3999023438</ele>
        <time>2021-08-21T12:43:46.000Z</time>
      </trkpt>
      <trkpt lat="44.11682" lon="6.65627">
        <ele>2236.6000976562</ele>
        <time>2021-08-21T12:43:50.000Z</time>
      </trkpt>
      <trkpt lat="44.11682" lon="6.65627">
        <ele>2236.3999023438</ele>
        <time>2021-08-21T12:43:51.000Z</time>
      </trkpt>
      <trkpt lat="44.11682" lon="6.65628">
        <ele>2235.1999511719</ele>
        <time>2021-08-21T12:43:59.000Z</time>
      </trkpt>
      <trkpt lat="44.11683" lon="6.65628">
        <ele>2234.8000488281</ele>
        <time>2021-08-21T12:44:02.000Z</time>
      </trkpt>
      <trkpt lat="44.11683" lon="6.65628">
        <ele>2234.1999511719</ele>
        <time>2021-08-21T12:44:07.000Z</time>
      </trkpt>
      <trkpt lat="44.11682" lon="6.65628">
        <ele>2233.1999511719</ele>
        <time>2021-08-21T12:44:13.000Z</time>
      </trkpt>
      <trkpt lat="44.11682" lon="6.65629">
        <ele>2232.8000488281</ele>
        <time>2021-08-21T12:44:15.000Z</time>
      </trkpt>
      <trkpt lat="44.1168" lon="6.65628">
        <ele>2232.3999023438</ele>
        <time>2021-08-21T12:44:25.000Z</time>
      </trkpt>
      <trkpt lat="44.1168" lon="6.65627">
        <ele>2232.3999023438</ele>
        <time>2021-08-21T12:44:40.000Z</time>
      </trkpt>
      <trkpt lat="44.1168" lon="6.65627">
        <ele>2232.3999023438</ele>
        <time>2021-08-21T12:44:59.000Z</time>
      </trkpt>
      <trkpt lat="44.1168" lon="6.65627">
        <ele>2233</ele>
        <time>2021-08-21T12:45:22.000Z</time>
      </trkpt>
      <trkpt lat="44.11682" lon="6.65628">
        <ele>2233</ele>
        <time>2021-08-21T12:45:28.000Z</time>
      </trkpt>
      <trkpt lat="44.11681" lon="6.65628">
        <ele>2232.6000976562</ele>
        <time>2021-08-21T12:45:38.000Z</time>
      </trkpt>
      <trkpt lat="44.11683" lon="6.65628">
        <ele>2233</ele>
        <time>2021-08-21T12:45:44.000Z</time>
      </trkpt>
      <trkpt lat="44.11683" lon="6.65628">
        <ele>2233</ele>
        <time>2021-08-21T12:45:55.000Z</time>
      </trkpt>
      <trkpt lat="44.11683" lon="6.65628">
        <ele>2232.8000488281</ele>
        <time>2021-08-21T12:46:04.000Z</time>
      </trkpt>
      <trkpt lat="44.11689" lon="6.6563">
        <ele>2232.8000488281</ele>
        <time>2021-08-21T12:46:09.000Z</time>
      </trkpt>
      <trkpt lat="44.11702" lon="6.65629">
        <ele>2231.8000488281</ele>
        <time>2021-08-21T12:46:14.000Z</time>
      </trkpt>
      <trkpt lat="44.11707" lon="6.65633">
        <ele>2230.3999023438</ele>
        <time>2021-08-21T12:46:16.000Z</time>
      </trkpt>
      <trkpt lat="44.11711" lon="6.65635">
        <ele>2228.6000976562</ele>
        <time>2021-08-21T12:46:18.000Z</time>
      </trkpt>
      <trkpt lat="44.11712" lon="6.65633">
        <ele>2227.6000976562</ele>
        <time>2021-08-21T12:46:19.000Z</time>
      </trkpt>
      <trkpt lat="44.11714" lon="6.65632">
        <ele>2227</ele>
        <time>2021-08-21T12:46:20.000Z</time>
      </trkpt>
      <trkpt lat="44.11717" lon="6.65633">
        <ele>2226.3999023438</ele>
        <time>2021-08-21T12:46:21.000Z</time>
      </trkpt>
      <trkpt lat="44.1172" lon="6.65635">
        <ele>2225.6000976562</ele>
        <time>2021-08-21T12:46:22.000Z</time>
      </trkpt>
      <trkpt lat="44.11722" lon="6.65636">
        <ele>2225.1999511719</ele>
        <time>2021-08-21T12:46:23.000Z</time>
      </trkpt>
      <trkpt lat="44.1173" lon="6.65638">
        <ele>2224.1999511719</ele>
        <time>2021-08-21T12:46:25.000Z</time>
      </trkpt>
      <trkpt lat="44.1174" lon="6.65642">
        <ele>2223.6000976562</ele>
        <time>2021-08-21T12:46:27.000Z</time>
      </trkpt>
      <trkpt lat="44.11745" lon="6.65644">
        <ele>2223</ele>
        <time>2021-08-21T12:46:28.000Z</time>
      </trkpt>
      <trkpt lat="44.11754" lon="6.65647">
        <ele>2221.6000976562</ele>
        <time>2021-08-21T12:46:30.000Z</time>
      </trkpt>
      <trkpt lat="44.11765" lon="6.65649">
        <ele>2220.1999511719</ele>
        <time>2021-08-21T12:46:32.000Z</time>
      </trkpt>
      <trkpt lat="44.11769" lon="6.65651">
        <ele>2219.3999023438</ele>
        <time>2021-08-21T12:46:33.000Z</time>
      </trkpt>
      <trkpt lat="44.11774" lon="6.65652">
        <ele>2219</ele>
        <time>2021-08-21T12:46:34.000Z</time>
      </trkpt>
      <trkpt lat="44.11781" lon="6.65651">
        <ele>2217.8000488281</ele>
        <time>2021-08-21T12:46:36.000Z</time>
      </trkpt>
      <trkpt lat="44.11784" lon="6.65653">
        <ele>2217.3999023438</ele>
        <time>2021-08-21T12:46:37.000Z</time>
      </trkpt>
      <trkpt lat="44.11791" lon="6.6566">
        <ele>2216.1999511719</ele>
        <time>2021-08-21T12:46:39.000Z</time>
      </trkpt>
      <trkpt lat="44.11794" lon="6.65659">
        <ele>2215.3999023438</ele>
        <time>2021-08-21T12:46:40.000Z</time>
      </trkpt>
      <trkpt lat="44.11797" lon="6.65658">
        <ele>2215</ele>
        <time>2021-08-21T12:46:41.000Z</time>
      </trkpt>
      <trkpt lat="44.11801" lon="6.65657">
        <ele>2213.8000488281</ele>
        <time>2021-08-21T12:46:43.000Z</time>
      </trkpt>
      <trkpt lat="44.11807" lon="6.65659">
        <ele>2213.3999023438</ele>
        <time>2021-08-21T12:46:45.000Z</time>
      </trkpt>
      <trkpt lat="44.11812" lon="6.65665">
        <ele>2212.8000488281</ele>
        <time>2021-08-21T12:46:49.000Z</time>
      </trkpt>
      <trkpt lat="44.11814" lon="6.65666">
        <ele>2212.3999023438</ele>
        <time>2021-08-21T12:46:50.000Z</time>
      </trkpt>
      <trkpt lat="44.11819" lon="6.65667">
        <ele>2211.3999023438</ele>
        <time>2021-08-21T12:46:52.000Z</time>
      </trkpt>
      <trkpt lat="44.11824" lon="6.65665">
        <ele>2210.6000976562</ele>
        <time>2021-08-21T12:46:54.000Z</time>
      </trkpt>
      <trkpt lat="44.11826" lon="6.65666">
        <ele>2210.1999511719</ele>
        <time>2021-08-21T12:46:55.000Z</time>
      </trkpt>
      <trkpt lat="44.11829" lon="6.65668">
        <ele>2209</ele>
        <time>2021-08-21T12:46:57.000Z</time>
      </trkpt>
      <trkpt lat="44.11831" lon="6.65667">
        <ele>2208.8000488281</ele>
        <time>2021-08-21T12:46:58.000Z</time>
      </trkpt>
      <trkpt lat="44.11838" lon="6.65665">
        <ele>2208</ele>
        <time>2021-08-21T12:47:01.000Z</time>
      </trkpt>
      <trkpt lat="44.11839" lon="6.65663">
        <ele>2207.8000488281</ele>
        <time>2021-08-21T12:47:02.000Z</time>
      </trkpt>
      <trkpt lat="44.11839" lon="6.65663">
        <ele>2207.3999023438</ele>
        <time>2021-08-21T12:47:06.000Z</time>
      </trkpt>
      <trkpt lat="44.1184" lon="6.6566">
        <ele>2208</ele>
        <time>2021-08-21T12:47:12.000Z</time>
      </trkpt>
      <trkpt lat="44.11842" lon="6.65654">
        <ele>2208.1999511719</ele>
        <time>2021-08-21T12:47:17.000Z</time>
      </trkpt>
      <trkpt lat="44.11845" lon="6.65647">
        <ele>2209</ele>
        <time>2021-08-21T12:47:23.000Z</time>
      </trkpt>
      <trkpt lat="44.11848" lon="6.65642">
        <ele>2210</ele>
        <time>2021-08-21T12:47:28.000Z</time>
      </trkpt>
      <trkpt lat="44.11849" lon="6.65638">
        <ele>2210.6000976562</ele>
        <time>2021-08-21T12:47:31.000Z</time>
      </trkpt>
      <trkpt lat="44.11851" lon="6.65634">
        <ele>2211.3999023438</ele>
        <time>2021-08-21T12:47:34.000Z</time>
      </trkpt>
      <trkpt lat="44.11851" lon="6.65633">
        <ele>2211.3999023438</ele>
        <time>2021-08-21T12:47:37.000Z</time>
      </trkpt>
      <trkpt lat="44.11852" lon="6.65631">
        <ele>2211.6000976562</ele>
        <time>2021-08-21T12:47:39.000Z</time>
      </trkpt>
      <trkpt lat="44.11856" lon="6.65626">
        <ele>2211.6000976562</ele>
        <time>2021-08-21T12:47:42.000Z</time>
      </trkpt>
      <trkpt lat="44.11864" lon="6.65612">
        <ele>2211</ele>
        <time>2021-08-21T12:47:47.000Z</time>
      </trkpt>
      <trkpt lat="44.11866" lon="6.65609">
        <ele>2211.1999511719</ele>
        <time>2021-08-21T12:47:48.000Z</time>
      </trkpt>
      <trkpt lat="44.11871" lon="6.65591">
        <ele>2211</ele>
        <time>2021-08-21T12:47:53.000Z</time>
      </trkpt>
      <trkpt lat="44.11873" lon="6.65582">
        <ele>2210.1999511719</ele>
        <time>2021-08-21T12:47:55.000Z</time>
      </trkpt>
      <trkpt lat="44.11876" lon="6.65573">
        <ele>2208.6000976562</ele>
        <time>2021-08-21T12:47:57.000Z</time>
      </trkpt>
      <trkpt lat="44.11879" lon="6.65564">
        <ele>2207</ele>
        <time>2021-08-21T12:47:59.000Z</time>
      </trkpt>
      <trkpt lat="44.11882" lon="6.65552">
        <ele>2205.8000488281</ele>
        <time>2021-08-21T12:48:01.000Z</time>
      </trkpt>
      <trkpt lat="44.11883" lon="6.65546">
        <ele>2205.1999511719</ele>
        <time>2021-08-21T12:48:02.000Z</time>
      </trkpt>
      <trkpt lat="44.11887" lon="6.65535">
        <ele>2204.3999023438</ele>
        <time>2021-08-21T12:48:04.000Z</time>
      </trkpt>
      <trkpt lat="44.11891" lon="6.65523">
        <ele>2203.1999511719</ele>
        <time>2021-08-21T12:48:06.000Z</time>
      </trkpt>
      <trkpt lat="44.11896" lon="6.65512">
        <ele>2201.8000488281</ele>
        <time>2021-08-21T12:48:08.000Z</time>
      </trkpt>
      <trkpt lat="44.119" lon="6.65505">
        <ele>2200.8000488281</ele>
        <time>2021-08-21T12:48:09.000Z</time>
      </trkpt>
      <trkpt lat="44.11903" lon="6.65501">
        <ele>2200</ele>
        <time>2021-08-21T12:48:10.000Z</time>
      </trkpt>
      <trkpt lat="44.11908" lon="6.65493">
        <ele>2197.8000488281</ele>
        <time>2021-08-21T12:48:12.000Z</time>
      </trkpt>
      <trkpt lat="44.11911" lon="6.65489">
        <ele>2196.8000488281</ele>
        <time>2021-08-21T12:48:13.000Z</time>
      </trkpt>
      <trkpt lat="44.11914" lon="6.65485">
        <ele>2195.6000976562</ele>
        <time>2021-08-21T12:48:14.000Z</time>
      </trkpt>
      <trkpt lat="44.11919" lon="6.65476">
        <ele>2194</ele>
        <time>2021-08-21T12:48:16.000Z</time>
      </trkpt>
      <trkpt lat="44.11922" lon="6.65473">
        <ele>2193.8000488281</ele>
        <time>2021-08-21T12:48:17.000Z</time>
      </trkpt>
      <trkpt lat="44.11925" lon="6.65468">
        <ele>2193</ele>
        <time>2021-08-21T12:48:18.000Z</time>
      </trkpt>
      <trkpt lat="44.11929" lon="6.65463">
        <ele>2192.3999023438</ele>
        <time>2021-08-21T12:48:19.000Z</time>
      </trkpt>
      <trkpt lat="44.11936" lon="6.65454">
        <ele>2190.8000488281</ele>
        <time>2021-08-21T12:48:21.000Z</time>
      </trkpt>
      <trkpt lat="44.11941" lon="6.6545">
        <ele>2190</ele>
        <time>2021-08-21T12:48:22.000Z</time>
      </trkpt>
      <trkpt lat="44.11945" lon="6.65447">
        <ele>2189.3999023438</ele>
        <time>2021-08-21T12:48:23.000Z</time>
      </trkpt>
      <trkpt lat="44.11953" lon="6.65445">
        <ele>2187.6000976562</ele>
        <time>2021-08-21T12:48:25.000Z</time>
      </trkpt>
      <trkpt lat="44.11955" lon="6.65446">
        <ele>2186.6000976562</ele>
        <time>2021-08-21T12:48:26.000Z</time>
      </trkpt>
      <trkpt lat="44.11955" lon="6.65444">
        <ele>2186</ele>
        <time>2021-08-21T12:48:27.000Z</time>
      </trkpt>
      <trkpt lat="44.11955" lon="6.65442">
        <ele>2184.1999511719</ele>
        <time>2021-08-21T12:48:29.000Z</time>
      </trkpt>
      <trkpt lat="44.1195" lon="6.65438">
        <ele>2182.6000976562</ele>
        <time>2021-08-21T12:48:31.000Z</time>
      </trkpt>
      <trkpt lat="44.11946" lon="6.65437">
        <ele>2182.1999511719</ele>
        <time>2021-08-21T12:48:32.000Z</time>
      </trkpt>
      <trkpt lat="44.11942" lon="6.65437">
        <ele>2181.6000976562</ele>
        <time>2021-08-21T12:48:33.000Z</time>
      </trkpt>
      <trkpt lat="44.11937" lon="6.65436">
        <ele>2181.1999511719</ele>
        <time>2021-08-21T12:48:34.000Z</time>
      </trkpt>
      <trkpt lat="44.11933" lon="6.65437">
        <ele>2180.6000976562</ele>
        <time>2021-08-21T12:48:35.000Z</time>
      </trkpt>
      <trkpt lat="44.11928" lon="6.65437">
        <ele>2180.3999023438</ele>
        <time>2021-08-21T12:48:36.000Z</time>
      </trkpt>
      <trkpt lat="44.11924" lon="6.65439">
        <ele>2179.8000488281</ele>
        <time>2021-08-21T12:48:37.000Z</time>
      </trkpt>
      <trkpt lat="44.11919" lon="6.6544">
        <ele>2179.1999511719</ele>
        <time>2021-08-21T12:48:38.000Z</time>
      </trkpt>
      <trkpt lat="44.11909" lon="6.65443">
        <ele>2177.8000488281</ele>
        <time>2021-08-21T12:48:40.000Z</time>
      </trkpt>
      <trkpt lat="44.119" lon="6.65446">
        <ele>2176.6000976562</ele>
        <time>2021-08-21T12:48:42.000Z</time>
      </trkpt>
      <trkpt lat="44.11892" lon="6.6545">
        <ele>2175.3999023438</ele>
        <time>2021-08-21T12:48:44.000Z</time>
      </trkpt>
      <trkpt lat="44.1189" lon="6.65452">
        <ele>2174.3999023438</ele>
        <time>2021-08-21T12:48:45.000Z</time>
      </trkpt>
      <trkpt lat="44.11887" lon="6.65454">
        <ele>2173</ele>
        <time>2021-08-21T12:48:46.000Z</time>
      </trkpt>
      <trkpt lat="44.11882" lon="6.65456">
        <ele>2171.1999511719</ele>
        <time>2021-08-21T12:48:48.000Z</time>
      </trkpt>
      <trkpt lat="44.11876" lon="6.6546">
        <ele>2169.6000976562</ele>
        <time>2021-08-21T12:48:50.000Z</time>
      </trkpt>
      <trkpt lat="44.11874" lon="6.65463">
        <ele>2168.3999023438</ele>
        <time>2021-08-21T12:48:52.000Z</time>
      </trkpt>
      <trkpt lat="44.11874" lon="6.65463">
        <ele>2167.1999511719</ele>
        <time>2021-08-21T12:48:54.000Z</time>
      </trkpt>
      <trkpt lat="44.11873" lon="6.65462">
        <ele>2166.1999511719</ele>
        <time>2021-08-21T12:48:56.000Z</time>
      </trkpt>
      <trkpt lat="44.11874" lon="6.65459">
        <ele>2165.6000976562</ele>
        <time>2021-08-21T12:48:58.000Z</time>
      </trkpt>
      <trkpt lat="44.11882" lon="6.65446">
        <ele>2165.3999023438</ele>
        <time>2021-08-21T12:49:02.000Z</time>
      </trkpt>
      <trkpt lat="44.11886" lon="6.65439">
        <ele>2165</ele>
        <time>2021-08-21T12:49:04.000Z</time>
      </trkpt>
      <trkpt lat="44.11894" lon="6.65426">
        <ele>2163.6000976562</ele>
        <time>2021-08-21T12:49:07.000Z</time>
      </trkpt>
      <trkpt lat="44.11902" lon="6.65416">
        <ele>2162.1999511719</ele>
        <time>2021-08-21T12:49:09.000Z</time>
      </trkpt>
      <trkpt lat="44.11908" lon="6.65407">
        <ele>2160.8000488281</ele>
        <time>2021-08-21T12:49:11.000Z</time>
      </trkpt>
      <trkpt lat="44.11914" lon="6.65398">
        <ele>2159.1999511719</ele>
        <time>2021-08-21T12:49:13.000Z</time>
      </trkpt>
      <trkpt lat="44.11919" lon="6.65394">
        <ele>2158.3999023438</ele>
        <time>2021-08-21T12:49:14.000Z</time>
      </trkpt>
      <trkpt lat="44.11923" lon="6.65389">
        <ele>2157.6000976562</ele>
        <time>2021-08-21T12:49:15.000Z</time>
      </trkpt>
      <trkpt lat="44.1193" lon="6.6538">
        <ele>2156</ele>
        <time>2021-08-21T12:49:17.000Z</time>
      </trkpt>
      <trkpt lat="44.11935" lon="6.65375">
        <ele>2155.6000976562</ele>
        <time>2021-08-21T12:49:18.000Z</time>
      </trkpt>
      <trkpt lat="44.11939" lon="6.65371">
        <ele>2154.6000976562</ele>
        <time>2021-08-21T12:49:19.000Z</time>
      </trkpt>
      <trkpt lat="44.11947" lon="6.65362">
        <ele>2152.6000976562</ele>
        <time>2021-08-21T12:49:21.000Z</time>
      </trkpt>
      <trkpt lat="44.11951" lon="6.65358">
        <ele>2151.3999023438</ele>
        <time>2021-08-21T12:49:22.000Z</time>
      </trkpt>
      <trkpt lat="44.11953" lon="6.65355">
        <ele>2151.3999023438</ele>
        <time>2021-08-21T12:49:23.000Z</time>
      </trkpt>
      <trkpt lat="44.11967" lon="6.65341">
        <ele>2149.6000976562</ele>
        <time>2021-08-21T12:49:26.000Z</time>
      </trkpt>
      <trkpt lat="44.11972" lon="6.65337">
        <ele>2148.8000488281</ele>
        <time>2021-08-21T12:49:27.000Z</time>
      </trkpt>
      <trkpt lat="44.11975" lon="6.65333">
        <ele>2147.8000488281</ele>
        <time>2021-08-21T12:49:28.000Z</time>
      </trkpt>
      <trkpt lat="44.11979" lon="6.65329">
        <ele>2146.8000488281</ele>
        <time>2021-08-21T12:49:29.000Z</time>
      </trkpt>
      <trkpt lat="44.11988" lon="6.65322">
        <ele>2145.1999511719</ele>
        <time>2021-08-21T12:49:31.000Z</time>
      </trkpt>
      <trkpt lat="44.11991" lon="6.6532">
        <ele>2144.1999511719</ele>
        <time>2021-08-21T12:49:32.000Z</time>
      </trkpt>
      <trkpt lat="44.11992" lon="6.6532">
        <ele>2143</ele>
        <time>2021-08-21T12:49:33.000Z</time>
      </trkpt>
      <trkpt lat="44.11993" lon="6.65319">
        <ele>2142.1999511719</ele>
        <time>2021-08-21T12:49:34.000Z</time>
      </trkpt>
      <trkpt lat="44.11992" lon="6.65318">
        <ele>2141.8000488281</ele>
        <time>2021-08-21T12:49:35.000Z</time>
      </trkpt>
      <trkpt lat="44.11991" lon="6.65317">
        <ele>2141.6000976562</ele>
        <time>2021-08-21T12:49:36.000Z</time>
      </trkpt>
      <trkpt lat="44.11977" lon="6.65317">
        <ele>2140.3999023438</ele>
        <time>2021-08-21T12:49:40.000Z</time>
      </trkpt>
      <trkpt lat="44.11972" lon="6.65318">
        <ele>2140</ele>
        <time>2021-08-21T12:49:41.000Z</time>
      </trkpt>
      <trkpt lat="44.11963" lon="6.6532">
        <ele>2138.6000976562</ele>
        <time>2021-08-21T12:49:43.000Z</time>
      </trkpt>
      <trkpt lat="44.11952" lon="6.65322">
        <ele>2137.1999511719</ele>
        <time>2021-08-21T12:49:45.000Z</time>
      </trkpt>
      <trkpt lat="44.11942" lon="6.65324">
        <ele>2135.3999023438</ele>
        <time>2021-08-21T12:49:47.000Z</time>
      </trkpt>
      <trkpt lat="44.11933" lon="6.65327">
        <ele>2133.6000976562</ele>
        <time>2021-08-21T12:49:49.000Z</time>
      </trkpt>
      <trkpt lat="44.11929" lon="6.65328">
        <ele>2132.6000976562</ele>
        <time>2021-08-21T12:49:50.000Z</time>
      </trkpt>
      <trkpt lat="44.11927" lon="6.6533">
        <ele>2131.6000976562</ele>
        <time>2021-08-21T12:49:51.000Z</time>
      </trkpt>
      <trkpt lat="44.11926" lon="6.65332">
        <ele>2130.3999023438</ele>
        <time>2021-08-21T12:49:53.000Z</time>
      </trkpt>
      <trkpt lat="44.11927" lon="6.65332">
        <ele>2130</ele>
        <time>2021-08-21T12:49:54.000Z</time>
      </trkpt>
      <trkpt lat="44.11928" lon="6.6533">
        <ele>2129.1999511719</ele>
        <time>2021-08-21T12:49:56.000Z</time>
      </trkpt>
      <trkpt lat="44.11934" lon="6.65321">
        <ele>2127.8000488281</ele>
        <time>2021-08-21T12:50:00.000Z</time>
      </trkpt>
      <trkpt lat="44.11942" lon="6.6531">
        <ele>2126.1999511719</ele>
        <time>2021-08-21T12:50:03.000Z</time>
      </trkpt>
      <trkpt lat="44.1195" lon="6.65302">
        <ele>2124.8000488281</ele>
        <time>2021-08-21T12:50:05.000Z</time>
      </trkpt>
      <trkpt lat="44.11956" lon="6.65294">
        <ele>2123</ele>
        <time>2021-08-21T12:50:07.000Z</time>
      </trkpt>
      <trkpt lat="44.11959" lon="6.6529">
        <ele>2121.3999023438</ele>
        <time>2021-08-21T12:50:09.000Z</time>
      </trkpt>
      <trkpt lat="44.1196" lon="6.6529">
        <ele>2120.6000976562</ele>
        <time>2021-08-21T12:50:10.000Z</time>
      </trkpt>
      <trkpt lat="44.11959" lon="6.6529">
        <ele>2119.6000976562</ele>
        <time>2021-08-21T12:50:12.000Z</time>
      </trkpt>
      <trkpt lat="44.11959" lon="6.65289">
        <ele>2118.8000488281</ele>
        <time>2021-08-21T12:50:15.000Z</time>
      </trkpt>
      <trkpt lat="44.11959" lon="6.65289">
        <ele>2118.3999023438</ele>
        <time>2021-08-21T12:50:16.000Z</time>
      </trkpt>
      <trkpt lat="44.11961" lon="6.65286">
        <ele>2117.8000488281</ele>
        <time>2021-08-21T12:50:21.000Z</time>
      </trkpt>
      <trkpt lat="44.1197" lon="6.65274">
        <ele>2117.1999511719</ele>
        <time>2021-08-21T12:50:24.000Z</time>
      </trkpt>
      <trkpt lat="44.11974" lon="6.6527">
        <ele>2117</ele>
        <time>2021-08-21T12:50:25.000Z</time>
      </trkpt>
      <trkpt lat="44.11981" lon="6.6526">
        <ele>2116</ele>
        <time>2021-08-21T12:50:27.000Z</time>
      </trkpt>
      <trkpt lat="44.11992" lon="6.65244">
        <ele>2114.1999511719</ele>
        <time>2021-08-21T12:50:30.000Z</time>
      </trkpt>
      <trkpt lat="44.11996" lon="6.65239">
        <ele>2113.1999511719</ele>
        <time>2021-08-21T12:50:31.000Z</time>
      </trkpt>
      <trkpt lat="44.12" lon="6.65233">
        <ele>2112</ele>
        <time>2021-08-21T12:50:32.000Z</time>
      </trkpt>
      <trkpt lat="44.12008" lon="6.65221">
        <ele>2110.1999511719</ele>
        <time>2021-08-21T12:50:34.000Z</time>
      </trkpt>
      <trkpt lat="44.12012" lon="6.65217">
        <ele>2109.1999511719</ele>
        <time>2021-08-21T12:50:35.000Z</time>
      </trkpt>
      <trkpt lat="44.12016" lon="6.65212">
        <ele>2107.8000488281</ele>
        <time>2021-08-21T12:50:36.000Z</time>
      </trkpt>
      <trkpt lat="44.12019" lon="6.65208">
        <ele>2106.6000976562</ele>
        <time>2021-08-21T12:50:37.000Z</time>
      </trkpt>
      <trkpt lat="44.12022" lon="6.65208">
        <ele>2105.1999511719</ele>
        <time>2021-08-21T12:50:38.000Z</time>
      </trkpt>
      <trkpt lat="44.12023" lon="6.65207">
        <ele>2103.6000976562</ele>
        <time>2021-08-21T12:50:39.000Z</time>
      </trkpt>
      <trkpt lat="44.12023" lon="6.65205">
        <ele>2102.1999511719</ele>
        <time>2021-08-21T12:50:40.000Z</time>
      </trkpt>
      <trkpt lat="44.12021" lon="6.65205">
        <ele>2101.1999511719</ele>
        <time>2021-08-21T12:50:41.000Z</time>
      </trkpt>
      <trkpt lat="44.12019" lon="6.65205">
        <ele>2100.3999023438</ele>
        <time>2021-08-21T12:50:42.000Z</time>
      </trkpt>
      <trkpt lat="44.12015" lon="6.65206">
        <ele>2099.8000488281</ele>
        <time>2021-08-21T12:50:43.000Z</time>
      </trkpt>
      <trkpt lat="44.12009" lon="6.65208">
        <ele>2099.1999511719</ele>
        <time>2021-08-21T12:50:44.000Z</time>
      </trkpt>
      <trkpt lat="44.12003" lon="6.65209">
        <ele>2099</ele>
        <time>2021-08-21T12:50:45.000Z</time>
      </trkpt>
      <trkpt lat="44.11997" lon="6.65212">
        <ele>2098.6000976562</ele>
        <time>2021-08-21T12:50:46.000Z</time>
      </trkpt>
      <trkpt lat="44.11979" lon="6.65219">
        <ele>2097.3999023438</ele>
        <time>2021-08-21T12:50:49.000Z</time>
      </trkpt>
      <trkpt lat="44.11968" lon="6.65223">
        <ele>2096</ele>
        <time>2021-08-21T12:50:51.000Z</time>
      </trkpt>
      <trkpt lat="44.11964" lon="6.65226">
        <ele>2094.1999511719</ele>
        <time>2021-08-21T12:50:52.000Z</time>
      </trkpt>
      <trkpt lat="44.11959" lon="6.65227">
        <ele>2092.6000976562</ele>
        <time>2021-08-21T12:50:53.000Z</time>
      </trkpt>
      <trkpt lat="44.11953" lon="6.6523">
        <ele>2091.3999023438</ele>
        <time>2021-08-21T12:50:54.000Z</time>
      </trkpt>
      <trkpt lat="44.11948" lon="6.65232">
        <ele>2090.1999511719</ele>
        <time>2021-08-21T12:50:55.000Z</time>
      </trkpt>
      <trkpt lat="44.11943" lon="6.65234">
        <ele>2089.1999511719</ele>
        <time>2021-08-21T12:50:56.000Z</time>
      </trkpt>
      <trkpt lat="44.11939" lon="6.65237">
        <ele>2088.1999511719</ele>
        <time>2021-08-21T12:50:57.000Z</time>
      </trkpt>
      <trkpt lat="44.1193" lon="6.65241">
        <ele>2086.1999511719</ele>
        <time>2021-08-21T12:50:59.000Z</time>
      </trkpt>
      <trkpt lat="44.11926" lon="6.65244">
        <ele>2085.1999511719</ele>
        <time>2021-08-21T12:51:00.000Z</time>
      </trkpt>
      <trkpt lat="44.11923" lon="6.65246">
        <ele>2084.3999023438</ele>
        <time>2021-08-21T12:51:01.000Z</time>
      </trkpt>
      <trkpt lat="44.11922" lon="6.65248">
        <ele>2083.3999023438</ele>
        <time>2021-08-21T12:51:02.000Z</time>
      </trkpt>
      <trkpt lat="44.11923" lon="6.65248">
        <ele>2082</ele>
        <time>2021-08-21T12:51:04.000Z</time>
      </trkpt>
      <trkpt lat="44.11922" lon="6.65247">
        <ele>2080.1999511719</ele>
        <time>2021-08-21T12:51:06.000Z</time>
      </trkpt>
      <trkpt lat="44.11923" lon="6.65245">
        <ele>2080</ele>
        <time>2021-08-21T12:51:07.000Z</time>
      </trkpt>
      <trkpt lat="44.11924" lon="6.65244">
        <ele>2080</ele>
        <time>2021-08-21T12:51:08.000Z</time>
      </trkpt>
      <trkpt lat="44.11932" lon="6.65231">
        <ele>2079.3999023438</ele>
        <time>2021-08-21T12:51:11.000Z</time>
      </trkpt>
      <trkpt lat="44.11936" lon="6.65227">
        <ele>2079.1999511719</ele>
        <time>2021-08-21T12:51:12.000Z</time>
      </trkpt>
      <trkpt lat="44.11946" lon="6.65213">
        <ele>2077.8000488281</ele>
        <time>2021-08-21T12:51:15.000Z</time>
      </trkpt>
      <trkpt lat="44.11953" lon="6.65203">
        <ele>2076.3999023438</ele>
        <time>2021-08-21T12:51:17.000Z</time>
      </trkpt>
      <trkpt lat="44.1196" lon="6.65193">
        <ele>2074.6000976562</ele>
        <time>2021-08-21T12:51:19.000Z</time>
      </trkpt>
      <trkpt lat="44.11962" lon="6.65188">
        <ele>2073.8000488281</ele>
        <time>2021-08-21T12:51:20.000Z</time>
      </trkpt>
      <trkpt lat="44.11966" lon="6.65184">
        <ele>2072.8000488281</ele>
        <time>2021-08-21T12:51:21.000Z</time>
      </trkpt>
      <trkpt lat="44.11968" lon="6.65179">
        <ele>2072</ele>
        <time>2021-08-21T12:51:22.000Z</time>
      </trkpt>
      <trkpt lat="44.1197" lon="6.65175">
        <ele>2071.3999023438</ele>
        <time>2021-08-21T12:51:23.000Z</time>
      </trkpt>
      <trkpt lat="44.11973" lon="6.65169">
        <ele>2070.6000976562</ele>
        <time>2021-08-21T12:51:24.000Z</time>
      </trkpt>
      <trkpt lat="44.11977" lon="6.65164">
        <ele>2069.8000488281</ele>
        <time>2021-08-21T12:51:25.000Z</time>
      </trkpt>
      <trkpt lat="44.11983" lon="6.65153">
        <ele>2068.6000976562</ele>
        <time>2021-08-21T12:51:27.000Z</time>
      </trkpt>
      <trkpt lat="44.11987" lon="6.65148">
        <ele>2067.8000488281</ele>
        <time>2021-08-21T12:51:28.000Z</time>
      </trkpt>
      <trkpt lat="44.1199" lon="6.65142">
        <ele>2067</ele>
        <time>2021-08-21T12:51:29.000Z</time>
      </trkpt>
      <trkpt lat="44.12" lon="6.6513">
        <ele>2065.1999511719</ele>
        <time>2021-08-21T12:51:31.000Z</time>
      </trkpt>
      <trkpt lat="44.12009" lon="6.6512">
        <ele>2063.3999023438</ele>
        <time>2021-08-21T12:51:33.000Z</time>
      </trkpt>
      <trkpt lat="44.12013" lon="6.65114">
        <ele>2062.3999023438</ele>
        <time>2021-08-21T12:51:34.000Z</time>
      </trkpt>
      <trkpt lat="44.12018" lon="6.6511">
        <ele>2061.1999511719</ele>
        <time>2021-08-21T12:51:35.000Z</time>
      </trkpt>
      <trkpt lat="44.12023" lon="6.65105">
        <ele>2060.1999511719</ele>
        <time>2021-08-21T12:51:36.000Z</time>
      </trkpt>
      <trkpt lat="44.12029" lon="6.65101">
        <ele>2059</ele>
        <time>2021-08-21T12:51:37.000Z</time>
      </trkpt>
      <trkpt lat="44.12039" lon="6.65091">
        <ele>2057.1999511719</ele>
        <time>2021-08-21T12:51:39.000Z</time>
      </trkpt>
      <trkpt lat="44.12043" lon="6.65087">
        <ele>2056</ele>
        <time>2021-08-21T12:51:40.000Z</time>
      </trkpt>
      <trkpt lat="44.12054" lon="6.65079">
        <ele>2054.1999511719</ele>
        <time>2021-08-21T12:51:42.000Z</time>
      </trkpt>
      <trkpt lat="44.12066" lon="6.65068">
        <ele>2052.1999511719</ele>
        <time>2021-08-21T12:51:44.000Z</time>
      </trkpt>
      <trkpt lat="44.12071" lon="6.65063">
        <ele>2051.1999511719</ele>
        <time>2021-08-21T12:51:45.000Z</time>
      </trkpt>
      <trkpt lat="44.12075" lon="6.65059">
        <ele>2050.1999511719</ele>
        <time>2021-08-21T12:51:46.000Z</time>
      </trkpt>
      <trkpt lat="44.12078" lon="6.65058">
        <ele>2049</ele>
        <time>2021-08-21T12:51:47.000Z</time>
      </trkpt>
      <trkpt lat="44.1208" lon="6.65058">
        <ele>2047.4000244141</ele>
        <time>2021-08-21T12:51:48.000Z</time>
      </trkpt>
      <trkpt lat="44.1208" lon="6.65057">
        <ele>2046</ele>
        <time>2021-08-21T12:51:49.000Z</time>
      </trkpt>
      <trkpt lat="44.1208" lon="6.65056">
        <ele>2044.5999755859</ele>
        <time>2021-08-21T12:51:50.000Z</time>
      </trkpt>
      <trkpt lat="44.12079" lon="6.65055">
        <ele>2043.5999755859</ele>
        <time>2021-08-21T12:51:51.000Z</time>
      </trkpt>
      <trkpt lat="44.12071" lon="6.65055">
        <ele>2042.4000244141</ele>
        <time>2021-08-21T12:51:53.000Z</time>
      </trkpt>
      <trkpt lat="44.12065" lon="6.65056">
        <ele>2042.1999511719</ele>
        <time>2021-08-21T12:51:54.000Z</time>
      </trkpt>
      <trkpt lat="44.12059" lon="6.65057">
        <ele>2042</ele>
        <time>2021-08-21T12:51:55.000Z</time>
      </trkpt>
      <trkpt lat="44.12054" lon="6.65058">
        <ele>2041.4000244141</ele>
        <time>2021-08-21T12:51:56.000Z</time>
      </trkpt>
      <trkpt lat="44.12043" lon="6.65059">
        <ele>2040</ele>
        <time>2021-08-21T12:51:58.000Z</time>
      </trkpt>
      <trkpt lat="44.12039" lon="6.65059">
        <ele>2039.1999511719</ele>
        <time>2021-08-21T12:51:59.000Z</time>
      </trkpt>
      <trkpt lat="44.12032" lon="6.6506">
        <ele>2038</ele>
        <time>2021-08-21T12:52:00.000Z</time>
      </trkpt>
      <trkpt lat="44.12027" lon="6.65061">
        <ele>2037</ele>
        <time>2021-08-21T12:52:01.000Z</time>
      </trkpt>
      <trkpt lat="44.12021" lon="6.65062">
        <ele>2036</ele>
        <time>2021-08-21T12:52:02.000Z</time>
      </trkpt>
      <trkpt lat="44.1201" lon="6.65063">
        <ele>2033.8000488281</ele>
        <time>2021-08-21T12:52:04.000Z</time>
      </trkpt>
      <trkpt lat="44.12" lon="6.65064">
        <ele>2032.4000244141</ele>
        <time>2021-08-21T12:52:06.000Z</time>
      </trkpt>
      <trkpt lat="44.1199" lon="6.65066">
        <ele>2030.4000244141</ele>
        <time>2021-08-21T12:52:08.000Z</time>
      </trkpt>
      <trkpt lat="44.11985" lon="6.65069">
        <ele>2029.1999511719</ele>
        <time>2021-08-21T12:52:09.000Z</time>
      </trkpt>
      <trkpt lat="44.11979" lon="6.6507">
        <ele>2028.1999511719</ele>
        <time>2021-08-21T12:52:10.000Z</time>
      </trkpt>
      <trkpt lat="44.11974" lon="6.65071">
        <ele>2027</ele>
        <time>2021-08-21T12:52:11.000Z</time>
      </trkpt>
      <trkpt lat="44.11967" lon="6.65074">
        <ele>2026.1999511719</ele>
        <time>2021-08-21T12:52:12.000Z</time>
      </trkpt>
      <trkpt lat="44.11962" lon="6.65076">
        <ele>2025.1999511719</ele>
        <time>2021-08-21T12:52:13.000Z</time>
      </trkpt>
      <trkpt lat="44.11956" lon="6.65077">
        <ele>2024.1999511719</ele>
        <time>2021-08-21T12:52:14.000Z</time>
      </trkpt>
      <trkpt lat="44.1195" lon="6.6508">
        <ele>2023.1999511719</ele>
        <time>2021-08-21T12:52:15.000Z</time>
      </trkpt>
      <trkpt lat="44.11945" lon="6.65083">
        <ele>2022</ele>
        <time>2021-08-21T12:52:16.000Z</time>
      </trkpt>
      <trkpt lat="44.11942" lon="6.65086">
        <ele>2021</ele>
        <time>2021-08-21T12:52:17.000Z</time>
      </trkpt>
      <trkpt lat="44.11941" lon="6.65087">
        <ele>2019.8000488281</ele>
        <time>2021-08-21T12:52:18.000Z</time>
      </trkpt>
      <trkpt lat="44.1194" lon="6.65087">
        <ele>2018.8000488281</ele>
        <time>2021-08-21T12:52:19.000Z</time>
      </trkpt>
      <trkpt lat="44.1194" lon="6.65086">
        <ele>2017.8000488281</ele>
        <time>2021-08-21T12:52:20.000Z</time>
      </trkpt>
      <trkpt lat="44.1194" lon="6.65087">
        <ele>2016.4000244141</ele>
        <time>2021-08-21T12:52:21.000Z</time>
      </trkpt>
      <trkpt lat="44.11941" lon="6.65084">
        <ele>2015.8000488281</ele>
        <time>2021-08-21T12:52:22.000Z</time>
      </trkpt>
      <trkpt lat="44.11943" lon="6.65083">
        <ele>2015.1999511719</ele>
        <time>2021-08-21T12:52:23.000Z</time>
      </trkpt>
      <trkpt lat="44.11945" lon="6.65079">
        <ele>2014.8000488281</ele>
        <time>2021-08-21T12:52:24.000Z</time>
      </trkpt>
      <trkpt lat="44.11957" lon="6.65062">
        <ele>2014.4000244141</ele>
        <time>2021-08-21T12:52:27.000Z</time>
      </trkpt>
      <trkpt lat="44.11961" lon="6.65057">
        <ele>2014.1999511719</ele>
        <time>2021-08-21T12:52:28.000Z</time>
      </trkpt>
      <trkpt lat="44.11966" lon="6.65052">
        <ele>2013.8000488281</ele>
        <time>2021-08-21T12:52:29.000Z</time>
      </trkpt>
      <trkpt lat="44.11976" lon="6.65042">
        <ele>2012.5999755859</ele>
        <time>2021-08-21T12:52:31.000Z</time>
      </trkpt>
      <trkpt lat="44.11981" lon="6.65036">
        <ele>2011.8000488281</ele>
        <time>2021-08-21T12:52:32.000Z</time>
      </trkpt>
      <trkpt lat="44.11986" lon="6.65031">
        <ele>2010.8000488281</ele>
        <time>2021-08-21T12:52:33.000Z</time>
      </trkpt>
      <trkpt lat="44.11991" lon="6.65026">
        <ele>2009.8000488281</ele>
        <time>2021-08-21T12:52:34.000Z</time>
      </trkpt>
      <trkpt lat="44.11995" lon="6.65022">
        <ele>2008.5999755859</ele>
        <time>2021-08-21T12:52:35.000Z</time>
      </trkpt>
      <trkpt lat="44.12001" lon="6.65018">
        <ele>2007.4000244141</ele>
        <time>2021-08-21T12:52:36.000Z</time>
      </trkpt>
      <trkpt lat="44.12007" lon="6.65014">
        <ele>2006</ele>
        <time>2021-08-21T12:52:37.000Z</time>
      </trkpt>
      <trkpt lat="44.1201" lon="6.65011">
        <ele>2005.4000244141</ele>
        <time>2021-08-21T12:52:38.000Z</time>
      </trkpt>
      <trkpt lat="44.12015" lon="6.65006">
        <ele>2003.8000488281</ele>
        <time>2021-08-21T12:52:39.000Z</time>
      </trkpt>
      <trkpt lat="44.12019" lon="6.65002">
        <ele>2002.5999755859</ele>
        <time>2021-08-21T12:52:40.000Z</time>
      </trkpt>
      <trkpt lat="44.12022" lon="6.64998">
        <ele>2001.4000244141</ele>
        <time>2021-08-21T12:52:41.000Z</time>
      </trkpt>
      <trkpt lat="44.12025" lon="6.64993">
        <ele>2000.4000244141</ele>
        <time>2021-08-21T12:52:42.000Z</time>
      </trkpt>
      <trkpt lat="44.12027" lon="6.64992">
        <ele>1999.1999511719</ele>
        <time>2021-08-21T12:52:43.000Z</time>
      </trkpt>
      <trkpt lat="44.12028" lon="6.64993">
        <ele>1998.1999511719</ele>
        <time>2021-08-21T12:52:44.000Z</time>
      </trkpt>
      <trkpt lat="44.12027" lon="6.64993">
        <ele>1997.1999511719</ele>
        <time>2021-08-21T12:52:45.000Z</time>
      </trkpt>
      <trkpt lat="44.12028" lon="6.64992">
        <ele>1995.5999755859</ele>
        <time>2021-08-21T12:52:47.000Z</time>
      </trkpt>
      <trkpt lat="44.12031" lon="6.64991">
        <ele>1995.1999511719</ele>
        <time>2021-08-21T12:52:52.000Z</time>
      </trkpt>
      <trkpt lat="44.12034" lon="6.64989">
        <ele>1995.5999755859</ele>
        <time>2021-08-21T12:52:59.000Z</time>
      </trkpt>
      <trkpt lat="44.12036" lon="6.64986">
        <ele>1995.5999755859</ele>
        <time>2021-08-21T12:53:06.000Z</time>
      </trkpt>
      <trkpt lat="44.12037" lon="6.64986">
        <ele>1994.5999755859</ele>
        <time>2021-08-21T12:53:13.000Z</time>
      </trkpt>
      <trkpt lat="44.12038" lon="6.64986">
        <ele>1994.8000488281</ele>
        <time>2021-08-21T12:53:15.000Z</time>
      </trkpt>
      <trkpt lat="44.12039" lon="6.64983">
        <ele>1994.8000488281</ele>
        <time>2021-08-21T12:53:22.000Z</time>
      </trkpt>
      <trkpt lat="44.12038" lon="6.64981">
        <ele>1993.5999755859</ele>
        <time>2021-08-21T12:53:28.000Z</time>
      </trkpt>
      <trkpt lat="44.12038" lon="6.6498">
        <ele>1993.1999511719</ele>
        <time>2021-08-21T12:53:29.000Z</time>
      </trkpt>
      <trkpt lat="44.12038" lon="6.64979">
        <ele>1992.4000244141</ele>
        <time>2021-08-21T12:53:31.000Z</time>
      </trkpt>
      <trkpt lat="44.12039" lon="6.64977">
        <ele>1991.8000488281</ele>
        <time>2021-08-21T12:53:33.000Z</time>
      </trkpt>
      <trkpt lat="44.1204" lon="6.64975">
        <ele>1991.8000488281</ele>
        <time>2021-08-21T12:53:34.000Z</time>
      </trkpt>
      <trkpt lat="44.12041" lon="6.64973">
        <ele>1991.1999511719</ele>
        <time>2021-08-21T12:53:36.000Z</time>
      </trkpt>
      <trkpt lat="44.12043" lon="6.64971">
        <ele>1989.8000488281</ele>
        <time>2021-08-21T12:53:39.000Z</time>
      </trkpt>
      <trkpt lat="44.12043" lon="6.6497">
        <ele>1989.5999755859</ele>
        <time>2021-08-21T12:53:40.000Z</time>
      </trkpt>
      <trkpt lat="44.12044" lon="6.6497">
        <ele>1988.8000488281</ele>
        <time>2021-08-21T12:53:45.000Z</time>
      </trkpt>
      <trkpt lat="44.12045" lon="6.64969">
        <ele>1988.5999755859</ele>
        <time>2021-08-21T12:53:48.000Z</time>
      </trkpt>
      <trkpt lat="44.12046" lon="6.64969">
        <ele>1988.5999755859</ele>
        <time>2021-08-21T12:53:55.000Z</time>
      </trkpt>
      <trkpt lat="44.12049" lon="6.64964">
        <ele>1988.4000244141</ele>
        <time>2021-08-21T12:54:00.000Z</time>
      </trkpt>
      <trkpt lat="44.12051" lon="6.64962">
        <ele>1987.5999755859</ele>
        <time>2021-08-21T12:54:04.000Z</time>
      </trkpt>
      <trkpt lat="44.12052" lon="6.64962">
        <ele>1987.4000244141</ele>
        <time>2021-08-21T12:54:05.000Z</time>
      </trkpt>
      <trkpt lat="44.12053" lon="6.64961">
        <ele>1986.5999755859</ele>
        <time>2021-08-21T12:54:11.000Z</time>
      </trkpt>
      <trkpt lat="44.12054" lon="6.64961">
        <ele>1986.5999755859</ele>
        <time>2021-08-21T12:54:12.000Z</time>
      </trkpt>
      <trkpt lat="44.12058" lon="6.64959">
        <ele>1986.4000244141</ele>
        <time>2021-08-21T12:54:18.000Z</time>
      </trkpt>
      <trkpt lat="44.1206" lon="6.64957">
        <ele>1986.1999511719</ele>
        <time>2021-08-21T12:54:23.000Z</time>
      </trkpt>
      <trkpt lat="44.12062" lon="6.64956">
        <ele>1986</ele>
        <time>2021-08-21T12:54:25.000Z</time>
      </trkpt>
      <trkpt lat="44.12062" lon="6.64955">
        <ele>1985.4000244141</ele>
        <time>2021-08-21T12:54:28.000Z</time>
      </trkpt>
      <trkpt lat="44.12063" lon="6.64955">
        <ele>1985</ele>
        <time>2021-08-21T12:54:32.000Z</time>
      </trkpt>
      <trkpt lat="44.12066" lon="6.64953">
        <ele>1985</ele>
        <time>2021-08-21T12:54:35.000Z</time>
      </trkpt>
      <trkpt lat="44.12068" lon="6.64952">
        <ele>1984.5999755859</ele>
        <time>2021-08-21T12:54:37.000Z</time>
      </trkpt>
      <trkpt lat="44.1207" lon="6.64951">
        <ele>1984.4000244141</ele>
        <time>2021-08-21T12:54:39.000Z</time>
      </trkpt>
      <trkpt lat="44.12072" lon="6.6495">
        <ele>1983.5999755859</ele>
        <time>2021-08-21T12:54:43.000Z</time>
      </trkpt>
      <trkpt lat="44.12072" lon="6.6495">
        <ele>1983.1999511719</ele>
        <time>2021-08-21T12:54:45.000Z</time>
      </trkpt>
      <trkpt lat="44.12075" lon="6.64947">
        <ele>1982.8000488281</ele>
        <time>2021-08-21T12:54:51.000Z</time>
      </trkpt>
      <trkpt lat="44.1208" lon="6.64944">
        <ele>1982</ele>
        <time>2021-08-21T12:54:55.000Z</time>
      </trkpt>
      <trkpt lat="44.12083" lon="6.64942">
        <ele>1981.4000244141</ele>
        <time>2021-08-21T12:54:58.000Z</time>
      </trkpt>
      <trkpt lat="44.12084" lon="6.64941">
        <ele>1980.8000488281</ele>
        <time>2021-08-21T12:55:02.000Z</time>
      </trkpt>
      <trkpt lat="44.12084" lon="6.6494">
        <ele>1980.4000244141</ele>
        <time>2021-08-21T12:55:04.000Z</time>
      </trkpt>
      <trkpt lat="44.12085" lon="6.6494">
        <ele>1980.5999755859</ele>
        <time>2021-08-21T12:55:15.000Z</time>
      </trkpt>
      <trkpt lat="44.12087" lon="6.64937">
        <ele>1980.4000244141</ele>
        <time>2021-08-21T12:55:22.000Z</time>
      </trkpt>
      <trkpt lat="44.12088" lon="6.64936">
        <ele>1979.8000488281</ele>
        <time>2021-08-21T12:55:26.000Z</time>
      </trkpt>
      <trkpt lat="44.12089" lon="6.64934">
        <ele>1979.8000488281</ele>
        <time>2021-08-21T12:55:27.000Z</time>
      </trkpt>
      <trkpt lat="44.12101" lon="6.64921">
        <ele>1979.5999755859</ele>
        <time>2021-08-21T12:55:31.000Z</time>
      </trkpt>
      <trkpt lat="44.12112" lon="6.64908">
        <ele>1978.4000244141</ele>
        <time>2021-08-21T12:55:34.000Z</time>
      </trkpt>
      <trkpt lat="44.12119" lon="6.64899">
        <ele>1977.1999511719</ele>
        <time>2021-08-21T12:55:36.000Z</time>
      </trkpt>
      <trkpt lat="44.12122" lon="6.64894">
        <ele>1976.4000244141</ele>
        <time>2021-08-21T12:55:37.000Z</time>
      </trkpt>
      <trkpt lat="44.12125" lon="6.64889">
        <ele>1975.5999755859</ele>
        <time>2021-08-21T12:55:38.000Z</time>
      </trkpt>
      <trkpt lat="44.12131" lon="6.6488">
        <ele>1973.8000488281</ele>
        <time>2021-08-21T12:55:40.000Z</time>
      </trkpt>
      <trkpt lat="44.12131" lon="6.64878">
        <ele>1972.1999511719</ele>
        <time>2021-08-21T12:55:42.000Z</time>
      </trkpt>
      <trkpt lat="44.12129" lon="6.64878">
        <ele>1971.4000244141</ele>
        <time>2021-08-21T12:55:43.000Z</time>
      </trkpt>
      <trkpt lat="44.12126" lon="6.64878">
        <ele>1970.5999755859</ele>
        <time>2021-08-21T12:55:44.000Z</time>
      </trkpt>
      <trkpt lat="44.12123" lon="6.6488">
        <ele>1970</ele>
        <time>2021-08-21T12:55:45.000Z</time>
      </trkpt>
      <trkpt lat="44.12119" lon="6.64883">
        <ele>1969.4000244141</ele>
        <time>2021-08-21T12:55:46.000Z</time>
      </trkpt>
      <trkpt lat="44.12109" lon="6.64888">
        <ele>1968.5999755859</ele>
        <time>2021-08-21T12:55:48.000Z</time>
      </trkpt>
      <trkpt lat="44.12103" lon="6.64891">
        <ele>1968</ele>
        <time>2021-08-21T12:55:49.000Z</time>
      </trkpt>
      <trkpt lat="44.12094" lon="6.64894">
        <ele>1966.8000488281</ele>
        <time>2021-08-21T12:55:51.000Z</time>
      </trkpt>
      <trkpt lat="44.1209" lon="6.64894">
        <ele>1965.5999755859</ele>
        <time>2021-08-21T12:55:52.000Z</time>
      </trkpt>
      <trkpt lat="44.12087" lon="6.64894">
        <ele>1965</ele>
        <time>2021-08-21T12:55:53.000Z</time>
      </trkpt>
      <trkpt lat="44.12081" lon="6.64894">
        <ele>1964</ele>
        <time>2021-08-21T12:55:54.000Z</time>
      </trkpt>
      <trkpt lat="44.12077" lon="6.64894">
        <ele>1962.8000488281</ele>
        <time>2021-08-21T12:55:55.000Z</time>
      </trkpt>
      <trkpt lat="44.12074" lon="6.64895">
        <ele>1961</ele>
        <time>2021-08-21T12:55:57.000Z</time>
      </trkpt>
      <trkpt lat="44.12073" lon="6.64896">
        <ele>1960</ele>
        <time>2021-08-21T12:55:58.000Z</time>
      </trkpt>
      <trkpt lat="44.1207" lon="6.64895">
        <ele>1959</ele>
        <time>2021-08-21T12:55:59.000Z</time>
      </trkpt>
      <trkpt lat="44.12064" lon="6.64893">
        <ele>1957.4000244141</ele>
        <time>2021-08-21T12:56:01.000Z</time>
      </trkpt>
      <trkpt lat="44.12059" lon="6.64893">
        <ele>1957</ele>
        <time>2021-08-21T12:56:02.000Z</time>
      </trkpt>
      <trkpt lat="44.12049" lon="6.64891">
        <ele>1956.1999511719</ele>
        <time>2021-08-21T12:56:04.000Z</time>
      </trkpt>
      <trkpt lat="44.12034" lon="6.64889">
        <ele>1954.5999755859</ele>
        <time>2021-08-21T12:56:07.000Z</time>
      </trkpt>
      <trkpt lat="44.12031" lon="6.64888">
        <ele>1952.8000488281</ele>
        <time>2021-08-21T12:56:09.000Z</time>
      </trkpt>
      <trkpt lat="44.12032" lon="6.64889">
        <ele>1951.4000244141</ele>
        <time>2021-08-21T12:56:10.000Z</time>
      </trkpt>
      <trkpt lat="44.12031" lon="6.64889">
        <ele>1950</ele>
        <time>2021-08-21T12:56:12.000Z</time>
      </trkpt>
      <trkpt lat="44.1203" lon="6.64891">
        <ele>1948.8000488281</ele>
        <time>2021-08-21T12:56:14.000Z</time>
      </trkpt>
      <trkpt lat="44.12029" lon="6.64891">
        <ele>1948.5999755859</ele>
        <time>2021-08-21T12:56:15.000Z</time>
      </trkpt>
      <trkpt lat="44.1202" lon="6.64892">
        <ele>1948.1999511719</ele>
        <time>2021-08-21T12:56:18.000Z</time>
      </trkpt>
      <trkpt lat="44.12015" lon="6.64894">
        <ele>1948</ele>
        <time>2021-08-21T12:56:20.000Z</time>
      </trkpt>
      <trkpt lat="44.12016" lon="6.64895">
        <ele>1947.5999755859</ele>
        <time>2021-08-21T12:56:21.000Z</time>
      </trkpt>
      <trkpt lat="44.12016" lon="6.64894">
        <ele>1947.1999511719</ele>
        <time>2021-08-21T12:56:22.000Z</time>
      </trkpt>
      <trkpt lat="44.12015" lon="6.64894">
        <ele>1946.5999755859</ele>
        <time>2021-08-21T12:56:23.000Z</time>
      </trkpt>
      <trkpt lat="44.12013" lon="6.64896">
        <ele>1945.5999755859</ele>
        <time>2021-08-21T12:56:26.000Z</time>
      </trkpt>
      <trkpt lat="44.12011" lon="6.64897">
        <ele>1945</ele>
        <time>2021-08-21T12:56:28.000Z</time>
      </trkpt>
      <trkpt lat="44.11999" lon="6.64903">
        <ele>1944.5999755859</ele>
        <time>2021-08-21T12:56:32.000Z</time>
      </trkpt>
      <trkpt lat="44.11998" lon="6.64904">
        <ele>1944.1999511719</ele>
        <time>2021-08-21T12:56:33.000Z</time>
      </trkpt>
      <trkpt lat="44.11997" lon="6.64904">
        <ele>1943.8000488281</ele>
        <time>2021-08-21T12:56:34.000Z</time>
      </trkpt>
      <trkpt lat="44.11997" lon="6.64905">
        <ele>1943.1999511719</ele>
        <time>2021-08-21T12:56:35.000Z</time>
      </trkpt>
      <trkpt lat="44.11997" lon="6.64904">
        <ele>1942.5999755859</ele>
        <time>2021-08-21T12:56:36.000Z</time>
      </trkpt>
      <trkpt lat="44.11996" lon="6.64905">
        <ele>1941.5999755859</ele>
        <time>2021-08-21T12:56:39.000Z</time>
      </trkpt>
      <trkpt lat="44.11995" lon="6.64906">
        <ele>1941.1999511719</ele>
        <time>2021-08-21T12:56:41.000Z</time>
      </trkpt>
      <trkpt lat="44.11993" lon="6.64907">
        <ele>1940.5999755859</ele>
        <time>2021-08-21T12:56:44.000Z</time>
      </trkpt>
      <trkpt lat="44.11988" lon="6.64911">
        <ele>1940.4000244141</ele>
        <time>2021-08-21T12:56:46.000Z</time>
      </trkpt>
      <trkpt lat="44.11978" lon="6.64911">
        <ele>1940.1999511719</ele>
        <time>2021-08-21T12:56:49.000Z</time>
      </trkpt>
      <trkpt lat="44.11967" lon="6.64909">
        <ele>1939</ele>
        <time>2021-08-21T12:56:52.000Z</time>
      </trkpt>
      <trkpt lat="44.11964" lon="6.64909">
        <ele>1938.4000244141</ele>
        <time>2021-08-21T12:56:53.000Z</time>
      </trkpt>
      <trkpt lat="44.1196" lon="6.64909">
        <ele>1937.8000488281</ele>
        <time>2021-08-21T12:56:54.000Z</time>
      </trkpt>
      <trkpt lat="44.1195" lon="6.64906">
        <ele>1936.1999511719</ele>
        <time>2021-08-21T12:56:56.000Z</time>
      </trkpt>
      <trkpt lat="44.11946" lon="6.64907">
        <ele>1935.8000488281</ele>
        <time>2021-08-21T12:56:57.000Z</time>
      </trkpt>
      <trkpt lat="44.11945" lon="6.64908">
        <ele>1935.1999511719</ele>
        <time>2021-08-21T12:56:58.000Z</time>
      </trkpt>
      <trkpt lat="44.11945" lon="6.64907">
        <ele>1933.8000488281</ele>
        <time>2021-08-21T12:57:00.000Z</time>
      </trkpt>
      <trkpt lat="44.11945" lon="6.64905">
        <ele>1932.4000244141</ele>
        <time>2021-08-21T12:57:02.000Z</time>
      </trkpt>
      <trkpt lat="44.1195" lon="6.649">
        <ele>1931.4000244141</ele>
        <time>2021-08-21T12:57:04.000Z</time>
      </trkpt>
      <trkpt lat="44.11957" lon="6.64895">
        <ele>1930.5999755859</ele>
        <time>2021-08-21T12:57:06.000Z</time>
      </trkpt>
      <trkpt lat="44.1196" lon="6.64891">
        <ele>1930.1999511719</ele>
        <time>2021-08-21T12:57:07.000Z</time>
      </trkpt>
      <trkpt lat="44.11968" lon="6.64887">
        <ele>1929.1999511719</ele>
        <time>2021-08-21T12:57:09.000Z</time>
      </trkpt>
      <trkpt lat="44.11974" lon="6.64881">
        <ele>1928</ele>
        <time>2021-08-21T12:57:11.000Z</time>
      </trkpt>
      <trkpt lat="44.1198" lon="6.64876">
        <ele>1926.5999755859</ele>
        <time>2021-08-21T12:57:13.000Z</time>
      </trkpt>
      <trkpt lat="44.11981" lon="6.64869">
        <ele>1925</ele>
        <time>2021-08-21T12:57:15.000Z</time>
      </trkpt>
      <trkpt lat="44.11983" lon="6.64862">
        <ele>1923.5999755859</ele>
        <time>2021-08-21T12:57:17.000Z</time>
      </trkpt>
      <trkpt lat="44.11987" lon="6.64856">
        <ele>1922</ele>
        <time>2021-08-21T12:57:19.000Z</time>
      </trkpt>
      <trkpt lat="44.1199" lon="6.64848">
        <ele>1920.8000488281</ele>
        <time>2021-08-21T12:57:21.000Z</time>
      </trkpt>
      <trkpt lat="44.11991" lon="6.64848">
        <ele>1919.4000244141</ele>
        <time>2021-08-21T12:57:23.000Z</time>
      </trkpt>
      <trkpt lat="44.1199" lon="6.64848">
        <ele>1919</ele>
        <time>2021-08-21T12:57:24.000Z</time>
      </trkpt>
      <trkpt lat="44.1199" lon="6.64846">
        <ele>1918</ele>
        <time>2021-08-21T12:57:26.000Z</time>
      </trkpt>
      <trkpt lat="44.11992" lon="6.64844">
        <ele>1916.8000488281</ele>
        <time>2021-08-21T12:57:30.000Z</time>
      </trkpt>
      <trkpt lat="44.11992" lon="6.64843">
        <ele>1916.5999755859</ele>
        <time>2021-08-21T12:57:31.000Z</time>
      </trkpt>
      <trkpt lat="44.11994" lon="6.64838">
        <ele>1915.8000488281</ele>
        <time>2021-08-21T12:57:38.000Z</time>
      </trkpt>
      <trkpt lat="44.11994" lon="6.64839">
        <ele>1915.5999755859</ele>
        <time>2021-08-21T12:57:39.000Z</time>
      </trkpt>
      <trkpt lat="44.11997" lon="6.64835">
        <ele>1915.1999511719</ele>
        <time>2021-08-21T12:57:43.000Z</time>
      </trkpt>
      <trkpt lat="44.12004" lon="6.64822">
        <ele>1915</ele>
        <time>2021-08-21T12:57:48.000Z</time>
      </trkpt>
      <trkpt lat="44.12007" lon="6.6482">
        <ele>1914.1999511719</ele>
        <time>2021-08-21T12:57:50.000Z</time>
      </trkpt>
      <trkpt lat="44.12011" lon="6.64815">
        <ele>1913.1999511719</ele>
        <time>2021-08-21T12:57:52.000Z</time>
      </trkpt>
      <trkpt lat="44.12018" lon="6.64808">
        <ele>1912</ele>
        <time>2021-08-21T12:57:55.000Z</time>
      </trkpt>
      <trkpt lat="44.12025" lon="6.64803">
        <ele>1911.4000244141</ele>
        <time>2021-08-21T12:57:57.000Z</time>
      </trkpt>
      <trkpt lat="44.12027" lon="6.648">
        <ele>1911</ele>
        <time>2021-08-21T12:57:58.000Z</time>
      </trkpt>
      <trkpt lat="44.12033" lon="6.64799">
        <ele>1909.5999755859</ele>
        <time>2021-08-21T12:58:00.000Z</time>
      </trkpt>
      <trkpt lat="44.12037" lon="6.64798">
        <ele>1909</ele>
        <time>2021-08-21T12:58:01.000Z</time>
      </trkpt>
      <trkpt lat="44.12039" lon="6.64799">
        <ele>1908.1999511719</ele>
        <time>2021-08-21T12:58:02.000Z</time>
      </trkpt>
      <trkpt lat="44.12045" lon="6.64796">
        <ele>1906.8000488281</ele>
        <time>2021-08-21T12:58:04.000Z</time>
      </trkpt>
      <trkpt lat="44.12048" lon="6.64794">
        <ele>1906.1999511719</ele>
        <time>2021-08-21T12:58:05.000Z</time>
      </trkpt>
      <trkpt lat="44.12052" lon="6.64793">
        <ele>1905.5999755859</ele>
        <time>2021-08-21T12:58:06.000Z</time>
      </trkpt>
      <trkpt lat="44.12057" lon="6.64788">
        <ele>1904.5999755859</ele>
        <time>2021-08-21T12:58:08.000Z</time>
      </trkpt>
      <trkpt lat="44.12059" lon="6.64783">
        <ele>1904</ele>
        <time>2021-08-21T12:58:09.000Z</time>
      </trkpt>
      <trkpt lat="44.1206" lon="6.64779">
        <ele>1903.4000244141</ele>
        <time>2021-08-21T12:58:10.000Z</time>
      </trkpt>
      <trkpt lat="44.12062" lon="6.6477">
        <ele>1902.1999511719</ele>
        <time>2021-08-21T12:58:12.000Z</time>
      </trkpt>
      <trkpt lat="44.12063" lon="6.64762">
        <ele>1901</ele>
        <time>2021-08-21T12:58:14.000Z</time>
      </trkpt>
      <trkpt lat="44.12064" lon="6.64757">
        <ele>1900.5999755859</ele>
        <time>2021-08-21T12:58:15.000Z</time>
      </trkpt>
      <trkpt lat="44.12064" lon="6.64753">
        <ele>1899.8000488281</ele>
        <time>2021-08-21T12:58:16.000Z</time>
      </trkpt>
      <trkpt lat="44.12066" lon="6.64741">
        <ele>1898.4000244141</ele>
        <time>2021-08-21T12:58:19.000Z</time>
      </trkpt>
      <trkpt lat="44.12067" lon="6.64735">
        <ele>1897.8000488281</ele>
        <time>2021-08-21T12:58:20.000Z</time>
      </trkpt>
      <trkpt lat="44.12068" lon="6.64721">
        <ele>1897</ele>
        <time>2021-08-21T12:58:22.000Z</time>
      </trkpt>
      <trkpt lat="44.12069" lon="6.64705">
        <ele>1895.8000488281</ele>
        <time>2021-08-21T12:58:24.000Z</time>
      </trkpt>
      <trkpt lat="44.1207" lon="6.64699">
        <ele>1894.5999755859</ele>
        <time>2021-08-21T12:58:26.000Z</time>
      </trkpt>
      <trkpt lat="44.1207" lon="6.64695">
        <ele>1893.5999755859</ele>
        <time>2021-08-21T12:58:27.000Z</time>
      </trkpt>
      <trkpt lat="44.1207" lon="6.6469">
        <ele>1892.8000488281</ele>
        <time>2021-08-21T12:58:28.000Z</time>
      </trkpt>
      <trkpt lat="44.12073" lon="6.64677">
        <ele>1891.1999511719</ele>
        <time>2021-08-21T12:58:30.000Z</time>
      </trkpt>
      <trkpt lat="44.12074" lon="6.64671">
        <ele>1890.5999755859</ele>
        <time>2021-08-21T12:58:31.000Z</time>
      </trkpt>
      <trkpt lat="44.12075" lon="6.64664">
        <ele>1890</ele>
        <time>2021-08-21T12:58:32.000Z</time>
      </trkpt>
      <trkpt lat="44.12077" lon="6.64659">
        <ele>1889.5999755859</ele>
        <time>2021-08-21T12:58:33.000Z</time>
      </trkpt>
      <trkpt lat="44.12079" lon="6.64654">
        <ele>1888.5999755859</ele>
        <time>2021-08-21T12:58:34.000Z</time>
      </trkpt>
      <trkpt lat="44.12079" lon="6.64653">
        <ele>1887.8000488281</ele>
        <time>2021-08-21T12:58:35.000Z</time>
      </trkpt>
      <trkpt lat="44.1208" lon="6.64652">
        <ele>1886.8000488281</ele>
        <time>2021-08-21T12:58:36.000Z</time>
      </trkpt>
      <trkpt lat="44.12079" lon="6.64653">
        <ele>1885.8000488281</ele>
        <time>2021-08-21T12:58:37.000Z</time>
      </trkpt>
      <trkpt lat="44.12081" lon="6.64651">
        <ele>1884.4000244141</ele>
        <time>2021-08-21T12:58:39.000Z</time>
      </trkpt>
      <trkpt lat="44.12082" lon="6.6465">
        <ele>1883.4000244141</ele>
        <time>2021-08-21T12:58:41.000Z</time>
      </trkpt>
      <trkpt lat="44.12083" lon="6.64645">
        <ele>1883.1999511719</ele>
        <time>2021-08-21T12:58:43.000Z</time>
      </trkpt>
      <trkpt lat="44.12084" lon="6.64642">
        <ele>1883</ele>
        <time>2021-08-21T12:58:44.000Z</time>
      </trkpt>
      <trkpt lat="44.12087" lon="6.64632">
        <ele>1882.4000244141</ele>
        <time>2021-08-21T12:58:47.000Z</time>
      </trkpt>
      <trkpt lat="44.12088" lon="6.6463">
        <ele>1881.8000488281</ele>
        <time>2021-08-21T12:58:48.000Z</time>
      </trkpt>
      <trkpt lat="44.12091" lon="6.64619">
        <ele>1880.4000244141</ele>
        <time>2021-08-21T12:58:51.000Z</time>
      </trkpt>
      <trkpt lat="44.12096" lon="6.64601">
        <ele>1879.4000244141</ele>
        <time>2021-08-21T12:58:54.000Z</time>
      </trkpt>
      <trkpt lat="44.12098" lon="6.64594">
        <ele>1879</ele>
        <time>2021-08-21T12:58:55.000Z</time>
      </trkpt>
      <trkpt lat="44.12102" lon="6.64581">
        <ele>1877.8000488281</ele>
        <time>2021-08-21T12:58:57.000Z</time>
      </trkpt>
      <trkpt lat="44.12105" lon="6.64568">
        <ele>1876.1999511719</ele>
        <time>2021-08-21T12:58:59.000Z</time>
      </trkpt>
      <trkpt lat="44.12109" lon="6.64556">
        <ele>1874.5999755859</ele>
        <time>2021-08-21T12:59:01.000Z</time>
      </trkpt>
      <trkpt lat="44.12111" lon="6.6455">
        <ele>1873.5999755859</ele>
        <time>2021-08-21T12:59:02.000Z</time>
      </trkpt>
      <trkpt lat="44.12113" lon="6.64543">
        <ele>1872.5999755859</ele>
        <time>2021-08-21T12:59:03.000Z</time>
      </trkpt>
      <trkpt lat="44.12116" lon="6.64531">
        <ele>1871</ele>
        <time>2021-08-21T12:59:05.000Z</time>
      </trkpt>
      <trkpt lat="44.12118" lon="6.64523">
        <ele>1869.5999755859</ele>
        <time>2021-08-21T12:59:07.000Z</time>
      </trkpt>
      <trkpt lat="44.12121" lon="6.64512">
        <ele>1868.4000244141</ele>
        <time>2021-08-21T12:59:09.000Z</time>
      </trkpt>
      <trkpt lat="44.12124" lon="6.64506">
        <ele>1867.5999755859</ele>
        <time>2021-08-21T12:59:10.000Z</time>
      </trkpt>
      <trkpt lat="44.12127" lon="6.645">
        <ele>1866.8000488281</ele>
        <time>2021-08-21T12:59:11.000Z</time>
      </trkpt>
      <trkpt lat="44.12131" lon="6.64489">
        <ele>1865.1999511719</ele>
        <time>2021-08-21T12:59:13.000Z</time>
      </trkpt>
      <trkpt lat="44.12138" lon="6.64478">
        <ele>1863.4000244141</ele>
        <time>2021-08-21T12:59:15.000Z</time>
      </trkpt>
      <trkpt lat="44.12141" lon="6.64469">
        <ele>1861.5999755859</ele>
        <time>2021-08-21T12:59:17.000Z</time>
      </trkpt>
      <trkpt lat="44.12142" lon="6.64464">
        <ele>1860.8000488281</ele>
        <time>2021-08-21T12:59:18.000Z</time>
      </trkpt>
      <trkpt lat="44.12142" lon="6.64461">
        <ele>1860.1999511719</ele>
        <time>2021-08-21T12:59:19.000Z</time>
      </trkpt>
      <trkpt lat="44.12141" lon="6.64456">
        <ele>1859</ele>
        <time>2021-08-21T12:59:21.000Z</time>
      </trkpt>
      <trkpt lat="44.1214" lon="6.64455">
        <ele>1858.5999755859</ele>
        <time>2021-08-21T12:59:22.000Z</time>
      </trkpt>
      <trkpt lat="44.1214" lon="6.64455">
        <ele>1858</ele>
        <time>2021-08-21T12:59:24.000Z</time>
      </trkpt>
      <trkpt lat="44.1214" lon="6.64455">
        <ele>1856.8000488281</ele>
        <time>2021-08-21T12:59:29.000Z</time>
      </trkpt>
      <trkpt lat="44.12141" lon="6.64456">
        <ele>1856.8000488281</ele>
        <time>2021-08-21T12:59:32.000Z</time>
      </trkpt>
      <trkpt lat="44.12143" lon="6.64455">
        <ele>1856.5999755859</ele>
        <time>2021-08-21T12:59:42.000Z</time>
      </trkpt>
      <trkpt lat="44.12144" lon="6.64453">
        <ele>1856.5999755859</ele>
        <time>2021-08-21T12:59:51.000Z</time>
      </trkpt>
      <trkpt lat="44.12145" lon="6.64453">
        <ele>1856.4000244141</ele>
        <time>2021-08-21T12:59:57.000Z</time>
      </trkpt>
      <trkpt lat="44.12145" lon="6.64453">
        <ele>1855.8000488281</ele>
        <time>2021-08-21T13:00:05.000Z</time>
      </trkpt>
      <trkpt lat="44.12145" lon="6.64453">
        <ele>1856</ele>
        <time>2021-08-21T13:00:21.000Z</time>
      </trkpt>
      <trkpt lat="44.12146" lon="6.64455">
        <ele>1856</ele>
        <time>2021-08-21T13:00:40.000Z</time>
      </trkpt>
      <trkpt lat="44.12148" lon="6.64456">
        <ele>1855.8000488281</ele>
        <time>2021-08-21T13:01:06.000Z</time>
      </trkpt>
      <trkpt lat="44.12149" lon="6.64458">
        <ele>1855.8000488281</ele>
        <time>2021-08-21T13:01:29.000Z</time>
      </trkpt>
      <trkpt lat="44.12148" lon="6.64457">
        <ele>1855.8000488281</ele>
        <time>2021-08-21T13:01:49.000Z</time>
      </trkpt>
      <trkpt lat="44.12148" lon="6.64456">
        <ele>1855.8000488281</ele>
        <time>2021-08-21T13:02:07.000Z</time>
      </trkpt>
      <trkpt lat="44.12149" lon="6.64456">
        <ele>1855.5999755859</ele>
        <time>2021-08-21T13:02:28.000Z</time>
      </trkpt>
      <trkpt lat="44.1215" lon="6.64457">
        <ele>1855.5999755859</ele>
        <time>2021-08-21T13:02:36.000Z</time>
      </trkpt>
      <trkpt lat="44.12149" lon="6.64453">
        <ele>1855.8000488281</ele>
        <time>2021-08-21T13:02:51.000Z</time>
      </trkpt>
      <trkpt lat="44.1215" lon="6.64446">
        <ele>1855.8000488281</ele>
        <time>2021-08-21T13:03:20.000Z</time>
      </trkpt>
      <trkpt lat="44.12151" lon="6.64442">
        <ele>1855.1999511719</ele>
        <time>2021-08-21T13:03:40.000Z</time>
      </trkpt>
      <trkpt lat="44.12153" lon="6.64447">
        <ele>1856.4000244141</ele>
        <time>2021-08-21T13:03:47.000Z</time>
      </trkpt>
      <trkpt lat="44.12153" lon="6.64449">
        <ele>1856.1999511719</ele>
        <time>2021-08-21T13:03:53.000Z</time>
      </trkpt>
      <trkpt lat="44.12154" lon="6.64452">
        <ele>1855.5999755859</ele>
        <time>2021-08-21T13:04:05.000Z</time>
      </trkpt>
      <trkpt lat="44.12155" lon="6.64455">
        <ele>1855.5999755859</ele>
        <time>2021-08-21T13:04:15.000Z</time>
      </trkpt>
      <trkpt lat="44.12155" lon="6.64455">
        <ele>1856</ele>
        <time>2021-08-21T13:04:23.000Z</time>
      </trkpt>
      <trkpt lat="44.12154" lon="6.64455">
        <ele>1856.4000244141</ele>
        <time>2021-08-21T13:04:29.000Z</time>
      </trkpt>
      <trkpt lat="44.12154" lon="6.64453">
        <ele>1855.8000488281</ele>
        <time>2021-08-21T13:04:42.000Z</time>
      </trkpt>
      <trkpt lat="44.12156" lon="6.64452">
        <ele>1856.1999511719</ele>
        <time>2021-08-21T13:04:55.000Z</time>
      </trkpt>
      <trkpt lat="44.12155" lon="6.64448">
        <ele>1855.5999755859</ele>
        <time>2021-08-21T13:05:01.000Z</time>
      </trkpt>
      <trkpt lat="44.12153" lon="6.64447">
        <ele>1856</ele>
        <time>2021-08-21T13:05:09.000Z</time>
      </trkpt>
      <trkpt lat="44.12152" lon="6.64447">
        <ele>1856</ele>
        <time>2021-08-21T13:05:18.000Z</time>
      </trkpt>
      <trkpt lat="44.12151" lon="6.64448">
        <ele>1856</ele>
        <time>2021-08-21T13:05:25.000Z</time>
      </trkpt>
      <trkpt lat="44.12151" lon="6.64449">
        <ele>1856.4000244141</ele>
        <time>2021-08-21T13:05:34.000Z</time>
      </trkpt>
      <trkpt lat="44.12151" lon="6.64451">
        <ele>1856.1999511719</ele>
        <time>2021-08-21T13:05:50.000Z</time>
      </trkpt>
      <trkpt lat="44.12151" lon="6.64452">
        <ele>1856.1999511719</ele>
        <time>2021-08-21T13:05:57.000Z</time>
      </trkpt>
      <trkpt lat="44.1215" lon="6.64453">
        <ele>1856.4000244141</ele>
        <time>2021-08-21T13:06:02.000Z</time>
      </trkpt>
      <trkpt lat="44.1215" lon="6.64454">
        <ele>1856</ele>
        <time>2021-08-21T13:06:19.000Z</time>
      </trkpt>
      <trkpt lat="44.1215" lon="6.64456">
        <ele>1855.8000488281</ele>
        <time>2021-08-21T13:06:34.000Z</time>
      </trkpt>
      <trkpt lat="44.1215" lon="6.64458">
        <ele>1856</ele>
        <time>2021-08-21T13:06:53.000Z</time>
      </trkpt>
      <trkpt lat="44.12152" lon="6.64458">
        <ele>1856</ele>
        <time>2021-08-21T13:06:59.000Z</time>
      </trkpt>
      <trkpt lat="44.12153" lon="6.64458">
        <ele>1856.4000244141</ele>
        <time>2021-08-21T13:07:06.000Z</time>
      </trkpt>
      <trkpt lat="44.12153" lon="6.64456">
        <ele>1856.4000244141</ele>
        <time>2021-08-21T13:07:15.000Z</time>
      </trkpt>
      <trkpt lat="44.12153" lon="6.64455">
        <ele>1856.5999755859</ele>
        <time>2021-08-21T13:07:23.000Z</time>
      </trkpt>
      <trkpt lat="44.12154" lon="6.64454">
        <ele>1856.4000244141</ele>
        <time>2021-08-21T13:07:36.000Z</time>
      </trkpt>
      <trkpt lat="44.12154" lon="6.64453">
        <ele>1856.5999755859</ele>
        <time>2021-08-21T13:07:43.000Z</time>
      </trkpt>
      <trkpt lat="44.12155" lon="6.64454">
        <ele>1856.1999511719</ele>
        <time>2021-08-21T13:07:50.000Z</time>
      </trkpt>
      <trkpt lat="44.12154" lon="6.64454">
        <ele>1856.4000244141</ele>
        <time>2021-08-21T13:08:01.000Z</time>
      </trkpt>
      <trkpt lat="44.12151" lon="6.64458">
        <ele>1856.8000488281</ele>
        <time>2021-08-21T13:08:08.000Z</time>
      </trkpt>
      <trkpt lat="44.1215" lon="6.64458">
        <ele>1857</ele>
        <time>2021-08-21T13:08:09.000Z</time>
      </trkpt>
      <trkpt lat="44.12148" lon="6.64459">
        <ele>1857.1999511719</ele>
        <time>2021-08-21T13:08:12.000Z</time>
      </trkpt>
      <trkpt lat="44.12146" lon="6.64462">
        <ele>1857.5999755859</ele>
        <time>2021-08-21T13:08:15.000Z</time>
      </trkpt>
      <trkpt lat="44.12145" lon="6.64463">
        <ele>1858</ele>
        <time>2021-08-21T13:08:17.000Z</time>
      </trkpt>
      <trkpt lat="44.12144" lon="6.64464">
        <ele>1858.4000244141</ele>
        <time>2021-08-21T13:08:22.000Z</time>
      </trkpt>
      <trkpt lat="44.12141" lon="6.64467">
        <ele>1858.8000488281</ele>
        <time>2021-08-21T13:08:30.000Z</time>
      </trkpt>
      <trkpt lat="44.12138" lon="6.6447">
        <ele>1859.1999511719</ele>
        <time>2021-08-21T13:08:33.000Z</time>
      </trkpt>
      <trkpt lat="44.12135" lon="6.64476">
        <ele>1859.4000244141</ele>
        <time>2021-08-21T13:08:36.000Z</time>
      </trkpt>
      <trkpt lat="44.12128" lon="6.64488">
        <ele>1860.1999511719</ele>
        <time>2021-08-21T13:08:43.000Z</time>
      </trkpt>
      <trkpt lat="44.12126" lon="6.64489">
        <ele>1860.1999511719</ele>
        <time>2021-08-21T13:08:44.000Z</time>
      </trkpt>
      <trkpt lat="44.12125" lon="6.64491">
        <ele>1860.4000244141</ele>
        <time>2021-08-21T13:08:45.000Z</time>
      </trkpt>
      <trkpt lat="44.12122" lon="6.64498">
        <ele>1860.5999755859</ele>
        <time>2021-08-21T13:08:48.000Z</time>
      </trkpt>
      <trkpt lat="44.12116" lon="6.64512">
        <ele>1861</ele>
        <time>2021-08-21T13:08:54.000Z</time>
      </trkpt>
      <trkpt lat="44.12112" lon="6.6452">
        <ele>1861.1999511719</ele>
        <time>2021-08-21T13:08:58.000Z</time>
      </trkpt>
      <trkpt lat="44.1211" lon="6.64528">
        <ele>1861.4000244141</ele>
        <time>2021-08-21T13:09:01.000Z</time>
      </trkpt>
      <trkpt lat="44.12103" lon="6.64544">
        <ele>1862.1999511719</ele>
        <time>2021-08-21T13:09:08.000Z</time>
      </trkpt>
      <trkpt lat="44.12096" lon="6.64559">
        <ele>1862.8000488281</ele>
        <time>2021-08-21T13:09:15.000Z</time>
      </trkpt>
      <trkpt lat="44.12094" lon="6.64563">
        <ele>1863</ele>
        <time>2021-08-21T13:09:17.000Z</time>
      </trkpt>
      <trkpt lat="44.12089" lon="6.64572">
        <ele>1863.4000244141</ele>
        <time>2021-08-21T13:09:21.000Z</time>
      </trkpt>
      <trkpt lat="44.12089" lon="6.64574">
        <ele>1863.4000244141</ele>
        <time>2021-08-21T13:09:22.000Z</time>
      </trkpt>
      <trkpt lat="44.12082" lon="6.64588">
        <ele>1864</ele>
        <time>2021-08-21T13:09:28.000Z</time>
      </trkpt>
      <trkpt lat="44.12078" lon="6.64598">
        <ele>1864.4000244141</ele>
        <time>2021-08-21T13:09:32.000Z</time>
      </trkpt>
      <trkpt lat="44.12077" lon="6.64602">
        <ele>1864.8000488281</ele>
        <time>2021-08-21T13:09:34.000Z</time>
      </trkpt>
      <trkpt lat="44.12076" lon="6.64605">
        <ele>1865</ele>
        <time>2021-08-21T13:09:35.000Z</time>
      </trkpt>
      <trkpt lat="44.1207" lon="6.64617">
        <ele>1865.5999755859</ele>
        <time>2021-08-21T13:09:40.000Z</time>
      </trkpt>
      <trkpt lat="44.12069" lon="6.64619">
        <ele>1865.5999755859</ele>
        <time>2021-08-21T13:09:41.000Z</time>
      </trkpt>
      <trkpt lat="44.12064" lon="6.64632">
        <ele>1866.5999755859</ele>
        <time>2021-08-21T13:09:47.000Z</time>
      </trkpt>
      <trkpt lat="44.12061" lon="6.64639">
        <ele>1867</ele>
        <time>2021-08-21T13:09:50.000Z</time>
      </trkpt>
      <trkpt lat="44.12059" lon="6.64646">
        <ele>1867.1999511719</ele>
        <time>2021-08-21T13:09:53.000Z</time>
      </trkpt>
      <trkpt lat="44.12059" lon="6.64648">
        <ele>1867.4000244141</ele>
        <time>2021-08-21T13:09:54.000Z</time>
      </trkpt>
      <trkpt lat="44.12057" lon="6.64655">
        <ele>1867.5999755859</ele>
        <time>2021-08-21T13:09:57.000Z</time>
      </trkpt>
      <trkpt lat="44.12056" lon="6.64659">
        <ele>1867.8000488281</ele>
        <time>2021-08-21T13:09:59.000Z</time>
      </trkpt>
      <trkpt lat="44.12054" lon="6.64669">
        <ele>1868.1999511719</ele>
        <time>2021-08-21T13:10:03.000Z</time>
      </trkpt>
      <trkpt lat="44.12052" lon="6.64679">
        <ele>1868.8000488281</ele>
        <time>2021-08-21T13:10:07.000Z</time>
      </trkpt>
      <trkpt lat="44.1205" lon="6.64684">
        <ele>1869</ele>
        <time>2021-08-21T13:10:09.000Z</time>
      </trkpt>
      <trkpt lat="44.12043" lon="6.64696">
        <ele>1869.8000488281</ele>
        <time>2021-08-21T13:10:15.000Z</time>
      </trkpt>
      <trkpt lat="44.12042" lon="6.64697">
        <ele>1869.8000488281</ele>
        <time>2021-08-21T13:10:16.000Z</time>
      </trkpt>
      <trkpt lat="44.1204" lon="6.64698">
        <ele>1870</ele>
        <time>2021-08-21T13:10:17.000Z</time>
      </trkpt>
      <trkpt lat="44.12036" lon="6.64699">
        <ele>1870</ele>
        <time>2021-08-21T13:10:19.000Z</time>
      </trkpt>
      <trkpt lat="44.12027" lon="6.64699">
        <ele>1870.4000244141</ele>
        <time>2021-08-21T13:10:24.000Z</time>
      </trkpt>
      <trkpt lat="44.12019" lon="6.64701">
        <ele>1870.5999755859</ele>
        <time>2021-08-21T13:10:29.000Z</time>
      </trkpt>
      <trkpt lat="44.12016" lon="6.64704">
        <ele>1871</ele>
        <time>2021-08-21T13:10:31.000Z</time>
      </trkpt>
      <trkpt lat="44.12014" lon="6.64705">
        <ele>1871.1999511719</ele>
        <time>2021-08-21T13:10:32.000Z</time>
      </trkpt>
      <trkpt lat="44.12009" lon="6.64711">
        <ele>1871.5999755859</ele>
        <time>2021-08-21T13:10:36.000Z</time>
      </trkpt>
      <trkpt lat="44.12008" lon="6.64713">
        <ele>1871.5999755859</ele>
        <time>2021-08-21T13:10:37.000Z</time>
      </trkpt>
      <trkpt lat="44.12" lon="6.6472">
        <ele>1871.8000488281</ele>
        <time>2021-08-21T13:10:41.000Z</time>
      </trkpt>
      <trkpt lat="44.11995" lon="6.64727">
        <ele>1872</ele>
        <time>2021-08-21T13:10:44.000Z</time>
      </trkpt>
      <trkpt lat="44.1199" lon="6.64735">
        <ele>1872.1999511719</ele>
        <time>2021-08-21T13:10:47.000Z</time>
      </trkpt>
      <trkpt lat="44.11984" lon="6.64746">
        <ele>1872.5999755859</ele>
        <time>2021-08-21T13:10:52.000Z</time>
      </trkpt>
      <trkpt lat="44.1198" lon="6.64753">
        <ele>1873.1999511719</ele>
        <time>2021-08-21T13:10:55.000Z</time>
      </trkpt>
      <trkpt lat="44.11979" lon="6.64756">
        <ele>1873.4000244141</ele>
        <time>2021-08-21T13:10:56.000Z</time>
      </trkpt>
      <trkpt lat="44.11978" lon="6.64759">
        <ele>1873.5999755859</ele>
        <time>2021-08-21T13:10:57.000Z</time>
      </trkpt>
      <trkpt lat="44.11972" lon="6.64768">
        <ele>1874.1999511719</ele>
        <time>2021-08-21T13:11:02.000Z</time>
      </trkpt>
      <trkpt lat="44.1197" lon="6.64768">
        <ele>1874.4000244141</ele>
        <time>2021-08-21T13:11:03.000Z</time>
      </trkpt>
      <trkpt lat="44.11962" lon="6.64769">
        <ele>1875.1999511719</ele>
        <time>2021-08-21T13:11:08.000Z</time>
      </trkpt>
      <trkpt lat="44.11959" lon="6.6477">
        <ele>1875.4000244141</ele>
        <time>2021-08-21T13:11:10.000Z</time>
      </trkpt>
      <trkpt lat="44.11952" lon="6.64777">
        <ele>1875.8000488281</ele>
        <time>2021-08-21T13:11:14.000Z</time>
      </trkpt>
      <trkpt lat="44.11944" lon="6.64781">
        <ele>1876.1999511719</ele>
        <time>2021-08-21T13:11:18.000Z</time>
      </trkpt>
      <trkpt lat="44.11943" lon="6.64781">
        <ele>1876.4000244141</ele>
        <time>2021-08-21T13:11:19.000Z</time>
      </trkpt>
      <trkpt lat="44.11939" lon="6.64783">
        <ele>1876.8000488281</ele>
        <time>2021-08-21T13:11:21.000Z</time>
      </trkpt>
      <trkpt lat="44.11938" lon="6.64784">
        <ele>1876.8000488281</ele>
        <time>2021-08-21T13:11:22.000Z</time>
      </trkpt>
      <trkpt lat="44.11931" lon="6.6479">
        <ele>1877</ele>
        <time>2021-08-21T13:11:25.000Z</time>
      </trkpt>
      <trkpt lat="44.11929" lon="6.64792">
        <ele>1877.1999511719</ele>
        <time>2021-08-21T13:11:26.000Z</time>
      </trkpt>
      <trkpt lat="44.11923" lon="6.64799">
        <ele>1877.4000244141</ele>
        <time>2021-08-21T13:11:29.000Z</time>
      </trkpt>
      <trkpt lat="44.11913" lon="6.64812">
        <ele>1878.5999755859</ele>
        <time>2021-08-21T13:11:34.000Z</time>
      </trkpt>
      <trkpt lat="44.11901" lon="6.64824">
        <ele>1879.1999511719</ele>
        <time>2021-08-21T13:11:40.000Z</time>
      </trkpt>
      <trkpt lat="44.11898" lon="6.64828">
        <ele>1879.5999755859</ele>
        <time>2021-08-21T13:11:42.000Z</time>
      </trkpt>
      <trkpt lat="44.11892" lon="6.64837">
        <ele>1880</ele>
        <time>2021-08-21T13:11:46.000Z</time>
      </trkpt>
      <trkpt lat="44.1189" lon="6.64839">
        <ele>1880</ele>
        <time>2021-08-21T13:11:47.000Z</time>
      </trkpt>
      <trkpt lat="44.11883" lon="6.64843">
        <ele>1880.4000244141</ele>
        <time>2021-08-21T13:11:51.000Z</time>
      </trkpt>
      <trkpt lat="44.11881" lon="6.64852">
        <ele>1880.8000488281</ele>
        <time>2021-08-21T13:11:54.000Z</time>
      </trkpt>
      <trkpt lat="44.1188" lon="6.64856">
        <ele>1880.8000488281</ele>
        <time>2021-08-21T13:11:55.000Z</time>
      </trkpt>
      <trkpt lat="44.11873" lon="6.64866">
        <ele>1881.1999511719</ele>
        <time>2021-08-21T13:11:59.000Z</time>
      </trkpt>
      <trkpt lat="44.11861" lon="6.64881">
        <ele>1881</ele>
        <time>2021-08-21T13:12:05.000Z</time>
      </trkpt>
      <trkpt lat="44.11847" lon="6.64892">
        <ele>1881.5999755859</ele>
        <time>2021-08-21T13:12:12.000Z</time>
      </trkpt>
      <trkpt lat="44.11846" lon="6.64895">
        <ele>1881.8000488281</ele>
        <time>2021-08-21T13:12:13.000Z</time>
      </trkpt>
      <trkpt lat="44.11845" lon="6.64903">
        <ele>1882.4000244141</ele>
        <time>2021-08-21T13:12:17.000Z</time>
      </trkpt>
      <trkpt lat="44.11844" lon="6.64907">
        <ele>1882.4000244141</ele>
        <time>2021-08-21T13:12:19.000Z</time>
      </trkpt>
      <trkpt lat="44.11843" lon="6.64909">
        <ele>1882.1999511719</ele>
        <time>2021-08-21T13:12:22.000Z</time>
      </trkpt>
      <trkpt lat="44.1184" lon="6.64911">
        <ele>1881.8000488281</ele>
        <time>2021-08-21T13:12:27.000Z</time>
      </trkpt>
      <trkpt lat="44.1184" lon="6.64911">
        <ele>1881.8000488281</ele>
        <time>2021-08-21T13:12:28.000Z</time>
      </trkpt>
      <trkpt lat="44.11837" lon="6.64913">
        <ele>1881.5999755859</ele>
        <time>2021-08-21T13:12:35.000Z</time>
      </trkpt>
      <trkpt lat="44.11836" lon="6.64913">
        <ele>1881</ele>
        <time>2021-08-21T13:12:40.000Z</time>
      </trkpt>
      <trkpt lat="44.11836" lon="6.64907">
        <ele>1881.5999755859</ele>
        <time>2021-08-21T13:12:46.000Z</time>
      </trkpt>
      <trkpt lat="44.11835" lon="6.64905">
        <ele>1882.1999511719</ele>
        <time>2021-08-21T13:12:53.000Z</time>
      </trkpt>
      <trkpt lat="44.11835" lon="6.64905">
        <ele>1881.8000488281</ele>
        <time>2021-08-21T13:13:00.000Z</time>
      </trkpt>
      <trkpt lat="44.11836" lon="6.64904">
        <ele>1882</ele>
        <time>2021-08-21T13:13:09.000Z</time>
      </trkpt>
      <trkpt lat="44.11836" lon="6.64903">
        <ele>1882</ele>
        <time>2021-08-21T13:13:10.000Z</time>
      </trkpt>
      <trkpt lat="44.11832" lon="6.64896">
        <ele>1882.1999511719</ele>
        <time>2021-08-21T13:13:13.000Z</time>
      </trkpt>
      <trkpt lat="44.11831" lon="6.64884">
        <ele>1882.1999511719</ele>
        <time>2021-08-21T13:13:17.000Z</time>
      </trkpt>
      <trkpt lat="44.1183" lon="6.64863">
        <ele>1882.4000244141</ele>
        <time>2021-08-21T13:13:23.000Z</time>
      </trkpt>
      <trkpt lat="44.11832" lon="6.64843">
        <ele>1882.5999755859</ele>
        <time>2021-08-21T13:13:29.000Z</time>
      </trkpt>
      <trkpt lat="44.11832" lon="6.64824">
        <ele>1882.5999755859</ele>
        <time>2021-08-21T13:13:35.000Z</time>
      </trkpt>
      <trkpt lat="44.11834" lon="6.64808">
        <ele>1883</ele>
        <time>2021-08-21T13:13:40.000Z</time>
      </trkpt>
      <trkpt lat="44.11835" lon="6.64804">
        <ele>1883.1999511719</ele>
        <time>2021-08-21T13:13:41.000Z</time>
      </trkpt>
      <trkpt lat="44.11832" lon="6.64792">
        <ele>1883.8000488281</ele>
        <time>2021-08-21T13:13:45.000Z</time>
      </trkpt>
      <trkpt lat="44.11831" lon="6.6479">
        <ele>1883.8000488281</ele>
        <time>2021-08-21T13:13:46.000Z</time>
      </trkpt>
      <trkpt lat="44.11828" lon="6.64778">
        <ele>1883.8000488281</ele>
        <time>2021-08-21T13:13:50.000Z</time>
      </trkpt>
      <trkpt lat="44.1183" lon="6.64772">
        <ele>1884.1999511719</ele>
        <time>2021-08-21T13:13:52.000Z</time>
      </trkpt>
      <trkpt lat="44.11832" lon="6.64768">
        <ele>1884.5999755859</ele>
        <time>2021-08-21T13:13:54.000Z</time>
      </trkpt>
      <trkpt lat="44.11832" lon="6.64766">
        <ele>1885</ele>
        <time>2021-08-21T13:13:55.000Z</time>
      </trkpt>
      <trkpt lat="44.11833" lon="6.64763">
        <ele>1885.1999511719</ele>
        <time>2021-08-21T13:13:56.000Z</time>
      </trkpt>
      <trkpt lat="44.11834" lon="6.64752">
        <ele>1886.1999511719</ele>
        <time>2021-08-21T13:14:01.000Z</time>
      </trkpt>
      <trkpt lat="44.11834" lon="6.6475">
        <ele>1886.4000244141</ele>
        <time>2021-08-21T13:14:02.000Z</time>
      </trkpt>
      <trkpt lat="44.11832" lon="6.64734">
        <ele>1887.4000244141</ele>
        <time>2021-08-21T13:14:08.000Z</time>
      </trkpt>
      <trkpt lat="44.11833" lon="6.64722">
        <ele>1888.4000244141</ele>
        <time>2021-08-21T13:14:13.000Z</time>
      </trkpt>
      <trkpt lat="44.11833" lon="6.6472">
        <ele>1888.5999755859</ele>
        <time>2021-08-21T13:14:14.000Z</time>
      </trkpt>
      <trkpt lat="44.11835" lon="6.64711">
        <ele>1889.5999755859</ele>
        <time>2021-08-21T13:14:20.000Z</time>
      </trkpt>
      <trkpt lat="44.11834" lon="6.64701">
        <ele>1890.8000488281</ele>
        <time>2021-08-21T13:14:25.000Z</time>
      </trkpt>
      <trkpt lat="44.11835" lon="6.64686">
        <ele>1891.8000488281</ele>
        <time>2021-08-21T13:14:32.000Z</time>
      </trkpt>
      <trkpt lat="44.11835" lon="6.64683">
        <ele>1892</ele>
        <time>2021-08-21T13:14:33.000Z</time>
      </trkpt>
      <trkpt lat="44.11835" lon="6.64669">
        <ele>1892.8000488281</ele>
        <time>2021-08-21T13:14:39.000Z</time>
      </trkpt>
      <trkpt lat="44.11835" lon="6.64667">
        <ele>1893</ele>
        <time>2021-08-21T13:14:40.000Z</time>
      </trkpt>
      <trkpt lat="44.11836" lon="6.64658">
        <ele>1894</ele>
        <time>2021-08-21T13:14:45.000Z</time>
      </trkpt>
      <trkpt lat="44.11837" lon="6.64646">
        <ele>1895.1999511719</ele>
        <time>2021-08-21T13:14:51.000Z</time>
      </trkpt>
      <trkpt lat="44.11836" lon="6.64645">
        <ele>1895.4000244141</ele>
        <time>2021-08-21T13:14:52.000Z</time>
      </trkpt>
      <trkpt lat="44.11836" lon="6.64638">
        <ele>1896.1999511719</ele>
        <time>2021-08-21T13:14:56.000Z</time>
      </trkpt>
      <trkpt lat="44.11836" lon="6.64637">
        <ele>1896.1999511719</ele>
        <time>2021-08-21T13:14:57.000Z</time>
      </trkpt>
      <trkpt lat="44.11836" lon="6.64636">
        <ele>1896.4000244141</ele>
        <time>2021-08-21T13:14:58.000Z</time>
      </trkpt>
      <trkpt lat="44.11834" lon="6.64628">
        <ele>1897.4000244141</ele>
        <time>2021-08-21T13:15:03.000Z</time>
      </trkpt>
      <trkpt lat="44.11833" lon="6.64625">
        <ele>1897.5999755859</ele>
        <time>2021-08-21T13:15:05.000Z</time>
      </trkpt>
      <trkpt lat="44.1183" lon="6.64616">
        <ele>1898.4000244141</ele>
        <time>2021-08-21T13:15:11.000Z</time>
      </trkpt>
      <trkpt lat="44.1183" lon="6.64614">
        <ele>1898.4000244141</ele>
        <time>2021-08-21T13:15:12.000Z</time>
      </trkpt>
      <trkpt lat="44.1183" lon="6.64613">
        <ele>1898.4000244141</ele>
        <time>2021-08-21T13:15:13.000Z</time>
      </trkpt>
      <trkpt lat="44.11828" lon="6.64609">
        <ele>1898.8000488281</ele>
        <time>2021-08-21T13:15:16.000Z</time>
      </trkpt>
      <trkpt lat="44.11828" lon="6.64607">
        <ele>1899</ele>
        <time>2021-08-21T13:15:18.000Z</time>
      </trkpt>
      <trkpt lat="44.11827" lon="6.64604">
        <ele>1899.4000244141</ele>
        <time>2021-08-21T13:15:20.000Z</time>
      </trkpt>
      <trkpt lat="44.11826" lon="6.64602">
        <ele>1899.5999755859</ele>
        <time>2021-08-21T13:15:21.000Z</time>
      </trkpt>
      <trkpt lat="44.11825" lon="6.64598">
        <ele>1900.1999511719</ele>
        <time>2021-08-21T13:15:24.000Z</time>
      </trkpt>
      <trkpt lat="44.11824" lon="6.64596">
        <ele>1900.1999511719</ele>
        <time>2021-08-21T13:15:25.000Z</time>
      </trkpt>
      <trkpt lat="44.1182" lon="6.64587">
        <ele>1900.5999755859</ele>
        <time>2021-08-21T13:15:30.000Z</time>
      </trkpt>
      <trkpt lat="44.11819" lon="6.64585">
        <ele>1900.8000488281</ele>
        <time>2021-08-21T13:15:31.000Z</time>
      </trkpt>
      <trkpt lat="44.11813" lon="6.64576">
        <ele>1901.4000244141</ele>
        <time>2021-08-21T13:15:37.000Z</time>
      </trkpt>
      <trkpt lat="44.11811" lon="6.64574">
        <ele>1901.8000488281</ele>
        <time>2021-08-21T13:15:39.000Z</time>
      </trkpt>
      <trkpt lat="44.11806" lon="6.64571">
        <ele>1902.4000244141</ele>
        <time>2021-08-21T13:15:43.000Z</time>
      </trkpt>
      <trkpt lat="44.118" lon="6.64568">
        <ele>1902.8000488281</ele>
        <time>2021-08-21T13:15:47.000Z</time>
      </trkpt>
      <trkpt lat="44.11795" lon="6.64566">
        <ele>1903.5999755859</ele>
        <time>2021-08-21T13:15:51.000Z</time>
      </trkpt>
      <trkpt lat="44.11793" lon="6.64564">
        <ele>1903.8000488281</ele>
        <time>2021-08-21T13:15:52.000Z</time>
      </trkpt>
      <trkpt lat="44.11792" lon="6.64562">
        <ele>1904</ele>
        <time>2021-08-21T13:15:53.000Z</time>
      </trkpt>
      <trkpt lat="44.11792" lon="6.64557">
        <ele>1904.4000244141</ele>
        <time>2021-08-21T13:15:55.000Z</time>
      </trkpt>
      <trkpt lat="44.11793" lon="6.64549">
        <ele>1905</ele>
        <time>2021-08-21T13:15:59.000Z</time>
      </trkpt>
      <trkpt lat="44.11793" lon="6.64545">
        <ele>1905.4000244141</ele>
        <time>2021-08-21T13:16:01.000Z</time>
      </trkpt>
      <trkpt lat="44.11793" lon="6.64544">
        <ele>1905.4000244141</ele>
        <time>2021-08-21T13:16:02.000Z</time>
      </trkpt>
      <trkpt lat="44.11793" lon="6.64539">
        <ele>1906</ele>
        <time>2021-08-21T13:16:05.000Z</time>
      </trkpt>
      <trkpt lat="44.11792" lon="6.64536">
        <ele>1906.4000244141</ele>
        <time>2021-08-21T13:16:07.000Z</time>
      </trkpt>
      <trkpt lat="44.1179" lon="6.64525">
        <ele>1907.1999511719</ele>
        <time>2021-08-21T13:16:13.000Z</time>
      </trkpt>
      <trkpt lat="44.11785" lon="6.64514">
        <ele>1908</ele>
        <time>2021-08-21T13:16:19.000Z</time>
      </trkpt>
      <trkpt lat="44.11784" lon="6.64512">
        <ele>1908.1999511719</ele>
        <time>2021-08-21T13:16:20.000Z</time>
      </trkpt>
      <trkpt lat="44.11778" lon="6.64501">
        <ele>1908.8000488281</ele>
        <time>2021-08-21T13:16:26.000Z</time>
      </trkpt>
      <trkpt lat="44.11775" lon="6.64494">
        <ele>1909.1999511719</ele>
        <time>2021-08-21T13:16:29.000Z</time>
      </trkpt>
      <trkpt lat="44.11774" lon="6.64489">
        <ele>1909.8000488281</ele>
        <time>2021-08-21T13:16:32.000Z</time>
      </trkpt>
      <trkpt lat="44.11774" lon="6.64484">
        <ele>1910.4000244141</ele>
        <time>2021-08-21T13:16:35.000Z</time>
      </trkpt>
      <trkpt lat="44.11772" lon="6.64481">
        <ele>1910.5999755859</ele>
        <time>2021-08-21T13:16:37.000Z</time>
      </trkpt>
      <trkpt lat="44.11771" lon="6.64479">
        <ele>1910.8000488281</ele>
        <time>2021-08-21T13:16:39.000Z</time>
      </trkpt>
      <trkpt lat="44.11767" lon="6.64474">
        <ele>1911</ele>
        <time>2021-08-21T13:16:42.000Z</time>
      </trkpt>
      <trkpt lat="44.11763" lon="6.6447">
        <ele>1911.4000244141</ele>
        <time>2021-08-21T13:16:45.000Z</time>
      </trkpt>
      <trkpt lat="44.11759" lon="6.64461">
        <ele>1911.8000488281</ele>
        <time>2021-08-21T13:16:49.000Z</time>
      </trkpt>
      <trkpt lat="44.11758" lon="6.64454">
        <ele>1912.4000244141</ele>
        <time>2021-08-21T13:16:53.000Z</time>
      </trkpt>
      <trkpt lat="44.11758" lon="6.64453">
        <ele>1912.5999755859</ele>
        <time>2021-08-21T13:16:54.000Z</time>
      </trkpt>
      <trkpt lat="44.11755" lon="6.64443">
        <ele>1913.4000244141</ele>
        <time>2021-08-21T13:16:59.000Z</time>
      </trkpt>
      <trkpt lat="44.11753" lon="6.64438">
        <ele>1913.4000244141</ele>
        <time>2021-08-21T13:17:01.000Z</time>
      </trkpt>
      <trkpt lat="44.11752" lon="6.64436">
        <ele>1913.5999755859</ele>
        <time>2021-08-21T13:17:02.000Z</time>
      </trkpt>
      <trkpt lat="44.11749" lon="6.64429">
        <ele>1914.1999511719</ele>
        <time>2021-08-21T13:17:06.000Z</time>
      </trkpt>
      <trkpt lat="44.11749" lon="6.64426">
        <ele>1914.5999755859</ele>
        <time>2021-08-21T13:17:08.000Z</time>
      </trkpt>
      <trkpt lat="44.11747" lon="6.64421">
        <ele>1915.4000244141</ele>
        <time>2021-08-21T13:17:11.000Z</time>
      </trkpt>
      <trkpt lat="44.11747" lon="6.64417">
        <ele>1915.5999755859</ele>
        <time>2021-08-21T13:17:13.000Z</time>
      </trkpt>
      <trkpt lat="44.11746" lon="6.64414">
        <ele>1915.8000488281</ele>
        <time>2021-08-21T13:17:15.000Z</time>
      </trkpt>
      <trkpt lat="44.11745" lon="6.64411">
        <ele>1916.1999511719</ele>
        <time>2021-08-21T13:17:17.000Z</time>
      </trkpt>
      <trkpt lat="44.11744" lon="6.64402">
        <ele>1916.8000488281</ele>
        <time>2021-08-21T13:17:21.000Z</time>
      </trkpt>
      <trkpt lat="44.11743" lon="6.64398">
        <ele>1917.1999511719</ele>
        <time>2021-08-21T13:17:23.000Z</time>
      </trkpt>
      <trkpt lat="44.11741" lon="6.6439">
        <ele>1918</ele>
        <time>2021-08-21T13:17:28.000Z</time>
      </trkpt>
      <trkpt lat="44.11739" lon="6.64386">
        <ele>1918.4000244141</ele>
        <time>2021-08-21T13:17:30.000Z</time>
      </trkpt>
      <trkpt lat="44.11739" lon="6.64378">
        <ele>1919</ele>
        <time>2021-08-21T13:17:34.000Z</time>
      </trkpt>
      <trkpt lat="44.11738" lon="6.64376">
        <ele>1919</ele>
        <time>2021-08-21T13:17:35.000Z</time>
      </trkpt>
      <trkpt lat="44.11737" lon="6.64374">
        <ele>1919.1999511719</ele>
        <time>2021-08-21T13:17:36.000Z</time>
      </trkpt>
      <trkpt lat="44.11733" lon="6.64365">
        <ele>1920</ele>
        <time>2021-08-21T13:17:42.000Z</time>
      </trkpt>
      <trkpt lat="44.11731" lon="6.64361">
        <ele>1920.4000244141</ele>
        <time>2021-08-21T13:17:44.000Z</time>
      </trkpt>
      <trkpt lat="44.11727" lon="6.64355">
        <ele>1921.1999511719</ele>
        <time>2021-08-21T13:17:48.000Z</time>
      </trkpt>
      <trkpt lat="44.11725" lon="6.64352">
        <ele>1921.4000244141</ele>
        <time>2021-08-21T13:17:50.000Z</time>
      </trkpt>
      <trkpt lat="44.1172" lon="6.64344">
        <ele>1922.1999511719</ele>
        <time>2021-08-21T13:17:56.000Z</time>
      </trkpt>
      <trkpt lat="44.11719" lon="6.64343">
        <ele>1922.4000244141</ele>
        <time>2021-08-21T13:17:57.000Z</time>
      </trkpt>
      <trkpt lat="44.11713" lon="6.64334">
        <ele>1923.1999511719</ele>
        <time>2021-08-21T13:18:02.000Z</time>
      </trkpt>
      <trkpt lat="44.11712" lon="6.64332">
        <ele>1923.1999511719</ele>
        <time>2021-08-21T13:18:03.000Z</time>
      </trkpt>
      <trkpt lat="44.11706" lon="6.64324">
        <ele>1924.4000244141</ele>
        <time>2021-08-21T13:18:09.000Z</time>
      </trkpt>
      <trkpt lat="44.11699" lon="6.64314">
        <ele>1925</ele>
        <time>2021-08-21T13:18:16.000Z</time>
      </trkpt>
      <trkpt lat="44.11697" lon="6.6431">
        <ele>1925.5999755859</ele>
        <time>2021-08-21T13:18:19.000Z</time>
      </trkpt>
      <trkpt lat="44.11691" lon="6.64305">
        <ele>1926.4000244141</ele>
        <time>2021-08-21T13:18:23.000Z</time>
      </trkpt>
      <trkpt lat="44.1169" lon="6.64303">
        <ele>1926.5999755859</ele>
        <time>2021-08-21T13:18:25.000Z</time>
      </trkpt>
      <trkpt lat="44.11688" lon="6.64301">
        <ele>1926.8000488281</ele>
        <time>2021-08-21T13:18:28.000Z</time>
      </trkpt>
      <trkpt lat="44.11684" lon="6.64298">
        <ele>1927.4000244141</ele>
        <time>2021-08-21T13:18:34.000Z</time>
      </trkpt>
      <trkpt lat="44.11682" lon="6.64295">
        <ele>1927.5999755859</ele>
        <time>2021-08-21T13:18:38.000Z</time>
      </trkpt>
      <trkpt lat="44.1168" lon="6.64293">
        <ele>1927.8000488281</ele>
        <time>2021-08-21T13:18:40.000Z</time>
      </trkpt>
      <trkpt lat="44.11674" lon="6.64285">
        <ele>1928.4000244141</ele>
        <time>2021-08-21T13:18:46.000Z</time>
      </trkpt>
      <trkpt lat="44.11671" lon="6.6428">
        <ele>1928.5999755859</ele>
        <time>2021-08-21T13:18:49.000Z</time>
      </trkpt>
      <trkpt lat="44.1167" lon="6.64279">
        <ele>1928.8000488281</ele>
        <time>2021-08-21T13:18:50.000Z</time>
      </trkpt>
      <trkpt lat="44.11669" lon="6.64278">
        <ele>1928.8000488281</ele>
        <time>2021-08-21T13:18:51.000Z</time>
      </trkpt>
      <trkpt lat="44.11663" lon="6.64276">
        <ele>1929.8000488281</ele>
        <time>2021-08-21T13:18:57.000Z</time>
      </trkpt>
      <trkpt lat="44.11661" lon="6.64275">
        <ele>1929.8000488281</ele>
        <time>2021-08-21T13:18:58.000Z</time>
      </trkpt>
      <trkpt lat="44.11659" lon="6.64275">
        <ele>1930</ele>
        <time>2021-08-21T13:18:59.000Z</time>
      </trkpt>
      <trkpt lat="44.11657" lon="6.64272">
        <ele>1930.1999511719</ele>
        <time>2021-08-21T13:19:01.000Z</time>
      </trkpt>
      <trkpt lat="44.11655" lon="6.64265">
        <ele>1930.5999755859</ele>
        <time>2021-08-21T13:19:05.000Z</time>
      </trkpt>
      <trkpt lat="44.11654" lon="6.64262">
        <ele>1930.8000488281</ele>
        <time>2021-08-21T13:19:07.000Z</time>
      </trkpt>
      <trkpt lat="44.1165" lon="6.64253">
        <ele>1932</ele>
        <time>2021-08-21T13:19:13.000Z</time>
      </trkpt>
      <trkpt lat="44.11649" lon="6.64252">
        <ele>1932</ele>
        <time>2021-08-21T13:19:14.000Z</time>
      </trkpt>
      <trkpt lat="44.11643" lon="6.64246">
        <ele>1933</ele>
        <time>2021-08-21T13:19:21.000Z</time>
      </trkpt>
      <trkpt lat="44.1164" lon="6.64245">
        <ele>1933.4000244141</ele>
        <time>2021-08-21T13:19:24.000Z</time>
      </trkpt>
      <trkpt lat="44.11636" lon="6.64242">
        <ele>1933.8000488281</ele>
        <time>2021-08-21T13:19:27.000Z</time>
      </trkpt>
      <trkpt lat="44.11635" lon="6.64242">
        <ele>1934</ele>
        <time>2021-08-21T13:19:28.000Z</time>
      </trkpt>
      <trkpt lat="44.11632" lon="6.6424">
        <ele>1934.8000488281</ele>
        <time>2021-08-21T13:19:32.000Z</time>
      </trkpt>
      <trkpt lat="44.11631" lon="6.64239">
        <ele>1935.1999511719</ele>
        <time>2021-08-21T13:19:34.000Z</time>
      </trkpt>
      <trkpt lat="44.1163" lon="6.64238">
        <ele>1935.4000244141</ele>
        <time>2021-08-21T13:19:35.000Z</time>
      </trkpt>
      <trkpt lat="44.11626" lon="6.64234">
        <ele>1936</ele>
        <time>2021-08-21T13:19:39.000Z</time>
      </trkpt>
      <trkpt lat="44.11625" lon="6.64234">
        <ele>1936.1999511719</ele>
        <time>2021-08-21T13:19:40.000Z</time>
      </trkpt>
      <trkpt lat="44.1162" lon="6.6423">
        <ele>1937</ele>
        <time>2021-08-21T13:19:46.000Z</time>
      </trkpt>
      <trkpt lat="44.11617" lon="6.64228">
        <ele>1937.1999511719</ele>
        <time>2021-08-21T13:19:49.000Z</time>
      </trkpt>
      <trkpt lat="44.11614" lon="6.64225">
        <ele>1937.8000488281</ele>
        <time>2021-08-21T13:19:53.000Z</time>
      </trkpt>
      <trkpt lat="44.11612" lon="6.64222">
        <ele>1938.4000244141</ele>
        <time>2021-08-21T13:19:56.000Z</time>
      </trkpt>
      <trkpt lat="44.11607" lon="6.64216">
        <ele>1939</ele>
        <time>2021-08-21T13:20:01.000Z</time>
      </trkpt>
      <trkpt lat="44.11603" lon="6.64211">
        <ele>1939.4000244141</ele>
        <time>2021-08-21T13:20:05.000Z</time>
      </trkpt>
      <trkpt lat="44.11602" lon="6.6421">
        <ele>1939.5999755859</ele>
        <time>2021-08-21T13:20:06.000Z</time>
      </trkpt>
      <trkpt lat="44.116" lon="6.64207">
        <ele>1940</ele>
        <time>2021-08-21T13:20:08.000Z</time>
      </trkpt>
      <trkpt lat="44.11596" lon="6.64202">
        <ele>1940.4000244141</ele>
        <time>2021-08-21T13:20:12.000Z</time>
      </trkpt>
      <trkpt lat="44.11594" lon="6.642">
        <ele>1940.8000488281</ele>
        <time>2021-08-21T13:20:14.000Z</time>
      </trkpt>
      <trkpt lat="44.1159" lon="6.64196">
        <ele>1941</ele>
        <time>2021-08-21T13:20:18.000Z</time>
      </trkpt>
      <trkpt lat="44.11589" lon="6.64193">
        <ele>1941.1999511719</ele>
        <time>2021-08-21T13:20:20.000Z</time>
      </trkpt>
      <trkpt lat="44.11587" lon="6.64191">
        <ele>1941.5999755859</ele>
        <time>2021-08-21T13:20:22.000Z</time>
      </trkpt>
      <trkpt lat="44.11583" lon="6.64187">
        <ele>1942.5999755859</ele>
        <time>2021-08-21T13:20:26.000Z</time>
      </trkpt>
      <trkpt lat="44.11582" lon="6.64185">
        <ele>1942.8000488281</ele>
        <time>2021-08-21T13:20:27.000Z</time>
      </trkpt>
      <trkpt lat="44.11581" lon="6.64184">
        <ele>1942.8000488281</ele>
        <time>2021-08-21T13:20:28.000Z</time>
      </trkpt>
      <trkpt lat="44.11576" lon="6.6418">
        <ele>1943.4000244141</ele>
        <time>2021-08-21T13:20:33.000Z</time>
      </trkpt>
      <trkpt lat="44.11571" lon="6.64177">
        <ele>1943.8000488281</ele>
        <time>2021-08-21T13:20:37.000Z</time>
      </trkpt>
      <trkpt lat="44.11565" lon="6.64175">
        <ele>1944.4000244141</ele>
        <time>2021-08-21T13:20:41.000Z</time>
      </trkpt>
      <trkpt lat="44.11563" lon="6.64175">
        <ele>1944.8000488281</ele>
        <time>2021-08-21T13:20:43.000Z</time>
      </trkpt>
      <trkpt lat="44.11556" lon="6.64177">
        <ele>1945.5999755859</ele>
        <time>2021-08-21T13:20:49.000Z</time>
      </trkpt>
      <trkpt lat="44.11553" lon="6.64178">
        <ele>1946</ele>
        <time>2021-08-21T13:20:51.000Z</time>
      </trkpt>
      <trkpt lat="44.11545" lon="6.64183">
        <ele>1946.5999755859</ele>
        <time>2021-08-21T13:20:57.000Z</time>
      </trkpt>
      <trkpt lat="44.1154" lon="6.64186">
        <ele>1947.1999511719</ele>
        <time>2021-08-21T13:21:02.000Z</time>
      </trkpt>
      <trkpt lat="44.11539" lon="6.64186">
        <ele>1947.5999755859</ele>
        <time>2021-08-21T13:21:03.000Z</time>
      </trkpt>
      <trkpt lat="44.11537" lon="6.64186">
        <ele>1947.8000488281</ele>
        <time>2021-08-21T13:21:04.000Z</time>
      </trkpt>
      <trkpt lat="44.11535" lon="6.64184">
        <ele>1948.4000244141</ele>
        <time>2021-08-21T13:21:06.000Z</time>
      </trkpt>
      <trkpt lat="44.11533" lon="6.64182">
        <ele>1948.5999755859</ele>
        <time>2021-08-21T13:21:08.000Z</time>
      </trkpt>
      <trkpt lat="44.11527" lon="6.6418">
        <ele>1949.4000244141</ele>
        <time>2021-08-21T13:21:13.000Z</time>
      </trkpt>
      <trkpt lat="44.11522" lon="6.64179">
        <ele>1949.8000488281</ele>
        <time>2021-08-21T13:21:17.000Z</time>
      </trkpt>
      <trkpt lat="44.11515" lon="6.64174">
        <ele>1950.4000244141</ele>
        <time>2021-08-21T13:21:22.000Z</time>
      </trkpt>
      <trkpt lat="44.11514" lon="6.64172">
        <ele>1950.4000244141</ele>
        <time>2021-08-21T13:21:24.000Z</time>
      </trkpt>
      <trkpt lat="44.11513" lon="6.64166">
        <ele>1950.8000488281</ele>
        <time>2021-08-21T13:21:27.000Z</time>
      </trkpt>
      <trkpt lat="44.11511" lon="6.64156">
        <ele>1951.5999755859</ele>
        <time>2021-08-21T13:21:33.000Z</time>
      </trkpt>
      <trkpt lat="44.11511" lon="6.64154">
        <ele>1951.5999755859</ele>
        <time>2021-08-21T13:21:34.000Z</time>
      </trkpt>
      <trkpt lat="44.11508" lon="6.64143">
        <ele>1952.1999511719</ele>
        <time>2021-08-21T13:21:40.000Z</time>
      </trkpt>
      <trkpt lat="44.11509" lon="6.64131">
        <ele>1952.4000244141</ele>
        <time>2021-08-21T13:21:45.000Z</time>
      </trkpt>
      <trkpt lat="44.11509" lon="6.64129">
        <ele>1952.5999755859</ele>
        <time>2021-08-21T13:21:46.000Z</time>
      </trkpt>
      <trkpt lat="44.11509" lon="6.64123">
        <ele>1953.1999511719</ele>
        <time>2021-08-21T13:21:51.000Z</time>
      </trkpt>
      <trkpt lat="44.11507" lon="6.64119">
        <ele>1953</ele>
        <time>2021-08-21T13:21:56.000Z</time>
      </trkpt>
      <trkpt lat="44.11505" lon="6.64114">
        <ele>1953</ele>
        <time>2021-08-21T13:22:03.000Z</time>
      </trkpt>
      <trkpt lat="44.11505" lon="6.64111">
        <ele>1953.5999755859</ele>
        <time>2021-08-21T13:22:08.000Z</time>
      </trkpt>
      <trkpt lat="44.11504" lon="6.64111">
        <ele>1953.8000488281</ele>
        <time>2021-08-21T13:22:09.000Z</time>
      </trkpt>
      <trkpt lat="44.11504" lon="6.64109">
        <ele>1953.8000488281</ele>
        <time>2021-08-21T13:22:11.000Z</time>
      </trkpt>
      <trkpt lat="44.11502" lon="6.64104">
        <ele>1954</ele>
        <time>2021-08-21T13:22:14.000Z</time>
      </trkpt>
      <trkpt lat="44.11499" lon="6.64094">
        <ele>1954.5999755859</ele>
        <time>2021-08-21T13:22:19.000Z</time>
      </trkpt>
      <trkpt lat="44.11499" lon="6.64093">
        <ele>1954.5999755859</ele>
        <time>2021-08-21T13:22:20.000Z</time>
      </trkpt>
      <trkpt lat="44.11496" lon="6.64083">
        <ele>1955.4000244141</ele>
        <time>2021-08-21T13:22:26.000Z</time>
      </trkpt>
      <trkpt lat="44.11495" lon="6.64078">
        <ele>1955.5999755859</ele>
        <time>2021-08-21T13:22:29.000Z</time>
      </trkpt>
      <trkpt lat="44.11494" lon="6.64075">
        <ele>1956.1999511719</ele>
        <time>2021-08-21T13:22:33.000Z</time>
      </trkpt>
      <trkpt lat="44.11491" lon="6.64068">
        <ele>1956.1999511719</ele>
        <time>2021-08-21T13:22:39.000Z</time>
      </trkpt>
      <trkpt lat="44.1149" lon="6.64064">
        <ele>1956.4000244141</ele>
        <time>2021-08-21T13:22:42.000Z</time>
      </trkpt>
      <trkpt lat="44.1149" lon="6.64062">
        <ele>1956.4000244141</ele>
        <time>2021-08-21T13:22:43.000Z</time>
      </trkpt>
      <trkpt lat="44.11488" lon="6.64054">
        <ele>1956.5999755859</ele>
        <time>2021-08-21T13:22:48.000Z</time>
      </trkpt>
      <trkpt lat="44.11488" lon="6.64052">
        <ele>1956.8000488281</ele>
        <time>2021-08-21T13:22:49.000Z</time>
      </trkpt>
      <trkpt lat="44.11487" lon="6.64046">
        <ele>1957.5999755859</ele>
        <time>2021-08-21T13:22:56.000Z</time>
      </trkpt>
      <trkpt lat="44.11486" lon="6.64042">
        <ele>1957.5999755859</ele>
        <time>2021-08-21T13:23:00.000Z</time>
      </trkpt>
      <trkpt lat="44.11485" lon="6.64039">
        <ele>1957.8000488281</ele>
        <time>2021-08-21T13:23:02.000Z</time>
      </trkpt>
      <trkpt lat="44.11484" lon="6.64025">
        <ele>1958.4000244141</ele>
        <time>2021-08-21T13:23:08.000Z</time>
      </trkpt>
      <trkpt lat="44.11483" lon="6.64019">
        <ele>1958.8000488281</ele>
        <time>2021-08-21T13:23:11.000Z</time>
      </trkpt>
      <trkpt lat="44.11482" lon="6.64012">
        <ele>1959</ele>
        <time>2021-08-21T13:23:14.000Z</time>
      </trkpt>
      <trkpt lat="44.11482" lon="6.64003">
        <ele>1959.5999755859</ele>
        <time>2021-08-21T13:23:18.000Z</time>
      </trkpt>
      <trkpt lat="44.11481" lon="6.64">
        <ele>1959.8000488281</ele>
        <time>2021-08-21T13:23:19.000Z</time>
      </trkpt>
      <trkpt lat="44.11477" lon="6.63981">
        <ele>1960.8000488281</ele>
        <time>2021-08-21T13:23:26.000Z</time>
      </trkpt>
      <trkpt lat="44.11475" lon="6.63968">
        <ele>1961.8000488281</ele>
        <time>2021-08-21T13:23:32.000Z</time>
      </trkpt>
      <trkpt lat="44.11475" lon="6.63965">
        <ele>1962</ele>
        <time>2021-08-21T13:23:33.000Z</time>
      </trkpt>
      <trkpt lat="44.11472" lon="6.63952">
        <ele>1962.5999755859</ele>
        <time>2021-08-21T13:23:38.000Z</time>
      </trkpt>
      <trkpt lat="44.11471" lon="6.63942">
        <ele>1963</ele>
        <time>2021-08-21T13:23:42.000Z</time>
      </trkpt>
      <trkpt lat="44.11471" lon="6.63937">
        <ele>1963.1999511719</ele>
        <time>2021-08-21T13:23:44.000Z</time>
      </trkpt>
      <trkpt lat="44.11468" lon="6.63923">
        <ele>1963.5999755859</ele>
        <time>2021-08-21T13:23:50.000Z</time>
      </trkpt>
      <trkpt lat="44.11466" lon="6.63915">
        <ele>1964</ele>
        <time>2021-08-21T13:23:53.000Z</time>
      </trkpt>
      <trkpt lat="44.11464" lon="6.63909">
        <ele>1964.5999755859</ele>
        <time>2021-08-21T13:23:56.000Z</time>
      </trkpt>
      <trkpt lat="44.11462" lon="6.639">
        <ele>1965</ele>
        <time>2021-08-21T13:24:00.000Z</time>
      </trkpt>
      <trkpt lat="44.11461" lon="6.63893">
        <ele>1965.5999755859</ele>
        <time>2021-08-21T13:24:03.000Z</time>
      </trkpt>
      <trkpt lat="44.11458" lon="6.63881">
        <ele>1966.1999511719</ele>
        <time>2021-08-21T13:24:08.000Z</time>
      </trkpt>
      <trkpt lat="44.11456" lon="6.63871">
        <ele>1966.5999755859</ele>
        <time>2021-08-21T13:24:13.000Z</time>
      </trkpt>
      <trkpt lat="44.11454" lon="6.63864">
        <ele>1967.4000244141</ele>
        <time>2021-08-21T13:24:16.000Z</time>
      </trkpt>
      <trkpt lat="44.11454" lon="6.63861">
        <ele>1967.5999755859</ele>
        <time>2021-08-21T13:24:18.000Z</time>
      </trkpt>
      <trkpt lat="44.11453" lon="6.63858">
        <ele>1967.8000488281</ele>
        <time>2021-08-21T13:24:19.000Z</time>
      </trkpt>
      <trkpt lat="44.11452" lon="6.63849">
        <ele>1968.4000244141</ele>
        <time>2021-08-21T13:24:23.000Z</time>
      </trkpt>
      <trkpt lat="44.11451" lon="6.63845">
        <ele>1968.5999755859</ele>
        <time>2021-08-21T13:24:25.000Z</time>
      </trkpt>
      <trkpt lat="44.1145" lon="6.63842">
        <ele>1968.5999755859</ele>
        <time>2021-08-21T13:24:26.000Z</time>
      </trkpt>
      <trkpt lat="44.11446" lon="6.6383">
        <ele>1969.4000244141</ele>
        <time>2021-08-21T13:24:31.000Z</time>
      </trkpt>
      <trkpt lat="44.11446" lon="6.63827">
        <ele>1969.4000244141</ele>
        <time>2021-08-21T13:24:32.000Z</time>
      </trkpt>
      <trkpt lat="44.11441" lon="6.63816">
        <ele>1970.5999755859</ele>
        <time>2021-08-21T13:24:37.000Z</time>
      </trkpt>
      <trkpt lat="44.11435" lon="6.63806">
        <ele>1971.1999511719</ele>
        <time>2021-08-21T13:24:42.000Z</time>
      </trkpt>
      <trkpt lat="44.11433" lon="6.63802">
        <ele>1971.4000244141</ele>
        <time>2021-08-21T13:24:44.000Z</time>
      </trkpt>
      <trkpt lat="44.11433" lon="6.63798">
        <ele>1971.8000488281</ele>
        <time>2021-08-21T13:24:46.000Z</time>
      </trkpt>
      <trkpt lat="44.11432" lon="6.63787">
        <ele>1972.4000244141</ele>
        <time>2021-08-21T13:24:50.000Z</time>
      </trkpt>
      <trkpt lat="44.11431" lon="6.63778">
        <ele>1973</ele>
        <time>2021-08-21T13:24:54.000Z</time>
      </trkpt>
      <trkpt lat="44.1143" lon="6.63774">
        <ele>1973.1999511719</ele>
        <time>2021-08-21T13:24:56.000Z</time>
      </trkpt>
      <trkpt lat="44.11428" lon="6.63763">
        <ele>1974</ele>
        <time>2021-08-21T13:25:01.000Z</time>
      </trkpt>
      <trkpt lat="44.11427" lon="6.63759">
        <ele>1974.1999511719</ele>
        <time>2021-08-21T13:25:03.000Z</time>
      </trkpt>
      <trkpt lat="44.11423" lon="6.63746">
        <ele>1975.1999511719</ele>
        <time>2021-08-21T13:25:09.000Z</time>
      </trkpt>
      <trkpt lat="44.11423" lon="6.63744">
        <ele>1975.4000244141</ele>
        <time>2021-08-21T13:25:10.000Z</time>
      </trkpt>
      <trkpt lat="44.11422" lon="6.63732">
        <ele>1976.1999511719</ele>
        <time>2021-08-21T13:25:15.000Z</time>
      </trkpt>
      <trkpt lat="44.11422" lon="6.63727">
        <ele>1976.4000244141</ele>
        <time>2021-08-21T13:25:17.000Z</time>
      </trkpt>
      <trkpt lat="44.11421" lon="6.63715">
        <ele>1976.8000488281</ele>
        <time>2021-08-21T13:25:23.000Z</time>
      </trkpt>
      <trkpt lat="44.11419" lon="6.63708">
        <ele>1977.4000244141</ele>
        <time>2021-08-21T13:25:27.000Z</time>
      </trkpt>
      <trkpt lat="44.11419" lon="6.63699">
        <ele>1977.8000488281</ele>
        <time>2021-08-21T13:25:31.000Z</time>
      </trkpt>
      <trkpt lat="44.11417" lon="6.63686">
        <ele>1978.4000244141</ele>
        <time>2021-08-21T13:25:38.000Z</time>
      </trkpt>
      <trkpt lat="44.11414" lon="6.63671">
        <ele>1979.1999511719</ele>
        <time>2021-08-21T13:25:45.000Z</time>
      </trkpt>
      <trkpt lat="44.11411" lon="6.63656">
        <ele>1979.4000244141</ele>
        <time>2021-08-21T13:25:52.000Z</time>
      </trkpt>
      <trkpt lat="44.1141" lon="6.63654">
        <ele>1979.5999755859</ele>
        <time>2021-08-21T13:25:53.000Z</time>
      </trkpt>
      <trkpt lat="44.11407" lon="6.63648">
        <ele>1979.8000488281</ele>
        <time>2021-08-21T13:25:57.000Z</time>
      </trkpt>
      <trkpt lat="44.11405" lon="6.63646">
        <ele>1980.1999511719</ele>
        <time>2021-08-21T13:25:59.000Z</time>
      </trkpt>
      <trkpt lat="44.11404" lon="6.63645">
        <ele>1980.4000244141</ele>
        <time>2021-08-21T13:26:05.000Z</time>
      </trkpt>
      <trkpt lat="44.11406" lon="6.63644">
        <ele>1980.1999511719</ele>
        <time>2021-08-21T13:26:14.000Z</time>
      </trkpt>
      <trkpt lat="44.11408" lon="6.63642">
        <ele>1980</ele>
        <time>2021-08-21T13:26:28.000Z</time>
      </trkpt>
      <trkpt lat="44.11408" lon="6.63637">
        <ele>1980</ele>
        <time>2021-08-21T13:26:40.000Z</time>
      </trkpt>
      <trkpt lat="44.11408" lon="6.63628">
        <ele>1980.1999511719</ele>
        <time>2021-08-21T13:26:57.000Z</time>
      </trkpt>
      <trkpt lat="44.1141" lon="6.6362">
        <ele>1980</ele>
        <time>2021-08-21T13:27:21.000Z</time>
      </trkpt>
      <trkpt lat="44.11411" lon="6.63614">
        <ele>1980.1999511719</ele>
        <time>2021-08-21T13:27:35.000Z</time>
      </trkpt>
      <trkpt lat="44.1141" lon="6.63611">
        <ele>1980.1999511719</ele>
        <time>2021-08-21T13:27:42.000Z</time>
      </trkpt>
      <trkpt lat="44.1141" lon="6.63608">
        <ele>1980</ele>
        <time>2021-08-21T13:27:51.000Z</time>
      </trkpt>
      <trkpt lat="44.11409" lon="6.63608">
        <ele>1980</ele>
        <time>2021-08-21T13:28:07.000Z</time>
      </trkpt>
      <trkpt lat="44.11409" lon="6.63609">
        <ele>1980</ele>
        <time>2021-08-21T13:28:20.000Z</time>
      </trkpt>
      <trkpt lat="44.11408" lon="6.63609">
        <ele>1979.8000488281</ele>
        <time>2021-08-21T13:28:33.000Z</time>
      </trkpt>
      <trkpt lat="44.11409" lon="6.63607">
        <ele>1980</ele>
        <time>2021-08-21T13:28:50.000Z</time>
      </trkpt>
      <trkpt lat="44.11412" lon="6.63606">
        <ele>1980</ele>
        <time>2021-08-21T13:28:57.000Z</time>
      </trkpt>
      <trkpt lat="44.11411" lon="6.63605">
        <ele>1980.1999511719</ele>
        <time>2021-08-21T13:29:02.000Z</time>
      </trkpt>
      <trkpt lat="44.1141" lon="6.63604">
        <ele>1980.4000244141</ele>
        <time>2021-08-21T13:29:03.000Z</time>
      </trkpt>
      <trkpt lat="44.11409" lon="6.63603">
        <ele>1980.4000244141</ele>
        <time>2021-08-21T13:29:04.000Z</time>
      </trkpt>
      <trkpt lat="44.11402" lon="6.63601">
        <ele>1980.4000244141</ele>
        <time>2021-08-21T13:29:08.000Z</time>
      </trkpt>
      <trkpt lat="44.11395" lon="6.63603">
        <ele>1980.4000244141</ele>
        <time>2021-08-21T13:29:12.000Z</time>
      </trkpt>
      <trkpt lat="44.11382" lon="6.63607">
        <ele>1980.4000244141</ele>
        <time>2021-08-21T13:29:18.000Z</time>
      </trkpt>
      <trkpt lat="44.11371" lon="6.63611">
        <ele>1980.5999755859</ele>
        <time>2021-08-21T13:29:24.000Z</time>
      </trkpt>
      <trkpt lat="44.1137" lon="6.63612">
        <ele>1980.5999755859</ele>
        <time>2021-08-21T13:29:25.000Z</time>
      </trkpt>
      <trkpt lat="44.11368" lon="6.63613">
        <ele>1980.8000488281</ele>
        <time>2021-08-21T13:29:26.000Z</time>
      </trkpt>
      <trkpt lat="44.11362" lon="6.63613">
        <ele>1980.8000488281</ele>
        <time>2021-08-21T13:29:29.000Z</time>
      </trkpt>
      <trkpt lat="44.11359" lon="6.63613">
        <ele>1980.8000488281</ele>
        <time>2021-08-21T13:29:30.000Z</time>
      </trkpt>
      <trkpt lat="44.11344" lon="6.63607">
        <ele>1981.1999511719</ele>
        <time>2021-08-21T13:29:37.000Z</time>
      </trkpt>
      <trkpt lat="44.11334" lon="6.63603">
        <ele>1981.4000244141</ele>
        <time>2021-08-21T13:29:42.000Z</time>
      </trkpt>
      <trkpt lat="44.11317" lon="6.636">
        <ele>1981.4000244141</ele>
        <time>2021-08-21T13:29:49.000Z</time>
      </trkpt>
      <trkpt lat="44.11315" lon="6.63599">
        <ele>1981.5999755859</ele>
        <time>2021-08-21T13:29:50.000Z</time>
      </trkpt>
      <trkpt lat="44.11312" lon="6.63598">
        <ele>1981.8000488281</ele>
        <time>2021-08-21T13:29:54.000Z</time>
      </trkpt>
      <trkpt lat="44.1131" lon="6.63599">
        <ele>1980.5999755859</ele>
        <time>2021-08-21T13:30:01.000Z</time>
      </trkpt>
      <trkpt lat="44.1131" lon="6.63599">
        <ele>1980.4000244141</ele>
        <time>2021-08-21T13:30:04.000Z</time>
      </trkpt>
      <trkpt lat="44.11305" lon="6.63599">
        <ele>1981.4000244141</ele>
        <time>2021-08-21T13:30:22.000Z</time>
      </trkpt>
      <trkpt lat="44.11299" lon="6.63595">
        <ele>1981.1999511719</ele>
        <time>2021-08-21T13:30:49.000Z</time>
      </trkpt>
      <trkpt lat="44.11295" lon="6.63593">
        <ele>1981</ele>
        <time>2021-08-21T13:31:11.000Z</time>
      </trkpt>
      <trkpt lat="44.11292" lon="6.63592">
        <ele>1981.1999511719</ele>
        <time>2021-08-21T13:31:30.000Z</time>
      </trkpt>
      <trkpt lat="44.11291" lon="6.63593">
        <ele>1981</ele>
        <time>2021-08-21T13:31:53.000Z</time>
      </trkpt>
      <trkpt lat="44.11289" lon="6.63592">
        <ele>1981.1999511719</ele>
        <time>2021-08-21T13:32:18.000Z</time>
      </trkpt>
      <trkpt lat="44.11287" lon="6.63593">
        <ele>1981.1999511719</ele>
        <time>2021-08-21T13:32:39.000Z</time>
      </trkpt>
      <trkpt lat="44.11283" lon="6.6359">
        <ele>1981.4000244141</ele>
        <time>2021-08-21T13:32:53.000Z</time>
      </trkpt>
      <trkpt lat="44.11281" lon="6.63589">
        <ele>1981.1999511719</ele>
        <time>2021-08-21T13:33:15.000Z</time>
      </trkpt>
      <trkpt lat="44.11282" lon="6.63587">
        <ele>1981</ele>
        <time>2021-08-21T13:33:41.000Z</time>
      </trkpt>
      <trkpt lat="44.11283" lon="6.63589">
        <ele>1981</ele>
        <time>2021-08-21T13:33:59.000Z</time>
      </trkpt>
      <trkpt lat="44.11285" lon="6.63592">
        <ele>1980.8000488281</ele>
        <time>2021-08-21T13:34:16.000Z</time>
      </trkpt>
      <trkpt lat="44.11285" lon="6.63593">
        <ele>1981</ele>
        <time>2021-08-21T13:34:36.000Z</time>
      </trkpt>
      <trkpt lat="44.11285" lon="6.63592">
        <ele>1980.8000488281</ele>
        <time>2021-08-21T13:34:58.000Z</time>
      </trkpt>
      <trkpt lat="44.11286" lon="6.63592">
        <ele>1980.5999755859</ele>
        <time>2021-08-21T13:35:17.000Z</time>
      </trkpt>
      <trkpt lat="44.11287" lon="6.63593">
        <ele>1980.4000244141</ele>
        <time>2021-08-21T13:35:36.000Z</time>
      </trkpt>
      <trkpt lat="44.11287" lon="6.63593">
        <ele>1980.5999755859</ele>
        <time>2021-08-21T13:35:56.000Z</time>
      </trkpt>
      <trkpt lat="44.11285" lon="6.63592">
        <ele>1980.5999755859</ele>
        <time>2021-08-21T13:36:24.000Z</time>
      </trkpt>
      <trkpt lat="44.11285" lon="6.63593">
        <ele>1981.1999511719</ele>
        <time>2021-08-21T13:36:55.000Z</time>
      </trkpt>
      <trkpt lat="44.11285" lon="6.63593">
        <ele>1981.1999511719</ele>
        <time>2021-08-21T13:37:09.000Z</time>
      </trkpt>
      <trkpt lat="44.11285" lon="6.63592">
        <ele>1981.4000244141</ele>
        <time>2021-08-21T13:37:33.000Z</time>
      </trkpt>
      <trkpt lat="44.11287" lon="6.63594">
        <ele>1981.4000244141</ele>
        <time>2021-08-21T13:37:56.000Z</time>
      </trkpt>
      <trkpt lat="44.11289" lon="6.63596">
        <ele>1981.4000244141</ele>
        <time>2021-08-21T13:38:15.000Z</time>
      </trkpt>
      <trkpt lat="44.11289" lon="6.63595">
        <ele>1981.4000244141</ele>
        <time>2021-08-21T13:38:34.000Z</time>
      </trkpt>
      <trkpt lat="44.11288" lon="6.63592">
        <ele>1981</ele>
        <time>2021-08-21T13:39:04.000Z</time>
      </trkpt>
      <trkpt lat="44.11288" lon="6.63591">
        <ele>1980.8000488281</ele>
        <time>2021-08-21T13:39:18.000Z</time>
      </trkpt>
      <trkpt lat="44.11289" lon="6.63592">
        <ele>1981.5999755859</ele>
        <time>2021-08-21T13:39:27.000Z</time>
      </trkpt>
      <trkpt lat="44.11285" lon="6.63593">
        <ele>1981.5999755859</ele>
        <time>2021-08-21T13:39:34.000Z</time>
      </trkpt>
      <trkpt lat="44.11272" lon="6.63591">
        <ele>1982.1999511719</ele>
        <time>2021-08-21T13:39:41.000Z</time>
      </trkpt>
      <trkpt lat="44.11249" lon="6.6359">
        <ele>1982.4000244141</ele>
        <time>2021-08-21T13:39:50.000Z</time>
      </trkpt>
      <trkpt lat="44.1123" lon="6.63593">
        <ele>1982.5999755859</ele>
        <time>2021-08-21T13:39:57.000Z</time>
      </trkpt>
      <trkpt lat="44.11227" lon="6.63593">
        <ele>1982.5999755859</ele>
        <time>2021-08-21T13:39:58.000Z</time>
      </trkpt>
      <trkpt lat="44.11213" lon="6.63597">
        <ele>1983</ele>
        <time>2021-08-21T13:40:04.000Z</time>
      </trkpt>
      <trkpt lat="44.11195" lon="6.63604">
        <ele>1983.5999755859</ele>
        <time>2021-08-21T13:40:12.000Z</time>
      </trkpt>
      <trkpt lat="44.11193" lon="6.63605">
        <ele>1983.5999755859</ele>
        <time>2021-08-21T13:40:13.000Z</time>
      </trkpt>
      <trkpt lat="44.11174" lon="6.63612">
        <ele>1984.1999511719</ele>
        <time>2021-08-21T13:40:20.000Z</time>
      </trkpt>
      <trkpt lat="44.11157" lon="6.63613">
        <ele>1984.4000244141</ele>
        <time>2021-08-21T13:40:26.000Z</time>
      </trkpt>
      <trkpt lat="44.11145" lon="6.63614">
        <ele>1984.5999755859</ele>
        <time>2021-08-21T13:40:30.000Z</time>
      </trkpt>
      <trkpt lat="44.11134" lon="6.63615">
        <ele>1984.8000488281</ele>
        <time>2021-08-21T13:40:34.000Z</time>
      </trkpt>
      <trkpt lat="44.11117" lon="6.63611">
        <ele>1985.5999755859</ele>
        <time>2021-08-21T13:40:40.000Z</time>
      </trkpt>
      <trkpt lat="44.11109" lon="6.63607">
        <ele>1985.8000488281</ele>
        <time>2021-08-21T13:40:43.000Z</time>
      </trkpt>
      <trkpt lat="44.11099" lon="6.63601">
        <ele>1985.8000488281</ele>
        <time>2021-08-21T13:40:46.000Z</time>
      </trkpt>
      <trkpt lat="44.11077" lon="6.63586">
        <ele>1986</ele>
        <time>2021-08-21T13:40:53.000Z</time>
      </trkpt>
      <trkpt lat="44.11051" lon="6.63566">
        <ele>1986</ele>
        <time>2021-08-21T13:41:01.000Z</time>
      </trkpt>
      <trkpt lat="44.11029" lon="6.63544">
        <ele>1986.1999511719</ele>
        <time>2021-08-21T13:41:08.000Z</time>
      </trkpt>
      <trkpt lat="44.11004" lon="6.63514">
        <ele>1986.5999755859</ele>
        <time>2021-08-21T13:41:17.000Z</time>
      </trkpt>
      <trkpt lat="44.11001" lon="6.63511">
        <ele>1986.8000488281</ele>
        <time>2021-08-21T13:41:18.000Z</time>
      </trkpt>
      <trkpt lat="44.10988" lon="6.63495">
        <ele>1987.1999511719</ele>
        <time>2021-08-21T13:41:23.000Z</time>
      </trkpt>
      <trkpt lat="44.10971" lon="6.63474">
        <ele>1987.4000244141</ele>
        <time>2021-08-21T13:41:29.000Z</time>
      </trkpt>
      <trkpt lat="44.10959" lon="6.63456">
        <ele>1987.8000488281</ele>
        <time>2021-08-21T13:41:34.000Z</time>
      </trkpt>
      <trkpt lat="44.10953" lon="6.6345">
        <ele>1987.8000488281</ele>
        <time>2021-08-21T13:41:36.000Z</time>
      </trkpt>
      <trkpt lat="44.10938" lon="6.63437">
        <ele>1988</ele>
        <time>2021-08-21T13:41:41.000Z</time>
      </trkpt>
      <trkpt lat="44.10916" lon="6.63417">
        <ele>1988.1999511719</ele>
        <time>2021-08-21T13:41:48.000Z</time>
      </trkpt>
      <trkpt lat="44.10884" lon="6.63395">
        <ele>1988.8000488281</ele>
        <time>2021-08-21T13:41:57.000Z</time>
      </trkpt>
      <trkpt lat="44.1088" lon="6.63394">
        <ele>1988.8000488281</ele>
        <time>2021-08-21T13:41:58.000Z</time>
      </trkpt>
      <trkpt lat="44.1086" lon="6.63391">
        <ele>1988.5999755859</ele>
        <time>2021-08-21T13:42:03.000Z</time>
      </trkpt>
      <trkpt lat="44.10833" lon="6.6339">
        <ele>1988.5999755859</ele>
        <time>2021-08-21T13:42:10.000Z</time>
      </trkpt>
      <trkpt lat="44.10811" lon="6.63388">
        <ele>1989</ele>
        <time>2021-08-21T13:42:16.000Z</time>
      </trkpt>
      <trkpt lat="44.1079" lon="6.63388">
        <ele>1989.1999511719</ele>
        <time>2021-08-21T13:42:22.000Z</time>
      </trkpt>
      <trkpt lat="44.10771" lon="6.63389">
        <ele>1989.5999755859</ele>
        <time>2021-08-21T13:42:28.000Z</time>
      </trkpt>
      <trkpt lat="44.10759" lon="6.63387">
        <ele>1989.8000488281</ele>
        <time>2021-08-21T13:42:31.000Z</time>
      </trkpt>
      <trkpt lat="44.10751" lon="6.63383">
        <ele>1990</ele>
        <time>2021-08-21T13:42:33.000Z</time>
      </trkpt>
      <trkpt lat="44.10731" lon="6.63369">
        <ele>1990.1999511719</ele>
        <time>2021-08-21T13:42:39.000Z</time>
      </trkpt>
      <trkpt lat="44.10701" lon="6.63352">
        <ele>1990.4000244141</ele>
        <time>2021-08-21T13:42:47.000Z</time>
      </trkpt>
      <trkpt lat="44.10686" lon="6.63336">
        <ele>1990.4000244141</ele>
        <time>2021-08-21T13:42:52.000Z</time>
      </trkpt>
      <trkpt lat="44.10669" lon="6.63321">
        <ele>1990.8000488281</ele>
        <time>2021-08-21T13:42:57.000Z</time>
      </trkpt>
      <trkpt lat="44.10659" lon="6.63314">
        <ele>1990.8000488281</ele>
        <time>2021-08-21T13:43:00.000Z</time>
      </trkpt>
      <trkpt lat="44.10649" lon="6.63307">
        <ele>1990.8000488281</ele>
        <time>2021-08-21T13:43:03.000Z</time>
      </trkpt>
      <trkpt lat="44.10626" lon="6.633">
        <ele>1991</ele>
        <time>2021-08-21T13:43:09.000Z</time>
      </trkpt>
      <trkpt lat="44.10601" lon="6.63288">
        <ele>1991.1999511719</ele>
        <time>2021-08-21T13:43:16.000Z</time>
      </trkpt>
      <trkpt lat="44.10577" lon="6.63278">
        <ele>1991.4000244141</ele>
        <time>2021-08-21T13:43:23.000Z</time>
      </trkpt>
      <trkpt lat="44.10555" lon="6.63272">
        <ele>1991.8000488281</ele>
        <time>2021-08-21T13:43:29.000Z</time>
      </trkpt>
      <trkpt lat="44.10547" lon="6.63269">
        <ele>1991.8000488281</ele>
        <time>2021-08-21T13:43:32.000Z</time>
      </trkpt>
      <trkpt lat="44.10542" lon="6.6327">
        <ele>1992.1999511719</ele>
        <time>2021-08-21T13:43:34.000Z</time>
      </trkpt>
      <trkpt lat="44.10537" lon="6.63281">
        <ele>1992.4000244141</ele>
        <time>2021-08-21T13:43:38.000Z</time>
      </trkpt>
      <trkpt lat="44.10536" lon="6.63288">
        <ele>1992.5999755859</ele>
        <time>2021-08-21T13:43:40.000Z</time>
      </trkpt>
      <trkpt lat="44.10536" lon="6.63295">
        <ele>1992.8000488281</ele>
        <time>2021-08-21T13:43:42.000Z</time>
      </trkpt>
      <trkpt lat="44.10535" lon="6.63303">
        <ele>1993.4000244141</ele>
        <time>2021-08-21T13:43:45.000Z</time>
      </trkpt>
      <trkpt lat="44.10532" lon="6.63323">
        <ele>1993.8000488281</ele>
        <time>2021-08-21T13:43:51.000Z</time>
      </trkpt>
      <trkpt lat="44.10531" lon="6.63326">
        <ele>1994</ele>
        <time>2021-08-21T13:43:52.000Z</time>
      </trkpt>
      <trkpt lat="44.10528" lon="6.63341">
        <ele>1995</ele>
        <time>2021-08-21T13:43:57.000Z</time>
      </trkpt>
      <trkpt lat="44.10528" lon="6.63345">
        <ele>1995.1999511719</ele>
        <time>2021-08-21T13:43:58.000Z</time>
      </trkpt>
      <trkpt lat="44.10528" lon="6.63367">
        <ele>1995.4000244141</ele>
        <time>2021-08-21T13:44:04.000Z</time>
      </trkpt>
      <trkpt lat="44.10526" lon="6.63394">
        <ele>1996</ele>
        <time>2021-08-21T13:44:11.000Z</time>
      </trkpt>
      <trkpt lat="44.10522" lon="6.6343">
        <ele>1996.8000488281</ele>
        <time>2021-08-21T13:44:20.000Z</time>
      </trkpt>
      <trkpt lat="44.10518" lon="6.63449">
        <ele>1997.1999511719</ele>
        <time>2021-08-21T13:44:25.000Z</time>
      </trkpt>
      <trkpt lat="44.10517" lon="6.63456">
        <ele>1997.1999511719</ele>
        <time>2021-08-21T13:44:27.000Z</time>
      </trkpt>
      <trkpt lat="44.10514" lon="6.6347">
        <ele>1997.4000244141</ele>
        <time>2021-08-21T13:44:31.000Z</time>
      </trkpt>
      <trkpt lat="44.10504" lon="6.635">
        <ele>1997.5999755859</ele>
        <time>2021-08-21T13:44:39.000Z</time>
      </trkpt>
      <trkpt lat="44.10498" lon="6.63514">
        <ele>1997.8000488281</ele>
        <time>2021-08-21T13:44:43.000Z</time>
      </trkpt>
      <trkpt lat="44.10489" lon="6.63542">
        <ele>1997.8000488281</ele>
        <time>2021-08-21T13:44:50.000Z</time>
      </trkpt>
      <trkpt lat="44.10487" lon="6.6356">
        <ele>1998.1999511719</ele>
        <time>2021-08-21T13:44:54.000Z</time>
      </trkpt>
      <trkpt lat="44.10488" lon="6.63568">
        <ele>1998.4000244141</ele>
        <time>2021-08-21T13:44:56.000Z</time>
      </trkpt>
      <trkpt lat="44.10497" lon="6.63594">
        <ele>1999</ele>
        <time>2021-08-21T13:45:03.000Z</time>
      </trkpt>
      <trkpt lat="44.10508" lon="6.63609">
        <ele>1999.4000244141</ele>
        <time>2021-08-21T13:45:08.000Z</time>
      </trkpt>
      <trkpt lat="44.10521" lon="6.63636">
        <ele>2000</ele>
        <time>2021-08-21T13:45:16.000Z</time>
      </trkpt>
      <trkpt lat="44.10526" lon="6.63646">
        <ele>2000.4000244141</ele>
        <time>2021-08-21T13:45:19.000Z</time>
      </trkpt>
      <trkpt lat="44.10534" lon="6.63663">
        <ele>2000.5999755859</ele>
        <time>2021-08-21T13:45:24.000Z</time>
      </trkpt>
      <trkpt lat="44.10547" lon="6.63684">
        <ele>2001.1999511719</ele>
        <time>2021-08-21T13:45:31.000Z</time>
      </trkpt>
      <trkpt lat="44.10554" lon="6.63692">
        <ele>2001.5999755859</ele>
        <time>2021-08-21T13:45:34.000Z</time>
      </trkpt>
      <trkpt lat="44.10564" lon="6.63701">
        <ele>2001.8000488281</ele>
        <time>2021-08-21T13:45:38.000Z</time>
      </trkpt>
      <trkpt lat="44.10581" lon="6.63717">
        <ele>2002.4000244141</ele>
        <time>2021-08-21T13:45:45.000Z</time>
      </trkpt>
      <trkpt lat="44.10597" lon="6.63736">
        <ele>2002.5999755859</ele>
        <time>2021-08-21T13:45:52.000Z</time>
      </trkpt>
      <trkpt lat="44.10599" lon="6.63739">
        <ele>2002.8000488281</ele>
        <time>2021-08-21T13:45:53.000Z</time>
      </trkpt>
      <trkpt lat="44.10613" lon="6.63763">
        <ele>2003.4000244141</ele>
        <time>2021-08-21T13:46:00.000Z</time>
      </trkpt>
      <trkpt lat="44.1062" lon="6.63781">
        <ele>2003.5999755859</ele>
        <time>2021-08-21T13:46:05.000Z</time>
      </trkpt>
      <trkpt lat="44.10623" lon="6.63789">
        <ele>2003.8000488281</ele>
        <time>2021-08-21T13:46:07.000Z</time>
      </trkpt>
      <trkpt lat="44.10632" lon="6.63816">
        <ele>2004.1999511719</ele>
        <time>2021-08-21T13:46:14.000Z</time>
      </trkpt>
      <trkpt lat="44.1064" lon="6.63841">
        <ele>2004.5999755859</ele>
        <time>2021-08-21T13:46:21.000Z</time>
      </trkpt>
      <trkpt lat="44.10642" lon="6.63845">
        <ele>2004.5999755859</ele>
        <time>2021-08-21T13:46:22.000Z</time>
      </trkpt>
      <trkpt lat="44.10649" lon="6.63868">
        <ele>2005</ele>
        <time>2021-08-21T13:46:28.000Z</time>
      </trkpt>
      <trkpt lat="44.10658" lon="6.63902">
        <ele>2006</ele>
        <time>2021-08-21T13:46:36.000Z</time>
      </trkpt>
      <trkpt lat="44.10667" lon="6.63935">
        <ele>2006.4000244141</ele>
        <time>2021-08-21T13:46:44.000Z</time>
      </trkpt>
      <trkpt lat="44.10672" lon="6.63964">
        <ele>2007</ele>
        <time>2021-08-21T13:46:51.000Z</time>
      </trkpt>
      <trkpt lat="44.10674" lon="6.63972">
        <ele>2007.4000244141</ele>
        <time>2021-08-21T13:46:53.000Z</time>
      </trkpt>
      <trkpt lat="44.10678" lon="6.63989">
        <ele>2008</ele>
        <time>2021-08-21T13:46:57.000Z</time>
      </trkpt>
      <trkpt lat="44.10681" lon="6.6401">
        <ele>2008.4000244141</ele>
        <time>2021-08-21T13:47:02.000Z</time>
      </trkpt>
      <trkpt lat="44.10684" lon="6.64036">
        <ele>2009.1999511719</ele>
        <time>2021-08-21T13:47:08.000Z</time>
      </trkpt>
      <trkpt lat="44.10684" lon="6.64044">
        <ele>2009.1999511719</ele>
        <time>2021-08-21T13:47:10.000Z</time>
      </trkpt>
      <trkpt lat="44.10684" lon="6.64071">
        <ele>2010.1999511719</ele>
        <time>2021-08-21T13:47:17.000Z</time>
      </trkpt>
      <trkpt lat="44.10684" lon="6.64076">
        <ele>2010.4000244141</ele>
        <time>2021-08-21T13:47:18.000Z</time>
      </trkpt>
      <trkpt lat="44.10686" lon="6.64095">
        <ele>2010.5999755859</ele>
        <time>2021-08-21T13:47:23.000Z</time>
      </trkpt>
      <trkpt lat="44.10694" lon="6.64123">
        <ele>2011.1999511719</ele>
        <time>2021-08-21T13:47:31.000Z</time>
      </trkpt>
      <trkpt lat="44.10696" lon="6.64124">
        <ele>2011.1999511719</ele>
        <time>2021-08-21T13:47:32.000Z</time>
      </trkpt>
      <trkpt lat="44.10703" lon="6.64133">
        <ele>2011.8000488281</ele>
        <time>2021-08-21T13:47:37.000Z</time>
      </trkpt>
      <trkpt lat="44.10702" lon="6.64142">
        <ele>2012.1999511719</ele>
        <time>2021-08-21T13:47:40.000Z</time>
      </trkpt>
      <trkpt lat="44.10701" lon="6.64145">
        <ele>2012.4000244141</ele>
        <time>2021-08-21T13:47:41.000Z</time>
      </trkpt>
      <trkpt lat="44.10695" lon="6.64152">
        <ele>2012.4000244141</ele>
        <time>2021-08-21T13:47:44.000Z</time>
      </trkpt>
      <trkpt lat="44.1069" lon="6.64158">
        <ele>2012.4000244141</ele>
        <time>2021-08-21T13:47:47.000Z</time>
      </trkpt>
      <trkpt lat="44.10682" lon="6.64171">
        <ele>2012.5999755859</ele>
        <time>2021-08-21T13:47:52.000Z</time>
      </trkpt>
      <trkpt lat="44.10675" lon="6.64192">
        <ele>2013.1999511719</ele>
        <time>2021-08-21T13:47:59.000Z</time>
      </trkpt>
      <trkpt lat="44.10674" lon="6.64198">
        <ele>2013.4000244141</ele>
        <time>2021-08-21T13:48:01.000Z</time>
      </trkpt>
      <trkpt lat="44.10671" lon="6.64211">
        <ele>2013.8000488281</ele>
        <time>2021-08-21T13:48:05.000Z</time>
      </trkpt>
      <trkpt lat="44.10662" lon="6.64233">
        <ele>2014.4000244141</ele>
        <time>2021-08-21T13:48:12.000Z</time>
      </trkpt>
      <trkpt lat="44.10661" lon="6.64235">
        <ele>2014.4000244141</ele>
        <time>2021-08-21T13:48:13.000Z</time>
      </trkpt>
      <trkpt lat="44.10654" lon="6.64249">
        <ele>2015</ele>
        <time>2021-08-21T13:48:19.000Z</time>
      </trkpt>
      <trkpt lat="44.10648" lon="6.64261">
        <ele>2015.4000244141</ele>
        <time>2021-08-21T13:48:23.000Z</time>
      </trkpt>
      <trkpt lat="44.10645" lon="6.64266">
        <ele>2015.5999755859</ele>
        <time>2021-08-21T13:48:25.000Z</time>
      </trkpt>
      <trkpt lat="44.10631" lon="6.64283">
        <ele>2016</ele>
        <time>2021-08-21T13:48:32.000Z</time>
      </trkpt>
      <trkpt lat="44.10623" lon="6.64291">
        <ele>2016.8000488281</ele>
        <time>2021-08-21T13:48:36.000Z</time>
      </trkpt>
      <trkpt lat="44.10618" lon="6.64301">
        <ele>2017.4000244141</ele>
        <time>2021-08-21T13:48:40.000Z</time>
      </trkpt>
      <trkpt lat="44.10615" lon="6.64321">
        <ele>2017.4000244141</ele>
        <time>2021-08-21T13:48:46.000Z</time>
      </trkpt>
      <trkpt lat="44.10614" lon="6.64342">
        <ele>2017.8000488281</ele>
        <time>2021-08-21T13:48:52.000Z</time>
      </trkpt>
      <trkpt lat="44.10614" lon="6.64361">
        <ele>2018.5999755859</ele>
        <time>2021-08-21T13:48:58.000Z</time>
      </trkpt>
      <trkpt lat="44.10615" lon="6.64369">
        <ele>2018.8000488281</ele>
        <time>2021-08-21T13:49:00.000Z</time>
      </trkpt>
      <trkpt lat="44.1062" lon="6.64389">
        <ele>2019.5999755859</ele>
        <time>2021-08-21T13:49:06.000Z</time>
      </trkpt>
      <trkpt lat="44.10633" lon="6.64408">
        <ele>2020</ele>
        <time>2021-08-21T13:49:13.000Z</time>
      </trkpt>
      <trkpt lat="44.1065" lon="6.64425">
        <ele>2020.5999755859</ele>
        <time>2021-08-21T13:49:20.000Z</time>
      </trkpt>
      <trkpt lat="44.10666" lon="6.64438">
        <ele>2020.5999755859</ele>
        <time>2021-08-21T13:49:26.000Z</time>
      </trkpt>
      <trkpt lat="44.10682" lon="6.64453">
        <ele>2020.4000244141</ele>
        <time>2021-08-21T13:49:32.000Z</time>
      </trkpt>
      <trkpt lat="44.10704" lon="6.64469">
        <ele>2020.4000244141</ele>
        <time>2021-08-21T13:49:40.000Z</time>
      </trkpt>
      <trkpt lat="44.10726" lon="6.6448">
        <ele>2020.5999755859</ele>
        <time>2021-08-21T13:49:47.000Z</time>
      </trkpt>
      <trkpt lat="44.10752" lon="6.64491">
        <ele>2020.5999755859</ele>
        <time>2021-08-21T13:49:55.000Z</time>
      </trkpt>
      <trkpt lat="44.10774" lon="6.645">
        <ele>2020.8000488281</ele>
        <time>2021-08-21T13:50:02.000Z</time>
      </trkpt>
      <trkpt lat="44.1078" lon="6.64502">
        <ele>2021</ele>
        <time>2021-08-21T13:50:04.000Z</time>
      </trkpt>
      <trkpt lat="44.10794" lon="6.64509">
        <ele>2021</ele>
        <time>2021-08-21T13:50:09.000Z</time>
      </trkpt>
      <trkpt lat="44.10815" lon="6.64522">
        <ele>2021.4000244141</ele>
        <time>2021-08-21T13:50:16.000Z</time>
      </trkpt>
      <trkpt lat="44.10834" lon="6.64535">
        <ele>2021.4000244141</ele>
        <time>2021-08-21T13:50:23.000Z</time>
      </trkpt>
      <trkpt lat="44.10851" lon="6.64551">
        <ele>2021.5999755859</ele>
        <time>2021-08-21T13:50:29.000Z</time>
      </trkpt>
      <trkpt lat="44.1087" lon="6.64569">
        <ele>2021.5999755859</ele>
        <time>2021-08-21T13:50:36.000Z</time>
      </trkpt>
      <trkpt lat="44.10889" lon="6.64588">
        <ele>2021.8000488281</ele>
        <time>2021-08-21T13:50:43.000Z</time>
      </trkpt>
      <trkpt lat="44.10904" lon="6.64596">
        <ele>2021.8000488281</ele>
        <time>2021-08-21T13:50:48.000Z</time>
      </trkpt>
      <trkpt lat="44.10915" lon="6.646">
        <ele>2022</ele>
        <time>2021-08-21T13:50:52.000Z</time>
      </trkpt>
      <trkpt lat="44.10917" lon="6.64603">
        <ele>2022</ele>
        <time>2021-08-21T13:50:53.000Z</time>
      </trkpt>
      <trkpt lat="44.10918" lon="6.6462">
        <ele>2022.1999511719</ele>
        <time>2021-08-21T13:50:57.000Z</time>
      </trkpt>
      <trkpt lat="44.10918" lon="6.64624">
        <ele>2022.1999511719</ele>
        <time>2021-08-21T13:50:58.000Z</time>
      </trkpt>
      <trkpt lat="44.10919" lon="6.64653">
        <ele>2022.4000244141</ele>
        <time>2021-08-21T13:51:04.000Z</time>
      </trkpt>
      <trkpt lat="44.10922" lon="6.6468">
        <ele>2022.4000244141</ele>
        <time>2021-08-21T13:51:10.000Z</time>
      </trkpt>
      <trkpt lat="44.10924" lon="6.64703">
        <ele>2022.5999755859</ele>
        <time>2021-08-21T13:51:15.000Z</time>
      </trkpt>
      <trkpt lat="44.10922" lon="6.64707">
        <ele>2023</ele>
        <time>2021-08-21T13:51:16.000Z</time>
      </trkpt>
      <trkpt lat="44.10916" lon="6.64718">
        <ele>2023.1999511719</ele>
        <time>2021-08-21T13:51:19.000Z</time>
      </trkpt>
      <trkpt lat="44.1091" lon="6.64734">
        <ele>2023.1999511719</ele>
        <time>2021-08-21T13:51:23.000Z</time>
      </trkpt>
      <trkpt lat="44.10912" lon="6.64759">
        <ele>2023</ele>
        <time>2021-08-21T13:51:28.000Z</time>
      </trkpt>
      <trkpt lat="44.10921" lon="6.64786">
        <ele>2022.8000488281</ele>
        <time>2021-08-21T13:51:34.000Z</time>
      </trkpt>
      <trkpt lat="44.1094" lon="6.64815">
        <ele>2023</ele>
        <time>2021-08-21T13:51:42.000Z</time>
      </trkpt>
      <trkpt lat="44.10962" lon="6.64842">
        <ele>2023.1999511719</ele>
        <time>2021-08-21T13:51:50.000Z</time>
      </trkpt>
      <trkpt lat="44.10985" lon="6.64861">
        <ele>2023.1999511719</ele>
        <time>2021-08-21T13:51:58.000Z</time>
      </trkpt>
      <trkpt lat="44.10992" lon="6.64863">
        <ele>2023.1999511719</ele>
        <time>2021-08-21T13:52:01.000Z</time>
      </trkpt>
      <trkpt lat="44.10994" lon="6.64866">
        <ele>2023.4000244141</ele>
        <time>2021-08-21T13:52:02.000Z</time>
      </trkpt>
      <trkpt lat="44.11004" lon="6.64887">
        <ele>2024</ele>
        <time>2021-08-21T13:52:08.000Z</time>
      </trkpt>
      <trkpt lat="44.11008" lon="6.6489">
        <ele>2024.1999511719</ele>
        <time>2021-08-21T13:52:09.000Z</time>
      </trkpt>
      <trkpt lat="44.11019" lon="6.64904">
        <ele>2024.5999755859</ele>
        <time>2021-08-21T13:52:13.000Z</time>
      </trkpt>
      <trkpt lat="44.11038" lon="6.64927">
        <ele>2024.1999511719</ele>
        <time>2021-08-21T13:52:20.000Z</time>
      </trkpt>
      <trkpt lat="44.11053" lon="6.64949">
        <ele>2024.1999511719</ele>
        <time>2021-08-21T13:52:26.000Z</time>
      </trkpt>
      <trkpt lat="44.11067" lon="6.64968">
        <ele>2024.5999755859</ele>
        <time>2021-08-21T13:52:32.000Z</time>
      </trkpt>
      <trkpt lat="44.11082" lon="6.64988">
        <ele>2024.5999755859</ele>
        <time>2021-08-21T13:52:38.000Z</time>
      </trkpt>
      <trkpt lat="44.111" lon="6.65008">
        <ele>2024.5999755859</ele>
        <time>2021-08-21T13:52:45.000Z</time>
      </trkpt>
      <trkpt lat="44.11113" lon="6.65015">
        <ele>2024.8000488281</ele>
        <time>2021-08-21T13:52:50.000Z</time>
      </trkpt>
      <trkpt lat="44.11126" lon="6.65026">
        <ele>2025.1999511719</ele>
        <time>2021-08-21T13:52:55.000Z</time>
      </trkpt>
      <trkpt lat="44.11128" lon="6.65029">
        <ele>2025.1999511719</ele>
        <time>2021-08-21T13:52:56.000Z</time>
      </trkpt>
      <trkpt lat="44.11133" lon="6.65036">
        <ele>2025.4000244141</ele>
        <time>2021-08-21T13:53:00.000Z</time>
      </trkpt>
      <trkpt lat="44.11132" lon="6.65041">
        <ele>2024.5999755859</ele>
        <time>2021-08-21T13:53:05.000Z</time>
      </trkpt>
      <trkpt lat="44.11128" lon="6.65046">
        <ele>2024.4000244141</ele>
        <time>2021-08-21T13:53:10.000Z</time>
      </trkpt>
      <trkpt lat="44.11128" lon="6.65046">
        <ele>2024.5999755859</ele>
        <time>2021-08-21T13:53:12.000Z</time>
      </trkpt>
      <trkpt lat="44.11123" lon="6.65053">
        <ele>2025</ele>
        <time>2021-08-21T13:53:16.000Z</time>
      </trkpt>
      <trkpt lat="44.11112" lon="6.65071">
        <ele>2025</ele>
        <time>2021-08-21T13:53:21.000Z</time>
      </trkpt>
      <trkpt lat="44.11095" lon="6.65079">
        <ele>2025.1999511719</ele>
        <time>2021-08-21T13:53:26.000Z</time>
      </trkpt>
      <trkpt lat="44.11072" lon="6.65079">
        <ele>2024.5999755859</ele>
        <time>2021-08-21T13:53:32.000Z</time>
      </trkpt>
      <trkpt lat="44.11062" lon="6.65082">
        <ele>2024.1999511719</ele>
        <time>2021-08-21T13:53:35.000Z</time>
      </trkpt>
      <trkpt lat="44.11058" lon="6.65084">
        <ele>2024</ele>
        <time>2021-08-21T13:53:36.000Z</time>
      </trkpt>
      <trkpt lat="44.11054" lon="6.65087">
        <ele>2024</ele>
        <time>2021-08-21T13:53:37.000Z</time>
      </trkpt>
      <trkpt lat="44.11029" lon="6.65107">
        <ele>2023.1999511719</ele>
        <time>2021-08-21T13:53:44.000Z</time>
      </trkpt>
      <trkpt lat="44.11027" lon="6.65111">
        <ele>2023</ele>
        <time>2021-08-21T13:53:45.000Z</time>
      </trkpt>
      <trkpt lat="44.11023" lon="6.65124">
        <ele>2022.4000244141</ele>
        <time>2021-08-21T13:53:48.000Z</time>
      </trkpt>
      <trkpt lat="44.11024" lon="6.65146">
        <ele>2022</ele>
        <time>2021-08-21T13:53:52.000Z</time>
      </trkpt>
      <trkpt lat="44.11026" lon="6.65157">
        <ele>2022</ele>
        <time>2021-08-21T13:53:54.000Z</time>
      </trkpt>
      <trkpt lat="44.11029" lon="6.65169">
        <ele>2021.8000488281</ele>
        <time>2021-08-21T13:53:56.000Z</time>
      </trkpt>
      <trkpt lat="44.1103" lon="6.65181">
        <ele>2021.4000244141</ele>
        <time>2021-08-21T13:53:58.000Z</time>
      </trkpt>
      <trkpt lat="44.11036" lon="6.65207">
        <ele>2020.8000488281</ele>
        <time>2021-08-21T13:54:03.000Z</time>
      </trkpt>
      <trkpt lat="44.11039" lon="6.6521">
        <ele>2020.5999755859</ele>
        <time>2021-08-21T13:54:04.000Z</time>
      </trkpt>
      <trkpt lat="44.11049" lon="6.65226">
        <ele>2020.1999511719</ele>
        <time>2021-08-21T13:54:09.000Z</time>
      </trkpt>
      <trkpt lat="44.11042" lon="6.65239">
        <ele>2020.4000244141</ele>
        <time>2021-08-21T13:54:13.000Z</time>
      </trkpt>
      <trkpt lat="44.1104" lon="6.65243">
        <ele>2020.4000244141</ele>
        <time>2021-08-21T13:54:14.000Z</time>
      </trkpt>
      <trkpt lat="44.1104" lon="6.65251">
        <ele>2020.4000244141</ele>
        <time>2021-08-21T13:54:16.000Z</time>
      </trkpt>
      <trkpt lat="44.11046" lon="6.65275">
        <ele>2019.8000488281</ele>
        <time>2021-08-21T13:54:21.000Z</time>
      </trkpt>
      <trkpt lat="44.11045" lon="6.6528">
        <ele>2019.5999755859</ele>
        <time>2021-08-21T13:54:22.000Z</time>
      </trkpt>
      <trkpt lat="44.1104" lon="6.65295">
        <ele>2019.1999511719</ele>
        <time>2021-08-21T13:54:25.000Z</time>
      </trkpt>
      <trkpt lat="44.11034" lon="6.65311">
        <ele>2018.4000244141</ele>
        <time>2021-08-21T13:54:29.000Z</time>
      </trkpt>
      <trkpt lat="44.11027" lon="6.65337">
        <ele>2017.4000244141</ele>
        <time>2021-08-21T13:54:35.000Z</time>
      </trkpt>
      <trkpt lat="44.11026" lon="6.65342">
        <ele>2017.1999511719</ele>
        <time>2021-08-21T13:54:36.000Z</time>
      </trkpt>
      <trkpt lat="44.11026" lon="6.65352">
        <ele>2017</ele>
        <time>2021-08-21T13:54:39.000Z</time>
      </trkpt>
      <trkpt lat="44.11027" lon="6.65361">
        <ele>2016.8000488281</ele>
        <time>2021-08-21T13:54:44.000Z</time>
      </trkpt>
      <trkpt lat="44.11032" lon="6.65382">
        <ele>2016.4000244141</ele>
        <time>2021-08-21T13:54:49.000Z</time>
      </trkpt>
      <trkpt lat="44.11033" lon="6.65387">
        <ele>2016.1999511719</ele>
        <time>2021-08-21T13:54:50.000Z</time>
      </trkpt>
      <trkpt lat="44.11038" lon="6.65402">
        <ele>2016.1999511719</ele>
        <time>2021-08-21T13:54:53.000Z</time>
      </trkpt>
      <trkpt lat="44.11039" lon="6.65414">
        <ele>2016.1999511719</ele>
        <time>2021-08-21T13:54:55.000Z</time>
      </trkpt>
      <trkpt lat="44.11046" lon="6.65432">
        <ele>2015.5999755859</ele>
        <time>2021-08-21T13:54:59.000Z</time>
      </trkpt>
      <trkpt lat="44.11047" lon="6.65439">
        <ele>2015.1999511719</ele>
        <time>2021-08-21T13:55:01.000Z</time>
      </trkpt>
      <trkpt lat="44.11048" lon="6.65442">
        <ele>2015</ele>
        <time>2021-08-21T13:55:02.000Z</time>
      </trkpt>
      <trkpt lat="44.11049" lon="6.65456">
        <ele>2014.8000488281</ele>
        <time>2021-08-21T13:55:06.000Z</time>
      </trkpt>
      <trkpt lat="44.11049" lon="6.65475">
        <ele>2014.5999755859</ele>
        <time>2021-08-21T13:55:11.000Z</time>
      </trkpt>
      <trkpt lat="44.11045" lon="6.65486">
        <ele>2014.1999511719</ele>
        <time>2021-08-21T13:55:14.000Z</time>
      </trkpt>
      <trkpt lat="44.11044" lon="6.6549">
        <ele>2014</ele>
        <time>2021-08-21T13:55:15.000Z</time>
      </trkpt>
      <trkpt lat="44.11042" lon="6.65511">
        <ele>2014</ele>
        <time>2021-08-21T13:55:19.000Z</time>
      </trkpt>
      <trkpt lat="44.11042" lon="6.65516">
        <ele>2014</ele>
        <time>2021-08-21T13:55:20.000Z</time>
      </trkpt>
      <trkpt lat="44.11045" lon="6.65543">
        <ele>2013.5999755859</ele>
        <time>2021-08-21T13:55:25.000Z</time>
      </trkpt>
      <trkpt lat="44.11047" lon="6.65569">
        <ele>2013.4000244141</ele>
        <time>2021-08-21T13:55:30.000Z</time>
      </trkpt>
      <trkpt lat="44.11051" lon="6.65579">
        <ele>2013.1999511719</ele>
        <time>2021-08-21T13:55:32.000Z</time>
      </trkpt>
      <trkpt lat="44.11057" lon="6.65591">
        <ele>2013</ele>
        <time>2021-08-21T13:55:35.000Z</time>
      </trkpt>
      <trkpt lat="44.11065" lon="6.65612">
        <ele>2013.4000244141</ele>
        <time>2021-08-21T13:55:40.000Z</time>
      </trkpt>
      <trkpt lat="44.11076" lon="6.65621">
        <ele>2014</ele>
        <time>2021-08-21T13:55:44.000Z</time>
      </trkpt>
      <trkpt lat="44.1108" lon="6.65623">
        <ele>2014</ele>
        <time>2021-08-21T13:55:45.000Z</time>
      </trkpt>
      <trkpt lat="44.11104" lon="6.65638">
        <ele>2013.5999755859</ele>
        <time>2021-08-21T13:55:52.000Z</time>
      </trkpt>
      <trkpt lat="44.11108" lon="6.65641">
        <ele>2013.8000488281</ele>
        <time>2021-08-21T13:55:54.000Z</time>
      </trkpt>
      <trkpt lat="44.11111" lon="6.65646">
        <ele>2014</ele>
        <time>2021-08-21T13:55:56.000Z</time>
      </trkpt>
      <trkpt lat="44.11112" lon="6.65648">
        <ele>2014.1999511719</ele>
        <time>2021-08-21T13:55:57.000Z</time>
      </trkpt>
      <trkpt lat="44.11118" lon="6.65655">
        <ele>2014.4000244141</ele>
        <time>2021-08-21T13:56:01.000Z</time>
      </trkpt>
      <trkpt lat="44.11119" lon="6.65656">
        <ele>2013.4000244141</ele>
        <time>2021-08-21T13:56:05.000Z</time>
      </trkpt>
      <trkpt lat="44.11123" lon="6.65661">
        <ele>2013.1999511719</ele>
        <time>2021-08-21T13:56:09.000Z</time>
      </trkpt>
      <trkpt lat="44.11123" lon="6.65662">
        <ele>2012.8000488281</ele>
        <time>2021-08-21T13:56:10.000Z</time>
      </trkpt>
      <trkpt lat="44.11128" lon="6.65673">
        <ele>2012.4000244141</ele>
        <time>2021-08-21T13:56:17.000Z</time>
      </trkpt>
      <trkpt lat="44.11127" lon="6.65678">
        <ele>2012</ele>
        <time>2021-08-21T13:56:20.000Z</time>
      </trkpt>
      <trkpt lat="44.11125" lon="6.6568">
        <ele>2011.8000488281</ele>
        <time>2021-08-21T13:56:22.000Z</time>
      </trkpt>
      <trkpt lat="44.11123" lon="6.6568">
        <ele>2011.8000488281</ele>
        <time>2021-08-21T13:56:24.000Z</time>
      </trkpt>
      <trkpt lat="44.11122" lon="6.6568">
        <ele>2012.1999511719</ele>
        <time>2021-08-21T13:56:28.000Z</time>
      </trkpt>
      <trkpt lat="44.1112" lon="6.6568">
        <ele>2012.4000244141</ele>
        <time>2021-08-21T13:56:30.000Z</time>
      </trkpt>
      <trkpt lat="44.11115" lon="6.65681">
        <ele>2012.5999755859</ele>
        <time>2021-08-21T13:56:32.000Z</time>
      </trkpt>
      <trkpt lat="44.11101" lon="6.65686">
        <ele>2013.1999511719</ele>
        <time>2021-08-21T13:56:38.000Z</time>
      </trkpt>
      <trkpt lat="44.11084" lon="6.65688">
        <ele>2014.1999511719</ele>
        <time>2021-08-21T13:56:45.000Z</time>
      </trkpt>
      <trkpt lat="44.11068" lon="6.65691">
        <ele>2015</ele>
        <time>2021-08-21T13:56:51.000Z</time>
      </trkpt>
      <trkpt lat="44.11056" lon="6.65697">
        <ele>2015</ele>
        <time>2021-08-21T13:56:56.000Z</time>
      </trkpt>
      <trkpt lat="44.11049" lon="6.65705">
        <ele>2015.4000244141</ele>
        <time>2021-08-21T13:57:00.000Z</time>
      </trkpt>
      <trkpt lat="44.11049" lon="6.65706">
        <ele>2015.4000244141</ele>
        <time>2021-08-21T13:57:01.000Z</time>
      </trkpt>
      <trkpt lat="44.11048" lon="6.65708">
        <ele>2015.5999755859</ele>
        <time>2021-08-21T13:57:04.000Z</time>
      </trkpt>
      <trkpt lat="44.11045" lon="6.65712">
        <ele>2015.8000488281</ele>
        <time>2021-08-21T13:57:06.000Z</time>
      </trkpt>
      <trkpt lat="44.11038" lon="6.65731">
        <ele>2016</ele>
        <time>2021-08-21T13:57:13.000Z</time>
      </trkpt>
      <trkpt lat="44.11037" lon="6.65735">
        <ele>2016.4000244141</ele>
        <time>2021-08-21T13:57:15.000Z</time>
      </trkpt>
      <trkpt lat="44.11036" lon="6.65739">
        <ele>2016.8000488281</ele>
        <time>2021-08-21T13:57:18.000Z</time>
      </trkpt>
      <trkpt lat="44.11033" lon="6.65747">
        <ele>2017.1999511719</ele>
        <time>2021-08-21T13:57:22.000Z</time>
      </trkpt>
      <trkpt lat="44.11032" lon="6.65748">
        <ele>2017.4000244141</ele>
        <time>2021-08-21T13:57:23.000Z</time>
      </trkpt>
      <trkpt lat="44.11029" lon="6.65753">
        <ele>2018</ele>
        <time>2021-08-21T13:57:27.000Z</time>
      </trkpt>
      <trkpt lat="44.11028" lon="6.65756">
        <ele>2018.1999511719</ele>
        <time>2021-08-21T13:57:29.000Z</time>
      </trkpt>
      <trkpt lat="44.11024" lon="6.65763">
        <ele>2018.4000244141</ele>
        <time>2021-08-21T13:57:32.000Z</time>
      </trkpt>
      <trkpt lat="44.11016" lon="6.65777">
        <ele>2019</ele>
        <time>2021-08-21T13:57:38.000Z</time>
      </trkpt>
      <trkpt lat="44.11012" lon="6.65783">
        <ele>2019.5999755859</ele>
        <time>2021-08-21T13:57:42.000Z</time>
      </trkpt>
      <trkpt lat="44.11008" lon="6.65787">
        <ele>2020.1999511719</ele>
        <time>2021-08-21T13:57:45.000Z</time>
      </trkpt>
      <trkpt lat="44.11005" lon="6.65791">
        <ele>2020.5999755859</ele>
        <time>2021-08-21T13:57:48.000Z</time>
      </trkpt>
      <trkpt lat="44.11004" lon="6.65798">
        <ele>2020.8000488281</ele>
        <time>2021-08-21T13:57:51.000Z</time>
      </trkpt>
      <trkpt lat="44.11006" lon="6.6581">
        <ele>2021.5999755859</ele>
        <time>2021-08-21T13:57:56.000Z</time>
      </trkpt>
      <trkpt lat="44.11007" lon="6.65814">
        <ele>2022</ele>
        <time>2021-08-21T13:57:58.000Z</time>
      </trkpt>
      <trkpt lat="44.1101" lon="6.65829">
        <ele>2022.4000244141</ele>
        <time>2021-08-21T13:58:04.000Z</time>
      </trkpt>
      <trkpt lat="44.11009" lon="6.65833">
        <ele>2022.8000488281</ele>
        <time>2021-08-21T13:58:06.000Z</time>
      </trkpt>
      <trkpt lat="44.11009" lon="6.65838">
        <ele>2023.1999511719</ele>
        <time>2021-08-21T13:58:08.000Z</time>
      </trkpt>
      <trkpt lat="44.11007" lon="6.65844">
        <ele>2023.4000244141</ele>
        <time>2021-08-21T13:58:10.000Z</time>
      </trkpt>
      <trkpt lat="44.11001" lon="6.65859">
        <ele>2023.8000488281</ele>
        <time>2021-08-21T13:58:16.000Z</time>
      </trkpt>
      <trkpt lat="44.11001" lon="6.65861">
        <ele>2023.8000488281</ele>
        <time>2021-08-21T13:58:17.000Z</time>
      </trkpt>
      <trkpt lat="44.10994" lon="6.65877">
        <ele>2024.8000488281</ele>
        <time>2021-08-21T13:58:24.000Z</time>
      </trkpt>
      <trkpt lat="44.10996" lon="6.6589">
        <ele>2025.1999511719</ele>
        <time>2021-08-21T13:58:29.000Z</time>
      </trkpt>
      <trkpt lat="44.10996" lon="6.65897">
        <ele>2025.8000488281</ele>
        <time>2021-08-21T13:58:32.000Z</time>
      </trkpt>
      <trkpt lat="44.10994" lon="6.65905">
        <ele>2026.8000488281</ele>
        <time>2021-08-21T13:58:36.000Z</time>
      </trkpt>
      <trkpt lat="44.10993" lon="6.65907">
        <ele>2026.8000488281</ele>
        <time>2021-08-21T13:58:37.000Z</time>
      </trkpt>
      <trkpt lat="44.10992" lon="6.65909">
        <ele>2026.8000488281</ele>
        <time>2021-08-21T13:58:38.000Z</time>
      </trkpt>
      <trkpt lat="44.10989" lon="6.65912">
        <ele>2027</ele>
        <time>2021-08-21T13:58:40.000Z</time>
      </trkpt>
      <trkpt lat="44.10983" lon="6.65914">
        <ele>2027</ele>
        <time>2021-08-21T13:58:43.000Z</time>
      </trkpt>
      <trkpt lat="44.10979" lon="6.65909">
        <ele>2026.5999755859</ele>
        <time>2021-08-21T13:58:47.000Z</time>
      </trkpt>
      <trkpt lat="44.10974" lon="6.65899">
        <ele>2026.5999755859</ele>
        <time>2021-08-21T13:58:51.000Z</time>
      </trkpt>
      <trkpt lat="44.1097" lon="6.65894">
        <ele>2026.5999755859</ele>
        <time>2021-08-21T13:58:53.000Z</time>
      </trkpt>
      <trkpt lat="44.10962" lon="6.6588">
        <ele>2026.5999755859</ele>
        <time>2021-08-21T13:58:59.000Z</time>
      </trkpt>
      <trkpt lat="44.10957" lon="6.65866">
        <ele>2026.5999755859</ele>
        <time>2021-08-21T13:59:03.000Z</time>
      </trkpt>
      <trkpt lat="44.10949" lon="6.6585">
        <ele>2026.1999511719</ele>
        <time>2021-08-21T13:59:08.000Z</time>
      </trkpt>
      <trkpt lat="44.10946" lon="6.65844">
        <ele>2025.8000488281</ele>
        <time>2021-08-21T13:59:10.000Z</time>
      </trkpt>
      <trkpt lat="44.10941" lon="6.65833">
        <ele>2025.4000244141</ele>
        <time>2021-08-21T13:59:13.000Z</time>
      </trkpt>
      <trkpt lat="44.10935" lon="6.65823">
        <ele>2025.4000244141</ele>
        <time>2021-08-21T13:59:18.000Z</time>
      </trkpt>
      <trkpt lat="44.10928" lon="6.65813">
        <ele>2026.8000488281</ele>
        <time>2021-08-21T13:59:24.000Z</time>
      </trkpt>
      <trkpt lat="44.10926" lon="6.65809">
        <ele>2027.1999511719</ele>
        <time>2021-08-21T13:59:26.000Z</time>
      </trkpt>
      <trkpt lat="44.10919" lon="6.6579">
        <ele>2027.8000488281</ele>
        <time>2021-08-21T13:59:34.000Z</time>
      </trkpt>
      <trkpt lat="44.10912" lon="6.65781">
        <ele>2027.8000488281</ele>
        <time>2021-08-21T13:59:38.000Z</time>
      </trkpt>
      <trkpt lat="44.1091" lon="6.65778">
        <ele>2027.8000488281</ele>
        <time>2021-08-21T13:59:39.000Z</time>
      </trkpt>
      <trkpt lat="44.10904" lon="6.65771">
        <ele>2027.8000488281</ele>
        <time>2021-08-21T13:59:43.000Z</time>
      </trkpt>
      <trkpt lat="44.10902" lon="6.65768">
        <ele>2028</ele>
        <time>2021-08-21T13:59:44.000Z</time>
      </trkpt>
      <trkpt lat="44.10898" lon="6.65764">
        <ele>2028.4000244141</ele>
        <time>2021-08-21T13:59:47.000Z</time>
      </trkpt>
      <trkpt lat="44.10895" lon="6.65761">
        <ele>2028.5999755859</ele>
        <time>2021-08-21T13:59:49.000Z</time>
      </trkpt>
      <trkpt lat="44.1089" lon="6.65757">
        <ele>2029</ele>
        <time>2021-08-21T13:59:52.000Z</time>
      </trkpt>
      <trkpt lat="44.10886" lon="6.65753">
        <ele>2029.5999755859</ele>
        <time>2021-08-21T13:59:55.000Z</time>
      </trkpt>
      <trkpt lat="44.10879" lon="6.65747">
        <ele>2030.1999511719</ele>
        <time>2021-08-21T13:59:59.000Z</time>
      </trkpt>
      <trkpt lat="44.10874" lon="6.65744">
        <ele>2030.5999755859</ele>
        <time>2021-08-21T14:00:02.000Z</time>
      </trkpt>
      <trkpt lat="44.10869" lon="6.6574">
        <ele>2031.1999511719</ele>
        <time>2021-08-21T14:00:05.000Z</time>
      </trkpt>
      <trkpt lat="44.10865" lon="6.65736">
        <ele>2031.5999755859</ele>
        <time>2021-08-21T14:00:08.000Z</time>
      </trkpt>
      <trkpt lat="44.10859" lon="6.65729">
        <ele>2032.4000244141</ele>
        <time>2021-08-21T14:00:12.000Z</time>
      </trkpt>
      <trkpt lat="44.10855" lon="6.65726">
        <ele>2032.5999755859</ele>
        <time>2021-08-21T14:00:14.000Z</time>
      </trkpt>
      <trkpt lat="44.10846" lon="6.65718">
        <ele>2033.1999511719</ele>
        <time>2021-08-21T14:00:20.000Z</time>
      </trkpt>
      <trkpt lat="44.10845" lon="6.65717">
        <ele>2033.4000244141</ele>
        <time>2021-08-21T14:00:21.000Z</time>
      </trkpt>
      <trkpt lat="44.10837" lon="6.6571">
        <ele>2034.4000244141</ele>
        <time>2021-08-21T14:00:27.000Z</time>
      </trkpt>
      <trkpt lat="44.10836" lon="6.65709">
        <ele>2034.5999755859</ele>
        <time>2021-08-21T14:00:28.000Z</time>
      </trkpt>
      <trkpt lat="44.10829" lon="6.65703">
        <ele>2035.1999511719</ele>
        <time>2021-08-21T14:00:34.000Z</time>
      </trkpt>
      <trkpt lat="44.10823" lon="6.65698">
        <ele>2035.5999755859</ele>
        <time>2021-08-21T14:00:39.000Z</time>
      </trkpt>
      <trkpt lat="44.1082" lon="6.65695">
        <ele>2035.8000488281</ele>
        <time>2021-08-21T14:00:41.000Z</time>
      </trkpt>
      <trkpt lat="44.10808" lon="6.65687">
        <ele>2036.8000488281</ele>
        <time>2021-08-21T14:00:49.000Z</time>
      </trkpt>
      <trkpt lat="44.10806" lon="6.65686">
        <ele>2037</ele>
        <time>2021-08-21T14:00:50.000Z</time>
      </trkpt>
      <trkpt lat="44.10796" lon="6.6568">
        <ele>2038</ele>
        <time>2021-08-21T14:00:57.000Z</time>
      </trkpt>
      <trkpt lat="44.10793" lon="6.65679">
        <ele>2038</ele>
        <time>2021-08-21T14:00:59.000Z</time>
      </trkpt>
      <trkpt lat="44.10783" lon="6.65674">
        <ele>2039</ele>
        <time>2021-08-21T14:01:06.000Z</time>
      </trkpt>
      <trkpt lat="44.10781" lon="6.65674">
        <ele>2039.1999511719</ele>
        <time>2021-08-21T14:01:07.000Z</time>
      </trkpt>
      <trkpt lat="44.10768" lon="6.65673">
        <ele>2040</ele>
        <time>2021-08-21T14:01:15.000Z</time>
      </trkpt>
      <trkpt lat="44.10766" lon="6.65674">
        <ele>2040.1999511719</ele>
        <time>2021-08-21T14:01:16.000Z</time>
      </trkpt>
      <trkpt lat="44.10752" lon="6.65681">
        <ele>2040.8000488281</ele>
        <time>2021-08-21T14:01:24.000Z</time>
      </trkpt>
      <trkpt lat="44.10751" lon="6.65682">
        <ele>2041</ele>
        <time>2021-08-21T14:01:25.000Z</time>
      </trkpt>
      <trkpt lat="44.10746" lon="6.65687">
        <ele>2042.1999511719</ele>
        <time>2021-08-21T14:01:29.000Z</time>
      </trkpt>
      <trkpt lat="44.10742" lon="6.6569">
        <ele>2042.8000488281</ele>
        <time>2021-08-21T14:01:32.000Z</time>
      </trkpt>
      <trkpt lat="44.10736" lon="6.65694">
        <ele>2043.1999511719</ele>
        <time>2021-08-21T14:01:37.000Z</time>
      </trkpt>
      <trkpt lat="44.10734" lon="6.65696">
        <ele>2043.4000244141</ele>
        <time>2021-08-21T14:01:39.000Z</time>
      </trkpt>
      <trkpt lat="44.10727" lon="6.65698">
        <ele>2044</ele>
        <time>2021-08-21T14:01:44.000Z</time>
      </trkpt>
      <trkpt lat="44.10724" lon="6.65696">
        <ele>2044.4000244141</ele>
        <time>2021-08-21T14:01:46.000Z</time>
      </trkpt>
      <trkpt lat="44.10715" lon="6.65691">
        <ele>2044.8000488281</ele>
        <time>2021-08-21T14:01:53.000Z</time>
      </trkpt>
      <trkpt lat="44.10702" lon="6.65685">
        <ele>2045.4000244141</ele>
        <time>2021-08-21T14:02:01.000Z</time>
      </trkpt>
      <trkpt lat="44.10695" lon="6.65674">
        <ele>2045.8000488281</ele>
        <time>2021-08-21T14:02:07.000Z</time>
      </trkpt>
      <trkpt lat="44.10688" lon="6.65669">
        <ele>2046.4000244141</ele>
        <time>2021-08-21T14:02:12.000Z</time>
      </trkpt>
      <trkpt lat="44.10683" lon="6.65667">
        <ele>2047</ele>
        <time>2021-08-21T14:02:15.000Z</time>
      </trkpt>
      <trkpt lat="44.1068" lon="6.65664">
        <ele>2047.5999755859</ele>
        <time>2021-08-21T14:02:17.000Z</time>
      </trkpt>
      <trkpt lat="44.10676" lon="6.65659">
        <ele>2048.1999511719</ele>
        <time>2021-08-21T14:02:22.000Z</time>
      </trkpt>
      <trkpt lat="44.10674" lon="6.65656">
        <ele>2048.3999023438</ele>
        <time>2021-08-21T14:02:27.000Z</time>
      </trkpt>
      <trkpt lat="44.1067" lon="6.6565">
        <ele>2048.6000976562</ele>
        <time>2021-08-21T14:02:31.000Z</time>
      </trkpt>
      <trkpt lat="44.10666" lon="6.65646">
        <ele>2048.8000488281</ele>
        <time>2021-08-21T14:02:34.000Z</time>
      </trkpt>
      <trkpt lat="44.10658" lon="6.65638">
        <ele>2049.6000976562</ele>
        <time>2021-08-21T14:02:40.000Z</time>
      </trkpt>
      <trkpt lat="44.10657" lon="6.65638">
        <ele>2049.6000976562</ele>
        <time>2021-08-21T14:02:41.000Z</time>
      </trkpt>
      <trkpt lat="44.10645" lon="6.65633">
        <ele>2050.6000976562</ele>
        <time>2021-08-21T14:02:48.000Z</time>
      </trkpt>
      <trkpt lat="44.10644" lon="6.65632">
        <ele>2050.8000488281</ele>
        <time>2021-08-21T14:02:49.000Z</time>
      </trkpt>
      <trkpt lat="44.10636" lon="6.65624">
        <ele>2052</ele>
        <time>2021-08-21T14:02:55.000Z</time>
      </trkpt>
      <trkpt lat="44.10635" lon="6.65622">
        <ele>2052</ele>
        <time>2021-08-21T14:02:56.000Z</time>
      </trkpt>
      <trkpt lat="44.10625" lon="6.6561">
        <ele>2052.8000488281</ele>
        <time>2021-08-21T14:03:04.000Z</time>
      </trkpt>
      <trkpt lat="44.10621" lon="6.65607">
        <ele>2053</ele>
        <time>2021-08-21T14:03:07.000Z</time>
      </trkpt>
      <trkpt lat="44.10611" lon="6.65601">
        <ele>2053.8000488281</ele>
        <time>2021-08-21T14:03:14.000Z</time>
      </trkpt>
      <trkpt lat="44.10608" lon="6.65599">
        <ele>2054</ele>
        <time>2021-08-21T14:03:17.000Z</time>
      </trkpt>
      <trkpt lat="44.10603" lon="6.65594">
        <ele>2054.3999023438</ele>
        <time>2021-08-21T14:03:21.000Z</time>
      </trkpt>
      <trkpt lat="44.10593" lon="6.65588">
        <ele>2054.8000488281</ele>
        <time>2021-08-21T14:03:27.000Z</time>
      </trkpt>
      <trkpt lat="44.10589" lon="6.65584">
        <ele>2055.1999511719</ele>
        <time>2021-08-21T14:03:30.000Z</time>
      </trkpt>
      <trkpt lat="44.10584" lon="6.65581">
        <ele>2055.3999023438</ele>
        <time>2021-08-21T14:03:33.000Z</time>
      </trkpt>
      <trkpt lat="44.10572" lon="6.65574">
        <ele>2055.6000976562</ele>
        <time>2021-08-21T14:03:39.000Z</time>
      </trkpt>
      <trkpt lat="44.10563" lon="6.65567">
        <ele>2056</ele>
        <time>2021-08-21T14:03:45.000Z</time>
      </trkpt>
      <trkpt lat="44.1056" lon="6.65565">
        <ele>2056.1999511719</ele>
        <time>2021-08-21T14:03:47.000Z</time>
      </trkpt>
      <trkpt lat="44.10552" lon="6.65559">
        <ele>2057</ele>
        <time>2021-08-21T14:03:52.000Z</time>
      </trkpt>
      <trkpt lat="44.10543" lon="6.65552">
        <ele>2057.1999511719</ele>
        <time>2021-08-21T14:03:57.000Z</time>
      </trkpt>
      <trkpt lat="44.10533" lon="6.65545">
        <ele>2057.8000488281</ele>
        <time>2021-08-21T14:04:03.000Z</time>
      </trkpt>
      <trkpt lat="44.10527" lon="6.65542">
        <ele>2058.3999023438</ele>
        <time>2021-08-21T14:04:06.000Z</time>
      </trkpt>
      <trkpt lat="44.1052" lon="6.65538">
        <ele>2058.6000976562</ele>
        <time>2021-08-21T14:04:09.000Z</time>
      </trkpt>
      <trkpt lat="44.10505" lon="6.65536">
        <ele>2058.3999023438</ele>
        <time>2021-08-21T14:04:15.000Z</time>
      </trkpt>
      <trkpt lat="44.10492" lon="6.65543">
        <ele>2058</ele>
        <time>2021-08-21T14:04:21.000Z</time>
      </trkpt>
      <trkpt lat="44.10478" lon="6.6556">
        <ele>2058</ele>
        <time>2021-08-21T14:04:28.000Z</time>
      </trkpt>
      <trkpt lat="44.10468" lon="6.65583">
        <ele>2057.8000488281</ele>
        <time>2021-08-21T14:04:36.000Z</time>
      </trkpt>
      <trkpt lat="44.10466" lon="6.65594">
        <ele>2058</ele>
        <time>2021-08-21T14:04:40.000Z</time>
      </trkpt>
      <trkpt lat="44.10466" lon="6.656">
        <ele>2058.1999511719</ele>
        <time>2021-08-21T14:04:42.000Z</time>
      </trkpt>
      <trkpt lat="44.10469" lon="6.65622">
        <ele>2058.1999511719</ele>
        <time>2021-08-21T14:04:49.000Z</time>
      </trkpt>
      <trkpt lat="44.10474" lon="6.65642">
        <ele>2058.3999023438</ele>
        <time>2021-08-21T14:04:56.000Z</time>
      </trkpt>
      <trkpt lat="44.10476" lon="6.65653">
        <ele>2058.3999023438</ele>
        <time>2021-08-21T14:05:00.000Z</time>
      </trkpt>
      <trkpt lat="44.10478" lon="6.65659">
        <ele>2058.3999023438</ele>
        <time>2021-08-21T14:05:02.000Z</time>
      </trkpt>
      <trkpt lat="44.10485" lon="6.65676">
        <ele>2058.3999023438</ele>
        <time>2021-08-21T14:05:08.000Z</time>
      </trkpt>
      <trkpt lat="44.1049" lon="6.65694">
        <ele>2058.8000488281</ele>
        <time>2021-08-21T14:05:14.000Z</time>
      </trkpt>
      <trkpt lat="44.10491" lon="6.657">
        <ele>2058.8000488281</ele>
        <time>2021-08-21T14:05:16.000Z</time>
      </trkpt>
      <trkpt lat="44.10493" lon="6.65704">
        <ele>2058.8000488281</ele>
        <time>2021-08-21T14:05:18.000Z</time>
      </trkpt>
      <trkpt lat="44.10495" lon="6.65709">
        <ele>2059.1999511719</ele>
        <time>2021-08-21T14:05:20.000Z</time>
      </trkpt>
      <trkpt lat="44.10497" lon="6.65718">
        <ele>2059.3999023438</ele>
        <time>2021-08-21T14:05:23.000Z</time>
      </trkpt>
      <trkpt lat="44.10498" lon="6.65721">
        <ele>2059.3999023438</ele>
        <time>2021-08-21T14:05:24.000Z</time>
      </trkpt>
      <trkpt lat="44.10502" lon="6.65737">
        <ele>2059.8000488281</ele>
        <time>2021-08-21T14:05:29.000Z</time>
      </trkpt>
      <trkpt lat="44.10508" lon="6.65759">
        <ele>2060.1999511719</ele>
        <time>2021-08-21T14:05:36.000Z</time>
      </trkpt>
      <trkpt lat="44.10511" lon="6.65765">
        <ele>2060.3999023438</ele>
        <time>2021-08-21T14:05:38.000Z</time>
      </trkpt>
      <trkpt lat="44.10515" lon="6.65773">
        <ele>2060.6000976562</ele>
        <time>2021-08-21T14:05:41.000Z</time>
      </trkpt>
      <trkpt lat="44.10524" lon="6.65788">
        <ele>2061</ele>
        <time>2021-08-21T14:05:46.000Z</time>
      </trkpt>
      <trkpt lat="44.10535" lon="6.65804">
        <ele>2060.6000976562</ele>
        <time>2021-08-21T14:05:51.000Z</time>
      </trkpt>
      <trkpt lat="44.10546" lon="6.65824">
        <ele>2060.3999023438</ele>
        <time>2021-08-21T14:05:57.000Z</time>
      </trkpt>
      <trkpt lat="44.10551" lon="6.65844">
        <ele>2060.3999023438</ele>
        <time>2021-08-21T14:06:02.000Z</time>
      </trkpt>
      <trkpt lat="44.10555" lon="6.6586">
        <ele>2060.6000976562</ele>
        <time>2021-08-21T14:06:07.000Z</time>
      </trkpt>
      <trkpt lat="44.10558" lon="6.65873">
        <ele>2061.6000976562</ele>
        <time>2021-08-21T14:06:11.000Z</time>
      </trkpt>
      <trkpt lat="44.10559" lon="6.65881">
        <ele>2061.8000488281</ele>
        <time>2021-08-21T14:06:14.000Z</time>
      </trkpt>
      <trkpt lat="44.10561" lon="6.65888">
        <ele>2062.6000976562</ele>
        <time>2021-08-21T14:06:19.000Z</time>
      </trkpt>
      <trkpt lat="44.10564" lon="6.65897">
        <ele>2063</ele>
        <time>2021-08-21T14:06:25.000Z</time>
      </trkpt>
      <trkpt lat="44.10564" lon="6.65899">
        <ele>2063</ele>
        <time>2021-08-21T14:06:28.000Z</time>
      </trkpt>
      <trkpt lat="44.10564" lon="6.65901">
        <ele>2063.1999511719</ele>
        <time>2021-08-21T14:06:29.000Z</time>
      </trkpt>
      <trkpt lat="44.10565" lon="6.65913">
        <ele>2063.6000976562</ele>
        <time>2021-08-21T14:06:34.000Z</time>
      </trkpt>
      <trkpt lat="44.10565" lon="6.65927">
        <ele>2064.1999511719</ele>
        <time>2021-08-21T14:06:39.000Z</time>
      </trkpt>
      <trkpt lat="44.10566" lon="6.65929">
        <ele>2064.3999023438</ele>
        <time>2021-08-21T14:06:40.000Z</time>
      </trkpt>
      <trkpt lat="44.10567" lon="6.65933">
        <ele>2064.8000488281</ele>
        <time>2021-08-21T14:06:42.000Z</time>
      </trkpt>
      <trkpt lat="44.10571" lon="6.6594">
        <ele>2065.1999511719</ele>
        <time>2021-08-21T14:06:45.000Z</time>
      </trkpt>
      <trkpt lat="44.10572" lon="6.65944">
        <ele>2065.3999023438</ele>
        <time>2021-08-21T14:06:47.000Z</time>
      </trkpt>
      <trkpt lat="44.10573" lon="6.65953">
        <ele>2065.6000976562</ele>
        <time>2021-08-21T14:06:50.000Z</time>
      </trkpt>
      <trkpt lat="44.10574" lon="6.65956">
        <ele>2065.8000488281</ele>
        <time>2021-08-21T14:06:52.000Z</time>
      </trkpt>
      <trkpt lat="44.10574" lon="6.65957">
        <ele>2066</ele>
        <time>2021-08-21T14:06:55.000Z</time>
      </trkpt>
      <trkpt lat="44.10573" lon="6.65961">
        <ele>2065.3999023438</ele>
        <time>2021-08-21T14:07:00.000Z</time>
      </trkpt>
      <trkpt lat="44.10571" lon="6.65963">
        <ele>2065</ele>
        <time>2021-08-21T14:07:05.000Z</time>
      </trkpt>
      <trkpt lat="44.10564" lon="6.65962">
        <ele>2066.8000488281</ele>
        <time>2021-08-21T14:07:13.000Z</time>
      </trkpt>
      <trkpt lat="44.10563" lon="6.65962">
        <ele>2066.8000488281</ele>
        <time>2021-08-21T14:07:14.000Z</time>
      </trkpt>
      <trkpt lat="44.10556" lon="6.65961">
        <ele>2067.6000976562</ele>
        <time>2021-08-21T14:07:22.000Z</time>
      </trkpt>
      <trkpt lat="44.10555" lon="6.6596">
        <ele>2068</ele>
        <time>2021-08-21T14:07:24.000Z</time>
      </trkpt>
      <trkpt lat="44.10553" lon="6.65958">
        <ele>2068.6000976562</ele>
        <time>2021-08-21T14:07:27.000Z</time>
      </trkpt>
      <trkpt lat="44.10551" lon="6.65956">
        <ele>2068.8000488281</ele>
        <time>2021-08-21T14:07:30.000Z</time>
      </trkpt>
      <trkpt lat="44.1055" lon="6.65955">
        <ele>2069</ele>
        <time>2021-08-21T14:07:31.000Z</time>
      </trkpt>
      <trkpt lat="44.10547" lon="6.65951">
        <ele>2070</ele>
        <time>2021-08-21T14:07:36.000Z</time>
      </trkpt>
      <trkpt lat="44.10545" lon="6.65947">
        <ele>2070.3999023438</ele>
        <time>2021-08-21T14:07:39.000Z</time>
      </trkpt>
      <trkpt lat="44.1054" lon="6.65942">
        <ele>2071.1999511719</ele>
        <time>2021-08-21T14:07:47.000Z</time>
      </trkpt>
      <trkpt lat="44.10534" lon="6.65939">
        <ele>2072.6000976562</ele>
        <time>2021-08-21T14:07:55.000Z</time>
      </trkpt>
      <trkpt lat="44.10534" lon="6.65938">
        <ele>2072.8000488281</ele>
        <time>2021-08-21T14:07:56.000Z</time>
      </trkpt>
      <trkpt lat="44.10529" lon="6.65935">
        <ele>2073.6000976562</ele>
        <time>2021-08-21T14:08:03.000Z</time>
      </trkpt>
      <trkpt lat="44.10528" lon="6.65934">
        <ele>2074.1999511719</ele>
        <time>2021-08-21T14:08:05.000Z</time>
      </trkpt>
      <trkpt lat="44.10527" lon="6.65934">
        <ele>2074.6000976562</ele>
        <time>2021-08-21T14:08:09.000Z</time>
      </trkpt>
      <trkpt lat="44.10527" lon="6.65934">
        <ele>2075</ele>
        <time>2021-08-21T14:08:13.000Z</time>
      </trkpt>
      <trkpt lat="44.10528" lon="6.65935">
        <ele>2075.1999511719</ele>
        <time>2021-08-21T14:08:32.000Z</time>
      </trkpt>
      <trkpt lat="44.10523" lon="6.65931">
        <ele>2075.1999511719</ele>
        <time>2021-08-21T14:08:39.000Z</time>
      </trkpt>
      <trkpt lat="44.10521" lon="6.65928">
        <ele>2075.6000976562</ele>
        <time>2021-08-21T14:08:42.000Z</time>
      </trkpt>
      <trkpt lat="44.10514" lon="6.65923">
        <ele>2076.8000488281</ele>
        <time>2021-08-21T14:08:50.000Z</time>
      </trkpt>
      <trkpt lat="44.10508" lon="6.6592">
        <ele>2077.8000488281</ele>
        <time>2021-08-21T14:08:56.000Z</time>
      </trkpt>
      <trkpt lat="44.10506" lon="6.65918">
        <ele>2078.3999023438</ele>
        <time>2021-08-21T14:08:59.000Z</time>
      </trkpt>
      <trkpt lat="44.10503" lon="6.65914">
        <ele>2078.8000488281</ele>
        <time>2021-08-21T14:09:03.000Z</time>
      </trkpt>
      <trkpt lat="44.105" lon="6.65913">
        <ele>2079.1999511719</ele>
        <time>2021-08-21T14:09:06.000Z</time>
      </trkpt>
      <trkpt lat="44.10494" lon="6.65912">
        <ele>2079.3999023438</ele>
        <time>2021-08-21T14:09:14.000Z</time>
      </trkpt>
      <trkpt lat="44.10494" lon="6.65912">
        <ele>2079.1999511719</ele>
        <time>2021-08-21T14:09:22.000Z</time>
      </trkpt>
      <trkpt lat="44.10494" lon="6.65912">
        <ele>2079.3999023438</ele>
        <time>2021-08-21T14:09:38.000Z</time>
      </trkpt>
      <trkpt lat="44.10494" lon="6.65912">
        <ele>2079</ele>
        <time>2021-08-21T14:09:47.000Z</time>
      </trkpt>
      <trkpt lat="44.10494" lon="6.65912">
        <ele>2078.8000488281</ele>
        <time>2021-08-21T14:10:07.000Z</time>
      </trkpt>
      <trkpt lat="44.10494" lon="6.65911">
        <ele>2079</ele>
        <time>2021-08-21T14:10:21.000Z</time>
      </trkpt>
      <trkpt lat="44.10495" lon="6.6591">
        <ele>2078.8000488281</ele>
        <time>2021-08-21T14:10:39.000Z</time>
      </trkpt>
      <trkpt lat="44.10495" lon="6.6591">
        <ele>2078.8000488281</ele>
        <time>2021-08-21T14:10:52.000Z</time>
      </trkpt>
      <trkpt lat="44.10494" lon="6.65911">
        <ele>2079</ele>
        <time>2021-08-21T14:11:11.000Z</time>
      </trkpt>
      <trkpt lat="44.10494" lon="6.65911">
        <ele>2079.1999511719</ele>
        <time>2021-08-21T14:11:33.000Z</time>
      </trkpt>
      <trkpt lat="44.10493" lon="6.65911">
        <ele>2078.6000976562</ele>
        <time>2021-08-21T14:11:51.000Z</time>
      </trkpt>
      <trkpt lat="44.10493" lon="6.65911">
        <ele>2079</ele>
        <time>2021-08-21T14:12:07.000Z</time>
      </trkpt>
      <trkpt lat="44.10494" lon="6.65911">
        <ele>2078.6000976562</ele>
        <time>2021-08-21T14:12:27.000Z</time>
      </trkpt>
      <trkpt lat="44.10494" lon="6.65912">
        <ele>2078.8000488281</ele>
        <time>2021-08-21T14:12:48.000Z</time>
      </trkpt>
      <trkpt lat="44.10493" lon="6.65911">
        <ele>2079</ele>
        <time>2021-08-21T14:13:05.000Z</time>
      </trkpt>
      <trkpt lat="44.10493" lon="6.6591">
        <ele>2079</ele>
        <time>2021-08-21T14:13:30.000Z</time>
      </trkpt>
      <trkpt lat="44.10492" lon="6.65908">
        <ele>2079</ele>
        <time>2021-08-21T14:13:53.000Z</time>
      </trkpt>
      <trkpt lat="44.10491" lon="6.65908">
        <ele>2079.3999023438</ele>
        <time>2021-08-21T14:14:09.000Z</time>
      </trkpt>
      <trkpt lat="44.10492" lon="6.65908">
        <ele>2079</ele>
        <time>2021-08-21T14:14:25.000Z</time>
      </trkpt>
      <trkpt lat="44.10492" lon="6.65908">
        <ele>2079.6000976562</ele>
        <time>2021-08-21T14:14:33.000Z</time>
      </trkpt>
      <trkpt lat="44.10492" lon="6.65906">
        <ele>2079.3999023438</ele>
        <time>2021-08-21T14:14:35.000Z</time>
      </trkpt>
      <trkpt lat="44.1049" lon="6.65903">
        <ele>2079.1999511719</ele>
        <time>2021-08-21T14:14:37.000Z</time>
      </trkpt>
      <trkpt lat="44.10487" lon="6.65901">
        <ele>2079.1999511719</ele>
        <time>2021-08-21T14:14:39.000Z</time>
      </trkpt>
      <trkpt lat="44.10479" lon="6.65892">
        <ele>2078.3999023438</ele>
        <time>2021-08-21T14:14:43.000Z</time>
      </trkpt>
      <trkpt lat="44.10476" lon="6.65889">
        <ele>2077.8000488281</ele>
        <time>2021-08-21T14:14:44.000Z</time>
      </trkpt>
      <trkpt lat="44.10472" lon="6.65885">
        <ele>2076.8000488281</ele>
        <time>2021-08-21T14:14:46.000Z</time>
      </trkpt>
      <trkpt lat="44.10469" lon="6.65881">
        <ele>2075.6000976562</ele>
        <time>2021-08-21T14:14:48.000Z</time>
      </trkpt>
      <trkpt lat="44.10468" lon="6.65879">
        <ele>2074.8000488281</ele>
        <time>2021-08-21T14:14:49.000Z</time>
      </trkpt>
      <trkpt lat="44.10467" lon="6.65876">
        <ele>2074.1999511719</ele>
        <time>2021-08-21T14:14:50.000Z</time>
      </trkpt>
      <trkpt lat="44.10464" lon="6.65871">
        <ele>2072.8000488281</ele>
        <time>2021-08-21T14:14:52.000Z</time>
      </trkpt>
      <trkpt lat="44.10458" lon="6.65866">
        <ele>2071.1999511719</ele>
        <time>2021-08-21T14:14:54.000Z</time>
      </trkpt>
      <trkpt lat="44.10452" lon="6.65862">
        <ele>2069.6000976562</ele>
        <time>2021-08-21T14:14:56.000Z</time>
      </trkpt>
      <trkpt lat="44.10448" lon="6.6586">
        <ele>2068</ele>
        <time>2021-08-21T14:14:58.000Z</time>
      </trkpt>
      <trkpt lat="44.10443" lon="6.65854">
        <ele>2066.1999511719</ele>
        <time>2021-08-21T14:15:00.000Z</time>
      </trkpt>
      <trkpt lat="44.10435" lon="6.65849">
        <ele>2065</ele>
        <time>2021-08-21T14:15:02.000Z</time>
      </trkpt>
      <trkpt lat="44.10432" lon="6.65846">
        <ele>2064.3999023438</ele>
        <time>2021-08-21T14:15:03.000Z</time>
      </trkpt>
      <trkpt lat="44.10428" lon="6.65842">
        <ele>2063.3999023438</ele>
        <time>2021-08-21T14:15:04.000Z</time>
      </trkpt>
      <trkpt lat="44.10418" lon="6.65833">
        <ele>2062.1999511719</ele>
        <time>2021-08-21T14:15:06.000Z</time>
      </trkpt>
      <trkpt lat="44.10413" lon="6.65828">
        <ele>2061.3999023438</ele>
        <time>2021-08-21T14:15:07.000Z</time>
      </trkpt>
      <trkpt lat="44.10409" lon="6.65823">
        <ele>2061</ele>
        <time>2021-08-21T14:15:08.000Z</time>
      </trkpt>
      <trkpt lat="44.10399" lon="6.65813">
        <ele>2059.6000976562</ele>
        <time>2021-08-21T14:15:10.000Z</time>
      </trkpt>
      <trkpt lat="44.1039" lon="6.65802">
        <ele>2057.8000488281</ele>
        <time>2021-08-21T14:15:12.000Z</time>
      </trkpt>
      <trkpt lat="44.10385" lon="6.65798">
        <ele>2056.6000976562</ele>
        <time>2021-08-21T14:15:13.000Z</time>
      </trkpt>
      <trkpt lat="44.1038" lon="6.65792">
        <ele>2055.6000976562</ele>
        <time>2021-08-21T14:15:14.000Z</time>
      </trkpt>
      <trkpt lat="44.10371" lon="6.65783">
        <ele>2053.8000488281</ele>
        <time>2021-08-21T14:15:16.000Z</time>
      </trkpt>
      <trkpt lat="44.10368" lon="6.65779">
        <ele>2052.8000488281</ele>
        <time>2021-08-21T14:15:17.000Z</time>
      </trkpt>
      <trkpt lat="44.1036" lon="6.65771">
        <ele>2051.3999023438</ele>
        <time>2021-08-21T14:15:19.000Z</time>
      </trkpt>
      <trkpt lat="44.10357" lon="6.65766">
        <ele>2050.6000976562</ele>
        <time>2021-08-21T14:15:20.000Z</time>
      </trkpt>
      <trkpt lat="44.10354" lon="6.65762">
        <ele>2049.8000488281</ele>
        <time>2021-08-21T14:15:21.000Z</time>
      </trkpt>
      <trkpt lat="44.10347" lon="6.65754">
        <ele>2048.3999023438</ele>
        <time>2021-08-21T14:15:23.000Z</time>
      </trkpt>
      <trkpt lat="44.10343" lon="6.65749">
        <ele>2047.8000488281</ele>
        <time>2021-08-21T14:15:24.000Z</time>
      </trkpt>
      <trkpt lat="44.10339" lon="6.65745">
        <ele>2046.8000488281</ele>
        <time>2021-08-21T14:15:25.000Z</time>
      </trkpt>
      <trkpt lat="44.10333" lon="6.6574">
        <ele>2045.4000244141</ele>
        <time>2021-08-21T14:15:27.000Z</time>
      </trkpt>
      <trkpt lat="44.10329" lon="6.65733">
        <ele>2044.1999511719</ele>
        <time>2021-08-21T14:15:29.000Z</time>
      </trkpt>
      <trkpt lat="44.10323" lon="6.65723">
        <ele>2042.8000488281</ele>
        <time>2021-08-21T14:15:31.000Z</time>
      </trkpt>
      <trkpt lat="44.1032" lon="6.65716">
        <ele>2042.1999511719</ele>
        <time>2021-08-21T14:15:32.000Z</time>
      </trkpt>
      <trkpt lat="44.10316" lon="6.65709">
        <ele>2041.5999755859</ele>
        <time>2021-08-21T14:15:33.000Z</time>
      </trkpt>
      <trkpt lat="44.10311" lon="6.65698">
        <ele>2040.1999511719</ele>
        <time>2021-08-21T14:15:35.000Z</time>
      </trkpt>
      <trkpt lat="44.10307" lon="6.65692">
        <ele>2039.1999511719</ele>
        <time>2021-08-21T14:15:36.000Z</time>
      </trkpt>
      <trkpt lat="44.10302" lon="6.65686">
        <ele>2038.1999511719</ele>
        <time>2021-08-21T14:15:37.000Z</time>
      </trkpt>
      <trkpt lat="44.10297" lon="6.65681">
        <ele>2037</ele>
        <time>2021-08-21T14:15:38.000Z</time>
      </trkpt>
      <trkpt lat="44.10291" lon="6.65675">
        <ele>2036.4000244141</ele>
        <time>2021-08-21T14:15:39.000Z</time>
      </trkpt>
      <trkpt lat="44.10286" lon="6.65668">
        <ele>2035.4000244141</ele>
        <time>2021-08-21T14:15:40.000Z</time>
      </trkpt>
      <trkpt lat="44.10274" lon="6.65655">
        <ele>2034.5999755859</ele>
        <time>2021-08-21T14:15:42.000Z</time>
      </trkpt>
      <trkpt lat="44.10269" lon="6.65649">
        <ele>2034.1999511719</ele>
        <time>2021-08-21T14:15:43.000Z</time>
      </trkpt>
      <trkpt lat="44.1026" lon="6.65639">
        <ele>2032.8000488281</ele>
        <time>2021-08-21T14:15:45.000Z</time>
      </trkpt>
      <trkpt lat="44.10252" lon="6.65629">
        <ele>2031.5999755859</ele>
        <time>2021-08-21T14:15:47.000Z</time>
      </trkpt>
      <trkpt lat="44.10243" lon="6.65617">
        <ele>2030</ele>
        <time>2021-08-21T14:15:49.000Z</time>
      </trkpt>
      <trkpt lat="44.10228" lon="6.65601">
        <ele>2028.5999755859</ele>
        <time>2021-08-21T14:15:52.000Z</time>
      </trkpt>
      <trkpt lat="44.10224" lon="6.65597">
        <ele>2028.1999511719</ele>
        <time>2021-08-21T14:15:53.000Z</time>
      </trkpt>
      <trkpt lat="44.10213" lon="6.65586">
        <ele>2027.4000244141</ele>
        <time>2021-08-21T14:15:55.000Z</time>
      </trkpt>
      <trkpt lat="44.10202" lon="6.65574">
        <ele>2026.1999511719</ele>
        <time>2021-08-21T14:15:57.000Z</time>
      </trkpt>
      <trkpt lat="44.10197" lon="6.6557">
        <ele>2026</ele>
        <time>2021-08-21T14:15:58.000Z</time>
      </trkpt>
      <trkpt lat="44.10192" lon="6.65565">
        <ele>2025.8000488281</ele>
        <time>2021-08-21T14:15:59.000Z</time>
      </trkpt>
      <trkpt lat="44.10182" lon="6.65553">
        <ele>2024.8000488281</ele>
        <time>2021-08-21T14:16:01.000Z</time>
      </trkpt>
      <trkpt lat="44.10172" lon="6.65544">
        <ele>2024.1999511719</ele>
        <time>2021-08-21T14:16:03.000Z</time>
      </trkpt>
      <trkpt lat="44.10167" lon="6.65539">
        <ele>2023.5999755859</ele>
        <time>2021-08-21T14:16:04.000Z</time>
      </trkpt>
      <trkpt lat="44.10156" lon="6.65529">
        <ele>2022.5999755859</ele>
        <time>2021-08-21T14:16:06.000Z</time>
      </trkpt>
      <trkpt lat="44.10145" lon="6.65518">
        <ele>2021.4000244141</ele>
        <time>2021-08-21T14:16:08.000Z</time>
      </trkpt>
      <trkpt lat="44.10139" lon="6.65511">
        <ele>2021</ele>
        <time>2021-08-21T14:16:09.000Z</time>
      </trkpt>
      <trkpt lat="44.10134" lon="6.65506">
        <ele>2020.4000244141</ele>
        <time>2021-08-21T14:16:10.000Z</time>
      </trkpt>
      <trkpt lat="44.1013" lon="6.655">
        <ele>2019.8000488281</ele>
        <time>2021-08-21T14:16:11.000Z</time>
      </trkpt>
      <trkpt lat="44.10125" lon="6.65494">
        <ele>2019.4000244141</ele>
        <time>2021-08-21T14:16:12.000Z</time>
      </trkpt>
      <trkpt lat="44.10115" lon="6.65482">
        <ele>2018</ele>
        <time>2021-08-21T14:16:14.000Z</time>
      </trkpt>
      <trkpt lat="44.1011" lon="6.65475">
        <ele>2017.5999755859</ele>
        <time>2021-08-21T14:16:15.000Z</time>
      </trkpt>
      <trkpt lat="44.10104" lon="6.65468">
        <ele>2017</ele>
        <time>2021-08-21T14:16:16.000Z</time>
      </trkpt>
      <trkpt lat="44.10098" lon="6.65461">
        <ele>2016.5999755859</ele>
        <time>2021-08-21T14:16:17.000Z</time>
      </trkpt>
      <trkpt lat="44.10093" lon="6.65456">
        <ele>2016.1999511719</ele>
        <time>2021-08-21T14:16:18.000Z</time>
      </trkpt>
      <trkpt lat="44.10086" lon="6.65449">
        <ele>2016</ele>
        <time>2021-08-21T14:16:19.000Z</time>
      </trkpt>
      <trkpt lat="44.10081" lon="6.65444">
        <ele>2015.8000488281</ele>
        <time>2021-08-21T14:16:20.000Z</time>
      </trkpt>
      <trkpt lat="44.10075" lon="6.65439">
        <ele>2015.4000244141</ele>
        <time>2021-08-21T14:16:21.000Z</time>
      </trkpt>
      <trkpt lat="44.10066" lon="6.65431">
        <ele>2014.4000244141</ele>
        <time>2021-08-21T14:16:23.000Z</time>
      </trkpt>
      <trkpt lat="44.10054" lon="6.65423">
        <ele>2012.5999755859</ele>
        <time>2021-08-21T14:16:25.000Z</time>
      </trkpt>
      <trkpt lat="44.10042" lon="6.65415">
        <ele>2011</ele>
        <time>2021-08-21T14:16:27.000Z</time>
      </trkpt>
      <trkpt lat="44.10037" lon="6.65411">
        <ele>2010.1999511719</ele>
        <time>2021-08-21T14:16:28.000Z</time>
      </trkpt>
      <trkpt lat="44.10031" lon="6.65407">
        <ele>2010</ele>
        <time>2021-08-21T14:16:29.000Z</time>
      </trkpt>
      <trkpt lat="44.10018" lon="6.65398">
        <ele>2009.1999511719</ele>
        <time>2021-08-21T14:16:31.000Z</time>
      </trkpt>
      <trkpt lat="44.10012" lon="6.65395">
        <ele>2008.5999755859</ele>
        <time>2021-08-21T14:16:32.000Z</time>
      </trkpt>
      <trkpt lat="44.09995" lon="6.65393">
        <ele>2007.1999511719</ele>
        <time>2021-08-21T14:16:35.000Z</time>
      </trkpt>
      <trkpt lat="44.09984" lon="6.65396">
        <ele>2006</ele>
        <time>2021-08-21T14:16:37.000Z</time>
      </trkpt>
      <trkpt lat="44.09981" lon="6.654">
        <ele>2005.5999755859</ele>
        <time>2021-08-21T14:16:38.000Z</time>
      </trkpt>
      <trkpt lat="44.09978" lon="6.65411">
        <ele>2004.5999755859</ele>
        <time>2021-08-21T14:16:40.000Z</time>
      </trkpt>
      <trkpt lat="44.09978" lon="6.65417">
        <ele>2004</ele>
        <time>2021-08-21T14:16:41.000Z</time>
      </trkpt>
      <trkpt lat="44.09977" lon="6.65424">
        <ele>2003.4000244141</ele>
        <time>2021-08-21T14:16:42.000Z</time>
      </trkpt>
      <trkpt lat="44.09975" lon="6.65438">
        <ele>2002.4000244141</ele>
        <time>2021-08-21T14:16:44.000Z</time>
      </trkpt>
      <trkpt lat="44.09973" lon="6.65453">
        <ele>2001.5999755859</ele>
        <time>2021-08-21T14:16:46.000Z</time>
      </trkpt>
      <trkpt lat="44.09972" lon="6.65468">
        <ele>2001.1999511719</ele>
        <time>2021-08-21T14:16:48.000Z</time>
      </trkpt>
      <trkpt lat="44.09969" lon="6.65495">
        <ele>2000.1999511719</ele>
        <time>2021-08-21T14:16:51.000Z</time>
      </trkpt>
      <trkpt lat="44.09968" lon="6.65503">
        <ele>2000</ele>
        <time>2021-08-21T14:16:52.000Z</time>
      </trkpt>
      <trkpt lat="44.09968" lon="6.6551">
        <ele>1999.8000488281</ele>
        <time>2021-08-21T14:16:53.000Z</time>
      </trkpt>
      <trkpt lat="44.09962" lon="6.65536">
        <ele>1998.8000488281</ele>
        <time>2021-08-21T14:16:56.000Z</time>
      </trkpt>
      <trkpt lat="44.09958" lon="6.65559">
        <ele>1997.8000488281</ele>
        <time>2021-08-21T14:16:59.000Z</time>
      </trkpt>
      <trkpt lat="44.09957" lon="6.65567">
        <ele>1997.1999511719</ele>
        <time>2021-08-21T14:17:00.000Z</time>
      </trkpt>
      <trkpt lat="44.09955" lon="6.65575">
        <ele>1996.5999755859</ele>
        <time>2021-08-21T14:17:01.000Z</time>
      </trkpt>
      <trkpt lat="44.09951" lon="6.65591">
        <ele>1995.5999755859</ele>
        <time>2021-08-21T14:17:03.000Z</time>
      </trkpt>
      <trkpt lat="44.09948" lon="6.65607">
        <ele>1994.4000244141</ele>
        <time>2021-08-21T14:17:05.000Z</time>
      </trkpt>
      <trkpt lat="44.09945" lon="6.65614">
        <ele>1993.8000488281</ele>
        <time>2021-08-21T14:17:06.000Z</time>
      </trkpt>
      <trkpt lat="44.09941" lon="6.65626">
        <ele>1992.8000488281</ele>
        <time>2021-08-21T14:17:08.000Z</time>
      </trkpt>
      <trkpt lat="44.09936" lon="6.65638">
        <ele>1991.8000488281</ele>
        <time>2021-08-21T14:17:10.000Z</time>
      </trkpt>
      <trkpt lat="44.09924" lon="6.6567">
        <ele>1990.5999755859</ele>
        <time>2021-08-21T14:17:14.000Z</time>
      </trkpt>
      <trkpt lat="44.09921" lon="6.65679">
        <ele>1990.1999511719</ele>
        <time>2021-08-21T14:17:15.000Z</time>
      </trkpt>
      <trkpt lat="44.09915" lon="6.65695">
        <ele>1989.8000488281</ele>
        <time>2021-08-21T14:17:17.000Z</time>
      </trkpt>
      <trkpt lat="44.09913" lon="6.65702">
        <ele>1989.4000244141</ele>
        <time>2021-08-21T14:17:18.000Z</time>
      </trkpt>
      <trkpt lat="44.09911" lon="6.65707">
        <ele>1989</ele>
        <time>2021-08-21T14:17:19.000Z</time>
      </trkpt>
      <trkpt lat="44.09906" lon="6.65718">
        <ele>1988</ele>
        <time>2021-08-21T14:17:21.000Z</time>
      </trkpt>
      <trkpt lat="44.09902" lon="6.65724">
        <ele>1987.4000244141</ele>
        <time>2021-08-21T14:17:22.000Z</time>
      </trkpt>
      <trkpt lat="44.09895" lon="6.65737">
        <ele>1986.8000488281</ele>
        <time>2021-08-21T14:17:24.000Z</time>
      </trkpt>
      <trkpt lat="44.0989" lon="6.65745">
        <ele>1986.5999755859</ele>
        <time>2021-08-21T14:17:25.000Z</time>
      </trkpt>
      <trkpt lat="44.09888" lon="6.65753">
        <ele>1986.4000244141</ele>
        <time>2021-08-21T14:17:26.000Z</time>
      </trkpt>
      <trkpt lat="44.09881" lon="6.65772">
        <ele>1985.5999755859</ele>
        <time>2021-08-21T14:17:28.000Z</time>
      </trkpt>
      <trkpt lat="44.09875" lon="6.65797">
        <ele>1984.4000244141</ele>
        <time>2021-08-21T14:17:31.000Z</time>
      </trkpt>
      <trkpt lat="44.09873" lon="6.65804">
        <ele>1983.8000488281</ele>
        <time>2021-08-21T14:17:32.000Z</time>
      </trkpt>
      <trkpt lat="44.09867" lon="6.65819">
        <ele>1983</ele>
        <time>2021-08-21T14:17:34.000Z</time>
      </trkpt>
      <trkpt lat="44.09865" lon="6.65826">
        <ele>1982.5999755859</ele>
        <time>2021-08-21T14:17:35.000Z</time>
      </trkpt>
      <trkpt lat="44.09863" lon="6.65833">
        <ele>1981.8000488281</ele>
        <time>2021-08-21T14:17:36.000Z</time>
      </trkpt>
      <trkpt lat="44.09856" lon="6.65837">
        <ele>1980.5999755859</ele>
        <time>2021-08-21T14:17:38.000Z</time>
      </trkpt>
      <trkpt lat="44.09847" lon="6.65839">
        <ele>1979</ele>
        <time>2021-08-21T14:17:40.000Z</time>
      </trkpt>
      <trkpt lat="44.09845" lon="6.65841">
        <ele>1978.4000244141</ele>
        <time>2021-08-21T14:17:41.000Z</time>
      </trkpt>
      <trkpt lat="44.09844" lon="6.65845">
        <ele>1977.5999755859</ele>
        <time>2021-08-21T14:17:42.000Z</time>
      </trkpt>
      <trkpt lat="44.09845" lon="6.65857">
        <ele>1975.5999755859</ele>
        <time>2021-08-21T14:17:44.000Z</time>
      </trkpt>
      <trkpt lat="44.09848" lon="6.65863">
        <ele>1974.5999755859</ele>
        <time>2021-08-21T14:17:45.000Z</time>
      </trkpt>
      <trkpt lat="44.09854" lon="6.65875">
        <ele>1973</ele>
        <time>2021-08-21T14:17:47.000Z</time>
      </trkpt>
      <trkpt lat="44.09853" lon="6.65886">
        <ele>1971.8000488281</ele>
        <time>2021-08-21T14:17:49.000Z</time>
      </trkpt>
      <trkpt lat="44.09851" lon="6.65889">
        <ele>1971.1999511719</ele>
        <time>2021-08-21T14:17:50.000Z</time>
      </trkpt>
      <trkpt lat="44.0985" lon="6.65893">
        <ele>1970.8000488281</ele>
        <time>2021-08-21T14:17:51.000Z</time>
      </trkpt>
      <trkpt lat="44.09853" lon="6.65899">
        <ele>1969</ele>
        <time>2021-08-21T14:17:53.000Z</time>
      </trkpt>
      <trkpt lat="44.09859" lon="6.65909">
        <ele>1967.5999755859</ele>
        <time>2021-08-21T14:17:55.000Z</time>
      </trkpt>
      <trkpt lat="44.09859" lon="6.65915">
        <ele>1967</ele>
        <time>2021-08-21T14:17:56.000Z</time>
      </trkpt>
      <trkpt lat="44.0986" lon="6.6592">
        <ele>1966.4000244141</ele>
        <time>2021-08-21T14:17:57.000Z</time>
      </trkpt>
      <trkpt lat="44.09858" lon="6.65933">
        <ele>1966</ele>
        <time>2021-08-21T14:18:00.000Z</time>
      </trkpt>
      <trkpt lat="44.09856" lon="6.65935">
        <ele>1965.8000488281</ele>
        <time>2021-08-21T14:18:01.000Z</time>
      </trkpt>
      <trkpt lat="44.09853" lon="6.65935">
        <ele>1965.4000244141</ele>
        <time>2021-08-21T14:18:02.000Z</time>
      </trkpt>
      <trkpt lat="44.09846" lon="6.65937">
        <ele>1964.1999511719</ele>
        <time>2021-08-21T14:18:05.000Z</time>
      </trkpt>
      <trkpt lat="44.0984" lon="6.65937">
        <ele>1964.4000244141</ele>
        <time>2021-08-21T14:18:10.000Z</time>
      </trkpt>
      <trkpt lat="44.09837" lon="6.65936">
        <ele>1964.5999755859</ele>
        <time>2021-08-21T14:18:12.000Z</time>
      </trkpt>
      <trkpt lat="44.09833" lon="6.65935">
        <ele>1965</ele>
        <time>2021-08-21T14:18:15.000Z</time>
      </trkpt>
      <trkpt lat="44.09829" lon="6.65933">
        <ele>1965.1999511719</ele>
        <time>2021-08-21T14:18:19.000Z</time>
      </trkpt>
      <trkpt lat="44.09827" lon="6.65932">
        <ele>1965.5999755859</ele>
        <time>2021-08-21T14:18:21.000Z</time>
      </trkpt>
      <trkpt lat="44.09824" lon="6.65931">
        <ele>1966.1999511719</ele>
        <time>2021-08-21T14:18:24.000Z</time>
      </trkpt>
      <trkpt lat="44.09823" lon="6.6593">
        <ele>1966.4000244141</ele>
        <time>2021-08-21T14:18:25.000Z</time>
      </trkpt>
      <trkpt lat="44.09817" lon="6.65928">
        <ele>1967.5999755859</ele>
        <time>2021-08-21T14:18:32.000Z</time>
      </trkpt>
      <trkpt lat="44.09815" lon="6.65927">
        <ele>1968</ele>
        <time>2021-08-21T14:18:35.000Z</time>
      </trkpt>
      <trkpt lat="44.09812" lon="6.65925">
        <ele>1968.5999755859</ele>
        <time>2021-08-21T14:18:39.000Z</time>
      </trkpt>
      <trkpt lat="44.09809" lon="6.65923">
        <ele>1969.1999511719</ele>
        <time>2021-08-21T14:18:44.000Z</time>
      </trkpt>
      <trkpt lat="44.09807" lon="6.65922">
        <ele>1969.5999755859</ele>
        <time>2021-08-21T14:18:47.000Z</time>
      </trkpt>
      <trkpt lat="44.09803" lon="6.65921">
        <ele>1970.4000244141</ele>
        <time>2021-08-21T14:18:52.000Z</time>
      </trkpt>
      <trkpt lat="44.09802" lon="6.65921">
        <ele>1970.8000488281</ele>
        <time>2021-08-21T14:18:55.000Z</time>
      </trkpt>
      <trkpt lat="44.098" lon="6.65923">
        <ele>1971.4000244141</ele>
        <time>2021-08-21T14:18:59.000Z</time>
      </trkpt>
      <trkpt lat="44.09798" lon="6.65926">
        <ele>1971.8000488281</ele>
        <time>2021-08-21T14:19:02.000Z</time>
      </trkpt>
      <trkpt lat="44.09796" lon="6.65932">
        <ele>1971.5999755859</ele>
        <time>2021-08-21T14:19:07.000Z</time>
      </trkpt>
      <trkpt lat="44.09794" lon="6.65935">
        <ele>1972.1999511719</ele>
        <time>2021-08-21T14:19:11.000Z</time>
      </trkpt>
      <trkpt lat="44.09792" lon="6.6594">
        <ele>1972.4000244141</ele>
        <time>2021-08-21T14:19:13.000Z</time>
      </trkpt>
      <trkpt lat="44.0979" lon="6.65946">
        <ele>1972.4000244141</ele>
        <time>2021-08-21T14:19:15.000Z</time>
      </trkpt>
      <trkpt lat="44.09783" lon="6.65966">
        <ele>1972.1999511719</ele>
        <time>2021-08-21T14:19:21.000Z</time>
      </trkpt>
      <trkpt lat="44.09769" lon="6.65991">
        <ele>1971.1999511719</ele>
        <time>2021-08-21T14:19:29.000Z</time>
      </trkpt>
      <trkpt lat="44.09759" lon="6.66004">
        <ele>1971.8000488281</ele>
        <time>2021-08-21T14:19:36.000Z</time>
      </trkpt>
      <trkpt lat="44.09752" lon="6.6602">
        <ele>1972</ele>
        <time>2021-08-21T14:19:41.000Z</time>
      </trkpt>
      <trkpt lat="44.09747" lon="6.6603">
        <ele>1970.5999755859</ele>
        <time>2021-08-21T14:19:44.000Z</time>
      </trkpt>
      <trkpt lat="44.09744" lon="6.66039">
        <ele>1969.5999755859</ele>
        <time>2021-08-21T14:19:46.000Z</time>
      </trkpt>
      <trkpt lat="44.09743" lon="6.66042">
        <ele>1968.4000244141</ele>
        <time>2021-08-21T14:19:49.000Z</time>
      </trkpt>
      <trkpt lat="44.09739" lon="6.66041">
        <ele>1967.5999755859</ele>
        <time>2021-08-21T14:19:54.000Z</time>
      </trkpt>
      <trkpt lat="44.09733" lon="6.66036">
        <ele>1968</ele>
        <time>2021-08-21T14:20:01.000Z</time>
      </trkpt>
      <trkpt lat="44.09727" lon="6.66032">
        <ele>1969.4000244141</ele>
        <time>2021-08-21T14:20:09.000Z</time>
      </trkpt>
      <trkpt lat="44.09727" lon="6.66031">
        <ele>1969.5999755859</ele>
        <time>2021-08-21T14:20:10.000Z</time>
      </trkpt>
      <trkpt lat="44.09722" lon="6.66027">
        <ele>1970.5999755859</ele>
        <time>2021-08-21T14:20:16.000Z</time>
      </trkpt>
      <trkpt lat="44.09719" lon="6.66026">
        <ele>1971.1999511719</ele>
        <time>2021-08-21T14:20:19.000Z</time>
      </trkpt>
      <trkpt lat="44.09718" lon="6.66024">
        <ele>1971.8000488281</ele>
        <time>2021-08-21T14:20:21.000Z</time>
      </trkpt>
      <trkpt lat="44.09712" lon="6.6602">
        <ele>1972.5999755859</ele>
        <time>2021-08-21T14:20:28.000Z</time>
      </trkpt>
      <trkpt lat="44.09711" lon="6.66019">
        <ele>1972.8000488281</ele>
        <time>2021-08-21T14:20:30.000Z</time>
      </trkpt>
      <trkpt lat="44.09707" lon="6.66015">
        <ele>1973.8000488281</ele>
        <time>2021-08-21T14:20:36.000Z</time>
      </trkpt>
      <trkpt lat="44.09707" lon="6.66014">
        <ele>1973.8000488281</ele>
        <time>2021-08-21T14:20:37.000Z</time>
      </trkpt>
      <trkpt lat="44.09702" lon="6.66008">
        <ele>1974.5999755859</ele>
        <time>2021-08-21T14:20:45.000Z</time>
      </trkpt>
      <trkpt lat="44.09701" lon="6.66007">
        <ele>1975</ele>
        <time>2021-08-21T14:20:47.000Z</time>
      </trkpt>
      <trkpt lat="44.09698" lon="6.66003">
        <ele>1976</ele>
        <time>2021-08-21T14:20:53.000Z</time>
      </trkpt>
      <trkpt lat="44.09698" lon="6.66001">
        <ele>1976.4000244141</ele>
        <time>2021-08-21T14:20:55.000Z</time>
      </trkpt>
      <trkpt lat="44.09696" lon="6.65999">
        <ele>1977</ele>
        <time>2021-08-21T14:21:00.000Z</time>
      </trkpt>
      <trkpt lat="44.09694" lon="6.65996">
        <ele>1977.1999511719</ele>
        <time>2021-08-21T14:21:03.000Z</time>
      </trkpt>
      <trkpt lat="44.09691" lon="6.65992">
        <ele>1978.1999511719</ele>
        <time>2021-08-21T14:21:09.000Z</time>
      </trkpt>
      <trkpt lat="44.09689" lon="6.65988">
        <ele>1979</ele>
        <time>2021-08-21T14:21:14.000Z</time>
      </trkpt>
      <trkpt lat="44.09687" lon="6.65985">
        <ele>1979.1999511719</ele>
        <time>2021-08-21T14:21:17.000Z</time>
      </trkpt>
      <trkpt lat="44.09684" lon="6.65979">
        <ele>1980</ele>
        <time>2021-08-21T14:21:24.000Z</time>
      </trkpt>
      <trkpt lat="44.09683" lon="6.65976">
        <ele>1980.4000244141</ele>
        <time>2021-08-21T14:21:27.000Z</time>
      </trkpt>
      <trkpt lat="44.0968" lon="6.65972">
        <ele>1981.1999511719</ele>
        <time>2021-08-21T14:21:33.000Z</time>
      </trkpt>
      <trkpt lat="44.0968" lon="6.65971">
        <ele>1981.4000244141</ele>
        <time>2021-08-21T14:21:34.000Z</time>
      </trkpt>
      <trkpt lat="44.09676" lon="6.65966">
        <ele>1982.4000244141</ele>
        <time>2021-08-21T14:21:42.000Z</time>
      </trkpt>
      <trkpt lat="44.09676" lon="6.65965">
        <ele>1982.5999755859</ele>
        <time>2021-08-21T14:21:43.000Z</time>
      </trkpt>
      <trkpt lat="44.09673" lon="6.65961">
        <ele>1983.5999755859</ele>
        <time>2021-08-21T14:21:49.000Z</time>
      </trkpt>
      <trkpt lat="44.09671" lon="6.65957">
        <ele>1984.4000244141</ele>
        <time>2021-08-21T14:21:54.000Z</time>
      </trkpt>
      <trkpt lat="44.09671" lon="6.65956">
        <ele>1984.5999755859</ele>
        <time>2021-08-21T14:21:55.000Z</time>
      </trkpt>
      <trkpt lat="44.09668" lon="6.6595">
        <ele>1985.8000488281</ele>
        <time>2021-08-21T14:22:03.000Z</time>
      </trkpt>
      <trkpt lat="44.09666" lon="6.65945">
        <ele>1987</ele>
        <time>2021-08-21T14:22:09.000Z</time>
      </trkpt>
      <trkpt lat="44.09665" lon="6.65943">
        <ele>1987.5999755859</ele>
        <time>2021-08-21T14:22:13.000Z</time>
      </trkpt>
      <trkpt lat="44.09664" lon="6.6594">
        <ele>1988</ele>
        <time>2021-08-21T14:22:16.000Z</time>
      </trkpt>
      <trkpt lat="44.09661" lon="6.65936">
        <ele>1988.8000488281</ele>
        <time>2021-08-21T14:22:22.000Z</time>
      </trkpt>
      <trkpt lat="44.0966" lon="6.65935">
        <ele>1989.1999511719</ele>
        <time>2021-08-21T14:22:24.000Z</time>
      </trkpt>
      <trkpt lat="44.09657" lon="6.6593">
        <ele>1990.1999511719</ele>
        <time>2021-08-21T14:22:31.000Z</time>
      </trkpt>
      <trkpt lat="44.09657" lon="6.65929">
        <ele>1990.4000244141</ele>
        <time>2021-08-21T14:22:32.000Z</time>
      </trkpt>
      <trkpt lat="44.09654" lon="6.65925">
        <ele>1991.4000244141</ele>
        <time>2021-08-21T14:22:39.000Z</time>
      </trkpt>
      <trkpt lat="44.09653" lon="6.65924">
        <ele>1991.8000488281</ele>
        <time>2021-08-21T14:22:41.000Z</time>
      </trkpt>
      <trkpt lat="44.09652" lon="6.65921">
        <ele>1992.4000244141</ele>
        <time>2021-08-21T14:22:44.000Z</time>
      </trkpt>
      <trkpt lat="44.09649" lon="6.65915">
        <ele>1993.4000244141</ele>
        <time>2021-08-21T14:22:51.000Z</time>
      </trkpt>
      <trkpt lat="44.09648" lon="6.65914">
        <ele>1993.4000244141</ele>
        <time>2021-08-21T14:22:53.000Z</time>
      </trkpt>
      <trkpt lat="44.09645" lon="6.65905">
        <ele>1994.5999755859</ele>
        <time>2021-08-21T14:23:01.000Z</time>
      </trkpt>
      <trkpt lat="44.09643" lon="6.65892">
        <ele>1995</ele>
        <time>2021-08-21T14:23:10.000Z</time>
      </trkpt>
      <trkpt lat="44.0964" lon="6.65883">
        <ele>1995.5999755859</ele>
        <time>2021-08-21T14:23:19.000Z</time>
      </trkpt>
      <trkpt lat="44.09636" lon="6.65878">
        <ele>1996.4000244141</ele>
        <time>2021-08-21T14:23:27.000Z</time>
      </trkpt>
      <trkpt lat="44.09634" lon="6.65877">
        <ele>1996.8000488281</ele>
        <time>2021-08-21T14:23:30.000Z</time>
      </trkpt>
      <trkpt lat="44.09632" lon="6.65874">
        <ele>1997.4000244141</ele>
        <time>2021-08-21T14:23:34.000Z</time>
      </trkpt>
      <trkpt lat="44.09632" lon="6.65872">
        <ele>1997.8000488281</ele>
        <time>2021-08-21T14:23:36.000Z</time>
      </trkpt>
      <trkpt lat="44.09629" lon="6.65868">
        <ele>1998.4000244141</ele>
        <time>2021-08-21T14:23:41.000Z</time>
      </trkpt>
      <trkpt lat="44.09628" lon="6.65865">
        <ele>1999</ele>
        <time>2021-08-21T14:23:45.000Z</time>
      </trkpt>
      <trkpt lat="44.09626" lon="6.65862">
        <ele>1999.4000244141</ele>
        <time>2021-08-21T14:23:49.000Z</time>
      </trkpt>
      <trkpt lat="44.09624" lon="6.65861">
        <ele>2000</ele>
        <time>2021-08-21T14:23:53.000Z</time>
      </trkpt>
      <trkpt lat="44.09622" lon="6.65859">
        <ele>2000.4000244141</ele>
        <time>2021-08-21T14:23:56.000Z</time>
      </trkpt>
      <trkpt lat="44.09622" lon="6.65854">
        <ele>2001</ele>
        <time>2021-08-21T14:24:03.000Z</time>
      </trkpt>
      <trkpt lat="44.0962" lon="6.6585">
        <ele>2002</ele>
        <time>2021-08-21T14:24:08.000Z</time>
      </trkpt>
      <trkpt lat="44.09619" lon="6.65849">
        <ele>2002.1999511719</ele>
        <time>2021-08-21T14:24:10.000Z</time>
      </trkpt>
      <trkpt lat="44.09616" lon="6.65844">
        <ele>2003.1999511719</ele>
        <time>2021-08-21T14:24:16.000Z</time>
      </trkpt>
      <trkpt lat="44.09616" lon="6.65842">
        <ele>2003.1999511719</ele>
        <time>2021-08-21T14:24:18.000Z</time>
      </trkpt>
      <trkpt lat="44.09613" lon="6.65837">
        <ele>2004.4000244141</ele>
        <time>2021-08-21T14:24:25.000Z</time>
      </trkpt>
      <trkpt lat="44.09613" lon="6.65836">
        <ele>2004.4000244141</ele>
        <time>2021-08-21T14:24:26.000Z</time>
      </trkpt>
      <trkpt lat="44.09611" lon="6.65831">
        <ele>2005.4000244141</ele>
        <time>2021-08-21T14:24:32.000Z</time>
      </trkpt>
      <trkpt lat="44.0961" lon="6.65829">
        <ele>2006</ele>
        <time>2021-08-21T14:24:35.000Z</time>
      </trkpt>
      <trkpt lat="44.09607" lon="6.65824">
        <ele>2006.4000244141</ele>
        <time>2021-08-21T14:24:41.000Z</time>
      </trkpt>
      <trkpt lat="44.09607" lon="6.65822">
        <ele>2006.8000488281</ele>
        <time>2021-08-21T14:24:43.000Z</time>
      </trkpt>
      <trkpt lat="44.09605" lon="6.65818">
        <ele>2007.5999755859</ele>
        <time>2021-08-21T14:24:49.000Z</time>
      </trkpt>
      <trkpt lat="44.09604" lon="6.65815">
        <ele>2008.4000244141</ele>
        <time>2021-08-21T14:24:53.000Z</time>
      </trkpt>
      <trkpt lat="44.09603" lon="6.65813">
        <ele>2008.8000488281</ele>
        <time>2021-08-21T14:24:56.000Z</time>
      </trkpt>
      <trkpt lat="44.09602" lon="6.65809">
        <ele>2009.8000488281</ele>
        <time>2021-08-21T14:25:00.000Z</time>
      </trkpt>
      <trkpt lat="44.09601" lon="6.65806">
        <ele>2010.4000244141</ele>
        <time>2021-08-21T14:25:03.000Z</time>
      </trkpt>
      <trkpt lat="44.09601" lon="6.65803">
        <ele>2010.8000488281</ele>
        <time>2021-08-21T14:25:06.000Z</time>
      </trkpt>
      <trkpt lat="44.09598" lon="6.65796">
        <ele>2011.8000488281</ele>
        <time>2021-08-21T14:25:14.000Z</time>
      </trkpt>
      <trkpt lat="44.09598" lon="6.65796">
        <ele>2012</ele>
        <time>2021-08-21T14:25:15.000Z</time>
      </trkpt>
      <trkpt lat="44.09597" lon="6.65792">
        <ele>2013.1999511719</ele>
        <time>2021-08-21T14:25:19.000Z</time>
      </trkpt>
      <trkpt lat="44.09597" lon="6.65788">
        <ele>2014</ele>
        <time>2021-08-21T14:25:23.000Z</time>
      </trkpt>
      <trkpt lat="44.09596" lon="6.65784">
        <ele>2014.4000244141</ele>
        <time>2021-08-21T14:25:26.000Z</time>
      </trkpt>
      <trkpt lat="44.09594" lon="6.65779">
        <ele>2014.5999755859</ele>
        <time>2021-08-21T14:25:30.000Z</time>
      </trkpt>
      <trkpt lat="44.09592" lon="6.65775">
        <ele>2015.4000244141</ele>
        <time>2021-08-21T14:25:34.000Z</time>
      </trkpt>
      <trkpt lat="44.09588" lon="6.65769">
        <ele>2016.4000244141</ele>
        <time>2021-08-21T14:25:39.000Z</time>
      </trkpt>
      <trkpt lat="44.09587" lon="6.65768">
        <ele>2016.4000244141</ele>
        <time>2021-08-21T14:25:40.000Z</time>
      </trkpt>
      <trkpt lat="44.09582" lon="6.65763">
        <ele>2017.4000244141</ele>
        <time>2021-08-21T14:25:47.000Z</time>
      </trkpt>
      <trkpt lat="44.09581" lon="6.65763">
        <ele>2017.4000244141</ele>
        <time>2021-08-21T14:25:48.000Z</time>
      </trkpt>
      <trkpt lat="44.09578" lon="6.65754">
        <ele>2018.5999755859</ele>
        <time>2021-08-21T14:25:55.000Z</time>
      </trkpt>
      <trkpt lat="44.09577" lon="6.65751">
        <ele>2019</ele>
        <time>2021-08-21T14:25:57.000Z</time>
      </trkpt>
      <trkpt lat="44.09576" lon="6.65745">
        <ele>2019.5999755859</ele>
        <time>2021-08-21T14:26:02.000Z</time>
      </trkpt>
      <trkpt lat="44.09576" lon="6.6574">
        <ele>2020.1999511719</ele>
        <time>2021-08-21T14:26:06.000Z</time>
      </trkpt>
      <trkpt lat="44.09575" lon="6.65736">
        <ele>2020.8000488281</ele>
        <time>2021-08-21T14:26:09.000Z</time>
      </trkpt>
      <trkpt lat="44.09574" lon="6.65731">
        <ele>2021.8000488281</ele>
        <time>2021-08-21T14:26:13.000Z</time>
      </trkpt>
      <trkpt lat="44.09574" lon="6.65729">
        <ele>2022.1999511719</ele>
        <time>2021-08-21T14:26:15.000Z</time>
      </trkpt>
      <trkpt lat="44.09573" lon="6.65727">
        <ele>2022.8000488281</ele>
        <time>2021-08-21T14:26:17.000Z</time>
      </trkpt>
      <trkpt lat="44.09571" lon="6.65721">
        <ele>2023.8000488281</ele>
        <time>2021-08-21T14:26:22.000Z</time>
      </trkpt>
      <trkpt lat="44.09567" lon="6.65714">
        <ele>2024.4000244141</ele>
        <time>2021-08-21T14:26:28.000Z</time>
      </trkpt>
      <trkpt lat="44.09566" lon="6.65712">
        <ele>2024.8000488281</ele>
        <time>2021-08-21T14:26:34.000Z</time>
      </trkpt>
      <trkpt lat="44.09564" lon="6.6571">
        <ele>2025</ele>
        <time>2021-08-21T14:26:36.000Z</time>
      </trkpt>
      <trkpt lat="44.09559" lon="6.65703">
        <ele>2025.1999511719</ele>
        <time>2021-08-21T14:26:39.000Z</time>
      </trkpt>
      <trkpt lat="44.09553" lon="6.65684">
        <ele>2025.1999511719</ele>
        <time>2021-08-21T14:26:42.000Z</time>
      </trkpt>
      <trkpt lat="44.09546" lon="6.65668">
        <ele>2024.5999755859</ele>
        <time>2021-08-21T14:26:44.000Z</time>
      </trkpt>
      <trkpt lat="44.09537" lon="6.65655">
        <ele>2023.8000488281</ele>
        <time>2021-08-21T14:26:46.000Z</time>
      </trkpt>
      <trkpt lat="44.09528" lon="6.65644">
        <ele>2022.5999755859</ele>
        <time>2021-08-21T14:26:48.000Z</time>
      </trkpt>
      <trkpt lat="44.09517" lon="6.65631">
        <ele>2021.5999755859</ele>
        <time>2021-08-21T14:26:51.000Z</time>
      </trkpt>
      <trkpt lat="44.09496" lon="6.65617">
        <ele>2020.8000488281</ele>
        <time>2021-08-21T14:26:57.000Z</time>
      </trkpt>
      <trkpt lat="44.09477" lon="6.65609">
        <ele>2020.8000488281</ele>
        <time>2021-08-21T14:27:02.000Z</time>
      </trkpt>
      <trkpt lat="44.09463" lon="6.65601">
        <ele>2021.5999755859</ele>
        <time>2021-08-21T14:27:08.000Z</time>
      </trkpt>
      <trkpt lat="44.09449" lon="6.65598">
        <ele>2022.5999755859</ele>
        <time>2021-08-21T14:27:14.000Z</time>
      </trkpt>
      <trkpt lat="44.09444" lon="6.65596">
        <ele>2022.8000488281</ele>
        <time>2021-08-21T14:27:16.000Z</time>
      </trkpt>
      <trkpt lat="44.09429" lon="6.65589">
        <ele>2023.1999511719</ele>
        <time>2021-08-21T14:27:22.000Z</time>
      </trkpt>
      <trkpt lat="44.09425" lon="6.65587">
        <ele>2023.5999755859</ele>
        <time>2021-08-21T14:27:24.000Z</time>
      </trkpt>
      <trkpt lat="44.09416" lon="6.65582">
        <ele>2024.4000244141</ele>
        <time>2021-08-21T14:27:30.000Z</time>
      </trkpt>
      <trkpt lat="44.09412" lon="6.65579">
        <ele>2024.5999755859</ele>
        <time>2021-08-21T14:27:33.000Z</time>
      </trkpt>
      <trkpt lat="44.09405" lon="6.65576">
        <ele>2025.4000244141</ele>
        <time>2021-08-21T14:27:38.000Z</time>
      </trkpt>
      <trkpt lat="44.09402" lon="6.65575">
        <ele>2025.8000488281</ele>
        <time>2021-08-21T14:27:40.000Z</time>
      </trkpt>
      <trkpt lat="44.09395" lon="6.65572">
        <ele>2026.1999511719</ele>
        <time>2021-08-21T14:27:44.000Z</time>
      </trkpt>
      <trkpt lat="44.09384" lon="6.65566">
        <ele>2026.5999755859</ele>
        <time>2021-08-21T14:27:51.000Z</time>
      </trkpt>
      <trkpt lat="44.09383" lon="6.65566">
        <ele>2026.8000488281</ele>
        <time>2021-08-21T14:27:52.000Z</time>
      </trkpt>
      <trkpt lat="44.09371" lon="6.65562">
        <ele>2027.8000488281</ele>
        <time>2021-08-21T14:27:59.000Z</time>
      </trkpt>
      <trkpt lat="44.09369" lon="6.65561">
        <ele>2027.8000488281</ele>
        <time>2021-08-21T14:28:00.000Z</time>
      </trkpt>
      <trkpt lat="44.09358" lon="6.65558">
        <ele>2028.1999511719</ele>
        <time>2021-08-21T14:28:06.000Z</time>
      </trkpt>
      <trkpt lat="44.09346" lon="6.65554">
        <ele>2028.4000244141</ele>
        <time>2021-08-21T14:28:13.000Z</time>
      </trkpt>
      <trkpt lat="44.09334" lon="6.65548">
        <ele>2028.8000488281</ele>
        <time>2021-08-21T14:28:20.000Z</time>
      </trkpt>
      <trkpt lat="44.09332" lon="6.65547">
        <ele>2029</ele>
        <time>2021-08-21T14:28:21.000Z</time>
      </trkpt>
      <trkpt lat="44.09324" lon="6.65541">
        <ele>2029.1999511719</ele>
        <time>2021-08-21T14:28:26.000Z</time>
      </trkpt>
      <trkpt lat="44.09315" lon="6.65534">
        <ele>2030</ele>
        <time>2021-08-21T14:28:32.000Z</time>
      </trkpt>
      <trkpt lat="44.09312" lon="6.65531">
        <ele>2030.5999755859</ele>
        <time>2021-08-21T14:28:34.000Z</time>
      </trkpt>
      <trkpt lat="44.09307" lon="6.65528">
        <ele>2031.1999511719</ele>
        <time>2021-08-21T14:28:37.000Z</time>
      </trkpt>
      <trkpt lat="44.093" lon="6.65522">
        <ele>2031.5999755859</ele>
        <time>2021-08-21T14:28:42.000Z</time>
      </trkpt>
      <trkpt lat="44.09287" lon="6.65515">
        <ele>2032.1999511719</ele>
        <time>2021-08-21T14:28:49.000Z</time>
      </trkpt>
      <trkpt lat="44.09277" lon="6.65508">
        <ele>2033</ele>
        <time>2021-08-21T14:28:55.000Z</time>
      </trkpt>
      <trkpt lat="44.09272" lon="6.65506">
        <ele>2033.1999511719</ele>
        <time>2021-08-21T14:28:58.000Z</time>
      </trkpt>
      <trkpt lat="44.09261" lon="6.65504">
        <ele>2033.5999755859</ele>
        <time>2021-08-21T14:29:03.000Z</time>
      </trkpt>
      <trkpt lat="44.09242" lon="6.65498">
        <ele>2033.5999755859</ele>
        <time>2021-08-21T14:29:11.000Z</time>
      </trkpt>
      <trkpt lat="44.0923" lon="6.65488">
        <ele>2034</ele>
        <time>2021-08-21T14:29:18.000Z</time>
      </trkpt>
      <trkpt lat="44.09228" lon="6.65486">
        <ele>2034.4000244141</ele>
        <time>2021-08-21T14:29:19.000Z</time>
      </trkpt>
      <trkpt lat="44.09215" lon="6.65477">
        <ele>2035.4000244141</ele>
        <time>2021-08-21T14:29:25.000Z</time>
      </trkpt>
      <trkpt lat="44.09212" lon="6.65475">
        <ele>2035.5999755859</ele>
        <time>2021-08-21T14:29:26.000Z</time>
      </trkpt>
      <trkpt lat="44.09184" lon="6.65458">
        <ele>2036.1999511719</ele>
        <time>2021-08-21T14:29:37.000Z</time>
      </trkpt>
      <trkpt lat="44.09162" lon="6.65442">
        <ele>2036.1999511719</ele>
        <time>2021-08-21T14:29:46.000Z</time>
      </trkpt>
      <trkpt lat="44.09143" lon="6.65424">
        <ele>2036.4000244141</ele>
        <time>2021-08-21T14:29:54.000Z</time>
      </trkpt>
      <trkpt lat="44.09136" lon="6.65407">
        <ele>2036.1999511719</ele>
        <time>2021-08-21T14:30:00.000Z</time>
      </trkpt>
      <trkpt lat="44.09134" lon="6.65398">
        <ele>2036.5999755859</ele>
        <time>2021-08-21T14:30:03.000Z</time>
      </trkpt>
      <trkpt lat="44.09134" lon="6.65386">
        <ele>2037.1999511719</ele>
        <time>2021-08-21T14:30:08.000Z</time>
      </trkpt>
      <trkpt lat="44.09136" lon="6.65377">
        <ele>2037.5999755859</ele>
        <time>2021-08-21T14:30:12.000Z</time>
      </trkpt>
      <trkpt lat="44.09136" lon="6.65367">
        <ele>2038</ele>
        <time>2021-08-21T14:30:16.000Z</time>
      </trkpt>
      <trkpt lat="44.09138" lon="6.65357">
        <ele>2038.5999755859</ele>
        <time>2021-08-21T14:30:20.000Z</time>
      </trkpt>
      <trkpt lat="44.09137" lon="6.65343">
        <ele>2039</ele>
        <time>2021-08-21T14:30:25.000Z</time>
      </trkpt>
      <trkpt lat="44.09138" lon="6.65314">
        <ele>2039.1999511719</ele>
        <time>2021-08-21T14:30:34.000Z</time>
      </trkpt>
      <trkpt lat="44.09137" lon="6.65287">
        <ele>2039.4000244141</ele>
        <time>2021-08-21T14:30:42.000Z</time>
      </trkpt>
      <trkpt lat="44.09137" lon="6.65279">
        <ele>2039.5999755859</ele>
        <time>2021-08-21T14:30:44.000Z</time>
      </trkpt>
      <trkpt lat="44.09136" lon="6.65272">
        <ele>2039.4000244141</ele>
        <time>2021-08-21T14:30:47.000Z</time>
      </trkpt>
      <trkpt lat="44.09138" lon="6.65254">
        <ele>2040</ele>
        <time>2021-08-21T14:30:53.000Z</time>
      </trkpt>
      <trkpt lat="44.09139" lon="6.65229">
        <ele>2040.4000244141</ele>
        <time>2021-08-21T14:31:00.000Z</time>
      </trkpt>
      <trkpt lat="44.09145" lon="6.65216">
        <ele>2040.1999511719</ele>
        <time>2021-08-21T14:31:04.000Z</time>
      </trkpt>
      <trkpt lat="44.09148" lon="6.65207">
        <ele>2040.1999511719</ele>
        <time>2021-08-21T14:31:06.000Z</time>
      </trkpt>
      <trkpt lat="44.09148" lon="6.65202">
        <ele>2040</ele>
        <time>2021-08-21T14:31:07.000Z</time>
      </trkpt>
      <trkpt lat="44.09148" lon="6.65189">
        <ele>2040</ele>
        <time>2021-08-21T14:31:11.000Z</time>
      </trkpt>
      <trkpt lat="44.0915" lon="6.6518">
        <ele>2040</ele>
        <time>2021-08-21T14:31:13.000Z</time>
      </trkpt>
      <trkpt lat="44.09154" lon="6.65164">
        <ele>2040.1999511719</ele>
        <time>2021-08-21T14:31:17.000Z</time>
      </trkpt>
      <trkpt lat="44.09161" lon="6.65135">
        <ele>2040</ele>
        <time>2021-08-21T14:31:24.000Z</time>
      </trkpt>
      <trkpt lat="44.09168" lon="6.65112">
        <ele>2040.1999511719</ele>
        <time>2021-08-21T14:31:30.000Z</time>
      </trkpt>
      <trkpt lat="44.09178" lon="6.65091">
        <ele>2040.1999511719</ele>
        <time>2021-08-21T14:31:36.000Z</time>
      </trkpt>
      <trkpt lat="44.09184" lon="6.65077">
        <ele>2040.1999511719</ele>
        <time>2021-08-21T14:31:41.000Z</time>
      </trkpt>
      <trkpt lat="44.09183" lon="6.65074">
        <ele>2040.1999511719</ele>
        <time>2021-08-21T14:31:42.000Z</time>
      </trkpt>
      <trkpt lat="44.09176" lon="6.65063">
        <ele>2040.4000244141</ele>
        <time>2021-08-21T14:31:46.000Z</time>
      </trkpt>
      <trkpt lat="44.09175" lon="6.65058">
        <ele>2040.5999755859</ele>
        <time>2021-08-21T14:31:48.000Z</time>
      </trkpt>
      <trkpt lat="44.09173" lon="6.65051">
        <ele>2041.4000244141</ele>
        <time>2021-08-21T14:31:51.000Z</time>
      </trkpt>
      <trkpt lat="44.09171" lon="6.65049">
        <ele>2041.5999755859</ele>
        <time>2021-08-21T14:31:52.000Z</time>
      </trkpt>
      <trkpt lat="44.09168" lon="6.65041">
        <ele>2042.4000244141</ele>
        <time>2021-08-21T14:31:56.000Z</time>
      </trkpt>
      <trkpt lat="44.09164" lon="6.65035">
        <ele>2042.8000488281</ele>
        <time>2021-08-21T14:31:59.000Z</time>
      </trkpt>
      <trkpt lat="44.09161" lon="6.6503">
        <ele>2043</ele>
        <time>2021-08-21T14:32:02.000Z</time>
      </trkpt>
      <trkpt lat="44.09152" lon="6.65011">
        <ele>2043.8000488281</ele>
        <time>2021-08-21T14:32:11.000Z</time>
      </trkpt>
      <trkpt lat="44.09145" lon="6.64997">
        <ele>2044.8000488281</ele>
        <time>2021-08-21T14:32:18.000Z</time>
      </trkpt>
      <trkpt lat="44.09144" lon="6.64995">
        <ele>2045</ele>
        <time>2021-08-21T14:32:19.000Z</time>
      </trkpt>
      <trkpt lat="44.0914" lon="6.64984">
        <ele>2046.1999511719</ele>
        <time>2021-08-21T14:32:25.000Z</time>
      </trkpt>
      <trkpt lat="44.09139" lon="6.64982">
        <ele>2046.4000244141</ele>
        <time>2021-08-21T14:32:26.000Z</time>
      </trkpt>
      <trkpt lat="44.09137" lon="6.64972">
        <ele>2047.1999511719</ele>
        <time>2021-08-21T14:32:32.000Z</time>
      </trkpt>
      <trkpt lat="44.09136" lon="6.6497">
        <ele>2047.4000244141</ele>
        <time>2021-08-21T14:32:33.000Z</time>
      </trkpt>
      <trkpt lat="44.09134" lon="6.64957">
        <ele>2048.1999511719</ele>
        <time>2021-08-21T14:32:40.000Z</time>
      </trkpt>
      <trkpt lat="44.09134" lon="6.64955">
        <ele>2048.6000976562</ele>
        <time>2021-08-21T14:32:41.000Z</time>
      </trkpt>
      <trkpt lat="44.09128" lon="6.64947">
        <ele>2049.3999023438</ele>
        <time>2021-08-21T14:32:46.000Z</time>
      </trkpt>
      <trkpt lat="44.09127" lon="6.64946">
        <ele>2049.6000976562</ele>
        <time>2021-08-21T14:32:47.000Z</time>
      </trkpt>
      <trkpt lat="44.0912" lon="6.64936">
        <ele>2050.1999511719</ele>
        <time>2021-08-21T14:32:53.000Z</time>
      </trkpt>
      <trkpt lat="44.09117" lon="6.64931">
        <ele>2050.6000976562</ele>
        <time>2021-08-21T14:32:56.000Z</time>
      </trkpt>
      <trkpt lat="44.09112" lon="6.64924">
        <ele>2051.6000976562</ele>
        <time>2021-08-21T14:33:01.000Z</time>
      </trkpt>
      <trkpt lat="44.09111" lon="6.64922">
        <ele>2051.6000976562</ele>
        <time>2021-08-21T14:33:02.000Z</time>
      </trkpt>
      <trkpt lat="44.09104" lon="6.64913">
        <ele>2052.1999511719</ele>
        <time>2021-08-21T14:33:08.000Z</time>
      </trkpt>
      <trkpt lat="44.09101" lon="6.64909">
        <ele>2052.8000488281</ele>
        <time>2021-08-21T14:33:12.000Z</time>
      </trkpt>
      <trkpt lat="44.09097" lon="6.64905">
        <ele>2053.1999511719</ele>
        <time>2021-08-21T14:33:16.000Z</time>
      </trkpt>
      <trkpt lat="44.09091" lon="6.64899">
        <ele>2053.8000488281</ele>
        <time>2021-08-21T14:33:20.000Z</time>
      </trkpt>
      <trkpt lat="44.09088" lon="6.64896">
        <ele>2053.8000488281</ele>
        <time>2021-08-21T14:33:23.000Z</time>
      </trkpt>
      <trkpt lat="44.09078" lon="6.64888">
        <ele>2054.6000976562</ele>
        <time>2021-08-21T14:33:30.000Z</time>
      </trkpt>
      <trkpt lat="44.09076" lon="6.64885">
        <ele>2054.8000488281</ele>
        <time>2021-08-21T14:33:32.000Z</time>
      </trkpt>
      <trkpt lat="44.09067" lon="6.64878">
        <ele>2056</ele>
        <time>2021-08-21T14:33:38.000Z</time>
      </trkpt>
      <trkpt lat="44.09064" lon="6.64876">
        <ele>2056.1999511719</ele>
        <time>2021-08-21T14:33:40.000Z</time>
      </trkpt>
      <trkpt lat="44.09054" lon="6.64866">
        <ele>2057</ele>
        <time>2021-08-21T14:33:48.000Z</time>
      </trkpt>
      <trkpt lat="44.09041" lon="6.64857">
        <ele>2058</ele>
        <time>2021-08-21T14:33:57.000Z</time>
      </trkpt>
      <trkpt lat="44.0904" lon="6.64856">
        <ele>2058</ele>
        <time>2021-08-21T14:33:58.000Z</time>
      </trkpt>
      <trkpt lat="44.09028" lon="6.64844">
        <ele>2058.8000488281</ele>
        <time>2021-08-21T14:34:07.000Z</time>
      </trkpt>
      <trkpt lat="44.09027" lon="6.64843">
        <ele>2059</ele>
        <time>2021-08-21T14:34:08.000Z</time>
      </trkpt>
      <trkpt lat="44.09017" lon="6.64829">
        <ele>2060</ele>
        <time>2021-08-21T14:34:17.000Z</time>
      </trkpt>
      <trkpt lat="44.09017" lon="6.64829">
        <ele>2060.1999511719</ele>
        <time>2021-08-21T14:34:19.000Z</time>
      </trkpt>
      <trkpt lat="44.09017" lon="6.64828">
        <ele>2060</ele>
        <time>2021-08-21T14:34:26.000Z</time>
      </trkpt>
      <trkpt lat="44.09016" lon="6.64828">
        <ele>2060</ele>
        <time>2021-08-21T14:34:27.000Z</time>
      </trkpt>
      <trkpt lat="44.09011" lon="6.64821">
        <ele>2060.3999023438</ele>
        <time>2021-08-21T14:34:31.000Z</time>
      </trkpt>
      <trkpt lat="44.09001" lon="6.64806">
        <ele>2060.8000488281</ele>
        <time>2021-08-21T14:34:38.000Z</time>
      </trkpt>
      <trkpt lat="44.08996" lon="6.64799">
        <ele>2061</ele>
        <time>2021-08-21T14:34:41.000Z</time>
      </trkpt>
      <trkpt lat="44.08987" lon="6.64785">
        <ele>2060.8000488281</ele>
        <time>2021-08-21T14:34:46.000Z</time>
      </trkpt>
      <trkpt lat="44.08976" lon="6.64761">
        <ele>2061.1999511719</ele>
        <time>2021-08-21T14:34:53.000Z</time>
      </trkpt>
      <trkpt lat="44.08961" lon="6.6474">
        <ele>2061</ele>
        <time>2021-08-21T14:34:58.000Z</time>
      </trkpt>
      <trkpt lat="44.08956" lon="6.64729">
        <ele>2061</ele>
        <time>2021-08-21T14:35:00.000Z</time>
      </trkpt>
      <trkpt lat="44.08952" lon="6.64713">
        <ele>2060.3999023438</ele>
        <time>2021-08-21T14:35:03.000Z</time>
      </trkpt>
      <trkpt lat="44.08949" lon="6.64708">
        <ele>2059.8000488281</ele>
        <time>2021-08-21T14:35:04.000Z</time>
      </trkpt>
      <trkpt lat="44.0894" lon="6.64692">
        <ele>2058.6000976562</ele>
        <time>2021-08-21T14:35:07.000Z</time>
      </trkpt>
      <trkpt lat="44.08934" lon="6.6468">
        <ele>2058.1999511719</ele>
        <time>2021-08-21T14:35:09.000Z</time>
      </trkpt>
      <trkpt lat="44.0892" lon="6.64647">
        <ele>2057.6000976562</ele>
        <time>2021-08-21T14:35:14.000Z</time>
      </trkpt>
      <trkpt lat="44.08912" lon="6.64629">
        <ele>2057</ele>
        <time>2021-08-21T14:35:17.000Z</time>
      </trkpt>
      <trkpt lat="44.08909" lon="6.64624">
        <ele>2056.8000488281</ele>
        <time>2021-08-21T14:35:18.000Z</time>
      </trkpt>
      <trkpt lat="44.08905" lon="6.64618">
        <ele>2056.6000976562</ele>
        <time>2021-08-21T14:35:19.000Z</time>
      </trkpt>
      <trkpt lat="44.08881" lon="6.64577">
        <ele>2055.8000488281</ele>
        <time>2021-08-21T14:35:27.000Z</time>
      </trkpt>
      <trkpt lat="44.08868" lon="6.64559">
        <ele>2055.3999023438</ele>
        <time>2021-08-21T14:35:31.000Z</time>
      </trkpt>
      <trkpt lat="44.08854" lon="6.64543">
        <ele>2055.3999023438</ele>
        <time>2021-08-21T14:35:35.000Z</time>
      </trkpt>
      <trkpt lat="44.08846" lon="6.64533">
        <ele>2055.1999511719</ele>
        <time>2021-08-21T14:35:37.000Z</time>
      </trkpt>
      <trkpt lat="44.08836" lon="6.64517">
        <ele>2054.1999511719</ele>
        <time>2021-08-21T14:35:40.000Z</time>
      </trkpt>
      <trkpt lat="44.08832" lon="6.64512">
        <ele>2054</ele>
        <time>2021-08-21T14:35:41.000Z</time>
      </trkpt>
      <trkpt lat="44.08821" lon="6.64493">
        <ele>2053.1999511719</ele>
        <time>2021-08-21T14:35:44.000Z</time>
      </trkpt>
      <trkpt lat="44.08815" lon="6.6448">
        <ele>2052.8000488281</ele>
        <time>2021-08-21T14:35:46.000Z</time>
      </trkpt>
      <trkpt lat="44.08799" lon="6.64459">
        <ele>2052</ele>
        <time>2021-08-21T14:35:50.000Z</time>
      </trkpt>
      <trkpt lat="44.08785" lon="6.6444">
        <ele>2051.1999511719</ele>
        <time>2021-08-21T14:35:53.000Z</time>
      </trkpt>
      <trkpt lat="44.08781" lon="6.64433">
        <ele>2050.6000976562</ele>
        <time>2021-08-21T14:35:54.000Z</time>
      </trkpt>
      <trkpt lat="44.08775" lon="6.64426">
        <ele>2050</ele>
        <time>2021-08-21T14:35:55.000Z</time>
      </trkpt>
      <trkpt lat="44.08771" lon="6.64419">
        <ele>2049.3999023438</ele>
        <time>2021-08-21T14:35:56.000Z</time>
      </trkpt>
      <trkpt lat="44.08762" lon="6.64407">
        <ele>2048.3999023438</ele>
        <time>2021-08-21T14:35:58.000Z</time>
      </trkpt>
      <trkpt lat="44.08753" lon="6.64397">
        <ele>2047.1999511719</ele>
        <time>2021-08-21T14:36:00.000Z</time>
      </trkpt>
      <trkpt lat="44.0875" lon="6.64392">
        <ele>2046.4000244141</ele>
        <time>2021-08-21T14:36:01.000Z</time>
      </trkpt>
      <trkpt lat="44.08747" lon="6.64387">
        <ele>2045.8000488281</ele>
        <time>2021-08-21T14:36:02.000Z</time>
      </trkpt>
      <trkpt lat="44.08739" lon="6.64377">
        <ele>2044.1999511719</ele>
        <time>2021-08-21T14:36:05.000Z</time>
      </trkpt>
      <trkpt lat="44.08737" lon="6.64375">
        <ele>2043.8000488281</ele>
        <time>2021-08-21T14:36:06.000Z</time>
      </trkpt>
      <trkpt lat="44.08735" lon="6.64373">
        <ele>2043</ele>
        <time>2021-08-21T14:36:08.000Z</time>
      </trkpt>
      <trkpt lat="44.08736" lon="6.64373">
        <ele>2042.4000244141</ele>
        <time>2021-08-21T14:36:10.000Z</time>
      </trkpt>
      <trkpt lat="44.08736" lon="6.64371">
        <ele>2041.8000488281</ele>
        <time>2021-08-21T14:36:13.000Z</time>
      </trkpt>
      <trkpt lat="44.08736" lon="6.64372">
        <ele>2041.4000244141</ele>
        <time>2021-08-21T14:36:15.000Z</time>
      </trkpt>
      <trkpt lat="44.08736" lon="6.64372">
        <ele>2040.8000488281</ele>
        <time>2021-08-21T14:36:20.000Z</time>
      </trkpt>
      <trkpt lat="44.08736" lon="6.64371">
        <ele>2040.5999755859</ele>
        <time>2021-08-21T14:36:26.000Z</time>
      </trkpt>
      <trkpt lat="44.08739" lon="6.64373">
        <ele>2041.1999511719</ele>
        <time>2021-08-21T14:36:33.000Z</time>
      </trkpt>
      <trkpt lat="44.0874" lon="6.64373">
        <ele>2041.8000488281</ele>
        <time>2021-08-21T14:36:37.000Z</time>
      </trkpt>
      <trkpt lat="44.08741" lon="6.64374">
        <ele>2041.8000488281</ele>
        <time>2021-08-21T14:36:40.000Z</time>
      </trkpt>
      <trkpt lat="44.08741" lon="6.64374">
        <ele>2041.8000488281</ele>
        <time>2021-08-21T14:36:48.000Z</time>
      </trkpt>
      <trkpt lat="44.08741" lon="6.64375">
        <ele>2041.5999755859</ele>
        <time>2021-08-21T14:37:10.000Z</time>
      </trkpt>
      <trkpt lat="44.08739" lon="6.64372">
        <ele>2041.4000244141</ele>
        <time>2021-08-21T14:37:18.000Z</time>
      </trkpt>
      <trkpt lat="44.08739" lon="6.6437">
        <ele>2041.1999511719</ele>
        <time>2021-08-21T14:37:24.000Z</time>
      </trkpt>
      <trkpt lat="44.08738" lon="6.64372">
        <ele>2041.1999511719</ele>
        <time>2021-08-21T14:37:35.000Z</time>
      </trkpt>
      <trkpt lat="44.08735" lon="6.64373">
        <ele>2041.1999511719</ele>
        <time>2021-08-21T14:37:41.000Z</time>
      </trkpt>
      <trkpt lat="44.08725" lon="6.64366">
        <ele>2041.1999511719</ele>
        <time>2021-08-21T14:37:45.000Z</time>
      </trkpt>
      <trkpt lat="44.08707" lon="6.64351">
        <ele>2040.8000488281</ele>
        <time>2021-08-21T14:37:49.000Z</time>
      </trkpt>
      <trkpt lat="44.08683" lon="6.6433">
        <ele>2039.4000244141</ele>
        <time>2021-08-21T14:37:53.000Z</time>
      </trkpt>
      <trkpt lat="44.08675" lon="6.64327">
        <ele>2039.1999511719</ele>
        <time>2021-08-21T14:37:54.000Z</time>
      </trkpt>
      <trkpt lat="44.08662" lon="6.64322">
        <ele>2038</ele>
        <time>2021-08-21T14:37:56.000Z</time>
      </trkpt>
      <trkpt lat="44.08651" lon="6.6432">
        <ele>2037</ele>
        <time>2021-08-21T14:37:58.000Z</time>
      </trkpt>
      <trkpt lat="44.08646" lon="6.6432">
        <ele>2036</ele>
        <time>2021-08-21T14:37:59.000Z</time>
      </trkpt>
      <trkpt lat="44.08635" lon="6.64318">
        <ele>2034.5999755859</ele>
        <time>2021-08-21T14:38:01.000Z</time>
      </trkpt>
      <trkpt lat="44.08629" lon="6.64317">
        <ele>2034.4000244141</ele>
        <time>2021-08-21T14:38:02.000Z</time>
      </trkpt>
      <trkpt lat="44.08624" lon="6.64312">
        <ele>2034</ele>
        <time>2021-08-21T14:38:03.000Z</time>
      </trkpt>
      <trkpt lat="44.08619" lon="6.64308">
        <ele>2033.1999511719</ele>
        <time>2021-08-21T14:38:04.000Z</time>
      </trkpt>
      <trkpt lat="44.08615" lon="6.64304">
        <ele>2032.5999755859</ele>
        <time>2021-08-21T14:38:05.000Z</time>
      </trkpt>
      <trkpt lat="44.0861" lon="6.64301">
        <ele>2032</ele>
        <time>2021-08-21T14:38:06.000Z</time>
      </trkpt>
      <trkpt lat="44.08599" lon="6.64297">
        <ele>2031</ele>
        <time>2021-08-21T14:38:08.000Z</time>
      </trkpt>
      <trkpt lat="44.08583" lon="6.64286">
        <ele>2030</ele>
        <time>2021-08-21T14:38:11.000Z</time>
      </trkpt>
      <trkpt lat="44.08579" lon="6.64282">
        <ele>2029.5999755859</ele>
        <time>2021-08-21T14:38:12.000Z</time>
      </trkpt>
      <trkpt lat="44.08576" lon="6.64275">
        <ele>2028.8000488281</ele>
        <time>2021-08-21T14:38:13.000Z</time>
      </trkpt>
      <trkpt lat="44.08572" lon="6.64271">
        <ele>2028.4000244141</ele>
        <time>2021-08-21T14:38:14.000Z</time>
      </trkpt>
      <trkpt lat="44.08567" lon="6.64269">
        <ele>2027.8000488281</ele>
        <time>2021-08-21T14:38:15.000Z</time>
      </trkpt>
      <trkpt lat="44.08562" lon="6.64268">
        <ele>2026.5999755859</ele>
        <time>2021-08-21T14:38:16.000Z</time>
      </trkpt>
      <trkpt lat="44.08557" lon="6.64265">
        <ele>2025.8000488281</ele>
        <time>2021-08-21T14:38:17.000Z</time>
      </trkpt>
      <trkpt lat="44.08553" lon="6.64261">
        <ele>2025</ele>
        <time>2021-08-21T14:38:18.000Z</time>
      </trkpt>
      <trkpt lat="44.08548" lon="6.64255">
        <ele>2024.1999511719</ele>
        <time>2021-08-21T14:38:19.000Z</time>
      </trkpt>
      <trkpt lat="44.08544" lon="6.6425">
        <ele>2023.5999755859</ele>
        <time>2021-08-21T14:38:20.000Z</time>
      </trkpt>
      <trkpt lat="44.0854" lon="6.64245">
        <ele>2022.5999755859</ele>
        <time>2021-08-21T14:38:21.000Z</time>
      </trkpt>
      <trkpt lat="44.08533" lon="6.64242">
        <ele>2022.1999511719</ele>
        <time>2021-08-21T14:38:23.000Z</time>
      </trkpt>
      <trkpt lat="44.08528" lon="6.64241">
        <ele>2020.8000488281</ele>
        <time>2021-08-21T14:38:25.000Z</time>
      </trkpt>
      <trkpt lat="44.08526" lon="6.64237">
        <ele>2020.4000244141</ele>
        <time>2021-08-21T14:38:26.000Z</time>
      </trkpt>
      <trkpt lat="44.08522" lon="6.64231">
        <ele>2019.5999755859</ele>
        <time>2021-08-21T14:38:28.000Z</time>
      </trkpt>
      <trkpt lat="44.08518" lon="6.64221">
        <ele>2019.1999511719</ele>
        <time>2021-08-21T14:38:31.000Z</time>
      </trkpt>
      <trkpt lat="44.08512" lon="6.64216">
        <ele>2018.1999511719</ele>
        <time>2021-08-21T14:38:34.000Z</time>
      </trkpt>
      <trkpt lat="44.08511" lon="6.64212">
        <ele>2017.8000488281</ele>
        <time>2021-08-21T14:38:35.000Z</time>
      </trkpt>
      <trkpt lat="44.0851" lon="6.64208">
        <ele>2016.8000488281</ele>
        <time>2021-08-21T14:38:37.000Z</time>
      </trkpt>
      <trkpt lat="44.08509" lon="6.64204">
        <ele>2016.1999511719</ele>
        <time>2021-08-21T14:38:39.000Z</time>
      </trkpt>
      <trkpt lat="44.08508" lon="6.642">
        <ele>2015.5999755859</ele>
        <time>2021-08-21T14:38:41.000Z</time>
      </trkpt>
      <trkpt lat="44.08508" lon="6.64195">
        <ele>2015</ele>
        <time>2021-08-21T14:38:43.000Z</time>
      </trkpt>
      <trkpt lat="44.08508" lon="6.64194">
        <ele>2014.5999755859</ele>
        <time>2021-08-21T14:38:44.000Z</time>
      </trkpt>
      <trkpt lat="44.08508" lon="6.64192">
        <ele>2014.1999511719</ele>
        <time>2021-08-21T14:38:45.000Z</time>
      </trkpt>
      <trkpt lat="44.08506" lon="6.64189">
        <ele>2013.8000488281</ele>
        <time>2021-08-21T14:38:47.000Z</time>
      </trkpt>
      <trkpt lat="44.08503" lon="6.64182">
        <ele>2013.5999755859</ele>
        <time>2021-08-21T14:38:49.000Z</time>
      </trkpt>
      <trkpt lat="44.08502" lon="6.64179">
        <ele>2013.5999755859</ele>
        <time>2021-08-21T14:38:50.000Z</time>
      </trkpt>
      <trkpt lat="44.08501" lon="6.64175">
        <ele>2013.4000244141</ele>
        <time>2021-08-21T14:38:51.000Z</time>
      </trkpt>
      <trkpt lat="44.08496" lon="6.64169">
        <ele>2013</ele>
        <time>2021-08-21T14:38:53.000Z</time>
      </trkpt>
      <trkpt lat="44.08494" lon="6.64169">
        <ele>2012.8000488281</ele>
        <time>2021-08-21T14:38:54.000Z</time>
      </trkpt>
      <trkpt lat="44.08491" lon="6.6417">
        <ele>2012.4000244141</ele>
        <time>2021-08-21T14:38:55.000Z</time>
      </trkpt>
      <trkpt lat="44.08486" lon="6.64175">
        <ele>2011.8000488281</ele>
        <time>2021-08-21T14:38:57.000Z</time>
      </trkpt>
      <trkpt lat="44.08483" lon="6.64178">
        <ele>2011.5999755859</ele>
        <time>2021-08-21T14:38:58.000Z</time>
      </trkpt>
      <trkpt lat="44.08474" lon="6.64187">
        <ele>2011.8000488281</ele>
        <time>2021-08-21T14:39:02.000Z</time>
      </trkpt>
      <trkpt lat="44.08464" lon="6.6419">
        <ele>2012.1999511719</ele>
        <time>2021-08-21T14:39:06.000Z</time>
      </trkpt>
      <trkpt lat="44.08454" lon="6.64183">
        <ele>2012</ele>
        <time>2021-08-21T14:39:10.000Z</time>
      </trkpt>
      <trkpt lat="44.0845" lon="6.64185">
        <ele>2011</ele>
        <time>2021-08-21T14:39:12.000Z</time>
      </trkpt>
      <trkpt lat="44.08442" lon="6.6419">
        <ele>2009.8000488281</ele>
        <time>2021-08-21T14:39:15.000Z</time>
      </trkpt>
      <trkpt lat="44.08426" lon="6.64192">
        <ele>2009.4000244141</ele>
        <time>2021-08-21T14:39:20.000Z</time>
      </trkpt>
      <trkpt lat="44.08414" lon="6.64196">
        <ele>2008.8000488281</ele>
        <time>2021-08-21T14:39:23.000Z</time>
      </trkpt>
      <trkpt lat="44.0841" lon="6.64196">
        <ele>2008.5999755859</ele>
        <time>2021-08-21T14:39:24.000Z</time>
      </trkpt>
      <trkpt lat="44.08399" lon="6.64188">
        <ele>2008</ele>
        <time>2021-08-21T14:39:27.000Z</time>
      </trkpt>
      <trkpt lat="44.08395" lon="6.64184">
        <ele>2007.5999755859</ele>
        <time>2021-08-21T14:39:28.000Z</time>
      </trkpt>
      <trkpt lat="44.08389" lon="6.64179">
        <ele>2006.8000488281</ele>
        <time>2021-08-21T14:39:30.000Z</time>
      </trkpt>
      <trkpt lat="44.08386" lon="6.6418">
        <ele>2006.4000244141</ele>
        <time>2021-08-21T14:39:31.000Z</time>
      </trkpt>
      <trkpt lat="44.08376" lon="6.64183">
        <ele>2004.8000488281</ele>
        <time>2021-08-21T14:39:34.000Z</time>
      </trkpt>
      <trkpt lat="44.08369" lon="6.64182">
        <ele>2004.4000244141</ele>
        <time>2021-08-21T14:39:36.000Z</time>
      </trkpt>
      <trkpt lat="44.08354" lon="6.6418">
        <ele>2004.4000244141</ele>
        <time>2021-08-21T14:39:42.000Z</time>
      </trkpt>
      <trkpt lat="44.08344" lon="6.64184">
        <ele>2005.4000244141</ele>
        <time>2021-08-21T14:39:46.000Z</time>
      </trkpt>
      <trkpt lat="44.08338" lon="6.6419">
        <ele>2006</ele>
        <time>2021-08-21T14:39:48.000Z</time>
      </trkpt>
      <trkpt lat="44.08324" lon="6.64192">
        <ele>2006</ele>
        <time>2021-08-21T14:39:53.000Z</time>
      </trkpt>
      <trkpt lat="44.0832" lon="6.64193">
        <ele>2006.1999511719</ele>
        <time>2021-08-21T14:39:55.000Z</time>
      </trkpt>
      <trkpt lat="44.08316" lon="6.64196">
        <ele>2006.8000488281</ele>
        <time>2021-08-21T14:39:57.000Z</time>
      </trkpt>
      <trkpt lat="44.08313" lon="6.64196">
        <ele>2007</ele>
        <time>2021-08-21T14:39:58.000Z</time>
      </trkpt>
      <trkpt lat="44.08305" lon="6.64195">
        <ele>2007.5999755859</ele>
        <time>2021-08-21T14:40:02.000Z</time>
      </trkpt>
      <trkpt lat="44.08295" lon="6.64196">
        <ele>2008.1999511719</ele>
        <time>2021-08-21T14:40:06.000Z</time>
      </trkpt>
      <trkpt lat="44.08291" lon="6.64196">
        <ele>2008.4000244141</ele>
        <time>2021-08-21T14:40:08.000Z</time>
      </trkpt>
      <trkpt lat="44.08277" lon="6.64196">
        <ele>2008.8000488281</ele>
        <time>2021-08-21T14:40:15.000Z</time>
      </trkpt>
      <trkpt lat="44.08267" lon="6.64193">
        <ele>2008.8000488281</ele>
        <time>2021-08-21T14:40:21.000Z</time>
      </trkpt>
      <trkpt lat="44.08249" lon="6.64187">
        <ele>2009</ele>
        <time>2021-08-21T14:40:29.000Z</time>
      </trkpt>
      <trkpt lat="44.08234" lon="6.64182">
        <ele>2009</ele>
        <time>2021-08-21T14:40:36.000Z</time>
      </trkpt>
      <trkpt lat="44.08228" lon="6.64178">
        <ele>2009.4000244141</ele>
        <time>2021-08-21T14:40:40.000Z</time>
      </trkpt>
      <trkpt lat="44.08222" lon="6.64171">
        <ele>2010.4000244141</ele>
        <time>2021-08-21T14:40:44.000Z</time>
      </trkpt>
      <trkpt lat="44.08219" lon="6.64166">
        <ele>2011.4000244141</ele>
        <time>2021-08-21T14:40:47.000Z</time>
      </trkpt>
      <trkpt lat="44.08218" lon="6.6416">
        <ele>2012.8000488281</ele>
        <time>2021-08-21T14:40:50.000Z</time>
      </trkpt>
      <trkpt lat="44.08218" lon="6.64158">
        <ele>2013</ele>
        <time>2021-08-21T14:40:51.000Z</time>
      </trkpt>
      <trkpt lat="44.08216" lon="6.64152">
        <ele>2013.8000488281</ele>
        <time>2021-08-21T14:40:54.000Z</time>
      </trkpt>
      <trkpt lat="44.08213" lon="6.64146">
        <ele>2014.8000488281</ele>
        <time>2021-08-21T14:40:59.000Z</time>
      </trkpt>
      <trkpt lat="44.08212" lon="6.64146">
        <ele>2015.5999755859</ele>
        <time>2021-08-21T14:41:05.000Z</time>
      </trkpt>
      <trkpt lat="44.08212" lon="6.64146">
        <ele>2015.4000244141</ele>
        <time>2021-08-21T14:41:10.000Z</time>
      </trkpt>
      <trkpt lat="44.08208" lon="6.64142">
        <ele>2015.1999511719</ele>
        <time>2021-08-21T14:41:16.000Z</time>
      </trkpt>
      <trkpt lat="44.08208" lon="6.64141">
        <ele>2015.4000244141</ele>
        <time>2021-08-21T14:41:17.000Z</time>
      </trkpt>
      <trkpt lat="44.08206" lon="6.64139">
        <ele>2016</ele>
        <time>2021-08-21T14:41:19.000Z</time>
      </trkpt>
      <trkpt lat="44.08205" lon="6.64137">
        <ele>2016.5999755859</ele>
        <time>2021-08-21T14:41:23.000Z</time>
      </trkpt>
      <trkpt lat="44.08202" lon="6.64137">
        <ele>2017.1999511719</ele>
        <time>2021-08-21T14:41:26.000Z</time>
      </trkpt>
      <trkpt lat="44.08198" lon="6.64137">
        <ele>2017.8000488281</ele>
        <time>2021-08-21T14:41:30.000Z</time>
      </trkpt>
      <trkpt lat="44.08193" lon="6.64137">
        <ele>2017.8000488281</ele>
        <time>2021-08-21T14:41:34.000Z</time>
      </trkpt>
      <trkpt lat="44.08191" lon="6.64135">
        <ele>2017.8000488281</ele>
        <time>2021-08-21T14:41:36.000Z</time>
      </trkpt>
      <trkpt lat="44.08189" lon="6.64134">
        <ele>2018.1999511719</ele>
        <time>2021-08-21T14:41:38.000Z</time>
      </trkpt>
      <trkpt lat="44.08189" lon="6.64134">
        <ele>2018.4000244141</ele>
        <time>2021-08-21T14:41:39.000Z</time>
      </trkpt>
      <trkpt lat="44.08185" lon="6.64134">
        <ele>2019</ele>
        <time>2021-08-21T14:41:43.000Z</time>
      </trkpt>
      <trkpt lat="44.08184" lon="6.64134">
        <ele>2019.1999511719</ele>
        <time>2021-08-21T14:41:44.000Z</time>
      </trkpt>
      <trkpt lat="44.08183" lon="6.64134">
        <ele>2019.4000244141</ele>
        <time>2021-08-21T14:41:45.000Z</time>
      </trkpt>
      <trkpt lat="44.08178" lon="6.64133">
        <ele>2019.5999755859</ele>
        <time>2021-08-21T14:41:49.000Z</time>
      </trkpt>
      <trkpt lat="44.08175" lon="6.64132">
        <ele>2020.1999511719</ele>
        <time>2021-08-21T14:41:53.000Z</time>
      </trkpt>
      <trkpt lat="44.08174" lon="6.64132">
        <ele>2020.4000244141</ele>
        <time>2021-08-21T14:41:54.000Z</time>
      </trkpt>
      <trkpt lat="44.08172" lon="6.64133">
        <ele>2020.5999755859</ele>
        <time>2021-08-21T14:41:56.000Z</time>
      </trkpt>
      <trkpt lat="44.0817" lon="6.64134">
        <ele>2020.8000488281</ele>
        <time>2021-08-21T14:41:58.000Z</time>
      </trkpt>
      <trkpt lat="44.08164" lon="6.64136">
        <ele>2021.4000244141</ele>
        <time>2021-08-21T14:42:04.000Z</time>
      </trkpt>
      <trkpt lat="44.08163" lon="6.64137">
        <ele>2021.5999755859</ele>
        <time>2021-08-21T14:42:05.000Z</time>
      </trkpt>
      <trkpt lat="44.08156" lon="6.6414">
        <ele>2022.5999755859</ele>
        <time>2021-08-21T14:42:13.000Z</time>
      </trkpt>
      <trkpt lat="44.08155" lon="6.6414">
        <ele>2022.8000488281</ele>
        <time>2021-08-21T14:42:14.000Z</time>
      </trkpt>
      <trkpt lat="44.08152" lon="6.64141">
        <ele>2023.8000488281</ele>
        <time>2021-08-21T14:42:17.000Z</time>
      </trkpt>
      <trkpt lat="44.08146" lon="6.6414">
        <ele>2025</ele>
        <time>2021-08-21T14:42:23.000Z</time>
      </trkpt>
      <trkpt lat="44.08138" lon="6.64141">
        <ele>2025.8000488281</ele>
        <time>2021-08-21T14:42:30.000Z</time>
      </trkpt>
      <trkpt lat="44.08136" lon="6.64141">
        <ele>2026</ele>
        <time>2021-08-21T14:42:32.000Z</time>
      </trkpt>
      <trkpt lat="44.08132" lon="6.64141">
        <ele>2026.4000244141</ele>
        <time>2021-08-21T14:42:36.000Z</time>
      </trkpt>
      <trkpt lat="44.08131" lon="6.64141">
        <ele>2026.5999755859</ele>
        <time>2021-08-21T14:42:37.000Z</time>
      </trkpt>
      <trkpt lat="44.08126" lon="6.64142">
        <ele>2026.8000488281</ele>
        <time>2021-08-21T14:42:42.000Z</time>
      </trkpt>
      <trkpt lat="44.08124" lon="6.64141">
        <ele>2026.8000488281</ele>
        <time>2021-08-21T14:42:44.000Z</time>
      </trkpt>
      <trkpt lat="44.08119" lon="6.64141">
        <ele>2026.8000488281</ele>
        <time>2021-08-21T14:42:49.000Z</time>
      </trkpt>
      <trkpt lat="44.08116" lon="6.64141">
        <ele>2027</ele>
        <time>2021-08-21T14:42:52.000Z</time>
      </trkpt>
      <trkpt lat="44.08112" lon="6.6414">
        <ele>2027.8000488281</ele>
        <time>2021-08-21T14:42:58.000Z</time>
      </trkpt>
      <trkpt lat="44.0811" lon="6.6414">
        <ele>2028.1999511719</ele>
        <time>2021-08-21T14:43:02.000Z</time>
      </trkpt>
      <trkpt lat="44.0811" lon="6.6414">
        <ele>2028.1999511719</ele>
        <time>2021-08-21T14:43:03.000Z</time>
      </trkpt>
      <trkpt lat="44.08107" lon="6.64141">
        <ele>2029.4000244141</ele>
        <time>2021-08-21T14:43:07.000Z</time>
      </trkpt>
      <trkpt lat="44.08106" lon="6.6414">
        <ele>2029.8000488281</ele>
        <time>2021-08-21T14:43:10.000Z</time>
      </trkpt>
      <trkpt lat="44.08102" lon="6.64139">
        <ele>2030.4000244141</ele>
        <time>2021-08-21T14:43:15.000Z</time>
      </trkpt>
      <trkpt lat="44.081" lon="6.64138">
        <ele>2031</ele>
        <time>2021-08-21T14:43:18.000Z</time>
      </trkpt>
      <trkpt lat="44.08099" lon="6.64137">
        <ele>2031.4000244141</ele>
        <time>2021-08-21T14:43:20.000Z</time>
      </trkpt>
      <trkpt lat="44.08096" lon="6.64137">
        <ele>2032.4000244141</ele>
        <time>2021-08-21T14:43:24.000Z</time>
      </trkpt>
      <trkpt lat="44.08096" lon="6.64136">
        <ele>2032.5999755859</ele>
        <time>2021-08-21T14:43:25.000Z</time>
      </trkpt>
      <trkpt lat="44.0809" lon="6.64136">
        <ele>2033.5999755859</ele>
        <time>2021-08-21T14:43:31.000Z</time>
      </trkpt>
      <trkpt lat="44.08089" lon="6.64136">
        <ele>2033.8000488281</ele>
        <time>2021-08-21T14:43:33.000Z</time>
      </trkpt>
      <trkpt lat="44.08083" lon="6.64133">
        <ele>2034.4000244141</ele>
        <time>2021-08-21T14:43:40.000Z</time>
      </trkpt>
      <trkpt lat="44.08081" lon="6.64132">
        <ele>2034.5999755859</ele>
        <time>2021-08-21T14:43:42.000Z</time>
      </trkpt>
      <trkpt lat="44.08077" lon="6.64132">
        <ele>2035</ele>
        <time>2021-08-21T14:43:46.000Z</time>
      </trkpt>
      <trkpt lat="44.08076" lon="6.64131">
        <ele>2035.1999511719</ele>
        <time>2021-08-21T14:43:47.000Z</time>
      </trkpt>
      <trkpt lat="44.08073" lon="6.64129">
        <ele>2035.8000488281</ele>
        <time>2021-08-21T14:43:51.000Z</time>
      </trkpt>
      <trkpt lat="44.08069" lon="6.64127">
        <ele>2036.1999511719</ele>
        <time>2021-08-21T14:43:55.000Z</time>
      </trkpt>
      <trkpt lat="44.0807" lon="6.64128">
        <ele>2036.4000244141</ele>
        <time>2021-08-21T14:44:00.000Z</time>
      </trkpt>
      <trkpt lat="44.08073" lon="6.64136">
        <ele>2036.8000488281</ele>
        <time>2021-08-21T14:44:09.000Z</time>
      </trkpt>
      <trkpt lat="44.08074" lon="6.64137">
        <ele>2037</ele>
        <time>2021-08-21T14:44:15.000Z</time>
      </trkpt>
      <trkpt lat="44.08074" lon="6.64137">
        <ele>2037.8000488281</ele>
        <time>2021-08-21T14:44:24.000Z</time>
      </trkpt>
      <trkpt lat="44.08074" lon="6.64137">
        <ele>2037.8000488281</ele>
        <time>2021-08-21T14:44:25.000Z</time>
      </trkpt>
      <trkpt lat="44.08074" lon="6.64137">
        <ele>2037.4000244141</ele>
        <time>2021-08-21T14:44:33.000Z</time>
      </trkpt>
      <trkpt lat="44.08074" lon="6.64136">
        <ele>2037.4000244141</ele>
        <time>2021-08-21T14:44:56.000Z</time>
      </trkpt>
      <trkpt lat="44.08073" lon="6.64136">
        <ele>2037</ele>
        <time>2021-08-21T14:45:15.000Z</time>
      </trkpt>
      <trkpt lat="44.08073" lon="6.64136">
        <ele>2037.1999511719</ele>
        <time>2021-08-21T14:45:37.000Z</time>
      </trkpt>
      <trkpt lat="44.08073" lon="6.64135">
        <ele>2037</ele>
        <time>2021-08-21T14:45:49.000Z</time>
      </trkpt>
      <trkpt lat="44.08072" lon="6.64134">
        <ele>2036.8000488281</ele>
        <time>2021-08-21T14:45:55.000Z</time>
      </trkpt>
      <trkpt lat="44.08072" lon="6.64134">
        <ele>2036.8000488281</ele>
        <time>2021-08-21T14:45:59.000Z</time>
      </trkpt>
      <trkpt lat="44.08072" lon="6.64135">
        <ele>2036.8000488281</ele>
        <time>2021-08-21T14:46:17.000Z</time>
      </trkpt>
      <trkpt lat="44.08072" lon="6.64135">
        <ele>2036.5999755859</ele>
        <time>2021-08-21T14:46:34.000Z</time>
      </trkpt>
      <trkpt lat="44.08071" lon="6.64134">
        <ele>2036.5999755859</ele>
        <time>2021-08-21T14:46:47.000Z</time>
      </trkpt>
      <trkpt lat="44.0807" lon="6.64133">
        <ele>2036.8000488281</ele>
        <time>2021-08-21T14:46:53.000Z</time>
      </trkpt>
      <trkpt lat="44.0807" lon="6.64134">
        <ele>2036.5999755859</ele>
        <time>2021-08-21T14:46:54.000Z</time>
      </trkpt>
      <trkpt lat="44.08072" lon="6.64135">
        <ele>2037.1999511719</ele>
        <time>2021-08-21T14:46:59.000Z</time>
      </trkpt>
      <trkpt lat="44.08071" lon="6.64134">
        <ele>2037.4000244141</ele>
        <time>2021-08-21T14:47:00.000Z</time>
      </trkpt>
      <trkpt lat="44.08069" lon="6.64132">
        <ele>2038</ele>
        <time>2021-08-21T14:47:03.000Z</time>
      </trkpt>
      <trkpt lat="44.08067" lon="6.6413">
        <ele>2038</ele>
        <time>2021-08-21T14:47:05.000Z</time>
      </trkpt>
      <trkpt lat="44.08066" lon="6.64126">
        <ele>2036.8000488281</ele>
        <time>2021-08-21T14:47:10.000Z</time>
      </trkpt>
      <trkpt lat="44.08066" lon="6.64126">
        <ele>2036.5999755859</ele>
        <time>2021-08-21T14:47:11.000Z</time>
      </trkpt>
      <trkpt lat="44.08065" lon="6.64128">
        <ele>2036.5999755859</ele>
        <time>2021-08-21T14:47:15.000Z</time>
      </trkpt>
      <trkpt lat="44.08064" lon="6.6413">
        <ele>2036.5999755859</ele>
        <time>2021-08-21T14:47:17.000Z</time>
      </trkpt>
      <trkpt lat="44.08062" lon="6.64133">
        <ele>2036.1999511719</ele>
        <time>2021-08-21T14:47:23.000Z</time>
      </trkpt>
      <trkpt lat="44.08064" lon="6.64132">
        <ele>2036</ele>
        <time>2021-08-21T14:47:46.000Z</time>
      </trkpt>
      <trkpt lat="44.08064" lon="6.64131">
        <ele>2036</ele>
        <time>2021-08-21T14:47:47.000Z</time>
      </trkpt>
      <trkpt lat="44.08067" lon="6.64126">
        <ele>2036.4000244141</ele>
        <time>2021-08-21T14:47:56.000Z</time>
      </trkpt>
      <trkpt lat="44.08067" lon="6.64126">
        <ele>2036.8000488281</ele>
        <time>2021-08-21T14:48:04.000Z</time>
      </trkpt>
      <trkpt lat="44.08067" lon="6.64126">
        <ele>2036</ele>
        <time>2021-08-21T14:48:16.000Z</time>
      </trkpt>
      <trkpt lat="44.08067" lon="6.64126">
        <ele>2036</ele>
        <time>2021-08-21T14:48:27.000Z</time>
      </trkpt>
      <trkpt lat="44.08068" lon="6.64125">
        <ele>2036</ele>
        <time>2021-08-21T14:48:28.000Z</time>
      </trkpt>
      <trkpt lat="44.08069" lon="6.64124">
        <ele>2036.1999511719</ele>
        <time>2021-08-21T14:48:32.000Z</time>
      </trkpt>
      <trkpt lat="44.0807" lon="6.64125">
        <ele>2037</ele>
        <time>2021-08-21T14:48:48.000Z</time>
      </trkpt>
      <trkpt lat="44.0807" lon="6.64125">
        <ele>2036.8000488281</ele>
        <time>2021-08-21T14:48:54.000Z</time>
      </trkpt>
      <trkpt lat="44.0807" lon="6.64125">
        <ele>2037</ele>
        <time>2021-08-21T14:49:20.000Z</time>
      </trkpt>
      <trkpt lat="44.0807" lon="6.64125">
        <ele>2036.5999755859</ele>
        <time>2021-08-21T14:49:38.000Z</time>
      </trkpt>
      <trkpt lat="44.08069" lon="6.64124">
        <ele>2037</ele>
        <time>2021-08-21T14:49:44.000Z</time>
      </trkpt>
      <trkpt lat="44.08069" lon="6.64125">
        <ele>2036.1999511719</ele>
        <time>2021-08-21T14:50:05.000Z</time>
      </trkpt>
      <trkpt lat="44.08068" lon="6.64125">
        <ele>2036</ele>
        <time>2021-08-21T14:50:16.000Z</time>
      </trkpt>
      <trkpt lat="44.08067" lon="6.64123">
        <ele>2036.1999511719</ele>
        <time>2021-08-21T14:50:18.000Z</time>
      </trkpt>
      <trkpt lat="44.08062" lon="6.64112">
        <ele>2036.1999511719</ele>
        <time>2021-08-21T14:50:21.000Z</time>
      </trkpt>
      <trkpt lat="44.0806" lon="6.6409">
        <ele>2036</ele>
        <time>2021-08-21T14:50:24.000Z</time>
      </trkpt>
      <trkpt lat="44.08059" lon="6.64082">
        <ele>2035.8000488281</ele>
        <time>2021-08-21T14:50:25.000Z</time>
      </trkpt>
      <trkpt lat="44.08058" lon="6.64074">
        <ele>2035.5999755859</ele>
        <time>2021-08-21T14:50:26.000Z</time>
      </trkpt>
      <trkpt lat="44.08056" lon="6.64068">
        <ele>2035.4000244141</ele>
        <time>2021-08-21T14:50:27.000Z</time>
      </trkpt>
      <trkpt lat="44.08048" lon="6.64056">
        <ele>2034.5999755859</ele>
        <time>2021-08-21T14:50:29.000Z</time>
      </trkpt>
      <trkpt lat="44.08039" lon="6.64044">
        <ele>2033.4000244141</ele>
        <time>2021-08-21T14:50:31.000Z</time>
      </trkpt>
      <trkpt lat="44.08032" lon="6.64033">
        <ele>2032.4000244141</ele>
        <time>2021-08-21T14:50:33.000Z</time>
      </trkpt>
      <trkpt lat="44.08029" lon="6.64028">
        <ele>2032</ele>
        <time>2021-08-21T14:50:34.000Z</time>
      </trkpt>
      <trkpt lat="44.08018" lon="6.64015">
        <ele>2031.4000244141</ele>
        <time>2021-08-21T14:50:37.000Z</time>
      </trkpt>
      <trkpt lat="44.08014" lon="6.6401">
        <ele>2031</ele>
        <time>2021-08-21T14:50:38.000Z</time>
      </trkpt>
      <trkpt lat="44.08006" lon="6.64003">
        <ele>2030.5999755859</ele>
        <time>2021-08-21T14:50:40.000Z</time>
      </trkpt>
      <trkpt lat="44.08" lon="6.63997">
        <ele>2030.1999511719</ele>
        <time>2021-08-21T14:50:42.000Z</time>
      </trkpt>
      <trkpt lat="44.07997" lon="6.63993">
        <ele>2029.5999755859</ele>
        <time>2021-08-21T14:50:44.000Z</time>
      </trkpt>
      <trkpt lat="44.07998" lon="6.63992">
        <ele>2029.1999511719</ele>
        <time>2021-08-21T14:50:45.000Z</time>
      </trkpt>
      <trkpt lat="44.07997" lon="6.63991">
        <ele>2028.5999755859</ele>
        <time>2021-08-21T14:50:49.000Z</time>
      </trkpt>
      <trkpt lat="44.07992" lon="6.63986">
        <ele>2028.8000488281</ele>
        <time>2021-08-21T14:50:55.000Z</time>
      </trkpt>
      <trkpt lat="44.07987" lon="6.63982">
        <ele>2028.8000488281</ele>
        <time>2021-08-21T14:51:00.000Z</time>
      </trkpt>
      <trkpt lat="44.07981" lon="6.63973">
        <ele>2028.1999511719</ele>
        <time>2021-08-21T14:51:07.000Z</time>
      </trkpt>
      <trkpt lat="44.0798" lon="6.63973">
        <ele>2028.1999511719</ele>
        <time>2021-08-21T14:51:08.000Z</time>
      </trkpt>
      <trkpt lat="44.0798" lon="6.63972">
        <ele>2028</ele>
        <time>2021-08-21T14:51:09.000Z</time>
      </trkpt>
      <trkpt lat="44.07979" lon="6.63967">
        <ele>2028</ele>
        <time>2021-08-21T14:51:11.000Z</time>
      </trkpt>
      <trkpt lat="44.07978" lon="6.63963">
        <ele>2028</ele>
        <time>2021-08-21T14:51:13.000Z</time>
      </trkpt>
      <trkpt lat="44.07972" lon="6.63954">
        <ele>2028</ele>
        <time>2021-08-21T14:51:16.000Z</time>
      </trkpt>
      <trkpt lat="44.07964" lon="6.6394">
        <ele>2027.5999755859</ele>
        <time>2021-08-21T14:51:20.000Z</time>
      </trkpt>
      <trkpt lat="44.07961" lon="6.63938">
        <ele>2027.4000244141</ele>
        <time>2021-08-21T14:51:21.000Z</time>
      </trkpt>
      <trkpt lat="44.07955" lon="6.63933">
        <ele>2027</ele>
        <time>2021-08-21T14:51:23.000Z</time>
      </trkpt>
      <trkpt lat="44.07944" lon="6.63929">
        <ele>2025.4000244141</ele>
        <time>2021-08-21T14:51:25.000Z</time>
      </trkpt>
      <trkpt lat="44.07939" lon="6.63929">
        <ele>2024.8000488281</ele>
        <time>2021-08-21T14:51:26.000Z</time>
      </trkpt>
      <trkpt lat="44.07934" lon="6.63928">
        <ele>2024.5999755859</ele>
        <time>2021-08-21T14:51:27.000Z</time>
      </trkpt>
      <trkpt lat="44.07929" lon="6.63929">
        <ele>2023.5999755859</ele>
        <time>2021-08-21T14:51:28.000Z</time>
      </trkpt>
      <trkpt lat="44.07916" lon="6.63927">
        <ele>2022.4000244141</ele>
        <time>2021-08-21T14:51:30.000Z</time>
      </trkpt>
      <trkpt lat="44.07911" lon="6.63925">
        <ele>2021.5999755859</ele>
        <time>2021-08-21T14:51:31.000Z</time>
      </trkpt>
      <trkpt lat="44.07897" lon="6.63921">
        <ele>2020.4000244141</ele>
        <time>2021-08-21T14:51:33.000Z</time>
      </trkpt>
      <trkpt lat="44.07876" lon="6.63915">
        <ele>2018.8000488281</ele>
        <time>2021-08-21T14:51:36.000Z</time>
      </trkpt>
      <trkpt lat="44.07865" lon="6.6391">
        <ele>2017.5999755859</ele>
        <time>2021-08-21T14:51:38.000Z</time>
      </trkpt>
      <trkpt lat="44.07855" lon="6.63901">
        <ele>2015.4000244141</ele>
        <time>2021-08-21T14:51:40.000Z</time>
      </trkpt>
      <trkpt lat="44.0785" lon="6.63897">
        <ele>2013.8000488281</ele>
        <time>2021-08-21T14:51:41.000Z</time>
      </trkpt>
      <trkpt lat="44.07845" lon="6.63893">
        <ele>2012.1999511719</ele>
        <time>2021-08-21T14:51:42.000Z</time>
      </trkpt>
      <trkpt lat="44.07841" lon="6.63891">
        <ele>2010.5999755859</ele>
        <time>2021-08-21T14:51:43.000Z</time>
      </trkpt>
      <trkpt lat="44.07836" lon="6.63888">
        <ele>2009</ele>
        <time>2021-08-21T14:51:44.000Z</time>
      </trkpt>
      <trkpt lat="44.07832" lon="6.63887">
        <ele>2007.8000488281</ele>
        <time>2021-08-21T14:51:45.000Z</time>
      </trkpt>
      <trkpt lat="44.07828" lon="6.63886">
        <ele>2006.5999755859</ele>
        <time>2021-08-21T14:51:46.000Z</time>
      </trkpt>
      <trkpt lat="44.07825" lon="6.63884">
        <ele>2005.4000244141</ele>
        <time>2021-08-21T14:51:47.000Z</time>
      </trkpt>
      <trkpt lat="44.07818" lon="6.63882">
        <ele>2004</ele>
        <time>2021-08-21T14:51:49.000Z</time>
      </trkpt>
      <trkpt lat="44.07814" lon="6.6388">
        <ele>2003.4000244141</ele>
        <time>2021-08-21T14:51:50.000Z</time>
      </trkpt>
      <trkpt lat="44.0781" lon="6.63878">
        <ele>2002.4000244141</ele>
        <time>2021-08-21T14:51:51.000Z</time>
      </trkpt>
      <trkpt lat="44.078" lon="6.63873">
        <ele>2001.8000488281</ele>
        <time>2021-08-21T14:51:53.000Z</time>
      </trkpt>
      <trkpt lat="44.07793" lon="6.6387">
        <ele>2001.4000244141</ele>
        <time>2021-08-21T14:51:54.000Z</time>
      </trkpt>
      <trkpt lat="44.07783" lon="6.63867">
        <ele>2000.1999511719</ele>
        <time>2021-08-21T14:51:56.000Z</time>
      </trkpt>
      <trkpt lat="44.07778" lon="6.63865">
        <ele>1999.1999511719</ele>
        <time>2021-08-21T14:51:57.000Z</time>
      </trkpt>
      <trkpt lat="44.07773" lon="6.63863">
        <ele>1998</ele>
        <time>2021-08-21T14:51:58.000Z</time>
      </trkpt>
      <trkpt lat="44.07768" lon="6.63861">
        <ele>1996.4000244141</ele>
        <time>2021-08-21T14:51:59.000Z</time>
      </trkpt>
      <trkpt lat="44.07762" lon="6.63861">
        <ele>1994.5999755859</ele>
        <time>2021-08-21T14:52:00.000Z</time>
      </trkpt>
      <trkpt lat="44.07757" lon="6.6386">
        <ele>1993.1999511719</ele>
        <time>2021-08-21T14:52:01.000Z</time>
      </trkpt>
      <trkpt lat="44.07753" lon="6.63859">
        <ele>1992.1999511719</ele>
        <time>2021-08-21T14:52:02.000Z</time>
      </trkpt>
      <trkpt lat="44.07749" lon="6.63852">
        <ele>1990.1999511719</ele>
        <time>2021-08-21T14:52:04.000Z</time>
      </trkpt>
      <trkpt lat="44.07749" lon="6.63847">
        <ele>1989.4000244141</ele>
        <time>2021-08-21T14:52:05.000Z</time>
      </trkpt>
      <trkpt lat="44.07748" lon="6.63843">
        <ele>1988.5999755859</ele>
        <time>2021-08-21T14:52:06.000Z</time>
      </trkpt>
      <trkpt lat="44.07745" lon="6.63841">
        <ele>1987.5999755859</ele>
        <time>2021-08-21T14:52:07.000Z</time>
      </trkpt>
      <trkpt lat="44.07742" lon="6.6384">
        <ele>1986.5999755859</ele>
        <time>2021-08-21T14:52:08.000Z</time>
      </trkpt>
      <trkpt lat="44.07738" lon="6.63838">
        <ele>1986</ele>
        <time>2021-08-21T14:52:09.000Z</time>
      </trkpt>
      <trkpt lat="44.07728" lon="6.63836">
        <ele>1984.8000488281</ele>
        <time>2021-08-21T14:52:11.000Z</time>
      </trkpt>
      <trkpt lat="44.07723" lon="6.63835">
        <ele>1984.4000244141</ele>
        <time>2021-08-21T14:52:12.000Z</time>
      </trkpt>
      <trkpt lat="44.07712" lon="6.63832">
        <ele>1983.5999755859</ele>
        <time>2021-08-21T14:52:14.000Z</time>
      </trkpt>
      <trkpt lat="44.07707" lon="6.6383">
        <ele>1983</ele>
        <time>2021-08-21T14:52:15.000Z</time>
      </trkpt>
      <trkpt lat="44.07704" lon="6.63828">
        <ele>1982.4000244141</ele>
        <time>2021-08-21T14:52:16.000Z</time>
      </trkpt>
      <trkpt lat="44.07701" lon="6.63828">
        <ele>1981.1999511719</ele>
        <time>2021-08-21T14:52:17.000Z</time>
      </trkpt>
      <trkpt lat="44.077" lon="6.63826">
        <ele>1980.1999511719</ele>
        <time>2021-08-21T14:52:18.000Z</time>
      </trkpt>
      <trkpt lat="44.077" lon="6.63823">
        <ele>1979</ele>
        <time>2021-08-21T14:52:19.000Z</time>
      </trkpt>
      <trkpt lat="44.07702" lon="6.63819">
        <ele>1977.8000488281</ele>
        <time>2021-08-21T14:52:20.000Z</time>
      </trkpt>
      <trkpt lat="44.07704" lon="6.63814">
        <ele>1976.5999755859</ele>
        <time>2021-08-21T14:52:21.000Z</time>
      </trkpt>
      <trkpt lat="44.07706" lon="6.63809">
        <ele>1976.1999511719</ele>
        <time>2021-08-21T14:52:22.000Z</time>
      </trkpt>
      <trkpt lat="44.07708" lon="6.63796">
        <ele>1975.5999755859</ele>
        <time>2021-08-21T14:52:24.000Z</time>
      </trkpt>
      <trkpt lat="44.07707" lon="6.63783">
        <ele>1975</ele>
        <time>2021-08-21T14:52:26.000Z</time>
      </trkpt>
      <trkpt lat="44.07704" lon="6.63778">
        <ele>1974.4000244141</ele>
        <time>2021-08-21T14:52:28.000Z</time>
      </trkpt>
      <trkpt lat="44.07701" lon="6.63776">
        <ele>1973.8000488281</ele>
        <time>2021-08-21T14:52:29.000Z</time>
      </trkpt>
      <trkpt lat="44.07693" lon="6.63771">
        <ele>1972.8000488281</ele>
        <time>2021-08-21T14:52:31.000Z</time>
      </trkpt>
      <trkpt lat="44.07688" lon="6.63767">
        <ele>1972.4000244141</ele>
        <time>2021-08-21T14:52:32.000Z</time>
      </trkpt>
      <trkpt lat="44.07684" lon="6.63764">
        <ele>1971.4000244141</ele>
        <time>2021-08-21T14:52:33.000Z</time>
      </trkpt>
      <trkpt lat="44.07672" lon="6.63757">
        <ele>1970</ele>
        <time>2021-08-21T14:52:35.000Z</time>
      </trkpt>
      <trkpt lat="44.07667" lon="6.63753">
        <ele>1969.1999511719</ele>
        <time>2021-08-21T14:52:36.000Z</time>
      </trkpt>
      <trkpt lat="44.07663" lon="6.63748">
        <ele>1968.4000244141</ele>
        <time>2021-08-21T14:52:37.000Z</time>
      </trkpt>
      <trkpt lat="44.07655" lon="6.63736">
        <ele>1966.5999755859</ele>
        <time>2021-08-21T14:52:39.000Z</time>
      </trkpt>
      <trkpt lat="44.07651" lon="6.63732">
        <ele>1965.5999755859</ele>
        <time>2021-08-21T14:52:40.000Z</time>
      </trkpt>
      <trkpt lat="44.07647" lon="6.63725">
        <ele>1963.5999755859</ele>
        <time>2021-08-21T14:52:42.000Z</time>
      </trkpt>
      <trkpt lat="44.07648" lon="6.63721">
        <ele>1962.5999755859</ele>
        <time>2021-08-21T14:52:43.000Z</time>
      </trkpt>
      <trkpt lat="44.07649" lon="6.63716">
        <ele>1961.1999511719</ele>
        <time>2021-08-21T14:52:44.000Z</time>
      </trkpt>
      <trkpt lat="44.07651" lon="6.63712">
        <ele>1960.4000244141</ele>
        <time>2021-08-21T14:52:45.000Z</time>
      </trkpt>
      <trkpt lat="44.07653" lon="6.63708">
        <ele>1959.5999755859</ele>
        <time>2021-08-21T14:52:46.000Z</time>
      </trkpt>
      <trkpt lat="44.07659" lon="6.63699">
        <ele>1959</ele>
        <time>2021-08-21T14:52:48.000Z</time>
      </trkpt>
      <trkpt lat="44.07664" lon="6.63687">
        <ele>1958.5999755859</ele>
        <time>2021-08-21T14:52:50.000Z</time>
      </trkpt>
      <trkpt lat="44.07664" lon="6.63678">
        <ele>1958.1999511719</ele>
        <time>2021-08-21T14:52:51.000Z</time>
      </trkpt>
      <trkpt lat="44.07662" lon="6.63664">
        <ele>1956.8000488281</ele>
        <time>2021-08-21T14:52:53.000Z</time>
      </trkpt>
      <trkpt lat="44.0766" lon="6.63659">
        <ele>1955.8000488281</ele>
        <time>2021-08-21T14:52:54.000Z</time>
      </trkpt>
      <trkpt lat="44.07654" lon="6.63653">
        <ele>1954</ele>
        <time>2021-08-21T14:52:56.000Z</time>
      </trkpt>
      <trkpt lat="44.07646" lon="6.63648">
        <ele>1952.8000488281</ele>
        <time>2021-08-21T14:52:58.000Z</time>
      </trkpt>
      <trkpt lat="44.07637" lon="6.6364">
        <ele>1952</ele>
        <time>2021-08-21T14:53:00.000Z</time>
      </trkpt>
      <trkpt lat="44.07632" lon="6.63637">
        <ele>1951.8000488281</ele>
        <time>2021-08-21T14:53:01.000Z</time>
      </trkpt>
      <trkpt lat="44.07627" lon="6.63633">
        <ele>1951.8000488281</ele>
        <time>2021-08-21T14:53:02.000Z</time>
      </trkpt>
      <trkpt lat="44.07623" lon="6.63629">
        <ele>1951.8000488281</ele>
        <time>2021-08-21T14:53:03.000Z</time>
      </trkpt>
      <trkpt lat="44.07619" lon="6.63624">
        <ele>1951.5999755859</ele>
        <time>2021-08-21T14:53:04.000Z</time>
      </trkpt>
      <trkpt lat="44.07606" lon="6.63614">
        <ele>1950.5999755859</ele>
        <time>2021-08-21T14:53:07.000Z</time>
      </trkpt>
      <trkpt lat="44.07602" lon="6.63611">
        <ele>1950.1999511719</ele>
        <time>2021-08-21T14:53:08.000Z</time>
      </trkpt>
      <trkpt lat="44.07593" lon="6.63607">
        <ele>1949.5999755859</ele>
        <time>2021-08-21T14:53:10.000Z</time>
      </trkpt>
      <trkpt lat="44.07587" lon="6.63602">
        <ele>1949</ele>
        <time>2021-08-21T14:53:12.000Z</time>
      </trkpt>
      <trkpt lat="44.07581" lon="6.636">
        <ele>1948.4000244141</ele>
        <time>2021-08-21T14:53:14.000Z</time>
      </trkpt>
      <trkpt lat="44.07571" lon="6.63598">
        <ele>1947.8000488281</ele>
        <time>2021-08-21T14:53:17.000Z</time>
      </trkpt>
      <trkpt lat="44.07555" lon="6.63594">
        <ele>1948.1999511719</ele>
        <time>2021-08-21T14:53:22.000Z</time>
      </trkpt>
      <trkpt lat="44.07541" lon="6.63589">
        <ele>1948</ele>
        <time>2021-08-21T14:53:28.000Z</time>
      </trkpt>
      <trkpt lat="44.07536" lon="6.63585">
        <ele>1947.5999755859</ele>
        <time>2021-08-21T14:53:32.000Z</time>
      </trkpt>
      <trkpt lat="44.07535" lon="6.63584">
        <ele>1947.4000244141</ele>
        <time>2021-08-21T14:53:33.000Z</time>
      </trkpt>
      <trkpt lat="44.07532" lon="6.6358">
        <ele>1947</ele>
        <time>2021-08-21T14:53:37.000Z</time>
      </trkpt>
      <trkpt lat="44.07526" lon="6.63575">
        <ele>1947.4000244141</ele>
        <time>2021-08-21T14:53:42.000Z</time>
      </trkpt>
      <trkpt lat="44.07524" lon="6.63569">
        <ele>1947.4000244141</ele>
        <time>2021-08-21T14:53:43.000Z</time>
      </trkpt>
      <trkpt lat="44.0752" lon="6.63562">
        <ele>1947</ele>
        <time>2021-08-21T14:53:45.000Z</time>
      </trkpt>
      <trkpt lat="44.07512" lon="6.63548">
        <ele>1946</ele>
        <time>2021-08-21T14:53:49.000Z</time>
      </trkpt>
      <trkpt lat="44.07506" lon="6.63538">
        <ele>1944.8000488281</ele>
        <time>2021-08-21T14:53:52.000Z</time>
      </trkpt>
      <trkpt lat="44.07504" lon="6.63536">
        <ele>1944.4000244141</ele>
        <time>2021-08-21T14:53:53.000Z</time>
      </trkpt>
      <trkpt lat="44.07502" lon="6.6353">
        <ele>1942.8000488281</ele>
        <time>2021-08-21T14:53:55.000Z</time>
      </trkpt>
      <trkpt lat="44.07501" lon="6.63527">
        <ele>1942.1999511719</ele>
        <time>2021-08-21T14:53:56.000Z</time>
      </trkpt>
      <trkpt lat="44.07499" lon="6.63525">
        <ele>1941.5999755859</ele>
        <time>2021-08-21T14:53:57.000Z</time>
      </trkpt>
      <trkpt lat="44.07495" lon="6.6352">
        <ele>1940.4000244141</ele>
        <time>2021-08-21T14:53:59.000Z</time>
      </trkpt>
      <trkpt lat="44.07493" lon="6.63517">
        <ele>1940</ele>
        <time>2021-08-21T14:54:00.000Z</time>
      </trkpt>
      <trkpt lat="44.07489" lon="6.63511">
        <ele>1938.8000488281</ele>
        <time>2021-08-21T14:54:02.000Z</time>
      </trkpt>
      <trkpt lat="44.07485" lon="6.63504">
        <ele>1937</ele>
        <time>2021-08-21T14:54:04.000Z</time>
      </trkpt>
      <trkpt lat="44.07485" lon="6.635">
        <ele>1936</ele>
        <time>2021-08-21T14:54:05.000Z</time>
      </trkpt>
      <trkpt lat="44.07482" lon="6.63493">
        <ele>1934</ele>
        <time>2021-08-21T14:54:07.000Z</time>
      </trkpt>
      <trkpt lat="44.07479" lon="6.63491">
        <ele>1933</ele>
        <time>2021-08-21T14:54:08.000Z</time>
      </trkpt>
      <trkpt lat="44.07475" lon="6.6349">
        <ele>1932</ele>
        <time>2021-08-21T14:54:09.000Z</time>
      </trkpt>
      <trkpt lat="44.07468" lon="6.63485">
        <ele>1930.1999511719</ele>
        <time>2021-08-21T14:54:11.000Z</time>
      </trkpt>
      <trkpt lat="44.07463" lon="6.63483">
        <ele>1929.1999511719</ele>
        <time>2021-08-21T14:54:12.000Z</time>
      </trkpt>
      <trkpt lat="44.0746" lon="6.63482">
        <ele>1928.1999511719</ele>
        <time>2021-08-21T14:54:13.000Z</time>
      </trkpt>
      <trkpt lat="44.07451" lon="6.6348">
        <ele>1926.4000244141</ele>
        <time>2021-08-21T14:54:15.000Z</time>
      </trkpt>
      <trkpt lat="44.07447" lon="6.63481">
        <ele>1925.4000244141</ele>
        <time>2021-08-21T14:54:16.000Z</time>
      </trkpt>
      <trkpt lat="44.07442" lon="6.63481">
        <ele>1924.5999755859</ele>
        <time>2021-08-21T14:54:17.000Z</time>
      </trkpt>
      <trkpt lat="44.07435" lon="6.63481">
        <ele>1923.1999511719</ele>
        <time>2021-08-21T14:54:19.000Z</time>
      </trkpt>
      <trkpt lat="44.07432" lon="6.63482">
        <ele>1922.1999511719</ele>
        <time>2021-08-21T14:54:20.000Z</time>
      </trkpt>
      <trkpt lat="44.07428" lon="6.6348">
        <ele>1921.1999511719</ele>
        <time>2021-08-21T14:54:21.000Z</time>
      </trkpt>
      <trkpt lat="44.07423" lon="6.63474">
        <ele>1919.4000244141</ele>
        <time>2021-08-21T14:54:23.000Z</time>
      </trkpt>
      <trkpt lat="44.07416" lon="6.63469">
        <ele>1917.5999755859</ele>
        <time>2021-08-21T14:54:25.000Z</time>
      </trkpt>
      <trkpt lat="44.0741" lon="6.63462">
        <ele>1915.8000488281</ele>
        <time>2021-08-21T14:54:27.000Z</time>
      </trkpt>
      <trkpt lat="44.07407" lon="6.63458">
        <ele>1914.8000488281</ele>
        <time>2021-08-21T14:54:28.000Z</time>
      </trkpt>
      <trkpt lat="44.07403" lon="6.63454">
        <ele>1913.8000488281</ele>
        <time>2021-08-21T14:54:29.000Z</time>
      </trkpt>
      <trkpt lat="44.07398" lon="6.63451">
        <ele>1912.8000488281</ele>
        <time>2021-08-21T14:54:30.000Z</time>
      </trkpt>
      <trkpt lat="44.07393" lon="6.63449">
        <ele>1911.4000244141</ele>
        <time>2021-08-21T14:54:31.000Z</time>
      </trkpt>
      <trkpt lat="44.07388" lon="6.63448">
        <ele>1910.1999511719</ele>
        <time>2021-08-21T14:54:32.000Z</time>
      </trkpt>
      <trkpt lat="44.07383" lon="6.63443">
        <ele>1908</ele>
        <time>2021-08-21T14:54:34.000Z</time>
      </trkpt>
      <trkpt lat="44.07383" lon="6.6344">
        <ele>1906.4000244141</ele>
        <time>2021-08-21T14:54:35.000Z</time>
      </trkpt>
      <trkpt lat="44.07384" lon="6.63435">
        <ele>1907.5999755859</ele>
        <time>2021-08-21T14:54:36.000Z</time>
      </trkpt>
      <trkpt lat="44.07388" lon="6.63428">
        <ele>1906.5999755859</ele>
        <time>2021-08-21T14:54:38.000Z</time>
      </trkpt>
      <trkpt lat="44.07387" lon="6.63425">
        <ele>1905.4000244141</ele>
        <time>2021-08-21T14:54:39.000Z</time>
      </trkpt>
      <trkpt lat="44.07381" lon="6.63423">
        <ele>1903.8000488281</ele>
        <time>2021-08-21T14:54:41.000Z</time>
      </trkpt>
      <trkpt lat="44.07377" lon="6.63422">
        <ele>1903</ele>
        <time>2021-08-21T14:54:42.000Z</time>
      </trkpt>
      <trkpt lat="44.07373" lon="6.63421">
        <ele>1902.1999511719</ele>
        <time>2021-08-21T14:54:43.000Z</time>
      </trkpt>
      <trkpt lat="44.07369" lon="6.63419">
        <ele>1901.8000488281</ele>
        <time>2021-08-21T14:54:44.000Z</time>
      </trkpt>
      <trkpt lat="44.07361" lon="6.63416">
        <ele>1900.8000488281</ele>
        <time>2021-08-21T14:54:46.000Z</time>
      </trkpt>
      <trkpt lat="44.07352" lon="6.63413">
        <ele>1899</ele>
        <time>2021-08-21T14:54:48.000Z</time>
      </trkpt>
      <trkpt lat="44.07347" lon="6.63411">
        <ele>1897.8000488281</ele>
        <time>2021-08-21T14:54:49.000Z</time>
      </trkpt>
      <trkpt lat="44.07341" lon="6.63411">
        <ele>1896.4000244141</ele>
        <time>2021-08-21T14:54:50.000Z</time>
      </trkpt>
      <trkpt lat="44.07336" lon="6.6341">
        <ele>1895.1999511719</ele>
        <time>2021-08-21T14:54:51.000Z</time>
      </trkpt>
      <trkpt lat="44.07332" lon="6.63409">
        <ele>1894.8000488281</ele>
        <time>2021-08-21T14:54:52.000Z</time>
      </trkpt>
      <trkpt lat="44.07329" lon="6.63408">
        <ele>1893.4000244141</ele>
        <time>2021-08-21T14:54:53.000Z</time>
      </trkpt>
      <trkpt lat="44.07326" lon="6.63407">
        <ele>1892.4000244141</ele>
        <time>2021-08-21T14:54:54.000Z</time>
      </trkpt>
      <trkpt lat="44.07326" lon="6.63403">
        <ele>1891</ele>
        <time>2021-08-21T14:54:55.000Z</time>
      </trkpt>
      <trkpt lat="44.07329" lon="6.63396">
        <ele>1888.8000488281</ele>
        <time>2021-08-21T14:54:57.000Z</time>
      </trkpt>
      <trkpt lat="44.07331" lon="6.63391">
        <ele>1887.4000244141</ele>
        <time>2021-08-21T14:54:59.000Z</time>
      </trkpt>
      <trkpt lat="44.07331" lon="6.63388">
        <ele>1886.8000488281</ele>
        <time>2021-08-21T14:55:00.000Z</time>
      </trkpt>
      <trkpt lat="44.0733" lon="6.63387">
        <ele>1886.4000244141</ele>
        <time>2021-08-21T14:55:01.000Z</time>
      </trkpt>
      <trkpt lat="44.07324" lon="6.63384">
        <ele>1885.1999511719</ele>
        <time>2021-08-21T14:55:04.000Z</time>
      </trkpt>
      <trkpt lat="44.07321" lon="6.63384">
        <ele>1884.8000488281</ele>
        <time>2021-08-21T14:55:05.000Z</time>
      </trkpt>
      <trkpt lat="44.07318" lon="6.63383">
        <ele>1883.8000488281</ele>
        <time>2021-08-21T14:55:06.000Z</time>
      </trkpt>
      <trkpt lat="44.07315" lon="6.63379">
        <ele>1882.8000488281</ele>
        <time>2021-08-21T14:55:08.000Z</time>
      </trkpt>
      <trkpt lat="44.07316" lon="6.63375">
        <ele>1881.8000488281</ele>
        <time>2021-08-21T14:55:09.000Z</time>
      </trkpt>
      <trkpt lat="44.07319" lon="6.63367">
        <ele>1879.8000488281</ele>
        <time>2021-08-21T14:55:11.000Z</time>
      </trkpt>
      <trkpt lat="44.07323" lon="6.63358">
        <ele>1878.1999511719</ele>
        <time>2021-08-21T14:55:13.000Z</time>
      </trkpt>
      <trkpt lat="44.07326" lon="6.6335">
        <ele>1876.8000488281</ele>
        <time>2021-08-21T14:55:15.000Z</time>
      </trkpt>
      <trkpt lat="44.07328" lon="6.63341">
        <ele>1875.4000244141</ele>
        <time>2021-08-21T14:55:17.000Z</time>
      </trkpt>
      <trkpt lat="44.0733" lon="6.63336">
        <ele>1874.5999755859</ele>
        <time>2021-08-21T14:55:18.000Z</time>
      </trkpt>
      <trkpt lat="44.07331" lon="6.6333">
        <ele>1873.8000488281</ele>
        <time>2021-08-21T14:55:19.000Z</time>
      </trkpt>
      <trkpt lat="44.07334" lon="6.63325">
        <ele>1873</ele>
        <time>2021-08-21T14:55:20.000Z</time>
      </trkpt>
      <trkpt lat="44.07335" lon="6.63322">
        <ele>1872</ele>
        <time>2021-08-21T14:55:21.000Z</time>
      </trkpt>
      <trkpt lat="44.07335" lon="6.6332">
        <ele>1870.4000244141</ele>
        <time>2021-08-21T14:55:22.000Z</time>
      </trkpt>
      <trkpt lat="44.07331" lon="6.63317">
        <ele>1868.4000244141</ele>
        <time>2021-08-21T14:55:24.000Z</time>
      </trkpt>
      <trkpt lat="44.07326" lon="6.63316">
        <ele>1867.8000488281</ele>
        <time>2021-08-21T14:55:25.000Z</time>
      </trkpt>
      <trkpt lat="44.07321" lon="6.63316">
        <ele>1866.8000488281</ele>
        <time>2021-08-21T14:55:26.000Z</time>
      </trkpt>
      <trkpt lat="44.07317" lon="6.63315">
        <ele>1865.8000488281</ele>
        <time>2021-08-21T14:55:27.000Z</time>
      </trkpt>
      <trkpt lat="44.07314" lon="6.63313">
        <ele>1865.5999755859</ele>
        <time>2021-08-21T14:55:28.000Z</time>
      </trkpt>
      <trkpt lat="44.07309" lon="6.6331">
        <ele>1865</ele>
        <time>2021-08-21T14:55:29.000Z</time>
      </trkpt>
      <trkpt lat="44.07304" lon="6.63309">
        <ele>1864.1999511719</ele>
        <time>2021-08-21T14:55:30.000Z</time>
      </trkpt>
      <trkpt lat="44.07298" lon="6.6331">
        <ele>1862.5999755859</ele>
        <time>2021-08-21T14:55:31.000Z</time>
      </trkpt>
      <trkpt lat="44.07293" lon="6.63309">
        <ele>1861.5999755859</ele>
        <time>2021-08-21T14:55:32.000Z</time>
      </trkpt>
      <trkpt lat="44.07289" lon="6.63308">
        <ele>1860.5999755859</ele>
        <time>2021-08-21T14:55:33.000Z</time>
      </trkpt>
      <trkpt lat="44.07285" lon="6.63308">
        <ele>1859.8000488281</ele>
        <time>2021-08-21T14:55:34.000Z</time>
      </trkpt>
      <trkpt lat="44.07283" lon="6.63306">
        <ele>1859</ele>
        <time>2021-08-21T14:55:35.000Z</time>
      </trkpt>
      <trkpt lat="44.07281" lon="6.63301">
        <ele>1858</ele>
        <time>2021-08-21T14:55:36.000Z</time>
      </trkpt>
      <trkpt lat="44.07278" lon="6.63288">
        <ele>1856.1999511719</ele>
        <time>2021-08-21T14:55:38.000Z</time>
      </trkpt>
      <trkpt lat="44.07276" lon="6.63272">
        <ele>1854.4000244141</ele>
        <time>2021-08-21T14:55:40.000Z</time>
      </trkpt>
      <trkpt lat="44.07273" lon="6.6326">
        <ele>1852.1999511719</ele>
        <time>2021-08-21T14:55:42.000Z</time>
      </trkpt>
      <trkpt lat="44.07274" lon="6.63254">
        <ele>1851</ele>
        <time>2021-08-21T14:55:43.000Z</time>
      </trkpt>
      <trkpt lat="44.07274" lon="6.63247">
        <ele>1850</ele>
        <time>2021-08-21T14:55:44.000Z</time>
      </trkpt>
      <trkpt lat="44.07275" lon="6.63241">
        <ele>1850.8000488281</ele>
        <time>2021-08-21T14:55:45.000Z</time>
      </trkpt>
      <trkpt lat="44.07274" lon="6.63228">
        <ele>1848.8000488281</ele>
        <time>2021-08-21T14:55:48.000Z</time>
      </trkpt>
      <trkpt lat="44.07271" lon="6.63227">
        <ele>1847.8000488281</ele>
        <time>2021-08-21T14:55:49.000Z</time>
      </trkpt>
      <trkpt lat="44.07263" lon="6.63226">
        <ele>1845.8000488281</ele>
        <time>2021-08-21T14:55:51.000Z</time>
      </trkpt>
      <trkpt lat="44.0726" lon="6.63224">
        <ele>1844.5999755859</ele>
        <time>2021-08-21T14:55:52.000Z</time>
      </trkpt>
      <trkpt lat="44.07259" lon="6.63218">
        <ele>1843.1999511719</ele>
        <time>2021-08-21T14:55:54.000Z</time>
      </trkpt>
      <trkpt lat="44.07263" lon="6.63211">
        <ele>1841.8000488281</ele>
        <time>2021-08-21T14:55:56.000Z</time>
      </trkpt>
      <trkpt lat="44.07264" lon="6.63206">
        <ele>1841.4000244141</ele>
        <time>2021-08-21T14:55:57.000Z</time>
      </trkpt>
      <trkpt lat="44.07264" lon="6.63197">
        <ele>1840.8000488281</ele>
        <time>2021-08-21T14:55:59.000Z</time>
      </trkpt>
      <trkpt lat="44.07261" lon="6.63195">
        <ele>1840</ele>
        <time>2021-08-21T14:56:00.000Z</time>
      </trkpt>
      <trkpt lat="44.07256" lon="6.63196">
        <ele>1839.4000244141</ele>
        <time>2021-08-21T14:56:01.000Z</time>
      </trkpt>
      <trkpt lat="44.07247" lon="6.63198">
        <ele>1838.5999755859</ele>
        <time>2021-08-21T14:56:03.000Z</time>
      </trkpt>
      <trkpt lat="44.07235" lon="6.63198">
        <ele>1838</ele>
        <time>2021-08-21T14:56:05.000Z</time>
      </trkpt>
      <trkpt lat="44.07222" lon="6.63194">
        <ele>1837.4000244141</ele>
        <time>2021-08-21T14:56:07.000Z</time>
      </trkpt>
      <trkpt lat="44.07212" lon="6.63187">
        <ele>1836</ele>
        <time>2021-08-21T14:56:09.000Z</time>
      </trkpt>
      <trkpt lat="44.07209" lon="6.63183">
        <ele>1835.4000244141</ele>
        <time>2021-08-21T14:56:10.000Z</time>
      </trkpt>
      <trkpt lat="44.07207" lon="6.6318">
        <ele>1834.5999755859</ele>
        <time>2021-08-21T14:56:11.000Z</time>
      </trkpt>
      <trkpt lat="44.0721" lon="6.63171">
        <ele>1833.4000244141</ele>
        <time>2021-08-21T14:56:13.000Z</time>
      </trkpt>
      <trkpt lat="44.07212" lon="6.6316">
        <ele>1832</ele>
        <time>2021-08-21T14:56:15.000Z</time>
      </trkpt>
      <trkpt lat="44.07211" lon="6.63154">
        <ele>1831.4000244141</ele>
        <time>2021-08-21T14:56:16.000Z</time>
      </trkpt>
      <trkpt lat="44.07208" lon="6.63149">
        <ele>1830.1999511719</ele>
        <time>2021-08-21T14:56:17.000Z</time>
      </trkpt>
      <trkpt lat="44.07204" lon="6.63141">
        <ele>1828.8000488281</ele>
        <time>2021-08-21T14:56:19.000Z</time>
      </trkpt>
      <trkpt lat="44.07203" lon="6.63133">
        <ele>1827.1999511719</ele>
        <time>2021-08-21T14:56:21.000Z</time>
      </trkpt>
      <trkpt lat="44.07201" lon="6.6313">
        <ele>1827</ele>
        <time>2021-08-21T14:56:22.000Z</time>
      </trkpt>
      <trkpt lat="44.07196" lon="6.63127">
        <ele>1826</ele>
        <time>2021-08-21T14:56:24.000Z</time>
      </trkpt>
      <trkpt lat="44.07195" lon="6.63119">
        <ele>1824.1999511719</ele>
        <time>2021-08-21T14:56:26.000Z</time>
      </trkpt>
      <trkpt lat="44.07197" lon="6.63112">
        <ele>1823.1999511719</ele>
        <time>2021-08-21T14:56:27.000Z</time>
      </trkpt>
      <trkpt lat="44.07198" lon="6.63107">
        <ele>1822.4000244141</ele>
        <time>2021-08-21T14:56:28.000Z</time>
      </trkpt>
      <trkpt lat="44.07199" lon="6.63095">
        <ele>1820.8000488281</ele>
        <time>2021-08-21T14:56:30.000Z</time>
      </trkpt>
      <trkpt lat="44.072" lon="6.63091">
        <ele>1820</ele>
        <time>2021-08-21T14:56:31.000Z</time>
      </trkpt>
      <trkpt lat="44.07201" lon="6.63087">
        <ele>1819.1999511719</ele>
        <time>2021-08-21T14:56:32.000Z</time>
      </trkpt>
      <trkpt lat="44.07199" lon="6.63084">
        <ele>1818.8000488281</ele>
        <time>2021-08-21T14:56:33.000Z</time>
      </trkpt>
      <trkpt lat="44.07196" lon="6.63082">
        <ele>1818</ele>
        <time>2021-08-21T14:56:34.000Z</time>
      </trkpt>
      <trkpt lat="44.07188" lon="6.6308">
        <ele>1816.8000488281</ele>
        <time>2021-08-21T14:56:36.000Z</time>
      </trkpt>
      <trkpt lat="44.07179" lon="6.63078">
        <ele>1815.8000488281</ele>
        <time>2021-08-21T14:56:38.000Z</time>
      </trkpt>
      <trkpt lat="44.07175" lon="6.63077">
        <ele>1815.1999511719</ele>
        <time>2021-08-21T14:56:39.000Z</time>
      </trkpt>
      <trkpt lat="44.07171" lon="6.63076">
        <ele>1814.8000488281</ele>
        <time>2021-08-21T14:56:40.000Z</time>
      </trkpt>
      <trkpt lat="44.07162" lon="6.63071">
        <ele>1813.8000488281</ele>
        <time>2021-08-21T14:56:43.000Z</time>
      </trkpt>
      <trkpt lat="44.07159" lon="6.63069">
        <ele>1813.5999755859</ele>
        <time>2021-08-21T14:56:44.000Z</time>
      </trkpt>
      <trkpt lat="44.07155" lon="6.63065">
        <ele>1813</ele>
        <time>2021-08-21T14:56:47.000Z</time>
      </trkpt>
      <trkpt lat="44.07154" lon="6.63062">
        <ele>1813</ele>
        <time>2021-08-21T14:56:48.000Z</time>
      </trkpt>
      <trkpt lat="44.07146" lon="6.6305">
        <ele>1813.1999511719</ele>
        <time>2021-08-21T14:56:52.000Z</time>
      </trkpt>
      <trkpt lat="44.07141" lon="6.63035">
        <ele>1812.5999755859</ele>
        <time>2021-08-21T14:56:55.000Z</time>
      </trkpt>
      <trkpt lat="44.07138" lon="6.63032">
        <ele>1812.1999511719</ele>
        <time>2021-08-21T14:56:56.000Z</time>
      </trkpt>
      <trkpt lat="44.07129" lon="6.63029">
        <ele>1810.8000488281</ele>
        <time>2021-08-21T14:56:58.000Z</time>
      </trkpt>
      <trkpt lat="44.07121" lon="6.63024">
        <ele>1809.5999755859</ele>
        <time>2021-08-21T14:57:00.000Z</time>
      </trkpt>
      <trkpt lat="44.07114" lon="6.63018">
        <ele>1807.5999755859</ele>
        <time>2021-08-21T14:57:02.000Z</time>
      </trkpt>
      <trkpt lat="44.07111" lon="6.63015">
        <ele>1806.1999511719</ele>
        <time>2021-08-21T14:57:03.000Z</time>
      </trkpt>
      <trkpt lat="44.07108" lon="6.63013">
        <ele>1805</ele>
        <time>2021-08-21T14:57:04.000Z</time>
      </trkpt>
      <trkpt lat="44.07104" lon="6.63012">
        <ele>1803.4000244141</ele>
        <time>2021-08-21T14:57:05.000Z</time>
      </trkpt>
      <trkpt lat="44.07099" lon="6.6301">
        <ele>1802.1999511719</ele>
        <time>2021-08-21T14:57:06.000Z</time>
      </trkpt>
      <trkpt lat="44.07094" lon="6.63008">
        <ele>1801</ele>
        <time>2021-08-21T14:57:07.000Z</time>
      </trkpt>
      <trkpt lat="44.07081" lon="6.63004">
        <ele>1799.1999511719</ele>
        <time>2021-08-21T14:57:09.000Z</time>
      </trkpt>
      <trkpt lat="44.07071" lon="6.63005">
        <ele>1797</ele>
        <time>2021-08-21T14:57:11.000Z</time>
      </trkpt>
      <trkpt lat="44.07066" lon="6.63001">
        <ele>1795.1999511719</ele>
        <time>2021-08-21T14:57:13.000Z</time>
      </trkpt>
      <trkpt lat="44.07065" lon="6.62997">
        <ele>1794</ele>
        <time>2021-08-21T14:57:14.000Z</time>
      </trkpt>
      <trkpt lat="44.07063" lon="6.62993">
        <ele>1792.8000488281</ele>
        <time>2021-08-21T14:57:15.000Z</time>
      </trkpt>
      <trkpt lat="44.07059" lon="6.62989">
        <ele>1791.1999511719</ele>
        <time>2021-08-21T14:57:17.000Z</time>
      </trkpt>
      <trkpt lat="44.07056" lon="6.62987">
        <ele>1790.5999755859</ele>
        <time>2021-08-21T14:57:18.000Z</time>
      </trkpt>
      <trkpt lat="44.07054" lon="6.62985">
        <ele>1789.8000488281</ele>
        <time>2021-08-21T14:57:19.000Z</time>
      </trkpt>
      <trkpt lat="44.07054" lon="6.62978">
        <ele>1789.4000244141</ele>
        <time>2021-08-21T14:57:20.000Z</time>
      </trkpt>
      <trkpt lat="44.07055" lon="6.62973">
        <ele>1788.4000244141</ele>
        <time>2021-08-21T14:57:21.000Z</time>
      </trkpt>
      <trkpt lat="44.07057" lon="6.62968">
        <ele>1786.5999755859</ele>
        <time>2021-08-21T14:57:23.000Z</time>
      </trkpt>
      <trkpt lat="44.07057" lon="6.62964">
        <ele>1785.5999755859</ele>
        <time>2021-08-21T14:57:24.000Z</time>
      </trkpt>
      <trkpt lat="44.07055" lon="6.62961">
        <ele>1785</ele>
        <time>2021-08-21T14:57:25.000Z</time>
      </trkpt>
      <trkpt lat="44.07049" lon="6.62959">
        <ele>1783.8000488281</ele>
        <time>2021-08-21T14:57:27.000Z</time>
      </trkpt>
      <trkpt lat="44.0704" lon="6.6296">
        <ele>1782.1999511719</ele>
        <time>2021-08-21T14:57:29.000Z</time>
      </trkpt>
      <trkpt lat="44.07036" lon="6.6296">
        <ele>1781.5999755859</ele>
        <time>2021-08-21T14:57:30.000Z</time>
      </trkpt>
      <trkpt lat="44.07029" lon="6.62956">
        <ele>1780.4000244141</ele>
        <time>2021-08-21T14:57:32.000Z</time>
      </trkpt>
      <trkpt lat="44.07023" lon="6.62952">
        <ele>1780.1999511719</ele>
        <time>2021-08-21T14:57:33.000Z</time>
      </trkpt>
      <trkpt lat="44.07018" lon="6.62947">
        <ele>1779.8000488281</ele>
        <time>2021-08-21T14:57:34.000Z</time>
      </trkpt>
      <trkpt lat="44.07015" lon="6.62942">
        <ele>1779.1999511719</ele>
        <time>2021-08-21T14:57:35.000Z</time>
      </trkpt>
      <trkpt lat="44.07012" lon="6.62938">
        <ele>1778.8000488281</ele>
        <time>2021-08-21T14:57:36.000Z</time>
      </trkpt>
      <trkpt lat="44.07009" lon="6.62934">
        <ele>1777.8000488281</ele>
        <time>2021-08-21T14:57:37.000Z</time>
      </trkpt>
      <trkpt lat="44.07005" lon="6.6293">
        <ele>1777</ele>
        <time>2021-08-21T14:57:38.000Z</time>
      </trkpt>
      <trkpt lat="44.07001" lon="6.62927">
        <ele>1776</ele>
        <time>2021-08-21T14:57:39.000Z</time>
      </trkpt>
      <trkpt lat="44.06997" lon="6.62924">
        <ele>1774.4000244141</ele>
        <time>2021-08-21T14:57:40.000Z</time>
      </trkpt>
      <trkpt lat="44.06993" lon="6.62921">
        <ele>1773</ele>
        <time>2021-08-21T14:57:41.000Z</time>
      </trkpt>
      <trkpt lat="44.0699" lon="6.62916">
        <ele>1771.5999755859</ele>
        <time>2021-08-21T14:57:42.000Z</time>
      </trkpt>
      <trkpt lat="44.06986" lon="6.62912">
        <ele>1770.5999755859</ele>
        <time>2021-08-21T14:57:43.000Z</time>
      </trkpt>
      <trkpt lat="44.06982" lon="6.62908">
        <ele>1769.5999755859</ele>
        <time>2021-08-21T14:57:44.000Z</time>
      </trkpt>
      <trkpt lat="44.06978" lon="6.62904">
        <ele>1768.4000244141</ele>
        <time>2021-08-21T14:57:45.000Z</time>
      </trkpt>
      <trkpt lat="44.06973" lon="6.62902">
        <ele>1767.4000244141</ele>
        <time>2021-08-21T14:57:46.000Z</time>
      </trkpt>
      <trkpt lat="44.0697" lon="6.62898">
        <ele>1766</ele>
        <time>2021-08-21T14:57:47.000Z</time>
      </trkpt>
      <trkpt lat="44.06967" lon="6.62895">
        <ele>1765</ele>
        <time>2021-08-21T14:57:48.000Z</time>
      </trkpt>
      <trkpt lat="44.06962" lon="6.6289">
        <ele>1763.8000488281</ele>
        <time>2021-08-21T14:57:49.000Z</time>
      </trkpt>
      <trkpt lat="44.06951" lon="6.6288">
        <ele>1762</ele>
        <time>2021-08-21T14:57:51.000Z</time>
      </trkpt>
      <trkpt lat="44.06945" lon="6.62877">
        <ele>1761.4000244141</ele>
        <time>2021-08-21T14:57:52.000Z</time>
      </trkpt>
      <trkpt lat="44.06942" lon="6.62874">
        <ele>1760.1999511719</ele>
        <time>2021-08-21T14:57:53.000Z</time>
      </trkpt>
      <trkpt lat="44.06939" lon="6.6287">
        <ele>1759.5999755859</ele>
        <time>2021-08-21T14:57:54.000Z</time>
      </trkpt>
      <trkpt lat="44.06939" lon="6.62864">
        <ele>1758.1999511719</ele>
        <time>2021-08-21T14:57:55.000Z</time>
      </trkpt>
      <trkpt lat="44.06938" lon="6.62858">
        <ele>1757</ele>
        <time>2021-08-21T14:57:56.000Z</time>
      </trkpt>
      <trkpt lat="44.06936" lon="6.62853">
        <ele>1755.1999511719</ele>
        <time>2021-08-21T14:57:57.000Z</time>
      </trkpt>
      <trkpt lat="44.06933" lon="6.62849">
        <ele>1753.8000488281</ele>
        <time>2021-08-21T14:57:58.000Z</time>
      </trkpt>
      <trkpt lat="44.06929" lon="6.62845">
        <ele>1752.5999755859</ele>
        <time>2021-08-21T14:57:59.000Z</time>
      </trkpt>
      <trkpt lat="44.06926" lon="6.62843">
        <ele>1751.5999755859</ele>
        <time>2021-08-21T14:58:00.000Z</time>
      </trkpt>
      <trkpt lat="44.06923" lon="6.6284">
        <ele>1750.4000244141</ele>
        <time>2021-08-21T14:58:01.000Z</time>
      </trkpt>
      <trkpt lat="44.0692" lon="6.62836">
        <ele>1748.1999511719</ele>
        <time>2021-08-21T14:58:03.000Z</time>
      </trkpt>
      <trkpt lat="44.06921" lon="6.62833">
        <ele>1747</ele>
        <time>2021-08-21T14:58:04.000Z</time>
      </trkpt>
      <trkpt lat="44.06922" lon="6.62831">
        <ele>1745.5999755859</ele>
        <time>2021-08-21T14:58:05.000Z</time>
      </trkpt>
      <trkpt lat="44.06921" lon="6.62828">
        <ele>1744</ele>
        <time>2021-08-21T14:58:07.000Z</time>
      </trkpt>
      <trkpt lat="44.0692" lon="6.62826">
        <ele>1743.5999755859</ele>
        <time>2021-08-21T14:58:08.000Z</time>
      </trkpt>
      <trkpt lat="44.06912" lon="6.6282">
        <ele>1742.5999755859</ele>
        <time>2021-08-21T14:58:10.000Z</time>
      </trkpt>
      <trkpt lat="44.06908" lon="6.62817">
        <ele>1742.5999755859</ele>
        <time>2021-08-21T14:58:11.000Z</time>
      </trkpt>
      <trkpt lat="44.06899" lon="6.6281">
        <ele>1741.4000244141</ele>
        <time>2021-08-21T14:58:13.000Z</time>
      </trkpt>
      <trkpt lat="44.06893" lon="6.62803">
        <ele>1740.8000488281</ele>
        <time>2021-08-21T14:58:14.000Z</time>
      </trkpt>
      <trkpt lat="44.06888" lon="6.62796">
        <ele>1740</ele>
        <time>2021-08-21T14:58:15.000Z</time>
      </trkpt>
      <trkpt lat="44.06879" lon="6.62785">
        <ele>1738.4000244141</ele>
        <time>2021-08-21T14:58:17.000Z</time>
      </trkpt>
      <trkpt lat="44.06874" lon="6.62779">
        <ele>1737.1999511719</ele>
        <time>2021-08-21T14:58:18.000Z</time>
      </trkpt>
      <trkpt lat="44.06869" lon="6.62775">
        <ele>1736</ele>
        <time>2021-08-21T14:58:19.000Z</time>
      </trkpt>
      <trkpt lat="44.06863" lon="6.62772">
        <ele>1734.8000488281</ele>
        <time>2021-08-21T14:58:20.000Z</time>
      </trkpt>
      <trkpt lat="44.06858" lon="6.62769">
        <ele>1733.5999755859</ele>
        <time>2021-08-21T14:58:21.000Z</time>
      </trkpt>
      <trkpt lat="44.06852" lon="6.62766">
        <ele>1731.8000488281</ele>
        <time>2021-08-21T14:58:22.000Z</time>
      </trkpt>
      <trkpt lat="44.06847" lon="6.62762">
        <ele>1731.1999511719</ele>
        <time>2021-08-21T14:58:23.000Z</time>
      </trkpt>
      <trkpt lat="44.0684" lon="6.62757">
        <ele>1730.1999511719</ele>
        <time>2021-08-21T14:58:24.000Z</time>
      </trkpt>
      <trkpt lat="44.06835" lon="6.62751">
        <ele>1729.4000244141</ele>
        <time>2021-08-21T14:58:25.000Z</time>
      </trkpt>
      <trkpt lat="44.0683" lon="6.62744">
        <ele>1728.4000244141</ele>
        <time>2021-08-21T14:58:26.000Z</time>
      </trkpt>
      <trkpt lat="44.06825" lon="6.62737">
        <ele>1727.4000244141</ele>
        <time>2021-08-21T14:58:27.000Z</time>
      </trkpt>
      <trkpt lat="44.06815" lon="6.62728">
        <ele>1725.4000244141</ele>
        <time>2021-08-21T14:58:29.000Z</time>
      </trkpt>
      <trkpt lat="44.06812" lon="6.62725">
        <ele>1724.1999511719</ele>
        <time>2021-08-21T14:58:30.000Z</time>
      </trkpt>
      <trkpt lat="44.06811" lon="6.62721">
        <ele>1722.5999755859</ele>
        <time>2021-08-21T14:58:31.000Z</time>
      </trkpt>
      <trkpt lat="44.06812" lon="6.62717">
        <ele>1721.1999511719</ele>
        <time>2021-08-21T14:58:32.000Z</time>
      </trkpt>
      <trkpt lat="44.06811" lon="6.62712">
        <ele>1719.5999755859</ele>
        <time>2021-08-21T14:58:33.000Z</time>
      </trkpt>
      <trkpt lat="44.06809" lon="6.62706">
        <ele>1718.5999755859</ele>
        <time>2021-08-21T14:58:34.000Z</time>
      </trkpt>
      <trkpt lat="44.06807" lon="6.62701">
        <ele>1717.5999755859</ele>
        <time>2021-08-21T14:58:35.000Z</time>
      </trkpt>
      <trkpt lat="44.06803" lon="6.62692">
        <ele>1716.1999511719</ele>
        <time>2021-08-21T14:58:37.000Z</time>
      </trkpt>
      <trkpt lat="44.068" lon="6.62689">
        <ele>1715.4000244141</ele>
        <time>2021-08-21T14:58:38.000Z</time>
      </trkpt>
      <trkpt lat="44.06796" lon="6.62684">
        <ele>1714.5999755859</ele>
        <time>2021-08-21T14:58:39.000Z</time>
      </trkpt>
      <trkpt lat="44.06791" lon="6.6268">
        <ele>1713.4000244141</ele>
        <time>2021-08-21T14:58:40.000Z</time>
      </trkpt>
      <trkpt lat="44.06782" lon="6.62671">
        <ele>1711.5999755859</ele>
        <time>2021-08-21T14:58:42.000Z</time>
      </trkpt>
      <trkpt lat="44.06772" lon="6.62659">
        <ele>1710</ele>
        <time>2021-08-21T14:58:44.000Z</time>
      </trkpt>
      <trkpt lat="44.06768" lon="6.62654">
        <ele>1708.8000488281</ele>
        <time>2021-08-21T14:58:45.000Z</time>
      </trkpt>
      <trkpt lat="44.06758" lon="6.62645">
        <ele>1706.8000488281</ele>
        <time>2021-08-21T14:58:47.000Z</time>
      </trkpt>
      <trkpt lat="44.06755" lon="6.6264">
        <ele>1705.4000244141</ele>
        <time>2021-08-21T14:58:48.000Z</time>
      </trkpt>
      <trkpt lat="44.06752" lon="6.62634">
        <ele>1703.8000488281</ele>
        <time>2021-08-21T14:58:49.000Z</time>
      </trkpt>
      <trkpt lat="44.0675" lon="6.62627">
        <ele>1702.4000244141</ele>
        <time>2021-08-21T14:58:50.000Z</time>
      </trkpt>
      <trkpt lat="44.06749" lon="6.6262">
        <ele>1700.8000488281</ele>
        <time>2021-08-21T14:58:51.000Z</time>
      </trkpt>
      <trkpt lat="44.06746" lon="6.62615">
        <ele>1699.5999755859</ele>
        <time>2021-08-21T14:58:52.000Z</time>
      </trkpt>
      <trkpt lat="44.06743" lon="6.6261">
        <ele>1698.4000244141</ele>
        <time>2021-08-21T14:58:53.000Z</time>
      </trkpt>
      <trkpt lat="44.0674" lon="6.62601">
        <ele>1697.4000244141</ele>
        <time>2021-08-21T14:58:54.000Z</time>
      </trkpt>
      <trkpt lat="44.06741" lon="6.62588">
        <ele>1696</ele>
        <time>2021-08-21T14:58:56.000Z</time>
      </trkpt>
      <trkpt lat="44.06743" lon="6.62581">
        <ele>1695.1999511719</ele>
        <time>2021-08-21T14:58:57.000Z</time>
      </trkpt>
      <trkpt lat="44.06745" lon="6.62575">
        <ele>1694.4000244141</ele>
        <time>2021-08-21T14:58:58.000Z</time>
      </trkpt>
      <trkpt lat="44.06751" lon="6.62561">
        <ele>1692.8000488281</ele>
        <time>2021-08-21T14:59:00.000Z</time>
      </trkpt>
      <trkpt lat="44.06752" lon="6.62555">
        <ele>1692.1999511719</ele>
        <time>2021-08-21T14:59:01.000Z</time>
      </trkpt>
      <trkpt lat="44.06752" lon="6.62548">
        <ele>1691.5999755859</ele>
        <time>2021-08-21T14:59:02.000Z</time>
      </trkpt>
      <trkpt lat="44.06756" lon="6.62533">
        <ele>1689.8000488281</ele>
        <time>2021-08-21T14:59:05.000Z</time>
      </trkpt>
      <trkpt lat="44.06759" lon="6.62528">
        <ele>1688.8000488281</ele>
        <time>2021-08-21T14:59:06.000Z</time>
      </trkpt>
      <trkpt lat="44.06763" lon="6.62524">
        <ele>1687.4000244141</ele>
        <time>2021-08-21T14:59:07.000Z</time>
      </trkpt>
      <trkpt lat="44.06767" lon="6.62519">
        <ele>1686</ele>
        <time>2021-08-21T14:59:08.000Z</time>
      </trkpt>
      <trkpt lat="44.06771" lon="6.62513">
        <ele>1685</ele>
        <time>2021-08-21T14:59:09.000Z</time>
      </trkpt>
      <trkpt lat="44.06774" lon="6.62511">
        <ele>1684</ele>
        <time>2021-08-21T14:59:10.000Z</time>
      </trkpt>
      <trkpt lat="44.06777" lon="6.62509">
        <ele>1683.1999511719</ele>
        <time>2021-08-21T14:59:11.000Z</time>
      </trkpt>
      <trkpt lat="44.06783" lon="6.62506">
        <ele>1681.8000488281</ele>
        <time>2021-08-21T14:59:13.000Z</time>
      </trkpt>
      <trkpt lat="44.06784" lon="6.62503">
        <ele>1681</ele>
        <time>2021-08-21T14:59:14.000Z</time>
      </trkpt>
      <trkpt lat="44.06783" lon="6.62499">
        <ele>1680</ele>
        <time>2021-08-21T14:59:15.000Z</time>
      </trkpt>
      <trkpt lat="44.06779" lon="6.62488">
        <ele>1678.4000244141</ele>
        <time>2021-08-21T14:59:17.000Z</time>
      </trkpt>
      <trkpt lat="44.06776" lon="6.6248">
        <ele>1677</ele>
        <time>2021-08-21T14:59:19.000Z</time>
      </trkpt>
      <trkpt lat="44.06777" lon="6.62474">
        <ele>1675.1999511719</ele>
        <time>2021-08-21T14:59:21.000Z</time>
      </trkpt>
      <trkpt lat="44.0678" lon="6.62468">
        <ele>1673.5999755859</ele>
        <time>2021-08-21T14:59:23.000Z</time>
      </trkpt>
      <trkpt lat="44.06781" lon="6.62463">
        <ele>1672</ele>
        <time>2021-08-21T14:59:25.000Z</time>
      </trkpt>
      <trkpt lat="44.06778" lon="6.62454">
        <ele>1671.5999755859</ele>
        <time>2021-08-21T14:59:28.000Z</time>
      </trkpt>
      <trkpt lat="44.06775" lon="6.6245">
        <ele>1671.8000488281</ele>
        <time>2021-08-21T14:59:29.000Z</time>
      </trkpt>
      <trkpt lat="44.06771" lon="6.62439">
        <ele>1671.1999511719</ele>
        <time>2021-08-21T14:59:31.000Z</time>
      </trkpt>
      <trkpt lat="44.0677" lon="6.62433">
        <ele>1670.8000488281</ele>
        <time>2021-08-21T14:59:32.000Z</time>
      </trkpt>
      <trkpt lat="44.06768" lon="6.62428">
        <ele>1670.4000244141</ele>
        <time>2021-08-21T14:59:33.000Z</time>
      </trkpt>
      <trkpt lat="44.06765" lon="6.62424">
        <ele>1669.5999755859</ele>
        <time>2021-08-21T14:59:34.000Z</time>
      </trkpt>
      <trkpt lat="44.06762" lon="6.62421">
        <ele>1669.1999511719</ele>
        <time>2021-08-21T14:59:35.000Z</time>
      </trkpt>
      <trkpt lat="44.06756" lon="6.62421">
        <ele>1668.5999755859</ele>
        <time>2021-08-21T14:59:36.000Z</time>
      </trkpt>
      <trkpt lat="44.0675" lon="6.62422">
        <ele>1667.5999755859</ele>
        <time>2021-08-21T14:59:37.000Z</time>
      </trkpt>
      <trkpt lat="44.06746" lon="6.62421">
        <ele>1667.1999511719</ele>
        <time>2021-08-21T14:59:38.000Z</time>
      </trkpt>
      <trkpt lat="44.0674" lon="6.62412">
        <ele>1666</ele>
        <time>2021-08-21T14:59:40.000Z</time>
      </trkpt>
      <trkpt lat="44.06738" lon="6.62406">
        <ele>1665</ele>
        <time>2021-08-21T14:59:41.000Z</time>
      </trkpt>
      <trkpt lat="44.06734" lon="6.62396">
        <ele>1663</ele>
        <time>2021-08-21T14:59:43.000Z</time>
      </trkpt>
      <trkpt lat="44.06732" lon="6.62391">
        <ele>1661.5999755859</ele>
        <time>2021-08-21T14:59:44.000Z</time>
      </trkpt>
      <trkpt lat="44.06732" lon="6.62386">
        <ele>1660.4000244141</ele>
        <time>2021-08-21T14:59:45.000Z</time>
      </trkpt>
      <trkpt lat="44.06731" lon="6.6238">
        <ele>1659.1999511719</ele>
        <time>2021-08-21T14:59:46.000Z</time>
      </trkpt>
      <trkpt lat="44.06731" lon="6.62374">
        <ele>1658.1999511719</ele>
        <time>2021-08-21T14:59:47.000Z</time>
      </trkpt>
      <trkpt lat="44.06732" lon="6.62368">
        <ele>1657.4000244141</ele>
        <time>2021-08-21T14:59:48.000Z</time>
      </trkpt>
      <trkpt lat="44.06732" lon="6.62361">
        <ele>1656.5999755859</ele>
        <time>2021-08-21T14:59:49.000Z</time>
      </trkpt>
      <trkpt lat="44.06729" lon="6.62348">
        <ele>1654.5999755859</ele>
        <time>2021-08-21T14:59:51.000Z</time>
      </trkpt>
      <trkpt lat="44.06727" lon="6.62342">
        <ele>1653.5999755859</ele>
        <time>2021-08-21T14:59:52.000Z</time>
      </trkpt>
      <trkpt lat="44.06723" lon="6.62329">
        <ele>1651.5999755859</ele>
        <time>2021-08-21T14:59:54.000Z</time>
      </trkpt>
      <trkpt lat="44.06721" lon="6.62322">
        <ele>1650.5999755859</ele>
        <time>2021-08-21T14:59:55.000Z</time>
      </trkpt>
      <trkpt lat="44.06719" lon="6.62315">
        <ele>1649.4000244141</ele>
        <time>2021-08-21T14:59:56.000Z</time>
      </trkpt>
      <trkpt lat="44.06716" lon="6.6231">
        <ele>1648.8000488281</ele>
        <time>2021-08-21T14:59:57.000Z</time>
      </trkpt>
      <trkpt lat="44.06713" lon="6.62295">
        <ele>1648</ele>
        <time>2021-08-21T15:00:00.000Z</time>
      </trkpt>
      <trkpt lat="44.06711" lon="6.62284">
        <ele>1645.5999755859</ele>
        <time>2021-08-21T15:00:02.000Z</time>
      </trkpt>
      <trkpt lat="44.0671" lon="6.62281">
        <ele>1644.1999511719</ele>
        <time>2021-08-21T15:00:03.000Z</time>
      </trkpt>
      <trkpt lat="44.06709" lon="6.62277">
        <ele>1643.1999511719</ele>
        <time>2021-08-21T15:00:04.000Z</time>
      </trkpt>
      <trkpt lat="44.06709" lon="6.62274">
        <ele>1641.5999755859</ele>
        <time>2021-08-21T15:00:05.000Z</time>
      </trkpt>
      <trkpt lat="44.06711" lon="6.62271">
        <ele>1640.5999755859</ele>
        <time>2021-08-21T15:00:06.000Z</time>
      </trkpt>
      <trkpt lat="44.06716" lon="6.62266">
        <ele>1639.4000244141</ele>
        <time>2021-08-21T15:00:08.000Z</time>
      </trkpt>
      <trkpt lat="44.06716" lon="6.62257">
        <ele>1638.4000244141</ele>
        <time>2021-08-21T15:00:10.000Z</time>
      </trkpt>
      <trkpt lat="44.06711" lon="6.6225">
        <ele>1636.4000244141</ele>
        <time>2021-08-21T15:00:12.000Z</time>
      </trkpt>
      <trkpt lat="44.06711" lon="6.62242">
        <ele>1635.1999511719</ele>
        <time>2021-08-21T15:00:14.000Z</time>
      </trkpt>
      <trkpt lat="44.06712" lon="6.62237">
        <ele>1634.4000244141</ele>
        <time>2021-08-21T15:00:15.000Z</time>
      </trkpt>
      <trkpt lat="44.06714" lon="6.62232">
        <ele>1633.8000488281</ele>
        <time>2021-08-21T15:00:16.000Z</time>
      </trkpt>
      <trkpt lat="44.06719" lon="6.62226">
        <ele>1632.5999755859</ele>
        <time>2021-08-21T15:00:18.000Z</time>
      </trkpt>
      <trkpt lat="44.06724" lon="6.62222">
        <ele>1631</ele>
        <time>2021-08-21T15:00:20.000Z</time>
      </trkpt>
      <trkpt lat="44.06726" lon="6.62217">
        <ele>1629.4000244141</ele>
        <time>2021-08-21T15:00:22.000Z</time>
      </trkpt>
      <trkpt lat="44.06723" lon="6.62211">
        <ele>1628.4000244141</ele>
        <time>2021-08-21T15:00:24.000Z</time>
      </trkpt>
      <trkpt lat="44.06723" lon="6.62209">
        <ele>1627.8000488281</ele>
        <time>2021-08-21T15:00:25.000Z</time>
      </trkpt>
      <trkpt lat="44.06723" lon="6.62208">
        <ele>1626.8000488281</ele>
        <time>2021-08-21T15:00:26.000Z</time>
      </trkpt>
      <trkpt lat="44.06723" lon="6.62208">
        <ele>1624.8000488281</ele>
        <time>2021-08-21T15:00:27.000Z</time>
      </trkpt>
      <trkpt lat="44.06723" lon="6.62207">
        <ele>1624</ele>
        <time>2021-08-21T15:00:29.000Z</time>
      </trkpt>
      <trkpt lat="44.06723" lon="6.62207">
        <ele>1623.8000488281</ele>
        <time>2021-08-21T15:00:30.000Z</time>
      </trkpt>
      <trkpt lat="44.06724" lon="6.62206">
        <ele>1622.5999755859</ele>
        <time>2021-08-21T15:00:32.000Z</time>
      </trkpt>
      <trkpt lat="44.06724" lon="6.62205">
        <ele>1622.1999511719</ele>
        <time>2021-08-21T15:00:35.000Z</time>
      </trkpt>
      <trkpt lat="44.06724" lon="6.62201">
        <ele>1621.4000244141</ele>
        <time>2021-08-21T15:00:37.000Z</time>
      </trkpt>
      <trkpt lat="44.06721" lon="6.62197">
        <ele>1620.4000244141</ele>
        <time>2021-08-21T15:00:39.000Z</time>
      </trkpt>
      <trkpt lat="44.06719" lon="6.62195">
        <ele>1619.8000488281</ele>
        <time>2021-08-21T15:00:40.000Z</time>
      </trkpt>
      <trkpt lat="44.06711" lon="6.62194">
        <ele>1618.5999755859</ele>
        <time>2021-08-21T15:00:42.000Z</time>
      </trkpt>
      <trkpt lat="44.06707" lon="6.62196">
        <ele>1618.4000244141</ele>
        <time>2021-08-21T15:00:43.000Z</time>
      </trkpt>
      <trkpt lat="44.067" lon="6.62199">
        <ele>1616.1999511719</ele>
        <time>2021-08-21T15:00:45.000Z</time>
      </trkpt>
      <trkpt lat="44.06698" lon="6.62202">
        <ele>1616</ele>
        <time>2021-08-21T15:00:46.000Z</time>
      </trkpt>
      <trkpt lat="44.06692" lon="6.62209">
        <ele>1615.1999511719</ele>
        <time>2021-08-21T15:00:49.000Z</time>
      </trkpt>
      <trkpt lat="44.06689" lon="6.62215">
        <ele>1615</ele>
        <time>2021-08-21T15:00:51.000Z</time>
      </trkpt>
      <trkpt lat="44.06687" lon="6.62218">
        <ele>1614.4000244141</ele>
        <time>2021-08-21T15:00:52.000Z</time>
      </trkpt>
      <trkpt lat="44.06686" lon="6.62219">
        <ele>1614</ele>
        <time>2021-08-21T15:00:53.000Z</time>
      </trkpt>
      <trkpt lat="44.06685" lon="6.62221">
        <ele>1612.4000244141</ele>
        <time>2021-08-21T15:00:55.000Z</time>
      </trkpt>
      <trkpt lat="44.06684" lon="6.62222">
        <ele>1612</ele>
        <time>2021-08-21T15:00:56.000Z</time>
      </trkpt>
      <trkpt lat="44.06682" lon="6.62226">
        <ele>1611.1999511719</ele>
        <time>2021-08-21T15:00:58.000Z</time>
      </trkpt>
      <trkpt lat="44.06679" lon="6.62222">
        <ele>1610.5999755859</ele>
        <time>2021-08-21T15:01:00.000Z</time>
      </trkpt>
      <trkpt lat="44.0668" lon="6.62213">
        <ele>1610.1999511719</ele>
        <time>2021-08-21T15:01:02.000Z</time>
      </trkpt>
      <trkpt lat="44.06683" lon="6.62204">
        <ele>1609.5999755859</ele>
        <time>2021-08-21T15:01:04.000Z</time>
      </trkpt>
      <trkpt lat="44.06689" lon="6.62193">
        <ele>1608.5999755859</ele>
        <time>2021-08-21T15:01:07.000Z</time>
      </trkpt>
      <trkpt lat="44.06691" lon="6.6219">
        <ele>1608.1999511719</ele>
        <time>2021-08-21T15:01:08.000Z</time>
      </trkpt>
      <trkpt lat="44.06695" lon="6.62184">
        <ele>1607.1999511719</ele>
        <time>2021-08-21T15:01:10.000Z</time>
      </trkpt>
      <trkpt lat="44.06695" lon="6.62179">
        <ele>1605.5999755859</ele>
        <time>2021-08-21T15:01:12.000Z</time>
      </trkpt>
      <trkpt lat="44.06698" lon="6.62171">
        <ele>1604.1999511719</ele>
        <time>2021-08-21T15:01:14.000Z</time>
      </trkpt>
      <trkpt lat="44.067" lon="6.62167">
        <ele>1603.4000244141</ele>
        <time>2021-08-21T15:01:15.000Z</time>
      </trkpt>
      <trkpt lat="44.06702" lon="6.62163">
        <ele>1602.8000488281</ele>
        <time>2021-08-21T15:01:16.000Z</time>
      </trkpt>
      <trkpt lat="44.06704" lon="6.62161">
        <ele>1602.1999511719</ele>
        <time>2021-08-21T15:01:17.000Z</time>
      </trkpt>
      <trkpt lat="44.06705" lon="6.6216">
        <ele>1601.5999755859</ele>
        <time>2021-08-21T15:01:18.000Z</time>
      </trkpt>
      <trkpt lat="44.06707" lon="6.62157">
        <ele>1600.8000488281</ele>
        <time>2021-08-21T15:01:19.000Z</time>
      </trkpt>
      <trkpt lat="44.06708" lon="6.62153">
        <ele>1599.8000488281</ele>
        <time>2021-08-21T15:01:20.000Z</time>
      </trkpt>
      <trkpt lat="44.06709" lon="6.62145">
        <ele>1598.5999755859</ele>
        <time>2021-08-21T15:01:22.000Z</time>
      </trkpt>
      <trkpt lat="44.0671" lon="6.62141">
        <ele>1598.1999511719</ele>
        <time>2021-08-21T15:01:23.000Z</time>
      </trkpt>
      <trkpt lat="44.06712" lon="6.6213">
        <ele>1597.1999511719</ele>
        <time>2021-08-21T15:01:25.000Z</time>
      </trkpt>
      <trkpt lat="44.06715" lon="6.62121">
        <ele>1596</ele>
        <time>2021-08-21T15:01:27.000Z</time>
      </trkpt>
      <trkpt lat="44.06719" lon="6.62111">
        <ele>1594.4000244141</ele>
        <time>2021-08-21T15:01:29.000Z</time>
      </trkpt>
      <trkpt lat="44.06722" lon="6.62106">
        <ele>1593.4000244141</ele>
        <time>2021-08-21T15:01:30.000Z</time>
      </trkpt>
      <trkpt lat="44.06724" lon="6.62102">
        <ele>1592.1999511719</ele>
        <time>2021-08-21T15:01:31.000Z</time>
      </trkpt>
      <trkpt lat="44.06726" lon="6.62097">
        <ele>1591</ele>
        <time>2021-08-21T15:01:32.000Z</time>
      </trkpt>
      <trkpt lat="44.06728" lon="6.62093">
        <ele>1590</ele>
        <time>2021-08-21T15:01:33.000Z</time>
      </trkpt>
      <trkpt lat="44.06731" lon="6.6209">
        <ele>1589</ele>
        <time>2021-08-21T15:01:34.000Z</time>
      </trkpt>
      <trkpt lat="44.06733" lon="6.62087">
        <ele>1588</ele>
        <time>2021-08-21T15:01:35.000Z</time>
      </trkpt>
      <trkpt lat="44.06739" lon="6.62079">
        <ele>1586.4000244141</ele>
        <time>2021-08-21T15:01:37.000Z</time>
      </trkpt>
      <trkpt lat="44.06741" lon="6.62075">
        <ele>1585.1999511719</ele>
        <time>2021-08-21T15:01:38.000Z</time>
      </trkpt>
      <trkpt lat="44.06745" lon="6.6207">
        <ele>1583.5999755859</ele>
        <time>2021-08-21T15:01:40.000Z</time>
      </trkpt>
      <trkpt lat="44.06749" lon="6.62066">
        <ele>1581.8000488281</ele>
        <time>2021-08-21T15:01:42.000Z</time>
      </trkpt>
      <trkpt lat="44.06758" lon="6.62059">
        <ele>1580.4000244141</ele>
        <time>2021-08-21T15:01:45.000Z</time>
      </trkpt>
      <trkpt lat="44.06767" lon="6.62054">
        <ele>1579</ele>
        <time>2021-08-21T15:01:48.000Z</time>
      </trkpt>
      <trkpt lat="44.0677" lon="6.62051">
        <ele>1578.5999755859</ele>
        <time>2021-08-21T15:01:49.000Z</time>
      </trkpt>
      <trkpt lat="44.06772" lon="6.62047">
        <ele>1578</ele>
        <time>2021-08-21T15:01:50.000Z</time>
      </trkpt>
      <trkpt lat="44.06774" lon="6.62043">
        <ele>1577.8000488281</ele>
        <time>2021-08-21T15:01:51.000Z</time>
      </trkpt>
      <trkpt lat="44.06776" lon="6.62036">
        <ele>1576.8000488281</ele>
        <time>2021-08-21T15:01:53.000Z</time>
      </trkpt>
      <trkpt lat="44.06778" lon="6.62031">
        <ele>1575.4000244141</ele>
        <time>2021-08-21T15:01:55.000Z</time>
      </trkpt>
      <trkpt lat="44.06778" lon="6.62028">
        <ele>1574</ele>
        <time>2021-08-21T15:01:56.000Z</time>
      </trkpt>
      <trkpt lat="44.0678" lon="6.62022">
        <ele>1572</ele>
        <time>2021-08-21T15:01:58.000Z</time>
      </trkpt>
      <trkpt lat="44.06781" lon="6.62019">
        <ele>1571</ele>
        <time>2021-08-21T15:01:59.000Z</time>
      </trkpt>
      <trkpt lat="44.06784" lon="6.62015">
        <ele>1570</ele>
        <time>2021-08-21T15:02:00.000Z</time>
      </trkpt>
      <trkpt lat="44.06785" lon="6.62011">
        <ele>1569.4000244141</ele>
        <time>2021-08-21T15:02:01.000Z</time>
      </trkpt>
      <trkpt lat="44.06782" lon="6.62003">
        <ele>1568.1999511719</ele>
        <time>2021-08-21T15:02:03.000Z</time>
      </trkpt>
      <trkpt lat="44.06774" lon="6.6199">
        <ele>1567</ele>
        <time>2021-08-21T15:02:06.000Z</time>
      </trkpt>
      <trkpt lat="44.0677" lon="6.61986">
        <ele>1566.5999755859</ele>
        <time>2021-08-21T15:02:07.000Z</time>
      </trkpt>
      <trkpt lat="44.06767" lon="6.61982">
        <ele>1566.4000244141</ele>
        <time>2021-08-21T15:02:08.000Z</time>
      </trkpt>
      <trkpt lat="44.06762" lon="6.61977">
        <ele>1566</ele>
        <time>2021-08-21T15:02:09.000Z</time>
      </trkpt>
      <trkpt lat="44.06753" lon="6.61969">
        <ele>1564.8000488281</ele>
        <time>2021-08-21T15:02:11.000Z</time>
      </trkpt>
      <trkpt lat="44.06748" lon="6.61967">
        <ele>1564.1999511719</ele>
        <time>2021-08-21T15:02:12.000Z</time>
      </trkpt>
      <trkpt lat="44.06745" lon="6.61965">
        <ele>1563</ele>
        <time>2021-08-21T15:02:13.000Z</time>
      </trkpt>
      <trkpt lat="44.06741" lon="6.61962">
        <ele>1562</ele>
        <time>2021-08-21T15:02:14.000Z</time>
      </trkpt>
      <trkpt lat="44.06739" lon="6.61958">
        <ele>1560.8000488281</ele>
        <time>2021-08-21T15:02:15.000Z</time>
      </trkpt>
      <trkpt lat="44.06737" lon="6.61954">
        <ele>1559.5999755859</ele>
        <time>2021-08-21T15:02:16.000Z</time>
      </trkpt>
      <trkpt lat="44.06733" lon="6.61948">
        <ele>1558.1999511719</ele>
        <time>2021-08-21T15:02:18.000Z</time>
      </trkpt>
      <trkpt lat="44.06728" lon="6.61943">
        <ele>1557.1999511719</ele>
        <time>2021-08-21T15:02:20.000Z</time>
      </trkpt>
      <trkpt lat="44.06725" lon="6.61933">
        <ele>1555.8000488281</ele>
        <time>2021-08-21T15:02:22.000Z</time>
      </trkpt>
      <trkpt lat="44.06724" lon="6.61927">
        <ele>1554.8000488281</ele>
        <time>2021-08-21T15:02:23.000Z</time>
      </trkpt>
      <trkpt lat="44.06724" lon="6.61921">
        <ele>1554</ele>
        <time>2021-08-21T15:02:24.000Z</time>
      </trkpt>
      <trkpt lat="44.06723" lon="6.6191">
        <ele>1552.4000244141</ele>
        <time>2021-08-21T15:02:26.000Z</time>
      </trkpt>
      <trkpt lat="44.06722" lon="6.61904">
        <ele>1552</ele>
        <time>2021-08-21T15:02:27.000Z</time>
      </trkpt>
      <trkpt lat="44.06721" lon="6.61898">
        <ele>1551.8000488281</ele>
        <time>2021-08-21T15:02:28.000Z</time>
      </trkpt>
      <trkpt lat="44.06722" lon="6.61884">
        <ele>1551.1999511719</ele>
        <time>2021-08-21T15:02:30.000Z</time>
      </trkpt>
      <trkpt lat="44.06723" lon="6.61879">
        <ele>1550.8000488281</ele>
        <time>2021-08-21T15:02:31.000Z</time>
      </trkpt>
      <trkpt lat="44.06725" lon="6.61874">
        <ele>1549.8000488281</ele>
        <time>2021-08-21T15:02:33.000Z</time>
      </trkpt>
      <trkpt lat="44.06725" lon="6.61875">
        <ele>1549.1999511719</ele>
        <time>2021-08-21T15:02:34.000Z</time>
      </trkpt>
      <trkpt lat="44.06725" lon="6.61874">
        <ele>1548.5999755859</ele>
        <time>2021-08-21T15:02:35.000Z</time>
      </trkpt>
      <trkpt lat="44.06725" lon="6.61874">
        <ele>1547.4000244141</ele>
        <time>2021-08-21T15:02:37.000Z</time>
      </trkpt>
      <trkpt lat="44.06725" lon="6.61874">
        <ele>1546.5999755859</ele>
        <time>2021-08-21T15:02:47.000Z</time>
      </trkpt>
      <trkpt lat="44.06725" lon="6.61874">
        <ele>1546.4000244141</ele>
        <time>2021-08-21T15:02:49.000Z</time>
      </trkpt>
      <trkpt lat="44.06726" lon="6.61872">
        <ele>1546.8000488281</ele>
        <time>2021-08-21T15:02:56.000Z</time>
      </trkpt>
      <trkpt lat="44.06729" lon="6.61864">
        <ele>1547</ele>
        <time>2021-08-21T15:03:04.000Z</time>
      </trkpt>
      <trkpt lat="44.0673" lon="6.61861">
        <ele>1547.5999755859</ele>
        <time>2021-08-21T15:03:07.000Z</time>
      </trkpt>
      <trkpt lat="44.06733" lon="6.61856">
        <ele>1548.4000244141</ele>
        <time>2021-08-21T15:03:13.000Z</time>
      </trkpt>
      <trkpt lat="44.06733" lon="6.61856">
        <ele>1548.5999755859</ele>
        <time>2021-08-21T15:03:14.000Z</time>
      </trkpt>
      <trkpt lat="44.06733" lon="6.61854">
        <ele>1548.5999755859</ele>
        <time>2021-08-21T15:03:15.000Z</time>
      </trkpt>
      <trkpt lat="44.06734" lon="6.61847">
        <ele>1549</ele>
        <time>2021-08-21T15:03:17.000Z</time>
      </trkpt>
      <trkpt lat="44.06738" lon="6.61832">
        <ele>1548.8000488281</ele>
        <time>2021-08-21T15:03:21.000Z</time>
      </trkpt>
      <trkpt lat="44.06741" lon="6.61818">
        <ele>1547.8000488281</ele>
        <time>2021-08-21T15:03:27.000Z</time>
      </trkpt>
      <trkpt lat="44.06734" lon="6.61814">
        <ele>1547.5999755859</ele>
        <time>2021-08-21T15:03:31.000Z</time>
      </trkpt>
      <trkpt lat="44.06724" lon="6.61809">
        <ele>1546.1999511719</ele>
        <time>2021-08-21T15:03:35.000Z</time>
      </trkpt>
      <trkpt lat="44.06722" lon="6.61806">
        <ele>1545.5999755859</ele>
        <time>2021-08-21T15:03:36.000Z</time>
      </trkpt>
      <trkpt lat="44.06721" lon="6.61804">
        <ele>1545</ele>
        <time>2021-08-21T15:03:37.000Z</time>
      </trkpt>
      <trkpt lat="44.06717" lon="6.61802">
        <ele>1543.8000488281</ele>
        <time>2021-08-21T15:03:39.000Z</time>
      </trkpt>
      <trkpt lat="44.06715" lon="6.61802">
        <ele>1543.1999511719</ele>
        <time>2021-08-21T15:03:40.000Z</time>
      </trkpt>
      <trkpt lat="44.06714" lon="6.61801">
        <ele>1542.5999755859</ele>
        <time>2021-08-21T15:03:41.000Z</time>
      </trkpt>
      <trkpt lat="44.06713" lon="6.618">
        <ele>1542</ele>
        <time>2021-08-21T15:03:42.000Z</time>
      </trkpt>
      <trkpt lat="44.06714" lon="6.61797">
        <ele>1541.4000244141</ele>
        <time>2021-08-21T15:03:43.000Z</time>
      </trkpt>
      <trkpt lat="44.06714" lon="6.61795">
        <ele>1540.8000488281</ele>
        <time>2021-08-21T15:03:44.000Z</time>
      </trkpt>
      <trkpt lat="44.06716" lon="6.61791">
        <ele>1540.4000244141</ele>
        <time>2021-08-21T15:03:45.000Z</time>
      </trkpt>
      <trkpt lat="44.06717" lon="6.61788">
        <ele>1540</ele>
        <time>2021-08-21T15:03:46.000Z</time>
      </trkpt>
      <trkpt lat="44.06721" lon="6.61781">
        <ele>1539.5999755859</ele>
        <time>2021-08-21T15:03:49.000Z</time>
      </trkpt>
      <trkpt lat="44.06724" lon="6.6178">
        <ele>1539.4000244141</ele>
        <time>2021-08-21T15:03:53.000Z</time>
      </trkpt>
      <trkpt lat="44.06723" lon="6.6178">
        <ele>1539.4000244141</ele>
        <time>2021-08-21T15:04:00.000Z</time>
      </trkpt>
      <trkpt lat="44.06724" lon="6.61781">
        <ele>1539.4000244141</ele>
        <time>2021-08-21T15:04:08.000Z</time>
      </trkpt>
      <trkpt lat="44.06723" lon="6.6178">
        <ele>1539.1999511719</ele>
        <time>2021-08-21T15:04:10.000Z</time>
      </trkpt>
      <trkpt lat="44.06723" lon="6.61779">
        <ele>1539.1999511719</ele>
        <time>2021-08-21T15:04:15.000Z</time>
      </trkpt>
      <trkpt lat="44.06723" lon="6.61776">
        <ele>1539.1999511719</ele>
        <time>2021-08-21T15:04:23.000Z</time>
      </trkpt>
      <trkpt lat="44.06723" lon="6.61775">
        <ele>1539.1999511719</ele>
        <time>2021-08-21T15:04:29.000Z</time>
      </trkpt>
      <trkpt lat="44.06724" lon="6.61774">
        <ele>1539</ele>
        <time>2021-08-21T15:04:43.000Z</time>
      </trkpt>
      <trkpt lat="44.06723" lon="6.61774">
        <ele>1539</ele>
        <time>2021-08-21T15:04:53.000Z</time>
      </trkpt>
      <trkpt lat="44.06724" lon="6.61774">
        <ele>1538.8000488281</ele>
        <time>2021-08-21T15:05:11.000Z</time>
      </trkpt>
      <trkpt lat="44.06724" lon="6.61774">
        <ele>1539.1999511719</ele>
        <time>2021-08-21T15:05:27.000Z</time>
      </trkpt>
      <trkpt lat="44.06724" lon="6.61776">
        <ele>1539.1999511719</ele>
        <time>2021-08-21T15:05:39.000Z</time>
      </trkpt>
      <trkpt lat="44.06723" lon="6.61775">
        <ele>1539.4000244141</ele>
        <time>2021-08-21T15:05:44.000Z</time>
      </trkpt>
      <trkpt lat="44.06724" lon="6.61774">
        <ele>1539.1999511719</ele>
        <time>2021-08-21T15:05:48.000Z</time>
      </trkpt>
      <trkpt lat="44.06724" lon="6.61772">
        <ele>1539.1999511719</ele>
        <time>2021-08-21T15:05:49.000Z</time>
      </trkpt>
      <trkpt lat="44.06724" lon="6.61764">
        <ele>1539.5999755859</ele>
        <time>2021-08-21T15:05:53.000Z</time>
      </trkpt>
      <trkpt lat="44.06725" lon="6.61759">
        <ele>1539.5999755859</ele>
        <time>2021-08-21T15:05:55.000Z</time>
      </trkpt>
      <trkpt lat="44.06733" lon="6.61751">
        <ele>1539.5999755859</ele>
        <time>2021-08-21T15:06:00.000Z</time>
      </trkpt>
      <trkpt lat="44.06746" lon="6.61737">
        <ele>1540.1999511719</ele>
        <time>2021-08-21T15:06:07.000Z</time>
      </trkpt>
      <trkpt lat="44.06768" lon="6.61716">
        <ele>1539.5999755859</ele>
        <time>2021-08-21T15:06:14.000Z</time>
      </trkpt>
      <trkpt lat="44.06784" lon="6.61703">
        <ele>1539.4000244141</ele>
        <time>2021-08-21T15:06:18.000Z</time>
      </trkpt>
      <trkpt lat="44.06793" lon="6.61691">
        <ele>1539.4000244141</ele>
        <time>2021-08-21T15:06:21.000Z</time>
      </trkpt>
      <trkpt lat="44.06806" lon="6.61675">
        <ele>1540</ele>
        <time>2021-08-21T15:06:27.000Z</time>
      </trkpt>
      <trkpt lat="44.0681" lon="6.6167">
        <ele>1540.4000244141</ele>
        <time>2021-08-21T15:06:29.000Z</time>
      </trkpt>
      <trkpt lat="44.06826" lon="6.61654">
        <ele>1541</ele>
        <time>2021-08-21T15:06:36.000Z</time>
      </trkpt>
      <trkpt lat="44.06833" lon="6.61642">
        <ele>1541.5999755859</ele>
        <time>2021-08-21T15:06:40.000Z</time>
      </trkpt>
      <trkpt lat="44.06845" lon="6.61625">
        <ele>1542</ele>
        <time>2021-08-21T15:06:46.000Z</time>
      </trkpt>
      <trkpt lat="44.0686" lon="6.61599">
        <ele>1542.5999755859</ele>
        <time>2021-08-21T15:06:54.000Z</time>
      </trkpt>
      <trkpt lat="44.06862" lon="6.61596">
        <ele>1542.5999755859</ele>
        <time>2021-08-21T15:06:55.000Z</time>
      </trkpt>
      <trkpt lat="44.0688" lon="6.61562">
        <ele>1543</ele>
        <time>2021-08-21T15:07:05.000Z</time>
      </trkpt>
      <trkpt lat="44.06891" lon="6.61528">
        <ele>1542.1999511719</ele>
        <time>2021-08-21T15:07:14.000Z</time>
      </trkpt>
      <trkpt lat="44.06897" lon="6.61493">
        <ele>1542.5999755859</ele>
        <time>2021-08-21T15:07:23.000Z</time>
      </trkpt>
      <trkpt lat="44.06907" lon="6.61455">
        <ele>1543.4000244141</ele>
        <time>2021-08-21T15:07:33.000Z</time>
      </trkpt>
      <trkpt lat="44.06911" lon="6.61443">
        <ele>1543.5999755859</ele>
        <time>2021-08-21T15:07:36.000Z</time>
      </trkpt>
      <trkpt lat="44.06914" lon="6.61416">
        <ele>1544.4000244141</ele>
        <time>2021-08-21T15:07:43.000Z</time>
      </trkpt>
      <trkpt lat="44.06914" lon="6.61408">
        <ele>1544.8000488281</ele>
        <time>2021-08-21T15:07:45.000Z</time>
      </trkpt>
      <trkpt lat="44.06913" lon="6.61381">
        <ele>1545.4000244141</ele>
        <time>2021-08-21T15:07:52.000Z</time>
      </trkpt>
      <trkpt lat="44.0692" lon="6.61366">
        <ele>1545.8000488281</ele>
        <time>2021-08-21T15:07:57.000Z</time>
      </trkpt>
      <trkpt lat="44.06921" lon="6.61364">
        <ele>1545.8000488281</ele>
        <time>2021-08-21T15:07:58.000Z</time>
      </trkpt>
      <trkpt lat="44.06931" lon="6.61357">
        <ele>1547</ele>
        <time>2021-08-21T15:08:02.000Z</time>
      </trkpt>
      <trkpt lat="44.06938" lon="6.61354">
        <ele>1547.4000244141</ele>
        <time>2021-08-21T15:08:04.000Z</time>
      </trkpt>
      <trkpt lat="44.06963" lon="6.61348">
        <ele>1546</ele>
        <time>2021-08-21T15:08:10.000Z</time>
      </trkpt>
      <trkpt lat="44.06989" lon="6.61348">
        <ele>1545</ele>
        <time>2021-08-21T15:08:15.000Z</time>
      </trkpt>
      <trkpt lat="44.06994" lon="6.61349">
        <ele>1545</ele>
        <time>2021-08-21T15:08:16.000Z</time>
      </trkpt>
      <trkpt lat="44.07022" lon="6.61361">
        <ele>1543.8000488281</ele>
        <time>2021-08-21T15:08:21.000Z</time>
      </trkpt>
      <trkpt lat="44.07036" lon="6.61353">
        <ele>1543.1999511719</ele>
        <time>2021-08-21T15:08:24.000Z</time>
      </trkpt>
      <trkpt lat="44.07042" lon="6.6133">
        <ele>1542.8000488281</ele>
        <time>2021-08-21T15:08:27.000Z</time>
      </trkpt>
      <trkpt lat="44.07055" lon="6.61311">
        <ele>1541.8000488281</ele>
        <time>2021-08-21T15:08:30.000Z</time>
      </trkpt>
      <trkpt lat="44.07061" lon="6.61306">
        <ele>1541.5999755859</ele>
        <time>2021-08-21T15:08:31.000Z</time>
      </trkpt>
      <trkpt lat="44.07067" lon="6.61301">
        <ele>1541.1999511719</ele>
        <time>2021-08-21T15:08:32.000Z</time>
      </trkpt>
      <trkpt lat="44.07087" lon="6.61285">
        <ele>1540.8000488281</ele>
        <time>2021-08-21T15:08:35.000Z</time>
      </trkpt>
      <trkpt lat="44.07103" lon="6.61275">
        <ele>1540.4000244141</ele>
        <time>2021-08-21T15:08:37.000Z</time>
      </trkpt>
      <trkpt lat="44.07135" lon="6.61257">
        <ele>1539.4000244141</ele>
        <time>2021-08-21T15:08:41.000Z</time>
      </trkpt>
      <trkpt lat="44.07162" lon="6.61243">
        <ele>1537.8000488281</ele>
        <time>2021-08-21T15:08:44.000Z</time>
      </trkpt>
      <trkpt lat="44.07189" lon="6.61229">
        <ele>1536.5999755859</ele>
        <time>2021-08-21T15:08:47.000Z</time>
      </trkpt>
      <trkpt lat="44.07207" lon="6.6122">
        <ele>1536</ele>
        <time>2021-08-21T15:08:49.000Z</time>
      </trkpt>
      <trkpt lat="44.07225" lon="6.61211">
        <ele>1535.4000244141</ele>
        <time>2021-08-21T15:08:51.000Z</time>
      </trkpt>
      <trkpt lat="44.0724" lon="6.61203">
        <ele>1534.8000488281</ele>
        <time>2021-08-21T15:08:53.000Z</time>
      </trkpt>
      <trkpt lat="44.07257" lon="6.61193">
        <ele>1534.1999511719</ele>
        <time>2021-08-21T15:08:55.000Z</time>
      </trkpt>
      <trkpt lat="44.07265" lon="6.61188">
        <ele>1533.8000488281</ele>
        <time>2021-08-21T15:08:56.000Z</time>
      </trkpt>
      <trkpt lat="44.07302" lon="6.61164">
        <ele>1533.4000244141</ele>
        <time>2021-08-21T15:09:01.000Z</time>
      </trkpt>
      <trkpt lat="44.07307" lon="6.61157">
        <ele>1533.4000244141</ele>
        <time>2021-08-21T15:09:02.000Z</time>
      </trkpt>
      <trkpt lat="44.07316" lon="6.61139">
        <ele>1533</ele>
        <time>2021-08-21T15:09:04.000Z</time>
      </trkpt>
      <trkpt lat="44.07322" lon="6.6112">
        <ele>1532.8000488281</ele>
        <time>2021-08-21T15:09:06.000Z</time>
      </trkpt>
      <trkpt lat="44.07317" lon="6.61096">
        <ele>1532.5999755859</ele>
        <time>2021-08-21T15:09:09.000Z</time>
      </trkpt>
      <trkpt lat="44.07302" lon="6.61091">
        <ele>1532.4000244141</ele>
        <time>2021-08-21T15:09:12.000Z</time>
      </trkpt>
      <trkpt lat="44.07292" lon="6.61094">
        <ele>1532.5999755859</ele>
        <time>2021-08-21T15:09:16.000Z</time>
      </trkpt>
      <trkpt lat="44.07291" lon="6.61094">
        <ele>1532.5999755859</ele>
        <time>2021-08-21T15:09:20.000Z</time>
      </trkpt>
      <trkpt lat="44.07292" lon="6.61095">
        <ele>1532</ele>
        <time>2021-08-21T15:09:25.000Z</time>
      </trkpt>
      <trkpt lat="44.07292" lon="6.61096">
        <ele>1532</ele>
        <time>2021-08-21T15:09:26.000Z</time>
      </trkpt>
      <trkpt lat="44.07293" lon="6.61097">
        <ele>1532.4000244141</ele>
        <time>2021-08-21T15:09:35.000Z</time>
      </trkpt>
      <trkpt lat="44.07294" lon="6.61098">
        <ele>1532.4000244141</ele>
        <time>2021-08-21T15:09:49.000Z</time>
      </trkpt>
      <trkpt lat="44.07293" lon="6.61098">
        <ele>1532.1999511719</ele>
        <time>2021-08-21T15:10:01.000Z</time>
      </trkpt>
      <trkpt lat="44.07293" lon="6.61099">
        <ele>1532.4000244141</ele>
        <time>2021-08-21T15:10:09.000Z</time>
      </trkpt>
      <trkpt lat="44.07293" lon="6.61101">
        <ele>1531.5999755859</ele>
        <time>2021-08-21T15:10:29.000Z</time>
      </trkpt>
      <trkpt lat="44.07292" lon="6.61102">
        <ele>1531.5999755859</ele>
        <time>2021-08-21T15:10:38.000Z</time>
      </trkpt>
      <trkpt lat="44.07292" lon="6.61103">
        <ele>1531.5999755859</ele>
        <time>2021-08-21T15:10:47.000Z</time>
      </trkpt>
      <trkpt lat="44.07292" lon="6.61104">
        <ele>1531.5999755859</ele>
        <time>2021-08-21T15:10:59.000Z</time>
      </trkpt>
      <trkpt lat="44.07292" lon="6.61104">
        <ele>1531.4000244141</ele>
        <time>2021-08-21T15:11:19.000Z</time>
      </trkpt>
      <trkpt lat="44.07292" lon="6.61105">
        <ele>1531.4000244141</ele>
        <time>2021-08-21T15:11:37.000Z</time>
      </trkpt>
      <trkpt lat="44.07293" lon="6.61105">
        <ele>1531.5999755859</ele>
        <time>2021-08-21T15:11:49.000Z</time>
      </trkpt>
      <trkpt lat="44.07292" lon="6.61105">
        <ele>1531.5999755859</ele>
        <time>2021-08-21T15:12:02.000Z</time>
      </trkpt>
      <trkpt lat="44.07293" lon="6.61103">
        <ele>1531.5999755859</ele>
        <time>2021-08-21T15:12:09.000Z</time>
      </trkpt>
      <trkpt lat="44.07292" lon="6.61103">
        <ele>1531.5999755859</ele>
        <time>2021-08-21T15:12:15.000Z</time>
      </trkpt>
      <trkpt lat="44.07294" lon="6.61105">
        <ele>1531.5999755859</ele>
        <time>2021-08-21T15:12:17.000Z</time>
      </trkpt>
      <trkpt lat="44.07295" lon="6.61106">
        <ele>1531.5999755859</ele>
        <time>2021-08-21T15:12:19.000Z</time>
      </trkpt>
      <trkpt lat="44.07295" lon="6.61105">
        <ele>1531.4000244141</ele>
        <time>2021-08-21T15:12:23.000Z</time>
      </trkpt>
      <trkpt lat="44.07294" lon="6.61106">
        <ele>1531.4000244141</ele>
        <time>2021-08-21T15:12:29.000Z</time>
      </trkpt>
      <trkpt lat="44.07293" lon="6.61106">
        <ele>1531.4000244141</ele>
        <time>2021-08-21T15:12:35.000Z</time>
      </trkpt>
      <trkpt lat="44.07292" lon="6.61105">
        <ele>1531.4000244141</ele>
        <time>2021-08-21T15:12:48.000Z</time>
      </trkpt>
      <trkpt lat="44.07292" lon="6.61104">
        <ele>1531.4000244141</ele>
        <time>2021-08-21T15:12:55.000Z</time>
      </trkpt>
      <trkpt lat="44.07293" lon="6.61103">
        <ele>1531.4000244141</ele>
        <time>2021-08-21T15:13:02.000Z</time>
      </trkpt>
      <trkpt lat="44.07293" lon="6.61103">
        <ele>1531.5999755859</ele>
        <time>2021-08-21T15:13:07.000Z</time>
      </trkpt>
      <trkpt lat="44.07293" lon="6.61101">
        <ele>1532</ele>
        <time>2021-08-21T15:13:14.000Z</time>
      </trkpt>
      <trkpt lat="44.07294" lon="6.611">
        <ele>1532</ele>
        <time>2021-08-21T15:13:27.000Z</time>
      </trkpt>
      <trkpt lat="44.07293" lon="6.61099">
        <ele>1531.8000488281</ele>
        <time>2021-08-21T15:13:37.000Z</time>
      </trkpt>
      <trkpt lat="44.07293" lon="6.61098">
        <ele>1532.1999511719</ele>
        <time>2021-08-21T15:13:45.000Z</time>
      </trkpt>
      <trkpt lat="44.07292" lon="6.61097">
        <ele>1532.4000244141</ele>
        <time>2021-08-21T15:13:57.000Z</time>
      </trkpt>
      <trkpt lat="44.07291" lon="6.61097">
        <ele>1532.4000244141</ele>
        <time>2021-08-21T15:14:10.000Z</time>
      </trkpt>
      <trkpt lat="44.07291" lon="6.61096">
        <ele>1532</ele>
        <time>2021-08-21T15:14:21.000Z</time>
      </trkpt>
      <trkpt lat="44.07292" lon="6.61097">
        <ele>1532.4000244141</ele>
        <time>2021-08-21T15:14:36.000Z</time>
      </trkpt>
      <trkpt lat="44.07292" lon="6.61096">
        <ele>1532</ele>
        <time>2021-08-21T15:14:43.000Z</time>
      </trkpt>
      <trkpt lat="44.07293" lon="6.61097">
        <ele>1531.8000488281</ele>
        <time>2021-08-21T15:15:00.000Z</time>
      </trkpt>
      <trkpt lat="44.07292" lon="6.61097">
        <ele>1532</ele>
        <time>2021-08-21T15:15:08.000Z</time>
      </trkpt>
      <trkpt lat="44.07293" lon="6.61096">
        <ele>1531.5999755859</ele>
        <time>2021-08-21T15:15:21.000Z</time>
      </trkpt>
      <trkpt lat="44.07293" lon="6.61097">
        <ele>1531.4000244141</ele>
        <time>2021-08-21T15:15:30.000Z</time>
      </trkpt>
      <trkpt lat="44.07293" lon="6.61097">
        <ele>1531.5999755859</ele>
        <time>2021-08-21T15:15:37.000Z</time>
      </trkpt>
      <trkpt lat="44.07294" lon="6.61097">
        <ele>1531.5999755859</ele>
        <time>2021-08-21T15:15:44.000Z</time>
      </trkpt>
      <trkpt lat="44.07294" lon="6.61098">
        <ele>1531.5999755859</ele>
        <time>2021-08-21T15:15:47.000Z</time>
      </trkpt>
      <trkpt lat="44.07296" lon="6.61098">
        <ele>1531.5999755859</ele>
        <time>2021-08-21T15:15:50.000Z</time>
      </trkpt>
      <trkpt lat="44.07295" lon="6.61098">
        <ele>1531.8000488281</ele>
        <time>2021-08-21T15:15:59.000Z</time>
      </trkpt>
      <trkpt lat="44.07295" lon="6.611">
        <ele>1531.8000488281</ele>
        <time>2021-08-21T15:16:09.000Z</time>
      </trkpt>
      <trkpt lat="44.07294" lon="6.61099">
        <ele>1531.5999755859</ele>
        <time>2021-08-21T15:16:15.000Z</time>
      </trkpt>
      <trkpt lat="44.07293" lon="6.61098">
        <ele>1531.8000488281</ele>
        <time>2021-08-21T15:16:21.000Z</time>
      </trkpt>
      <trkpt lat="44.07293" lon="6.61098">
        <ele>1531.4000244141</ele>
        <time>2021-08-21T15:16:29.000Z</time>
      </trkpt>
      <trkpt lat="44.07293" lon="6.611">
        <ele>1531.5999755859</ele>
        <time>2021-08-21T15:16:35.000Z</time>
      </trkpt>
      <trkpt lat="44.07294" lon="6.61101">
        <ele>1531.4000244141</ele>
        <time>2021-08-21T15:16:42.000Z</time>
      </trkpt>
      <trkpt lat="44.07294" lon="6.611">
        <ele>1531.4000244141</ele>
        <time>2021-08-21T15:16:52.000Z</time>
      </trkpt>
      <trkpt lat="44.07294" lon="6.611">
        <ele>1531.4000244141</ele>
        <time>2021-08-21T15:17:00.000Z</time>
      </trkpt>
      <trkpt lat="44.07294" lon="6.61102">
        <ele>1532</ele>
        <time>2021-08-21T15:17:12.000Z</time>
      </trkpt>
      <trkpt lat="44.07294" lon="6.61102">
        <ele>1531.5999755859</ele>
        <time>2021-08-21T15:17:19.000Z</time>
      </trkpt>
      <trkpt lat="44.07294" lon="6.61102">
        <ele>1531.8000488281</ele>
        <time>2021-08-21T15:17:33.000Z</time>
      </trkpt>
      <trkpt lat="44.07293" lon="6.61102">
        <ele>1531.8000488281</ele>
        <time>2021-08-21T15:17:42.000Z</time>
      </trkpt>
      <trkpt lat="44.07293" lon="6.611">
        <ele>1531.8000488281</ele>
        <time>2021-08-21T15:17:55.000Z</time>
      </trkpt>
      <trkpt lat="44.07292" lon="6.61098">
        <ele>1531.8000488281</ele>
        <time>2021-08-21T15:18:04.000Z</time>
      </trkpt>
      <trkpt lat="44.07292" lon="6.61098">
        <ele>1531.8000488281</ele>
        <time>2021-08-21T15:18:15.000Z</time>
      </trkpt>
      <trkpt lat="44.07291" lon="6.61096">
        <ele>1531.8000488281</ele>
        <time>2021-08-21T15:18:27.000Z</time>
      </trkpt>
      <trkpt lat="44.07289" lon="6.61094">
        <ele>1531.8000488281</ele>
        <time>2021-08-21T15:18:47.000Z</time>
      </trkpt>
      <trkpt lat="44.07289" lon="6.61095">
        <ele>1532</ele>
        <time>2021-08-21T15:18:55.000Z</time>
      </trkpt>
      <trkpt lat="44.0729" lon="6.61096">
        <ele>1531.4000244141</ele>
        <time>2021-08-21T15:19:03.000Z</time>
      </trkpt>
      <trkpt lat="44.07291" lon="6.61098">
        <ele>1531.1999511719</ele>
        <time>2021-08-21T15:19:08.000Z</time>
      </trkpt>
      <trkpt lat="44.07292" lon="6.61099">
        <ele>1531.5999755859</ele>
        <time>2021-08-21T15:19:13.000Z</time>
      </trkpt>
      <trkpt lat="44.07292" lon="6.61099">
        <ele>1530.5999755859</ele>
        <time>2021-08-21T15:19:15.000Z</time>
      </trkpt>
      <trkpt lat="44.07292" lon="6.61099">
        <ele>1531.5999755859</ele>
        <time>2021-08-21T15:19:22.000Z</time>
      </trkpt>
      <trkpt lat="44.07292" lon="6.61101">
        <ele>1531.4000244141</ele>
        <time>2021-08-21T15:19:34.000Z</time>
      </trkpt>
      <trkpt lat="44.07292" lon="6.61102">
        <ele>1531.4000244141</ele>
        <time>2021-08-21T15:19:48.000Z</time>
      </trkpt>
      <trkpt lat="44.07293" lon="6.61103">
        <ele>1531.4000244141</ele>
        <time>2021-08-21T15:19:56.000Z</time>
      </trkpt>
      <trkpt lat="44.07295" lon="6.61104">
        <ele>1531.1999511719</ele>
        <time>2021-08-21T15:20:08.000Z</time>
      </trkpt>
      <trkpt lat="44.07294" lon="6.61105">
        <ele>1531.4000244141</ele>
        <time>2021-08-21T15:20:21.000Z</time>
      </trkpt>
      <trkpt lat="44.07294" lon="6.61105">
        <ele>1531.8000488281</ele>
        <time>2021-08-21T15:20:29.000Z</time>
      </trkpt>
      <trkpt lat="44.07295" lon="6.61105">
        <ele>1531.8000488281</ele>
        <time>2021-08-21T15:20:34.000Z</time>
      </trkpt>
      <trkpt lat="44.07296" lon="6.61106">
        <ele>1531.8000488281</ele>
        <time>2021-08-21T15:20:45.000Z</time>
      </trkpt>
      <trkpt lat="44.07296" lon="6.61106">
        <ele>1531.5999755859</ele>
        <time>2021-08-21T15:20:53.000Z</time>
      </trkpt>
      <trkpt lat="44.07297" lon="6.61106">
        <ele>1531.5999755859</ele>
        <time>2021-08-21T15:21:03.000Z</time>
      </trkpt>
      <trkpt lat="44.07297" lon="6.61105">
        <ele>1531.8000488281</ele>
        <time>2021-08-21T15:21:15.000Z</time>
      </trkpt>
      <trkpt lat="44.07296" lon="6.61103">
        <ele>1531.8000488281</ele>
        <time>2021-08-21T15:21:29.000Z</time>
      </trkpt>
      <trkpt lat="44.07296" lon="6.61103">
        <ele>1532</ele>
        <time>2021-08-21T15:21:40.000Z</time>
      </trkpt>
      <trkpt lat="44.07295" lon="6.61103">
        <ele>1530.8000488281</ele>
        <time>2021-08-21T15:21:47.000Z</time>
      </trkpt>
      <trkpt lat="44.07295" lon="6.61103">
        <ele>1530.8000488281</ele>
        <time>2021-08-21T15:21:52.000Z</time>
      </trkpt>
      <trkpt lat="44.073" lon="6.61101">
        <ele>1530.5999755859</ele>
        <time>2021-08-21T15:22:00.000Z</time>
      </trkpt>
      <trkpt lat="44.073" lon="6.611">
        <ele>1530.5999755859</ele>
        <time>2021-08-21T15:22:05.000Z</time>
      </trkpt>
      <trkpt lat="44.073" lon="6.61101">
        <ele>1531</ele>
        <time>2021-08-21T15:22:13.000Z</time>
      </trkpt>
      <trkpt lat="44.073" lon="6.61101">
        <ele>1531.4000244141</ele>
        <time>2021-08-21T15:22:23.000Z</time>
      </trkpt>
      <trkpt lat="44.07302" lon="6.61101">
        <ele>1530.4000244141</ele>
        <time>2021-08-21T15:22:34.000Z</time>
      </trkpt>
      <trkpt lat="44.07298" lon="6.61103">
        <ele>1530.5999755859</ele>
        <time>2021-08-21T15:22:37.000Z</time>
      </trkpt>
      <trkpt lat="44.07288" lon="6.61096">
        <ele>1531</ele>
        <time>2021-08-21T15:22:42.000Z</time>
      </trkpt>
      <trkpt lat="44.07286" lon="6.61095">
        <ele>1531</ele>
        <time>2021-08-21T15:22:46.000Z</time>
      </trkpt>
      <trkpt lat="44.07278" lon="6.61091">
        <ele>1531</ele>
        <time>2021-08-21T15:22:50.000Z</time>
      </trkpt>
      <trkpt lat="44.07259" lon="6.61082">
        <ele>1532</ele>
        <time>2021-08-21T15:22:54.000Z</time>
      </trkpt>
      <trkpt lat="44.07255" lon="6.6108">
        <ele>1532.4000244141</ele>
        <time>2021-08-21T15:22:55.000Z</time>
      </trkpt>
    </trkseg>
  </trk>
</gpx>